<?xml version="1.0" encoding="UTF-8" standalone="no" ?>
<gpx xmlns="http://www.topografix.com/GPX/1/1" xmlns:xsi="http://www.w3.org/2001/XMLSchema-instance" xsi:schemaLocation="http://www.topografix.com/GPX/1/1 http://www.topografix.com/GPX/1/1/gpx.xsd" version="1.1" creator="VisuGPX - https://www.visugpx.com">
  <metadata>
    <name>Sortie vélo baie de Morlaix</name>
  </metadata>
  <trk>
    <name><![CDATA[Sortie vélo baie de Morlaix_1]]></name>
    <trkseg>
      <trkpt lat="48.63079" lon="-3.92192">
        <ele>77.6</ele>
        <time>2025-06-30T08:38:11Z</time>
      </trkpt>
      <trkpt lat="48.63073" lon="-3.92188">
        <ele>77.5</ele>
        <time>2025-06-30T08:38:24Z</time>
      </trkpt>
      <trkpt lat="48.63077" lon="-3.92193">
        <ele>77.5</ele>
        <time>2025-06-30T08:38:25Z</time>
      </trkpt>
      <trkpt lat="48.63068" lon="-3.9221">
        <ele>77.4</ele>
        <time>2025-06-30T08:39:37Z</time>
      </trkpt>
      <trkpt lat="48.63064" lon="-3.92225">
        <ele>77.4</ele>
        <time>2025-06-30T08:39:42Z</time>
      </trkpt>
      <trkpt lat="48.63059" lon="-3.92238">
        <ele>77.3</ele>
        <time>2025-06-30T08:39:49Z</time>
      </trkpt>
      <trkpt lat="48.63059" lon="-3.92255">
        <ele>77.5</ele>
        <time>2025-06-30T08:39:54Z</time>
      </trkpt>
      <trkpt lat="48.63059" lon="-3.92272">
        <ele>77.4</ele>
        <time>2025-06-30T08:39:59Z</time>
      </trkpt>
      <trkpt lat="48.63059" lon="-3.92289">
        <ele>77.2</ele>
        <time>2025-06-30T08:40:03Z</time>
      </trkpt>
      <trkpt lat="48.63061" lon="-3.92303">
        <ele>77.2</ele>
        <time>2025-06-30T08:40:07Z</time>
      </trkpt>
      <trkpt lat="48.63069" lon="-3.92296">
        <ele>77.2</ele>
        <time>2025-06-30T08:40:15Z</time>
      </trkpt>
      <trkpt lat="48.63069" lon="-3.92311">
        <ele>77.2</ele>
        <time>2025-06-30T08:40:24Z</time>
      </trkpt>
      <trkpt lat="48.63065" lon="-3.92325">
        <ele>77.2</ele>
        <time>2025-06-30T08:40:27Z</time>
      </trkpt>
      <trkpt lat="48.63061" lon="-3.92338">
        <ele>77.1</ele>
        <time>2025-06-30T08:40:30Z</time>
      </trkpt>
      <trkpt lat="48.63057" lon="-3.92353">
        <ele>76.9</ele>
        <time>2025-06-30T08:40:33Z</time>
      </trkpt>
      <trkpt lat="48.63053" lon="-3.9237">
        <ele>76.8</ele>
        <time>2025-06-30T08:40:36Z</time>
      </trkpt>
      <trkpt lat="48.6305" lon="-3.92388">
        <ele>76.6</ele>
        <time>2025-06-30T08:40:39Z</time>
      </trkpt>
      <trkpt lat="48.63046" lon="-3.92405">
        <ele>76.5</ele>
        <time>2025-06-30T08:40:42Z</time>
      </trkpt>
      <trkpt lat="48.63041" lon="-3.92418">
        <ele>76.4</ele>
        <time>2025-06-30T08:40:44Z</time>
      </trkpt>
      <trkpt lat="48.63038" lon="-3.92433">
        <ele>76.2</ele>
        <time>2025-06-30T08:40:48Z</time>
      </trkpt>
      <trkpt lat="48.63034" lon="-3.9245">
        <ele>76.1</ele>
        <time>2025-06-30T08:40:52Z</time>
      </trkpt>
      <trkpt lat="48.63027" lon="-3.92464">
        <ele>76</ele>
        <time>2025-06-30T08:40:56Z</time>
      </trkpt>
      <trkpt lat="48.63028" lon="-3.92477">
        <ele>75.8</ele>
        <time>2025-06-30T08:40:59Z</time>
      </trkpt>
      <trkpt lat="48.63051" lon="-3.92495">
        <ele>75.1</ele>
        <time>2025-06-30T08:41:27Z</time>
      </trkpt>
      <trkpt lat="48.63059" lon="-3.92503">
        <ele>74.8</ele>
        <time>2025-06-30T08:41:30Z</time>
      </trkpt>
      <trkpt lat="48.63068" lon="-3.92512">
        <ele>74.5</ele>
        <time>2025-06-30T08:41:33Z</time>
      </trkpt>
      <trkpt lat="48.63076" lon="-3.92521">
        <ele>74.3</ele>
        <time>2025-06-30T08:41:36Z</time>
      </trkpt>
      <trkpt lat="48.63085" lon="-3.92532">
        <ele>73.9</ele>
        <time>2025-06-30T08:41:39Z</time>
      </trkpt>
      <trkpt lat="48.63096" lon="-3.92545">
        <ele>73.4</ele>
        <time>2025-06-30T08:41:42Z</time>
      </trkpt>
      <trkpt lat="48.63103" lon="-3.92555">
        <ele>73.1</ele>
        <time>2025-06-30T08:41:44Z</time>
      </trkpt>
      <trkpt lat="48.63111" lon="-3.92566">
        <ele>72.8</ele>
        <time>2025-06-30T08:41:46Z</time>
      </trkpt>
      <trkpt lat="48.6312" lon="-3.92578">
        <ele>72.4</ele>
        <time>2025-06-30T08:41:49Z</time>
      </trkpt>
      <trkpt lat="48.63127" lon="-3.92587">
        <ele>72.1</ele>
        <time>2025-06-30T08:41:52Z</time>
      </trkpt>
      <trkpt lat="48.63135" lon="-3.92597">
        <ele>71.7</ele>
        <time>2025-06-30T08:41:55Z</time>
      </trkpt>
      <trkpt lat="48.63144" lon="-3.92608">
        <ele>71.4</ele>
        <time>2025-06-30T08:41:58Z</time>
      </trkpt>
      <trkpt lat="48.63154" lon="-3.92621">
        <ele>71</ele>
        <time>2025-06-30T08:42:01Z</time>
      </trkpt>
      <trkpt lat="48.63163" lon="-3.92631">
        <ele>70.8</ele>
        <time>2025-06-30T08:42:04Z</time>
      </trkpt>
      <trkpt lat="48.63171" lon="-3.92639">
        <ele>70.6</ele>
        <time>2025-06-30T08:42:07Z</time>
      </trkpt>
      <trkpt lat="48.63162" lon="-3.92637">
        <ele>70.7</ele>
        <time>2025-06-30T08:42:14Z</time>
      </trkpt>
      <trkpt lat="48.63154" lon="-3.92627">
        <ele>70.9</ele>
        <time>2025-06-30T08:42:17Z</time>
      </trkpt>
      <trkpt lat="48.63146" lon="-3.92616">
        <ele>71.2</ele>
        <time>2025-06-30T08:42:20Z</time>
      </trkpt>
      <trkpt lat="48.63138" lon="-3.92605">
        <ele>71.6</ele>
        <time>2025-06-30T08:42:23Z</time>
      </trkpt>
      <trkpt lat="48.63129" lon="-3.92594">
        <ele>71.9</ele>
        <time>2025-06-30T08:42:26Z</time>
      </trkpt>
      <trkpt lat="48.6312" lon="-3.92583">
        <ele>72.3</ele>
        <time>2025-06-30T08:42:29Z</time>
      </trkpt>
      <trkpt lat="48.63111" lon="-3.92571">
        <ele>72.7</ele>
        <time>2025-06-30T08:42:32Z</time>
      </trkpt>
      <trkpt lat="48.63103" lon="-3.9256">
        <ele>73</ele>
        <time>2025-06-30T08:42:35Z</time>
      </trkpt>
      <trkpt lat="48.63094" lon="-3.92549">
        <ele>73.4</ele>
        <time>2025-06-30T08:42:38Z</time>
      </trkpt>
      <trkpt lat="48.63082" lon="-3.92534">
        <ele>74</ele>
        <time>2025-06-30T08:42:42Z</time>
      </trkpt>
      <trkpt lat="48.63073" lon="-3.92522">
        <ele>74.3</ele>
        <time>2025-06-30T08:42:45Z</time>
      </trkpt>
      <trkpt lat="48.63063" lon="-3.92511">
        <ele>74.7</ele>
        <time>2025-06-30T08:42:48Z</time>
      </trkpt>
      <trkpt lat="48.63054" lon="-3.92501">
        <ele>75</ele>
        <time>2025-06-30T08:42:51Z</time>
      </trkpt>
      <trkpt lat="48.63045" lon="-3.92491">
        <ele>75.3</ele>
        <time>2025-06-30T08:42:54Z</time>
      </trkpt>
      <trkpt lat="48.63034" lon="-3.92484">
        <ele>75.6</ele>
        <time>2025-06-30T08:42:57Z</time>
      </trkpt>
      <trkpt lat="48.63031" lon="-3.92471">
        <ele>75.9</ele>
        <time>2025-06-30T08:43:00Z</time>
      </trkpt>
      <trkpt lat="48.63034" lon="-3.92452">
        <ele>76.1</ele>
        <time>2025-06-30T08:43:03Z</time>
      </trkpt>
      <trkpt lat="48.63036" lon="-3.92438">
        <ele>76.2</ele>
        <time>2025-06-30T08:43:05Z</time>
      </trkpt>
      <trkpt lat="48.63039" lon="-3.92424">
        <ele>76.3</ele>
        <time>2025-06-30T08:43:07Z</time>
      </trkpt>
      <trkpt lat="48.63041" lon="-3.9241">
        <ele>76.4</ele>
        <time>2025-06-30T08:43:09Z</time>
      </trkpt>
      <trkpt lat="48.63044" lon="-3.92397">
        <ele>76.5</ele>
        <time>2025-06-30T08:43:11Z</time>
      </trkpt>
      <trkpt lat="48.63048" lon="-3.92383">
        <ele>76.7</ele>
        <time>2025-06-30T08:43:13Z</time>
      </trkpt>
      <trkpt lat="48.63051" lon="-3.9237">
        <ele>76.8</ele>
        <time>2025-06-30T08:43:15Z</time>
      </trkpt>
      <trkpt lat="48.63054" lon="-3.92357">
        <ele>76.9</ele>
        <time>2025-06-30T08:43:17Z</time>
      </trkpt>
      <trkpt lat="48.63057" lon="-3.92343">
        <ele>77</ele>
        <time>2025-06-30T08:43:19Z</time>
      </trkpt>
      <trkpt lat="48.63061" lon="-3.92325">
        <ele>77.2</ele>
        <time>2025-06-30T08:43:22Z</time>
      </trkpt>
      <trkpt lat="48.63063" lon="-3.9231">
        <ele>77.2</ele>
        <time>2025-06-30T08:43:25Z</time>
      </trkpt>
      <trkpt lat="48.6306" lon="-3.92295">
        <ele>77.2</ele>
        <time>2025-06-30T08:43:27Z</time>
      </trkpt>
      <trkpt lat="48.63059" lon="-3.92276">
        <ele>77.4</ele>
        <time>2025-06-30T08:43:30Z</time>
      </trkpt>
      <trkpt lat="48.63059" lon="-3.92257">
        <ele>77.5</ele>
        <time>2025-06-30T08:43:33Z</time>
      </trkpt>
      <trkpt lat="48.63059" lon="-3.92238">
        <ele>77.3</ele>
        <time>2025-06-30T08:43:36Z</time>
      </trkpt>
      <trkpt lat="48.63064" lon="-3.92222">
        <ele>77.4</ele>
        <time>2025-06-30T08:43:39Z</time>
      </trkpt>
      <trkpt lat="48.63069" lon="-3.92208">
        <ele>77.5</ele>
        <time>2025-06-30T08:43:42Z</time>
      </trkpt>
      <trkpt lat="48.63074" lon="-3.92195">
        <ele>77.5</ele>
        <time>2025-06-30T08:43:46Z</time>
      </trkpt>
      <trkpt lat="48.63064" lon="-3.92225">
        <ele>77.4</ele>
        <time>2025-06-30T08:44:42Z</time>
      </trkpt>
      <trkpt lat="48.63061" lon="-3.92242">
        <ele>77.3</ele>
        <time>2025-06-30T08:44:45Z</time>
      </trkpt>
      <trkpt lat="48.63059" lon="-3.92259">
        <ele>77.5</ele>
        <time>2025-06-30T08:44:48Z</time>
      </trkpt>
      <trkpt lat="48.63059" lon="-3.92276">
        <ele>77.4</ele>
        <time>2025-06-30T08:44:51Z</time>
      </trkpt>
      <trkpt lat="48.6306" lon="-3.92295">
        <ele>77.2</ele>
        <time>2025-06-30T08:44:54Z</time>
      </trkpt>
      <trkpt lat="48.63063" lon="-3.92312">
        <ele>77.2</ele>
        <time>2025-06-30T08:44:58Z</time>
      </trkpt>
      <trkpt lat="48.63062" lon="-3.92329">
        <ele>77.2</ele>
        <time>2025-06-30T08:45:01Z</time>
      </trkpt>
      <trkpt lat="48.63059" lon="-3.92349">
        <ele>77</ele>
        <time>2025-06-30T08:45:04Z</time>
      </trkpt>
      <trkpt lat="48.63054" lon="-3.92364">
        <ele>76.9</ele>
        <time>2025-06-30T08:45:08Z</time>
      </trkpt>
      <trkpt lat="48.63056" lon="-3.92346">
        <ele>77</ele>
        <time>2025-06-30T08:45:12Z</time>
      </trkpt>
      <trkpt lat="48.6306" lon="-3.9233">
        <ele>77.2</ele>
        <time>2025-06-30T08:45:15Z</time>
      </trkpt>
      <trkpt lat="48.63063" lon="-3.92312">
        <ele>77.2</ele>
        <time>2025-06-30T08:45:18Z</time>
      </trkpt>
      <trkpt lat="48.6306" lon="-3.92295">
        <ele>77.2</ele>
        <time>2025-06-30T08:45:21Z</time>
      </trkpt>
      <trkpt lat="48.63059" lon="-3.92281">
        <ele>77.3</ele>
        <time>2025-06-30T08:45:24Z</time>
      </trkpt>
      <trkpt lat="48.63061" lon="-3.92265">
        <ele>77.5</ele>
        <time>2025-06-30T08:45:27Z</time>
      </trkpt>
      <trkpt lat="48.63061" lon="-3.92247">
        <ele>77.3</ele>
        <time>2025-06-30T08:45:30Z</time>
      </trkpt>
      <trkpt lat="48.63065" lon="-3.92228">
        <ele>77.4</ele>
        <time>2025-06-30T08:45:33Z</time>
      </trkpt>
      <trkpt lat="48.6307" lon="-3.92212">
        <ele>77.5</ele>
        <time>2025-06-30T08:45:36Z</time>
      </trkpt>
      <trkpt lat="48.63072" lon="-3.92197">
        <ele>77.5</ele>
        <time>2025-06-30T08:45:39Z</time>
      </trkpt>
      <trkpt lat="48.63065" lon="-3.92224">
        <ele>77.4</ele>
        <time>2025-06-30T08:46:40Z</time>
      </trkpt>
      <trkpt lat="48.63062" lon="-3.9224">
        <ele>77.3</ele>
        <time>2025-06-30T08:46:43Z</time>
      </trkpt>
      <trkpt lat="48.63058" lon="-3.92256">
        <ele>77.5</ele>
        <time>2025-06-30T08:46:46Z</time>
      </trkpt>
      <trkpt lat="48.63058" lon="-3.92273">
        <ele>77.4</ele>
        <time>2025-06-30T08:46:49Z</time>
      </trkpt>
      <trkpt lat="48.63058" lon="-3.9229">
        <ele>77.2</ele>
        <time>2025-06-30T08:46:52Z</time>
      </trkpt>
      <trkpt lat="48.63062" lon="-3.92305">
        <ele>77.2</ele>
        <time>2025-06-30T08:46:55Z</time>
      </trkpt>
      <trkpt lat="48.63063" lon="-3.92319">
        <ele>77.2</ele>
        <time>2025-06-30T08:46:58Z</time>
      </trkpt>
      <trkpt lat="48.63061" lon="-3.92337">
        <ele>77.1</ele>
        <time>2025-06-30T08:47:01Z</time>
      </trkpt>
      <trkpt lat="48.63058" lon="-3.9235">
        <ele>77</ele>
        <time>2025-06-30T08:47:03Z</time>
      </trkpt>
      <trkpt lat="48.63056" lon="-3.92364">
        <ele>76.9</ele>
        <time>2025-06-30T08:47:05Z</time>
      </trkpt>
      <trkpt lat="48.63052" lon="-3.92378">
        <ele>76.7</ele>
        <time>2025-06-30T08:47:07Z</time>
      </trkpt>
      <trkpt lat="48.63048" lon="-3.92393">
        <ele>76.6</ele>
        <time>2025-06-30T08:47:09Z</time>
      </trkpt>
      <trkpt lat="48.63044" lon="-3.92408">
        <ele>76.4</ele>
        <time>2025-06-30T08:47:11Z</time>
      </trkpt>
      <trkpt lat="48.63041" lon="-3.92424">
        <ele>76.3</ele>
        <time>2025-06-30T08:47:13Z</time>
      </trkpt>
      <trkpt lat="48.63037" lon="-3.92441">
        <ele>76.2</ele>
        <time>2025-06-30T08:47:15Z</time>
      </trkpt>
      <trkpt lat="48.63032" lon="-3.92456">
        <ele>76</ele>
        <time>2025-06-30T08:47:17Z</time>
      </trkpt>
      <trkpt lat="48.6303" lon="-3.92471">
        <ele>75.9</ele>
        <time>2025-06-30T08:47:19Z</time>
      </trkpt>
      <trkpt lat="48.63039" lon="-3.92485">
        <ele>75.5</ele>
        <time>2025-06-30T08:47:22Z</time>
      </trkpt>
      <trkpt lat="48.63048" lon="-3.92492">
        <ele>75.2</ele>
        <time>2025-06-30T08:47:24Z</time>
      </trkpt>
      <trkpt lat="48.63056" lon="-3.92501">
        <ele>74.9</ele>
        <time>2025-06-30T08:47:26Z</time>
      </trkpt>
      <trkpt lat="48.63066" lon="-3.92508">
        <ele>74.6</ele>
        <time>2025-06-30T08:47:28Z</time>
      </trkpt>
      <trkpt lat="48.63075" lon="-3.92519">
        <ele>74.3</ele>
        <time>2025-06-30T08:47:30Z</time>
      </trkpt>
      <trkpt lat="48.63083" lon="-3.9253">
        <ele>74</ele>
        <time>2025-06-30T08:47:32Z</time>
      </trkpt>
      <trkpt lat="48.63092" lon="-3.92541">
        <ele>73.6</ele>
        <time>2025-06-30T08:47:34Z</time>
      </trkpt>
      <trkpt lat="48.63101" lon="-3.92554">
        <ele>73.2</ele>
        <time>2025-06-30T08:47:36Z</time>
      </trkpt>
      <trkpt lat="48.63111" lon="-3.92566">
        <ele>72.7</ele>
        <time>2025-06-30T08:47:38Z</time>
      </trkpt>
      <trkpt lat="48.63122" lon="-3.9258">
        <ele>72.3</ele>
        <time>2025-06-30T08:47:40Z</time>
      </trkpt>
      <trkpt lat="48.63132" lon="-3.92593">
        <ele>71.9</ele>
        <time>2025-06-30T08:47:42Z</time>
      </trkpt>
      <trkpt lat="48.63141" lon="-3.92607">
        <ele>71.4</ele>
        <time>2025-06-30T08:47:44Z</time>
      </trkpt>
      <trkpt lat="48.6315" lon="-3.92618">
        <ele>71.1</ele>
        <time>2025-06-30T08:47:46Z</time>
      </trkpt>
      <trkpt lat="48.63161" lon="-3.9263">
        <ele>70.8</ele>
        <time>2025-06-30T08:47:49Z</time>
      </trkpt>
      <trkpt lat="48.63168" lon="-3.92639">
        <ele>70.6</ele>
        <time>2025-06-30T08:47:51Z</time>
      </trkpt>
      <trkpt lat="48.63176" lon="-3.92646">
        <ele>70.4</ele>
        <time>2025-06-30T08:47:53Z</time>
      </trkpt>
      <trkpt lat="48.63183" lon="-3.92656">
        <ele>70.3</ele>
        <time>2025-06-30T08:47:55Z</time>
      </trkpt>
      <trkpt lat="48.63191" lon="-3.92665">
        <ele>70</ele>
        <time>2025-06-30T08:47:57Z</time>
      </trkpt>
      <trkpt lat="48.63199" lon="-3.92674">
        <ele>69.8</ele>
        <time>2025-06-30T08:47:59Z</time>
      </trkpt>
      <trkpt lat="48.63208" lon="-3.92686">
        <ele>69.7</ele>
        <time>2025-06-30T08:48:02Z</time>
      </trkpt>
      <trkpt lat="48.63217" lon="-3.92697">
        <ele>69.6</ele>
        <time>2025-06-30T08:48:05Z</time>
      </trkpt>
      <trkpt lat="48.63226" lon="-3.92708">
        <ele>69.4</ele>
        <time>2025-06-30T08:48:08Z</time>
      </trkpt>
      <trkpt lat="48.63234" lon="-3.9272">
        <ele>69.3</ele>
        <time>2025-06-30T08:48:11Z</time>
      </trkpt>
      <trkpt lat="48.63243" lon="-3.92729">
        <ele>69.2</ele>
        <time>2025-06-30T08:48:14Z</time>
      </trkpt>
      <trkpt lat="48.63252" lon="-3.9274">
        <ele>69.1</ele>
        <time>2025-06-30T08:48:17Z</time>
      </trkpt>
      <trkpt lat="48.6326" lon="-3.92751">
        <ele>69</ele>
        <time>2025-06-30T08:48:20Z</time>
      </trkpt>
      <trkpt lat="48.6327" lon="-3.92742">
        <ele>69</ele>
        <time>2025-06-30T08:48:23Z</time>
      </trkpt>
      <trkpt lat="48.63273" lon="-3.92725">
        <ele>69.1</ele>
        <time>2025-06-30T08:48:26Z</time>
      </trkpt>
      <trkpt lat="48.63275" lon="-3.9271">
        <ele>69.3</ele>
        <time>2025-06-30T08:48:29Z</time>
      </trkpt>
      <trkpt lat="48.63278" lon="-3.92694">
        <ele>69.4</ele>
        <time>2025-06-30T08:48:32Z</time>
      </trkpt>
      <trkpt lat="48.63282" lon="-3.9268">
        <ele>69.6</ele>
        <time>2025-06-30T08:48:35Z</time>
      </trkpt>
      <trkpt lat="48.63283" lon="-3.92663">
        <ele>69.8</ele>
        <time>2025-06-30T08:48:39Z</time>
      </trkpt>
      <trkpt lat="48.63294" lon="-3.92637">
        <ele>70</ele>
        <time>2025-06-30T08:49:25Z</time>
      </trkpt>
      <trkpt lat="48.633" lon="-3.92625">
        <ele>70.2</ele>
        <time>2025-06-30T08:49:28Z</time>
      </trkpt>
      <trkpt lat="48.63306" lon="-3.9261">
        <ele>70.3</ele>
        <time>2025-06-30T08:49:32Z</time>
      </trkpt>
      <trkpt lat="48.63313" lon="-3.92597">
        <ele>70.5</ele>
        <time>2025-06-30T08:49:36Z</time>
      </trkpt>
      <trkpt lat="48.63321" lon="-3.92585">
        <ele>70.7</ele>
        <time>2025-06-30T08:49:40Z</time>
      </trkpt>
      <trkpt lat="48.63326" lon="-3.92573">
        <ele>70.8</ele>
        <time>2025-06-30T08:49:43Z</time>
      </trkpt>
      <trkpt lat="48.63332" lon="-3.92563">
        <ele>71</ele>
        <time>2025-06-30T08:49:46Z</time>
      </trkpt>
      <trkpt lat="48.63338" lon="-3.9255">
        <ele>71.1</ele>
        <time>2025-06-30T08:49:49Z</time>
      </trkpt>
      <trkpt lat="48.63342" lon="-3.92537">
        <ele>71.2</ele>
        <time>2025-06-30T08:49:52Z</time>
      </trkpt>
      <trkpt lat="48.63351" lon="-3.92537">
        <ele>71.2</ele>
        <time>2025-06-30T08:49:55Z</time>
      </trkpt>
      <trkpt lat="48.6336" lon="-3.92544">
        <ele>71.1</ele>
        <time>2025-06-30T08:49:58Z</time>
      </trkpt>
      <trkpt lat="48.63369" lon="-3.92553">
        <ele>70.9</ele>
        <time>2025-06-30T08:50:01Z</time>
      </trkpt>
      <trkpt lat="48.6338" lon="-3.92561">
        <ele>70.7</ele>
        <time>2025-06-30T08:50:04Z</time>
      </trkpt>
      <trkpt lat="48.63391" lon="-3.92568">
        <ele>70.5</ele>
        <time>2025-06-30T08:50:07Z</time>
      </trkpt>
      <trkpt lat="48.63403" lon="-3.92576">
        <ele>70.1</ele>
        <time>2025-06-30T08:50:10Z</time>
      </trkpt>
      <trkpt lat="48.63412" lon="-3.92582">
        <ele>69.9</ele>
        <time>2025-06-30T08:50:12Z</time>
      </trkpt>
      <trkpt lat="48.63421" lon="-3.92588">
        <ele>69.6</ele>
        <time>2025-06-30T08:50:14Z</time>
      </trkpt>
      <trkpt lat="48.6343" lon="-3.92595">
        <ele>69.2</ele>
        <time>2025-06-30T08:50:16Z</time>
      </trkpt>
      <trkpt lat="48.63441" lon="-3.92601">
        <ele>68.7</ele>
        <time>2025-06-30T08:50:18Z</time>
      </trkpt>
      <trkpt lat="48.63452" lon="-3.92605">
        <ele>68.1</ele>
        <time>2025-06-30T08:50:20Z</time>
      </trkpt>
      <trkpt lat="48.63466" lon="-3.92607">
        <ele>67.5</ele>
        <time>2025-06-30T08:50:22Z</time>
      </trkpt>
      <trkpt lat="48.6348" lon="-3.92608">
        <ele>66.6</ele>
        <time>2025-06-30T08:50:24Z</time>
      </trkpt>
      <trkpt lat="48.63496" lon="-3.92607">
        <ele>65.3</ele>
        <time>2025-06-30T08:50:26Z</time>
      </trkpt>
      <trkpt lat="48.63511" lon="-3.92602">
        <ele>64.1</ele>
        <time>2025-06-30T08:50:28Z</time>
      </trkpt>
      <trkpt lat="48.63525" lon="-3.92596">
        <ele>62.9</ele>
        <time>2025-06-30T08:50:30Z</time>
      </trkpt>
      <trkpt lat="48.63537" lon="-3.92588">
        <ele>62</ele>
        <time>2025-06-30T08:50:32Z</time>
      </trkpt>
      <trkpt lat="48.63547" lon="-3.92578">
        <ele>61.7</ele>
        <time>2025-06-30T08:50:34Z</time>
      </trkpt>
      <trkpt lat="48.63553" lon="-3.92564">
        <ele>62.2</ele>
        <time>2025-06-30T08:50:36Z</time>
      </trkpt>
      <trkpt lat="48.63556" lon="-3.92546">
        <ele>61.9</ele>
        <time>2025-06-30T08:50:38Z</time>
      </trkpt>
      <trkpt lat="48.63566" lon="-3.92533">
        <ele>61.1</ele>
        <time>2025-06-30T08:50:40Z</time>
      </trkpt>
      <trkpt lat="48.6358" lon="-3.9253">
        <ele>60.7</ele>
        <time>2025-06-30T08:50:42Z</time>
      </trkpt>
      <trkpt lat="48.63594" lon="-3.92531">
        <ele>59.6</ele>
        <time>2025-06-30T08:50:44Z</time>
      </trkpt>
      <trkpt lat="48.63609" lon="-3.92524">
        <ele>58.9</ele>
        <time>2025-06-30T08:50:46Z</time>
      </trkpt>
      <trkpt lat="48.63624" lon="-3.92514">
        <ele>58.5</ele>
        <time>2025-06-30T08:50:48Z</time>
      </trkpt>
      <trkpt lat="48.63637" lon="-3.92501">
        <ele>58.2</ele>
        <time>2025-06-30T08:50:50Z</time>
      </trkpt>
      <trkpt lat="48.63653" lon="-3.92489">
        <ele>58</ele>
        <time>2025-06-30T08:50:52Z</time>
      </trkpt>
      <trkpt lat="48.63668" lon="-3.92478">
        <ele>58</ele>
        <time>2025-06-30T08:50:54Z</time>
      </trkpt>
      <trkpt lat="48.63681" lon="-3.92467">
        <ele>58.1</ele>
        <time>2025-06-30T08:50:56Z</time>
      </trkpt>
      <trkpt lat="48.63694" lon="-3.92457">
        <ele>58.3</ele>
        <time>2025-06-30T08:50:58Z</time>
      </trkpt>
      <trkpt lat="48.63706" lon="-3.92448">
        <ele>58.6</ele>
        <time>2025-06-30T08:51:00Z</time>
      </trkpt>
      <trkpt lat="48.63718" lon="-3.92442">
        <ele>58.9</ele>
        <time>2025-06-30T08:51:02Z</time>
      </trkpt>
      <trkpt lat="48.63731" lon="-3.92437">
        <ele>59</ele>
        <time>2025-06-30T08:51:04Z</time>
      </trkpt>
      <trkpt lat="48.63744" lon="-3.92434">
        <ele>59.1</ele>
        <time>2025-06-30T08:51:06Z</time>
      </trkpt>
      <trkpt lat="48.63757" lon="-3.92433">
        <ele>59.2</ele>
        <time>2025-06-30T08:51:08Z</time>
      </trkpt>
      <trkpt lat="48.63769" lon="-3.92432">
        <ele>59.1</ele>
        <time>2025-06-30T08:51:10Z</time>
      </trkpt>
      <trkpt lat="48.63782" lon="-3.92433">
        <ele>59</ele>
        <time>2025-06-30T08:51:12Z</time>
      </trkpt>
      <trkpt lat="48.63794" lon="-3.92435">
        <ele>58.9</ele>
        <time>2025-06-30T08:51:14Z</time>
      </trkpt>
      <trkpt lat="48.63807" lon="-3.92438">
        <ele>58.7</ele>
        <time>2025-06-30T08:51:16Z</time>
      </trkpt>
      <trkpt lat="48.63819" lon="-3.92443">
        <ele>58.4</ele>
        <time>2025-06-30T08:51:18Z</time>
      </trkpt>
      <trkpt lat="48.63831" lon="-3.92449">
        <ele>58.1</ele>
        <time>2025-06-30T08:51:20Z</time>
      </trkpt>
      <trkpt lat="48.63844" lon="-3.92455">
        <ele>57.7</ele>
        <time>2025-06-30T08:51:22Z</time>
      </trkpt>
      <trkpt lat="48.63857" lon="-3.92461">
        <ele>57.2</ele>
        <time>2025-06-30T08:51:24Z</time>
      </trkpt>
      <trkpt lat="48.63871" lon="-3.92467">
        <ele>56.7</ele>
        <time>2025-06-30T08:51:26Z</time>
      </trkpt>
      <trkpt lat="48.63885" lon="-3.92473">
        <ele>56.1</ele>
        <time>2025-06-30T08:51:28Z</time>
      </trkpt>
      <trkpt lat="48.63899" lon="-3.9248">
        <ele>55.4</ele>
        <time>2025-06-30T08:51:30Z</time>
      </trkpt>
      <trkpt lat="48.63914" lon="-3.92487">
        <ele>54.7</ele>
        <time>2025-06-30T08:51:32Z</time>
      </trkpt>
      <trkpt lat="48.63929" lon="-3.92494">
        <ele>54</ele>
        <time>2025-06-30T08:51:34Z</time>
      </trkpt>
      <trkpt lat="48.63945" lon="-3.92501">
        <ele>53.2</ele>
        <time>2025-06-30T08:51:36Z</time>
      </trkpt>
      <trkpt lat="48.63961" lon="-3.92508">
        <ele>52.6</ele>
        <time>2025-06-30T08:51:38Z</time>
      </trkpt>
      <trkpt lat="48.63977" lon="-3.92515">
        <ele>52.2</ele>
        <time>2025-06-30T08:51:40Z</time>
      </trkpt>
      <trkpt lat="48.63992" lon="-3.92522">
        <ele>51.7</ele>
        <time>2025-06-30T08:51:42Z</time>
      </trkpt>
      <trkpt lat="48.64008" lon="-3.9253">
        <ele>51.3</ele>
        <time>2025-06-30T08:51:44Z</time>
      </trkpt>
      <trkpt lat="48.64024" lon="-3.92537">
        <ele>51</ele>
        <time>2025-06-30T08:51:46Z</time>
      </trkpt>
      <trkpt lat="48.6404" lon="-3.92543">
        <ele>50.7</ele>
        <time>2025-06-30T08:51:48Z</time>
      </trkpt>
      <trkpt lat="48.64056" lon="-3.92549">
        <ele>50.6</ele>
        <time>2025-06-30T08:51:50Z</time>
      </trkpt>
      <trkpt lat="48.64072" lon="-3.92552">
        <ele>50.5</ele>
        <time>2025-06-30T08:51:52Z</time>
      </trkpt>
      <trkpt lat="48.64088" lon="-3.92554">
        <ele>50.4</ele>
        <time>2025-06-30T08:51:54Z</time>
      </trkpt>
      <trkpt lat="48.64104" lon="-3.92555">
        <ele>50.5</ele>
        <time>2025-06-30T08:51:56Z</time>
      </trkpt>
      <trkpt lat="48.6412" lon="-3.92554">
        <ele>50.5</ele>
        <time>2025-06-30T08:51:58Z</time>
      </trkpt>
      <trkpt lat="48.64135" lon="-3.92554">
        <ele>50.5</ele>
        <time>2025-06-30T08:52:00Z</time>
      </trkpt>
      <trkpt lat="48.64149" lon="-3.92554">
        <ele>50.7</ele>
        <time>2025-06-30T08:52:02Z</time>
      </trkpt>
      <trkpt lat="48.64163" lon="-3.92552">
        <ele>50.8</ele>
        <time>2025-06-30T08:52:04Z</time>
      </trkpt>
      <trkpt lat="48.64177" lon="-3.92548">
        <ele>51.1</ele>
        <time>2025-06-30T08:52:06Z</time>
      </trkpt>
      <trkpt lat="48.6419" lon="-3.92544">
        <ele>51.5</ele>
        <time>2025-06-30T08:52:08Z</time>
      </trkpt>
      <trkpt lat="48.64203" lon="-3.9254">
        <ele>51.8</ele>
        <time>2025-06-30T08:52:10Z</time>
      </trkpt>
      <trkpt lat="48.64216" lon="-3.92534">
        <ele>52.2</ele>
        <time>2025-06-30T08:52:12Z</time>
      </trkpt>
      <trkpt lat="48.64229" lon="-3.92529">
        <ele>52.5</ele>
        <time>2025-06-30T08:52:14Z</time>
      </trkpt>
      <trkpt lat="48.64243" lon="-3.92521">
        <ele>52.8</ele>
        <time>2025-06-30T08:52:16Z</time>
      </trkpt>
      <trkpt lat="48.64256" lon="-3.92514">
        <ele>53.1</ele>
        <time>2025-06-30T08:52:18Z</time>
      </trkpt>
      <trkpt lat="48.64269" lon="-3.92508">
        <ele>53.4</ele>
        <time>2025-06-30T08:52:20Z</time>
      </trkpt>
      <trkpt lat="48.64282" lon="-3.92502">
        <ele>53.8</ele>
        <time>2025-06-30T08:52:22Z</time>
      </trkpt>
      <trkpt lat="48.64294" lon="-3.92495">
        <ele>54</ele>
        <time>2025-06-30T08:52:24Z</time>
      </trkpt>
      <trkpt lat="48.64306" lon="-3.92487">
        <ele>54.3</ele>
        <time>2025-06-30T08:52:26Z</time>
      </trkpt>
      <trkpt lat="48.64317" lon="-3.92479">
        <ele>54.5</ele>
        <time>2025-06-30T08:52:28Z</time>
      </trkpt>
      <trkpt lat="48.64328" lon="-3.92473">
        <ele>54.6</ele>
        <time>2025-06-30T08:52:30Z</time>
      </trkpt>
      <trkpt lat="48.6434" lon="-3.92469">
        <ele>54.7</ele>
        <time>2025-06-30T08:52:32Z</time>
      </trkpt>
      <trkpt lat="48.64351" lon="-3.92464">
        <ele>54.8</ele>
        <time>2025-06-30T08:52:34Z</time>
      </trkpt>
      <trkpt lat="48.64363" lon="-3.92462">
        <ele>54.8</ele>
        <time>2025-06-30T08:52:36Z</time>
      </trkpt>
      <trkpt lat="48.64376" lon="-3.92462">
        <ele>54.6</ele>
        <time>2025-06-30T08:52:38Z</time>
      </trkpt>
      <trkpt lat="48.64389" lon="-3.92461">
        <ele>54.4</ele>
        <time>2025-06-30T08:52:40Z</time>
      </trkpt>
      <trkpt lat="48.64402" lon="-3.92461">
        <ele>54.1</ele>
        <time>2025-06-30T08:52:42Z</time>
      </trkpt>
      <trkpt lat="48.64416" lon="-3.9246">
        <ele>53.9</ele>
        <time>2025-06-30T08:52:44Z</time>
      </trkpt>
      <trkpt lat="48.64431" lon="-3.92459">
        <ele>53.7</ele>
        <time>2025-06-30T08:52:46Z</time>
      </trkpt>
      <trkpt lat="48.64444" lon="-3.92456">
        <ele>53.6</ele>
        <time>2025-06-30T08:52:48Z</time>
      </trkpt>
      <trkpt lat="48.64458" lon="-3.92452">
        <ele>53.5</ele>
        <time>2025-06-30T08:52:50Z</time>
      </trkpt>
      <trkpt lat="48.64472" lon="-3.92448">
        <ele>53.4</ele>
        <time>2025-06-30T08:52:52Z</time>
      </trkpt>
      <trkpt lat="48.64485" lon="-3.92444">
        <ele>53.2</ele>
        <time>2025-06-30T08:52:54Z</time>
      </trkpt>
      <trkpt lat="48.64499" lon="-3.92439">
        <ele>53</ele>
        <time>2025-06-30T08:52:56Z</time>
      </trkpt>
      <trkpt lat="48.64513" lon="-3.92434">
        <ele>52.7</ele>
        <time>2025-06-30T08:52:58Z</time>
      </trkpt>
      <trkpt lat="48.64526" lon="-3.92428">
        <ele>52.4</ele>
        <time>2025-06-30T08:53:00Z</time>
      </trkpt>
      <trkpt lat="48.6454" lon="-3.92419">
        <ele>52</ele>
        <time>2025-06-30T08:53:02Z</time>
      </trkpt>
      <trkpt lat="48.64554" lon="-3.9241">
        <ele>51.6</ele>
        <time>2025-06-30T08:53:04Z</time>
      </trkpt>
      <trkpt lat="48.64569" lon="-3.924">
        <ele>51.2</ele>
        <time>2025-06-30T08:53:06Z</time>
      </trkpt>
      <trkpt lat="48.64583" lon="-3.9239">
        <ele>50.7</ele>
        <time>2025-06-30T08:53:08Z</time>
      </trkpt>
      <trkpt lat="48.64597" lon="-3.92379">
        <ele>50.1</ele>
        <time>2025-06-30T08:53:10Z</time>
      </trkpt>
      <trkpt lat="48.64611" lon="-3.92368">
        <ele>49.4</ele>
        <time>2025-06-30T08:53:12Z</time>
      </trkpt>
      <trkpt lat="48.64626" lon="-3.92359">
        <ele>48.6</ele>
        <time>2025-06-30T08:53:14Z</time>
      </trkpt>
      <trkpt lat="48.64642" lon="-3.92351">
        <ele>47.6</ele>
        <time>2025-06-30T08:53:16Z</time>
      </trkpt>
      <trkpt lat="48.64651" lon="-3.92348">
        <ele>47.1</ele>
        <time>2025-06-30T08:53:17Z</time>
      </trkpt>
      <trkpt lat="48.6466" lon="-3.92347">
        <ele>46.6</ele>
        <time>2025-06-30T08:53:18Z</time>
      </trkpt>
      <trkpt lat="48.6467" lon="-3.92346">
        <ele>46.1</ele>
        <time>2025-06-30T08:53:19Z</time>
      </trkpt>
      <trkpt lat="48.64679" lon="-3.92347">
        <ele>45.6</ele>
        <time>2025-06-30T08:53:20Z</time>
      </trkpt>
      <trkpt lat="48.64689" lon="-3.92348">
        <ele>45.1</ele>
        <time>2025-06-30T08:53:21Z</time>
      </trkpt>
      <trkpt lat="48.64699" lon="-3.92351">
        <ele>44.6</ele>
        <time>2025-06-30T08:53:22Z</time>
      </trkpt>
      <trkpt lat="48.64709" lon="-3.92354">
        <ele>44.1</ele>
        <time>2025-06-30T08:53:23Z</time>
      </trkpt>
      <trkpt lat="48.64718" lon="-3.92357">
        <ele>43.6</ele>
        <time>2025-06-30T08:53:24Z</time>
      </trkpt>
      <trkpt lat="48.64728" lon="-3.9236">
        <ele>43.1</ele>
        <time>2025-06-30T08:53:25Z</time>
      </trkpt>
      <trkpt lat="48.64737" lon="-3.92364">
        <ele>42.6</ele>
        <time>2025-06-30T08:53:26Z</time>
      </trkpt>
      <trkpt lat="48.64747" lon="-3.9237">
        <ele>42</ele>
        <time>2025-06-30T08:53:27Z</time>
      </trkpt>
      <trkpt lat="48.64756" lon="-3.92375">
        <ele>41.5</ele>
        <time>2025-06-30T08:53:28Z</time>
      </trkpt>
      <trkpt lat="48.64765" lon="-3.92381">
        <ele>41</ele>
        <time>2025-06-30T08:53:29Z</time>
      </trkpt>
      <trkpt lat="48.64774" lon="-3.92387">
        <ele>40.5</ele>
        <time>2025-06-30T08:53:30Z</time>
      </trkpt>
      <trkpt lat="48.64783" lon="-3.92393">
        <ele>40</ele>
        <time>2025-06-30T08:53:31Z</time>
      </trkpt>
      <trkpt lat="48.64792" lon="-3.92399">
        <ele>39.6</ele>
        <time>2025-06-30T08:53:32Z</time>
      </trkpt>
      <trkpt lat="48.64801" lon="-3.92404">
        <ele>39.2</ele>
        <time>2025-06-30T08:53:33Z</time>
      </trkpt>
      <trkpt lat="48.6481" lon="-3.92408">
        <ele>38.9</ele>
        <time>2025-06-30T08:53:34Z</time>
      </trkpt>
      <trkpt lat="48.6482" lon="-3.92409">
        <ele>38.5</ele>
        <time>2025-06-30T08:53:35Z</time>
      </trkpt>
      <trkpt lat="48.64829" lon="-3.92407">
        <ele>38.2</ele>
        <time>2025-06-30T08:53:36Z</time>
      </trkpt>
      <trkpt lat="48.64838" lon="-3.92401">
        <ele>38</ele>
        <time>2025-06-30T08:53:37Z</time>
      </trkpt>
      <trkpt lat="48.64846" lon="-3.92391">
        <ele>37.9</ele>
        <time>2025-06-30T08:53:38Z</time>
      </trkpt>
      <trkpt lat="48.64853" lon="-3.92379">
        <ele>37.9</ele>
        <time>2025-06-30T08:53:39Z</time>
      </trkpt>
      <trkpt lat="48.64857" lon="-3.92365">
        <ele>38</ele>
        <time>2025-06-30T08:53:40Z</time>
      </trkpt>
      <trkpt lat="48.64861" lon="-3.92351">
        <ele>38.2</ele>
        <time>2025-06-30T08:53:41Z</time>
      </trkpt>
      <trkpt lat="48.64865" lon="-3.92338">
        <ele>38.3</ele>
        <time>2025-06-30T08:53:42Z</time>
      </trkpt>
      <trkpt lat="48.64869" lon="-3.92325">
        <ele>38.5</ele>
        <time>2025-06-30T08:53:43Z</time>
      </trkpt>
      <trkpt lat="48.64879" lon="-3.92303">
        <ele>38.8</ele>
        <time>2025-06-30T08:53:45Z</time>
      </trkpt>
      <trkpt lat="48.64891" lon="-3.92284">
        <ele>39.1</ele>
        <time>2025-06-30T08:53:47Z</time>
      </trkpt>
      <trkpt lat="48.64906" lon="-3.92271">
        <ele>39.3</ele>
        <time>2025-06-30T08:53:49Z</time>
      </trkpt>
      <trkpt lat="48.64921" lon="-3.92264">
        <ele>39.5</ele>
        <time>2025-06-30T08:53:51Z</time>
      </trkpt>
      <trkpt lat="48.64936" lon="-3.9226">
        <ele>39.4</ele>
        <time>2025-06-30T08:53:53Z</time>
      </trkpt>
      <trkpt lat="48.64952" lon="-3.9226">
        <ele>39.1</ele>
        <time>2025-06-30T08:53:55Z</time>
      </trkpt>
      <trkpt lat="48.64969" lon="-3.92263">
        <ele>38.6</ele>
        <time>2025-06-30T08:53:57Z</time>
      </trkpt>
      <trkpt lat="48.64985" lon="-3.92265">
        <ele>37.9</ele>
        <time>2025-06-30T08:53:59Z</time>
      </trkpt>
      <trkpt lat="48.65002" lon="-3.92266">
        <ele>37.2</ele>
        <time>2025-06-30T08:54:01Z</time>
      </trkpt>
      <trkpt lat="48.65019" lon="-3.92269">
        <ele>36.4</ele>
        <time>2025-06-30T08:54:03Z</time>
      </trkpt>
      <trkpt lat="48.65036" lon="-3.92271">
        <ele>35.5</ele>
        <time>2025-06-30T08:54:05Z</time>
      </trkpt>
      <trkpt lat="48.65045" lon="-3.92271">
        <ele>35</ele>
        <time>2025-06-30T08:54:06Z</time>
      </trkpt>
      <trkpt lat="48.65055" lon="-3.92273">
        <ele>34.4</ele>
        <time>2025-06-30T08:54:07Z</time>
      </trkpt>
      <trkpt lat="48.65064" lon="-3.92274">
        <ele>33.9</ele>
        <time>2025-06-30T08:54:08Z</time>
      </trkpt>
      <trkpt lat="48.65073" lon="-3.92275">
        <ele>33.3</ele>
        <time>2025-06-30T08:54:09Z</time>
      </trkpt>
      <trkpt lat="48.65083" lon="-3.92276">
        <ele>32.7</ele>
        <time>2025-06-30T08:54:10Z</time>
      </trkpt>
      <trkpt lat="48.65093" lon="-3.92277">
        <ele>32</ele>
        <time>2025-06-30T08:54:11Z</time>
      </trkpt>
      <trkpt lat="48.65103" lon="-3.92278">
        <ele>31.4</ele>
        <time>2025-06-30T08:54:12Z</time>
      </trkpt>
      <trkpt lat="48.65113" lon="-3.92279">
        <ele>30.7</ele>
        <time>2025-06-30T08:54:13Z</time>
      </trkpt>
      <trkpt lat="48.65123" lon="-3.9228">
        <ele>30.1</ele>
        <time>2025-06-30T08:54:14Z</time>
      </trkpt>
      <trkpt lat="48.65132" lon="-3.9228">
        <ele>29.6</ele>
        <time>2025-06-30T08:54:15Z</time>
      </trkpt>
      <trkpt lat="48.65149" lon="-3.92283">
        <ele>28.7</ele>
        <time>2025-06-30T08:54:17Z</time>
      </trkpt>
      <trkpt lat="48.65165" lon="-3.92283">
        <ele>28</ele>
        <time>2025-06-30T08:54:19Z</time>
      </trkpt>
      <trkpt lat="48.6518" lon="-3.92275">
        <ele>27.5</ele>
        <time>2025-06-30T08:54:21Z</time>
      </trkpt>
      <trkpt lat="48.65196" lon="-3.92269">
        <ele>28.1</ele>
        <time>2025-06-30T08:54:23Z</time>
      </trkpt>
      <trkpt lat="48.65211" lon="-3.92275">
        <ele>27.7</ele>
        <time>2025-06-30T08:54:25Z</time>
      </trkpt>
      <trkpt lat="48.65228" lon="-3.9228">
        <ele>26.1</ele>
        <time>2025-06-30T08:54:27Z</time>
      </trkpt>
      <trkpt lat="48.65237" lon="-3.92279">
        <ele>25.4</ele>
        <time>2025-06-30T08:54:28Z</time>
      </trkpt>
      <trkpt lat="48.65246" lon="-3.92277">
        <ele>25.1</ele>
        <time>2025-06-30T08:54:29Z</time>
      </trkpt>
      <trkpt lat="48.65256" lon="-3.92277">
        <ele>24.8</ele>
        <time>2025-06-30T08:54:30Z</time>
      </trkpt>
      <trkpt lat="48.65266" lon="-3.92275">
        <ele>24.6</ele>
        <time>2025-06-30T08:54:31Z</time>
      </trkpt>
      <trkpt lat="48.65275" lon="-3.92272">
        <ele>24.3</ele>
        <time>2025-06-30T08:54:32Z</time>
      </trkpt>
      <trkpt lat="48.65285" lon="-3.92267">
        <ele>24.2</ele>
        <time>2025-06-30T08:54:33Z</time>
      </trkpt>
      <trkpt lat="48.65294" lon="-3.92262">
        <ele>23.9</ele>
        <time>2025-06-30T08:54:34Z</time>
      </trkpt>
      <trkpt lat="48.65303" lon="-3.92257">
        <ele>23.6</ele>
        <time>2025-06-30T08:54:35Z</time>
      </trkpt>
      <trkpt lat="48.65312" lon="-3.92252">
        <ele>23.3</ele>
        <time>2025-06-30T08:54:36Z</time>
      </trkpt>
      <trkpt lat="48.65321" lon="-3.92245">
        <ele>23</ele>
        <time>2025-06-30T08:54:37Z</time>
      </trkpt>
      <trkpt lat="48.6533" lon="-3.92238">
        <ele>22.8</ele>
        <time>2025-06-30T08:54:38Z</time>
      </trkpt>
      <trkpt lat="48.6534" lon="-3.92231">
        <ele>22.5</ele>
        <time>2025-06-30T08:54:39Z</time>
      </trkpt>
      <trkpt lat="48.65349" lon="-3.92224">
        <ele>22.3</ele>
        <time>2025-06-30T08:54:40Z</time>
      </trkpt>
      <trkpt lat="48.65358" lon="-3.92217">
        <ele>22.1</ele>
        <time>2025-06-30T08:54:41Z</time>
      </trkpt>
      <trkpt lat="48.65366" lon="-3.9221">
        <ele>21.9</ele>
        <time>2025-06-30T08:54:42Z</time>
      </trkpt>
      <trkpt lat="48.65375" lon="-3.92203">
        <ele>21.8</ele>
        <time>2025-06-30T08:54:43Z</time>
      </trkpt>
      <trkpt lat="48.65384" lon="-3.92197">
        <ele>21.7</ele>
        <time>2025-06-30T08:54:44Z</time>
      </trkpt>
      <trkpt lat="48.65393" lon="-3.92191">
        <ele>21.7</ele>
        <time>2025-06-30T08:54:45Z</time>
      </trkpt>
      <trkpt lat="48.65402" lon="-3.92186">
        <ele>21.7</ele>
        <time>2025-06-30T08:54:46Z</time>
      </trkpt>
      <trkpt lat="48.65411" lon="-3.9218">
        <ele>21.9</ele>
        <time>2025-06-30T08:54:47Z</time>
      </trkpt>
      <trkpt lat="48.6542" lon="-3.92175">
        <ele>22.2</ele>
        <time>2025-06-30T08:54:48Z</time>
      </trkpt>
      <trkpt lat="48.65436" lon="-3.92167">
        <ele>22.9</ele>
        <time>2025-06-30T08:54:50Z</time>
      </trkpt>
      <trkpt lat="48.65452" lon="-3.9216">
        <ele>23.6</ele>
        <time>2025-06-30T08:54:52Z</time>
      </trkpt>
      <trkpt lat="48.65465" lon="-3.92152">
        <ele>24.5</ele>
        <time>2025-06-30T08:54:54Z</time>
      </trkpt>
      <trkpt lat="48.65478" lon="-3.92146">
        <ele>25.3</ele>
        <time>2025-06-30T08:54:56Z</time>
      </trkpt>
      <trkpt lat="48.65491" lon="-3.92142">
        <ele>26.1</ele>
        <time>2025-06-30T08:54:58Z</time>
      </trkpt>
      <trkpt lat="48.65502" lon="-3.92135">
        <ele>26.9</ele>
        <time>2025-06-30T08:55:00Z</time>
      </trkpt>
      <trkpt lat="48.65513" lon="-3.92129">
        <ele>27.6</ele>
        <time>2025-06-30T08:55:02Z</time>
      </trkpt>
      <trkpt lat="48.65524" lon="-3.92124">
        <ele>28.4</ele>
        <time>2025-06-30T08:55:04Z</time>
      </trkpt>
      <trkpt lat="48.65534" lon="-3.92118">
        <ele>29.2</ele>
        <time>2025-06-30T08:55:06Z</time>
      </trkpt>
      <trkpt lat="48.65545" lon="-3.92113">
        <ele>29.9</ele>
        <time>2025-06-30T08:55:08Z</time>
      </trkpt>
      <trkpt lat="48.65555" lon="-3.92108">
        <ele>30.6</ele>
        <time>2025-06-30T08:55:10Z</time>
      </trkpt>
      <trkpt lat="48.65565" lon="-3.92103">
        <ele>31.3</ele>
        <time>2025-06-30T08:55:12Z</time>
      </trkpt>
      <trkpt lat="48.65574" lon="-3.92098">
        <ele>32</ele>
        <time>2025-06-30T08:55:14Z</time>
      </trkpt>
      <trkpt lat="48.65584" lon="-3.92093">
        <ele>32.7</ele>
        <time>2025-06-30T08:55:16Z</time>
      </trkpt>
      <trkpt lat="48.65593" lon="-3.92087">
        <ele>33.4</ele>
        <time>2025-06-30T08:55:18Z</time>
      </trkpt>
      <trkpt lat="48.65603" lon="-3.92082">
        <ele>34.1</ele>
        <time>2025-06-30T08:55:20Z</time>
      </trkpt>
      <trkpt lat="48.65613" lon="-3.92076">
        <ele>34.7</ele>
        <time>2025-06-30T08:55:22Z</time>
      </trkpt>
      <trkpt lat="48.65622" lon="-3.92068">
        <ele>35.4</ele>
        <time>2025-06-30T08:55:24Z</time>
      </trkpt>
      <trkpt lat="48.6563" lon="-3.92058">
        <ele>36.1</ele>
        <time>2025-06-30T08:55:26Z</time>
      </trkpt>
      <trkpt lat="48.65639" lon="-3.9205">
        <ele>36.9</ele>
        <time>2025-06-30T08:55:28Z</time>
      </trkpt>
      <trkpt lat="48.65647" lon="-3.92042">
        <ele>37.9</ele>
        <time>2025-06-30T08:55:30Z</time>
      </trkpt>
      <trkpt lat="48.65656" lon="-3.92034">
        <ele>38.8</ele>
        <time>2025-06-30T08:55:32Z</time>
      </trkpt>
      <trkpt lat="48.65664" lon="-3.92026">
        <ele>39.8</ele>
        <time>2025-06-30T08:55:34Z</time>
      </trkpt>
      <trkpt lat="48.65672" lon="-3.92019">
        <ele>40.4</ele>
        <time>2025-06-30T08:55:36Z</time>
      </trkpt>
      <trkpt lat="48.65679" lon="-3.92012">
        <ele>40.6</ele>
        <time>2025-06-30T08:55:38Z</time>
      </trkpt>
      <trkpt lat="48.6569" lon="-3.92001">
        <ele>41.1</ele>
        <time>2025-06-30T08:55:41Z</time>
      </trkpt>
      <trkpt lat="48.65698" lon="-3.91989">
        <ele>41.9</ele>
        <time>2025-06-30T08:55:44Z</time>
      </trkpt>
      <trkpt lat="48.65708" lon="-3.9198">
        <ele>42.9</ele>
        <time>2025-06-30T08:55:47Z</time>
      </trkpt>
      <trkpt lat="48.6572" lon="-3.91974">
        <ele>43.6</ele>
        <time>2025-06-30T08:55:50Z</time>
      </trkpt>
      <trkpt lat="48.65732" lon="-3.91966">
        <ele>44.2</ele>
        <time>2025-06-30T08:55:53Z</time>
      </trkpt>
      <trkpt lat="48.65743" lon="-3.91958">
        <ele>44.9</ele>
        <time>2025-06-30T08:55:56Z</time>
      </trkpt>
      <trkpt lat="48.65754" lon="-3.9195">
        <ele>45.7</ele>
        <time>2025-06-30T08:55:59Z</time>
      </trkpt>
      <trkpt lat="48.65766" lon="-3.91944">
        <ele>46.4</ele>
        <time>2025-06-30T08:56:02Z</time>
      </trkpt>
      <trkpt lat="48.65778" lon="-3.91937">
        <ele>47.1</ele>
        <time>2025-06-30T08:56:05Z</time>
      </trkpt>
      <trkpt lat="48.6579" lon="-3.91932">
        <ele>47.8</ele>
        <time>2025-06-30T08:56:08Z</time>
      </trkpt>
      <trkpt lat="48.65803" lon="-3.91927">
        <ele>48.6</ele>
        <time>2025-06-30T08:56:11Z</time>
      </trkpt>
      <trkpt lat="48.65816" lon="-3.91923">
        <ele>49.2</ele>
        <time>2025-06-30T08:56:14Z</time>
      </trkpt>
      <trkpt lat="48.65829" lon="-3.91919">
        <ele>49.7</ele>
        <time>2025-06-30T08:56:17Z</time>
      </trkpt>
      <trkpt lat="48.65838" lon="-3.91917">
        <ele>49.8</ele>
        <time>2025-06-30T08:56:19Z</time>
      </trkpt>
      <trkpt lat="48.65847" lon="-3.91916">
        <ele>50.1</ele>
        <time>2025-06-30T08:56:21Z</time>
      </trkpt>
      <trkpt lat="48.65856" lon="-3.91915">
        <ele>50.3</ele>
        <time>2025-06-30T08:56:23Z</time>
      </trkpt>
      <trkpt lat="48.65869" lon="-3.91914">
        <ele>50.5</ele>
        <time>2025-06-30T08:56:26Z</time>
      </trkpt>
      <trkpt lat="48.65878" lon="-3.91913">
        <ele>50.6</ele>
        <time>2025-06-30T08:56:28Z</time>
      </trkpt>
      <trkpt lat="48.65892" lon="-3.9191">
        <ele>50.8</ele>
        <time>2025-06-30T08:56:31Z</time>
      </trkpt>
      <trkpt lat="48.65905" lon="-3.9191">
        <ele>50.9</ele>
        <time>2025-06-30T08:56:34Z</time>
      </trkpt>
      <trkpt lat="48.65914" lon="-3.91912">
        <ele>51</ele>
        <time>2025-06-30T08:56:36Z</time>
      </trkpt>
      <trkpt lat="48.65923" lon="-3.91914">
        <ele>51.1</ele>
        <time>2025-06-30T08:56:38Z</time>
      </trkpt>
      <trkpt lat="48.65933" lon="-3.91915">
        <ele>51.2</ele>
        <time>2025-06-30T08:56:40Z</time>
      </trkpt>
      <trkpt lat="48.65943" lon="-3.91917">
        <ele>51.3</ele>
        <time>2025-06-30T08:56:42Z</time>
      </trkpt>
      <trkpt lat="48.65953" lon="-3.9192">
        <ele>51.3</ele>
        <time>2025-06-30T08:56:44Z</time>
      </trkpt>
      <trkpt lat="48.65963" lon="-3.91921">
        <ele>51.4</ele>
        <time>2025-06-30T08:56:46Z</time>
      </trkpt>
      <trkpt lat="48.65973" lon="-3.91924">
        <ele>51.5</ele>
        <time>2025-06-30T08:56:48Z</time>
      </trkpt>
      <trkpt lat="48.65984" lon="-3.91928">
        <ele>51.5</ele>
        <time>2025-06-30T08:56:50Z</time>
      </trkpt>
      <trkpt lat="48.65994" lon="-3.91932">
        <ele>51.5</ele>
        <time>2025-06-30T08:56:52Z</time>
      </trkpt>
      <trkpt lat="48.66004" lon="-3.91934">
        <ele>51.5</ele>
        <time>2025-06-30T08:56:54Z</time>
      </trkpt>
      <trkpt lat="48.66015" lon="-3.91937">
        <ele>51.4</ele>
        <time>2025-06-30T08:56:56Z</time>
      </trkpt>
      <trkpt lat="48.66026" lon="-3.9194">
        <ele>51.3</ele>
        <time>2025-06-30T08:56:58Z</time>
      </trkpt>
      <trkpt lat="48.66037" lon="-3.91942">
        <ele>51.1</ele>
        <time>2025-06-30T08:57:00Z</time>
      </trkpt>
      <trkpt lat="48.66049" lon="-3.91945">
        <ele>50.9</ele>
        <time>2025-06-30T08:57:02Z</time>
      </trkpt>
      <trkpt lat="48.66062" lon="-3.91948">
        <ele>50.8</ele>
        <time>2025-06-30T08:57:04Z</time>
      </trkpt>
      <trkpt lat="48.66074" lon="-3.91951">
        <ele>50.6</ele>
        <time>2025-06-30T08:57:06Z</time>
      </trkpt>
      <trkpt lat="48.66087" lon="-3.91953">
        <ele>50.4</ele>
        <time>2025-06-30T08:57:08Z</time>
      </trkpt>
      <trkpt lat="48.66099" lon="-3.91956">
        <ele>50.2</ele>
        <time>2025-06-30T08:57:10Z</time>
      </trkpt>
      <trkpt lat="48.66112" lon="-3.91956">
        <ele>50.1</ele>
        <time>2025-06-30T08:57:12Z</time>
      </trkpt>
      <trkpt lat="48.66124" lon="-3.9195">
        <ele>50</ele>
        <time>2025-06-30T08:57:14Z</time>
      </trkpt>
      <trkpt lat="48.66136" lon="-3.91942">
        <ele>49.9</ele>
        <time>2025-06-30T08:57:16Z</time>
      </trkpt>
      <trkpt lat="48.66147" lon="-3.91934">
        <ele>49.8</ele>
        <time>2025-06-30T08:57:18Z</time>
      </trkpt>
      <trkpt lat="48.66157" lon="-3.91923">
        <ele>49.7</ele>
        <time>2025-06-30T08:57:20Z</time>
      </trkpt>
      <trkpt lat="48.66166" lon="-3.91906">
        <ele>49.5</ele>
        <time>2025-06-30T08:57:22Z</time>
      </trkpt>
      <trkpt lat="48.66175" lon="-3.9189">
        <ele>49.4</ele>
        <time>2025-06-30T08:57:24Z</time>
      </trkpt>
      <trkpt lat="48.66184" lon="-3.91875">
        <ele>49.3</ele>
        <time>2025-06-30T08:57:26Z</time>
      </trkpt>
      <trkpt lat="48.66193" lon="-3.91859">
        <ele>49.3</ele>
        <time>2025-06-30T08:57:28Z</time>
      </trkpt>
      <trkpt lat="48.66203" lon="-3.91845">
        <ele>49.2</ele>
        <time>2025-06-30T08:57:30Z</time>
      </trkpt>
      <trkpt lat="48.66212" lon="-3.91829">
        <ele>49.2</ele>
        <time>2025-06-30T08:57:32Z</time>
      </trkpt>
      <trkpt lat="48.66221" lon="-3.91813">
        <ele>49.2</ele>
        <time>2025-06-30T08:57:34Z</time>
      </trkpt>
      <trkpt lat="48.66229" lon="-3.91797">
        <ele>49.1</ele>
        <time>2025-06-30T08:57:36Z</time>
      </trkpt>
      <trkpt lat="48.66237" lon="-3.9178">
        <ele>49.1</ele>
        <time>2025-06-30T08:57:38Z</time>
      </trkpt>
      <trkpt lat="48.66246" lon="-3.91764">
        <ele>49</ele>
        <time>2025-06-30T08:57:40Z</time>
      </trkpt>
      <trkpt lat="48.66255" lon="-3.91749">
        <ele>49</ele>
        <time>2025-06-30T08:57:42Z</time>
      </trkpt>
      <trkpt lat="48.66264" lon="-3.91734">
        <ele>49.1</ele>
        <time>2025-06-30T08:57:44Z</time>
      </trkpt>
      <trkpt lat="48.66273" lon="-3.91718">
        <ele>49.1</ele>
        <time>2025-06-30T08:57:46Z</time>
      </trkpt>
      <trkpt lat="48.6628" lon="-3.917">
        <ele>49.3</ele>
        <time>2025-06-30T08:57:48Z</time>
      </trkpt>
      <trkpt lat="48.66284" lon="-3.91681">
        <ele>49.5</ele>
        <time>2025-06-30T08:57:50Z</time>
      </trkpt>
      <trkpt lat="48.66283" lon="-3.9166">
        <ele>49.8</ele>
        <time>2025-06-30T08:57:52Z</time>
      </trkpt>
      <trkpt lat="48.66281" lon="-3.91641">
        <ele>50</ele>
        <time>2025-06-30T08:57:54Z</time>
      </trkpt>
      <trkpt lat="48.66281" lon="-3.91621">
        <ele>50.2</ele>
        <time>2025-06-30T08:57:56Z</time>
      </trkpt>
      <trkpt lat="48.6628" lon="-3.91602">
        <ele>50.4</ele>
        <time>2025-06-30T08:57:58Z</time>
      </trkpt>
      <trkpt lat="48.66279" lon="-3.91583">
        <ele>50.6</ele>
        <time>2025-06-30T08:58:00Z</time>
      </trkpt>
      <trkpt lat="48.66278" lon="-3.91563">
        <ele>50.7</ele>
        <time>2025-06-30T08:58:02Z</time>
      </trkpt>
      <trkpt lat="48.6628" lon="-3.91544">
        <ele>50.8</ele>
        <time>2025-06-30T08:58:04Z</time>
      </trkpt>
      <trkpt lat="48.66283" lon="-3.91524">
        <ele>50.8</ele>
        <time>2025-06-30T08:58:06Z</time>
      </trkpt>
      <trkpt lat="48.66285" lon="-3.91505">
        <ele>50.9</ele>
        <time>2025-06-30T08:58:08Z</time>
      </trkpt>
      <trkpt lat="48.66287" lon="-3.91485">
        <ele>50.9</ele>
        <time>2025-06-30T08:58:10Z</time>
      </trkpt>
      <trkpt lat="48.66289" lon="-3.91465">
        <ele>50.9</ele>
        <time>2025-06-30T08:58:12Z</time>
      </trkpt>
      <trkpt lat="48.6629" lon="-3.91446">
        <ele>50.9</ele>
        <time>2025-06-30T08:58:14Z</time>
      </trkpt>
      <trkpt lat="48.66287" lon="-3.91425">
        <ele>50.9</ele>
        <time>2025-06-30T08:58:16Z</time>
      </trkpt>
      <trkpt lat="48.66288" lon="-3.91404">
        <ele>50.9</ele>
        <time>2025-06-30T08:58:18Z</time>
      </trkpt>
      <trkpt lat="48.66291" lon="-3.91384">
        <ele>50.8</ele>
        <time>2025-06-30T08:58:20Z</time>
      </trkpt>
      <trkpt lat="48.66294" lon="-3.91362">
        <ele>50.7</ele>
        <time>2025-06-30T08:58:22Z</time>
      </trkpt>
      <trkpt lat="48.66297" lon="-3.91341">
        <ele>50.6</ele>
        <time>2025-06-30T08:58:24Z</time>
      </trkpt>
      <trkpt lat="48.66301" lon="-3.9132">
        <ele>50.6</ele>
        <time>2025-06-30T08:58:26Z</time>
      </trkpt>
      <trkpt lat="48.66304" lon="-3.913">
        <ele>50.4</ele>
        <time>2025-06-30T08:58:28Z</time>
      </trkpt>
      <trkpt lat="48.66307" lon="-3.91279">
        <ele>50.3</ele>
        <time>2025-06-30T08:58:30Z</time>
      </trkpt>
      <trkpt lat="48.66312" lon="-3.91258">
        <ele>50.1</ele>
        <time>2025-06-30T08:58:32Z</time>
      </trkpt>
      <trkpt lat="48.66316" lon="-3.91237">
        <ele>49.9</ele>
        <time>2025-06-30T08:58:34Z</time>
      </trkpt>
      <trkpt lat="48.66315" lon="-3.91216">
        <ele>49.8</ele>
        <time>2025-06-30T08:58:36Z</time>
      </trkpt>
      <trkpt lat="48.66307" lon="-3.91197">
        <ele>49.6</ele>
        <time>2025-06-30T08:58:38Z</time>
      </trkpt>
      <trkpt lat="48.66292" lon="-3.91188">
        <ele>49.4</ele>
        <time>2025-06-30T08:58:40Z</time>
      </trkpt>
      <trkpt lat="48.66276" lon="-3.91188">
        <ele>49.3</ele>
        <time>2025-06-30T08:58:42Z</time>
      </trkpt>
      <trkpt lat="48.6626" lon="-3.91188">
        <ele>49.3</ele>
        <time>2025-06-30T08:58:44Z</time>
      </trkpt>
      <trkpt lat="48.66245" lon="-3.91187">
        <ele>49.3</ele>
        <time>2025-06-30T08:58:46Z</time>
      </trkpt>
      <trkpt lat="48.66229" lon="-3.91187">
        <ele>49.3</ele>
        <time>2025-06-30T08:58:48Z</time>
      </trkpt>
      <trkpt lat="48.66213" lon="-3.91188">
        <ele>49.4</ele>
        <time>2025-06-30T08:58:50Z</time>
      </trkpt>
      <trkpt lat="48.66197" lon="-3.91187">
        <ele>49.4</ele>
        <time>2025-06-30T08:58:52Z</time>
      </trkpt>
      <trkpt lat="48.6618" lon="-3.91187">
        <ele>49.5</ele>
        <time>2025-06-30T08:58:54Z</time>
      </trkpt>
      <trkpt lat="48.66164" lon="-3.91187">
        <ele>49.6</ele>
        <time>2025-06-30T08:58:56Z</time>
      </trkpt>
      <trkpt lat="48.66148" lon="-3.91187">
        <ele>49.7</ele>
        <time>2025-06-30T08:58:58Z</time>
      </trkpt>
      <trkpt lat="48.66132" lon="-3.91186">
        <ele>49.9</ele>
        <time>2025-06-30T08:59:00Z</time>
      </trkpt>
      <trkpt lat="48.66116" lon="-3.91186">
        <ele>50.1</ele>
        <time>2025-06-30T08:59:02Z</time>
      </trkpt>
      <trkpt lat="48.66101" lon="-3.91186">
        <ele>50.3</ele>
        <time>2025-06-30T08:59:04Z</time>
      </trkpt>
      <trkpt lat="48.66085" lon="-3.91184">
        <ele>50.5</ele>
        <time>2025-06-30T08:59:06Z</time>
      </trkpt>
      <trkpt lat="48.66071" lon="-3.9118">
        <ele>50.7</ele>
        <time>2025-06-30T08:59:08Z</time>
      </trkpt>
      <trkpt lat="48.66057" lon="-3.91175">
        <ele>50.7</ele>
        <time>2025-06-30T08:59:10Z</time>
      </trkpt>
      <trkpt lat="48.66043" lon="-3.91169">
        <ele>50.8</ele>
        <time>2025-06-30T08:59:12Z</time>
      </trkpt>
      <trkpt lat="48.66028" lon="-3.91163">
        <ele>50.9</ele>
        <time>2025-06-30T08:59:14Z</time>
      </trkpt>
      <trkpt lat="48.66013" lon="-3.91156">
        <ele>50.9</ele>
        <time>2025-06-30T08:59:16Z</time>
      </trkpt>
      <trkpt lat="48.65998" lon="-3.9115">
        <ele>51</ele>
        <time>2025-06-30T08:59:18Z</time>
      </trkpt>
      <trkpt lat="48.65984" lon="-3.91144">
        <ele>51.1</ele>
        <time>2025-06-30T08:59:20Z</time>
      </trkpt>
      <trkpt lat="48.65969" lon="-3.91138">
        <ele>51.2</ele>
        <time>2025-06-30T08:59:22Z</time>
      </trkpt>
      <trkpt lat="48.65955" lon="-3.91131">
        <ele>51.3</ele>
        <time>2025-06-30T08:59:24Z</time>
      </trkpt>
      <trkpt lat="48.6594" lon="-3.91124">
        <ele>51.4</ele>
        <time>2025-06-30T08:59:26Z</time>
      </trkpt>
      <trkpt lat="48.65925" lon="-3.91117">
        <ele>51.6</ele>
        <time>2025-06-30T08:59:28Z</time>
      </trkpt>
      <trkpt lat="48.6591" lon="-3.91112">
        <ele>51.8</ele>
        <time>2025-06-30T08:59:30Z</time>
      </trkpt>
      <trkpt lat="48.65895" lon="-3.91107">
        <ele>52</ele>
        <time>2025-06-30T08:59:32Z</time>
      </trkpt>
      <trkpt lat="48.6588" lon="-3.91101">
        <ele>52.2</ele>
        <time>2025-06-30T08:59:34Z</time>
      </trkpt>
      <trkpt lat="48.65865" lon="-3.91095">
        <ele>52.5</ele>
        <time>2025-06-30T08:59:36Z</time>
      </trkpt>
      <trkpt lat="48.65851" lon="-3.91089">
        <ele>52.9</ele>
        <time>2025-06-30T08:59:38Z</time>
      </trkpt>
      <trkpt lat="48.65837" lon="-3.91083">
        <ele>53.2</ele>
        <time>2025-06-30T08:59:40Z</time>
      </trkpt>
      <trkpt lat="48.65823" lon="-3.91078">
        <ele>53.6</ele>
        <time>2025-06-30T08:59:42Z</time>
      </trkpt>
      <trkpt lat="48.6581" lon="-3.91072">
        <ele>53.9</ele>
        <time>2025-06-30T08:59:44Z</time>
      </trkpt>
      <trkpt lat="48.65796" lon="-3.91065">
        <ele>54.2</ele>
        <time>2025-06-30T08:59:46Z</time>
      </trkpt>
      <trkpt lat="48.65782" lon="-3.91059">
        <ele>54.5</ele>
        <time>2025-06-30T08:59:48Z</time>
      </trkpt>
      <trkpt lat="48.65768" lon="-3.91054">
        <ele>54.8</ele>
        <time>2025-06-30T08:59:50Z</time>
      </trkpt>
      <trkpt lat="48.65755" lon="-3.91049">
        <ele>55.2</ele>
        <time>2025-06-30T08:59:52Z</time>
      </trkpt>
      <trkpt lat="48.65742" lon="-3.91043">
        <ele>55.6</ele>
        <time>2025-06-30T08:59:54Z</time>
      </trkpt>
      <trkpt lat="48.65729" lon="-3.91037">
        <ele>55.9</ele>
        <time>2025-06-30T08:59:56Z</time>
      </trkpt>
      <trkpt lat="48.65716" lon="-3.91032">
        <ele>56.3</ele>
        <time>2025-06-30T08:59:58Z</time>
      </trkpt>
      <trkpt lat="48.65704" lon="-3.91026">
        <ele>56.7</ele>
        <time>2025-06-30T09:00:00Z</time>
      </trkpt>
      <trkpt lat="48.65692" lon="-3.91021">
        <ele>57.1</ele>
        <time>2025-06-30T09:00:02Z</time>
      </trkpt>
      <trkpt lat="48.6568" lon="-3.91016">
        <ele>57.4</ele>
        <time>2025-06-30T09:00:04Z</time>
      </trkpt>
      <trkpt lat="48.65668" lon="-3.91012">
        <ele>57.6</ele>
        <time>2025-06-30T09:00:06Z</time>
      </trkpt>
      <trkpt lat="48.65657" lon="-3.91006">
        <ele>57.8</ele>
        <time>2025-06-30T09:00:08Z</time>
      </trkpt>
      <trkpt lat="48.65645" lon="-3.91001">
        <ele>58</ele>
        <time>2025-06-30T09:00:10Z</time>
      </trkpt>
      <trkpt lat="48.65635" lon="-3.90993">
        <ele>58.2</ele>
        <time>2025-06-30T09:00:12Z</time>
      </trkpt>
      <trkpt lat="48.65623" lon="-3.90986">
        <ele>58.3</ele>
        <time>2025-06-30T09:00:14Z</time>
      </trkpt>
      <trkpt lat="48.65612" lon="-3.90978">
        <ele>58.4</ele>
        <time>2025-06-30T09:00:16Z</time>
      </trkpt>
      <trkpt lat="48.656" lon="-3.9097">
        <ele>58.6</ele>
        <time>2025-06-30T09:00:18Z</time>
      </trkpt>
      <trkpt lat="48.65589" lon="-3.90961">
        <ele>58.8</ele>
        <time>2025-06-30T09:00:20Z</time>
      </trkpt>
      <trkpt lat="48.65577" lon="-3.90952">
        <ele>59.1</ele>
        <time>2025-06-30T09:00:22Z</time>
      </trkpt>
      <trkpt lat="48.65566" lon="-3.90944">
        <ele>59.3</ele>
        <time>2025-06-30T09:00:24Z</time>
      </trkpt>
      <trkpt lat="48.65554" lon="-3.90935">
        <ele>59.6</ele>
        <time>2025-06-30T09:00:26Z</time>
      </trkpt>
      <trkpt lat="48.65543" lon="-3.90927">
        <ele>59.8</ele>
        <time>2025-06-30T09:00:28Z</time>
      </trkpt>
      <trkpt lat="48.65532" lon="-3.90918">
        <ele>60.1</ele>
        <time>2025-06-30T09:00:30Z</time>
      </trkpt>
      <trkpt lat="48.65521" lon="-3.90908">
        <ele>60.3</ele>
        <time>2025-06-30T09:00:32Z</time>
      </trkpt>
      <trkpt lat="48.65509" lon="-3.909">
        <ele>60.5</ele>
        <time>2025-06-30T09:00:34Z</time>
      </trkpt>
      <trkpt lat="48.65497" lon="-3.9089">
        <ele>60.7</ele>
        <time>2025-06-30T09:00:36Z</time>
      </trkpt>
      <trkpt lat="48.65485" lon="-3.9088">
        <ele>60.7</ele>
        <time>2025-06-30T09:00:38Z</time>
      </trkpt>
      <trkpt lat="48.65473" lon="-3.9087">
        <ele>60.8</ele>
        <time>2025-06-30T09:00:40Z</time>
      </trkpt>
      <trkpt lat="48.6546" lon="-3.90861">
        <ele>60.9</ele>
        <time>2025-06-30T09:00:42Z</time>
      </trkpt>
      <trkpt lat="48.65447" lon="-3.90851">
        <ele>60.9</ele>
        <time>2025-06-30T09:00:44Z</time>
      </trkpt>
      <trkpt lat="48.65435" lon="-3.90841">
        <ele>60.9</ele>
        <time>2025-06-30T09:00:46Z</time>
      </trkpt>
      <trkpt lat="48.65422" lon="-3.9083">
        <ele>61</ele>
        <time>2025-06-30T09:00:48Z</time>
      </trkpt>
      <trkpt lat="48.6541" lon="-3.90821">
        <ele>61</ele>
        <time>2025-06-30T09:00:50Z</time>
      </trkpt>
      <trkpt lat="48.65397" lon="-3.90811">
        <ele>61.1</ele>
        <time>2025-06-30T09:00:52Z</time>
      </trkpt>
      <trkpt lat="48.65385" lon="-3.90801">
        <ele>61.2</ele>
        <time>2025-06-30T09:00:54Z</time>
      </trkpt>
      <trkpt lat="48.65372" lon="-3.90791">
        <ele>61.3</ele>
        <time>2025-06-30T09:00:56Z</time>
      </trkpt>
      <trkpt lat="48.65359" lon="-3.90781">
        <ele>61.3</ele>
        <time>2025-06-30T09:00:58Z</time>
      </trkpt>
      <trkpt lat="48.65346" lon="-3.9077">
        <ele>61.3</ele>
        <time>2025-06-30T09:01:00Z</time>
      </trkpt>
      <trkpt lat="48.65333" lon="-3.9076">
        <ele>61.4</ele>
        <time>2025-06-30T09:01:02Z</time>
      </trkpt>
      <trkpt lat="48.6532" lon="-3.90751">
        <ele>61.4</ele>
        <time>2025-06-30T09:01:04Z</time>
      </trkpt>
      <trkpt lat="48.65306" lon="-3.9074">
        <ele>61.3</ele>
        <time>2025-06-30T09:01:06Z</time>
      </trkpt>
      <trkpt lat="48.65293" lon="-3.9073">
        <ele>61.3</ele>
        <time>2025-06-30T09:01:08Z</time>
      </trkpt>
      <trkpt lat="48.6528" lon="-3.90719">
        <ele>61.3</ele>
        <time>2025-06-30T09:01:10Z</time>
      </trkpt>
      <trkpt lat="48.65266" lon="-3.90708">
        <ele>61.3</ele>
        <time>2025-06-30T09:01:12Z</time>
      </trkpt>
      <trkpt lat="48.65253" lon="-3.90697">
        <ele>61.2</ele>
        <time>2025-06-30T09:01:14Z</time>
      </trkpt>
      <trkpt lat="48.65239" lon="-3.90686">
        <ele>61.2</ele>
        <time>2025-06-30T09:01:16Z</time>
      </trkpt>
      <trkpt lat="48.65225" lon="-3.90675">
        <ele>61.1</ele>
        <time>2025-06-30T09:01:18Z</time>
      </trkpt>
      <trkpt lat="48.65212" lon="-3.90664">
        <ele>61.1</ele>
        <time>2025-06-30T09:01:20Z</time>
      </trkpt>
      <trkpt lat="48.65198" lon="-3.90653">
        <ele>61</ele>
        <time>2025-06-30T09:01:22Z</time>
      </trkpt>
      <trkpt lat="48.65185" lon="-3.90643">
        <ele>60.9</ele>
        <time>2025-06-30T09:01:24Z</time>
      </trkpt>
      <trkpt lat="48.65171" lon="-3.90632">
        <ele>60.7</ele>
        <time>2025-06-30T09:01:26Z</time>
      </trkpt>
      <trkpt lat="48.65158" lon="-3.90622">
        <ele>60.3</ele>
        <time>2025-06-30T09:01:28Z</time>
      </trkpt>
      <trkpt lat="48.65144" lon="-3.90611">
        <ele>59.9</ele>
        <time>2025-06-30T09:01:30Z</time>
      </trkpt>
      <trkpt lat="48.65129" lon="-3.90601">
        <ele>59.1</ele>
        <time>2025-06-30T09:01:32Z</time>
      </trkpt>
      <trkpt lat="48.65115" lon="-3.90591">
        <ele>58</ele>
        <time>2025-06-30T09:01:34Z</time>
      </trkpt>
      <trkpt lat="48.65106" lon="-3.90587">
        <ele>57.5</ele>
        <time>2025-06-30T09:01:35Z</time>
      </trkpt>
      <trkpt lat="48.65089" lon="-3.90578">
        <ele>56.3</ele>
        <time>2025-06-30T09:01:37Z</time>
      </trkpt>
      <trkpt lat="48.65081" lon="-3.90573">
        <ele>55.8</ele>
        <time>2025-06-30T09:01:38Z</time>
      </trkpt>
      <trkpt lat="48.65072" lon="-3.90568">
        <ele>55.2</ele>
        <time>2025-06-30T09:01:39Z</time>
      </trkpt>
      <trkpt lat="48.65055" lon="-3.9056">
        <ele>54.5</ele>
        <time>2025-06-30T09:01:41Z</time>
      </trkpt>
      <trkpt lat="48.6504" lon="-3.90552">
        <ele>54.1</ele>
        <time>2025-06-30T09:01:43Z</time>
      </trkpt>
      <trkpt lat="48.65025" lon="-3.90552">
        <ele>53.9</ele>
        <time>2025-06-30T09:01:45Z</time>
      </trkpt>
      <trkpt lat="48.65012" lon="-3.90552">
        <ele>53.9</ele>
        <time>2025-06-30T09:01:47Z</time>
      </trkpt>
      <trkpt lat="48.65004" lon="-3.90535">
        <ele>53.6</ele>
        <time>2025-06-30T09:01:49Z</time>
      </trkpt>
      <trkpt lat="48.64997" lon="-3.90515">
        <ele>53.1</ele>
        <time>2025-06-30T09:01:51Z</time>
      </trkpt>
      <trkpt lat="48.64986" lon="-3.90497">
        <ele>52</ele>
        <time>2025-06-30T09:01:53Z</time>
      </trkpt>
      <trkpt lat="48.64973" lon="-3.9048">
        <ele>51</ele>
        <time>2025-06-30T09:01:55Z</time>
      </trkpt>
      <trkpt lat="48.6496" lon="-3.90462">
        <ele>50.5</ele>
        <time>2025-06-30T09:01:57Z</time>
      </trkpt>
      <trkpt lat="48.64953" lon="-3.90453">
        <ele>50.2</ele>
        <time>2025-06-30T09:01:58Z</time>
      </trkpt>
      <trkpt lat="48.64946" lon="-3.90444">
        <ele>49.9</ele>
        <time>2025-06-30T09:01:59Z</time>
      </trkpt>
      <trkpt lat="48.6494" lon="-3.90434">
        <ele>49.6</ele>
        <time>2025-06-30T09:02:00Z</time>
      </trkpt>
      <trkpt lat="48.64933" lon="-3.90423">
        <ele>49.3</ele>
        <time>2025-06-30T09:02:01Z</time>
      </trkpt>
      <trkpt lat="48.64927" lon="-3.90413">
        <ele>49</ele>
        <time>2025-06-30T09:02:02Z</time>
      </trkpt>
      <trkpt lat="48.64919" lon="-3.90404">
        <ele>48.8</ele>
        <time>2025-06-30T09:02:03Z</time>
      </trkpt>
      <trkpt lat="48.64912" lon="-3.90395">
        <ele>48.6</ele>
        <time>2025-06-30T09:02:04Z</time>
      </trkpt>
      <trkpt lat="48.64905" lon="-3.90385">
        <ele>48.5</ele>
        <time>2025-06-30T09:02:05Z</time>
      </trkpt>
      <trkpt lat="48.64898" lon="-3.90374">
        <ele>48.4</ele>
        <time>2025-06-30T09:02:06Z</time>
      </trkpt>
      <trkpt lat="48.64891" lon="-3.90364">
        <ele>48.3</ele>
        <time>2025-06-30T09:02:07Z</time>
      </trkpt>
      <trkpt lat="48.64884" lon="-3.90354">
        <ele>48.2</ele>
        <time>2025-06-30T09:02:08Z</time>
      </trkpt>
      <trkpt lat="48.64877" lon="-3.90343">
        <ele>48.2</ele>
        <time>2025-06-30T09:02:09Z</time>
      </trkpt>
      <trkpt lat="48.6487" lon="-3.90333">
        <ele>48.2</ele>
        <time>2025-06-30T09:02:10Z</time>
      </trkpt>
      <trkpt lat="48.64863" lon="-3.90323">
        <ele>48.2</ele>
        <time>2025-06-30T09:02:11Z</time>
      </trkpt>
      <trkpt lat="48.64856" lon="-3.90313">
        <ele>48.3</ele>
        <time>2025-06-30T09:02:12Z</time>
      </trkpt>
      <trkpt lat="48.6485" lon="-3.90303">
        <ele>48.4</ele>
        <time>2025-06-30T09:02:13Z</time>
      </trkpt>
      <trkpt lat="48.64842" lon="-3.90293">
        <ele>48.6</ele>
        <time>2025-06-30T09:02:14Z</time>
      </trkpt>
      <trkpt lat="48.64835" lon="-3.90284">
        <ele>48.7</ele>
        <time>2025-06-30T09:02:15Z</time>
      </trkpt>
      <trkpt lat="48.64828" lon="-3.90274">
        <ele>48.9</ele>
        <time>2025-06-30T09:02:16Z</time>
      </trkpt>
      <trkpt lat="48.64821" lon="-3.90265">
        <ele>49.1</ele>
        <time>2025-06-30T09:02:17Z</time>
      </trkpt>
      <trkpt lat="48.64808" lon="-3.90249">
        <ele>49.3</ele>
        <time>2025-06-30T09:02:19Z</time>
      </trkpt>
      <trkpt lat="48.648" lon="-3.9024">
        <ele>49.4</ele>
        <time>2025-06-30T09:02:20Z</time>
      </trkpt>
      <trkpt lat="48.64786" lon="-3.90225">
        <ele>49.6</ele>
        <time>2025-06-30T09:02:22Z</time>
      </trkpt>
      <trkpt lat="48.64772" lon="-3.90209">
        <ele>49.8</ele>
        <time>2025-06-30T09:02:24Z</time>
      </trkpt>
      <trkpt lat="48.64756" lon="-3.90195">
        <ele>49.9</ele>
        <time>2025-06-30T09:02:26Z</time>
      </trkpt>
      <trkpt lat="48.64748" lon="-3.90189">
        <ele>49.9</ele>
        <time>2025-06-30T09:02:27Z</time>
      </trkpt>
      <trkpt lat="48.64732" lon="-3.90178">
        <ele>50</ele>
        <time>2025-06-30T09:02:29Z</time>
      </trkpt>
      <trkpt lat="48.64723" lon="-3.90173">
        <ele>50</ele>
        <time>2025-06-30T09:02:30Z</time>
      </trkpt>
      <trkpt lat="48.64715" lon="-3.90168">
        <ele>49.9</ele>
        <time>2025-06-30T09:02:31Z</time>
      </trkpt>
      <trkpt lat="48.64697" lon="-3.9016">
        <ele>49.7</ele>
        <time>2025-06-30T09:02:33Z</time>
      </trkpt>
      <trkpt lat="48.64688" lon="-3.90157">
        <ele>49.5</ele>
        <time>2025-06-30T09:02:34Z</time>
      </trkpt>
      <trkpt lat="48.64679" lon="-3.90153">
        <ele>49.3</ele>
        <time>2025-06-30T09:02:35Z</time>
      </trkpt>
      <trkpt lat="48.6467" lon="-3.9015">
        <ele>49</ele>
        <time>2025-06-30T09:02:36Z</time>
      </trkpt>
      <trkpt lat="48.6466" lon="-3.90148">
        <ele>48.8</ele>
        <time>2025-06-30T09:02:37Z</time>
      </trkpt>
      <trkpt lat="48.64651" lon="-3.90146">
        <ele>48.4</ele>
        <time>2025-06-30T09:02:38Z</time>
      </trkpt>
      <trkpt lat="48.64641" lon="-3.90145">
        <ele>47.9</ele>
        <time>2025-06-30T09:02:39Z</time>
      </trkpt>
      <trkpt lat="48.64631" lon="-3.90144">
        <ele>47.3</ele>
        <time>2025-06-30T09:02:40Z</time>
      </trkpt>
      <trkpt lat="48.6462" lon="-3.90144">
        <ele>46.7</ele>
        <time>2025-06-30T09:02:41Z</time>
      </trkpt>
      <trkpt lat="48.64609" lon="-3.90144">
        <ele>46</ele>
        <time>2025-06-30T09:02:42Z</time>
      </trkpt>
      <trkpt lat="48.64598" lon="-3.90145">
        <ele>45.2</ele>
        <time>2025-06-30T09:02:43Z</time>
      </trkpt>
      <trkpt lat="48.64587" lon="-3.90144">
        <ele>44.3</ele>
        <time>2025-06-30T09:02:44Z</time>
      </trkpt>
      <trkpt lat="48.64576" lon="-3.90144">
        <ele>43.4</ele>
        <time>2025-06-30T09:02:45Z</time>
      </trkpt>
      <trkpt lat="48.64564" lon="-3.90144">
        <ele>42.5</ele>
        <time>2025-06-30T09:02:46Z</time>
      </trkpt>
      <trkpt lat="48.64552" lon="-3.90144">
        <ele>41.6</ele>
        <time>2025-06-30T09:02:47Z</time>
      </trkpt>
      <trkpt lat="48.6454" lon="-3.90143">
        <ele>40.7</ele>
        <time>2025-06-30T09:02:48Z</time>
      </trkpt>
      <trkpt lat="48.64528" lon="-3.90141">
        <ele>39.8</ele>
        <time>2025-06-30T09:02:49Z</time>
      </trkpt>
      <trkpt lat="48.64516" lon="-3.90137">
        <ele>39</ele>
        <time>2025-06-30T09:02:50Z</time>
      </trkpt>
      <trkpt lat="48.64504" lon="-3.90132">
        <ele>38.2</ele>
        <time>2025-06-30T09:02:51Z</time>
      </trkpt>
      <trkpt lat="48.64492" lon="-3.90126">
        <ele>37.4</ele>
        <time>2025-06-30T09:02:52Z</time>
      </trkpt>
      <trkpt lat="48.64481" lon="-3.90119">
        <ele>36.7</ele>
        <time>2025-06-30T09:02:53Z</time>
      </trkpt>
      <trkpt lat="48.6447" lon="-3.9011">
        <ele>35.9</ele>
        <time>2025-06-30T09:02:54Z</time>
      </trkpt>
      <trkpt lat="48.64459" lon="-3.90102">
        <ele>35.2</ele>
        <time>2025-06-30T09:02:55Z</time>
      </trkpt>
      <trkpt lat="48.64448" lon="-3.90092">
        <ele>34.4</ele>
        <time>2025-06-30T09:02:56Z</time>
      </trkpt>
      <trkpt lat="48.64438" lon="-3.90081">
        <ele>33.5</ele>
        <time>2025-06-30T09:02:57Z</time>
      </trkpt>
      <trkpt lat="48.64429" lon="-3.90069">
        <ele>32.5</ele>
        <time>2025-06-30T09:02:58Z</time>
      </trkpt>
      <trkpt lat="48.6442" lon="-3.90055">
        <ele>31.6</ele>
        <time>2025-06-30T09:02:59Z</time>
      </trkpt>
      <trkpt lat="48.64411" lon="-3.90041">
        <ele>30.8</ele>
        <time>2025-06-30T09:03:00Z</time>
      </trkpt>
      <trkpt lat="48.64403" lon="-3.90027">
        <ele>29.9</ele>
        <time>2025-06-30T09:03:01Z</time>
      </trkpt>
      <trkpt lat="48.64395" lon="-3.90013">
        <ele>29.1</ele>
        <time>2025-06-30T09:03:02Z</time>
      </trkpt>
      <trkpt lat="48.64388" lon="-3.89998">
        <ele>28.3</ele>
        <time>2025-06-30T09:03:03Z</time>
      </trkpt>
      <trkpt lat="48.64382" lon="-3.89982">
        <ele>27.4</ele>
        <time>2025-06-30T09:03:04Z</time>
      </trkpt>
      <trkpt lat="48.64378" lon="-3.89965">
        <ele>26.6</ele>
        <time>2025-06-30T09:03:05Z</time>
      </trkpt>
      <trkpt lat="48.64373" lon="-3.89948">
        <ele>25.8</ele>
        <time>2025-06-30T09:03:06Z</time>
      </trkpt>
      <trkpt lat="48.64369" lon="-3.89931">
        <ele>25</ele>
        <time>2025-06-30T09:03:07Z</time>
      </trkpt>
      <trkpt lat="48.64365" lon="-3.89914">
        <ele>24.2</ele>
        <time>2025-06-30T09:03:08Z</time>
      </trkpt>
      <trkpt lat="48.64361" lon="-3.89897">
        <ele>23.5</ele>
        <time>2025-06-30T09:03:09Z</time>
      </trkpt>
      <trkpt lat="48.64357" lon="-3.8988">
        <ele>22.8</ele>
        <time>2025-06-30T09:03:10Z</time>
      </trkpt>
      <trkpt lat="48.64353" lon="-3.89862">
        <ele>22.1</ele>
        <time>2025-06-30T09:03:11Z</time>
      </trkpt>
      <trkpt lat="48.64348" lon="-3.89845">
        <ele>21.4</ele>
        <time>2025-06-30T09:03:12Z</time>
      </trkpt>
      <trkpt lat="48.64345" lon="-3.89827">
        <ele>20.6</ele>
        <time>2025-06-30T09:03:13Z</time>
      </trkpt>
      <trkpt lat="48.64341" lon="-3.8981">
        <ele>19.9</ele>
        <time>2025-06-30T09:03:14Z</time>
      </trkpt>
      <trkpt lat="48.64337" lon="-3.89792">
        <ele>19.2</ele>
        <time>2025-06-30T09:03:15Z</time>
      </trkpt>
      <trkpt lat="48.64333" lon="-3.89774">
        <ele>18.4</ele>
        <time>2025-06-30T09:03:16Z</time>
      </trkpt>
      <trkpt lat="48.64328" lon="-3.89757">
        <ele>17.6</ele>
        <time>2025-06-30T09:03:17Z</time>
      </trkpt>
      <trkpt lat="48.64324" lon="-3.89739">
        <ele>16.9</ele>
        <time>2025-06-30T09:03:18Z</time>
      </trkpt>
      <trkpt lat="48.6432" lon="-3.89722">
        <ele>16.1</ele>
        <time>2025-06-30T09:03:19Z</time>
      </trkpt>
      <trkpt lat="48.64317" lon="-3.89704">
        <ele>15.3</ele>
        <time>2025-06-30T09:03:20Z</time>
      </trkpt>
      <trkpt lat="48.64313" lon="-3.89687">
        <ele>14.5</ele>
        <time>2025-06-30T09:03:21Z</time>
      </trkpt>
      <trkpt lat="48.6431" lon="-3.89669">
        <ele>13.6</ele>
        <time>2025-06-30T09:03:22Z</time>
      </trkpt>
      <trkpt lat="48.64308" lon="-3.8965">
        <ele>12.7</ele>
        <time>2025-06-30T09:03:23Z</time>
      </trkpt>
      <trkpt lat="48.64306" lon="-3.89631">
        <ele>11.8</ele>
        <time>2025-06-30T09:03:24Z</time>
      </trkpt>
      <trkpt lat="48.64304" lon="-3.89612">
        <ele>10.8</ele>
        <time>2025-06-30T09:03:25Z</time>
      </trkpt>
      <trkpt lat="48.64303" lon="-3.89592">
        <ele>9.9</ele>
        <time>2025-06-30T09:03:26Z</time>
      </trkpt>
      <trkpt lat="48.64303" lon="-3.89573">
        <ele>9</ele>
        <time>2025-06-30T09:03:27Z</time>
      </trkpt>
      <trkpt lat="48.64303" lon="-3.89553">
        <ele>8.2</ele>
        <time>2025-06-30T09:03:28Z</time>
      </trkpt>
      <trkpt lat="48.64304" lon="-3.89534">
        <ele>7.5</ele>
        <time>2025-06-30T09:03:29Z</time>
      </trkpt>
      <trkpt lat="48.64306" lon="-3.89515">
        <ele>6.9</ele>
        <time>2025-06-30T09:03:30Z</time>
      </trkpt>
      <trkpt lat="48.64308" lon="-3.89497">
        <ele>6.4</ele>
        <time>2025-06-30T09:03:31Z</time>
      </trkpt>
      <trkpt lat="48.64311" lon="-3.89478">
        <ele>5.9</ele>
        <time>2025-06-30T09:03:32Z</time>
      </trkpt>
      <trkpt lat="48.64314" lon="-3.89459">
        <ele>5.7</ele>
        <time>2025-06-30T09:03:33Z</time>
      </trkpt>
      <trkpt lat="48.64316" lon="-3.8944">
        <ele>5.6</ele>
        <time>2025-06-30T09:03:34Z</time>
      </trkpt>
      <trkpt lat="48.64319" lon="-3.89422">
        <ele>5.5</ele>
        <time>2025-06-30T09:03:35Z</time>
      </trkpt>
      <trkpt lat="48.64321" lon="-3.89404">
        <ele>5.4</ele>
        <time>2025-06-30T09:03:36Z</time>
      </trkpt>
      <trkpt lat="48.64322" lon="-3.89385">
        <ele>5.4</ele>
        <time>2025-06-30T09:03:37Z</time>
      </trkpt>
      <trkpt lat="48.64322" lon="-3.89367">
        <ele>5.5</ele>
        <time>2025-06-30T09:03:38Z</time>
      </trkpt>
      <trkpt lat="48.6432" lon="-3.89349">
        <ele>5.5</ele>
        <time>2025-06-30T09:03:39Z</time>
      </trkpt>
      <trkpt lat="48.64318" lon="-3.89332">
        <ele>5.6</ele>
        <time>2025-06-30T09:03:40Z</time>
      </trkpt>
      <trkpt lat="48.64315" lon="-3.89316">
        <ele>5.6</ele>
        <time>2025-06-30T09:03:41Z</time>
      </trkpt>
      <trkpt lat="48.6431" lon="-3.893">
        <ele>5.7</ele>
        <time>2025-06-30T09:03:42Z</time>
      </trkpt>
      <trkpt lat="48.64305" lon="-3.89285">
        <ele>5.6</ele>
        <time>2025-06-30T09:03:43Z</time>
      </trkpt>
      <trkpt lat="48.643" lon="-3.89271">
        <ele>5.7</ele>
        <time>2025-06-30T09:03:44Z</time>
      </trkpt>
      <trkpt lat="48.64295" lon="-3.89256">
        <ele>5.8</ele>
        <time>2025-06-30T09:03:45Z</time>
      </trkpt>
      <trkpt lat="48.64289" lon="-3.89242">
        <ele>5.9</ele>
        <time>2025-06-30T09:03:46Z</time>
      </trkpt>
      <trkpt lat="48.64283" lon="-3.89229">
        <ele>6.1</ele>
        <time>2025-06-30T09:03:47Z</time>
      </trkpt>
      <trkpt lat="48.64277" lon="-3.89216">
        <ele>6.4</ele>
        <time>2025-06-30T09:03:48Z</time>
      </trkpt>
      <trkpt lat="48.64272" lon="-3.89203">
        <ele>6.7</ele>
        <time>2025-06-30T09:03:49Z</time>
      </trkpt>
      <trkpt lat="48.64266" lon="-3.89191">
        <ele>7</ele>
        <time>2025-06-30T09:03:50Z</time>
      </trkpt>
      <trkpt lat="48.64262" lon="-3.89178">
        <ele>7.3</ele>
        <time>2025-06-30T09:03:51Z</time>
      </trkpt>
      <trkpt lat="48.64257" lon="-3.89165">
        <ele>7.6</ele>
        <time>2025-06-30T09:03:52Z</time>
      </trkpt>
      <trkpt lat="48.64253" lon="-3.89152">
        <ele>7.9</ele>
        <time>2025-06-30T09:03:53Z</time>
      </trkpt>
      <trkpt lat="48.64249" lon="-3.89139">
        <ele>8.1</ele>
        <time>2025-06-30T09:03:54Z</time>
      </trkpt>
      <trkpt lat="48.64245" lon="-3.89127">
        <ele>8.4</ele>
        <time>2025-06-30T09:03:55Z</time>
      </trkpt>
      <trkpt lat="48.64241" lon="-3.89115">
        <ele>8.6</ele>
        <time>2025-06-30T09:03:56Z</time>
      </trkpt>
      <trkpt lat="48.64234" lon="-3.8909">
        <ele>9.1</ele>
        <time>2025-06-30T09:03:58Z</time>
      </trkpt>
      <trkpt lat="48.64227" lon="-3.89067">
        <ele>9.4</ele>
        <time>2025-06-30T09:04:00Z</time>
      </trkpt>
      <trkpt lat="48.6422" lon="-3.89044">
        <ele>9.7</ele>
        <time>2025-06-30T09:04:02Z</time>
      </trkpt>
      <trkpt lat="48.64214" lon="-3.89021">
        <ele>9.9</ele>
        <time>2025-06-30T09:04:04Z</time>
      </trkpt>
      <trkpt lat="48.64207" lon="-3.88999">
        <ele>10</ele>
        <time>2025-06-30T09:04:06Z</time>
      </trkpt>
      <trkpt lat="48.64201" lon="-3.88976">
        <ele>9.9</ele>
        <time>2025-06-30T09:04:08Z</time>
      </trkpt>
      <trkpt lat="48.64193" lon="-3.88954">
        <ele>9.8</ele>
        <time>2025-06-30T09:04:10Z</time>
      </trkpt>
      <trkpt lat="48.64184" lon="-3.88932">
        <ele>9.5</ele>
        <time>2025-06-30T09:04:12Z</time>
      </trkpt>
      <trkpt lat="48.64176" lon="-3.8891">
        <ele>9.1</ele>
        <time>2025-06-30T09:04:14Z</time>
      </trkpt>
      <trkpt lat="48.64166" lon="-3.88887">
        <ele>8.5</ele>
        <time>2025-06-30T09:04:16Z</time>
      </trkpt>
      <trkpt lat="48.64157" lon="-3.88864">
        <ele>7.9</ele>
        <time>2025-06-30T09:04:18Z</time>
      </trkpt>
      <trkpt lat="48.64152" lon="-3.88852">
        <ele>7.6</ele>
        <time>2025-06-30T09:04:19Z</time>
      </trkpt>
      <trkpt lat="48.64148" lon="-3.88839">
        <ele>7.4</ele>
        <time>2025-06-30T09:04:20Z</time>
      </trkpt>
      <trkpt lat="48.64143" lon="-3.88826">
        <ele>7.1</ele>
        <time>2025-06-30T09:04:21Z</time>
      </trkpt>
      <trkpt lat="48.64138" lon="-3.88814">
        <ele>6.8</ele>
        <time>2025-06-30T09:04:22Z</time>
      </trkpt>
      <trkpt lat="48.64134" lon="-3.88801">
        <ele>6.6</ele>
        <time>2025-06-30T09:04:23Z</time>
      </trkpt>
      <trkpt lat="48.6413" lon="-3.88787">
        <ele>6.4</ele>
        <time>2025-06-30T09:04:24Z</time>
      </trkpt>
      <trkpt lat="48.64125" lon="-3.88774">
        <ele>6.3</ele>
        <time>2025-06-30T09:04:25Z</time>
      </trkpt>
      <trkpt lat="48.6412" lon="-3.8876">
        <ele>6.2</ele>
        <time>2025-06-30T09:04:26Z</time>
      </trkpt>
      <trkpt lat="48.64115" lon="-3.88747">
        <ele>6.1</ele>
        <time>2025-06-30T09:04:27Z</time>
      </trkpt>
      <trkpt lat="48.64111" lon="-3.88734">
        <ele>6.1</ele>
        <time>2025-06-30T09:04:28Z</time>
      </trkpt>
      <trkpt lat="48.64107" lon="-3.88722">
        <ele>6.1</ele>
        <time>2025-06-30T09:04:29Z</time>
      </trkpt>
      <trkpt lat="48.64102" lon="-3.88709">
        <ele>6.1</ele>
        <time>2025-06-30T09:04:30Z</time>
      </trkpt>
      <trkpt lat="48.64098" lon="-3.88696">
        <ele>6.2</ele>
        <time>2025-06-30T09:04:31Z</time>
      </trkpt>
      <trkpt lat="48.64093" lon="-3.88684">
        <ele>6.2</ele>
        <time>2025-06-30T09:04:32Z</time>
      </trkpt>
      <trkpt lat="48.64089" lon="-3.88671">
        <ele>6.1</ele>
        <time>2025-06-30T09:04:33Z</time>
      </trkpt>
      <trkpt lat="48.64085" lon="-3.88659">
        <ele>6.1</ele>
        <time>2025-06-30T09:04:34Z</time>
      </trkpt>
      <trkpt lat="48.64081" lon="-3.88647">
        <ele>6.1</ele>
        <time>2025-06-30T09:04:35Z</time>
      </trkpt>
      <trkpt lat="48.64076" lon="-3.88634">
        <ele>6.1</ele>
        <time>2025-06-30T09:04:36Z</time>
      </trkpt>
      <trkpt lat="48.64072" lon="-3.88622">
        <ele>6.1</ele>
        <time>2025-06-30T09:04:37Z</time>
      </trkpt>
      <trkpt lat="48.64068" lon="-3.8861">
        <ele>6.1</ele>
        <time>2025-06-30T09:04:38Z</time>
      </trkpt>
      <trkpt lat="48.64064" lon="-3.88597">
        <ele>6.1</ele>
        <time>2025-06-30T09:04:39Z</time>
      </trkpt>
      <trkpt lat="48.6406" lon="-3.88585">
        <ele>6.1</ele>
        <time>2025-06-30T09:04:40Z</time>
      </trkpt>
      <trkpt lat="48.64055" lon="-3.88573">
        <ele>6.2</ele>
        <time>2025-06-30T09:04:41Z</time>
      </trkpt>
      <trkpt lat="48.64051" lon="-3.88561">
        <ele>6.2</ele>
        <time>2025-06-30T09:04:42Z</time>
      </trkpt>
      <trkpt lat="48.64043" lon="-3.88537">
        <ele>6.2</ele>
        <time>2025-06-30T09:04:44Z</time>
      </trkpt>
      <trkpt lat="48.64034" lon="-3.88513">
        <ele>6.2</ele>
        <time>2025-06-30T09:04:46Z</time>
      </trkpt>
      <trkpt lat="48.64031" lon="-3.885">
        <ele>6.2</ele>
        <time>2025-06-30T09:04:47Z</time>
      </trkpt>
      <trkpt lat="48.64023" lon="-3.88475">
        <ele>6.1</ele>
        <time>2025-06-30T09:04:49Z</time>
      </trkpt>
      <trkpt lat="48.6402" lon="-3.88462">
        <ele>6.1</ele>
        <time>2025-06-30T09:04:50Z</time>
      </trkpt>
      <trkpt lat="48.64017" lon="-3.8845">
        <ele>6.1</ele>
        <time>2025-06-30T09:04:51Z</time>
      </trkpt>
      <trkpt lat="48.64013" lon="-3.88436">
        <ele>6.1</ele>
        <time>2025-06-30T09:04:52Z</time>
      </trkpt>
      <trkpt lat="48.6401" lon="-3.88424">
        <ele>6.1</ele>
        <time>2025-06-30T09:04:53Z</time>
      </trkpt>
      <trkpt lat="48.64007" lon="-3.88411">
        <ele>6.2</ele>
        <time>2025-06-30T09:04:54Z</time>
      </trkpt>
      <trkpt lat="48.64004" lon="-3.88398">
        <ele>6.2</ele>
        <time>2025-06-30T09:04:55Z</time>
      </trkpt>
      <trkpt lat="48.64001" lon="-3.88385">
        <ele>6.2</ele>
        <time>2025-06-30T09:04:56Z</time>
      </trkpt>
      <trkpt lat="48.63995" lon="-3.8836">
        <ele>6.1</ele>
        <time>2025-06-30T09:04:58Z</time>
      </trkpt>
      <trkpt lat="48.63991" lon="-3.88347">
        <ele>6.1</ele>
        <time>2025-06-30T09:04:59Z</time>
      </trkpt>
      <trkpt lat="48.63988" lon="-3.88334">
        <ele>6.1</ele>
        <time>2025-06-30T09:05:00Z</time>
      </trkpt>
      <trkpt lat="48.63985" lon="-3.88321">
        <ele>6.1</ele>
        <time>2025-06-30T09:05:01Z</time>
      </trkpt>
      <trkpt lat="48.63981" lon="-3.88308">
        <ele>6.1</ele>
        <time>2025-06-30T09:05:02Z</time>
      </trkpt>
      <trkpt lat="48.63978" lon="-3.88295">
        <ele>6.1</ele>
        <time>2025-06-30T09:05:03Z</time>
      </trkpt>
      <trkpt lat="48.63975" lon="-3.88282">
        <ele>6.1</ele>
        <time>2025-06-30T09:05:04Z</time>
      </trkpt>
      <trkpt lat="48.63972" lon="-3.88269">
        <ele>6.1</ele>
        <time>2025-06-30T09:05:05Z</time>
      </trkpt>
      <trkpt lat="48.63969" lon="-3.88256">
        <ele>6.1</ele>
        <time>2025-06-30T09:05:06Z</time>
      </trkpt>
      <trkpt lat="48.63964" lon="-3.8823">
        <ele>6.2</ele>
        <time>2025-06-30T09:05:08Z</time>
      </trkpt>
      <trkpt lat="48.63959" lon="-3.88205">
        <ele>6.2</ele>
        <time>2025-06-30T09:05:10Z</time>
      </trkpt>
      <trkpt lat="48.63956" lon="-3.88192">
        <ele>6.2</ele>
        <time>2025-06-30T09:05:11Z</time>
      </trkpt>
      <trkpt lat="48.63953" lon="-3.88178">
        <ele>6.2</ele>
        <time>2025-06-30T09:05:12Z</time>
      </trkpt>
      <trkpt lat="48.6395" lon="-3.88165">
        <ele>6.2</ele>
        <time>2025-06-30T09:05:13Z</time>
      </trkpt>
      <trkpt lat="48.63947" lon="-3.88152">
        <ele>6.3</ele>
        <time>2025-06-30T09:05:14Z</time>
      </trkpt>
      <trkpt lat="48.63945" lon="-3.88139">
        <ele>6.3</ele>
        <time>2025-06-30T09:05:15Z</time>
      </trkpt>
      <trkpt lat="48.6394" lon="-3.88113">
        <ele>6.5</ele>
        <time>2025-06-30T09:05:17Z</time>
      </trkpt>
      <trkpt lat="48.63934" lon="-3.88088">
        <ele>6.8</ele>
        <time>2025-06-30T09:05:19Z</time>
      </trkpt>
      <trkpt lat="48.63929" lon="-3.88063">
        <ele>7.1</ele>
        <time>2025-06-30T09:05:21Z</time>
      </trkpt>
      <trkpt lat="48.63923" lon="-3.88039">
        <ele>7.4</ele>
        <time>2025-06-30T09:05:23Z</time>
      </trkpt>
      <trkpt lat="48.63918" lon="-3.88016">
        <ele>7.7</ele>
        <time>2025-06-30T09:05:25Z</time>
      </trkpt>
      <trkpt lat="48.63913" lon="-3.87993">
        <ele>7.9</ele>
        <time>2025-06-30T09:05:27Z</time>
      </trkpt>
      <trkpt lat="48.63909" lon="-3.87969">
        <ele>8.1</ele>
        <time>2025-06-30T09:05:29Z</time>
      </trkpt>
      <trkpt lat="48.63905" lon="-3.87946">
        <ele>8.2</ele>
        <time>2025-06-30T09:05:31Z</time>
      </trkpt>
      <trkpt lat="48.63902" lon="-3.87922">
        <ele>8.3</ele>
        <time>2025-06-30T09:05:33Z</time>
      </trkpt>
      <trkpt lat="48.63899" lon="-3.87898">
        <ele>8.3</ele>
        <time>2025-06-30T09:05:35Z</time>
      </trkpt>
      <trkpt lat="48.63896" lon="-3.87873">
        <ele>8.3</ele>
        <time>2025-06-30T09:05:37Z</time>
      </trkpt>
      <trkpt lat="48.63893" lon="-3.87849">
        <ele>8.4</ele>
        <time>2025-06-30T09:05:39Z</time>
      </trkpt>
      <trkpt lat="48.6389" lon="-3.87825">
        <ele>8.4</ele>
        <time>2025-06-30T09:05:41Z</time>
      </trkpt>
      <trkpt lat="48.63886" lon="-3.878">
        <ele>8.5</ele>
        <time>2025-06-30T09:05:43Z</time>
      </trkpt>
      <trkpt lat="48.63883" lon="-3.87776">
        <ele>8.7</ele>
        <time>2025-06-30T09:05:45Z</time>
      </trkpt>
      <trkpt lat="48.63879" lon="-3.87752">
        <ele>8.9</ele>
        <time>2025-06-30T09:05:47Z</time>
      </trkpt>
      <trkpt lat="48.63875" lon="-3.87728">
        <ele>9.2</ele>
        <time>2025-06-30T09:05:49Z</time>
      </trkpt>
      <trkpt lat="48.63871" lon="-3.87705">
        <ele>9.6</ele>
        <time>2025-06-30T09:05:51Z</time>
      </trkpt>
      <trkpt lat="48.63867" lon="-3.87684">
        <ele>10.2</ele>
        <time>2025-06-30T09:05:53Z</time>
      </trkpt>
      <trkpt lat="48.63863" lon="-3.87663">
        <ele>10.8</ele>
        <time>2025-06-30T09:05:55Z</time>
      </trkpt>
      <trkpt lat="48.63858" lon="-3.87644">
        <ele>11.4</ele>
        <time>2025-06-30T09:05:57Z</time>
      </trkpt>
      <trkpt lat="48.63854" lon="-3.87626">
        <ele>11.9</ele>
        <time>2025-06-30T09:05:59Z</time>
      </trkpt>
      <trkpt lat="48.63848" lon="-3.87611">
        <ele>12.4</ele>
        <time>2025-06-30T09:06:01Z</time>
      </trkpt>
      <trkpt lat="48.63841" lon="-3.87596">
        <ele>12.9</ele>
        <time>2025-06-30T09:06:03Z</time>
      </trkpt>
      <trkpt lat="48.63834" lon="-3.87581">
        <ele>13.4</ele>
        <time>2025-06-30T09:06:05Z</time>
      </trkpt>
      <trkpt lat="48.63826" lon="-3.87567">
        <ele>13.8</ele>
        <time>2025-06-30T09:06:07Z</time>
      </trkpt>
      <trkpt lat="48.63818" lon="-3.87554">
        <ele>14.1</ele>
        <time>2025-06-30T09:06:09Z</time>
      </trkpt>
      <trkpt lat="48.63809" lon="-3.87541">
        <ele>14.4</ele>
        <time>2025-06-30T09:06:11Z</time>
      </trkpt>
      <trkpt lat="48.638" lon="-3.8753">
        <ele>14.6</ele>
        <time>2025-06-30T09:06:13Z</time>
      </trkpt>
      <trkpt lat="48.6379" lon="-3.87519">
        <ele>14.7</ele>
        <time>2025-06-30T09:06:15Z</time>
      </trkpt>
      <trkpt lat="48.63778" lon="-3.87509">
        <ele>14.7</ele>
        <time>2025-06-30T09:06:17Z</time>
      </trkpt>
      <trkpt lat="48.63766" lon="-3.875">
        <ele>14.6</ele>
        <time>2025-06-30T09:06:19Z</time>
      </trkpt>
      <trkpt lat="48.63753" lon="-3.8749">
        <ele>14.5</ele>
        <time>2025-06-30T09:06:21Z</time>
      </trkpt>
      <trkpt lat="48.6374" lon="-3.8748">
        <ele>14.4</ele>
        <time>2025-06-30T09:06:23Z</time>
      </trkpt>
      <trkpt lat="48.63727" lon="-3.8747">
        <ele>14.3</ele>
        <time>2025-06-30T09:06:25Z</time>
      </trkpt>
      <trkpt lat="48.63713" lon="-3.87461">
        <ele>14.2</ele>
        <time>2025-06-30T09:06:27Z</time>
      </trkpt>
      <trkpt lat="48.637" lon="-3.87452">
        <ele>14.2</ele>
        <time>2025-06-30T09:06:29Z</time>
      </trkpt>
      <trkpt lat="48.63687" lon="-3.87443">
        <ele>14.2</ele>
        <time>2025-06-30T09:06:31Z</time>
      </trkpt>
      <trkpt lat="48.63675" lon="-3.87434">
        <ele>14.3</ele>
        <time>2025-06-30T09:06:33Z</time>
      </trkpt>
      <trkpt lat="48.63662" lon="-3.87425">
        <ele>14.3</ele>
        <time>2025-06-30T09:06:35Z</time>
      </trkpt>
      <trkpt lat="48.6365" lon="-3.87415">
        <ele>14.4</ele>
        <time>2025-06-30T09:06:37Z</time>
      </trkpt>
      <trkpt lat="48.63637" lon="-3.87404">
        <ele>14.5</ele>
        <time>2025-06-30T09:06:39Z</time>
      </trkpt>
      <trkpt lat="48.63625" lon="-3.87392">
        <ele>14.6</ele>
        <time>2025-06-30T09:06:41Z</time>
      </trkpt>
      <trkpt lat="48.63614" lon="-3.87378">
        <ele>14.7</ele>
        <time>2025-06-30T09:06:43Z</time>
      </trkpt>
      <trkpt lat="48.63603" lon="-3.87364">
        <ele>14.8</ele>
        <time>2025-06-30T09:06:45Z</time>
      </trkpt>
      <trkpt lat="48.63592" lon="-3.87349">
        <ele>15</ele>
        <time>2025-06-30T09:06:47Z</time>
      </trkpt>
      <trkpt lat="48.63582" lon="-3.87334">
        <ele>15.2</ele>
        <time>2025-06-30T09:06:49Z</time>
      </trkpt>
      <trkpt lat="48.63572" lon="-3.87319">
        <ele>15.5</ele>
        <time>2025-06-30T09:06:51Z</time>
      </trkpt>
      <trkpt lat="48.63562" lon="-3.87304">
        <ele>15.8</ele>
        <time>2025-06-30T09:06:53Z</time>
      </trkpt>
      <trkpt lat="48.63552" lon="-3.87289">
        <ele>16.2</ele>
        <time>2025-06-30T09:06:55Z</time>
      </trkpt>
      <trkpt lat="48.63543" lon="-3.87272">
        <ele>16.6</ele>
        <time>2025-06-30T09:06:57Z</time>
      </trkpt>
      <trkpt lat="48.63534" lon="-3.87255">
        <ele>17</ele>
        <time>2025-06-30T09:06:59Z</time>
      </trkpt>
      <trkpt lat="48.63527" lon="-3.87238">
        <ele>17.4</ele>
        <time>2025-06-30T09:07:01Z</time>
      </trkpt>
      <trkpt lat="48.6352" lon="-3.87219">
        <ele>17.8</ele>
        <time>2025-06-30T09:07:03Z</time>
      </trkpt>
      <trkpt lat="48.63514" lon="-3.872">
        <ele>18.2</ele>
        <time>2025-06-30T09:07:05Z</time>
      </trkpt>
      <trkpt lat="48.63509" lon="-3.87182">
        <ele>18.6</ele>
        <time>2025-06-30T09:07:07Z</time>
      </trkpt>
      <trkpt lat="48.63505" lon="-3.87164">
        <ele>18.9</ele>
        <time>2025-06-30T09:07:09Z</time>
      </trkpt>
      <trkpt lat="48.63501" lon="-3.87145">
        <ele>19.3</ele>
        <time>2025-06-30T09:07:11Z</time>
      </trkpt>
      <trkpt lat="48.63498" lon="-3.87127">
        <ele>19.5</ele>
        <time>2025-06-30T09:07:13Z</time>
      </trkpt>
      <trkpt lat="48.63496" lon="-3.87107">
        <ele>19.8</ele>
        <time>2025-06-30T09:07:15Z</time>
      </trkpt>
      <trkpt lat="48.63494" lon="-3.87088">
        <ele>20</ele>
        <time>2025-06-30T09:07:17Z</time>
      </trkpt>
      <trkpt lat="48.63492" lon="-3.87068">
        <ele>20.1</ele>
        <time>2025-06-30T09:07:19Z</time>
      </trkpt>
      <trkpt lat="48.63492" lon="-3.87048">
        <ele>20.2</ele>
        <time>2025-06-30T09:07:21Z</time>
      </trkpt>
      <trkpt lat="48.63492" lon="-3.87028">
        <ele>20.2</ele>
        <time>2025-06-30T09:07:23Z</time>
      </trkpt>
      <trkpt lat="48.63494" lon="-3.87008">
        <ele>20.1</ele>
        <time>2025-06-30T09:07:25Z</time>
      </trkpt>
      <trkpt lat="48.63496" lon="-3.86987">
        <ele>19.9</ele>
        <time>2025-06-30T09:07:27Z</time>
      </trkpt>
      <trkpt lat="48.635" lon="-3.86966">
        <ele>19.6</ele>
        <time>2025-06-30T09:07:29Z</time>
      </trkpt>
      <trkpt lat="48.63504" lon="-3.86944">
        <ele>19.2</ele>
        <time>2025-06-30T09:07:31Z</time>
      </trkpt>
      <trkpt lat="48.63508" lon="-3.86923">
        <ele>18.9</ele>
        <time>2025-06-30T09:07:33Z</time>
      </trkpt>
      <trkpt lat="48.63512" lon="-3.86901">
        <ele>18.5</ele>
        <time>2025-06-30T09:07:35Z</time>
      </trkpt>
      <trkpt lat="48.63516" lon="-3.86878">
        <ele>18.1</ele>
        <time>2025-06-30T09:07:37Z</time>
      </trkpt>
      <trkpt lat="48.6352" lon="-3.86855">
        <ele>17.8</ele>
        <time>2025-06-30T09:07:39Z</time>
      </trkpt>
      <trkpt lat="48.63522" lon="-3.8683">
        <ele>17.5</ele>
        <time>2025-06-30T09:07:41Z</time>
      </trkpt>
      <trkpt lat="48.63524" lon="-3.86805">
        <ele>17.2</ele>
        <time>2025-06-30T09:07:43Z</time>
      </trkpt>
      <trkpt lat="48.63524" lon="-3.86779">
        <ele>16.9</ele>
        <time>2025-06-30T09:07:45Z</time>
      </trkpt>
      <trkpt lat="48.63523" lon="-3.86753">
        <ele>16.5</ele>
        <time>2025-06-30T09:07:47Z</time>
      </trkpt>
      <trkpt lat="48.63519" lon="-3.86728">
        <ele>16.2</ele>
        <time>2025-06-30T09:07:49Z</time>
      </trkpt>
      <trkpt lat="48.63515" lon="-3.86702">
        <ele>15.9</ele>
        <time>2025-06-30T09:07:51Z</time>
      </trkpt>
      <trkpt lat="48.63508" lon="-3.86677">
        <ele>15.7</ele>
        <time>2025-06-30T09:07:53Z</time>
      </trkpt>
      <trkpt lat="48.635" lon="-3.86652">
        <ele>15.5</ele>
        <time>2025-06-30T09:07:55Z</time>
      </trkpt>
      <trkpt lat="48.63494" lon="-3.86641">
        <ele>15.3</ele>
        <time>2025-06-30T09:07:56Z</time>
      </trkpt>
      <trkpt lat="48.63491" lon="-3.86628">
        <ele>15.2</ele>
        <time>2025-06-30T09:07:57Z</time>
      </trkpt>
      <trkpt lat="48.63486" lon="-3.86617">
        <ele>15</ele>
        <time>2025-06-30T09:07:58Z</time>
      </trkpt>
      <trkpt lat="48.63481" lon="-3.86605">
        <ele>14.8</ele>
        <time>2025-06-30T09:07:59Z</time>
      </trkpt>
      <trkpt lat="48.63475" lon="-3.86594">
        <ele>14.7</ele>
        <time>2025-06-30T09:08:00Z</time>
      </trkpt>
      <trkpt lat="48.63469" lon="-3.86582">
        <ele>14.5</ele>
        <time>2025-06-30T09:08:01Z</time>
      </trkpt>
      <trkpt lat="48.63464" lon="-3.86571">
        <ele>14.3</ele>
        <time>2025-06-30T09:08:02Z</time>
      </trkpt>
      <trkpt lat="48.63459" lon="-3.86558">
        <ele>14.1</ele>
        <time>2025-06-30T09:08:03Z</time>
      </trkpt>
      <trkpt lat="48.63453" lon="-3.86546">
        <ele>13.9</ele>
        <time>2025-06-30T09:08:04Z</time>
      </trkpt>
      <trkpt lat="48.63448" lon="-3.86534">
        <ele>13.7</ele>
        <time>2025-06-30T09:08:05Z</time>
      </trkpt>
      <trkpt lat="48.63442" lon="-3.86522">
        <ele>13.5</ele>
        <time>2025-06-30T09:08:06Z</time>
      </trkpt>
      <trkpt lat="48.63436" lon="-3.86509">
        <ele>13.3</ele>
        <time>2025-06-30T09:08:07Z</time>
      </trkpt>
      <trkpt lat="48.63431" lon="-3.86496">
        <ele>13.1</ele>
        <time>2025-06-30T09:08:08Z</time>
      </trkpt>
      <trkpt lat="48.63425" lon="-3.86484">
        <ele>12.9</ele>
        <time>2025-06-30T09:08:09Z</time>
      </trkpt>
      <trkpt lat="48.63419" lon="-3.86471">
        <ele>12.7</ele>
        <time>2025-06-30T09:08:10Z</time>
      </trkpt>
      <trkpt lat="48.63414" lon="-3.86459">
        <ele>12.5</ele>
        <time>2025-06-30T09:08:11Z</time>
      </trkpt>
      <trkpt lat="48.63408" lon="-3.86446">
        <ele>12.2</ele>
        <time>2025-06-30T09:08:12Z</time>
      </trkpt>
      <trkpt lat="48.63402" lon="-3.86433">
        <ele>11.9</ele>
        <time>2025-06-30T09:08:13Z</time>
      </trkpt>
      <trkpt lat="48.63396" lon="-3.8642">
        <ele>11.6</ele>
        <time>2025-06-30T09:08:14Z</time>
      </trkpt>
      <trkpt lat="48.6339" lon="-3.86407">
        <ele>11.4</ele>
        <time>2025-06-30T09:08:15Z</time>
      </trkpt>
      <trkpt lat="48.63384" lon="-3.86394">
        <ele>11.1</ele>
        <time>2025-06-30T09:08:16Z</time>
      </trkpt>
      <trkpt lat="48.63378" lon="-3.86381">
        <ele>10.8</ele>
        <time>2025-06-30T09:08:17Z</time>
      </trkpt>
      <trkpt lat="48.63372" lon="-3.86368">
        <ele>10.5</ele>
        <time>2025-06-30T09:08:18Z</time>
      </trkpt>
      <trkpt lat="48.63366" lon="-3.86354">
        <ele>10.3</ele>
        <time>2025-06-30T09:08:19Z</time>
      </trkpt>
      <trkpt lat="48.6336" lon="-3.8634">
        <ele>10</ele>
        <time>2025-06-30T09:08:20Z</time>
      </trkpt>
      <trkpt lat="48.63354" lon="-3.86327">
        <ele>9.7</ele>
        <time>2025-06-30T09:08:21Z</time>
      </trkpt>
      <trkpt lat="48.63347" lon="-3.86313">
        <ele>9.5</ele>
        <time>2025-06-30T09:08:22Z</time>
      </trkpt>
      <trkpt lat="48.63341" lon="-3.863">
        <ele>9.2</ele>
        <time>2025-06-30T09:08:23Z</time>
      </trkpt>
      <trkpt lat="48.63335" lon="-3.86286">
        <ele>8.9</ele>
        <time>2025-06-30T09:08:24Z</time>
      </trkpt>
      <trkpt lat="48.63328" lon="-3.86272">
        <ele>8.6</ele>
        <time>2025-06-30T09:08:25Z</time>
      </trkpt>
      <trkpt lat="48.63322" lon="-3.86258">
        <ele>8.3</ele>
        <time>2025-06-30T09:08:26Z</time>
      </trkpt>
      <trkpt lat="48.63316" lon="-3.86243">
        <ele>8.1</ele>
        <time>2025-06-30T09:08:27Z</time>
      </trkpt>
      <trkpt lat="48.63309" lon="-3.86229">
        <ele>7.8</ele>
        <time>2025-06-30T09:08:28Z</time>
      </trkpt>
      <trkpt lat="48.63303" lon="-3.86216">
        <ele>7.6</ele>
        <time>2025-06-30T09:08:29Z</time>
      </trkpt>
      <trkpt lat="48.63297" lon="-3.86201">
        <ele>7.4</ele>
        <time>2025-06-30T09:08:30Z</time>
      </trkpt>
      <trkpt lat="48.63291" lon="-3.86187">
        <ele>7.2</ele>
        <time>2025-06-30T09:08:31Z</time>
      </trkpt>
      <trkpt lat="48.63284" lon="-3.86173">
        <ele>6.9</ele>
        <time>2025-06-30T09:08:32Z</time>
      </trkpt>
      <trkpt lat="48.63278" lon="-3.86158">
        <ele>6.7</ele>
        <time>2025-06-30T09:08:33Z</time>
      </trkpt>
      <trkpt lat="48.63271" lon="-3.86144">
        <ele>6.6</ele>
        <time>2025-06-30T09:08:34Z</time>
      </trkpt>
      <trkpt lat="48.63264" lon="-3.8613">
        <ele>6.4</ele>
        <time>2025-06-30T09:08:35Z</time>
      </trkpt>
      <trkpt lat="48.63256" lon="-3.86116">
        <ele>6.3</ele>
        <time>2025-06-30T09:08:36Z</time>
      </trkpt>
      <trkpt lat="48.63248" lon="-3.86103">
        <ele>6.2</ele>
        <time>2025-06-30T09:08:37Z</time>
      </trkpt>
      <trkpt lat="48.6324" lon="-3.86091">
        <ele>6.1</ele>
        <time>2025-06-30T09:08:38Z</time>
      </trkpt>
      <trkpt lat="48.63231" lon="-3.86079">
        <ele>5.9</ele>
        <time>2025-06-30T09:08:39Z</time>
      </trkpt>
      <trkpt lat="48.63222" lon="-3.86068">
        <ele>5.9</ele>
        <time>2025-06-30T09:08:40Z</time>
      </trkpt>
      <trkpt lat="48.63213" lon="-3.86058">
        <ele>5.8</ele>
        <time>2025-06-30T09:08:41Z</time>
      </trkpt>
      <trkpt lat="48.63203" lon="-3.86048">
        <ele>5.9</ele>
        <time>2025-06-30T09:08:42Z</time>
      </trkpt>
      <trkpt lat="48.63193" lon="-3.86039">
        <ele>5.9</ele>
        <time>2025-06-30T09:08:43Z</time>
      </trkpt>
      <trkpt lat="48.63184" lon="-3.86031">
        <ele>5.9</ele>
        <time>2025-06-30T09:08:44Z</time>
      </trkpt>
      <trkpt lat="48.63174" lon="-3.86023">
        <ele>5.9</ele>
        <time>2025-06-30T09:08:45Z</time>
      </trkpt>
      <trkpt lat="48.63163" lon="-3.86016">
        <ele>5.9</ele>
        <time>2025-06-30T09:08:46Z</time>
      </trkpt>
      <trkpt lat="48.63153" lon="-3.8601">
        <ele>5.9</ele>
        <time>2025-06-30T09:08:47Z</time>
      </trkpt>
      <trkpt lat="48.63142" lon="-3.86004">
        <ele>5.9</ele>
        <time>2025-06-30T09:08:48Z</time>
      </trkpt>
      <trkpt lat="48.63132" lon="-3.85998">
        <ele>5.9</ele>
        <time>2025-06-30T09:08:49Z</time>
      </trkpt>
      <trkpt lat="48.63121" lon="-3.85993">
        <ele>6</ele>
        <time>2025-06-30T09:08:50Z</time>
      </trkpt>
      <trkpt lat="48.6311" lon="-3.85987">
        <ele>6</ele>
        <time>2025-06-30T09:08:51Z</time>
      </trkpt>
      <trkpt lat="48.631" lon="-3.85982">
        <ele>6</ele>
        <time>2025-06-30T09:08:52Z</time>
      </trkpt>
      <trkpt lat="48.6309" lon="-3.85976">
        <ele>6</ele>
        <time>2025-06-30T09:08:53Z</time>
      </trkpt>
      <trkpt lat="48.6308" lon="-3.85968">
        <ele>6</ele>
        <time>2025-06-30T09:08:54Z</time>
      </trkpt>
      <trkpt lat="48.6307" lon="-3.85961">
        <ele>6.1</ele>
        <time>2025-06-30T09:08:55Z</time>
      </trkpt>
      <trkpt lat="48.6306" lon="-3.85953">
        <ele>6</ele>
        <time>2025-06-30T09:08:56Z</time>
      </trkpt>
      <trkpt lat="48.63051" lon="-3.85945">
        <ele>6</ele>
        <time>2025-06-30T09:08:57Z</time>
      </trkpt>
      <trkpt lat="48.63041" lon="-3.85937">
        <ele>6</ele>
        <time>2025-06-30T09:08:58Z</time>
      </trkpt>
      <trkpt lat="48.63032" lon="-3.85929">
        <ele>6</ele>
        <time>2025-06-30T09:08:59Z</time>
      </trkpt>
      <trkpt lat="48.63022" lon="-3.85922">
        <ele>6</ele>
        <time>2025-06-30T09:09:00Z</time>
      </trkpt>
      <trkpt lat="48.63013" lon="-3.85914">
        <ele>6.1</ele>
        <time>2025-06-30T09:09:01Z</time>
      </trkpt>
      <trkpt lat="48.63004" lon="-3.85907">
        <ele>6.1</ele>
        <time>2025-06-30T09:09:02Z</time>
      </trkpt>
      <trkpt lat="48.62996" lon="-3.859">
        <ele>6.1</ele>
        <time>2025-06-30T09:09:03Z</time>
      </trkpt>
      <trkpt lat="48.62986" lon="-3.85893">
        <ele>6</ele>
        <time>2025-06-30T09:09:04Z</time>
      </trkpt>
      <trkpt lat="48.62977" lon="-3.85886">
        <ele>6</ele>
        <time>2025-06-30T09:09:05Z</time>
      </trkpt>
      <trkpt lat="48.62968" lon="-3.85879">
        <ele>6</ele>
        <time>2025-06-30T09:09:06Z</time>
      </trkpt>
      <trkpt lat="48.62959" lon="-3.85872">
        <ele>6</ele>
        <time>2025-06-30T09:09:07Z</time>
      </trkpt>
      <trkpt lat="48.6295" lon="-3.85866">
        <ele>6</ele>
        <time>2025-06-30T09:09:08Z</time>
      </trkpt>
      <trkpt lat="48.6294" lon="-3.85861">
        <ele>5.9</ele>
        <time>2025-06-30T09:09:09Z</time>
      </trkpt>
      <trkpt lat="48.6293" lon="-3.85856">
        <ele>5.9</ele>
        <time>2025-06-30T09:09:10Z</time>
      </trkpt>
      <trkpt lat="48.6292" lon="-3.85851">
        <ele>6</ele>
        <time>2025-06-30T09:09:11Z</time>
      </trkpt>
      <trkpt lat="48.6291" lon="-3.85846">
        <ele>6</ele>
        <time>2025-06-30T09:09:12Z</time>
      </trkpt>
      <trkpt lat="48.62901" lon="-3.8584">
        <ele>6.1</ele>
        <time>2025-06-30T09:09:13Z</time>
      </trkpt>
      <trkpt lat="48.62891" lon="-3.85836">
        <ele>6.1</ele>
        <time>2025-06-30T09:09:14Z</time>
      </trkpt>
      <trkpt lat="48.62882" lon="-3.85831">
        <ele>6.1</ele>
        <time>2025-06-30T09:09:15Z</time>
      </trkpt>
      <trkpt lat="48.62872" lon="-3.85825">
        <ele>6.1</ele>
        <time>2025-06-30T09:09:16Z</time>
      </trkpt>
      <trkpt lat="48.62863" lon="-3.8582">
        <ele>6.1</ele>
        <time>2025-06-30T09:09:17Z</time>
      </trkpt>
      <trkpt lat="48.62853" lon="-3.85816">
        <ele>6.1</ele>
        <time>2025-06-30T09:09:18Z</time>
      </trkpt>
      <trkpt lat="48.62843" lon="-3.85815">
        <ele>6</ele>
        <time>2025-06-30T09:09:19Z</time>
      </trkpt>
      <trkpt lat="48.62834" lon="-3.8581">
        <ele>6</ele>
        <time>2025-06-30T09:09:20Z</time>
      </trkpt>
      <trkpt lat="48.62824" lon="-3.85806">
        <ele>6</ele>
        <time>2025-06-30T09:09:21Z</time>
      </trkpt>
      <trkpt lat="48.62815" lon="-3.85799">
        <ele>5.9</ele>
        <time>2025-06-30T09:09:22Z</time>
      </trkpt>
      <trkpt lat="48.62806" lon="-3.85796">
        <ele>5.9</ele>
        <time>2025-06-30T09:09:23Z</time>
      </trkpt>
      <trkpt lat="48.62796" lon="-3.85793">
        <ele>5.9</ele>
        <time>2025-06-30T09:09:24Z</time>
      </trkpt>
      <trkpt lat="48.62787" lon="-3.85788">
        <ele>6</ele>
        <time>2025-06-30T09:09:25Z</time>
      </trkpt>
      <trkpt lat="48.62779" lon="-3.85781">
        <ele>6</ele>
        <time>2025-06-30T09:09:26Z</time>
      </trkpt>
      <trkpt lat="48.6277" lon="-3.85774">
        <ele>6</ele>
        <time>2025-06-30T09:09:27Z</time>
      </trkpt>
      <trkpt lat="48.62761" lon="-3.85771">
        <ele>6</ele>
        <time>2025-06-30T09:09:28Z</time>
      </trkpt>
      <trkpt lat="48.62751" lon="-3.85768">
        <ele>5.9</ele>
        <time>2025-06-30T09:09:29Z</time>
      </trkpt>
      <trkpt lat="48.62742" lon="-3.85766">
        <ele>5.9</ele>
        <time>2025-06-30T09:09:30Z</time>
      </trkpt>
      <trkpt lat="48.62732" lon="-3.85762">
        <ele>5.9</ele>
        <time>2025-06-30T09:09:31Z</time>
      </trkpt>
      <trkpt lat="48.62723" lon="-3.85758">
        <ele>6</ele>
        <time>2025-06-30T09:09:32Z</time>
      </trkpt>
      <trkpt lat="48.62714" lon="-3.85755">
        <ele>6.1</ele>
        <time>2025-06-30T09:09:33Z</time>
      </trkpt>
      <trkpt lat="48.62704" lon="-3.85751">
        <ele>6</ele>
        <time>2025-06-30T09:09:34Z</time>
      </trkpt>
      <trkpt lat="48.62695" lon="-3.85748">
        <ele>6</ele>
        <time>2025-06-30T09:09:35Z</time>
      </trkpt>
      <trkpt lat="48.62686" lon="-3.85744">
        <ele>6</ele>
        <time>2025-06-30T09:09:36Z</time>
      </trkpt>
      <trkpt lat="48.62676" lon="-3.85739">
        <ele>5.9</ele>
        <time>2025-06-30T09:09:37Z</time>
      </trkpt>
      <trkpt lat="48.62667" lon="-3.85735">
        <ele>5.9</ele>
        <time>2025-06-30T09:09:38Z</time>
      </trkpt>
      <trkpt lat="48.62658" lon="-3.85732">
        <ele>5.9</ele>
        <time>2025-06-30T09:09:39Z</time>
      </trkpt>
      <trkpt lat="48.62649" lon="-3.85728">
        <ele>5.9</ele>
        <time>2025-06-30T09:09:40Z</time>
      </trkpt>
      <trkpt lat="48.62639" lon="-3.85725">
        <ele>5.9</ele>
        <time>2025-06-30T09:09:41Z</time>
      </trkpt>
      <trkpt lat="48.6263" lon="-3.85723">
        <ele>5.9</ele>
        <time>2025-06-30T09:09:42Z</time>
      </trkpt>
      <trkpt lat="48.6262" lon="-3.85723">
        <ele>5.8</ele>
        <time>2025-06-30T09:09:43Z</time>
      </trkpt>
      <trkpt lat="48.6261" lon="-3.85722">
        <ele>5.8</ele>
        <time>2025-06-30T09:09:44Z</time>
      </trkpt>
      <trkpt lat="48.626" lon="-3.85723">
        <ele>5.7</ele>
        <time>2025-06-30T09:09:45Z</time>
      </trkpt>
      <trkpt lat="48.62591" lon="-3.85726">
        <ele>5.6</ele>
        <time>2025-06-30T09:09:46Z</time>
      </trkpt>
      <trkpt lat="48.62582" lon="-3.8573">
        <ele>5.5</ele>
        <time>2025-06-30T09:09:47Z</time>
      </trkpt>
      <trkpt lat="48.62572" lon="-3.8573">
        <ele>5.5</ele>
        <time>2025-06-30T09:09:48Z</time>
      </trkpt>
      <trkpt lat="48.62563" lon="-3.85729">
        <ele>5.5</ele>
        <time>2025-06-30T09:09:49Z</time>
      </trkpt>
      <trkpt lat="48.62553" lon="-3.85731">
        <ele>5.6</ele>
        <time>2025-06-30T09:09:50Z</time>
      </trkpt>
      <trkpt lat="48.62543" lon="-3.85731">
        <ele>5.6</ele>
        <time>2025-06-30T09:09:51Z</time>
      </trkpt>
      <trkpt lat="48.62534" lon="-3.85731">
        <ele>5.7</ele>
        <time>2025-06-30T09:09:52Z</time>
      </trkpt>
      <trkpt lat="48.62525" lon="-3.85732">
        <ele>5.8</ele>
        <time>2025-06-30T09:09:53Z</time>
      </trkpt>
      <trkpt lat="48.62515" lon="-3.85734">
        <ele>5.7</ele>
        <time>2025-06-30T09:09:54Z</time>
      </trkpt>
      <trkpt lat="48.62505" lon="-3.85735">
        <ele>5.7</ele>
        <time>2025-06-30T09:09:55Z</time>
      </trkpt>
      <trkpt lat="48.62496" lon="-3.85737">
        <ele>5.7</ele>
        <time>2025-06-30T09:09:56Z</time>
      </trkpt>
      <trkpt lat="48.62486" lon="-3.85738">
        <ele>5.8</ele>
        <time>2025-06-30T09:09:57Z</time>
      </trkpt>
      <trkpt lat="48.62477" lon="-3.8574">
        <ele>5.8</ele>
        <time>2025-06-30T09:09:58Z</time>
      </trkpt>
      <trkpt lat="48.62467" lon="-3.85742">
        <ele>5.8</ele>
        <time>2025-06-30T09:09:59Z</time>
      </trkpt>
      <trkpt lat="48.62458" lon="-3.85743">
        <ele>5.9</ele>
        <time>2025-06-30T09:10:00Z</time>
      </trkpt>
      <trkpt lat="48.62448" lon="-3.85744">
        <ele>5.9</ele>
        <time>2025-06-30T09:10:01Z</time>
      </trkpt>
      <trkpt lat="48.62439" lon="-3.85744">
        <ele>6</ele>
        <time>2025-06-30T09:10:02Z</time>
      </trkpt>
      <trkpt lat="48.62429" lon="-3.85744">
        <ele>6</ele>
        <time>2025-06-30T09:10:03Z</time>
      </trkpt>
      <trkpt lat="48.6242" lon="-3.85743">
        <ele>6</ele>
        <time>2025-06-30T09:10:04Z</time>
      </trkpt>
      <trkpt lat="48.62411" lon="-3.85742">
        <ele>6</ele>
        <time>2025-06-30T09:10:05Z</time>
      </trkpt>
      <trkpt lat="48.62402" lon="-3.8574">
        <ele>6</ele>
        <time>2025-06-30T09:10:06Z</time>
      </trkpt>
      <trkpt lat="48.62392" lon="-3.85738">
        <ele>6</ele>
        <time>2025-06-30T09:10:07Z</time>
      </trkpt>
      <trkpt lat="48.62383" lon="-3.85735">
        <ele>6</ele>
        <time>2025-06-30T09:10:08Z</time>
      </trkpt>
      <trkpt lat="48.62374" lon="-3.85734">
        <ele>6</ele>
        <time>2025-06-30T09:10:09Z</time>
      </trkpt>
      <trkpt lat="48.62365" lon="-3.85732">
        <ele>6</ele>
        <time>2025-06-30T09:10:10Z</time>
      </trkpt>
      <trkpt lat="48.62356" lon="-3.8573">
        <ele>6</ele>
        <time>2025-06-30T09:10:11Z</time>
      </trkpt>
      <trkpt lat="48.62347" lon="-3.85727">
        <ele>6</ele>
        <time>2025-06-30T09:10:12Z</time>
      </trkpt>
      <trkpt lat="48.62329" lon="-3.85724">
        <ele>6</ele>
        <time>2025-06-30T09:10:14Z</time>
      </trkpt>
      <trkpt lat="48.62312" lon="-3.85721">
        <ele>6</ele>
        <time>2025-06-30T09:10:16Z</time>
      </trkpt>
      <trkpt lat="48.62294" lon="-3.85721">
        <ele>5.9</ele>
        <time>2025-06-30T09:10:18Z</time>
      </trkpt>
      <trkpt lat="48.62277" lon="-3.85723">
        <ele>5.9</ele>
        <time>2025-06-30T09:10:20Z</time>
      </trkpt>
      <trkpt lat="48.6226" lon="-3.85723">
        <ele>6</ele>
        <time>2025-06-30T09:10:22Z</time>
      </trkpt>
      <trkpt lat="48.62243" lon="-3.85721">
        <ele>6</ele>
        <time>2025-06-30T09:10:24Z</time>
      </trkpt>
      <trkpt lat="48.62226" lon="-3.85716">
        <ele>6</ele>
        <time>2025-06-30T09:10:26Z</time>
      </trkpt>
      <trkpt lat="48.62209" lon="-3.85712">
        <ele>6.1</ele>
        <time>2025-06-30T09:10:28Z</time>
      </trkpt>
      <trkpt lat="48.62193" lon="-3.85707">
        <ele>6.1</ele>
        <time>2025-06-30T09:10:30Z</time>
      </trkpt>
      <trkpt lat="48.62176" lon="-3.85701">
        <ele>6.1</ele>
        <time>2025-06-30T09:10:32Z</time>
      </trkpt>
      <trkpt lat="48.6216" lon="-3.85695">
        <ele>6.1</ele>
        <time>2025-06-30T09:10:34Z</time>
      </trkpt>
      <trkpt lat="48.62144" lon="-3.8569">
        <ele>6.1</ele>
        <time>2025-06-30T09:10:36Z</time>
      </trkpt>
      <trkpt lat="48.62127" lon="-3.85687">
        <ele>6.2</ele>
        <time>2025-06-30T09:10:38Z</time>
      </trkpt>
      <trkpt lat="48.6211" lon="-3.85684">
        <ele>6.2</ele>
        <time>2025-06-30T09:10:40Z</time>
      </trkpt>
      <trkpt lat="48.62093" lon="-3.85683">
        <ele>6.2</ele>
        <time>2025-06-30T09:10:42Z</time>
      </trkpt>
      <trkpt lat="48.62077" lon="-3.85682">
        <ele>6.3</ele>
        <time>2025-06-30T09:10:44Z</time>
      </trkpt>
      <trkpt lat="48.6206" lon="-3.85681">
        <ele>6.4</ele>
        <time>2025-06-30T09:10:46Z</time>
      </trkpt>
      <trkpt lat="48.62043" lon="-3.8568">
        <ele>6.3</ele>
        <time>2025-06-30T09:10:48Z</time>
      </trkpt>
      <trkpt lat="48.62027" lon="-3.85678">
        <ele>6.2</ele>
        <time>2025-06-30T09:10:50Z</time>
      </trkpt>
      <trkpt lat="48.6201" lon="-3.85684">
        <ele>6.2</ele>
        <time>2025-06-30T09:10:52Z</time>
      </trkpt>
      <trkpt lat="48.61992" lon="-3.85689">
        <ele>6.1</ele>
        <time>2025-06-30T09:10:54Z</time>
      </trkpt>
      <trkpt lat="48.61984" lon="-3.85694">
        <ele>6.1</ele>
        <time>2025-06-30T09:10:55Z</time>
      </trkpt>
      <trkpt lat="48.61968" lon="-3.85705">
        <ele>6.1</ele>
        <time>2025-06-30T09:10:57Z</time>
      </trkpt>
      <trkpt lat="48.6196" lon="-3.85712">
        <ele>6.1</ele>
        <time>2025-06-30T09:10:58Z</time>
      </trkpt>
      <trkpt lat="48.61952" lon="-3.85719">
        <ele>6.1</ele>
        <time>2025-06-30T09:10:59Z</time>
      </trkpt>
      <trkpt lat="48.61944" lon="-3.85725">
        <ele>6.1</ele>
        <time>2025-06-30T09:11:00Z</time>
      </trkpt>
      <trkpt lat="48.61936" lon="-3.85732">
        <ele>6.1</ele>
        <time>2025-06-30T09:11:01Z</time>
      </trkpt>
      <trkpt lat="48.61928" lon="-3.85738">
        <ele>6.2</ele>
        <time>2025-06-30T09:11:02Z</time>
      </trkpt>
      <trkpt lat="48.6192" lon="-3.85745">
        <ele>6.2</ele>
        <time>2025-06-30T09:11:03Z</time>
      </trkpt>
      <trkpt lat="48.61905" lon="-3.85758">
        <ele>6.3</ele>
        <time>2025-06-30T09:11:05Z</time>
      </trkpt>
      <trkpt lat="48.61889" lon="-3.85772">
        <ele>6.4</ele>
        <time>2025-06-30T09:11:07Z</time>
      </trkpt>
      <trkpt lat="48.61874" lon="-3.85787">
        <ele>6.4</ele>
        <time>2025-06-30T09:11:09Z</time>
      </trkpt>
      <trkpt lat="48.6186" lon="-3.85803">
        <ele>6.3</ele>
        <time>2025-06-30T09:11:11Z</time>
      </trkpt>
      <trkpt lat="48.61846" lon="-3.85821">
        <ele>6.2</ele>
        <time>2025-06-30T09:11:13Z</time>
      </trkpt>
      <trkpt lat="48.61839" lon="-3.8583">
        <ele>6.1</ele>
        <time>2025-06-30T09:11:14Z</time>
      </trkpt>
      <trkpt lat="48.61832" lon="-3.85838">
        <ele>6</ele>
        <time>2025-06-30T09:11:15Z</time>
      </trkpt>
      <trkpt lat="48.61825" lon="-3.85847">
        <ele>6</ele>
        <time>2025-06-30T09:11:16Z</time>
      </trkpt>
      <trkpt lat="48.61818" lon="-3.85856">
        <ele>6</ele>
        <time>2025-06-30T09:11:17Z</time>
      </trkpt>
      <trkpt lat="48.61811" lon="-3.85866">
        <ele>6</ele>
        <time>2025-06-30T09:11:18Z</time>
      </trkpt>
      <trkpt lat="48.61804" lon="-3.85874">
        <ele>6</ele>
        <time>2025-06-30T09:11:19Z</time>
      </trkpt>
      <trkpt lat="48.61797" lon="-3.85883">
        <ele>6.1</ele>
        <time>2025-06-30T09:11:20Z</time>
      </trkpt>
      <trkpt lat="48.6179" lon="-3.85892">
        <ele>6.1</ele>
        <time>2025-06-30T09:11:21Z</time>
      </trkpt>
      <trkpt lat="48.61783" lon="-3.85902">
        <ele>6.1</ele>
        <time>2025-06-30T09:11:22Z</time>
      </trkpt>
      <trkpt lat="48.61777" lon="-3.85911">
        <ele>6.1</ele>
        <time>2025-06-30T09:11:23Z</time>
      </trkpt>
      <trkpt lat="48.6177" lon="-3.85921">
        <ele>6.1</ele>
        <time>2025-06-30T09:11:24Z</time>
      </trkpt>
      <trkpt lat="48.61763" lon="-3.85931">
        <ele>6.1</ele>
        <time>2025-06-30T09:11:25Z</time>
      </trkpt>
      <trkpt lat="48.61757" lon="-3.85939">
        <ele>6.1</ele>
        <time>2025-06-30T09:11:26Z</time>
      </trkpt>
      <trkpt lat="48.61749" lon="-3.85947">
        <ele>6.1</ele>
        <time>2025-06-30T09:11:27Z</time>
      </trkpt>
      <trkpt lat="48.61732" lon="-3.85958">
        <ele>6.1</ele>
        <time>2025-06-30T09:11:29Z</time>
      </trkpt>
      <trkpt lat="48.61724" lon="-3.85961">
        <ele>6.1</ele>
        <time>2025-06-30T09:11:30Z</time>
      </trkpt>
      <trkpt lat="48.61714" lon="-3.85964">
        <ele>6.1</ele>
        <time>2025-06-30T09:11:31Z</time>
      </trkpt>
      <trkpt lat="48.61706" lon="-3.85967">
        <ele>6.1</ele>
        <time>2025-06-30T09:11:32Z</time>
      </trkpt>
      <trkpt lat="48.61697" lon="-3.85972">
        <ele>6.1</ele>
        <time>2025-06-30T09:11:33Z</time>
      </trkpt>
      <trkpt lat="48.61689" lon="-3.85978">
        <ele>6.1</ele>
        <time>2025-06-30T09:11:34Z</time>
      </trkpt>
      <trkpt lat="48.61681" lon="-3.85986">
        <ele>6.1</ele>
        <time>2025-06-30T09:11:35Z</time>
      </trkpt>
      <trkpt lat="48.61673" lon="-3.85994">
        <ele>6.1</ele>
        <time>2025-06-30T09:11:36Z</time>
      </trkpt>
      <trkpt lat="48.61666" lon="-3.86002">
        <ele>6.1</ele>
        <time>2025-06-30T09:11:37Z</time>
      </trkpt>
      <trkpt lat="48.61659" lon="-3.86011">
        <ele>6.1</ele>
        <time>2025-06-30T09:11:38Z</time>
      </trkpt>
      <trkpt lat="48.61652" lon="-3.86021">
        <ele>6.1</ele>
        <time>2025-06-30T09:11:39Z</time>
      </trkpt>
      <trkpt lat="48.61646" lon="-3.86031">
        <ele>6.1</ele>
        <time>2025-06-30T09:11:40Z</time>
      </trkpt>
      <trkpt lat="48.6164" lon="-3.86041">
        <ele>6.1</ele>
        <time>2025-06-30T09:11:41Z</time>
      </trkpt>
      <trkpt lat="48.61632" lon="-3.8605">
        <ele>6</ele>
        <time>2025-06-30T09:11:42Z</time>
      </trkpt>
      <trkpt lat="48.61625" lon="-3.86058">
        <ele>5.9</ele>
        <time>2025-06-30T09:11:43Z</time>
      </trkpt>
      <trkpt lat="48.61617" lon="-3.86066">
        <ele>5.9</ele>
        <time>2025-06-30T09:11:44Z</time>
      </trkpt>
      <trkpt lat="48.61609" lon="-3.86074">
        <ele>5.9</ele>
        <time>2025-06-30T09:11:45Z</time>
      </trkpt>
      <trkpt lat="48.61601" lon="-3.86081">
        <ele>5.9</ele>
        <time>2025-06-30T09:11:46Z</time>
      </trkpt>
      <trkpt lat="48.61593" lon="-3.86089">
        <ele>5.9</ele>
        <time>2025-06-30T09:11:47Z</time>
      </trkpt>
      <trkpt lat="48.61586" lon="-3.86096">
        <ele>6</ele>
        <time>2025-06-30T09:11:48Z</time>
      </trkpt>
      <trkpt lat="48.61578" lon="-3.86103">
        <ele>6</ele>
        <time>2025-06-30T09:11:49Z</time>
      </trkpt>
      <trkpt lat="48.6157" lon="-3.8611">
        <ele>6.1</ele>
        <time>2025-06-30T09:11:50Z</time>
      </trkpt>
      <trkpt lat="48.61562" lon="-3.86117">
        <ele>6.1</ele>
        <time>2025-06-30T09:11:51Z</time>
      </trkpt>
      <trkpt lat="48.61554" lon="-3.86123">
        <ele>6.2</ele>
        <time>2025-06-30T09:11:52Z</time>
      </trkpt>
      <trkpt lat="48.61545" lon="-3.86127">
        <ele>6.2</ele>
        <time>2025-06-30T09:11:53Z</time>
      </trkpt>
      <trkpt lat="48.61536" lon="-3.86131">
        <ele>6.2</ele>
        <time>2025-06-30T09:11:54Z</time>
      </trkpt>
      <trkpt lat="48.61527" lon="-3.86133">
        <ele>6.3</ele>
        <time>2025-06-30T09:11:55Z</time>
      </trkpt>
      <trkpt lat="48.61518" lon="-3.86135">
        <ele>6.3</ele>
        <time>2025-06-30T09:11:56Z</time>
      </trkpt>
      <trkpt lat="48.61509" lon="-3.86138">
        <ele>6.2</ele>
        <time>2025-06-30T09:11:57Z</time>
      </trkpt>
      <trkpt lat="48.615" lon="-3.86139">
        <ele>6.2</ele>
        <time>2025-06-30T09:11:58Z</time>
      </trkpt>
      <trkpt lat="48.61491" lon="-3.86142">
        <ele>6.2</ele>
        <time>2025-06-30T09:11:59Z</time>
      </trkpt>
      <trkpt lat="48.61482" lon="-3.86145">
        <ele>6.2</ele>
        <time>2025-06-30T09:12:00Z</time>
      </trkpt>
      <trkpt lat="48.61473" lon="-3.86151">
        <ele>6.2</ele>
        <time>2025-06-30T09:12:01Z</time>
      </trkpt>
      <trkpt lat="48.61466" lon="-3.86159">
        <ele>6.2</ele>
        <time>2025-06-30T09:12:02Z</time>
      </trkpt>
      <trkpt lat="48.61458" lon="-3.86167">
        <ele>6.2</ele>
        <time>2025-06-30T09:12:03Z</time>
      </trkpt>
      <trkpt lat="48.61451" lon="-3.86176">
        <ele>6.2</ele>
        <time>2025-06-30T09:12:04Z</time>
      </trkpt>
      <trkpt lat="48.61445" lon="-3.86185">
        <ele>6.2</ele>
        <time>2025-06-30T09:12:05Z</time>
      </trkpt>
      <trkpt lat="48.61437" lon="-3.86194">
        <ele>6.2</ele>
        <time>2025-06-30T09:12:06Z</time>
      </trkpt>
      <trkpt lat="48.61429" lon="-3.86201">
        <ele>6.2</ele>
        <time>2025-06-30T09:12:07Z</time>
      </trkpt>
      <trkpt lat="48.61421" lon="-3.86207">
        <ele>6.2</ele>
        <time>2025-06-30T09:12:08Z</time>
      </trkpt>
      <trkpt lat="48.61413" lon="-3.86213">
        <ele>6.2</ele>
        <time>2025-06-30T09:12:09Z</time>
      </trkpt>
      <trkpt lat="48.61404" lon="-3.86217">
        <ele>6.2</ele>
        <time>2025-06-30T09:12:10Z</time>
      </trkpt>
      <trkpt lat="48.61395" lon="-3.86222">
        <ele>6.2</ele>
        <time>2025-06-30T09:12:11Z</time>
      </trkpt>
      <trkpt lat="48.61387" lon="-3.86225">
        <ele>6.2</ele>
        <time>2025-06-30T09:12:12Z</time>
      </trkpt>
      <trkpt lat="48.61377" lon="-3.86228">
        <ele>6.2</ele>
        <time>2025-06-30T09:12:13Z</time>
      </trkpt>
      <trkpt lat="48.61368" lon="-3.86229">
        <ele>6.2</ele>
        <time>2025-06-30T09:12:14Z</time>
      </trkpt>
      <trkpt lat="48.61359" lon="-3.8623">
        <ele>6.1</ele>
        <time>2025-06-30T09:12:15Z</time>
      </trkpt>
      <trkpt lat="48.6135" lon="-3.8623">
        <ele>6.1</ele>
        <time>2025-06-30T09:12:16Z</time>
      </trkpt>
      <trkpt lat="48.61341" lon="-3.86229">
        <ele>6</ele>
        <time>2025-06-30T09:12:17Z</time>
      </trkpt>
      <trkpt lat="48.61331" lon="-3.86227">
        <ele>6</ele>
        <time>2025-06-30T09:12:18Z</time>
      </trkpt>
      <trkpt lat="48.61322" lon="-3.86225">
        <ele>5.9</ele>
        <time>2025-06-30T09:12:19Z</time>
      </trkpt>
      <trkpt lat="48.61312" lon="-3.86223">
        <ele>5.9</ele>
        <time>2025-06-30T09:12:20Z</time>
      </trkpt>
      <trkpt lat="48.61303" lon="-3.86221">
        <ele>5.9</ele>
        <time>2025-06-30T09:12:21Z</time>
      </trkpt>
      <trkpt lat="48.61294" lon="-3.86219">
        <ele>5.9</ele>
        <time>2025-06-30T09:12:22Z</time>
      </trkpt>
      <trkpt lat="48.61285" lon="-3.86215">
        <ele>6</ele>
        <time>2025-06-30T09:12:23Z</time>
      </trkpt>
      <trkpt lat="48.61276" lon="-3.8621">
        <ele>6</ele>
        <time>2025-06-30T09:12:24Z</time>
      </trkpt>
      <trkpt lat="48.61269" lon="-3.86202">
        <ele>6.1</ele>
        <time>2025-06-30T09:12:25Z</time>
      </trkpt>
      <trkpt lat="48.61257" lon="-3.86182">
        <ele>6.1</ele>
        <time>2025-06-30T09:12:27Z</time>
      </trkpt>
      <trkpt lat="48.61249" lon="-3.86159">
        <ele>6.1</ele>
        <time>2025-06-30T09:12:29Z</time>
      </trkpt>
      <trkpt lat="48.61241" lon="-3.86135">
        <ele>6.1</ele>
        <time>2025-06-30T09:12:31Z</time>
      </trkpt>
      <trkpt lat="48.61235" lon="-3.86125">
        <ele>6</ele>
        <time>2025-06-30T09:12:32Z</time>
      </trkpt>
      <trkpt lat="48.61227" lon="-3.86116">
        <ele>5.9</ele>
        <time>2025-06-30T09:12:33Z</time>
      </trkpt>
      <trkpt lat="48.61219" lon="-3.86108">
        <ele>5.9</ele>
        <time>2025-06-30T09:12:34Z</time>
      </trkpt>
      <trkpt lat="48.61211" lon="-3.86102">
        <ele>5.9</ele>
        <time>2025-06-30T09:12:35Z</time>
      </trkpt>
      <trkpt lat="48.61202" lon="-3.86097">
        <ele>5.9</ele>
        <time>2025-06-30T09:12:36Z</time>
      </trkpt>
      <trkpt lat="48.61193" lon="-3.86092">
        <ele>5.9</ele>
        <time>2025-06-30T09:12:37Z</time>
      </trkpt>
      <trkpt lat="48.61185" lon="-3.86086">
        <ele>6</ele>
        <time>2025-06-30T09:12:38Z</time>
      </trkpt>
      <trkpt lat="48.61177" lon="-3.86079">
        <ele>6.1</ele>
        <time>2025-06-30T09:12:39Z</time>
      </trkpt>
      <trkpt lat="48.61169" lon="-3.86072">
        <ele>6.1</ele>
        <time>2025-06-30T09:12:40Z</time>
      </trkpt>
      <trkpt lat="48.61161" lon="-3.86065">
        <ele>6.2</ele>
        <time>2025-06-30T09:12:41Z</time>
      </trkpt>
      <trkpt lat="48.61154" lon="-3.86056">
        <ele>6.3</ele>
        <time>2025-06-30T09:12:42Z</time>
      </trkpt>
      <trkpt lat="48.61146" lon="-3.86048">
        <ele>6.3</ele>
        <time>2025-06-30T09:12:43Z</time>
      </trkpt>
      <trkpt lat="48.61138" lon="-3.8604">
        <ele>6.4</ele>
        <time>2025-06-30T09:12:44Z</time>
      </trkpt>
      <trkpt lat="48.61131" lon="-3.86032">
        <ele>6.4</ele>
        <time>2025-06-30T09:12:45Z</time>
      </trkpt>
      <trkpt lat="48.61124" lon="-3.86024">
        <ele>6.5</ele>
        <time>2025-06-30T09:12:46Z</time>
      </trkpt>
      <trkpt lat="48.61116" lon="-3.86016">
        <ele>6.5</ele>
        <time>2025-06-30T09:12:47Z</time>
      </trkpt>
      <trkpt lat="48.61109" lon="-3.86007">
        <ele>6.5</ele>
        <time>2025-06-30T09:12:48Z</time>
      </trkpt>
      <trkpt lat="48.61102" lon="-3.85998">
        <ele>6.6</ele>
        <time>2025-06-30T09:12:49Z</time>
      </trkpt>
      <trkpt lat="48.61095" lon="-3.85988">
        <ele>6.6</ele>
        <time>2025-06-30T09:12:50Z</time>
      </trkpt>
      <trkpt lat="48.61088" lon="-3.85979">
        <ele>6.6</ele>
        <time>2025-06-30T09:12:51Z</time>
      </trkpt>
      <trkpt lat="48.6108" lon="-3.8597">
        <ele>6.6</ele>
        <time>2025-06-30T09:12:52Z</time>
      </trkpt>
      <trkpt lat="48.61073" lon="-3.85962">
        <ele>6.5</ele>
        <time>2025-06-30T09:12:53Z</time>
      </trkpt>
      <trkpt lat="48.61065" lon="-3.85953">
        <ele>6.5</ele>
        <time>2025-06-30T09:12:54Z</time>
      </trkpt>
      <trkpt lat="48.61057" lon="-3.85945">
        <ele>6.5</ele>
        <time>2025-06-30T09:12:55Z</time>
      </trkpt>
      <trkpt lat="48.6105" lon="-3.85937">
        <ele>6.5</ele>
        <time>2025-06-30T09:12:56Z</time>
      </trkpt>
      <trkpt lat="48.61042" lon="-3.85929">
        <ele>6.5</ele>
        <time>2025-06-30T09:12:57Z</time>
      </trkpt>
      <trkpt lat="48.61034" lon="-3.85921">
        <ele>6.5</ele>
        <time>2025-06-30T09:12:58Z</time>
      </trkpt>
      <trkpt lat="48.61026" lon="-3.85913">
        <ele>6.3</ele>
        <time>2025-06-30T09:12:59Z</time>
      </trkpt>
      <trkpt lat="48.61017" lon="-3.85905">
        <ele>6.2</ele>
        <time>2025-06-30T09:13:00Z</time>
      </trkpt>
      <trkpt lat="48.61009" lon="-3.85898">
        <ele>6.1</ele>
        <time>2025-06-30T09:13:01Z</time>
      </trkpt>
      <trkpt lat="48.61001" lon="-3.85891">
        <ele>6</ele>
        <time>2025-06-30T09:13:02Z</time>
      </trkpt>
      <trkpt lat="48.60993" lon="-3.85883">
        <ele>5.9</ele>
        <time>2025-06-30T09:13:03Z</time>
      </trkpt>
      <trkpt lat="48.60985" lon="-3.85875">
        <ele>5.8</ele>
        <time>2025-06-30T09:13:04Z</time>
      </trkpt>
      <trkpt lat="48.60977" lon="-3.85867">
        <ele>5.7</ele>
        <time>2025-06-30T09:13:05Z</time>
      </trkpt>
      <trkpt lat="48.60969" lon="-3.8586">
        <ele>5.6</ele>
        <time>2025-06-30T09:13:06Z</time>
      </trkpt>
      <trkpt lat="48.60961" lon="-3.85853">
        <ele>5.5</ele>
        <time>2025-06-30T09:13:07Z</time>
      </trkpt>
      <trkpt lat="48.60953" lon="-3.85845">
        <ele>5.4</ele>
        <time>2025-06-30T09:13:08Z</time>
      </trkpt>
      <trkpt lat="48.60945" lon="-3.85837">
        <ele>5.3</ele>
        <time>2025-06-30T09:13:09Z</time>
      </trkpt>
      <trkpt lat="48.60937" lon="-3.85829">
        <ele>5.3</ele>
        <time>2025-06-30T09:13:10Z</time>
      </trkpt>
      <trkpt lat="48.60924" lon="-3.85817">
        <ele>5.4</ele>
        <time>2025-06-30T09:13:12Z</time>
      </trkpt>
      <trkpt lat="48.60914" lon="-3.85807">
        <ele>5.5</ele>
        <time>2025-06-30T09:13:14Z</time>
      </trkpt>
      <trkpt lat="48.60905" lon="-3.85796">
        <ele>5.9</ele>
        <time>2025-06-30T09:13:17Z</time>
      </trkpt>
      <trkpt lat="48.60897" lon="-3.85791">
        <ele>6.2</ele>
        <time>2025-06-30T09:13:20Z</time>
      </trkpt>
      <trkpt lat="48.60887" lon="-3.85788">
        <ele>6.6</ele>
        <time>2025-06-30T09:13:23Z</time>
      </trkpt>
      <trkpt lat="48.60878" lon="-3.85774">
        <ele>6.7</ele>
        <time>2025-06-30T09:13:26Z</time>
      </trkpt>
      <trkpt lat="48.60872" lon="-3.85761">
        <ele>6.7</ele>
        <time>2025-06-30T09:13:28Z</time>
      </trkpt>
      <trkpt lat="48.60866" lon="-3.85746">
        <ele>6.7</ele>
        <time>2025-06-30T09:13:30Z</time>
      </trkpt>
      <trkpt lat="48.60859" lon="-3.8573">
        <ele>6.7</ele>
        <time>2025-06-30T09:13:32Z</time>
      </trkpt>
      <trkpt lat="48.60853" lon="-3.85713">
        <ele>6.6</ele>
        <time>2025-06-30T09:13:34Z</time>
      </trkpt>
      <trkpt lat="48.60845" lon="-3.85696">
        <ele>6.5</ele>
        <time>2025-06-30T09:13:36Z</time>
      </trkpt>
      <trkpt lat="48.60838" lon="-3.85678">
        <ele>6.4</ele>
        <time>2025-06-30T09:13:38Z</time>
      </trkpt>
      <trkpt lat="48.6083" lon="-3.8566">
        <ele>6.3</ele>
        <time>2025-06-30T09:13:40Z</time>
      </trkpt>
      <trkpt lat="48.60818" lon="-3.85644">
        <ele>6.2</ele>
        <time>2025-06-30T09:13:42Z</time>
      </trkpt>
      <trkpt lat="48.60806" lon="-3.8563">
        <ele>6.1</ele>
        <time>2025-06-30T09:13:44Z</time>
      </trkpt>
      <trkpt lat="48.60793" lon="-3.85617">
        <ele>6.1</ele>
        <time>2025-06-30T09:13:46Z</time>
      </trkpt>
      <trkpt lat="48.60778" lon="-3.85604">
        <ele>6.1</ele>
        <time>2025-06-30T09:13:48Z</time>
      </trkpt>
      <trkpt lat="48.60762" lon="-3.85591">
        <ele>6</ele>
        <time>2025-06-30T09:13:50Z</time>
      </trkpt>
      <trkpt lat="48.60747" lon="-3.85576">
        <ele>6</ele>
        <time>2025-06-30T09:13:52Z</time>
      </trkpt>
      <trkpt lat="48.60732" lon="-3.85562">
        <ele>6</ele>
        <time>2025-06-30T09:13:54Z</time>
      </trkpt>
      <trkpt lat="48.60725" lon="-3.85554">
        <ele>6</ele>
        <time>2025-06-30T09:13:55Z</time>
      </trkpt>
      <trkpt lat="48.60718" lon="-3.85545">
        <ele>6</ele>
        <time>2025-06-30T09:13:56Z</time>
      </trkpt>
      <trkpt lat="48.60705" lon="-3.85527">
        <ele>6</ele>
        <time>2025-06-30T09:13:58Z</time>
      </trkpt>
      <trkpt lat="48.60699" lon="-3.85516">
        <ele>6</ele>
        <time>2025-06-30T09:13:59Z</time>
      </trkpt>
      <trkpt lat="48.6069" lon="-3.85493">
        <ele>6.1</ele>
        <time>2025-06-30T09:14:01Z</time>
      </trkpt>
      <trkpt lat="48.60682" lon="-3.85469">
        <ele>6.4</ele>
        <time>2025-06-30T09:14:03Z</time>
      </trkpt>
      <trkpt lat="48.60675" lon="-3.85446">
        <ele>6.6</ele>
        <time>2025-06-30T09:14:05Z</time>
      </trkpt>
      <trkpt lat="48.60667" lon="-3.85423">
        <ele>6.8</ele>
        <time>2025-06-30T09:14:07Z</time>
      </trkpt>
      <trkpt lat="48.60659" lon="-3.85401">
        <ele>6.9</ele>
        <time>2025-06-30T09:14:09Z</time>
      </trkpt>
      <trkpt lat="48.60649" lon="-3.8538">
        <ele>7</ele>
        <time>2025-06-30T09:14:11Z</time>
      </trkpt>
      <trkpt lat="48.60637" lon="-3.8536">
        <ele>7</ele>
        <time>2025-06-30T09:14:13Z</time>
      </trkpt>
      <trkpt lat="48.60625" lon="-3.85341">
        <ele>7</ele>
        <time>2025-06-30T09:14:15Z</time>
      </trkpt>
      <trkpt lat="48.60612" lon="-3.85321">
        <ele>7.1</ele>
        <time>2025-06-30T09:14:17Z</time>
      </trkpt>
      <trkpt lat="48.606" lon="-3.85302">
        <ele>7.2</ele>
        <time>2025-06-30T09:14:19Z</time>
      </trkpt>
      <trkpt lat="48.60588" lon="-3.85283">
        <ele>7.3</ele>
        <time>2025-06-30T09:14:21Z</time>
      </trkpt>
      <trkpt lat="48.60576" lon="-3.85264">
        <ele>7.4</ele>
        <time>2025-06-30T09:14:23Z</time>
      </trkpt>
      <trkpt lat="48.60564" lon="-3.85245">
        <ele>7.6</ele>
        <time>2025-06-30T09:14:25Z</time>
      </trkpt>
      <trkpt lat="48.60551" lon="-3.85228">
        <ele>7.8</ele>
        <time>2025-06-30T09:14:27Z</time>
      </trkpt>
      <trkpt lat="48.60536" lon="-3.85214">
        <ele>7.9</ele>
        <time>2025-06-30T09:14:29Z</time>
      </trkpt>
      <trkpt lat="48.60521" lon="-3.852">
        <ele>7.9</ele>
        <time>2025-06-30T09:14:31Z</time>
      </trkpt>
      <trkpt lat="48.60505" lon="-3.85187">
        <ele>8</ele>
        <time>2025-06-30T09:14:33Z</time>
      </trkpt>
      <trkpt lat="48.6049" lon="-3.85175">
        <ele>8</ele>
        <time>2025-06-30T09:14:35Z</time>
      </trkpt>
      <trkpt lat="48.60474" lon="-3.85162">
        <ele>8</ele>
        <time>2025-06-30T09:14:37Z</time>
      </trkpt>
      <trkpt lat="48.60459" lon="-3.8515">
        <ele>8.1</ele>
        <time>2025-06-30T09:14:39Z</time>
      </trkpt>
      <trkpt lat="48.60443" lon="-3.85138">
        <ele>8.3</ele>
        <time>2025-06-30T09:14:41Z</time>
      </trkpt>
      <trkpt lat="48.60427" lon="-3.85128">
        <ele>8.4</ele>
        <time>2025-06-30T09:14:43Z</time>
      </trkpt>
      <trkpt lat="48.6041" lon="-3.8512">
        <ele>8.5</ele>
        <time>2025-06-30T09:14:45Z</time>
      </trkpt>
      <trkpt lat="48.60394" lon="-3.85111">
        <ele>8.6</ele>
        <time>2025-06-30T09:14:47Z</time>
      </trkpt>
      <trkpt lat="48.60378" lon="-3.85104">
        <ele>8.6</ele>
        <time>2025-06-30T09:14:49Z</time>
      </trkpt>
      <trkpt lat="48.60362" lon="-3.85096">
        <ele>8.8</ele>
        <time>2025-06-30T09:14:51Z</time>
      </trkpt>
      <trkpt lat="48.60346" lon="-3.85088">
        <ele>8.9</ele>
        <time>2025-06-30T09:14:53Z</time>
      </trkpt>
      <trkpt lat="48.6033" lon="-3.85081">
        <ele>9.1</ele>
        <time>2025-06-30T09:14:55Z</time>
      </trkpt>
      <trkpt lat="48.60314" lon="-3.85072">
        <ele>9.3</ele>
        <time>2025-06-30T09:14:57Z</time>
      </trkpt>
      <trkpt lat="48.60298" lon="-3.85064">
        <ele>9.4</ele>
        <time>2025-06-30T09:14:59Z</time>
      </trkpt>
      <trkpt lat="48.60282" lon="-3.85057">
        <ele>9.4</ele>
        <time>2025-06-30T09:15:01Z</time>
      </trkpt>
      <trkpt lat="48.60266" lon="-3.85048">
        <ele>9.3</ele>
        <time>2025-06-30T09:15:03Z</time>
      </trkpt>
      <trkpt lat="48.60252" lon="-3.85036">
        <ele>9.2</ele>
        <time>2025-06-30T09:15:05Z</time>
      </trkpt>
      <trkpt lat="48.60238" lon="-3.85022">
        <ele>9.1</ele>
        <time>2025-06-30T09:15:07Z</time>
      </trkpt>
      <trkpt lat="48.60225" lon="-3.85006">
        <ele>8.9</ele>
        <time>2025-06-30T09:15:09Z</time>
      </trkpt>
      <trkpt lat="48.60213" lon="-3.84988">
        <ele>8.8</ele>
        <time>2025-06-30T09:15:11Z</time>
      </trkpt>
      <trkpt lat="48.60201" lon="-3.8497">
        <ele>8.6</ele>
        <time>2025-06-30T09:15:13Z</time>
      </trkpt>
      <trkpt lat="48.60191" lon="-3.8495">
        <ele>8.6</ele>
        <time>2025-06-30T09:15:15Z</time>
      </trkpt>
      <trkpt lat="48.60181" lon="-3.84928">
        <ele>8.6</ele>
        <time>2025-06-30T09:15:17Z</time>
      </trkpt>
      <trkpt lat="48.60173" lon="-3.84906">
        <ele>8.5</ele>
        <time>2025-06-30T09:15:19Z</time>
      </trkpt>
      <trkpt lat="48.60166" lon="-3.84882">
        <ele>8.4</ele>
        <time>2025-06-30T09:15:21Z</time>
      </trkpt>
      <trkpt lat="48.60159" lon="-3.84857">
        <ele>8.3</ele>
        <time>2025-06-30T09:15:23Z</time>
      </trkpt>
      <trkpt lat="48.60152" lon="-3.84832">
        <ele>8.2</ele>
        <time>2025-06-30T09:15:25Z</time>
      </trkpt>
      <trkpt lat="48.60146" lon="-3.84807">
        <ele>8.1</ele>
        <time>2025-06-30T09:15:27Z</time>
      </trkpt>
      <trkpt lat="48.6014" lon="-3.84782">
        <ele>8</ele>
        <time>2025-06-30T09:15:29Z</time>
      </trkpt>
      <trkpt lat="48.60133" lon="-3.84757">
        <ele>7.8</ele>
        <time>2025-06-30T09:15:31Z</time>
      </trkpt>
      <trkpt lat="48.60125" lon="-3.84732">
        <ele>7.6</ele>
        <time>2025-06-30T09:15:33Z</time>
      </trkpt>
      <trkpt lat="48.60116" lon="-3.84709">
        <ele>7.6</ele>
        <time>2025-06-30T09:15:35Z</time>
      </trkpt>
      <trkpt lat="48.60111" lon="-3.84698">
        <ele>7.5</ele>
        <time>2025-06-30T09:15:36Z</time>
      </trkpt>
      <trkpt lat="48.60106" lon="-3.84686">
        <ele>7.4</ele>
        <time>2025-06-30T09:15:37Z</time>
      </trkpt>
      <trkpt lat="48.60101" lon="-3.84675">
        <ele>7.3</ele>
        <time>2025-06-30T09:15:38Z</time>
      </trkpt>
      <trkpt lat="48.60091" lon="-3.84652">
        <ele>7.2</ele>
        <time>2025-06-30T09:15:40Z</time>
      </trkpt>
      <trkpt lat="48.60086" lon="-3.84641">
        <ele>7.2</ele>
        <time>2025-06-30T09:15:41Z</time>
      </trkpt>
      <trkpt lat="48.60076" lon="-3.84618">
        <ele>7</ele>
        <time>2025-06-30T09:15:43Z</time>
      </trkpt>
      <trkpt lat="48.60066" lon="-3.84595">
        <ele>6.9</ele>
        <time>2025-06-30T09:15:45Z</time>
      </trkpt>
      <trkpt lat="48.60056" lon="-3.84572">
        <ele>6.8</ele>
        <time>2025-06-30T09:15:47Z</time>
      </trkpt>
      <trkpt lat="48.60045" lon="-3.84551">
        <ele>6.7</ele>
        <time>2025-06-30T09:15:49Z</time>
      </trkpt>
      <trkpt lat="48.60033" lon="-3.84532">
        <ele>6.6</ele>
        <time>2025-06-30T09:15:51Z</time>
      </trkpt>
      <trkpt lat="48.60021" lon="-3.84515">
        <ele>6.6</ele>
        <time>2025-06-30T09:15:53Z</time>
      </trkpt>
      <trkpt lat="48.60008" lon="-3.84498">
        <ele>6.5</ele>
        <time>2025-06-30T09:15:55Z</time>
      </trkpt>
      <trkpt lat="48.59995" lon="-3.84483">
        <ele>6.5</ele>
        <time>2025-06-30T09:15:57Z</time>
      </trkpt>
      <trkpt lat="48.59982" lon="-3.84468">
        <ele>6.5</ele>
        <time>2025-06-30T09:15:59Z</time>
      </trkpt>
      <trkpt lat="48.5997" lon="-3.84453">
        <ele>6.5</ele>
        <time>2025-06-30T09:16:01Z</time>
      </trkpt>
      <trkpt lat="48.59957" lon="-3.84438">
        <ele>6.4</ele>
        <time>2025-06-30T09:16:03Z</time>
      </trkpt>
      <trkpt lat="48.59944" lon="-3.84424">
        <ele>6.4</ele>
        <time>2025-06-30T09:16:05Z</time>
      </trkpt>
      <trkpt lat="48.59931" lon="-3.8441">
        <ele>6.4</ele>
        <time>2025-06-30T09:16:07Z</time>
      </trkpt>
      <trkpt lat="48.59919" lon="-3.84396">
        <ele>6.4</ele>
        <time>2025-06-30T09:16:09Z</time>
      </trkpt>
      <trkpt lat="48.59906" lon="-3.84381">
        <ele>6.4</ele>
        <time>2025-06-30T09:16:11Z</time>
      </trkpt>
      <trkpt lat="48.59894" lon="-3.84367">
        <ele>6.4</ele>
        <time>2025-06-30T09:16:13Z</time>
      </trkpt>
      <trkpt lat="48.59881" lon="-3.84353">
        <ele>6.4</ele>
        <time>2025-06-30T09:16:15Z</time>
      </trkpt>
      <trkpt lat="48.59868" lon="-3.84339">
        <ele>6.5</ele>
        <time>2025-06-30T09:16:17Z</time>
      </trkpt>
      <trkpt lat="48.59856" lon="-3.84325">
        <ele>6.6</ele>
        <time>2025-06-30T09:16:19Z</time>
      </trkpt>
      <trkpt lat="48.59844" lon="-3.84311">
        <ele>6.6</ele>
        <time>2025-06-30T09:16:21Z</time>
      </trkpt>
      <trkpt lat="48.59832" lon="-3.84297">
        <ele>6.7</ele>
        <time>2025-06-30T09:16:23Z</time>
      </trkpt>
      <trkpt lat="48.5982" lon="-3.84283">
        <ele>6.8</ele>
        <time>2025-06-30T09:16:25Z</time>
      </trkpt>
      <trkpt lat="48.59809" lon="-3.8427">
        <ele>6.9</ele>
        <time>2025-06-30T09:16:27Z</time>
      </trkpt>
      <trkpt lat="48.59799" lon="-3.84258">
        <ele>7</ele>
        <time>2025-06-30T09:16:29Z</time>
      </trkpt>
      <trkpt lat="48.59789" lon="-3.84247">
        <ele>7.1</ele>
        <time>2025-06-30T09:16:31Z</time>
      </trkpt>
      <trkpt lat="48.59779" lon="-3.84236">
        <ele>7.1</ele>
        <time>2025-06-30T09:16:33Z</time>
      </trkpt>
      <trkpt lat="48.5977" lon="-3.84225">
        <ele>7.2</ele>
        <time>2025-06-30T09:16:35Z</time>
      </trkpt>
      <trkpt lat="48.5976" lon="-3.84214">
        <ele>7.3</ele>
        <time>2025-06-30T09:16:37Z</time>
      </trkpt>
      <trkpt lat="48.5975" lon="-3.84203">
        <ele>7.4</ele>
        <time>2025-06-30T09:16:39Z</time>
      </trkpt>
      <trkpt lat="48.59741" lon="-3.84192">
        <ele>7.5</ele>
        <time>2025-06-30T09:16:41Z</time>
      </trkpt>
      <trkpt lat="48.59731" lon="-3.84183">
        <ele>7.5</ele>
        <time>2025-06-30T09:16:43Z</time>
      </trkpt>
      <trkpt lat="48.59721" lon="-3.84176">
        <ele>7.5</ele>
        <time>2025-06-30T09:16:45Z</time>
      </trkpt>
      <trkpt lat="48.59711" lon="-3.84169">
        <ele>7.6</ele>
        <time>2025-06-30T09:16:47Z</time>
      </trkpt>
      <trkpt lat="48.59699" lon="-3.84164">
        <ele>7.6</ele>
        <time>2025-06-30T09:16:49Z</time>
      </trkpt>
      <trkpt lat="48.59687" lon="-3.8416">
        <ele>7.7</ele>
        <time>2025-06-30T09:16:51Z</time>
      </trkpt>
      <trkpt lat="48.59675" lon="-3.84159">
        <ele>7.8</ele>
        <time>2025-06-30T09:16:53Z</time>
      </trkpt>
      <trkpt lat="48.59662" lon="-3.84157">
        <ele>7.9</ele>
        <time>2025-06-30T09:16:55Z</time>
      </trkpt>
      <trkpt lat="48.59649" lon="-3.84157">
        <ele>8</ele>
        <time>2025-06-30T09:16:57Z</time>
      </trkpt>
      <trkpt lat="48.59635" lon="-3.84156">
        <ele>8.1</ele>
        <time>2025-06-30T09:16:59Z</time>
      </trkpt>
      <trkpt lat="48.59622" lon="-3.84156">
        <ele>8.1</ele>
        <time>2025-06-30T09:17:01Z</time>
      </trkpt>
      <trkpt lat="48.59609" lon="-3.84155">
        <ele>8.1</ele>
        <time>2025-06-30T09:17:03Z</time>
      </trkpt>
      <trkpt lat="48.59595" lon="-3.84155">
        <ele>8.1</ele>
        <time>2025-06-30T09:17:05Z</time>
      </trkpt>
      <trkpt lat="48.59581" lon="-3.84155">
        <ele>8.1</ele>
        <time>2025-06-30T09:17:07Z</time>
      </trkpt>
      <trkpt lat="48.59566" lon="-3.84154">
        <ele>8.1</ele>
        <time>2025-06-30T09:17:09Z</time>
      </trkpt>
      <trkpt lat="48.59552" lon="-3.84154">
        <ele>8.2</ele>
        <time>2025-06-30T09:17:11Z</time>
      </trkpt>
      <trkpt lat="48.59537" lon="-3.84153">
        <ele>8.2</ele>
        <time>2025-06-30T09:17:13Z</time>
      </trkpt>
      <trkpt lat="48.59522" lon="-3.84153">
        <ele>8.2</ele>
        <time>2025-06-30T09:17:15Z</time>
      </trkpt>
      <trkpt lat="48.59507" lon="-3.84153">
        <ele>8.2</ele>
        <time>2025-06-30T09:17:17Z</time>
      </trkpt>
      <trkpt lat="48.59492" lon="-3.84152">
        <ele>8.3</ele>
        <time>2025-06-30T09:17:19Z</time>
      </trkpt>
      <trkpt lat="48.59477" lon="-3.84152">
        <ele>8.2</ele>
        <time>2025-06-30T09:17:21Z</time>
      </trkpt>
      <trkpt lat="48.59462" lon="-3.84152">
        <ele>8.1</ele>
        <time>2025-06-30T09:17:23Z</time>
      </trkpt>
      <trkpt lat="48.59447" lon="-3.84151">
        <ele>8.1</ele>
        <time>2025-06-30T09:17:25Z</time>
      </trkpt>
      <trkpt lat="48.59432" lon="-3.84151">
        <ele>8.2</ele>
        <time>2025-06-30T09:17:27Z</time>
      </trkpt>
      <trkpt lat="48.59418" lon="-3.8415">
        <ele>8.2</ele>
        <time>2025-06-30T09:17:29Z</time>
      </trkpt>
      <trkpt lat="48.59403" lon="-3.8415">
        <ele>8.3</ele>
        <time>2025-06-30T09:17:31Z</time>
      </trkpt>
      <trkpt lat="48.59387" lon="-3.84149">
        <ele>8.3</ele>
        <time>2025-06-30T09:17:33Z</time>
      </trkpt>
      <trkpt lat="48.59372" lon="-3.84149">
        <ele>8.3</ele>
        <time>2025-06-30T09:17:35Z</time>
      </trkpt>
      <trkpt lat="48.59357" lon="-3.84148">
        <ele>8.2</ele>
        <time>2025-06-30T09:17:37Z</time>
      </trkpt>
      <trkpt lat="48.59341" lon="-3.84148">
        <ele>8.2</ele>
        <time>2025-06-30T09:17:39Z</time>
      </trkpt>
      <trkpt lat="48.59325" lon="-3.84146">
        <ele>8.1</ele>
        <time>2025-06-30T09:17:41Z</time>
      </trkpt>
      <trkpt lat="48.5931" lon="-3.84146">
        <ele>8</ele>
        <time>2025-06-30T09:17:43Z</time>
      </trkpt>
      <trkpt lat="48.59294" lon="-3.84145">
        <ele>7.8</ele>
        <time>2025-06-30T09:17:45Z</time>
      </trkpt>
      <trkpt lat="48.59278" lon="-3.84143">
        <ele>7.8</ele>
        <time>2025-06-30T09:17:47Z</time>
      </trkpt>
      <trkpt lat="48.59262" lon="-3.84139">
        <ele>7.7</ele>
        <time>2025-06-30T09:17:49Z</time>
      </trkpt>
      <trkpt lat="48.59247" lon="-3.84131">
        <ele>7.8</ele>
        <time>2025-06-30T09:17:51Z</time>
      </trkpt>
      <trkpt lat="48.59232" lon="-3.84122">
        <ele>7.9</ele>
        <time>2025-06-30T09:17:53Z</time>
      </trkpt>
      <trkpt lat="48.59218" lon="-3.84112">
        <ele>8.1</ele>
        <time>2025-06-30T09:17:55Z</time>
      </trkpt>
      <trkpt lat="48.59204" lon="-3.84102">
        <ele>8.2</ele>
        <time>2025-06-30T09:17:57Z</time>
      </trkpt>
      <trkpt lat="48.59189" lon="-3.84092">
        <ele>8.3</ele>
        <time>2025-06-30T09:17:59Z</time>
      </trkpt>
      <trkpt lat="48.59174" lon="-3.84082">
        <ele>8.4</ele>
        <time>2025-06-30T09:18:01Z</time>
      </trkpt>
      <trkpt lat="48.5916" lon="-3.84071">
        <ele>8.5</ele>
        <time>2025-06-30T09:18:03Z</time>
      </trkpt>
      <trkpt lat="48.59144" lon="-3.84061">
        <ele>8.6</ele>
        <time>2025-06-30T09:18:05Z</time>
      </trkpt>
      <trkpt lat="48.59129" lon="-3.8405">
        <ele>8.7</ele>
        <time>2025-06-30T09:18:07Z</time>
      </trkpt>
      <trkpt lat="48.59113" lon="-3.8404">
        <ele>8.8</ele>
        <time>2025-06-30T09:18:09Z</time>
      </trkpt>
      <trkpt lat="48.59099" lon="-3.84029">
        <ele>8.9</ele>
        <time>2025-06-30T09:18:11Z</time>
      </trkpt>
      <trkpt lat="48.59084" lon="-3.84019">
        <ele>9</ele>
        <time>2025-06-30T09:18:13Z</time>
      </trkpt>
      <trkpt lat="48.59069" lon="-3.84008">
        <ele>9.1</ele>
        <time>2025-06-30T09:18:15Z</time>
      </trkpt>
      <trkpt lat="48.59055" lon="-3.83998">
        <ele>9.2</ele>
        <time>2025-06-30T09:18:17Z</time>
      </trkpt>
      <trkpt lat="48.59041" lon="-3.83988">
        <ele>9.3</ele>
        <time>2025-06-30T09:18:19Z</time>
      </trkpt>
      <trkpt lat="48.59026" lon="-3.83979">
        <ele>9.4</ele>
        <time>2025-06-30T09:18:21Z</time>
      </trkpt>
      <trkpt lat="48.59012" lon="-3.8397">
        <ele>9.4</ele>
        <time>2025-06-30T09:18:23Z</time>
      </trkpt>
      <trkpt lat="48.58998" lon="-3.8396">
        <ele>9.5</ele>
        <time>2025-06-30T09:18:25Z</time>
      </trkpt>
      <trkpt lat="48.58984" lon="-3.8395">
        <ele>9.5</ele>
        <time>2025-06-30T09:18:27Z</time>
      </trkpt>
      <trkpt lat="48.58972" lon="-3.83939">
        <ele>9.5</ele>
        <time>2025-06-30T09:18:29Z</time>
      </trkpt>
      <trkpt lat="48.58958" lon="-3.8393">
        <ele>9.5</ele>
        <time>2025-06-30T09:18:31Z</time>
      </trkpt>
      <trkpt lat="48.58944" lon="-3.83922">
        <ele>9.4</ele>
        <time>2025-06-30T09:18:33Z</time>
      </trkpt>
      <trkpt lat="48.5893" lon="-3.83914">
        <ele>9.4</ele>
        <time>2025-06-30T09:18:35Z</time>
      </trkpt>
      <trkpt lat="48.58917" lon="-3.83905">
        <ele>9.4</ele>
        <time>2025-06-30T09:18:37Z</time>
      </trkpt>
      <trkpt lat="48.58903" lon="-3.83897">
        <ele>9.3</ele>
        <time>2025-06-30T09:18:39Z</time>
      </trkpt>
      <trkpt lat="48.58889" lon="-3.83889">
        <ele>9.3</ele>
        <time>2025-06-30T09:18:41Z</time>
      </trkpt>
      <trkpt lat="48.58875" lon="-3.83881">
        <ele>9.3</ele>
        <time>2025-06-30T09:18:43Z</time>
      </trkpt>
      <trkpt lat="48.58861" lon="-3.83873">
        <ele>9.2</ele>
        <time>2025-06-30T09:18:45Z</time>
      </trkpt>
      <trkpt lat="48.58846" lon="-3.83865">
        <ele>9.2</ele>
        <time>2025-06-30T09:18:47Z</time>
      </trkpt>
      <trkpt lat="48.58832" lon="-3.83858">
        <ele>9.2</ele>
        <time>2025-06-30T09:18:49Z</time>
      </trkpt>
      <trkpt lat="48.58819" lon="-3.83849">
        <ele>9.1</ele>
        <time>2025-06-30T09:18:51Z</time>
      </trkpt>
      <trkpt lat="48.58804" lon="-3.83842">
        <ele>9.1</ele>
        <time>2025-06-30T09:18:53Z</time>
      </trkpt>
      <trkpt lat="48.5879" lon="-3.83835">
        <ele>9</ele>
        <time>2025-06-30T09:18:55Z</time>
      </trkpt>
      <trkpt lat="48.58776" lon="-3.83827">
        <ele>8.9</ele>
        <time>2025-06-30T09:18:57Z</time>
      </trkpt>
      <trkpt lat="48.58762" lon="-3.83819">
        <ele>8.9</ele>
        <time>2025-06-30T09:18:59Z</time>
      </trkpt>
      <trkpt lat="48.58748" lon="-3.83811">
        <ele>8.8</ele>
        <time>2025-06-30T09:19:01Z</time>
      </trkpt>
      <trkpt lat="48.58734" lon="-3.83802">
        <ele>8.7</ele>
        <time>2025-06-30T09:19:03Z</time>
      </trkpt>
      <trkpt lat="48.58721" lon="-3.83794">
        <ele>8.6</ele>
        <time>2025-06-30T09:19:05Z</time>
      </trkpt>
      <trkpt lat="48.58708" lon="-3.83784">
        <ele>8.5</ele>
        <time>2025-06-30T09:19:07Z</time>
      </trkpt>
      <trkpt lat="48.58696" lon="-3.83775">
        <ele>8.4</ele>
        <time>2025-06-30T09:19:09Z</time>
      </trkpt>
      <trkpt lat="48.58685" lon="-3.83765">
        <ele>8.4</ele>
        <time>2025-06-30T09:19:11Z</time>
      </trkpt>
      <trkpt lat="48.58674" lon="-3.83754">
        <ele>8.3</ele>
        <time>2025-06-30T09:19:13Z</time>
      </trkpt>
      <trkpt lat="48.58662" lon="-3.83746">
        <ele>8.2</ele>
        <time>2025-06-30T09:19:15Z</time>
      </trkpt>
      <trkpt lat="48.58649" lon="-3.83738">
        <ele>8.1</ele>
        <time>2025-06-30T09:19:17Z</time>
      </trkpt>
      <trkpt lat="48.58636" lon="-3.83729">
        <ele>8</ele>
        <time>2025-06-30T09:19:19Z</time>
      </trkpt>
      <trkpt lat="48.58623" lon="-3.83721">
        <ele>8</ele>
        <time>2025-06-30T09:19:21Z</time>
      </trkpt>
      <trkpt lat="48.58609" lon="-3.83714">
        <ele>8</ele>
        <time>2025-06-30T09:19:23Z</time>
      </trkpt>
      <trkpt lat="48.58594" lon="-3.83711">
        <ele>8</ele>
        <time>2025-06-30T09:19:25Z</time>
      </trkpt>
      <trkpt lat="48.5858" lon="-3.8371">
        <ele>8</ele>
        <time>2025-06-30T09:19:27Z</time>
      </trkpt>
      <trkpt lat="48.58565" lon="-3.83709">
        <ele>8.1</ele>
        <time>2025-06-30T09:19:29Z</time>
      </trkpt>
      <trkpt lat="48.58551" lon="-3.83703">
        <ele>8.1</ele>
        <time>2025-06-30T09:19:31Z</time>
      </trkpt>
      <trkpt lat="48.58538" lon="-3.83693">
        <ele>8.2</ele>
        <time>2025-06-30T09:19:33Z</time>
      </trkpt>
      <trkpt lat="48.58527" lon="-3.83682">
        <ele>8.3</ele>
        <time>2025-06-30T09:19:35Z</time>
      </trkpt>
      <trkpt lat="48.58516" lon="-3.83671">
        <ele>8.4</ele>
        <time>2025-06-30T09:19:37Z</time>
      </trkpt>
      <trkpt lat="48.58504" lon="-3.83664">
        <ele>8.5</ele>
        <time>2025-06-30T09:19:39Z</time>
      </trkpt>
      <trkpt lat="48.58494" lon="-3.83661">
        <ele>8.7</ele>
        <time>2025-06-30T09:19:41Z</time>
      </trkpt>
      <trkpt lat="48.58485" lon="-3.83668">
        <ele>9.1</ele>
        <time>2025-06-30T09:19:44Z</time>
      </trkpt>
      <trkpt lat="48.58478" lon="-3.83678">
        <ele>9.8</ele>
        <time>2025-06-30T09:19:47Z</time>
      </trkpt>
      <trkpt lat="48.58469" lon="-3.83682">
        <ele>10.3</ele>
        <time>2025-06-30T09:19:50Z</time>
      </trkpt>
      <trkpt lat="48.58459" lon="-3.83684">
        <ele>10.9</ele>
        <time>2025-06-30T09:19:54Z</time>
      </trkpt>
      <trkpt lat="48.58448" lon="-3.83685">
        <ele>11.5</ele>
        <time>2025-06-30T09:20:00Z</time>
      </trkpt>
      <trkpt lat="48.5846" lon="-3.83682">
        <ele>10.8</ele>
        <time>2025-06-30T09:20:13Z</time>
      </trkpt>
      <trkpt lat="48.58472" lon="-3.83676">
        <ele>10.1</ele>
        <time>2025-06-30T09:20:16Z</time>
      </trkpt>
      <trkpt lat="48.58482" lon="-3.83669">
        <ele>9.4</ele>
        <time>2025-06-30T09:20:19Z</time>
      </trkpt>
      <trkpt lat="48.58487" lon="-3.83656">
        <ele>8.7</ele>
        <time>2025-06-30T09:20:23Z</time>
      </trkpt>
      <trkpt lat="48.58491" lon="-3.83643">
        <ele>8.7</ele>
        <time>2025-06-30T09:20:32Z</time>
      </trkpt>
      <trkpt lat="48.58497" lon="-3.83654">
        <ele>8.7</ele>
        <time>2025-06-30T09:20:37Z</time>
      </trkpt>
      <trkpt lat="48.58489" lon="-3.83658">
        <ele>8.7</ele>
        <time>2025-06-30T09:20:42Z</time>
      </trkpt>
      <trkpt lat="48.58484" lon="-3.83646">
        <ele>8.7</ele>
        <time>2025-06-30T09:20:47Z</time>
      </trkpt>
      <trkpt lat="48.58475" lon="-3.83639">
        <ele>8.7</ele>
        <time>2025-06-30T09:20:51Z</time>
      </trkpt>
      <trkpt lat="48.58464" lon="-3.8363">
        <ele>8.7</ele>
        <time>2025-06-30T09:20:55Z</time>
      </trkpt>
      <trkpt lat="48.58455" lon="-3.83623">
        <ele>8.7</ele>
        <time>2025-06-30T09:20:58Z</time>
      </trkpt>
      <trkpt lat="48.58445" lon="-3.83624">
        <ele>8.6</ele>
        <time>2025-06-30T09:21:03Z</time>
      </trkpt>
      <trkpt lat="48.5844" lon="-3.83636">
        <ele>12.5</ele>
        <time>2025-06-30T09:21:06Z</time>
      </trkpt>
      <trkpt lat="48.58434" lon="-3.8365">
        <ele>12.5</ele>
        <time>2025-06-30T09:21:10Z</time>
      </trkpt>
      <trkpt lat="48.58425" lon="-3.83648">
        <ele>12.8</ele>
        <time>2025-06-30T09:21:13Z</time>
      </trkpt>
      <trkpt lat="48.58421" lon="-3.83635">
        <ele>12.9</ele>
        <time>2025-06-30T09:21:16Z</time>
      </trkpt>
      <trkpt lat="48.58415" lon="-3.83625">
        <ele>13</ele>
        <time>2025-06-30T09:21:19Z</time>
      </trkpt>
      <trkpt lat="48.58405" lon="-3.83623">
        <ele>13.1</ele>
        <time>2025-06-30T09:21:22Z</time>
      </trkpt>
      <trkpt lat="48.58395" lon="-3.83614">
        <ele>13.2</ele>
        <time>2025-06-30T09:21:26Z</time>
      </trkpt>
      <trkpt lat="48.58385" lon="-3.83607">
        <ele>13.1</ele>
        <time>2025-06-30T09:21:29Z</time>
      </trkpt>
      <trkpt lat="48.58377" lon="-3.83598">
        <ele>12.5</ele>
        <time>2025-06-30T09:21:32Z</time>
      </trkpt>
      <trkpt lat="48.58383" lon="-3.83586">
        <ele>11.7</ele>
        <time>2025-06-30T09:21:35Z</time>
      </trkpt>
      <trkpt lat="48.58387" lon="-3.83572">
        <ele>11.3</ele>
        <time>2025-06-30T09:21:38Z</time>
      </trkpt>
      <trkpt lat="48.58393" lon="-3.83557">
        <ele>10.7</ele>
        <time>2025-06-30T09:21:42Z</time>
      </trkpt>
      <trkpt lat="48.58399" lon="-3.83544">
        <ele>10.2</ele>
        <time>2025-06-30T09:21:45Z</time>
      </trkpt>
      <trkpt lat="48.58393" lon="-3.83532">
        <ele>9.8</ele>
        <time>2025-06-30T09:21:54Z</time>
      </trkpt>
      <trkpt lat="48.58383" lon="-3.83522">
        <ele>10</ele>
        <time>2025-06-30T09:21:57Z</time>
      </trkpt>
      <trkpt lat="48.58374" lon="-3.83515">
        <ele>10.3</ele>
        <time>2025-06-30T09:22:00Z</time>
      </trkpt>
      <trkpt lat="48.58367" lon="-3.83503">
        <ele>10.8</ele>
        <time>2025-06-30T09:22:04Z</time>
      </trkpt>
      <trkpt lat="48.58372" lon="-3.83491">
        <ele>10.9</ele>
        <time>2025-06-30T09:22:07Z</time>
      </trkpt>
      <trkpt lat="48.58376" lon="-3.83478">
        <ele>10.8</ele>
        <time>2025-06-30T09:22:11Z</time>
      </trkpt>
      <trkpt lat="48.58353" lon="-3.83447">
        <ele>11.2</ele>
        <time>2025-06-30T09:22:37Z</time>
      </trkpt>
      <trkpt lat="48.58343" lon="-3.83438">
        <ele>11.7</ele>
        <time>2025-06-30T09:22:40Z</time>
      </trkpt>
      <trkpt lat="48.58333" lon="-3.83429">
        <ele>10.4</ele>
        <time>2025-06-30T09:22:43Z</time>
      </trkpt>
      <trkpt lat="48.58321" lon="-3.8342">
        <ele>6.7</ele>
        <time>2025-06-30T09:22:46Z</time>
      </trkpt>
      <trkpt lat="48.58311" lon="-3.8341">
        <ele>6.7</ele>
        <time>2025-06-30T09:22:49Z</time>
      </trkpt>
      <trkpt lat="48.58301" lon="-3.83402">
        <ele>6.7</ele>
        <time>2025-06-30T09:22:52Z</time>
      </trkpt>
      <trkpt lat="48.58287" lon="-3.8339">
        <ele>6.7</ele>
        <time>2025-06-30T09:22:56Z</time>
      </trkpt>
      <trkpt lat="48.58279" lon="-3.83384">
        <ele>6.8</ele>
        <time>2025-06-30T09:22:58Z</time>
      </trkpt>
      <trkpt lat="48.58271" lon="-3.83376">
        <ele>6.8</ele>
        <time>2025-06-30T09:23:01Z</time>
      </trkpt>
      <trkpt lat="48.58262" lon="-3.83369">
        <ele>6.8</ele>
        <time>2025-06-30T09:23:04Z</time>
      </trkpt>
      <trkpt lat="48.58253" lon="-3.83361">
        <ele>6.8</ele>
        <time>2025-06-30T09:23:07Z</time>
      </trkpt>
      <trkpt lat="48.58244" lon="-3.83353">
        <ele>6.8</ele>
        <time>2025-06-30T09:23:10Z</time>
      </trkpt>
      <trkpt lat="48.58234" lon="-3.83345">
        <ele>6.8</ele>
        <time>2025-06-30T09:23:14Z</time>
      </trkpt>
      <trkpt lat="48.58226" lon="-3.83337">
        <ele>6.8</ele>
        <time>2025-06-30T09:23:19Z</time>
      </trkpt>
      <trkpt lat="48.58218" lon="-3.83331">
        <ele>6.8</ele>
        <time>2025-06-30T09:23:22Z</time>
      </trkpt>
      <trkpt lat="48.58209" lon="-3.83323">
        <ele>6.9</ele>
        <time>2025-06-30T09:23:25Z</time>
      </trkpt>
      <trkpt lat="48.582" lon="-3.83315">
        <ele>6.9</ele>
        <time>2025-06-30T09:23:28Z</time>
      </trkpt>
      <trkpt lat="48.58191" lon="-3.83307">
        <ele>6.9</ele>
        <time>2025-06-30T09:23:31Z</time>
      </trkpt>
      <trkpt lat="48.58181" lon="-3.83299">
        <ele>6.9</ele>
        <time>2025-06-30T09:23:35Z</time>
      </trkpt>
      <trkpt lat="48.58176" lon="-3.83287">
        <ele>7</ele>
        <time>2025-06-30T09:23:54Z</time>
      </trkpt>
      <trkpt lat="48.58172" lon="-3.83272">
        <ele>7.1</ele>
        <time>2025-06-30T09:23:57Z</time>
      </trkpt>
      <trkpt lat="48.58163" lon="-3.83258">
        <ele>7.1</ele>
        <time>2025-06-30T09:24:00Z</time>
      </trkpt>
      <trkpt lat="48.58157" lon="-3.83246">
        <ele>7.2</ele>
        <time>2025-06-30T09:24:02Z</time>
      </trkpt>
      <trkpt lat="48.58151" lon="-3.83233">
        <ele>7.3</ele>
        <time>2025-06-30T09:24:04Z</time>
      </trkpt>
      <trkpt lat="48.58146" lon="-3.8322">
        <ele>7.4</ele>
        <time>2025-06-30T09:24:06Z</time>
      </trkpt>
      <trkpt lat="48.58139" lon="-3.8321">
        <ele>7.4</ele>
        <time>2025-06-30T09:24:08Z</time>
      </trkpt>
      <trkpt lat="48.5813" lon="-3.83202">
        <ele>7.6</ele>
        <time>2025-06-30T09:24:10Z</time>
      </trkpt>
      <trkpt lat="48.58122" lon="-3.83189">
        <ele>7.9</ele>
        <time>2025-06-30T09:24:12Z</time>
      </trkpt>
      <trkpt lat="48.58113" lon="-3.83176">
        <ele>8.2</ele>
        <time>2025-06-30T09:24:14Z</time>
      </trkpt>
      <trkpt lat="48.58105" lon="-3.83163">
        <ele>8.4</ele>
        <time>2025-06-30T09:24:16Z</time>
      </trkpt>
      <trkpt lat="48.58096" lon="-3.8315">
        <ele>8.5</ele>
        <time>2025-06-30T09:24:18Z</time>
      </trkpt>
      <trkpt lat="48.58087" lon="-3.83136">
        <ele>8.6</ele>
        <time>2025-06-30T09:24:20Z</time>
      </trkpt>
      <trkpt lat="48.58078" lon="-3.83124">
        <ele>8.6</ele>
        <time>2025-06-30T09:24:22Z</time>
      </trkpt>
      <trkpt lat="48.58069" lon="-3.83111">
        <ele>8.6</ele>
        <time>2025-06-30T09:24:24Z</time>
      </trkpt>
      <trkpt lat="48.5806" lon="-3.83097">
        <ele>8.7</ele>
        <time>2025-06-30T09:24:26Z</time>
      </trkpt>
      <trkpt lat="48.5805" lon="-3.83085">
        <ele>8.7</ele>
        <time>2025-06-30T09:24:28Z</time>
      </trkpt>
      <trkpt lat="48.5804" lon="-3.83074">
        <ele>8.7</ele>
        <time>2025-06-30T09:24:30Z</time>
      </trkpt>
      <trkpt lat="48.58029" lon="-3.83064">
        <ele>8.8</ele>
        <time>2025-06-30T09:24:32Z</time>
      </trkpt>
      <trkpt lat="48.58018" lon="-3.83053">
        <ele>8.7</ele>
        <time>2025-06-30T09:24:34Z</time>
      </trkpt>
      <trkpt lat="48.58008" lon="-3.83043">
        <ele>8.7</ele>
        <time>2025-06-30T09:24:36Z</time>
      </trkpt>
      <trkpt lat="48.57999" lon="-3.83036">
        <ele>8.7</ele>
        <time>2025-06-30T09:24:38Z</time>
      </trkpt>
      <trkpt lat="48.57989" lon="-3.8303">
        <ele>8.7</ele>
        <time>2025-06-30T09:24:40Z</time>
      </trkpt>
      <trkpt lat="48.57977" lon="-3.83022">
        <ele>8.6</ele>
        <time>2025-06-30T09:24:42Z</time>
      </trkpt>
      <trkpt lat="48.57965" lon="-3.83015">
        <ele>8.6</ele>
        <time>2025-06-30T09:24:44Z</time>
      </trkpt>
      <trkpt lat="48.57952" lon="-3.83007">
        <ele>8.6</ele>
        <time>2025-06-30T09:24:46Z</time>
      </trkpt>
      <trkpt lat="48.57939" lon="-3.83001">
        <ele>8.6</ele>
        <time>2025-06-30T09:24:48Z</time>
      </trkpt>
      <trkpt lat="48.57927" lon="-3.82993">
        <ele>8.6</ele>
        <time>2025-06-30T09:24:50Z</time>
      </trkpt>
      <trkpt lat="48.57917" lon="-3.82983">
        <ele>8.6</ele>
        <time>2025-06-30T09:24:52Z</time>
      </trkpt>
      <trkpt lat="48.5791" lon="-3.8297">
        <ele>9.5</ele>
        <time>2025-06-30T09:24:54Z</time>
      </trkpt>
      <trkpt lat="48.57909" lon="-3.82956">
        <ele>10.4</ele>
        <time>2025-06-30T09:24:56Z</time>
      </trkpt>
      <trkpt lat="48.57915" lon="-3.82942">
        <ele>9.7</ele>
        <time>2025-06-30T09:24:58Z</time>
      </trkpt>
      <trkpt lat="48.57928" lon="-3.8294">
        <ele>8.7</ele>
        <time>2025-06-30T09:25:00Z</time>
      </trkpt>
      <trkpt lat="48.57939" lon="-3.82945">
        <ele>8.7</ele>
        <time>2025-06-30T09:25:02Z</time>
      </trkpt>
      <trkpt lat="48.57951" lon="-3.8295">
        <ele>8.7</ele>
        <time>2025-06-30T09:25:04Z</time>
      </trkpt>
      <trkpt lat="48.57962" lon="-3.82956">
        <ele>8.7</ele>
        <time>2025-06-30T09:25:06Z</time>
      </trkpt>
      <trkpt lat="48.57974" lon="-3.82965">
        <ele>8.6</ele>
        <time>2025-06-30T09:25:08Z</time>
      </trkpt>
      <trkpt lat="48.57985" lon="-3.82971">
        <ele>8.6</ele>
        <time>2025-06-30T09:25:10Z</time>
      </trkpt>
      <trkpt lat="48.57996" lon="-3.82977">
        <ele>8.6</ele>
        <time>2025-06-30T09:25:12Z</time>
      </trkpt>
      <trkpt lat="48.58008" lon="-3.82985">
        <ele>8.6</ele>
        <time>2025-06-30T09:25:14Z</time>
      </trkpt>
      <trkpt lat="48.5802" lon="-3.82993">
        <ele>8.6</ele>
        <time>2025-06-30T09:25:16Z</time>
      </trkpt>
      <trkpt lat="48.58033" lon="-3.83">
        <ele>8.7</ele>
        <time>2025-06-30T09:25:18Z</time>
      </trkpt>
      <trkpt lat="48.58047" lon="-3.83008">
        <ele>8.7</ele>
        <time>2025-06-30T09:25:20Z</time>
      </trkpt>
      <trkpt lat="48.5806" lon="-3.83017">
        <ele>8.8</ele>
        <time>2025-06-30T09:25:22Z</time>
      </trkpt>
      <trkpt lat="48.58071" lon="-3.83031">
        <ele>8.8</ele>
        <time>2025-06-30T09:25:24Z</time>
      </trkpt>
      <trkpt lat="48.58079" lon="-3.8305">
        <ele>8.8</ele>
        <time>2025-06-30T09:25:26Z</time>
      </trkpt>
      <trkpt lat="48.58091" lon="-3.83063">
        <ele>8.8</ele>
        <time>2025-06-30T09:25:28Z</time>
      </trkpt>
      <trkpt lat="48.58102" lon="-3.83079">
        <ele>8.8</ele>
        <time>2025-06-30T09:25:30Z</time>
      </trkpt>
      <trkpt lat="48.58114" lon="-3.83093">
        <ele>8.7</ele>
        <time>2025-06-30T09:25:32Z</time>
      </trkpt>
      <trkpt lat="48.58125" lon="-3.83108">
        <ele>8.7</ele>
        <time>2025-06-30T09:25:34Z</time>
      </trkpt>
      <trkpt lat="48.58135" lon="-3.83124">
        <ele>8.7</ele>
        <time>2025-06-30T09:25:36Z</time>
      </trkpt>
      <trkpt lat="48.58145" lon="-3.83141">
        <ele>8.3</ele>
        <time>2025-06-30T09:25:38Z</time>
      </trkpt>
      <trkpt lat="48.58151" lon="-3.83157">
        <ele>8</ele>
        <time>2025-06-30T09:25:40Z</time>
      </trkpt>
      <trkpt lat="48.5816" lon="-3.83165">
        <ele>7.8</ele>
        <time>2025-06-30T09:25:42Z</time>
      </trkpt>
      <trkpt lat="48.58165" lon="-3.8318">
        <ele>7.8</ele>
        <time>2025-06-30T09:25:44Z</time>
      </trkpt>
      <trkpt lat="48.58173" lon="-3.83192">
        <ele>7.8</ele>
        <time>2025-06-30T09:25:46Z</time>
      </trkpt>
      <trkpt lat="48.58185" lon="-3.83201">
        <ele>7.8</ele>
        <time>2025-06-30T09:25:48Z</time>
      </trkpt>
      <trkpt lat="48.58195" lon="-3.83215">
        <ele>7.7</ele>
        <time>2025-06-30T09:25:50Z</time>
      </trkpt>
      <trkpt lat="48.58205" lon="-3.83229">
        <ele>7.8</ele>
        <time>2025-06-30T09:25:52Z</time>
      </trkpt>
      <trkpt lat="48.58216" lon="-3.8324">
        <ele>7.7</ele>
        <time>2025-06-30T09:25:54Z</time>
      </trkpt>
      <trkpt lat="48.58229" lon="-3.83249">
        <ele>7.7</ele>
        <time>2025-06-30T09:25:56Z</time>
      </trkpt>
      <trkpt lat="48.58242" lon="-3.8326">
        <ele>7.7</ele>
        <time>2025-06-30T09:25:58Z</time>
      </trkpt>
      <trkpt lat="48.58255" lon="-3.83272">
        <ele>7.6</ele>
        <time>2025-06-30T09:26:00Z</time>
      </trkpt>
      <trkpt lat="48.58269" lon="-3.83284">
        <ele>7.6</ele>
        <time>2025-06-30T09:26:02Z</time>
      </trkpt>
      <trkpt lat="48.58282" lon="-3.83296">
        <ele>7.6</ele>
        <time>2025-06-30T09:26:04Z</time>
      </trkpt>
      <trkpt lat="48.58296" lon="-3.83307">
        <ele>7.5</ele>
        <time>2025-06-30T09:26:06Z</time>
      </trkpt>
      <trkpt lat="48.58309" lon="-3.83319">
        <ele>7.5</ele>
        <time>2025-06-30T09:26:08Z</time>
      </trkpt>
      <trkpt lat="48.58323" lon="-3.8333">
        <ele>7.5</ele>
        <time>2025-06-30T09:26:10Z</time>
      </trkpt>
      <trkpt lat="48.58335" lon="-3.83341">
        <ele>7.5</ele>
        <time>2025-06-30T09:26:12Z</time>
      </trkpt>
      <trkpt lat="48.58348" lon="-3.83351">
        <ele>7.5</ele>
        <time>2025-06-30T09:26:14Z</time>
      </trkpt>
      <trkpt lat="48.5836" lon="-3.83362">
        <ele>7.5</ele>
        <time>2025-06-30T09:26:16Z</time>
      </trkpt>
      <trkpt lat="48.58373" lon="-3.83372">
        <ele>7.5</ele>
        <time>2025-06-30T09:26:18Z</time>
      </trkpt>
      <trkpt lat="48.58386" lon="-3.83381">
        <ele>7.4</ele>
        <time>2025-06-30T09:26:20Z</time>
      </trkpt>
      <trkpt lat="48.584" lon="-3.83386">
        <ele>7.4</ele>
        <time>2025-06-30T09:26:22Z</time>
      </trkpt>
      <trkpt lat="48.58414" lon="-3.83391">
        <ele>7.3</ele>
        <time>2025-06-30T09:26:24Z</time>
      </trkpt>
      <trkpt lat="48.58428" lon="-3.83393">
        <ele>7.3</ele>
        <time>2025-06-30T09:26:26Z</time>
      </trkpt>
      <trkpt lat="48.58443" lon="-3.834">
        <ele>7.4</ele>
        <time>2025-06-30T09:26:28Z</time>
      </trkpt>
      <trkpt lat="48.58456" lon="-3.83411">
        <ele>7.4</ele>
        <time>2025-06-30T09:26:30Z</time>
      </trkpt>
      <trkpt lat="48.58469" lon="-3.83423">
        <ele>7.5</ele>
        <time>2025-06-30T09:26:32Z</time>
      </trkpt>
      <trkpt lat="48.58479" lon="-3.83439">
        <ele>7.7</ele>
        <time>2025-06-30T09:26:34Z</time>
      </trkpt>
      <trkpt lat="48.58491" lon="-3.83455">
        <ele>7.7</ele>
        <time>2025-06-30T09:26:36Z</time>
      </trkpt>
      <trkpt lat="48.58502" lon="-3.8347">
        <ele>7.8</ele>
        <time>2025-06-30T09:26:38Z</time>
      </trkpt>
      <trkpt lat="48.58514" lon="-3.83486">
        <ele>7.7</ele>
        <time>2025-06-30T09:26:40Z</time>
      </trkpt>
      <trkpt lat="48.58526" lon="-3.835">
        <ele>7.7</ele>
        <time>2025-06-30T09:26:42Z</time>
      </trkpt>
      <trkpt lat="48.58538" lon="-3.83516">
        <ele>7.6</ele>
        <time>2025-06-30T09:26:44Z</time>
      </trkpt>
      <trkpt lat="48.58551" lon="-3.83532">
        <ele>7.6</ele>
        <time>2025-06-30T09:26:46Z</time>
      </trkpt>
      <trkpt lat="48.58563" lon="-3.83549">
        <ele>7.6</ele>
        <time>2025-06-30T09:26:48Z</time>
      </trkpt>
      <trkpt lat="48.58576" lon="-3.83565">
        <ele>7.6</ele>
        <time>2025-06-30T09:26:50Z</time>
      </trkpt>
      <trkpt lat="48.58589" lon="-3.83582">
        <ele>7.6</ele>
        <time>2025-06-30T09:26:52Z</time>
      </trkpt>
      <trkpt lat="48.58603" lon="-3.83599">
        <ele>7.5</ele>
        <time>2025-06-30T09:26:54Z</time>
      </trkpt>
      <trkpt lat="48.58619" lon="-3.8361">
        <ele>7.5</ele>
        <time>2025-06-30T09:26:56Z</time>
      </trkpt>
      <trkpt lat="48.58635" lon="-3.83621">
        <ele>7.5</ele>
        <time>2025-06-30T09:26:58Z</time>
      </trkpt>
      <trkpt lat="48.58651" lon="-3.83631">
        <ele>7.4</ele>
        <time>2025-06-30T09:27:00Z</time>
      </trkpt>
      <trkpt lat="48.58667" lon="-3.83641">
        <ele>7.4</ele>
        <time>2025-06-30T09:27:02Z</time>
      </trkpt>
      <trkpt lat="48.58684" lon="-3.83652">
        <ele>7.4</ele>
        <time>2025-06-30T09:27:04Z</time>
      </trkpt>
      <trkpt lat="48.587" lon="-3.83661">
        <ele>7.3</ele>
        <time>2025-06-30T09:27:06Z</time>
      </trkpt>
      <trkpt lat="48.58717" lon="-3.83672">
        <ele>7.3</ele>
        <time>2025-06-30T09:27:08Z</time>
      </trkpt>
      <trkpt lat="48.58733" lon="-3.83682">
        <ele>7.4</ele>
        <time>2025-06-30T09:27:10Z</time>
      </trkpt>
      <trkpt lat="48.58749" lon="-3.8369">
        <ele>7.4</ele>
        <time>2025-06-30T09:27:12Z</time>
      </trkpt>
      <trkpt lat="48.58765" lon="-3.83693">
        <ele>7.6</ele>
        <time>2025-06-30T09:27:14Z</time>
      </trkpt>
      <trkpt lat="48.5878" lon="-3.83696">
        <ele>7.8</ele>
        <time>2025-06-30T09:27:16Z</time>
      </trkpt>
      <trkpt lat="48.58794" lon="-3.83715">
        <ele>7.8</ele>
        <time>2025-06-30T09:27:18Z</time>
      </trkpt>
      <trkpt lat="48.58809" lon="-3.83726">
        <ele>7.7</ele>
        <time>2025-06-30T09:27:20Z</time>
      </trkpt>
      <trkpt lat="48.58825" lon="-3.83734">
        <ele>7.7</ele>
        <time>2025-06-30T09:27:22Z</time>
      </trkpt>
      <trkpt lat="48.58841" lon="-3.83742">
        <ele>7.7</ele>
        <time>2025-06-30T09:27:24Z</time>
      </trkpt>
      <trkpt lat="48.58857" lon="-3.83751">
        <ele>7.6</ele>
        <time>2025-06-30T09:27:26Z</time>
      </trkpt>
      <trkpt lat="48.58873" lon="-3.83757">
        <ele>7.6</ele>
        <time>2025-06-30T09:27:28Z</time>
      </trkpt>
      <trkpt lat="48.58888" lon="-3.83767">
        <ele>7.5</ele>
        <time>2025-06-30T09:27:30Z</time>
      </trkpt>
      <trkpt lat="48.58904" lon="-3.83776">
        <ele>7.5</ele>
        <time>2025-06-30T09:27:32Z</time>
      </trkpt>
      <trkpt lat="48.5892" lon="-3.83784">
        <ele>7.4</ele>
        <time>2025-06-30T09:27:34Z</time>
      </trkpt>
      <trkpt lat="48.58936" lon="-3.83793">
        <ele>7.3</ele>
        <time>2025-06-30T09:27:36Z</time>
      </trkpt>
      <trkpt lat="48.58952" lon="-3.83801">
        <ele>7.2</ele>
        <time>2025-06-30T09:27:38Z</time>
      </trkpt>
      <trkpt lat="48.58969" lon="-3.83809">
        <ele>7.2</ele>
        <time>2025-06-30T09:27:40Z</time>
      </trkpt>
      <trkpt lat="48.58985" lon="-3.83819">
        <ele>7.1</ele>
        <time>2025-06-30T09:27:42Z</time>
      </trkpt>
      <trkpt lat="48.59001" lon="-3.83827">
        <ele>7.1</ele>
        <time>2025-06-30T09:27:44Z</time>
      </trkpt>
      <trkpt lat="48.59017" lon="-3.83835">
        <ele>7.1</ele>
        <time>2025-06-30T09:27:46Z</time>
      </trkpt>
      <trkpt lat="48.59033" lon="-3.83844">
        <ele>7.1</ele>
        <time>2025-06-30T09:27:48Z</time>
      </trkpt>
      <trkpt lat="48.59049" lon="-3.83852">
        <ele>7.2</ele>
        <time>2025-06-30T09:27:50Z</time>
      </trkpt>
      <trkpt lat="48.59065" lon="-3.83861">
        <ele>7.1</ele>
        <time>2025-06-30T09:27:52Z</time>
      </trkpt>
      <trkpt lat="48.59081" lon="-3.8387">
        <ele>7.1</ele>
        <time>2025-06-30T09:27:54Z</time>
      </trkpt>
      <trkpt lat="48.59097" lon="-3.83879">
        <ele>7</ele>
        <time>2025-06-30T09:27:56Z</time>
      </trkpt>
      <trkpt lat="48.59113" lon="-3.83889">
        <ele>6.9</ele>
        <time>2025-06-30T09:27:58Z</time>
      </trkpt>
      <trkpt lat="48.5913" lon="-3.83897">
        <ele>6.8</ele>
        <time>2025-06-30T09:28:00Z</time>
      </trkpt>
      <trkpt lat="48.59147" lon="-3.83906">
        <ele>6.6</ele>
        <time>2025-06-30T09:28:02Z</time>
      </trkpt>
      <trkpt lat="48.59163" lon="-3.83915">
        <ele>6.6</ele>
        <time>2025-06-30T09:28:04Z</time>
      </trkpt>
      <trkpt lat="48.5918" lon="-3.83923">
        <ele>6.6</ele>
        <time>2025-06-30T09:28:06Z</time>
      </trkpt>
      <trkpt lat="48.59189" lon="-3.83926">
        <ele>6.6</ele>
        <time>2025-06-30T09:28:07Z</time>
      </trkpt>
      <trkpt lat="48.59197" lon="-3.83932">
        <ele>6.6</ele>
        <time>2025-06-30T09:28:08Z</time>
      </trkpt>
      <trkpt lat="48.59214" lon="-3.83941">
        <ele>6.5</ele>
        <time>2025-06-30T09:28:10Z</time>
      </trkpt>
      <trkpt lat="48.5923" lon="-3.8395">
        <ele>6.5</ele>
        <time>2025-06-30T09:28:12Z</time>
      </trkpt>
      <trkpt lat="48.59238" lon="-3.83955">
        <ele>6.5</ele>
        <time>2025-06-30T09:28:13Z</time>
      </trkpt>
      <trkpt lat="48.59255" lon="-3.83964">
        <ele>6.4</ele>
        <time>2025-06-30T09:28:15Z</time>
      </trkpt>
      <trkpt lat="48.59263" lon="-3.83969">
        <ele>6.4</ele>
        <time>2025-06-30T09:28:16Z</time>
      </trkpt>
      <trkpt lat="48.59279" lon="-3.83978">
        <ele>6.3</ele>
        <time>2025-06-30T09:28:18Z</time>
      </trkpt>
      <trkpt lat="48.59296" lon="-3.83987">
        <ele>6.3</ele>
        <time>2025-06-30T09:28:20Z</time>
      </trkpt>
      <trkpt lat="48.59312" lon="-3.83996">
        <ele>6.3</ele>
        <time>2025-06-30T09:28:22Z</time>
      </trkpt>
      <trkpt lat="48.59329" lon="-3.84005">
        <ele>6.4</ele>
        <time>2025-06-30T09:28:24Z</time>
      </trkpt>
      <trkpt lat="48.59338" lon="-3.84008">
        <ele>6.4</ele>
        <time>2025-06-30T09:28:25Z</time>
      </trkpt>
      <trkpt lat="48.59355" lon="-3.84016">
        <ele>6.4</ele>
        <time>2025-06-30T09:28:27Z</time>
      </trkpt>
      <trkpt lat="48.59372" lon="-3.84021">
        <ele>6.4</ele>
        <time>2025-06-30T09:28:29Z</time>
      </trkpt>
      <trkpt lat="48.5939" lon="-3.84024">
        <ele>6.5</ele>
        <time>2025-06-30T09:28:31Z</time>
      </trkpt>
      <trkpt lat="48.59408" lon="-3.84026">
        <ele>6.5</ele>
        <time>2025-06-30T09:28:33Z</time>
      </trkpt>
      <trkpt lat="48.59425" lon="-3.84027">
        <ele>6.5</ele>
        <time>2025-06-30T09:28:35Z</time>
      </trkpt>
      <trkpt lat="48.59442" lon="-3.84029">
        <ele>6.5</ele>
        <time>2025-06-30T09:28:37Z</time>
      </trkpt>
      <trkpt lat="48.59459" lon="-3.84029">
        <ele>6.4</ele>
        <time>2025-06-30T09:28:39Z</time>
      </trkpt>
      <trkpt lat="48.59476" lon="-3.84029">
        <ele>6.4</ele>
        <time>2025-06-30T09:28:41Z</time>
      </trkpt>
      <trkpt lat="48.59493" lon="-3.84027">
        <ele>6.3</ele>
        <time>2025-06-30T09:28:43Z</time>
      </trkpt>
      <trkpt lat="48.59511" lon="-3.84027">
        <ele>6.3</ele>
        <time>2025-06-30T09:28:45Z</time>
      </trkpt>
      <trkpt lat="48.59529" lon="-3.84028">
        <ele>6.3</ele>
        <time>2025-06-30T09:28:47Z</time>
      </trkpt>
      <trkpt lat="48.59547" lon="-3.84028">
        <ele>6.3</ele>
        <time>2025-06-30T09:28:49Z</time>
      </trkpt>
      <trkpt lat="48.59556" lon="-3.84028">
        <ele>6.3</ele>
        <time>2025-06-30T09:28:50Z</time>
      </trkpt>
      <trkpt lat="48.59565" lon="-3.84027">
        <ele>6.3</ele>
        <time>2025-06-30T09:28:51Z</time>
      </trkpt>
      <trkpt lat="48.59583" lon="-3.84026">
        <ele>6.4</ele>
        <time>2025-06-30T09:28:53Z</time>
      </trkpt>
      <trkpt lat="48.59601" lon="-3.84027">
        <ele>6.4</ele>
        <time>2025-06-30T09:28:55Z</time>
      </trkpt>
      <trkpt lat="48.59618" lon="-3.84029">
        <ele>6.4</ele>
        <time>2025-06-30T09:28:57Z</time>
      </trkpt>
      <trkpt lat="48.59636" lon="-3.84028">
        <ele>6.4</ele>
        <time>2025-06-30T09:28:59Z</time>
      </trkpt>
      <trkpt lat="48.59653" lon="-3.84028">
        <ele>6.4</ele>
        <time>2025-06-30T09:29:01Z</time>
      </trkpt>
      <trkpt lat="48.5967" lon="-3.84028">
        <ele>6.5</ele>
        <time>2025-06-30T09:29:03Z</time>
      </trkpt>
      <trkpt lat="48.59687" lon="-3.84032">
        <ele>6.5</ele>
        <time>2025-06-30T09:29:05Z</time>
      </trkpt>
      <trkpt lat="48.59703" lon="-3.84039">
        <ele>6.5</ele>
        <time>2025-06-30T09:29:07Z</time>
      </trkpt>
      <trkpt lat="48.59719" lon="-3.84048">
        <ele>6.4</ele>
        <time>2025-06-30T09:29:09Z</time>
      </trkpt>
      <trkpt lat="48.59735" lon="-3.84059">
        <ele>6.3</ele>
        <time>2025-06-30T09:29:11Z</time>
      </trkpt>
      <trkpt lat="48.59751" lon="-3.84069">
        <ele>6.3</ele>
        <time>2025-06-30T09:29:13Z</time>
      </trkpt>
      <trkpt lat="48.59767" lon="-3.84079">
        <ele>6.2</ele>
        <time>2025-06-30T09:29:15Z</time>
      </trkpt>
      <trkpt lat="48.59783" lon="-3.8409">
        <ele>6.2</ele>
        <time>2025-06-30T09:29:17Z</time>
      </trkpt>
      <trkpt lat="48.598" lon="-3.841">
        <ele>6</ele>
        <time>2025-06-30T09:29:19Z</time>
      </trkpt>
      <trkpt lat="48.59816" lon="-3.84112">
        <ele>6</ele>
        <time>2025-06-30T09:29:21Z</time>
      </trkpt>
      <trkpt lat="48.59832" lon="-3.84121">
        <ele>6.1</ele>
        <time>2025-06-30T09:29:23Z</time>
      </trkpt>
      <trkpt lat="48.59849" lon="-3.84132">
        <ele>6.2</ele>
        <time>2025-06-30T09:29:25Z</time>
      </trkpt>
      <trkpt lat="48.59865" lon="-3.84142">
        <ele>6.2</ele>
        <time>2025-06-30T09:29:27Z</time>
      </trkpt>
      <trkpt lat="48.59881" lon="-3.84152">
        <ele>6.1</ele>
        <time>2025-06-30T09:29:29Z</time>
      </trkpt>
      <trkpt lat="48.59896" lon="-3.84162">
        <ele>6.2</ele>
        <time>2025-06-30T09:29:31Z</time>
      </trkpt>
      <trkpt lat="48.59912" lon="-3.84173">
        <ele>6.5</ele>
        <time>2025-06-30T09:29:33Z</time>
      </trkpt>
      <trkpt lat="48.59927" lon="-3.84187">
        <ele>6.5</ele>
        <time>2025-06-30T09:29:35Z</time>
      </trkpt>
      <trkpt lat="48.5994" lon="-3.84203">
        <ele>6.5</ele>
        <time>2025-06-30T09:29:37Z</time>
      </trkpt>
      <trkpt lat="48.59953" lon="-3.84219">
        <ele>6.6</ele>
        <time>2025-06-30T09:29:39Z</time>
      </trkpt>
      <trkpt lat="48.59966" lon="-3.84236">
        <ele>6.6</ele>
        <time>2025-06-30T09:29:41Z</time>
      </trkpt>
      <trkpt lat="48.59978" lon="-3.84253">
        <ele>6.6</ele>
        <time>2025-06-30T09:29:43Z</time>
      </trkpt>
      <trkpt lat="48.5999" lon="-3.84271">
        <ele>6.7</ele>
        <time>2025-06-30T09:29:45Z</time>
      </trkpt>
      <trkpt lat="48.60003" lon="-3.84288">
        <ele>6.8</ele>
        <time>2025-06-30T09:29:47Z</time>
      </trkpt>
      <trkpt lat="48.60015" lon="-3.84305">
        <ele>6.7</ele>
        <time>2025-06-30T09:29:49Z</time>
      </trkpt>
      <trkpt lat="48.60028" lon="-3.84322">
        <ele>6.5</ele>
        <time>2025-06-30T09:29:51Z</time>
      </trkpt>
      <trkpt lat="48.6004" lon="-3.84339">
        <ele>6.5</ele>
        <time>2025-06-30T09:29:53Z</time>
      </trkpt>
      <trkpt lat="48.60053" lon="-3.84357">
        <ele>6.5</ele>
        <time>2025-06-30T09:29:55Z</time>
      </trkpt>
      <trkpt lat="48.60065" lon="-3.84374">
        <ele>6.5</ele>
        <time>2025-06-30T09:29:57Z</time>
      </trkpt>
      <trkpt lat="48.60078" lon="-3.84391">
        <ele>6.6</ele>
        <time>2025-06-30T09:29:59Z</time>
      </trkpt>
      <trkpt lat="48.6009" lon="-3.84409">
        <ele>6.6</ele>
        <time>2025-06-30T09:30:01Z</time>
      </trkpt>
      <trkpt lat="48.60102" lon="-3.84428">
        <ele>6.6</ele>
        <time>2025-06-30T09:30:03Z</time>
      </trkpt>
      <trkpt lat="48.60113" lon="-3.84447">
        <ele>6.7</ele>
        <time>2025-06-30T09:30:05Z</time>
      </trkpt>
      <trkpt lat="48.60123" lon="-3.84466">
        <ele>6.7</ele>
        <time>2025-06-30T09:30:07Z</time>
      </trkpt>
      <trkpt lat="48.60131" lon="-3.84488">
        <ele>6.7</ele>
        <time>2025-06-30T09:30:09Z</time>
      </trkpt>
      <trkpt lat="48.6014" lon="-3.84509">
        <ele>6.8</ele>
        <time>2025-06-30T09:30:11Z</time>
      </trkpt>
      <trkpt lat="48.60148" lon="-3.8453">
        <ele>6.8</ele>
        <time>2025-06-30T09:30:13Z</time>
      </trkpt>
      <trkpt lat="48.60157" lon="-3.8455">
        <ele>6.8</ele>
        <time>2025-06-30T09:30:15Z</time>
      </trkpt>
      <trkpt lat="48.60166" lon="-3.8457">
        <ele>6.7</ele>
        <time>2025-06-30T09:30:17Z</time>
      </trkpt>
      <trkpt lat="48.60177" lon="-3.84589">
        <ele>6.7</ele>
        <time>2025-06-30T09:30:19Z</time>
      </trkpt>
      <trkpt lat="48.60187" lon="-3.84608">
        <ele>6.7</ele>
        <time>2025-06-30T09:30:21Z</time>
      </trkpt>
      <trkpt lat="48.60198" lon="-3.84626">
        <ele>6.6</ele>
        <time>2025-06-30T09:30:23Z</time>
      </trkpt>
      <trkpt lat="48.60209" lon="-3.84643">
        <ele>6.6</ele>
        <time>2025-06-30T09:30:25Z</time>
      </trkpt>
      <trkpt lat="48.60221" lon="-3.84659">
        <ele>6.6</ele>
        <time>2025-06-30T09:30:27Z</time>
      </trkpt>
      <trkpt lat="48.60232" lon="-3.84676">
        <ele>6.6</ele>
        <time>2025-06-30T09:30:29Z</time>
      </trkpt>
      <trkpt lat="48.60244" lon="-3.84692">
        <ele>6.6</ele>
        <time>2025-06-30T09:30:31Z</time>
      </trkpt>
      <trkpt lat="48.60255" lon="-3.84708">
        <ele>6.6</ele>
        <time>2025-06-30T09:30:33Z</time>
      </trkpt>
      <trkpt lat="48.60267" lon="-3.84725">
        <ele>6.5</ele>
        <time>2025-06-30T09:30:35Z</time>
      </trkpt>
      <trkpt lat="48.60279" lon="-3.84741">
        <ele>6.5</ele>
        <time>2025-06-30T09:30:37Z</time>
      </trkpt>
      <trkpt lat="48.60291" lon="-3.84757">
        <ele>6.6</ele>
        <time>2025-06-30T09:30:39Z</time>
      </trkpt>
      <trkpt lat="48.60302" lon="-3.84773">
        <ele>6.7</ele>
        <time>2025-06-30T09:30:41Z</time>
      </trkpt>
      <trkpt lat="48.60313" lon="-3.84788">
        <ele>6.7</ele>
        <time>2025-06-30T09:30:43Z</time>
      </trkpt>
      <trkpt lat="48.60325" lon="-3.84803">
        <ele>6.7</ele>
        <time>2025-06-30T09:30:45Z</time>
      </trkpt>
      <trkpt lat="48.60336" lon="-3.84817">
        <ele>6.6</ele>
        <time>2025-06-30T09:30:47Z</time>
      </trkpt>
      <trkpt lat="48.60348" lon="-3.84831">
        <ele>6.6</ele>
        <time>2025-06-30T09:30:49Z</time>
      </trkpt>
      <trkpt lat="48.6036" lon="-3.84845">
        <ele>6.6</ele>
        <time>2025-06-30T09:30:51Z</time>
      </trkpt>
      <trkpt lat="48.60373" lon="-3.84857">
        <ele>6.6</ele>
        <time>2025-06-30T09:30:53Z</time>
      </trkpt>
      <trkpt lat="48.60385" lon="-3.8487">
        <ele>6.6</ele>
        <time>2025-06-30T09:30:55Z</time>
      </trkpt>
      <trkpt lat="48.60398" lon="-3.84882">
        <ele>6.6</ele>
        <time>2025-06-30T09:30:57Z</time>
      </trkpt>
      <trkpt lat="48.6041" lon="-3.84894">
        <ele>6.6</ele>
        <time>2025-06-30T09:30:59Z</time>
      </trkpt>
      <trkpt lat="48.60423" lon="-3.84906">
        <ele>6.7</ele>
        <time>2025-06-30T09:31:01Z</time>
      </trkpt>
      <trkpt lat="48.60436" lon="-3.84917">
        <ele>6.7</ele>
        <time>2025-06-30T09:31:03Z</time>
      </trkpt>
      <trkpt lat="48.60449" lon="-3.84927">
        <ele>6.9</ele>
        <time>2025-06-30T09:31:05Z</time>
      </trkpt>
      <trkpt lat="48.60462" lon="-3.84938">
        <ele>7</ele>
        <time>2025-06-30T09:31:07Z</time>
      </trkpt>
      <trkpt lat="48.60476" lon="-3.84948">
        <ele>7.1</ele>
        <time>2025-06-30T09:31:09Z</time>
      </trkpt>
      <trkpt lat="48.60489" lon="-3.84957">
        <ele>7.2</ele>
        <time>2025-06-30T09:31:11Z</time>
      </trkpt>
      <trkpt lat="48.60503" lon="-3.84967">
        <ele>7.4</ele>
        <time>2025-06-30T09:31:13Z</time>
      </trkpt>
      <trkpt lat="48.60516" lon="-3.84976">
        <ele>7.6</ele>
        <time>2025-06-30T09:31:15Z</time>
      </trkpt>
      <trkpt lat="48.60529" lon="-3.84985">
        <ele>7.8</ele>
        <time>2025-06-30T09:31:17Z</time>
      </trkpt>
      <trkpt lat="48.60542" lon="-3.84995">
        <ele>7.8</ele>
        <time>2025-06-30T09:31:19Z</time>
      </trkpt>
      <trkpt lat="48.60556" lon="-3.85004">
        <ele>7.8</ele>
        <time>2025-06-30T09:31:21Z</time>
      </trkpt>
      <trkpt lat="48.6057" lon="-3.85014">
        <ele>7.7</ele>
        <time>2025-06-30T09:31:23Z</time>
      </trkpt>
      <trkpt lat="48.60584" lon="-3.85024">
        <ele>7.8</ele>
        <time>2025-06-30T09:31:25Z</time>
      </trkpt>
      <trkpt lat="48.60597" lon="-3.85033">
        <ele>7.8</ele>
        <time>2025-06-30T09:31:27Z</time>
      </trkpt>
      <trkpt lat="48.60611" lon="-3.85043">
        <ele>7.9</ele>
        <time>2025-06-30T09:31:29Z</time>
      </trkpt>
      <trkpt lat="48.60625" lon="-3.85052">
        <ele>8</ele>
        <time>2025-06-30T09:31:31Z</time>
      </trkpt>
      <trkpt lat="48.60638" lon="-3.85062">
        <ele>8.1</ele>
        <time>2025-06-30T09:31:33Z</time>
      </trkpt>
      <trkpt lat="48.60652" lon="-3.85073">
        <ele>8.1</ele>
        <time>2025-06-30T09:31:35Z</time>
      </trkpt>
      <trkpt lat="48.60665" lon="-3.85084">
        <ele>8.1</ele>
        <time>2025-06-30T09:31:37Z</time>
      </trkpt>
      <trkpt lat="48.60679" lon="-3.85096">
        <ele>7.9</ele>
        <time>2025-06-30T09:31:39Z</time>
      </trkpt>
      <trkpt lat="48.60692" lon="-3.8511">
        <ele>7.6</ele>
        <time>2025-06-30T09:31:41Z</time>
      </trkpt>
      <trkpt lat="48.60704" lon="-3.85125">
        <ele>7.3</ele>
        <time>2025-06-30T09:31:43Z</time>
      </trkpt>
      <trkpt lat="48.60716" lon="-3.85142">
        <ele>6.9</ele>
        <time>2025-06-30T09:31:45Z</time>
      </trkpt>
      <trkpt lat="48.60727" lon="-3.85159">
        <ele>6.6</ele>
        <time>2025-06-30T09:31:47Z</time>
      </trkpt>
      <trkpt lat="48.60738" lon="-3.85178">
        <ele>6.5</ele>
        <time>2025-06-30T09:31:49Z</time>
      </trkpt>
      <trkpt lat="48.60748" lon="-3.85197">
        <ele>6.5</ele>
        <time>2025-06-30T09:31:51Z</time>
      </trkpt>
      <trkpt lat="48.60757" lon="-3.85217">
        <ele>6.5</ele>
        <time>2025-06-30T09:31:53Z</time>
      </trkpt>
      <trkpt lat="48.60766" lon="-3.85237">
        <ele>6.6</ele>
        <time>2025-06-30T09:31:55Z</time>
      </trkpt>
      <trkpt lat="48.60776" lon="-3.85256">
        <ele>6.6</ele>
        <time>2025-06-30T09:31:57Z</time>
      </trkpt>
      <trkpt lat="48.60786" lon="-3.85274">
        <ele>6.6</ele>
        <time>2025-06-30T09:31:59Z</time>
      </trkpt>
      <trkpt lat="48.60796" lon="-3.85291">
        <ele>6.6</ele>
        <time>2025-06-30T09:32:01Z</time>
      </trkpt>
      <trkpt lat="48.60807" lon="-3.85307">
        <ele>6.5</ele>
        <time>2025-06-30T09:32:03Z</time>
      </trkpt>
      <trkpt lat="48.60817" lon="-3.85324">
        <ele>6.4</ele>
        <time>2025-06-30T09:32:05Z</time>
      </trkpt>
      <trkpt lat="48.60828" lon="-3.85341">
        <ele>6.4</ele>
        <time>2025-06-30T09:32:07Z</time>
      </trkpt>
      <trkpt lat="48.60839" lon="-3.85358">
        <ele>6.5</ele>
        <time>2025-06-30T09:32:09Z</time>
      </trkpt>
      <trkpt lat="48.60849" lon="-3.85374">
        <ele>6.6</ele>
        <time>2025-06-30T09:32:11Z</time>
      </trkpt>
      <trkpt lat="48.6086" lon="-3.8539">
        <ele>6.6</ele>
        <time>2025-06-30T09:32:13Z</time>
      </trkpt>
      <trkpt lat="48.6087" lon="-3.85406">
        <ele>6.7</ele>
        <time>2025-06-30T09:32:15Z</time>
      </trkpt>
      <trkpt lat="48.6088" lon="-3.85422">
        <ele>6.9</ele>
        <time>2025-06-30T09:32:17Z</time>
      </trkpt>
      <trkpt lat="48.60889" lon="-3.85439">
        <ele>7.1</ele>
        <time>2025-06-30T09:32:19Z</time>
      </trkpt>
      <trkpt lat="48.609" lon="-3.85453">
        <ele>7.2</ele>
        <time>2025-06-30T09:32:21Z</time>
      </trkpt>
      <trkpt lat="48.6091" lon="-3.85469">
        <ele>7.4</ele>
        <time>2025-06-30T09:32:23Z</time>
      </trkpt>
      <trkpt lat="48.60919" lon="-3.85484">
        <ele>7.5</ele>
        <time>2025-06-30T09:32:25Z</time>
      </trkpt>
      <trkpt lat="48.60928" lon="-3.855">
        <ele>7.5</ele>
        <time>2025-06-30T09:32:27Z</time>
      </trkpt>
      <trkpt lat="48.60935" lon="-3.85517">
        <ele>7.5</ele>
        <time>2025-06-30T09:32:29Z</time>
      </trkpt>
      <trkpt lat="48.60943" lon="-3.85535">
        <ele>7.5</ele>
        <time>2025-06-30T09:32:31Z</time>
      </trkpt>
      <trkpt lat="48.6095" lon="-3.85554">
        <ele>7.5</ele>
        <time>2025-06-30T09:32:33Z</time>
      </trkpt>
      <trkpt lat="48.60957" lon="-3.85572">
        <ele>7.7</ele>
        <time>2025-06-30T09:32:35Z</time>
      </trkpt>
      <trkpt lat="48.60963" lon="-3.85591">
        <ele>7.9</ele>
        <time>2025-06-30T09:32:37Z</time>
      </trkpt>
      <trkpt lat="48.6097" lon="-3.85608">
        <ele>8.2</ele>
        <time>2025-06-30T09:32:39Z</time>
      </trkpt>
      <trkpt lat="48.60977" lon="-3.85625">
        <ele>8.3</ele>
        <time>2025-06-30T09:32:41Z</time>
      </trkpt>
      <trkpt lat="48.60984" lon="-3.85642">
        <ele>8.3</ele>
        <time>2025-06-30T09:32:43Z</time>
      </trkpt>
      <trkpt lat="48.60992" lon="-3.85659">
        <ele>8.4</ele>
        <time>2025-06-30T09:32:45Z</time>
      </trkpt>
      <trkpt lat="48.61001" lon="-3.85674">
        <ele>8.4</ele>
        <time>2025-06-30T09:32:47Z</time>
      </trkpt>
      <trkpt lat="48.61009" lon="-3.8569">
        <ele>8.4</ele>
        <time>2025-06-30T09:32:49Z</time>
      </trkpt>
      <trkpt lat="48.61018" lon="-3.85705">
        <ele>8.3</ele>
        <time>2025-06-30T09:32:51Z</time>
      </trkpt>
      <trkpt lat="48.61027" lon="-3.8572">
        <ele>8.3</ele>
        <time>2025-06-30T09:32:53Z</time>
      </trkpt>
      <trkpt lat="48.61037" lon="-3.85734">
        <ele>8.4</ele>
        <time>2025-06-30T09:32:55Z</time>
      </trkpt>
      <trkpt lat="48.61047" lon="-3.85747">
        <ele>8.4</ele>
        <time>2025-06-30T09:32:57Z</time>
      </trkpt>
      <trkpt lat="48.61058" lon="-3.8576">
        <ele>8.5</ele>
        <time>2025-06-30T09:32:59Z</time>
      </trkpt>
      <trkpt lat="48.61069" lon="-3.85771">
        <ele>8.6</ele>
        <time>2025-06-30T09:33:01Z</time>
      </trkpt>
      <trkpt lat="48.61081" lon="-3.8578">
        <ele>8.6</ele>
        <time>2025-06-30T09:33:03Z</time>
      </trkpt>
      <trkpt lat="48.61092" lon="-3.8579">
        <ele>8.5</ele>
        <time>2025-06-30T09:33:05Z</time>
      </trkpt>
      <trkpt lat="48.61105" lon="-3.85798">
        <ele>8.3</ele>
        <time>2025-06-30T09:33:07Z</time>
      </trkpt>
      <trkpt lat="48.61116" lon="-3.85808">
        <ele>8.1</ele>
        <time>2025-06-30T09:33:09Z</time>
      </trkpt>
      <trkpt lat="48.61129" lon="-3.85817">
        <ele>7.9</ele>
        <time>2025-06-30T09:33:11Z</time>
      </trkpt>
      <trkpt lat="48.61142" lon="-3.85826">
        <ele>7.7</ele>
        <time>2025-06-30T09:33:13Z</time>
      </trkpt>
      <trkpt lat="48.61155" lon="-3.85836">
        <ele>7.6</ele>
        <time>2025-06-30T09:33:15Z</time>
      </trkpt>
      <trkpt lat="48.61168" lon="-3.85845">
        <ele>7.5</ele>
        <time>2025-06-30T09:33:17Z</time>
      </trkpt>
      <trkpt lat="48.61181" lon="-3.85855">
        <ele>7.4</ele>
        <time>2025-06-30T09:33:19Z</time>
      </trkpt>
      <trkpt lat="48.61195" lon="-3.85863">
        <ele>7.4</ele>
        <time>2025-06-30T09:33:21Z</time>
      </trkpt>
      <trkpt lat="48.61209" lon="-3.85871">
        <ele>7.3</ele>
        <time>2025-06-30T09:33:23Z</time>
      </trkpt>
      <trkpt lat="48.61223" lon="-3.85877">
        <ele>7.3</ele>
        <time>2025-06-30T09:33:25Z</time>
      </trkpt>
      <trkpt lat="48.61237" lon="-3.85883">
        <ele>7.2</ele>
        <time>2025-06-30T09:33:27Z</time>
      </trkpt>
      <trkpt lat="48.61252" lon="-3.85889">
        <ele>7.1</ele>
        <time>2025-06-30T09:33:29Z</time>
      </trkpt>
      <trkpt lat="48.61267" lon="-3.85893">
        <ele>7.1</ele>
        <time>2025-06-30T09:33:31Z</time>
      </trkpt>
      <trkpt lat="48.61281" lon="-3.85897">
        <ele>7.2</ele>
        <time>2025-06-30T09:33:33Z</time>
      </trkpt>
      <trkpt lat="48.61295" lon="-3.85901">
        <ele>7.3</ele>
        <time>2025-06-30T09:33:35Z</time>
      </trkpt>
      <trkpt lat="48.61311" lon="-3.85904">
        <ele>7.3</ele>
        <time>2025-06-30T09:33:37Z</time>
      </trkpt>
      <trkpt lat="48.61326" lon="-3.85907">
        <ele>7.3</ele>
        <time>2025-06-30T09:33:39Z</time>
      </trkpt>
      <trkpt lat="48.61341" lon="-3.85909">
        <ele>7.4</ele>
        <time>2025-06-30T09:33:41Z</time>
      </trkpt>
      <trkpt lat="48.61356" lon="-3.8591">
        <ele>7.6</ele>
        <time>2025-06-30T09:33:43Z</time>
      </trkpt>
      <trkpt lat="48.6137" lon="-3.8591">
        <ele>7.8</ele>
        <time>2025-06-30T09:33:45Z</time>
      </trkpt>
      <trkpt lat="48.61385" lon="-3.85907">
        <ele>7.9</ele>
        <time>2025-06-30T09:33:47Z</time>
      </trkpt>
      <trkpt lat="48.614" lon="-3.85903">
        <ele>8</ele>
        <time>2025-06-30T09:33:49Z</time>
      </trkpt>
      <trkpt lat="48.61414" lon="-3.85899">
        <ele>8.3</ele>
        <time>2025-06-30T09:33:51Z</time>
      </trkpt>
      <trkpt lat="48.61428" lon="-3.85893">
        <ele>8.5</ele>
        <time>2025-06-30T09:33:53Z</time>
      </trkpt>
      <trkpt lat="48.61442" lon="-3.85887">
        <ele>8.6</ele>
        <time>2025-06-30T09:33:55Z</time>
      </trkpt>
      <trkpt lat="48.61456" lon="-3.8588">
        <ele>8.7</ele>
        <time>2025-06-30T09:33:57Z</time>
      </trkpt>
      <trkpt lat="48.61469" lon="-3.85871">
        <ele>8.8</ele>
        <time>2025-06-30T09:33:59Z</time>
      </trkpt>
      <trkpt lat="48.61482" lon="-3.85862">
        <ele>8.9</ele>
        <time>2025-06-30T09:34:01Z</time>
      </trkpt>
      <trkpt lat="48.61495" lon="-3.85851">
        <ele>9</ele>
        <time>2025-06-30T09:34:03Z</time>
      </trkpt>
      <trkpt lat="48.61508" lon="-3.8584">
        <ele>9.1</ele>
        <time>2025-06-30T09:34:05Z</time>
      </trkpt>
      <trkpt lat="48.6152" lon="-3.85827">
        <ele>9.1</ele>
        <time>2025-06-30T09:34:07Z</time>
      </trkpt>
      <trkpt lat="48.61531" lon="-3.85812">
        <ele>9.1</ele>
        <time>2025-06-30T09:34:09Z</time>
      </trkpt>
      <trkpt lat="48.61543" lon="-3.85798">
        <ele>9</ele>
        <time>2025-06-30T09:34:11Z</time>
      </trkpt>
      <trkpt lat="48.61554" lon="-3.85784">
        <ele>8.9</ele>
        <time>2025-06-30T09:34:13Z</time>
      </trkpt>
      <trkpt lat="48.61565" lon="-3.85769">
        <ele>8.7</ele>
        <time>2025-06-30T09:34:15Z</time>
      </trkpt>
      <trkpt lat="48.61577" lon="-3.85754">
        <ele>8.7</ele>
        <time>2025-06-30T09:34:17Z</time>
      </trkpt>
      <trkpt lat="48.61589" lon="-3.8574">
        <ele>8.6</ele>
        <time>2025-06-30T09:34:19Z</time>
      </trkpt>
      <trkpt lat="48.61601" lon="-3.85725">
        <ele>8.5</ele>
        <time>2025-06-30T09:34:21Z</time>
      </trkpt>
      <trkpt lat="48.61613" lon="-3.8571">
        <ele>8.5</ele>
        <time>2025-06-30T09:34:23Z</time>
      </trkpt>
      <trkpt lat="48.61625" lon="-3.85695">
        <ele>8.5</ele>
        <time>2025-06-30T09:34:25Z</time>
      </trkpt>
      <trkpt lat="48.61637" lon="-3.8568">
        <ele>8.3</ele>
        <time>2025-06-30T09:34:27Z</time>
      </trkpt>
      <trkpt lat="48.61649" lon="-3.85664">
        <ele>8.1</ele>
        <time>2025-06-30T09:34:29Z</time>
      </trkpt>
      <trkpt lat="48.6166" lon="-3.85646">
        <ele>7.9</ele>
        <time>2025-06-30T09:34:31Z</time>
      </trkpt>
      <trkpt lat="48.6167" lon="-3.85628">
        <ele>7.7</ele>
        <time>2025-06-30T09:34:33Z</time>
      </trkpt>
      <trkpt lat="48.6168" lon="-3.85609">
        <ele>7.5</ele>
        <time>2025-06-30T09:34:35Z</time>
      </trkpt>
      <trkpt lat="48.61691" lon="-3.8559">
        <ele>7.4</ele>
        <time>2025-06-30T09:34:37Z</time>
      </trkpt>
      <trkpt lat="48.61701" lon="-3.85572">
        <ele>7.3</ele>
        <time>2025-06-30T09:34:39Z</time>
      </trkpt>
      <trkpt lat="48.61713" lon="-3.85555">
        <ele>7.3</ele>
        <time>2025-06-30T09:34:41Z</time>
      </trkpt>
      <trkpt lat="48.61725" lon="-3.85539">
        <ele>7.2</ele>
        <time>2025-06-30T09:34:43Z</time>
      </trkpt>
      <trkpt lat="48.61738" lon="-3.85526">
        <ele>7.1</ele>
        <time>2025-06-30T09:34:45Z</time>
      </trkpt>
      <trkpt lat="48.61753" lon="-3.85516">
        <ele>7</ele>
        <time>2025-06-30T09:34:47Z</time>
      </trkpt>
      <trkpt lat="48.61767" lon="-3.85509">
        <ele>6.9</ele>
        <time>2025-06-30T09:34:49Z</time>
      </trkpt>
      <trkpt lat="48.61782" lon="-3.85505">
        <ele>6.8</ele>
        <time>2025-06-30T09:34:51Z</time>
      </trkpt>
      <trkpt lat="48.61797" lon="-3.85503">
        <ele>6.7</ele>
        <time>2025-06-30T09:34:53Z</time>
      </trkpt>
      <trkpt lat="48.61812" lon="-3.85499">
        <ele>6.5</ele>
        <time>2025-06-30T09:34:55Z</time>
      </trkpt>
      <trkpt lat="48.61827" lon="-3.85495">
        <ele>6.3</ele>
        <time>2025-06-30T09:34:57Z</time>
      </trkpt>
      <trkpt lat="48.61842" lon="-3.8549">
        <ele>6.2</ele>
        <time>2025-06-30T09:34:59Z</time>
      </trkpt>
      <trkpt lat="48.61856" lon="-3.85483">
        <ele>6.1</ele>
        <time>2025-06-30T09:35:01Z</time>
      </trkpt>
      <trkpt lat="48.61871" lon="-3.85477">
        <ele>6.1</ele>
        <time>2025-06-30T09:35:03Z</time>
      </trkpt>
      <trkpt lat="48.61885" lon="-3.8547">
        <ele>6.2</ele>
        <time>2025-06-30T09:35:05Z</time>
      </trkpt>
      <trkpt lat="48.61899" lon="-3.85461">
        <ele>6.2</ele>
        <time>2025-06-30T09:35:07Z</time>
      </trkpt>
      <trkpt lat="48.61913" lon="-3.85452">
        <ele>6.2</ele>
        <time>2025-06-30T09:35:09Z</time>
      </trkpt>
      <trkpt lat="48.61927" lon="-3.85443">
        <ele>6.2</ele>
        <time>2025-06-30T09:35:11Z</time>
      </trkpt>
      <trkpt lat="48.6194" lon="-3.85433">
        <ele>6.1</ele>
        <time>2025-06-30T09:35:13Z</time>
      </trkpt>
      <trkpt lat="48.61954" lon="-3.85422">
        <ele>6.1</ele>
        <time>2025-06-30T09:35:15Z</time>
      </trkpt>
      <trkpt lat="48.61968" lon="-3.85411">
        <ele>6.2</ele>
        <time>2025-06-30T09:35:17Z</time>
      </trkpt>
      <trkpt lat="48.61982" lon="-3.85399">
        <ele>6.4</ele>
        <time>2025-06-30T09:35:19Z</time>
      </trkpt>
      <trkpt lat="48.61993" lon="-3.85386">
        <ele>6.5</ele>
        <time>2025-06-30T09:35:21Z</time>
      </trkpt>
      <trkpt lat="48.62003" lon="-3.85371">
        <ele>6.5</ele>
        <time>2025-06-30T09:35:23Z</time>
      </trkpt>
      <trkpt lat="48.62013" lon="-3.85353">
        <ele>6.4</ele>
        <time>2025-06-30T09:35:25Z</time>
      </trkpt>
      <trkpt lat="48.62021" lon="-3.85334">
        <ele>6.4</ele>
        <time>2025-06-30T09:35:27Z</time>
      </trkpt>
      <trkpt lat="48.62027" lon="-3.85313">
        <ele>6.3</ele>
        <time>2025-06-30T09:35:29Z</time>
      </trkpt>
      <trkpt lat="48.62035" lon="-3.85295">
        <ele>6.2</ele>
        <time>2025-06-30T09:35:31Z</time>
      </trkpt>
      <trkpt lat="48.62041" lon="-3.85274">
        <ele>6.2</ele>
        <time>2025-06-30T09:35:33Z</time>
      </trkpt>
      <trkpt lat="48.62047" lon="-3.85255">
        <ele>6.2</ele>
        <time>2025-06-30T09:35:35Z</time>
      </trkpt>
      <trkpt lat="48.62056" lon="-3.85237">
        <ele>6.3</ele>
        <time>2025-06-30T09:35:37Z</time>
      </trkpt>
      <trkpt lat="48.62065" lon="-3.85222">
        <ele>6.4</ele>
        <time>2025-06-30T09:35:39Z</time>
      </trkpt>
      <trkpt lat="48.62078" lon="-3.85212">
        <ele>6.5</ele>
        <time>2025-06-30T09:35:41Z</time>
      </trkpt>
      <trkpt lat="48.62089" lon="-3.852">
        <ele>6.6</ele>
        <time>2025-06-30T09:35:43Z</time>
      </trkpt>
      <trkpt lat="48.62102" lon="-3.85192">
        <ele>6.6</ele>
        <time>2025-06-30T09:35:45Z</time>
      </trkpt>
      <trkpt lat="48.62115" lon="-3.85186">
        <ele>6.5</ele>
        <time>2025-06-30T09:35:47Z</time>
      </trkpt>
      <trkpt lat="48.62129" lon="-3.85181">
        <ele>6.5</ele>
        <time>2025-06-30T09:35:49Z</time>
      </trkpt>
      <trkpt lat="48.62143" lon="-3.85179">
        <ele>6.4</ele>
        <time>2025-06-30T09:35:51Z</time>
      </trkpt>
      <trkpt lat="48.62157" lon="-3.85178">
        <ele>6.4</ele>
        <time>2025-06-30T09:35:53Z</time>
      </trkpt>
      <trkpt lat="48.62171" lon="-3.85175">
        <ele>6.3</ele>
        <time>2025-06-30T09:35:55Z</time>
      </trkpt>
      <trkpt lat="48.62186" lon="-3.85173">
        <ele>6.3</ele>
        <time>2025-06-30T09:35:57Z</time>
      </trkpt>
      <trkpt lat="48.622" lon="-3.85171">
        <ele>6.2</ele>
        <time>2025-06-30T09:35:59Z</time>
      </trkpt>
      <trkpt lat="48.62214" lon="-3.85168">
        <ele>6.2</ele>
        <time>2025-06-30T09:36:01Z</time>
      </trkpt>
      <trkpt lat="48.62228" lon="-3.85164">
        <ele>6.2</ele>
        <time>2025-06-30T09:36:03Z</time>
      </trkpt>
      <trkpt lat="48.62243" lon="-3.85159">
        <ele>6.1</ele>
        <time>2025-06-30T09:36:05Z</time>
      </trkpt>
      <trkpt lat="48.62257" lon="-3.85153">
        <ele>6.2</ele>
        <time>2025-06-30T09:36:07Z</time>
      </trkpt>
      <trkpt lat="48.62271" lon="-3.85146">
        <ele>6.3</ele>
        <time>2025-06-30T09:36:09Z</time>
      </trkpt>
      <trkpt lat="48.62285" lon="-3.85138">
        <ele>6.4</ele>
        <time>2025-06-30T09:36:11Z</time>
      </trkpt>
      <trkpt lat="48.62298" lon="-3.85129">
        <ele>6.6</ele>
        <time>2025-06-30T09:36:13Z</time>
      </trkpt>
      <trkpt lat="48.62311" lon="-3.85119">
        <ele>6.7</ele>
        <time>2025-06-30T09:36:15Z</time>
      </trkpt>
      <trkpt lat="48.62323" lon="-3.85109">
        <ele>6.9</ele>
        <time>2025-06-30T09:36:17Z</time>
      </trkpt>
      <trkpt lat="48.62335" lon="-3.85098">
        <ele>7</ele>
        <time>2025-06-30T09:36:19Z</time>
      </trkpt>
      <trkpt lat="48.62347" lon="-3.85086">
        <ele>7.1</ele>
        <time>2025-06-30T09:36:21Z</time>
      </trkpt>
      <trkpt lat="48.62359" lon="-3.85073">
        <ele>7.2</ele>
        <time>2025-06-30T09:36:23Z</time>
      </trkpt>
      <trkpt lat="48.6237" lon="-3.85059">
        <ele>7.3</ele>
        <time>2025-06-30T09:36:25Z</time>
      </trkpt>
      <trkpt lat="48.62381" lon="-3.85044">
        <ele>7.3</ele>
        <time>2025-06-30T09:36:27Z</time>
      </trkpt>
      <trkpt lat="48.62392" lon="-3.85029">
        <ele>7.4</ele>
        <time>2025-06-30T09:36:29Z</time>
      </trkpt>
      <trkpt lat="48.62402" lon="-3.85013">
        <ele>7.4</ele>
        <time>2025-06-30T09:36:31Z</time>
      </trkpt>
      <trkpt lat="48.62412" lon="-3.84997">
        <ele>7.4</ele>
        <time>2025-06-30T09:36:33Z</time>
      </trkpt>
      <trkpt lat="48.62422" lon="-3.84981">
        <ele>7.4</ele>
        <time>2025-06-30T09:36:35Z</time>
      </trkpt>
      <trkpt lat="48.62431" lon="-3.84965">
        <ele>7.4</ele>
        <time>2025-06-30T09:36:37Z</time>
      </trkpt>
      <trkpt lat="48.62442" lon="-3.8495">
        <ele>7.4</ele>
        <time>2025-06-30T09:36:39Z</time>
      </trkpt>
      <trkpt lat="48.62452" lon="-3.84936">
        <ele>7.4</ele>
        <time>2025-06-30T09:36:41Z</time>
      </trkpt>
      <trkpt lat="48.62463" lon="-3.84922">
        <ele>7.4</ele>
        <time>2025-06-30T09:36:43Z</time>
      </trkpt>
      <trkpt lat="48.62474" lon="-3.84907">
        <ele>7.2</ele>
        <time>2025-06-30T09:36:45Z</time>
      </trkpt>
      <trkpt lat="48.62485" lon="-3.84892">
        <ele>7</ele>
        <time>2025-06-30T09:36:47Z</time>
      </trkpt>
      <trkpt lat="48.62496" lon="-3.84877">
        <ele>6.9</ele>
        <time>2025-06-30T09:36:49Z</time>
      </trkpt>
      <trkpt lat="48.62508" lon="-3.84862">
        <ele>6.8</ele>
        <time>2025-06-30T09:36:51Z</time>
      </trkpt>
      <trkpt lat="48.62519" lon="-3.84846">
        <ele>6.7</ele>
        <time>2025-06-30T09:36:53Z</time>
      </trkpt>
      <trkpt lat="48.62529" lon="-3.8483">
        <ele>6.6</ele>
        <time>2025-06-30T09:36:55Z</time>
      </trkpt>
      <trkpt lat="48.6254" lon="-3.84814">
        <ele>6.6</ele>
        <time>2025-06-30T09:36:57Z</time>
      </trkpt>
      <trkpt lat="48.62551" lon="-3.84798">
        <ele>6.5</ele>
        <time>2025-06-30T09:36:59Z</time>
      </trkpt>
      <trkpt lat="48.62561" lon="-3.84781">
        <ele>6.4</ele>
        <time>2025-06-30T09:37:01Z</time>
      </trkpt>
      <trkpt lat="48.62571" lon="-3.84764">
        <ele>6.3</ele>
        <time>2025-06-30T09:37:03Z</time>
      </trkpt>
      <trkpt lat="48.62582" lon="-3.84747">
        <ele>6.2</ele>
        <time>2025-06-30T09:37:05Z</time>
      </trkpt>
      <trkpt lat="48.62593" lon="-3.8473">
        <ele>6.2</ele>
        <time>2025-06-30T09:37:07Z</time>
      </trkpt>
      <trkpt lat="48.62604" lon="-3.84715">
        <ele>6.2</ele>
        <time>2025-06-30T09:37:09Z</time>
      </trkpt>
      <trkpt lat="48.62615" lon="-3.84699">
        <ele>6.1</ele>
        <time>2025-06-30T09:37:11Z</time>
      </trkpt>
      <trkpt lat="48.62627" lon="-3.84684">
        <ele>6.1</ele>
        <time>2025-06-30T09:37:13Z</time>
      </trkpt>
      <trkpt lat="48.62639" lon="-3.8467">
        <ele>6.1</ele>
        <time>2025-06-30T09:37:15Z</time>
      </trkpt>
      <trkpt lat="48.62651" lon="-3.84655">
        <ele>6.1</ele>
        <time>2025-06-30T09:37:17Z</time>
      </trkpt>
      <trkpt lat="48.62663" lon="-3.8464">
        <ele>6.2</ele>
        <time>2025-06-30T09:37:19Z</time>
      </trkpt>
      <trkpt lat="48.62674" lon="-3.84624">
        <ele>6.4</ele>
        <time>2025-06-30T09:37:21Z</time>
      </trkpt>
      <trkpt lat="48.62685" lon="-3.84608">
        <ele>6.6</ele>
        <time>2025-06-30T09:37:23Z</time>
      </trkpt>
      <trkpt lat="48.62695" lon="-3.84592">
        <ele>6.9</ele>
        <time>2025-06-30T09:37:25Z</time>
      </trkpt>
      <trkpt lat="48.62704" lon="-3.84576">
        <ele>7.2</ele>
        <time>2025-06-30T09:37:27Z</time>
      </trkpt>
      <trkpt lat="48.62712" lon="-3.84561">
        <ele>7.5</ele>
        <time>2025-06-30T09:37:29Z</time>
      </trkpt>
      <trkpt lat="48.6272" lon="-3.84547">
        <ele>7.8</ele>
        <time>2025-06-30T09:37:31Z</time>
      </trkpt>
      <trkpt lat="48.62728" lon="-3.84534">
        <ele>8</ele>
        <time>2025-06-30T09:37:33Z</time>
      </trkpt>
      <trkpt lat="48.62735" lon="-3.84521">
        <ele>8.1</ele>
        <time>2025-06-30T09:37:35Z</time>
      </trkpt>
      <trkpt lat="48.62743" lon="-3.84508">
        <ele>8.2</ele>
        <time>2025-06-30T09:37:37Z</time>
      </trkpt>
      <trkpt lat="48.6275" lon="-3.84496">
        <ele>8.3</ele>
        <time>2025-06-30T09:37:39Z</time>
      </trkpt>
      <trkpt lat="48.62756" lon="-3.84483">
        <ele>8.4</ele>
        <time>2025-06-30T09:37:41Z</time>
      </trkpt>
      <trkpt lat="48.62763" lon="-3.84473">
        <ele>8.5</ele>
        <time>2025-06-30T09:37:43Z</time>
      </trkpt>
      <trkpt lat="48.62769" lon="-3.84462">
        <ele>8.7</ele>
        <time>2025-06-30T09:37:45Z</time>
      </trkpt>
      <trkpt lat="48.62791" lon="-3.84424">
        <ele>9.1</ele>
        <time>2025-06-30T09:39:59Z</time>
      </trkpt>
      <trkpt lat="48.62797" lon="-3.84413">
        <ele>9.2</ele>
        <time>2025-06-30T09:40:01Z</time>
      </trkpt>
      <trkpt lat="48.62803" lon="-3.84402">
        <ele>9.2</ele>
        <time>2025-06-30T09:40:03Z</time>
      </trkpt>
      <trkpt lat="48.62811" lon="-3.8439">
        <ele>9.2</ele>
        <time>2025-06-30T09:40:05Z</time>
      </trkpt>
      <trkpt lat="48.62817" lon="-3.84377">
        <ele>9.1</ele>
        <time>2025-06-30T09:40:07Z</time>
      </trkpt>
      <trkpt lat="48.62825" lon="-3.84365">
        <ele>9</ele>
        <time>2025-06-30T09:40:09Z</time>
      </trkpt>
      <trkpt lat="48.62833" lon="-3.84352">
        <ele>9</ele>
        <time>2025-06-30T09:40:11Z</time>
      </trkpt>
      <trkpt lat="48.62841" lon="-3.84337">
        <ele>9</ele>
        <time>2025-06-30T09:40:13Z</time>
      </trkpt>
      <trkpt lat="48.62849" lon="-3.84322">
        <ele>9</ele>
        <time>2025-06-30T09:40:15Z</time>
      </trkpt>
      <trkpt lat="48.62858" lon="-3.84307">
        <ele>8.9</ele>
        <time>2025-06-30T09:40:17Z</time>
      </trkpt>
      <trkpt lat="48.62867" lon="-3.84292">
        <ele>8.9</ele>
        <time>2025-06-30T09:40:19Z</time>
      </trkpt>
      <trkpt lat="48.62876" lon="-3.84276">
        <ele>8.9</ele>
        <time>2025-06-30T09:40:21Z</time>
      </trkpt>
      <trkpt lat="48.62885" lon="-3.84259">
        <ele>8.9</ele>
        <time>2025-06-30T09:40:23Z</time>
      </trkpt>
      <trkpt lat="48.62894" lon="-3.84242">
        <ele>8.7</ele>
        <time>2025-06-30T09:40:25Z</time>
      </trkpt>
      <trkpt lat="48.62902" lon="-3.84223">
        <ele>8.6</ele>
        <time>2025-06-30T09:40:27Z</time>
      </trkpt>
      <trkpt lat="48.6291" lon="-3.84203">
        <ele>8.5</ele>
        <time>2025-06-30T09:40:29Z</time>
      </trkpt>
      <trkpt lat="48.62917" lon="-3.84181">
        <ele>8.5</ele>
        <time>2025-06-30T09:40:31Z</time>
      </trkpt>
      <trkpt lat="48.62924" lon="-3.8416">
        <ele>8.7</ele>
        <time>2025-06-30T09:40:33Z</time>
      </trkpt>
      <trkpt lat="48.62929" lon="-3.84138">
        <ele>8.9</ele>
        <time>2025-06-30T09:40:35Z</time>
      </trkpt>
      <trkpt lat="48.62935" lon="-3.84117">
        <ele>9.2</ele>
        <time>2025-06-30T09:40:37Z</time>
      </trkpt>
      <trkpt lat="48.6294" lon="-3.84097">
        <ele>9.5</ele>
        <time>2025-06-30T09:40:39Z</time>
      </trkpt>
      <trkpt lat="48.62945" lon="-3.84078">
        <ele>9.8</ele>
        <time>2025-06-30T09:40:41Z</time>
      </trkpt>
      <trkpt lat="48.6295" lon="-3.84059">
        <ele>10.1</ele>
        <time>2025-06-30T09:40:43Z</time>
      </trkpt>
      <trkpt lat="48.62955" lon="-3.8404">
        <ele>10.6</ele>
        <time>2025-06-30T09:40:45Z</time>
      </trkpt>
      <trkpt lat="48.62961" lon="-3.84022">
        <ele>11.1</ele>
        <time>2025-06-30T09:40:47Z</time>
      </trkpt>
      <trkpt lat="48.62966" lon="-3.84002">
        <ele>11.5</ele>
        <time>2025-06-30T09:40:49Z</time>
      </trkpt>
      <trkpt lat="48.6297" lon="-3.83983">
        <ele>12</ele>
        <time>2025-06-30T09:40:51Z</time>
      </trkpt>
      <trkpt lat="48.62976" lon="-3.83963">
        <ele>12.5</ele>
        <time>2025-06-30T09:40:53Z</time>
      </trkpt>
      <trkpt lat="48.6298" lon="-3.83944">
        <ele>13</ele>
        <time>2025-06-30T09:40:55Z</time>
      </trkpt>
      <trkpt lat="48.62985" lon="-3.83925">
        <ele>13.4</ele>
        <time>2025-06-30T09:40:57Z</time>
      </trkpt>
      <trkpt lat="48.62989" lon="-3.83906">
        <ele>13.9</ele>
        <time>2025-06-30T09:40:59Z</time>
      </trkpt>
      <trkpt lat="48.62992" lon="-3.83888">
        <ele>14.3</ele>
        <time>2025-06-30T09:41:01Z</time>
      </trkpt>
      <trkpt lat="48.62995" lon="-3.83869">
        <ele>14.8</ele>
        <time>2025-06-30T09:41:03Z</time>
      </trkpt>
      <trkpt lat="48.62996" lon="-3.8385">
        <ele>15.3</ele>
        <time>2025-06-30T09:41:05Z</time>
      </trkpt>
      <trkpt lat="48.62999" lon="-3.83831">
        <ele>15.7</ele>
        <time>2025-06-30T09:41:07Z</time>
      </trkpt>
      <trkpt lat="48.63" lon="-3.83812">
        <ele>16.2</ele>
        <time>2025-06-30T09:41:09Z</time>
      </trkpt>
      <trkpt lat="48.63001" lon="-3.83794">
        <ele>16.6</ele>
        <time>2025-06-30T09:41:11Z</time>
      </trkpt>
      <trkpt lat="48.63001" lon="-3.83776">
        <ele>16.9</ele>
        <time>2025-06-30T09:41:13Z</time>
      </trkpt>
      <trkpt lat="48.63002" lon="-3.83759">
        <ele>17.3</ele>
        <time>2025-06-30T09:41:15Z</time>
      </trkpt>
      <trkpt lat="48.63003" lon="-3.83742">
        <ele>17.7</ele>
        <time>2025-06-30T09:41:17Z</time>
      </trkpt>
      <trkpt lat="48.63003" lon="-3.83725">
        <ele>18.1</ele>
        <time>2025-06-30T09:41:19Z</time>
      </trkpt>
      <trkpt lat="48.63004" lon="-3.83708">
        <ele>18.5</ele>
        <time>2025-06-30T09:41:21Z</time>
      </trkpt>
      <trkpt lat="48.63005" lon="-3.83691">
        <ele>18.9</ele>
        <time>2025-06-30T09:41:23Z</time>
      </trkpt>
      <trkpt lat="48.63005" lon="-3.83673">
        <ele>19.3</ele>
        <time>2025-06-30T09:41:25Z</time>
      </trkpt>
      <trkpt lat="48.63006" lon="-3.83656">
        <ele>19.7</ele>
        <time>2025-06-30T09:41:27Z</time>
      </trkpt>
      <trkpt lat="48.63007" lon="-3.83639">
        <ele>20.2</ele>
        <time>2025-06-30T09:41:29Z</time>
      </trkpt>
      <trkpt lat="48.63007" lon="-3.83623">
        <ele>20.7</ele>
        <time>2025-06-30T09:41:31Z</time>
      </trkpt>
      <trkpt lat="48.63009" lon="-3.83606">
        <ele>21.1</ele>
        <time>2025-06-30T09:41:33Z</time>
      </trkpt>
      <trkpt lat="48.6301" lon="-3.83589">
        <ele>21.6</ele>
        <time>2025-06-30T09:41:35Z</time>
      </trkpt>
      <trkpt lat="48.63012" lon="-3.83573">
        <ele>22.1</ele>
        <time>2025-06-30T09:41:37Z</time>
      </trkpt>
      <trkpt lat="48.63013" lon="-3.83557">
        <ele>22.5</ele>
        <time>2025-06-30T09:41:39Z</time>
      </trkpt>
      <trkpt lat="48.63015" lon="-3.83541">
        <ele>23</ele>
        <time>2025-06-30T09:41:41Z</time>
      </trkpt>
      <trkpt lat="48.63017" lon="-3.83524">
        <ele>23.5</ele>
        <time>2025-06-30T09:41:43Z</time>
      </trkpt>
      <trkpt lat="48.6302" lon="-3.83508">
        <ele>24</ele>
        <time>2025-06-30T09:41:45Z</time>
      </trkpt>
      <trkpt lat="48.63022" lon="-3.83492">
        <ele>24.5</ele>
        <time>2025-06-30T09:41:47Z</time>
      </trkpt>
      <trkpt lat="48.63024" lon="-3.83475">
        <ele>25.1</ele>
        <time>2025-06-30T09:41:49Z</time>
      </trkpt>
      <trkpt lat="48.63027" lon="-3.83458">
        <ele>25.6</ele>
        <time>2025-06-30T09:41:51Z</time>
      </trkpt>
      <trkpt lat="48.63029" lon="-3.83442">
        <ele>26.2</ele>
        <time>2025-06-30T09:41:53Z</time>
      </trkpt>
      <trkpt lat="48.63033" lon="-3.83425">
        <ele>26.6</ele>
        <time>2025-06-30T09:41:55Z</time>
      </trkpt>
      <trkpt lat="48.63034" lon="-3.83408">
        <ele>27</ele>
        <time>2025-06-30T09:41:57Z</time>
      </trkpt>
      <trkpt lat="48.63036" lon="-3.83391">
        <ele>27.4</ele>
        <time>2025-06-30T09:41:59Z</time>
      </trkpt>
      <trkpt lat="48.63037" lon="-3.83374">
        <ele>27.9</ele>
        <time>2025-06-30T09:42:01Z</time>
      </trkpt>
      <trkpt lat="48.63039" lon="-3.83356">
        <ele>28.3</ele>
        <time>2025-06-30T09:42:03Z</time>
      </trkpt>
      <trkpt lat="48.63039" lon="-3.83338">
        <ele>28.8</ele>
        <time>2025-06-30T09:42:05Z</time>
      </trkpt>
      <trkpt lat="48.63039" lon="-3.83321">
        <ele>29.2</ele>
        <time>2025-06-30T09:42:07Z</time>
      </trkpt>
      <trkpt lat="48.63038" lon="-3.83303">
        <ele>29.6</ele>
        <time>2025-06-30T09:42:09Z</time>
      </trkpt>
      <trkpt lat="48.63037" lon="-3.83287">
        <ele>30</ele>
        <time>2025-06-30T09:42:11Z</time>
      </trkpt>
      <trkpt lat="48.63035" lon="-3.83269">
        <ele>30.4</ele>
        <time>2025-06-30T09:42:13Z</time>
      </trkpt>
      <trkpt lat="48.63033" lon="-3.83253">
        <ele>30.7</ele>
        <time>2025-06-30T09:42:15Z</time>
      </trkpt>
      <trkpt lat="48.63029" lon="-3.83235">
        <ele>31</ele>
        <time>2025-06-30T09:42:17Z</time>
      </trkpt>
      <trkpt lat="48.63026" lon="-3.83219">
        <ele>31.3</ele>
        <time>2025-06-30T09:42:19Z</time>
      </trkpt>
      <trkpt lat="48.63022" lon="-3.83202">
        <ele>31.6</ele>
        <time>2025-06-30T09:42:21Z</time>
      </trkpt>
      <trkpt lat="48.63018" lon="-3.83185">
        <ele>32</ele>
        <time>2025-06-30T09:42:23Z</time>
      </trkpt>
      <trkpt lat="48.63013" lon="-3.8317">
        <ele>32.4</ele>
        <time>2025-06-30T09:42:25Z</time>
      </trkpt>
      <trkpt lat="48.63009" lon="-3.83154">
        <ele>32.9</ele>
        <time>2025-06-30T09:42:27Z</time>
      </trkpt>
      <trkpt lat="48.63004" lon="-3.83139">
        <ele>33.4</ele>
        <time>2025-06-30T09:42:29Z</time>
      </trkpt>
      <trkpt lat="48.62999" lon="-3.83123">
        <ele>33.9</ele>
        <time>2025-06-30T09:42:31Z</time>
      </trkpt>
      <trkpt lat="48.62995" lon="-3.83107">
        <ele>34.3</ele>
        <time>2025-06-30T09:42:33Z</time>
      </trkpt>
      <trkpt lat="48.6299" lon="-3.83091">
        <ele>34.7</ele>
        <time>2025-06-30T09:42:35Z</time>
      </trkpt>
      <trkpt lat="48.62986" lon="-3.83074">
        <ele>35</ele>
        <time>2025-06-30T09:42:37Z</time>
      </trkpt>
      <trkpt lat="48.62982" lon="-3.83057">
        <ele>35.3</ele>
        <time>2025-06-30T09:42:39Z</time>
      </trkpt>
      <trkpt lat="48.62979" lon="-3.83041">
        <ele>35.7</ele>
        <time>2025-06-30T09:42:41Z</time>
      </trkpt>
      <trkpt lat="48.62976" lon="-3.83024">
        <ele>36</ele>
        <time>2025-06-30T09:42:43Z</time>
      </trkpt>
      <trkpt lat="48.62973" lon="-3.83007">
        <ele>36.4</ele>
        <time>2025-06-30T09:42:45Z</time>
      </trkpt>
      <trkpt lat="48.6297" lon="-3.8299">
        <ele>36.7</ele>
        <time>2025-06-30T09:42:47Z</time>
      </trkpt>
      <trkpt lat="48.62967" lon="-3.82973">
        <ele>37.1</ele>
        <time>2025-06-30T09:42:49Z</time>
      </trkpt>
      <trkpt lat="48.62964" lon="-3.82956">
        <ele>37.5</ele>
        <time>2025-06-30T09:42:51Z</time>
      </trkpt>
      <trkpt lat="48.62961" lon="-3.82939">
        <ele>37.8</ele>
        <time>2025-06-30T09:42:53Z</time>
      </trkpt>
      <trkpt lat="48.62959" lon="-3.82921">
        <ele>38.2</ele>
        <time>2025-06-30T09:42:55Z</time>
      </trkpt>
      <trkpt lat="48.62956" lon="-3.82904">
        <ele>38.6</ele>
        <time>2025-06-30T09:42:57Z</time>
      </trkpt>
      <trkpt lat="48.62954" lon="-3.82887">
        <ele>39</ele>
        <time>2025-06-30T09:42:59Z</time>
      </trkpt>
      <trkpt lat="48.62954" lon="-3.82869">
        <ele>39.3</ele>
        <time>2025-06-30T09:43:01Z</time>
      </trkpt>
      <trkpt lat="48.62953" lon="-3.82852">
        <ele>39.6</ele>
        <time>2025-06-30T09:43:03Z</time>
      </trkpt>
      <trkpt lat="48.62954" lon="-3.82835">
        <ele>40</ele>
        <time>2025-06-30T09:43:05Z</time>
      </trkpt>
      <trkpt lat="48.62956" lon="-3.82818">
        <ele>40.3</ele>
        <time>2025-06-30T09:43:07Z</time>
      </trkpt>
      <trkpt lat="48.62961" lon="-3.82802">
        <ele>40.7</ele>
        <time>2025-06-30T09:43:09Z</time>
      </trkpt>
      <trkpt lat="48.62965" lon="-3.82786">
        <ele>41.1</ele>
        <time>2025-06-30T09:43:11Z</time>
      </trkpt>
      <trkpt lat="48.62971" lon="-3.82772">
        <ele>41.6</ele>
        <time>2025-06-30T09:43:13Z</time>
      </trkpt>
      <trkpt lat="48.62978" lon="-3.82759">
        <ele>42</ele>
        <time>2025-06-30T09:43:15Z</time>
      </trkpt>
      <trkpt lat="48.62986" lon="-3.82746">
        <ele>42.5</ele>
        <time>2025-06-30T09:43:17Z</time>
      </trkpt>
      <trkpt lat="48.62994" lon="-3.82734">
        <ele>42.8</ele>
        <time>2025-06-30T09:43:19Z</time>
      </trkpt>
      <trkpt lat="48.63003" lon="-3.82723">
        <ele>43.2</ele>
        <time>2025-06-30T09:43:21Z</time>
      </trkpt>
      <trkpt lat="48.63012" lon="-3.82712">
        <ele>43.6</ele>
        <time>2025-06-30T09:43:23Z</time>
      </trkpt>
      <trkpt lat="48.6302" lon="-3.82701">
        <ele>44</ele>
        <time>2025-06-30T09:43:25Z</time>
      </trkpt>
      <trkpt lat="48.63029" lon="-3.8269">
        <ele>44.3</ele>
        <time>2025-06-30T09:43:27Z</time>
      </trkpt>
      <trkpt lat="48.63038" lon="-3.82678">
        <ele>44.7</ele>
        <time>2025-06-30T09:43:29Z</time>
      </trkpt>
      <trkpt lat="48.63046" lon="-3.82667">
        <ele>45</ele>
        <time>2025-06-30T09:43:31Z</time>
      </trkpt>
      <trkpt lat="48.63054" lon="-3.82656">
        <ele>45.3</ele>
        <time>2025-06-30T09:43:33Z</time>
      </trkpt>
      <trkpt lat="48.63064" lon="-3.82646">
        <ele>45.6</ele>
        <time>2025-06-30T09:43:35Z</time>
      </trkpt>
      <trkpt lat="48.63073" lon="-3.82636">
        <ele>45.9</ele>
        <time>2025-06-30T09:43:37Z</time>
      </trkpt>
      <trkpt lat="48.63082" lon="-3.82627">
        <ele>46.2</ele>
        <time>2025-06-30T09:43:39Z</time>
      </trkpt>
      <trkpt lat="48.63093" lon="-3.8262">
        <ele>46.4</ele>
        <time>2025-06-30T09:43:41Z</time>
      </trkpt>
      <trkpt lat="48.63104" lon="-3.82615">
        <ele>46.5</ele>
        <time>2025-06-30T09:43:43Z</time>
      </trkpt>
      <trkpt lat="48.63115" lon="-3.82611">
        <ele>46.5</ele>
        <time>2025-06-30T09:43:45Z</time>
      </trkpt>
      <trkpt lat="48.63126" lon="-3.8261">
        <ele>46.4</ele>
        <time>2025-06-30T09:43:47Z</time>
      </trkpt>
      <trkpt lat="48.63139" lon="-3.8261">
        <ele>46.3</ele>
        <time>2025-06-30T09:43:49Z</time>
      </trkpt>
      <trkpt lat="48.63151" lon="-3.82607">
        <ele>46.5</ele>
        <time>2025-06-30T09:43:51Z</time>
      </trkpt>
      <trkpt lat="48.63163" lon="-3.82608">
        <ele>46.7</ele>
        <time>2025-06-30T09:43:53Z</time>
      </trkpt>
      <trkpt lat="48.63175" lon="-3.82606">
        <ele>47</ele>
        <time>2025-06-30T09:43:55Z</time>
      </trkpt>
      <trkpt lat="48.63186" lon="-3.82602">
        <ele>47.4</ele>
        <time>2025-06-30T09:43:57Z</time>
      </trkpt>
      <trkpt lat="48.63197" lon="-3.82598">
        <ele>47.7</ele>
        <time>2025-06-30T09:43:59Z</time>
      </trkpt>
      <trkpt lat="48.63206" lon="-3.82592">
        <ele>48.1</ele>
        <time>2025-06-30T09:44:01Z</time>
      </trkpt>
      <trkpt lat="48.63215" lon="-3.82585">
        <ele>48.7</ele>
        <time>2025-06-30T09:44:03Z</time>
      </trkpt>
      <trkpt lat="48.63222" lon="-3.82575">
        <ele>49.2</ele>
        <time>2025-06-30T09:44:05Z</time>
      </trkpt>
      <trkpt lat="48.63229" lon="-3.82564">
        <ele>49.7</ele>
        <time>2025-06-30T09:44:07Z</time>
      </trkpt>
      <trkpt lat="48.63234" lon="-3.82551">
        <ele>50.2</ele>
        <time>2025-06-30T09:44:09Z</time>
      </trkpt>
      <trkpt lat="48.63239" lon="-3.82538">
        <ele>50.7</ele>
        <time>2025-06-30T09:44:11Z</time>
      </trkpt>
      <trkpt lat="48.63243" lon="-3.82524">
        <ele>51.1</ele>
        <time>2025-06-30T09:44:13Z</time>
      </trkpt>
      <trkpt lat="48.63246" lon="-3.8251">
        <ele>51.6</ele>
        <time>2025-06-30T09:44:15Z</time>
      </trkpt>
      <trkpt lat="48.63249" lon="-3.82496">
        <ele>52</ele>
        <time>2025-06-30T09:44:17Z</time>
      </trkpt>
      <trkpt lat="48.63252" lon="-3.82482">
        <ele>52.3</ele>
        <time>2025-06-30T09:44:19Z</time>
      </trkpt>
      <trkpt lat="48.63255" lon="-3.82468">
        <ele>52.7</ele>
        <time>2025-06-30T09:44:21Z</time>
      </trkpt>
      <trkpt lat="48.63258" lon="-3.82454">
        <ele>53.1</ele>
        <time>2025-06-30T09:44:23Z</time>
      </trkpt>
      <trkpt lat="48.63261" lon="-3.8244">
        <ele>53.4</ele>
        <time>2025-06-30T09:44:25Z</time>
      </trkpt>
      <trkpt lat="48.63264" lon="-3.82427">
        <ele>53.8</ele>
        <time>2025-06-30T09:44:27Z</time>
      </trkpt>
      <trkpt lat="48.63268" lon="-3.82413">
        <ele>54.1</ele>
        <time>2025-06-30T09:44:29Z</time>
      </trkpt>
      <trkpt lat="48.63273" lon="-3.82399">
        <ele>54.4</ele>
        <time>2025-06-30T09:44:31Z</time>
      </trkpt>
      <trkpt lat="48.63277" lon="-3.82385">
        <ele>54.7</ele>
        <time>2025-06-30T09:44:33Z</time>
      </trkpt>
      <trkpt lat="48.63282" lon="-3.82372">
        <ele>55</ele>
        <time>2025-06-30T09:44:35Z</time>
      </trkpt>
      <trkpt lat="48.63288" lon="-3.8236">
        <ele>55.4</ele>
        <time>2025-06-30T09:44:37Z</time>
      </trkpt>
      <trkpt lat="48.63295" lon="-3.82349">
        <ele>55.7</ele>
        <time>2025-06-30T09:44:39Z</time>
      </trkpt>
      <trkpt lat="48.63301" lon="-3.82338">
        <ele>56.1</ele>
        <time>2025-06-30T09:44:41Z</time>
      </trkpt>
      <trkpt lat="48.63309" lon="-3.82328">
        <ele>56.4</ele>
        <time>2025-06-30T09:44:43Z</time>
      </trkpt>
      <trkpt lat="48.63317" lon="-3.8232">
        <ele>56.7</ele>
        <time>2025-06-30T09:44:45Z</time>
      </trkpt>
      <trkpt lat="48.63326" lon="-3.82312">
        <ele>57</ele>
        <time>2025-06-30T09:44:47Z</time>
      </trkpt>
      <trkpt lat="48.63335" lon="-3.82304">
        <ele>57.3</ele>
        <time>2025-06-30T09:44:49Z</time>
      </trkpt>
      <trkpt lat="48.63344" lon="-3.82297">
        <ele>57.5</ele>
        <time>2025-06-30T09:44:51Z</time>
      </trkpt>
      <trkpt lat="48.63353" lon="-3.82291">
        <ele>57.7</ele>
        <time>2025-06-30T09:44:53Z</time>
      </trkpt>
      <trkpt lat="48.63363" lon="-3.82285">
        <ele>58</ele>
        <time>2025-06-30T09:44:55Z</time>
      </trkpt>
      <trkpt lat="48.63372" lon="-3.8228">
        <ele>58.3</ele>
        <time>2025-06-30T09:44:57Z</time>
      </trkpt>
      <trkpt lat="48.63382" lon="-3.82275">
        <ele>58.5</ele>
        <time>2025-06-30T09:44:59Z</time>
      </trkpt>
      <trkpt lat="48.63391" lon="-3.8227">
        <ele>58.8</ele>
        <time>2025-06-30T09:45:01Z</time>
      </trkpt>
      <trkpt lat="48.63401" lon="-3.82266">
        <ele>59.1</ele>
        <time>2025-06-30T09:45:03Z</time>
      </trkpt>
      <trkpt lat="48.63411" lon="-3.82263">
        <ele>59.5</ele>
        <time>2025-06-30T09:45:05Z</time>
      </trkpt>
      <trkpt lat="48.6342" lon="-3.82259">
        <ele>59.9</ele>
        <time>2025-06-30T09:45:07Z</time>
      </trkpt>
      <trkpt lat="48.6343" lon="-3.82256">
        <ele>60.3</ele>
        <time>2025-06-30T09:45:09Z</time>
      </trkpt>
      <trkpt lat="48.6344" lon="-3.82254">
        <ele>60.8</ele>
        <time>2025-06-30T09:45:11Z</time>
      </trkpt>
      <trkpt lat="48.63449" lon="-3.82252">
        <ele>61.1</ele>
        <time>2025-06-30T09:45:13Z</time>
      </trkpt>
      <trkpt lat="48.63458" lon="-3.82249">
        <ele>61.4</ele>
        <time>2025-06-30T09:45:15Z</time>
      </trkpt>
      <trkpt lat="48.63467" lon="-3.82246">
        <ele>61.8</ele>
        <time>2025-06-30T09:45:17Z</time>
      </trkpt>
      <trkpt lat="48.63476" lon="-3.82244">
        <ele>62.2</ele>
        <time>2025-06-30T09:45:19Z</time>
      </trkpt>
      <trkpt lat="48.63485" lon="-3.82241">
        <ele>62.9</ele>
        <time>2025-06-30T09:45:21Z</time>
      </trkpt>
      <trkpt lat="48.63498" lon="-3.82237">
        <ele>63.9</ele>
        <time>2025-06-30T09:45:24Z</time>
      </trkpt>
      <trkpt lat="48.63511" lon="-3.82233">
        <ele>64.8</ele>
        <time>2025-06-30T09:45:27Z</time>
      </trkpt>
      <trkpt lat="48.63523" lon="-3.8223">
        <ele>65.8</ele>
        <time>2025-06-30T09:45:30Z</time>
      </trkpt>
      <trkpt lat="48.63535" lon="-3.82226">
        <ele>66.7</ele>
        <time>2025-06-30T09:45:33Z</time>
      </trkpt>
      <trkpt lat="48.63547" lon="-3.82223">
        <ele>67.7</ele>
        <time>2025-06-30T09:45:36Z</time>
      </trkpt>
      <trkpt lat="48.63558" lon="-3.82219">
        <ele>68.6</ele>
        <time>2025-06-30T09:45:39Z</time>
      </trkpt>
      <trkpt lat="48.63569" lon="-3.82216">
        <ele>69.5</ele>
        <time>2025-06-30T09:45:42Z</time>
      </trkpt>
      <trkpt lat="48.6358" lon="-3.82213">
        <ele>70.4</ele>
        <time>2025-06-30T09:45:45Z</time>
      </trkpt>
      <trkpt lat="48.63591" lon="-3.82209">
        <ele>71.3</ele>
        <time>2025-06-30T09:45:48Z</time>
      </trkpt>
      <trkpt lat="48.63601" lon="-3.82206">
        <ele>72.1</ele>
        <time>2025-06-30T09:45:51Z</time>
      </trkpt>
      <trkpt lat="48.63613" lon="-3.82204">
        <ele>73</ele>
        <time>2025-06-30T09:45:54Z</time>
      </trkpt>
      <trkpt lat="48.63623" lon="-3.82201">
        <ele>73.8</ele>
        <time>2025-06-30T09:45:57Z</time>
      </trkpt>
      <trkpt lat="48.63634" lon="-3.82198">
        <ele>74.6</ele>
        <time>2025-06-30T09:46:00Z</time>
      </trkpt>
      <trkpt lat="48.63645" lon="-3.82195">
        <ele>75.4</ele>
        <time>2025-06-30T09:46:03Z</time>
      </trkpt>
      <trkpt lat="48.63656" lon="-3.82192">
        <ele>76.2</ele>
        <time>2025-06-30T09:46:06Z</time>
      </trkpt>
      <trkpt lat="48.63667" lon="-3.82189">
        <ele>76.9</ele>
        <time>2025-06-30T09:46:09Z</time>
      </trkpt>
      <trkpt lat="48.63677" lon="-3.82186">
        <ele>77.6</ele>
        <time>2025-06-30T09:46:12Z</time>
      </trkpt>
      <trkpt lat="48.63688" lon="-3.82184">
        <ele>78.3</ele>
        <time>2025-06-30T09:46:15Z</time>
      </trkpt>
      <trkpt lat="48.63699" lon="-3.82182">
        <ele>79</ele>
        <time>2025-06-30T09:46:18Z</time>
      </trkpt>
      <trkpt lat="48.6371" lon="-3.8218">
        <ele>79.7</ele>
        <time>2025-06-30T09:46:21Z</time>
      </trkpt>
      <trkpt lat="48.63721" lon="-3.82178">
        <ele>80.5</ele>
        <time>2025-06-30T09:46:24Z</time>
      </trkpt>
      <trkpt lat="48.63732" lon="-3.82176">
        <ele>81.2</ele>
        <time>2025-06-30T09:46:27Z</time>
      </trkpt>
      <trkpt lat="48.63743" lon="-3.82174">
        <ele>81.8</ele>
        <time>2025-06-30T09:46:30Z</time>
      </trkpt>
      <trkpt lat="48.63754" lon="-3.82173">
        <ele>82.5</ele>
        <time>2025-06-30T09:46:33Z</time>
      </trkpt>
      <trkpt lat="48.63766" lon="-3.82171">
        <ele>83.1</ele>
        <time>2025-06-30T09:46:36Z</time>
      </trkpt>
      <trkpt lat="48.63777" lon="-3.82169">
        <ele>83.7</ele>
        <time>2025-06-30T09:46:39Z</time>
      </trkpt>
      <trkpt lat="48.63788" lon="-3.82167">
        <ele>84.4</ele>
        <time>2025-06-30T09:46:42Z</time>
      </trkpt>
      <trkpt lat="48.63799" lon="-3.82166">
        <ele>85</ele>
        <time>2025-06-30T09:46:45Z</time>
      </trkpt>
      <trkpt lat="48.6381" lon="-3.82163">
        <ele>85.6</ele>
        <time>2025-06-30T09:46:48Z</time>
      </trkpt>
      <trkpt lat="48.63821" lon="-3.82156">
        <ele>86</ele>
        <time>2025-06-30T09:46:51Z</time>
      </trkpt>
      <trkpt lat="48.63832" lon="-3.82155">
        <ele>86.3</ele>
        <time>2025-06-30T09:46:54Z</time>
      </trkpt>
      <trkpt lat="48.63844" lon="-3.82156">
        <ele>86.7</ele>
        <time>2025-06-30T09:46:57Z</time>
      </trkpt>
      <trkpt lat="48.63855" lon="-3.82155">
        <ele>87.2</ele>
        <time>2025-06-30T09:47:00Z</time>
      </trkpt>
      <trkpt lat="48.63866" lon="-3.82153">
        <ele>87.7</ele>
        <time>2025-06-30T09:47:03Z</time>
      </trkpt>
      <trkpt lat="48.63877" lon="-3.82151">
        <ele>88.2</ele>
        <time>2025-06-30T09:47:06Z</time>
      </trkpt>
      <trkpt lat="48.63889" lon="-3.8215">
        <ele>88.8</ele>
        <time>2025-06-30T09:47:09Z</time>
      </trkpt>
      <trkpt lat="48.639" lon="-3.82147">
        <ele>89.4</ele>
        <time>2025-06-30T09:47:12Z</time>
      </trkpt>
      <trkpt lat="48.63911" lon="-3.82148">
        <ele>89.9</ele>
        <time>2025-06-30T09:47:15Z</time>
      </trkpt>
      <trkpt lat="48.63922" lon="-3.82151">
        <ele>90.2</ele>
        <time>2025-06-30T09:47:18Z</time>
      </trkpt>
      <trkpt lat="48.63932" lon="-3.82156">
        <ele>90.5</ele>
        <time>2025-06-30T09:47:21Z</time>
      </trkpt>
      <trkpt lat="48.63941" lon="-3.82163">
        <ele>90.7</ele>
        <time>2025-06-30T09:47:24Z</time>
      </trkpt>
      <trkpt lat="48.6395" lon="-3.82173">
        <ele>90.8</ele>
        <time>2025-06-30T09:47:27Z</time>
      </trkpt>
      <trkpt lat="48.6396" lon="-3.82184">
        <ele>90.8</ele>
        <time>2025-06-30T09:47:30Z</time>
      </trkpt>
      <trkpt lat="48.63969" lon="-3.82196">
        <ele>90.8</ele>
        <time>2025-06-30T09:47:33Z</time>
      </trkpt>
      <trkpt lat="48.63979" lon="-3.82207">
        <ele>90.7</ele>
        <time>2025-06-30T09:47:36Z</time>
      </trkpt>
      <trkpt lat="48.63988" lon="-3.8222">
        <ele>90.6</ele>
        <time>2025-06-30T09:47:39Z</time>
      </trkpt>
      <trkpt lat="48.63997" lon="-3.82233">
        <ele>90.5</ele>
        <time>2025-06-30T09:47:42Z</time>
      </trkpt>
      <trkpt lat="48.64005" lon="-3.82243">
        <ele>90.3</ele>
        <time>2025-06-30T09:47:47Z</time>
      </trkpt>
      <trkpt lat="48.64011" lon="-3.82253">
        <ele>90.1</ele>
        <time>2025-06-30T09:47:50Z</time>
      </trkpt>
      <trkpt lat="48.64022" lon="-3.82262">
        <ele>89.7</ele>
        <time>2025-06-30T09:47:53Z</time>
      </trkpt>
      <trkpt lat="48.64033" lon="-3.82274">
        <ele>89.3</ele>
        <time>2025-06-30T09:47:56Z</time>
      </trkpt>
      <trkpt lat="48.6404" lon="-3.82283">
        <ele>88.9</ele>
        <time>2025-06-30T09:47:58Z</time>
      </trkpt>
      <trkpt lat="48.64048" lon="-3.82294">
        <ele>88.5</ele>
        <time>2025-06-30T09:48:00Z</time>
      </trkpt>
      <trkpt lat="48.64058" lon="-3.82304">
        <ele>88.1</ele>
        <time>2025-06-30T09:48:02Z</time>
      </trkpt>
      <trkpt lat="48.64066" lon="-3.82317">
        <ele>87.6</ele>
        <time>2025-06-30T09:48:04Z</time>
      </trkpt>
      <trkpt lat="48.64074" lon="-3.82333">
        <ele>87.1</ele>
        <time>2025-06-30T09:48:06Z</time>
      </trkpt>
      <trkpt lat="48.64084" lon="-3.82347">
        <ele>86.4</ele>
        <time>2025-06-30T09:48:08Z</time>
      </trkpt>
      <trkpt lat="48.64096" lon="-3.82361">
        <ele>85.7</ele>
        <time>2025-06-30T09:48:10Z</time>
      </trkpt>
      <trkpt lat="48.64105" lon="-3.82379">
        <ele>85</ele>
        <time>2025-06-30T09:48:12Z</time>
      </trkpt>
      <trkpt lat="48.64115" lon="-3.82398">
        <ele>84.5</ele>
        <time>2025-06-30T09:48:14Z</time>
      </trkpt>
      <trkpt lat="48.64124" lon="-3.82418">
        <ele>84</ele>
        <time>2025-06-30T09:48:16Z</time>
      </trkpt>
      <trkpt lat="48.64135" lon="-3.82437">
        <ele>83.6</ele>
        <time>2025-06-30T09:48:18Z</time>
      </trkpt>
      <trkpt lat="48.64144" lon="-3.82457">
        <ele>83.2</ele>
        <time>2025-06-30T09:48:20Z</time>
      </trkpt>
      <trkpt lat="48.64155" lon="-3.82477">
        <ele>82.9</ele>
        <time>2025-06-30T09:48:22Z</time>
      </trkpt>
      <trkpt lat="48.64164" lon="-3.82497">
        <ele>82.5</ele>
        <time>2025-06-30T09:48:24Z</time>
      </trkpt>
      <trkpt lat="48.64174" lon="-3.82516">
        <ele>82.2</ele>
        <time>2025-06-30T09:48:26Z</time>
      </trkpt>
      <trkpt lat="48.64183" lon="-3.82537">
        <ele>82</ele>
        <time>2025-06-30T09:48:28Z</time>
      </trkpt>
      <trkpt lat="48.64193" lon="-3.82557">
        <ele>81.9</ele>
        <time>2025-06-30T09:48:30Z</time>
      </trkpt>
      <trkpt lat="48.64202" lon="-3.82576">
        <ele>81.8</ele>
        <time>2025-06-30T09:48:32Z</time>
      </trkpt>
      <trkpt lat="48.64214" lon="-3.82592">
        <ele>81.7</ele>
        <time>2025-06-30T09:48:34Z</time>
      </trkpt>
      <trkpt lat="48.64224" lon="-3.8261">
        <ele>81.6</ele>
        <time>2025-06-30T09:48:36Z</time>
      </trkpt>
      <trkpt lat="48.64232" lon="-3.8263">
        <ele>81.2</ele>
        <time>2025-06-30T09:48:38Z</time>
      </trkpt>
      <trkpt lat="48.64242" lon="-3.82648">
        <ele>80.9</ele>
        <time>2025-06-30T09:48:40Z</time>
      </trkpt>
      <trkpt lat="48.64251" lon="-3.82666">
        <ele>80.6</ele>
        <time>2025-06-30T09:48:42Z</time>
      </trkpt>
      <trkpt lat="48.64261" lon="-3.82685">
        <ele>80.3</ele>
        <time>2025-06-30T09:48:44Z</time>
      </trkpt>
      <trkpt lat="48.64271" lon="-3.82704">
        <ele>80</ele>
        <time>2025-06-30T09:48:46Z</time>
      </trkpt>
      <trkpt lat="48.6428" lon="-3.82722">
        <ele>79.7</ele>
        <time>2025-06-30T09:48:48Z</time>
      </trkpt>
      <trkpt lat="48.64289" lon="-3.82742">
        <ele>79.5</ele>
        <time>2025-06-30T09:48:50Z</time>
      </trkpt>
      <trkpt lat="48.64299" lon="-3.82761">
        <ele>79.2</ele>
        <time>2025-06-30T09:48:52Z</time>
      </trkpt>
      <trkpt lat="48.64309" lon="-3.82781">
        <ele>79</ele>
        <time>2025-06-30T09:48:54Z</time>
      </trkpt>
      <trkpt lat="48.64319" lon="-3.828">
        <ele>78.8</ele>
        <time>2025-06-30T09:48:56Z</time>
      </trkpt>
      <trkpt lat="48.64329" lon="-3.82819">
        <ele>78.6</ele>
        <time>2025-06-30T09:48:58Z</time>
      </trkpt>
      <trkpt lat="48.64339" lon="-3.82837">
        <ele>78.3</ele>
        <time>2025-06-30T09:49:00Z</time>
      </trkpt>
      <trkpt lat="48.64349" lon="-3.82854">
        <ele>78</ele>
        <time>2025-06-30T09:49:02Z</time>
      </trkpt>
      <trkpt lat="48.6436" lon="-3.82873">
        <ele>77.7</ele>
        <time>2025-06-30T09:49:04Z</time>
      </trkpt>
      <trkpt lat="48.64371" lon="-3.8289">
        <ele>77.4</ele>
        <time>2025-06-30T09:49:06Z</time>
      </trkpt>
      <trkpt lat="48.64383" lon="-3.82908">
        <ele>77.2</ele>
        <time>2025-06-30T09:49:08Z</time>
      </trkpt>
      <trkpt lat="48.64394" lon="-3.82926">
        <ele>77</ele>
        <time>2025-06-30T09:49:10Z</time>
      </trkpt>
      <trkpt lat="48.64406" lon="-3.82943">
        <ele>76.8</ele>
        <time>2025-06-30T09:49:12Z</time>
      </trkpt>
      <trkpt lat="48.64418" lon="-3.8296">
        <ele>76.6</ele>
        <time>2025-06-30T09:49:14Z</time>
      </trkpt>
      <trkpt lat="48.6443" lon="-3.82976">
        <ele>76.5</ele>
        <time>2025-06-30T09:49:16Z</time>
      </trkpt>
      <trkpt lat="48.64442" lon="-3.82993">
        <ele>76.4</ele>
        <time>2025-06-30T09:49:18Z</time>
      </trkpt>
      <trkpt lat="48.64454" lon="-3.8301">
        <ele>76.2</ele>
        <time>2025-06-30T09:49:20Z</time>
      </trkpt>
      <trkpt lat="48.64466" lon="-3.83027">
        <ele>76.1</ele>
        <time>2025-06-30T09:49:22Z</time>
      </trkpt>
      <trkpt lat="48.64479" lon="-3.83044">
        <ele>75.9</ele>
        <time>2025-06-30T09:49:24Z</time>
      </trkpt>
      <trkpt lat="48.64491" lon="-3.83061">
        <ele>75.6</ele>
        <time>2025-06-30T09:49:26Z</time>
      </trkpt>
      <trkpt lat="48.64503" lon="-3.83079">
        <ele>75.3</ele>
        <time>2025-06-30T09:49:28Z</time>
      </trkpt>
      <trkpt lat="48.64516" lon="-3.83096">
        <ele>75</ele>
        <time>2025-06-30T09:49:30Z</time>
      </trkpt>
      <trkpt lat="48.64528" lon="-3.83115">
        <ele>74.6</ele>
        <time>2025-06-30T09:49:32Z</time>
      </trkpt>
      <trkpt lat="48.64541" lon="-3.83133">
        <ele>74.1</ele>
        <time>2025-06-30T09:49:34Z</time>
      </trkpt>
      <trkpt lat="48.64554" lon="-3.8315">
        <ele>73.6</ele>
        <time>2025-06-30T09:49:36Z</time>
      </trkpt>
      <trkpt lat="48.64567" lon="-3.83168">
        <ele>73</ele>
        <time>2025-06-30T09:49:38Z</time>
      </trkpt>
      <trkpt lat="48.64579" lon="-3.83187">
        <ele>72.3</ele>
        <time>2025-06-30T09:49:40Z</time>
      </trkpt>
      <trkpt lat="48.64586" lon="-3.83196">
        <ele>71.9</ele>
        <time>2025-06-30T09:49:41Z</time>
      </trkpt>
      <trkpt lat="48.64592" lon="-3.83206">
        <ele>71.6</ele>
        <time>2025-06-30T09:49:42Z</time>
      </trkpt>
      <trkpt lat="48.64599" lon="-3.83217">
        <ele>71.2</ele>
        <time>2025-06-30T09:49:43Z</time>
      </trkpt>
      <trkpt lat="48.64605" lon="-3.83227">
        <ele>70.8</ele>
        <time>2025-06-30T09:49:44Z</time>
      </trkpt>
      <trkpt lat="48.64612" lon="-3.83238">
        <ele>70.4</ele>
        <time>2025-06-30T09:49:45Z</time>
      </trkpt>
      <trkpt lat="48.64618" lon="-3.8325">
        <ele>70</ele>
        <time>2025-06-30T09:49:46Z</time>
      </trkpt>
      <trkpt lat="48.64625" lon="-3.83262">
        <ele>69.5</ele>
        <time>2025-06-30T09:49:47Z</time>
      </trkpt>
      <trkpt lat="48.64631" lon="-3.83274">
        <ele>69.1</ele>
        <time>2025-06-30T09:49:48Z</time>
      </trkpt>
      <trkpt lat="48.64638" lon="-3.83286">
        <ele>68.7</ele>
        <time>2025-06-30T09:49:49Z</time>
      </trkpt>
      <trkpt lat="48.64644" lon="-3.83298">
        <ele>68.4</ele>
        <time>2025-06-30T09:49:50Z</time>
      </trkpt>
      <trkpt lat="48.6465" lon="-3.83311">
        <ele>67.9</ele>
        <time>2025-06-30T09:49:51Z</time>
      </trkpt>
      <trkpt lat="48.64657" lon="-3.83323">
        <ele>67.5</ele>
        <time>2025-06-30T09:49:52Z</time>
      </trkpt>
      <trkpt lat="48.64663" lon="-3.83336">
        <ele>67.1</ele>
        <time>2025-06-30T09:49:53Z</time>
      </trkpt>
      <trkpt lat="48.64669" lon="-3.83348">
        <ele>66.7</ele>
        <time>2025-06-30T09:49:54Z</time>
      </trkpt>
      <trkpt lat="48.64675" lon="-3.8336">
        <ele>66.4</ele>
        <time>2025-06-30T09:49:55Z</time>
      </trkpt>
      <trkpt lat="48.64682" lon="-3.83373">
        <ele>66.1</ele>
        <time>2025-06-30T09:49:56Z</time>
      </trkpt>
      <trkpt lat="48.64688" lon="-3.83385">
        <ele>66</ele>
        <time>2025-06-30T09:49:57Z</time>
      </trkpt>
      <trkpt lat="48.64694" lon="-3.83398">
        <ele>65.9</ele>
        <time>2025-06-30T09:49:58Z</time>
      </trkpt>
      <trkpt lat="48.647" lon="-3.83411">
        <ele>65.8</ele>
        <time>2025-06-30T09:49:59Z</time>
      </trkpt>
      <trkpt lat="48.64705" lon="-3.83423">
        <ele>65.7</ele>
        <time>2025-06-30T09:50:00Z</time>
      </trkpt>
      <trkpt lat="48.64711" lon="-3.83436">
        <ele>65.6</ele>
        <time>2025-06-30T09:50:01Z</time>
      </trkpt>
      <trkpt lat="48.64716" lon="-3.83448">
        <ele>65.5</ele>
        <time>2025-06-30T09:50:02Z</time>
      </trkpt>
      <trkpt lat="48.6472" lon="-3.83461">
        <ele>65.4</ele>
        <time>2025-06-30T09:50:03Z</time>
      </trkpt>
      <trkpt lat="48.64724" lon="-3.83474">
        <ele>65.4</ele>
        <time>2025-06-30T09:50:04Z</time>
      </trkpt>
      <trkpt lat="48.64728" lon="-3.83488">
        <ele>65.4</ele>
        <time>2025-06-30T09:50:05Z</time>
      </trkpt>
      <trkpt lat="48.64732" lon="-3.83501">
        <ele>65.3</ele>
        <time>2025-06-30T09:50:06Z</time>
      </trkpt>
      <trkpt lat="48.64735" lon="-3.83515">
        <ele>65.2</ele>
        <time>2025-06-30T09:50:07Z</time>
      </trkpt>
      <trkpt lat="48.64737" lon="-3.83528">
        <ele>65.1</ele>
        <time>2025-06-30T09:50:08Z</time>
      </trkpt>
      <trkpt lat="48.6474" lon="-3.83541">
        <ele>65</ele>
        <time>2025-06-30T09:50:09Z</time>
      </trkpt>
      <trkpt lat="48.64743" lon="-3.83555">
        <ele>64.9</ele>
        <time>2025-06-30T09:50:10Z</time>
      </trkpt>
      <trkpt lat="48.64745" lon="-3.83569">
        <ele>64.8</ele>
        <time>2025-06-30T09:50:11Z</time>
      </trkpt>
      <trkpt lat="48.64747" lon="-3.83583">
        <ele>64.6</ele>
        <time>2025-06-30T09:50:12Z</time>
      </trkpt>
      <trkpt lat="48.6475" lon="-3.83596">
        <ele>64.4</ele>
        <time>2025-06-30T09:50:13Z</time>
      </trkpt>
      <trkpt lat="48.64752" lon="-3.8361">
        <ele>64.1</ele>
        <time>2025-06-30T09:50:14Z</time>
      </trkpt>
      <trkpt lat="48.64754" lon="-3.83624">
        <ele>63.8</ele>
        <time>2025-06-30T09:50:15Z</time>
      </trkpt>
      <trkpt lat="48.64756" lon="-3.83639">
        <ele>63.5</ele>
        <time>2025-06-30T09:50:16Z</time>
      </trkpt>
      <trkpt lat="48.64758" lon="-3.83653">
        <ele>63.2</ele>
        <time>2025-06-30T09:50:17Z</time>
      </trkpt>
      <trkpt lat="48.64761" lon="-3.83668">
        <ele>62.8</ele>
        <time>2025-06-30T09:50:18Z</time>
      </trkpt>
      <trkpt lat="48.64763" lon="-3.83682">
        <ele>62.4</ele>
        <time>2025-06-30T09:50:19Z</time>
      </trkpt>
      <trkpt lat="48.64765" lon="-3.83697">
        <ele>62.1</ele>
        <time>2025-06-30T09:50:20Z</time>
      </trkpt>
      <trkpt lat="48.64768" lon="-3.83712">
        <ele>61.7</ele>
        <time>2025-06-30T09:50:21Z</time>
      </trkpt>
      <trkpt lat="48.6477" lon="-3.83726">
        <ele>61.4</ele>
        <time>2025-06-30T09:50:22Z</time>
      </trkpt>
      <trkpt lat="48.64773" lon="-3.83741">
        <ele>61.2</ele>
        <time>2025-06-30T09:50:23Z</time>
      </trkpt>
      <trkpt lat="48.64775" lon="-3.83756">
        <ele>61</ele>
        <time>2025-06-30T09:50:24Z</time>
      </trkpt>
      <trkpt lat="48.64778" lon="-3.8377">
        <ele>60.7</ele>
        <time>2025-06-30T09:50:25Z</time>
      </trkpt>
      <trkpt lat="48.6478" lon="-3.83784">
        <ele>60.6</ele>
        <time>2025-06-30T09:50:26Z</time>
      </trkpt>
      <trkpt lat="48.64783" lon="-3.83799">
        <ele>60.4</ele>
        <time>2025-06-30T09:50:27Z</time>
      </trkpt>
      <trkpt lat="48.64786" lon="-3.83813">
        <ele>60.3</ele>
        <time>2025-06-30T09:50:28Z</time>
      </trkpt>
      <trkpt lat="48.64789" lon="-3.83826">
        <ele>60.3</ele>
        <time>2025-06-30T09:50:29Z</time>
      </trkpt>
      <trkpt lat="48.64793" lon="-3.83839">
        <ele>60.4</ele>
        <time>2025-06-30T09:50:30Z</time>
      </trkpt>
      <trkpt lat="48.64796" lon="-3.83851">
        <ele>60.4</ele>
        <time>2025-06-30T09:50:31Z</time>
      </trkpt>
      <trkpt lat="48.64803" lon="-3.83876">
        <ele>60.6</ele>
        <time>2025-06-30T09:50:33Z</time>
      </trkpt>
      <trkpt lat="48.64811" lon="-3.83899">
        <ele>60.8</ele>
        <time>2025-06-30T09:50:35Z</time>
      </trkpt>
      <trkpt lat="48.64819" lon="-3.83921">
        <ele>61.2</ele>
        <time>2025-06-30T09:50:37Z</time>
      </trkpt>
      <trkpt lat="48.64828" lon="-3.83942">
        <ele>61.5</ele>
        <time>2025-06-30T09:50:39Z</time>
      </trkpt>
      <trkpt lat="48.64836" lon="-3.83962">
        <ele>62</ele>
        <time>2025-06-30T09:50:41Z</time>
      </trkpt>
      <trkpt lat="48.64846" lon="-3.8398">
        <ele>62.4</ele>
        <time>2025-06-30T09:50:43Z</time>
      </trkpt>
      <trkpt lat="48.64855" lon="-3.83997">
        <ele>62.7</ele>
        <time>2025-06-30T09:50:45Z</time>
      </trkpt>
      <trkpt lat="48.64864" lon="-3.84015">
        <ele>62.9</ele>
        <time>2025-06-30T09:50:47Z</time>
      </trkpt>
      <trkpt lat="48.64873" lon="-3.84032">
        <ele>63.1</ele>
        <time>2025-06-30T09:50:49Z</time>
      </trkpt>
      <trkpt lat="48.64883" lon="-3.84049">
        <ele>63.3</ele>
        <time>2025-06-30T09:50:51Z</time>
      </trkpt>
      <trkpt lat="48.64892" lon="-3.84067">
        <ele>63.4</ele>
        <time>2025-06-30T09:50:53Z</time>
      </trkpt>
      <trkpt lat="48.64901" lon="-3.84084">
        <ele>63.5</ele>
        <time>2025-06-30T09:50:55Z</time>
      </trkpt>
      <trkpt lat="48.64909" lon="-3.84102">
        <ele>63.5</ele>
        <time>2025-06-30T09:50:57Z</time>
      </trkpt>
      <trkpt lat="48.64918" lon="-3.84119">
        <ele>63.4</ele>
        <time>2025-06-30T09:50:59Z</time>
      </trkpt>
      <trkpt lat="48.64927" lon="-3.84138">
        <ele>63.3</ele>
        <time>2025-06-30T09:51:01Z</time>
      </trkpt>
      <trkpt lat="48.64935" lon="-3.84156">
        <ele>63.1</ele>
        <time>2025-06-30T09:51:03Z</time>
      </trkpt>
      <trkpt lat="48.64943" lon="-3.84175">
        <ele>63</ele>
        <time>2025-06-30T09:51:05Z</time>
      </trkpt>
      <trkpt lat="48.64951" lon="-3.84195">
        <ele>62.8</ele>
        <time>2025-06-30T09:51:07Z</time>
      </trkpt>
      <trkpt lat="48.64959" lon="-3.84214">
        <ele>62.6</ele>
        <time>2025-06-30T09:51:09Z</time>
      </trkpt>
      <trkpt lat="48.64966" lon="-3.84233">
        <ele>62.3</ele>
        <time>2025-06-30T09:51:11Z</time>
      </trkpt>
      <trkpt lat="48.64974" lon="-3.84254">
        <ele>62.1</ele>
        <time>2025-06-30T09:51:13Z</time>
      </trkpt>
      <trkpt lat="48.64982" lon="-3.84275">
        <ele>61.8</ele>
        <time>2025-06-30T09:51:15Z</time>
      </trkpt>
      <trkpt lat="48.64989" lon="-3.84296">
        <ele>61.4</ele>
        <time>2025-06-30T09:51:17Z</time>
      </trkpt>
      <trkpt lat="48.64997" lon="-3.84318">
        <ele>61</ele>
        <time>2025-06-30T09:51:19Z</time>
      </trkpt>
      <trkpt lat="48.65005" lon="-3.8434">
        <ele>60.6</ele>
        <time>2025-06-30T09:51:21Z</time>
      </trkpt>
      <trkpt lat="48.65013" lon="-3.84362">
        <ele>60.3</ele>
        <time>2025-06-30T09:51:23Z</time>
      </trkpt>
      <trkpt lat="48.65023" lon="-3.84383">
        <ele>60</ele>
        <time>2025-06-30T09:51:25Z</time>
      </trkpt>
      <trkpt lat="48.65033" lon="-3.84403">
        <ele>59.7</ele>
        <time>2025-06-30T09:51:27Z</time>
      </trkpt>
      <trkpt lat="48.65044" lon="-3.84422">
        <ele>59.5</ele>
        <time>2025-06-30T09:51:29Z</time>
      </trkpt>
      <trkpt lat="48.65055" lon="-3.8444">
        <ele>59.4</ele>
        <time>2025-06-30T09:51:31Z</time>
      </trkpt>
      <trkpt lat="48.65068" lon="-3.84457">
        <ele>59.3</ele>
        <time>2025-06-30T09:51:33Z</time>
      </trkpt>
      <trkpt lat="48.6508" lon="-3.84472">
        <ele>59.3</ele>
        <time>2025-06-30T09:51:35Z</time>
      </trkpt>
      <trkpt lat="48.65093" lon="-3.84487">
        <ele>59.3</ele>
        <time>2025-06-30T09:51:37Z</time>
      </trkpt>
      <trkpt lat="48.65106" lon="-3.84501">
        <ele>59.2</ele>
        <time>2025-06-30T09:51:39Z</time>
      </trkpt>
      <trkpt lat="48.65119" lon="-3.84514">
        <ele>59.1</ele>
        <time>2025-06-30T09:51:41Z</time>
      </trkpt>
      <trkpt lat="48.65133" lon="-3.84527">
        <ele>59</ele>
        <time>2025-06-30T09:51:43Z</time>
      </trkpt>
      <trkpt lat="48.65146" lon="-3.8454">
        <ele>58.8</ele>
        <time>2025-06-30T09:51:45Z</time>
      </trkpt>
      <trkpt lat="48.6516" lon="-3.84553">
        <ele>58.7</ele>
        <time>2025-06-30T09:51:47Z</time>
      </trkpt>
      <trkpt lat="48.65174" lon="-3.84567">
        <ele>58.5</ele>
        <time>2025-06-30T09:51:49Z</time>
      </trkpt>
      <trkpt lat="48.65188" lon="-3.8458">
        <ele>58.3</ele>
        <time>2025-06-30T09:51:51Z</time>
      </trkpt>
      <trkpt lat="48.65202" lon="-3.84593">
        <ele>58.1</ele>
        <time>2025-06-30T09:51:53Z</time>
      </trkpt>
      <trkpt lat="48.65216" lon="-3.84607">
        <ele>57.9</ele>
        <time>2025-06-30T09:51:55Z</time>
      </trkpt>
      <trkpt lat="48.6523" lon="-3.84621">
        <ele>57.7</ele>
        <time>2025-06-30T09:51:57Z</time>
      </trkpt>
      <trkpt lat="48.65244" lon="-3.84634">
        <ele>57.4</ele>
        <time>2025-06-30T09:51:59Z</time>
      </trkpt>
      <trkpt lat="48.65258" lon="-3.84649">
        <ele>57.1</ele>
        <time>2025-06-30T09:52:01Z</time>
      </trkpt>
      <trkpt lat="48.65272" lon="-3.84662">
        <ele>56.7</ele>
        <time>2025-06-30T09:52:03Z</time>
      </trkpt>
      <trkpt lat="48.65286" lon="-3.84675">
        <ele>56.2</ele>
        <time>2025-06-30T09:52:05Z</time>
      </trkpt>
      <trkpt lat="48.653" lon="-3.84689">
        <ele>55.8</ele>
        <time>2025-06-30T09:52:07Z</time>
      </trkpt>
      <trkpt lat="48.65314" lon="-3.84703">
        <ele>55.2</ele>
        <time>2025-06-30T09:52:09Z</time>
      </trkpt>
      <trkpt lat="48.65329" lon="-3.84717">
        <ele>54.5</ele>
        <time>2025-06-30T09:52:11Z</time>
      </trkpt>
      <trkpt lat="48.65344" lon="-3.84731">
        <ele>53.8</ele>
        <time>2025-06-30T09:52:13Z</time>
      </trkpt>
      <trkpt lat="48.65352" lon="-3.84738">
        <ele>53.5</ele>
        <time>2025-06-30T09:52:14Z</time>
      </trkpt>
      <trkpt lat="48.65367" lon="-3.84751">
        <ele>52.8</ele>
        <time>2025-06-30T09:52:16Z</time>
      </trkpt>
      <trkpt lat="48.65375" lon="-3.84758">
        <ele>52.6</ele>
        <time>2025-06-30T09:52:17Z</time>
      </trkpt>
      <trkpt lat="48.65383" lon="-3.84765">
        <ele>52.3</ele>
        <time>2025-06-30T09:52:18Z</time>
      </trkpt>
      <trkpt lat="48.65391" lon="-3.84772">
        <ele>52</ele>
        <time>2025-06-30T09:52:19Z</time>
      </trkpt>
      <trkpt lat="48.65399" lon="-3.84778">
        <ele>51.8</ele>
        <time>2025-06-30T09:52:20Z</time>
      </trkpt>
      <trkpt lat="48.65408" lon="-3.84785">
        <ele>51.6</ele>
        <time>2025-06-30T09:52:21Z</time>
      </trkpt>
      <trkpt lat="48.65415" lon="-3.84792">
        <ele>51.4</ele>
        <time>2025-06-30T09:52:22Z</time>
      </trkpt>
      <trkpt lat="48.65424" lon="-3.84798">
        <ele>51.2</ele>
        <time>2025-06-30T09:52:23Z</time>
      </trkpt>
      <trkpt lat="48.65432" lon="-3.84805">
        <ele>51</ele>
        <time>2025-06-30T09:52:24Z</time>
      </trkpt>
      <trkpt lat="48.6544" lon="-3.84811">
        <ele>50.7</ele>
        <time>2025-06-30T09:52:25Z</time>
      </trkpt>
      <trkpt lat="48.65448" lon="-3.84819">
        <ele>50.4</ele>
        <time>2025-06-30T09:52:26Z</time>
      </trkpt>
      <trkpt lat="48.65456" lon="-3.84825">
        <ele>50.1</ele>
        <time>2025-06-30T09:52:27Z</time>
      </trkpt>
      <trkpt lat="48.65464" lon="-3.84832">
        <ele>49.7</ele>
        <time>2025-06-30T09:52:28Z</time>
      </trkpt>
      <trkpt lat="48.65472" lon="-3.8484">
        <ele>49.3</ele>
        <time>2025-06-30T09:52:29Z</time>
      </trkpt>
      <trkpt lat="48.6548" lon="-3.84847">
        <ele>48.9</ele>
        <time>2025-06-30T09:52:30Z</time>
      </trkpt>
      <trkpt lat="48.65488" lon="-3.84856">
        <ele>48.4</ele>
        <time>2025-06-30T09:52:31Z</time>
      </trkpt>
      <trkpt lat="48.65495" lon="-3.84865">
        <ele>48</ele>
        <time>2025-06-30T09:52:32Z</time>
      </trkpt>
      <trkpt lat="48.65503" lon="-3.84875">
        <ele>47.5</ele>
        <time>2025-06-30T09:52:33Z</time>
      </trkpt>
      <trkpt lat="48.6551" lon="-3.84885">
        <ele>47.1</ele>
        <time>2025-06-30T09:52:34Z</time>
      </trkpt>
      <trkpt lat="48.65517" lon="-3.84895">
        <ele>46.6</ele>
        <time>2025-06-30T09:52:35Z</time>
      </trkpt>
      <trkpt lat="48.65524" lon="-3.84907">
        <ele>46.2</ele>
        <time>2025-06-30T09:52:36Z</time>
      </trkpt>
      <trkpt lat="48.6553" lon="-3.84919">
        <ele>45.7</ele>
        <time>2025-06-30T09:52:37Z</time>
      </trkpt>
      <trkpt lat="48.65536" lon="-3.84931">
        <ele>45.1</ele>
        <time>2025-06-30T09:52:38Z</time>
      </trkpt>
      <trkpt lat="48.65542" lon="-3.84944">
        <ele>44.6</ele>
        <time>2025-06-30T09:52:39Z</time>
      </trkpt>
      <trkpt lat="48.65548" lon="-3.84956">
        <ele>44.1</ele>
        <time>2025-06-30T09:52:40Z</time>
      </trkpt>
      <trkpt lat="48.65554" lon="-3.84969">
        <ele>43.5</ele>
        <time>2025-06-30T09:52:41Z</time>
      </trkpt>
      <trkpt lat="48.6556" lon="-3.84982">
        <ele>43</ele>
        <time>2025-06-30T09:52:42Z</time>
      </trkpt>
      <trkpt lat="48.65567" lon="-3.84994">
        <ele>42.4</ele>
        <time>2025-06-30T09:52:43Z</time>
      </trkpt>
      <trkpt lat="48.65574" lon="-3.85005">
        <ele>41.9</ele>
        <time>2025-06-30T09:52:44Z</time>
      </trkpt>
      <trkpt lat="48.65582" lon="-3.85015">
        <ele>41.1</ele>
        <time>2025-06-30T09:52:45Z</time>
      </trkpt>
      <trkpt lat="48.6559" lon="-3.85024">
        <ele>40.4</ele>
        <time>2025-06-30T09:52:46Z</time>
      </trkpt>
      <trkpt lat="48.65598" lon="-3.85033">
        <ele>39.6</ele>
        <time>2025-06-30T09:52:47Z</time>
      </trkpt>
      <trkpt lat="48.65607" lon="-3.8504">
        <ele>38.7</ele>
        <time>2025-06-30T09:52:48Z</time>
      </trkpt>
      <trkpt lat="48.65616" lon="-3.85046">
        <ele>37.8</ele>
        <time>2025-06-30T09:52:49Z</time>
      </trkpt>
      <trkpt lat="48.65624" lon="-3.85051">
        <ele>36.8</ele>
        <time>2025-06-30T09:52:50Z</time>
      </trkpt>
      <trkpt lat="48.65633" lon="-3.85056">
        <ele>35.9</ele>
        <time>2025-06-30T09:52:51Z</time>
      </trkpt>
      <trkpt lat="48.65642" lon="-3.85059">
        <ele>34.9</ele>
        <time>2025-06-30T09:52:52Z</time>
      </trkpt>
      <trkpt lat="48.65652" lon="-3.85063">
        <ele>33.9</ele>
        <time>2025-06-30T09:52:53Z</time>
      </trkpt>
      <trkpt lat="48.65661" lon="-3.85066">
        <ele>32.9</ele>
        <time>2025-06-30T09:52:54Z</time>
      </trkpt>
      <trkpt lat="48.65671" lon="-3.85068">
        <ele>31.9</ele>
        <time>2025-06-30T09:52:55Z</time>
      </trkpt>
      <trkpt lat="48.65681" lon="-3.85071">
        <ele>30.8</ele>
        <time>2025-06-30T09:52:56Z</time>
      </trkpt>
      <trkpt lat="48.6569" lon="-3.85075">
        <ele>29.8</ele>
        <time>2025-06-30T09:52:57Z</time>
      </trkpt>
      <trkpt lat="48.65699" lon="-3.85079">
        <ele>28.8</ele>
        <time>2025-06-30T09:52:58Z</time>
      </trkpt>
      <trkpt lat="48.65708" lon="-3.85084">
        <ele>27.8</ele>
        <time>2025-06-30T09:52:59Z</time>
      </trkpt>
      <trkpt lat="48.65716" lon="-3.85089">
        <ele>26.9</ele>
        <time>2025-06-30T09:53:00Z</time>
      </trkpt>
      <trkpt lat="48.65725" lon="-3.85095">
        <ele>26</ele>
        <time>2025-06-30T09:53:01Z</time>
      </trkpt>
      <trkpt lat="48.65734" lon="-3.851">
        <ele>25.1</ele>
        <time>2025-06-30T09:53:02Z</time>
      </trkpt>
      <trkpt lat="48.65743" lon="-3.85107">
        <ele>24.2</ele>
        <time>2025-06-30T09:53:03Z</time>
      </trkpt>
      <trkpt lat="48.65752" lon="-3.85113">
        <ele>23.4</ele>
        <time>2025-06-30T09:53:04Z</time>
      </trkpt>
      <trkpt lat="48.65761" lon="-3.85118">
        <ele>22.6</ele>
        <time>2025-06-30T09:53:05Z</time>
      </trkpt>
      <trkpt lat="48.65771" lon="-3.85122">
        <ele>21.7</ele>
        <time>2025-06-30T09:53:06Z</time>
      </trkpt>
      <trkpt lat="48.65781" lon="-3.85126">
        <ele>20.9</ele>
        <time>2025-06-30T09:53:07Z</time>
      </trkpt>
      <trkpt lat="48.65791" lon="-3.85128">
        <ele>20.1</ele>
        <time>2025-06-30T09:53:08Z</time>
      </trkpt>
      <trkpt lat="48.65802" lon="-3.85129">
        <ele>19.2</ele>
        <time>2025-06-30T09:53:09Z</time>
      </trkpt>
      <trkpt lat="48.65812" lon="-3.85129">
        <ele>18.2</ele>
        <time>2025-06-30T09:53:10Z</time>
      </trkpt>
      <trkpt lat="48.65823" lon="-3.85127">
        <ele>17.1</ele>
        <time>2025-06-30T09:53:11Z</time>
      </trkpt>
      <trkpt lat="48.65834" lon="-3.85125">
        <ele>16.1</ele>
        <time>2025-06-30T09:53:12Z</time>
      </trkpt>
      <trkpt lat="48.65846" lon="-3.85121">
        <ele>15</ele>
        <time>2025-06-30T09:53:13Z</time>
      </trkpt>
      <trkpt lat="48.65857" lon="-3.85117">
        <ele>14</ele>
        <time>2025-06-30T09:53:14Z</time>
      </trkpt>
      <trkpt lat="48.65869" lon="-3.85111">
        <ele>12.9</ele>
        <time>2025-06-30T09:53:15Z</time>
      </trkpt>
      <trkpt lat="48.65881" lon="-3.85104">
        <ele>11.8</ele>
        <time>2025-06-30T09:53:16Z</time>
      </trkpt>
      <trkpt lat="48.65893" lon="-3.85095">
        <ele>10.8</ele>
        <time>2025-06-30T09:53:17Z</time>
      </trkpt>
      <trkpt lat="48.65904" lon="-3.85084">
        <ele>9.9</ele>
        <time>2025-06-30T09:53:18Z</time>
      </trkpt>
      <trkpt lat="48.65915" lon="-3.85071">
        <ele>9.1</ele>
        <time>2025-06-30T09:53:19Z</time>
      </trkpt>
      <trkpt lat="48.65925" lon="-3.85057">
        <ele>8.9</ele>
        <time>2025-06-30T09:53:20Z</time>
      </trkpt>
      <trkpt lat="48.65935" lon="-3.85042">
        <ele>8.4</ele>
        <time>2025-06-30T09:53:21Z</time>
      </trkpt>
      <trkpt lat="48.65943" lon="-3.85024">
        <ele>7.8</ele>
        <time>2025-06-30T09:53:22Z</time>
      </trkpt>
      <trkpt lat="48.65951" lon="-3.85007">
        <ele>7.3</ele>
        <time>2025-06-30T09:53:23Z</time>
      </trkpt>
      <trkpt lat="48.65957" lon="-3.8499">
        <ele>6.8</ele>
        <time>2025-06-30T09:53:24Z</time>
      </trkpt>
      <trkpt lat="48.65962" lon="-3.84972">
        <ele>6.3</ele>
        <time>2025-06-30T09:53:25Z</time>
      </trkpt>
      <trkpt lat="48.65966" lon="-3.84954">
        <ele>6.1</ele>
        <time>2025-06-30T09:53:26Z</time>
      </trkpt>
      <trkpt lat="48.6597" lon="-3.84935">
        <ele>6</ele>
        <time>2025-06-30T09:53:27Z</time>
      </trkpt>
      <trkpt lat="48.65972" lon="-3.84916">
        <ele>6</ele>
        <time>2025-06-30T09:53:28Z</time>
      </trkpt>
      <trkpt lat="48.65973" lon="-3.84897">
        <ele>5.9</ele>
        <time>2025-06-30T09:53:29Z</time>
      </trkpt>
      <trkpt lat="48.65974" lon="-3.84879">
        <ele>5.9</ele>
        <time>2025-06-30T09:53:30Z</time>
      </trkpt>
      <trkpt lat="48.65975" lon="-3.84861">
        <ele>5.9</ele>
        <time>2025-06-30T09:53:31Z</time>
      </trkpt>
      <trkpt lat="48.65975" lon="-3.84843">
        <ele>5.9</ele>
        <time>2025-06-30T09:53:32Z</time>
      </trkpt>
      <trkpt lat="48.65976" lon="-3.84825">
        <ele>6</ele>
        <time>2025-06-30T09:53:33Z</time>
      </trkpt>
      <trkpt lat="48.65977" lon="-3.84808">
        <ele>6</ele>
        <time>2025-06-30T09:53:34Z</time>
      </trkpt>
      <trkpt lat="48.65977" lon="-3.84792">
        <ele>6</ele>
        <time>2025-06-30T09:53:35Z</time>
      </trkpt>
      <trkpt lat="48.65978" lon="-3.84775">
        <ele>6</ele>
        <time>2025-06-30T09:53:36Z</time>
      </trkpt>
      <trkpt lat="48.65978" lon="-3.84759">
        <ele>6.1</ele>
        <time>2025-06-30T09:53:37Z</time>
      </trkpt>
      <trkpt lat="48.65978" lon="-3.84744">
        <ele>6.2</ele>
        <time>2025-06-30T09:53:38Z</time>
      </trkpt>
      <trkpt lat="48.6598" lon="-3.84728">
        <ele>6.2</ele>
        <time>2025-06-30T09:53:39Z</time>
      </trkpt>
      <trkpt lat="48.65981" lon="-3.84713">
        <ele>6.3</ele>
        <time>2025-06-30T09:53:40Z</time>
      </trkpt>
      <trkpt lat="48.65983" lon="-3.84698">
        <ele>6.3</ele>
        <time>2025-06-30T09:53:41Z</time>
      </trkpt>
      <trkpt lat="48.65985" lon="-3.84684">
        <ele>6.3</ele>
        <time>2025-06-30T09:53:42Z</time>
      </trkpt>
      <trkpt lat="48.65989" lon="-3.8467">
        <ele>6.3</ele>
        <time>2025-06-30T09:53:43Z</time>
      </trkpt>
      <trkpt lat="48.65992" lon="-3.84656">
        <ele>6.3</ele>
        <time>2025-06-30T09:53:44Z</time>
      </trkpt>
      <trkpt lat="48.65997" lon="-3.84643">
        <ele>6.2</ele>
        <time>2025-06-30T09:53:45Z</time>
      </trkpt>
      <trkpt lat="48.66002" lon="-3.8463">
        <ele>6.2</ele>
        <time>2025-06-30T09:53:46Z</time>
      </trkpt>
      <trkpt lat="48.66008" lon="-3.84618">
        <ele>6.2</ele>
        <time>2025-06-30T09:53:47Z</time>
      </trkpt>
      <trkpt lat="48.66013" lon="-3.84605">
        <ele>6.2</ele>
        <time>2025-06-30T09:53:48Z</time>
      </trkpt>
      <trkpt lat="48.66019" lon="-3.84594">
        <ele>6.2</ele>
        <time>2025-06-30T09:53:49Z</time>
      </trkpt>
      <trkpt lat="48.66026" lon="-3.84584">
        <ele>6.1</ele>
        <time>2025-06-30T09:53:50Z</time>
      </trkpt>
      <trkpt lat="48.66033" lon="-3.84574">
        <ele>6.1</ele>
        <time>2025-06-30T09:53:51Z</time>
      </trkpt>
      <trkpt lat="48.6604" lon="-3.84565">
        <ele>6.1</ele>
        <time>2025-06-30T09:53:52Z</time>
      </trkpt>
      <trkpt lat="48.66048" lon="-3.84557">
        <ele>6.1</ele>
        <time>2025-06-30T09:53:53Z</time>
      </trkpt>
      <trkpt lat="48.66056" lon="-3.84549">
        <ele>6.1</ele>
        <time>2025-06-30T09:53:54Z</time>
      </trkpt>
      <trkpt lat="48.66064" lon="-3.84543">
        <ele>6.2</ele>
        <time>2025-06-30T09:53:55Z</time>
      </trkpt>
      <trkpt lat="48.66072" lon="-3.84538">
        <ele>6.2</ele>
        <time>2025-06-30T09:53:56Z</time>
      </trkpt>
      <trkpt lat="48.66081" lon="-3.84533">
        <ele>6.3</ele>
        <time>2025-06-30T09:53:57Z</time>
      </trkpt>
      <trkpt lat="48.66098" lon="-3.84527">
        <ele>6.4</ele>
        <time>2025-06-30T09:53:59Z</time>
      </trkpt>
      <trkpt lat="48.66116" lon="-3.84522">
        <ele>6.5</ele>
        <time>2025-06-30T09:54:01Z</time>
      </trkpt>
      <trkpt lat="48.66133" lon="-3.84519">
        <ele>6.6</ele>
        <time>2025-06-30T09:54:03Z</time>
      </trkpt>
      <trkpt lat="48.66151" lon="-3.84521">
        <ele>6.7</ele>
        <time>2025-06-30T09:54:05Z</time>
      </trkpt>
      <trkpt lat="48.66168" lon="-3.84522">
        <ele>6.8</ele>
        <time>2025-06-30T09:54:07Z</time>
      </trkpt>
      <trkpt lat="48.66185" lon="-3.84525">
        <ele>7.1</ele>
        <time>2025-06-30T09:54:09Z</time>
      </trkpt>
      <trkpt lat="48.66201" lon="-3.84527">
        <ele>7.4</ele>
        <time>2025-06-30T09:54:11Z</time>
      </trkpt>
      <trkpt lat="48.66217" lon="-3.84529">
        <ele>7.7</ele>
        <time>2025-06-30T09:54:13Z</time>
      </trkpt>
      <trkpt lat="48.66231" lon="-3.84532">
        <ele>8</ele>
        <time>2025-06-30T09:54:15Z</time>
      </trkpt>
      <trkpt lat="48.66246" lon="-3.84535">
        <ele>8.4</ele>
        <time>2025-06-30T09:54:17Z</time>
      </trkpt>
      <trkpt lat="48.6626" lon="-3.84537">
        <ele>8.8</ele>
        <time>2025-06-30T09:54:19Z</time>
      </trkpt>
      <trkpt lat="48.66274" lon="-3.84539">
        <ele>9.1</ele>
        <time>2025-06-30T09:54:21Z</time>
      </trkpt>
      <trkpt lat="48.66288" lon="-3.84542">
        <ele>9.5</ele>
        <time>2025-06-30T09:54:23Z</time>
      </trkpt>
      <trkpt lat="48.66301" lon="-3.84543">
        <ele>9.8</ele>
        <time>2025-06-30T09:54:25Z</time>
      </trkpt>
      <trkpt lat="48.66314" lon="-3.84546">
        <ele>10.2</ele>
        <time>2025-06-30T09:54:27Z</time>
      </trkpt>
      <trkpt lat="48.66327" lon="-3.84548">
        <ele>10.6</ele>
        <time>2025-06-30T09:54:29Z</time>
      </trkpt>
      <trkpt lat="48.6634" lon="-3.8455">
        <ele>11</ele>
        <time>2025-06-30T09:54:31Z</time>
      </trkpt>
      <trkpt lat="48.66352" lon="-3.84553">
        <ele>11.2</ele>
        <time>2025-06-30T09:54:33Z</time>
      </trkpt>
      <trkpt lat="48.66365" lon="-3.84555">
        <ele>11.5</ele>
        <time>2025-06-30T09:54:35Z</time>
      </trkpt>
      <trkpt lat="48.66378" lon="-3.84557">
        <ele>11.8</ele>
        <time>2025-06-30T09:54:37Z</time>
      </trkpt>
      <trkpt lat="48.6639" lon="-3.8456">
        <ele>12.1</ele>
        <time>2025-06-30T09:54:39Z</time>
      </trkpt>
      <trkpt lat="48.66403" lon="-3.84562">
        <ele>12.5</ele>
        <time>2025-06-30T09:54:41Z</time>
      </trkpt>
      <trkpt lat="48.66416" lon="-3.84564">
        <ele>12.8</ele>
        <time>2025-06-30T09:54:43Z</time>
      </trkpt>
      <trkpt lat="48.66428" lon="-3.84566">
        <ele>13.1</ele>
        <time>2025-06-30T09:54:45Z</time>
      </trkpt>
      <trkpt lat="48.6644" lon="-3.84568">
        <ele>13.4</ele>
        <time>2025-06-30T09:54:47Z</time>
      </trkpt>
      <trkpt lat="48.66452" lon="-3.8457">
        <ele>13.7</ele>
        <time>2025-06-30T09:54:49Z</time>
      </trkpt>
      <trkpt lat="48.66463" lon="-3.84572">
        <ele>14.1</ele>
        <time>2025-06-30T09:54:51Z</time>
      </trkpt>
      <trkpt lat="48.66475" lon="-3.84575">
        <ele>14.4</ele>
        <time>2025-06-30T09:54:53Z</time>
      </trkpt>
      <trkpt lat="48.66487" lon="-3.84577">
        <ele>14.7</ele>
        <time>2025-06-30T09:54:55Z</time>
      </trkpt>
      <trkpt lat="48.66499" lon="-3.84579">
        <ele>15.1</ele>
        <time>2025-06-30T09:54:57Z</time>
      </trkpt>
      <trkpt lat="48.6651" lon="-3.84581">
        <ele>15.5</ele>
        <time>2025-06-30T09:54:59Z</time>
      </trkpt>
      <trkpt lat="48.66521" lon="-3.84582">
        <ele>15.9</ele>
        <time>2025-06-30T09:55:01Z</time>
      </trkpt>
      <trkpt lat="48.66532" lon="-3.84584">
        <ele>16.3</ele>
        <time>2025-06-30T09:55:03Z</time>
      </trkpt>
      <trkpt lat="48.66543" lon="-3.84586">
        <ele>16.7</ele>
        <time>2025-06-30T09:55:05Z</time>
      </trkpt>
      <trkpt lat="48.66554" lon="-3.84589">
        <ele>17.2</ele>
        <time>2025-06-30T09:55:07Z</time>
      </trkpt>
      <trkpt lat="48.66564" lon="-3.84591">
        <ele>17.5</ele>
        <time>2025-06-30T09:55:09Z</time>
      </trkpt>
      <trkpt lat="48.66575" lon="-3.84593">
        <ele>18</ele>
        <time>2025-06-30T09:55:11Z</time>
      </trkpt>
      <trkpt lat="48.66586" lon="-3.84594">
        <ele>18.4</ele>
        <time>2025-06-30T09:55:13Z</time>
      </trkpt>
      <trkpt lat="48.66596" lon="-3.84596">
        <ele>19</ele>
        <time>2025-06-30T09:55:15Z</time>
      </trkpt>
      <trkpt lat="48.66607" lon="-3.84598">
        <ele>19.5</ele>
        <time>2025-06-30T09:55:17Z</time>
      </trkpt>
      <trkpt lat="48.66617" lon="-3.846">
        <ele>20</ele>
        <time>2025-06-30T09:55:19Z</time>
      </trkpt>
      <trkpt lat="48.66628" lon="-3.84602">
        <ele>20.6</ele>
        <time>2025-06-30T09:55:21Z</time>
      </trkpt>
      <trkpt lat="48.66638" lon="-3.84603">
        <ele>21.1</ele>
        <time>2025-06-30T09:55:23Z</time>
      </trkpt>
      <trkpt lat="48.66649" lon="-3.84605">
        <ele>21.5</ele>
        <time>2025-06-30T09:55:25Z</time>
      </trkpt>
      <trkpt lat="48.66659" lon="-3.84607">
        <ele>21.9</ele>
        <time>2025-06-30T09:55:27Z</time>
      </trkpt>
      <trkpt lat="48.6667" lon="-3.84609">
        <ele>22.1</ele>
        <time>2025-06-30T09:55:29Z</time>
      </trkpt>
      <trkpt lat="48.66681" lon="-3.84612">
        <ele>22.1</ele>
        <time>2025-06-30T09:55:31Z</time>
      </trkpt>
      <trkpt lat="48.66693" lon="-3.84616">
        <ele>21.9</ele>
        <time>2025-06-30T09:55:33Z</time>
      </trkpt>
      <trkpt lat="48.66705" lon="-3.8462">
        <ele>21.5</ele>
        <time>2025-06-30T09:55:35Z</time>
      </trkpt>
      <trkpt lat="48.66719" lon="-3.84626">
        <ele>20.9</ele>
        <time>2025-06-30T09:55:37Z</time>
      </trkpt>
      <trkpt lat="48.66733" lon="-3.84632">
        <ele>20.3</ele>
        <time>2025-06-30T09:55:39Z</time>
      </trkpt>
      <trkpt lat="48.66749" lon="-3.8464">
        <ele>19.6</ele>
        <time>2025-06-30T09:55:41Z</time>
      </trkpt>
      <trkpt lat="48.66765" lon="-3.84649">
        <ele>19</ele>
        <time>2025-06-30T09:55:43Z</time>
      </trkpt>
      <trkpt lat="48.66781" lon="-3.84659">
        <ele>18.6</ele>
        <time>2025-06-30T09:55:45Z</time>
      </trkpt>
      <trkpt lat="48.66798" lon="-3.84668">
        <ele>19</ele>
        <time>2025-06-30T09:55:47Z</time>
      </trkpt>
      <trkpt lat="48.66813" lon="-3.84677">
        <ele>19.6</ele>
        <time>2025-06-30T09:55:49Z</time>
      </trkpt>
      <trkpt lat="48.66828" lon="-3.84684">
        <ele>20.3</ele>
        <time>2025-06-30T09:55:51Z</time>
      </trkpt>
      <trkpt lat="48.66841" lon="-3.84692">
        <ele>21.1</ele>
        <time>2025-06-30T09:55:53Z</time>
      </trkpt>
      <trkpt lat="48.66854" lon="-3.84698">
        <ele>21.8</ele>
        <time>2025-06-30T09:55:55Z</time>
      </trkpt>
      <trkpt lat="48.66867" lon="-3.84703">
        <ele>22.4</ele>
        <time>2025-06-30T09:55:57Z</time>
      </trkpt>
      <trkpt lat="48.66879" lon="-3.84707">
        <ele>22.9</ele>
        <time>2025-06-30T09:55:59Z</time>
      </trkpt>
      <trkpt lat="48.66891" lon="-3.8471">
        <ele>23.3</ele>
        <time>2025-06-30T09:56:01Z</time>
      </trkpt>
      <trkpt lat="48.66904" lon="-3.84711">
        <ele>23.5</ele>
        <time>2025-06-30T09:56:03Z</time>
      </trkpt>
      <trkpt lat="48.66916" lon="-3.84711">
        <ele>23.4</ele>
        <time>2025-06-30T09:56:05Z</time>
      </trkpt>
      <trkpt lat="48.66928" lon="-3.84708">
        <ele>23.1</ele>
        <time>2025-06-30T09:56:07Z</time>
      </trkpt>
      <trkpt lat="48.66941" lon="-3.84703">
        <ele>22.6</ele>
        <time>2025-06-30T09:56:09Z</time>
      </trkpt>
      <trkpt lat="48.66955" lon="-3.84695">
        <ele>21.6</ele>
        <time>2025-06-30T09:56:11Z</time>
      </trkpt>
      <trkpt lat="48.6697" lon="-3.84684">
        <ele>20.2</ele>
        <time>2025-06-30T09:56:13Z</time>
      </trkpt>
      <trkpt lat="48.66985" lon="-3.8467">
        <ele>18.5</ele>
        <time>2025-06-30T09:56:15Z</time>
      </trkpt>
      <trkpt lat="48.66993" lon="-3.84661">
        <ele>17.5</ele>
        <time>2025-06-30T09:56:16Z</time>
      </trkpt>
      <trkpt lat="48.67001" lon="-3.84652">
        <ele>16.6</ele>
        <time>2025-06-30T09:56:17Z</time>
      </trkpt>
      <trkpt lat="48.67009" lon="-3.84642">
        <ele>15.6</ele>
        <time>2025-06-30T09:56:18Z</time>
      </trkpt>
      <trkpt lat="48.67017" lon="-3.84631">
        <ele>14.8</ele>
        <time>2025-06-30T09:56:19Z</time>
      </trkpt>
      <trkpt lat="48.67025" lon="-3.84619">
        <ele>14</ele>
        <time>2025-06-30T09:56:20Z</time>
      </trkpt>
      <trkpt lat="48.67033" lon="-3.84609">
        <ele>13.4</ele>
        <time>2025-06-30T09:56:21Z</time>
      </trkpt>
      <trkpt lat="48.67042" lon="-3.84598">
        <ele>13</ele>
        <time>2025-06-30T09:56:22Z</time>
      </trkpt>
      <trkpt lat="48.6705" lon="-3.84586">
        <ele>12.6</ele>
        <time>2025-06-30T09:56:23Z</time>
      </trkpt>
      <trkpt lat="48.67059" lon="-3.84576">
        <ele>12.4</ele>
        <time>2025-06-30T09:56:24Z</time>
      </trkpt>
      <trkpt lat="48.67068" lon="-3.84567">
        <ele>12.4</ele>
        <time>2025-06-30T09:56:25Z</time>
      </trkpt>
      <trkpt lat="48.67077" lon="-3.84559">
        <ele>12.5</ele>
        <time>2025-06-30T09:56:26Z</time>
      </trkpt>
      <trkpt lat="48.67086" lon="-3.84552">
        <ele>12.6</ele>
        <time>2025-06-30T09:56:27Z</time>
      </trkpt>
      <trkpt lat="48.67095" lon="-3.84548">
        <ele>12.7</ele>
        <time>2025-06-30T09:56:28Z</time>
      </trkpt>
      <trkpt lat="48.67105" lon="-3.84543">
        <ele>12.8</ele>
        <time>2025-06-30T09:56:29Z</time>
      </trkpt>
      <trkpt lat="48.67114" lon="-3.8454">
        <ele>13.1</ele>
        <time>2025-06-30T09:56:30Z</time>
      </trkpt>
      <trkpt lat="48.6713" lon="-3.84532">
        <ele>14</ele>
        <time>2025-06-30T09:56:32Z</time>
      </trkpt>
      <trkpt lat="48.67145" lon="-3.84527">
        <ele>15</ele>
        <time>2025-06-30T09:56:34Z</time>
      </trkpt>
      <trkpt lat="48.6716" lon="-3.84525">
        <ele>15.9</ele>
        <time>2025-06-30T09:56:36Z</time>
      </trkpt>
      <trkpt lat="48.67172" lon="-3.84525">
        <ele>16.7</ele>
        <time>2025-06-30T09:56:38Z</time>
      </trkpt>
      <trkpt lat="48.67185" lon="-3.84527">
        <ele>17.4</ele>
        <time>2025-06-30T09:56:40Z</time>
      </trkpt>
      <trkpt lat="48.67196" lon="-3.84529">
        <ele>18</ele>
        <time>2025-06-30T09:56:42Z</time>
      </trkpt>
      <trkpt lat="48.67207" lon="-3.84533">
        <ele>18.6</ele>
        <time>2025-06-30T09:56:44Z</time>
      </trkpt>
      <trkpt lat="48.67218" lon="-3.84538">
        <ele>19</ele>
        <time>2025-06-30T09:56:46Z</time>
      </trkpt>
      <trkpt lat="48.67229" lon="-3.84542">
        <ele>19.5</ele>
        <time>2025-06-30T09:56:48Z</time>
      </trkpt>
      <trkpt lat="48.67239" lon="-3.84545">
        <ele>19.9</ele>
        <time>2025-06-30T09:56:50Z</time>
      </trkpt>
      <trkpt lat="48.6725" lon="-3.8455">
        <ele>20.3</ele>
        <time>2025-06-30T09:56:52Z</time>
      </trkpt>
      <trkpt lat="48.67261" lon="-3.84555">
        <ele>20.6</ele>
        <time>2025-06-30T09:56:54Z</time>
      </trkpt>
      <trkpt lat="48.67272" lon="-3.84559">
        <ele>20.9</ele>
        <time>2025-06-30T09:56:56Z</time>
      </trkpt>
      <trkpt lat="48.67283" lon="-3.84564">
        <ele>21.1</ele>
        <time>2025-06-30T09:56:58Z</time>
      </trkpt>
      <trkpt lat="48.67294" lon="-3.84568">
        <ele>21.3</ele>
        <time>2025-06-30T09:57:00Z</time>
      </trkpt>
      <trkpt lat="48.67305" lon="-3.84572">
        <ele>21.5</ele>
        <time>2025-06-30T09:57:02Z</time>
      </trkpt>
      <trkpt lat="48.67316" lon="-3.84576">
        <ele>21.7</ele>
        <time>2025-06-30T09:57:04Z</time>
      </trkpt>
      <trkpt lat="48.67327" lon="-3.8458">
        <ele>21.8</ele>
        <time>2025-06-30T09:57:06Z</time>
      </trkpt>
      <trkpt lat="48.67338" lon="-3.84584">
        <ele>21.9</ele>
        <time>2025-06-30T09:57:08Z</time>
      </trkpt>
      <trkpt lat="48.6735" lon="-3.84588">
        <ele>21.9</ele>
        <time>2025-06-30T09:57:10Z</time>
      </trkpt>
      <trkpt lat="48.67361" lon="-3.84591">
        <ele>21.9</ele>
        <time>2025-06-30T09:57:12Z</time>
      </trkpt>
      <trkpt lat="48.6737" lon="-3.84594">
        <ele>21.9</ele>
        <time>2025-06-30T09:57:14Z</time>
      </trkpt>
      <trkpt lat="48.6738" lon="-3.84599">
        <ele>21.9</ele>
        <time>2025-06-30T09:57:18Z</time>
      </trkpt>
      <trkpt lat="48.67394" lon="-3.84601">
        <ele>21.9</ele>
        <time>2025-06-30T09:59:51Z</time>
      </trkpt>
      <trkpt lat="48.67404" lon="-3.84604">
        <ele>22</ele>
        <time>2025-06-30T09:59:53Z</time>
      </trkpt>
      <trkpt lat="48.67415" lon="-3.84608">
        <ele>22.2</ele>
        <time>2025-06-30T09:59:55Z</time>
      </trkpt>
      <trkpt lat="48.67425" lon="-3.84611">
        <ele>22.3</ele>
        <time>2025-06-30T09:59:57Z</time>
      </trkpt>
      <trkpt lat="48.67436" lon="-3.84614">
        <ele>22.4</ele>
        <time>2025-06-30T09:59:59Z</time>
      </trkpt>
      <trkpt lat="48.67447" lon="-3.84618">
        <ele>22.5</ele>
        <time>2025-06-30T10:00:01Z</time>
      </trkpt>
      <trkpt lat="48.67459" lon="-3.8462">
        <ele>22.7</ele>
        <time>2025-06-30T10:00:03Z</time>
      </trkpt>
      <trkpt lat="48.6747" lon="-3.84623">
        <ele>22.9</ele>
        <time>2025-06-30T10:00:05Z</time>
      </trkpt>
      <trkpt lat="48.67481" lon="-3.84627">
        <ele>23.2</ele>
        <time>2025-06-30T10:00:07Z</time>
      </trkpt>
      <trkpt lat="48.67492" lon="-3.8463">
        <ele>23.5</ele>
        <time>2025-06-30T10:00:09Z</time>
      </trkpt>
      <trkpt lat="48.67504" lon="-3.84633">
        <ele>23.8</ele>
        <time>2025-06-30T10:00:11Z</time>
      </trkpt>
      <trkpt lat="48.67516" lon="-3.84636">
        <ele>24.2</ele>
        <time>2025-06-30T10:00:13Z</time>
      </trkpt>
      <trkpt lat="48.67527" lon="-3.84639">
        <ele>24.6</ele>
        <time>2025-06-30T10:00:15Z</time>
      </trkpt>
      <trkpt lat="48.67538" lon="-3.84641">
        <ele>25</ele>
        <time>2025-06-30T10:00:17Z</time>
      </trkpt>
      <trkpt lat="48.67549" lon="-3.84644">
        <ele>25.5</ele>
        <time>2025-06-30T10:00:19Z</time>
      </trkpt>
      <trkpt lat="48.6756" lon="-3.84645">
        <ele>26.1</ele>
        <time>2025-06-30T10:00:21Z</time>
      </trkpt>
      <trkpt lat="48.6757" lon="-3.84647">
        <ele>26.7</ele>
        <time>2025-06-30T10:00:23Z</time>
      </trkpt>
      <trkpt lat="48.6758" lon="-3.84648">
        <ele>27.3</ele>
        <time>2025-06-30T10:00:25Z</time>
      </trkpt>
      <trkpt lat="48.67591" lon="-3.84649">
        <ele>27.9</ele>
        <time>2025-06-30T10:00:27Z</time>
      </trkpt>
      <trkpt lat="48.676" lon="-3.84651">
        <ele>28.5</ele>
        <time>2025-06-30T10:00:29Z</time>
      </trkpt>
      <trkpt lat="48.6761" lon="-3.84652">
        <ele>29</ele>
        <time>2025-06-30T10:00:31Z</time>
      </trkpt>
      <trkpt lat="48.6762" lon="-3.84654">
        <ele>29.6</ele>
        <time>2025-06-30T10:00:33Z</time>
      </trkpt>
      <trkpt lat="48.67629" lon="-3.84655">
        <ele>30.2</ele>
        <time>2025-06-30T10:00:35Z</time>
      </trkpt>
      <trkpt lat="48.67639" lon="-3.84656">
        <ele>30.8</ele>
        <time>2025-06-30T10:00:37Z</time>
      </trkpt>
      <trkpt lat="48.67649" lon="-3.84657">
        <ele>31.4</ele>
        <time>2025-06-30T10:00:39Z</time>
      </trkpt>
      <trkpt lat="48.67658" lon="-3.84658">
        <ele>32</ele>
        <time>2025-06-30T10:00:41Z</time>
      </trkpt>
      <trkpt lat="48.67668" lon="-3.84658">
        <ele>32.5</ele>
        <time>2025-06-30T10:00:43Z</time>
      </trkpt>
      <trkpt lat="48.67677" lon="-3.8466">
        <ele>33</ele>
        <time>2025-06-30T10:00:45Z</time>
      </trkpt>
      <trkpt lat="48.6769" lon="-3.84661">
        <ele>33.5</ele>
        <time>2025-06-30T10:00:48Z</time>
      </trkpt>
      <trkpt lat="48.67703" lon="-3.84661">
        <ele>33.8</ele>
        <time>2025-06-30T10:00:51Z</time>
      </trkpt>
      <trkpt lat="48.67715" lon="-3.84662">
        <ele>33.8</ele>
        <time>2025-06-30T10:00:54Z</time>
      </trkpt>
      <trkpt lat="48.67728" lon="-3.84662">
        <ele>33.5</ele>
        <time>2025-06-30T10:00:57Z</time>
      </trkpt>
      <trkpt lat="48.67739" lon="-3.84663">
        <ele>33.1</ele>
        <time>2025-06-30T10:00:59Z</time>
      </trkpt>
      <trkpt lat="48.6775" lon="-3.84664">
        <ele>32.6</ele>
        <time>2025-06-30T10:01:01Z</time>
      </trkpt>
      <trkpt lat="48.67762" lon="-3.84664">
        <ele>31.9</ele>
        <time>2025-06-30T10:01:03Z</time>
      </trkpt>
      <trkpt lat="48.67774" lon="-3.84664">
        <ele>31.1</ele>
        <time>2025-06-30T10:01:05Z</time>
      </trkpt>
      <trkpt lat="48.67785" lon="-3.84665">
        <ele>30.5</ele>
        <time>2025-06-30T10:01:07Z</time>
      </trkpt>
      <trkpt lat="48.67795" lon="-3.84666">
        <ele>30</ele>
        <time>2025-06-30T10:01:09Z</time>
      </trkpt>
      <trkpt lat="48.67805" lon="-3.84667">
        <ele>29.5</ele>
        <time>2025-06-30T10:01:11Z</time>
      </trkpt>
      <trkpt lat="48.67817" lon="-3.84665">
        <ele>29</ele>
        <time>2025-06-30T10:01:13Z</time>
      </trkpt>
      <trkpt lat="48.67828" lon="-3.84656">
        <ele>28.7</ele>
        <time>2025-06-30T10:01:15Z</time>
      </trkpt>
      <trkpt lat="48.67827" lon="-3.84633">
        <ele>29.1</ele>
        <time>2025-06-30T10:01:16Z</time>
      </trkpt>
      <trkpt lat="48.67834" lon="-3.84619">
        <ele>29.5</ele>
        <time>2025-06-30T10:01:19Z</time>
      </trkpt>
      <trkpt lat="48.67837" lon="-3.84603">
        <ele>30.1</ele>
        <time>2025-06-30T10:01:21Z</time>
      </trkpt>
      <trkpt lat="48.67837" lon="-3.84587">
        <ele>30.8</ele>
        <time>2025-06-30T10:01:23Z</time>
      </trkpt>
      <trkpt lat="48.6784" lon="-3.84572">
        <ele>31.7</ele>
        <time>2025-06-30T10:01:25Z</time>
      </trkpt>
      <trkpt lat="48.67842" lon="-3.84556">
        <ele>32.6</ele>
        <time>2025-06-30T10:01:27Z</time>
      </trkpt>
      <trkpt lat="48.67842" lon="-3.8454">
        <ele>33.5</ele>
        <time>2025-06-30T10:01:29Z</time>
      </trkpt>
      <trkpt lat="48.6784" lon="-3.84525">
        <ele>34.5</ele>
        <time>2025-06-30T10:01:31Z</time>
      </trkpt>
      <trkpt lat="48.67833" lon="-3.84514">
        <ele>35.3</ele>
        <time>2025-06-30T10:01:33Z</time>
      </trkpt>
      <trkpt lat="48.67825" lon="-3.84503">
        <ele>36.2</ele>
        <time>2025-06-30T10:01:36Z</time>
      </trkpt>
      <trkpt lat="48.67814" lon="-3.84494">
        <ele>37</ele>
        <time>2025-06-30T10:01:39Z</time>
      </trkpt>
      <trkpt lat="48.67802" lon="-3.84485">
        <ele>37.8</ele>
        <time>2025-06-30T10:01:42Z</time>
      </trkpt>
      <trkpt lat="48.67792" lon="-3.84476">
        <ele>38.5</ele>
        <time>2025-06-30T10:01:44Z</time>
      </trkpt>
      <trkpt lat="48.6778" lon="-3.8447">
        <ele>39.2</ele>
        <time>2025-06-30T10:01:46Z</time>
      </trkpt>
      <trkpt lat="48.67772" lon="-3.84463">
        <ele>39.7</ele>
        <time>2025-06-30T10:01:48Z</time>
      </trkpt>
      <trkpt lat="48.67763" lon="-3.84457">
        <ele>40.2</ele>
        <time>2025-06-30T10:01:50Z</time>
      </trkpt>
      <trkpt lat="48.67754" lon="-3.84452">
        <ele>40.7</ele>
        <time>2025-06-30T10:01:52Z</time>
      </trkpt>
      <trkpt lat="48.67744" lon="-3.84442">
        <ele>41.2</ele>
        <time>2025-06-30T10:01:55Z</time>
      </trkpt>
      <trkpt lat="48.67744" lon="-3.84428">
        <ele>41.3</ele>
        <time>2025-06-30T10:01:57Z</time>
      </trkpt>
      <trkpt lat="48.67745" lon="-3.84413">
        <ele>41.2</ele>
        <time>2025-06-30T10:01:59Z</time>
      </trkpt>
      <trkpt lat="48.67746" lon="-3.84398">
        <ele>41</ele>
        <time>2025-06-30T10:02:01Z</time>
      </trkpt>
      <trkpt lat="48.67747" lon="-3.84381">
        <ele>40.9</ele>
        <time>2025-06-30T10:02:03Z</time>
      </trkpt>
      <trkpt lat="48.67747" lon="-3.84363">
        <ele>40.8</ele>
        <time>2025-06-30T10:02:05Z</time>
      </trkpt>
      <trkpt lat="48.67746" lon="-3.84345">
        <ele>40.7</ele>
        <time>2025-06-30T10:02:07Z</time>
      </trkpt>
      <trkpt lat="48.67746" lon="-3.84327">
        <ele>40.8</ele>
        <time>2025-06-30T10:02:09Z</time>
      </trkpt>
      <trkpt lat="48.67746" lon="-3.84309">
        <ele>40.9</ele>
        <time>2025-06-30T10:02:11Z</time>
      </trkpt>
      <trkpt lat="48.67746" lon="-3.84291">
        <ele>41</ele>
        <time>2025-06-30T10:02:13Z</time>
      </trkpt>
      <trkpt lat="48.67746" lon="-3.84273">
        <ele>41.4</ele>
        <time>2025-06-30T10:02:15Z</time>
      </trkpt>
      <trkpt lat="48.67746" lon="-3.84255">
        <ele>41.8</ele>
        <time>2025-06-30T10:02:17Z</time>
      </trkpt>
      <trkpt lat="48.67747" lon="-3.84239">
        <ele>42.2</ele>
        <time>2025-06-30T10:02:19Z</time>
      </trkpt>
      <trkpt lat="48.67748" lon="-3.84222">
        <ele>42.6</ele>
        <time>2025-06-30T10:02:21Z</time>
      </trkpt>
      <trkpt lat="48.67749" lon="-3.84207">
        <ele>43</ele>
        <time>2025-06-30T10:02:23Z</time>
      </trkpt>
      <trkpt lat="48.6775" lon="-3.8419">
        <ele>43.4</ele>
        <time>2025-06-30T10:02:25Z</time>
      </trkpt>
      <trkpt lat="48.67751" lon="-3.84175">
        <ele>43.6</ele>
        <time>2025-06-30T10:02:27Z</time>
      </trkpt>
      <trkpt lat="48.67752" lon="-3.84158">
        <ele>43.8</ele>
        <time>2025-06-30T10:02:29Z</time>
      </trkpt>
      <trkpt lat="48.67753" lon="-3.84142">
        <ele>43.9</ele>
        <time>2025-06-30T10:02:31Z</time>
      </trkpt>
      <trkpt lat="48.67752" lon="-3.84124">
        <ele>43.9</ele>
        <time>2025-06-30T10:02:33Z</time>
      </trkpt>
      <trkpt lat="48.67751" lon="-3.84105">
        <ele>44</ele>
        <time>2025-06-30T10:02:35Z</time>
      </trkpt>
      <trkpt lat="48.67749" lon="-3.84086">
        <ele>44.2</ele>
        <time>2025-06-30T10:02:37Z</time>
      </trkpt>
      <trkpt lat="48.67747" lon="-3.84068">
        <ele>44.5</ele>
        <time>2025-06-30T10:02:39Z</time>
      </trkpt>
      <trkpt lat="48.67745" lon="-3.84051">
        <ele>44.7</ele>
        <time>2025-06-30T10:02:41Z</time>
      </trkpt>
      <trkpt lat="48.67744" lon="-3.84034">
        <ele>44.7</ele>
        <time>2025-06-30T10:02:43Z</time>
      </trkpt>
      <trkpt lat="48.67745" lon="-3.84017">
        <ele>44.6</ele>
        <time>2025-06-30T10:02:45Z</time>
      </trkpt>
      <trkpt lat="48.67747" lon="-3.83998">
        <ele>44.4</ele>
        <time>2025-06-30T10:02:47Z</time>
      </trkpt>
      <trkpt lat="48.67749" lon="-3.83978">
        <ele>44</ele>
        <time>2025-06-30T10:02:49Z</time>
      </trkpt>
      <trkpt lat="48.67753" lon="-3.83958">
        <ele>43.5</ele>
        <time>2025-06-30T10:02:51Z</time>
      </trkpt>
      <trkpt lat="48.67758" lon="-3.83937">
        <ele>43</ele>
        <time>2025-06-30T10:02:53Z</time>
      </trkpt>
      <trkpt lat="48.67766" lon="-3.83916">
        <ele>42.2</ele>
        <time>2025-06-30T10:02:55Z</time>
      </trkpt>
      <trkpt lat="48.67771" lon="-3.83904">
        <ele>41.6</ele>
        <time>2025-06-30T10:02:56Z</time>
      </trkpt>
      <trkpt lat="48.67778" lon="-3.83895">
        <ele>40.9</ele>
        <time>2025-06-30T10:02:57Z</time>
      </trkpt>
      <trkpt lat="48.67787" lon="-3.83888">
        <ele>40.4</ele>
        <time>2025-06-30T10:02:58Z</time>
      </trkpt>
      <trkpt lat="48.67797" lon="-3.83882">
        <ele>39.9</ele>
        <time>2025-06-30T10:02:59Z</time>
      </trkpt>
      <trkpt lat="48.67806" lon="-3.83879">
        <ele>39.7</ele>
        <time>2025-06-30T10:03:00Z</time>
      </trkpt>
      <trkpt lat="48.67817" lon="-3.83877">
        <ele>39.8</ele>
        <time>2025-06-30T10:03:01Z</time>
      </trkpt>
      <trkpt lat="48.67827" lon="-3.83877">
        <ele>40.1</ele>
        <time>2025-06-30T10:03:02Z</time>
      </trkpt>
      <trkpt lat="48.67836" lon="-3.83878">
        <ele>40.6</ele>
        <time>2025-06-30T10:03:03Z</time>
      </trkpt>
      <trkpt lat="48.67845" lon="-3.8388">
        <ele>41.2</ele>
        <time>2025-06-30T10:03:04Z</time>
      </trkpt>
      <trkpt lat="48.67862" lon="-3.83884">
        <ele>42.8</ele>
        <time>2025-06-30T10:03:06Z</time>
      </trkpt>
      <trkpt lat="48.67877" lon="-3.83888">
        <ele>44.4</ele>
        <time>2025-06-30T10:03:08Z</time>
      </trkpt>
      <trkpt lat="48.6789" lon="-3.83892">
        <ele>45.8</ele>
        <time>2025-06-30T10:03:10Z</time>
      </trkpt>
      <trkpt lat="48.67903" lon="-3.83897">
        <ele>46.9</ele>
        <time>2025-06-30T10:03:12Z</time>
      </trkpt>
      <trkpt lat="48.67915" lon="-3.83899">
        <ele>47.7</ele>
        <time>2025-06-30T10:03:14Z</time>
      </trkpt>
      <trkpt lat="48.67927" lon="-3.83901">
        <ele>48.3</ele>
        <time>2025-06-30T10:03:16Z</time>
      </trkpt>
      <trkpt lat="48.6794" lon="-3.83902">
        <ele>48.9</ele>
        <time>2025-06-30T10:03:18Z</time>
      </trkpt>
      <trkpt lat="48.67952" lon="-3.83903">
        <ele>49.4</ele>
        <time>2025-06-30T10:03:20Z</time>
      </trkpt>
      <trkpt lat="48.67965" lon="-3.83903">
        <ele>49.8</ele>
        <time>2025-06-30T10:03:22Z</time>
      </trkpt>
      <trkpt lat="48.67978" lon="-3.83902">
        <ele>50.3</ele>
        <time>2025-06-30T10:03:24Z</time>
      </trkpt>
      <trkpt lat="48.67991" lon="-3.839">
        <ele>50.8</ele>
        <time>2025-06-30T10:03:26Z</time>
      </trkpt>
      <trkpt lat="48.68003" lon="-3.83898">
        <ele>51.3</ele>
        <time>2025-06-30T10:03:28Z</time>
      </trkpt>
      <trkpt lat="48.68016" lon="-3.83898">
        <ele>51.8</ele>
        <time>2025-06-30T10:03:30Z</time>
      </trkpt>
      <trkpt lat="48.68028" lon="-3.83896">
        <ele>52.4</ele>
        <time>2025-06-30T10:03:32Z</time>
      </trkpt>
      <trkpt lat="48.6804" lon="-3.83894">
        <ele>52.9</ele>
        <time>2025-06-30T10:03:34Z</time>
      </trkpt>
      <trkpt lat="48.68053" lon="-3.83892">
        <ele>53.5</ele>
        <time>2025-06-30T10:03:36Z</time>
      </trkpt>
      <trkpt lat="48.68064" lon="-3.83889">
        <ele>54</ele>
        <time>2025-06-30T10:03:38Z</time>
      </trkpt>
      <trkpt lat="48.68074" lon="-3.83883">
        <ele>54.6</ele>
        <time>2025-06-30T10:03:40Z</time>
      </trkpt>
      <trkpt lat="48.68084" lon="-3.83877">
        <ele>55</ele>
        <time>2025-06-30T10:03:42Z</time>
      </trkpt>
      <trkpt lat="48.68091" lon="-3.83867">
        <ele>55.5</ele>
        <time>2025-06-30T10:03:44Z</time>
      </trkpt>
      <trkpt lat="48.68097" lon="-3.83857">
        <ele>55.8</ele>
        <time>2025-06-30T10:03:46Z</time>
      </trkpt>
      <trkpt lat="48.68108" lon="-3.83845">
        <ele>56.3</ele>
        <time>2025-06-30T10:03:49Z</time>
      </trkpt>
      <trkpt lat="48.68118" lon="-3.83845">
        <ele>56.5</ele>
        <time>2025-06-30T10:03:51Z</time>
      </trkpt>
      <trkpt lat="48.68127" lon="-3.83851">
        <ele>56.6</ele>
        <time>2025-06-30T10:03:53Z</time>
      </trkpt>
      <trkpt lat="48.68136" lon="-3.83858">
        <ele>56.8</ele>
        <time>2025-06-30T10:03:55Z</time>
      </trkpt>
      <trkpt lat="48.68145" lon="-3.83864">
        <ele>56.9</ele>
        <time>2025-06-30T10:03:57Z</time>
      </trkpt>
      <trkpt lat="48.68155" lon="-3.83869">
        <ele>57</ele>
        <time>2025-06-30T10:03:59Z</time>
      </trkpt>
      <trkpt lat="48.68165" lon="-3.83872">
        <ele>57</ele>
        <time>2025-06-30T10:04:01Z</time>
      </trkpt>
      <trkpt lat="48.68175" lon="-3.83878">
        <ele>57.1</ele>
        <time>2025-06-30T10:04:03Z</time>
      </trkpt>
      <trkpt lat="48.68185" lon="-3.83882">
        <ele>57.2</ele>
        <time>2025-06-30T10:04:05Z</time>
      </trkpt>
      <trkpt lat="48.68196" lon="-3.83884">
        <ele>57.3</ele>
        <time>2025-06-30T10:04:07Z</time>
      </trkpt>
      <trkpt lat="48.68207" lon="-3.83889">
        <ele>57.3</ele>
        <time>2025-06-30T10:04:09Z</time>
      </trkpt>
      <trkpt lat="48.68218" lon="-3.83894">
        <ele>57.3</ele>
        <time>2025-06-30T10:04:11Z</time>
      </trkpt>
      <trkpt lat="48.68229" lon="-3.83898">
        <ele>57.3</ele>
        <time>2025-06-30T10:04:13Z</time>
      </trkpt>
      <trkpt lat="48.68241" lon="-3.83903">
        <ele>57.4</ele>
        <time>2025-06-30T10:04:15Z</time>
      </trkpt>
      <trkpt lat="48.68253" lon="-3.83907">
        <ele>57.4</ele>
        <time>2025-06-30T10:04:17Z</time>
      </trkpt>
      <trkpt lat="48.68265" lon="-3.8391">
        <ele>57.4</ele>
        <time>2025-06-30T10:04:19Z</time>
      </trkpt>
      <trkpt lat="48.68277" lon="-3.83913">
        <ele>57.4</ele>
        <time>2025-06-30T10:04:21Z</time>
      </trkpt>
      <trkpt lat="48.68289" lon="-3.83918">
        <ele>57.3</ele>
        <time>2025-06-30T10:04:23Z</time>
      </trkpt>
      <trkpt lat="48.68302" lon="-3.83921">
        <ele>57.2</ele>
        <time>2025-06-30T10:04:25Z</time>
      </trkpt>
      <trkpt lat="48.68315" lon="-3.83925">
        <ele>57</ele>
        <time>2025-06-30T10:04:27Z</time>
      </trkpt>
      <trkpt lat="48.68328" lon="-3.83927">
        <ele>56.8</ele>
        <time>2025-06-30T10:04:29Z</time>
      </trkpt>
      <trkpt lat="48.6834" lon="-3.8393">
        <ele>56.7</ele>
        <time>2025-06-30T10:04:31Z</time>
      </trkpt>
      <trkpt lat="48.68353" lon="-3.83933">
        <ele>56.5</ele>
        <time>2025-06-30T10:04:33Z</time>
      </trkpt>
      <trkpt lat="48.68366" lon="-3.83936">
        <ele>56.2</ele>
        <time>2025-06-30T10:04:35Z</time>
      </trkpt>
      <trkpt lat="48.6838" lon="-3.83937">
        <ele>56</ele>
        <time>2025-06-30T10:04:37Z</time>
      </trkpt>
      <trkpt lat="48.68395" lon="-3.83934">
        <ele>55.6</ele>
        <time>2025-06-30T10:04:39Z</time>
      </trkpt>
      <trkpt lat="48.68409" lon="-3.83923">
        <ele>55.2</ele>
        <time>2025-06-30T10:04:41Z</time>
      </trkpt>
      <trkpt lat="48.6842" lon="-3.83905">
        <ele>54.7</ele>
        <time>2025-06-30T10:04:43Z</time>
      </trkpt>
      <trkpt lat="48.68427" lon="-3.83883">
        <ele>54.3</ele>
        <time>2025-06-30T10:04:45Z</time>
      </trkpt>
      <trkpt lat="48.68431" lon="-3.83859">
        <ele>54</ele>
        <time>2025-06-30T10:04:47Z</time>
      </trkpt>
      <trkpt lat="48.68435" lon="-3.83834">
        <ele>53.7</ele>
        <time>2025-06-30T10:04:49Z</time>
      </trkpt>
      <trkpt lat="48.6844" lon="-3.83809">
        <ele>53.4</ele>
        <time>2025-06-30T10:04:51Z</time>
      </trkpt>
      <trkpt lat="48.68443" lon="-3.83782">
        <ele>53.2</ele>
        <time>2025-06-30T10:04:53Z</time>
      </trkpt>
      <trkpt lat="48.68445" lon="-3.83769">
        <ele>53.1</ele>
        <time>2025-06-30T10:04:54Z</time>
      </trkpt>
      <trkpt lat="48.68446" lon="-3.83755">
        <ele>53</ele>
        <time>2025-06-30T10:04:55Z</time>
      </trkpt>
      <trkpt lat="48.68448" lon="-3.83741">
        <ele>53</ele>
        <time>2025-06-30T10:04:56Z</time>
      </trkpt>
      <trkpt lat="48.68452" lon="-3.83715">
        <ele>53.2</ele>
        <time>2025-06-30T10:04:58Z</time>
      </trkpt>
      <trkpt lat="48.68457" lon="-3.8369">
        <ele>53.3</ele>
        <time>2025-06-30T10:05:00Z</time>
      </trkpt>
      <trkpt lat="48.68465" lon="-3.83667">
        <ele>53.3</ele>
        <time>2025-06-30T10:05:02Z</time>
      </trkpt>
      <trkpt lat="48.68475" lon="-3.83645">
        <ele>53.3</ele>
        <time>2025-06-30T10:05:04Z</time>
      </trkpt>
      <trkpt lat="48.68487" lon="-3.83627">
        <ele>53.3</ele>
        <time>2025-06-30T10:05:06Z</time>
      </trkpt>
      <trkpt lat="48.68502" lon="-3.83612">
        <ele>53.2</ele>
        <time>2025-06-30T10:05:08Z</time>
      </trkpt>
      <trkpt lat="48.68518" lon="-3.83601">
        <ele>53.1</ele>
        <time>2025-06-30T10:05:10Z</time>
      </trkpt>
      <trkpt lat="48.68535" lon="-3.83593">
        <ele>53</ele>
        <time>2025-06-30T10:05:12Z</time>
      </trkpt>
      <trkpt lat="48.68544" lon="-3.8359">
        <ele>53</ele>
        <time>2025-06-30T10:05:13Z</time>
      </trkpt>
      <trkpt lat="48.68561" lon="-3.83585">
        <ele>53</ele>
        <time>2025-06-30T10:05:15Z</time>
      </trkpt>
      <trkpt lat="48.6857" lon="-3.83582">
        <ele>53</ele>
        <time>2025-06-30T10:05:16Z</time>
      </trkpt>
      <trkpt lat="48.68588" lon="-3.83576">
        <ele>53</ele>
        <time>2025-06-30T10:05:18Z</time>
      </trkpt>
      <trkpt lat="48.68605" lon="-3.83569">
        <ele>53</ele>
        <time>2025-06-30T10:05:20Z</time>
      </trkpt>
      <trkpt lat="48.68622" lon="-3.83563">
        <ele>53.1</ele>
        <time>2025-06-30T10:05:22Z</time>
      </trkpt>
      <trkpt lat="48.68639" lon="-3.83555">
        <ele>53.2</ele>
        <time>2025-06-30T10:05:24Z</time>
      </trkpt>
      <trkpt lat="48.68655" lon="-3.83552">
        <ele>53.4</ele>
        <time>2025-06-30T10:05:26Z</time>
      </trkpt>
      <trkpt lat="48.68672" lon="-3.8355">
        <ele>53.7</ele>
        <time>2025-06-30T10:05:28Z</time>
      </trkpt>
      <trkpt lat="48.68688" lon="-3.83548">
        <ele>53.9</ele>
        <time>2025-06-30T10:05:30Z</time>
      </trkpt>
      <trkpt lat="48.68704" lon="-3.83546">
        <ele>53.8</ele>
        <time>2025-06-30T10:05:32Z</time>
      </trkpt>
      <trkpt lat="48.68719" lon="-3.83546">
        <ele>53.5</ele>
        <time>2025-06-30T10:05:34Z</time>
      </trkpt>
      <trkpt lat="48.68735" lon="-3.8355">
        <ele>53</ele>
        <time>2025-06-30T10:05:36Z</time>
      </trkpt>
      <trkpt lat="48.68751" lon="-3.83556">
        <ele>52.5</ele>
        <time>2025-06-30T10:05:38Z</time>
      </trkpt>
      <trkpt lat="48.68767" lon="-3.83564">
        <ele>52</ele>
        <time>2025-06-30T10:05:40Z</time>
      </trkpt>
      <trkpt lat="48.68782" lon="-3.83576">
        <ele>51.4</ele>
        <time>2025-06-30T10:05:42Z</time>
      </trkpt>
      <trkpt lat="48.68798" lon="-3.83589">
        <ele>50.8</ele>
        <time>2025-06-30T10:05:44Z</time>
      </trkpt>
      <trkpt lat="48.68806" lon="-3.83595">
        <ele>50.6</ele>
        <time>2025-06-30T10:05:45Z</time>
      </trkpt>
      <trkpt lat="48.68815" lon="-3.83599">
        <ele>50.4</ele>
        <time>2025-06-30T10:05:46Z</time>
      </trkpt>
      <trkpt lat="48.68823" lon="-3.83603">
        <ele>50.2</ele>
        <time>2025-06-30T10:05:47Z</time>
      </trkpt>
      <trkpt lat="48.68841" lon="-3.83606">
        <ele>49.8</ele>
        <time>2025-06-30T10:05:49Z</time>
      </trkpt>
      <trkpt lat="48.68859" lon="-3.83607">
        <ele>49.5</ele>
        <time>2025-06-30T10:05:51Z</time>
      </trkpt>
      <trkpt lat="48.68868" lon="-3.83607">
        <ele>49.4</ele>
        <time>2025-06-30T10:05:52Z</time>
      </trkpt>
      <trkpt lat="48.68885" lon="-3.83604">
        <ele>49.1</ele>
        <time>2025-06-30T10:05:54Z</time>
      </trkpt>
      <trkpt lat="48.68902" lon="-3.83598">
        <ele>48.9</ele>
        <time>2025-06-30T10:05:56Z</time>
      </trkpt>
      <trkpt lat="48.68918" lon="-3.83588">
        <ele>48.8</ele>
        <time>2025-06-30T10:05:58Z</time>
      </trkpt>
      <trkpt lat="48.68933" lon="-3.83574">
        <ele>48.6</ele>
        <time>2025-06-30T10:06:00Z</time>
      </trkpt>
      <trkpt lat="48.68948" lon="-3.83564">
        <ele>48.4</ele>
        <time>2025-06-30T10:06:02Z</time>
      </trkpt>
      <trkpt lat="48.68963" lon="-3.83555">
        <ele>48.2</ele>
        <time>2025-06-30T10:06:04Z</time>
      </trkpt>
      <trkpt lat="48.6898" lon="-3.83549">
        <ele>47.8</ele>
        <time>2025-06-30T10:06:06Z</time>
      </trkpt>
      <trkpt lat="48.68997" lon="-3.83541">
        <ele>47.2</ele>
        <time>2025-06-30T10:06:08Z</time>
      </trkpt>
      <trkpt lat="48.69006" lon="-3.83538">
        <ele>46.9</ele>
        <time>2025-06-30T10:06:09Z</time>
      </trkpt>
      <trkpt lat="48.69015" lon="-3.83535">
        <ele>46.5</ele>
        <time>2025-06-30T10:06:10Z</time>
      </trkpt>
      <trkpt lat="48.69024" lon="-3.83531">
        <ele>46.1</ele>
        <time>2025-06-30T10:06:11Z</time>
      </trkpt>
      <trkpt lat="48.69034" lon="-3.83528">
        <ele>45.8</ele>
        <time>2025-06-30T10:06:12Z</time>
      </trkpt>
      <trkpt lat="48.69043" lon="-3.83525">
        <ele>45.6</ele>
        <time>2025-06-30T10:06:13Z</time>
      </trkpt>
      <trkpt lat="48.69054" lon="-3.83523">
        <ele>45.6</ele>
        <time>2025-06-30T10:06:14Z</time>
      </trkpt>
      <trkpt lat="48.69063" lon="-3.8352">
        <ele>45.4</ele>
        <time>2025-06-30T10:06:15Z</time>
      </trkpt>
      <trkpt lat="48.69073" lon="-3.83518">
        <ele>45.4</ele>
        <time>2025-06-30T10:06:16Z</time>
      </trkpt>
      <trkpt lat="48.69082" lon="-3.83517">
        <ele>45.5</ele>
        <time>2025-06-30T10:06:17Z</time>
      </trkpt>
      <trkpt lat="48.69091" lon="-3.83516">
        <ele>45.6</ele>
        <time>2025-06-30T10:06:18Z</time>
      </trkpt>
      <trkpt lat="48.69108" lon="-3.83516">
        <ele>46</ele>
        <time>2025-06-30T10:06:20Z</time>
      </trkpt>
      <trkpt lat="48.69124" lon="-3.83517">
        <ele>46.5</ele>
        <time>2025-06-30T10:06:22Z</time>
      </trkpt>
      <trkpt lat="48.69139" lon="-3.83519">
        <ele>47</ele>
        <time>2025-06-30T10:06:24Z</time>
      </trkpt>
      <trkpt lat="48.69154" lon="-3.83522">
        <ele>47.5</ele>
        <time>2025-06-30T10:06:26Z</time>
      </trkpt>
      <trkpt lat="48.69167" lon="-3.83524">
        <ele>48</ele>
        <time>2025-06-30T10:06:28Z</time>
      </trkpt>
      <trkpt lat="48.69181" lon="-3.83526">
        <ele>48.6</ele>
        <time>2025-06-30T10:06:30Z</time>
      </trkpt>
      <trkpt lat="48.69194" lon="-3.83529">
        <ele>49.1</ele>
        <time>2025-06-30T10:06:32Z</time>
      </trkpt>
      <trkpt lat="48.69207" lon="-3.83532">
        <ele>49.5</ele>
        <time>2025-06-30T10:06:34Z</time>
      </trkpt>
      <trkpt lat="48.69221" lon="-3.83534">
        <ele>49.9</ele>
        <time>2025-06-30T10:06:36Z</time>
      </trkpt>
      <trkpt lat="48.69234" lon="-3.83536">
        <ele>50.3</ele>
        <time>2025-06-30T10:06:38Z</time>
      </trkpt>
      <trkpt lat="48.69248" lon="-3.83538">
        <ele>50.6</ele>
        <time>2025-06-30T10:06:40Z</time>
      </trkpt>
      <trkpt lat="48.69261" lon="-3.83541">
        <ele>51</ele>
        <time>2025-06-30T10:06:42Z</time>
      </trkpt>
      <trkpt lat="48.69274" lon="-3.83543">
        <ele>51.3</ele>
        <time>2025-06-30T10:06:44Z</time>
      </trkpt>
      <trkpt lat="48.69287" lon="-3.83546">
        <ele>51.6</ele>
        <time>2025-06-30T10:06:46Z</time>
      </trkpt>
      <trkpt lat="48.69299" lon="-3.83549">
        <ele>52</ele>
        <time>2025-06-30T10:06:48Z</time>
      </trkpt>
      <trkpt lat="48.69312" lon="-3.8355">
        <ele>52.2</ele>
        <time>2025-06-30T10:06:50Z</time>
      </trkpt>
      <trkpt lat="48.69325" lon="-3.83553">
        <ele>52.5</ele>
        <time>2025-06-30T10:06:52Z</time>
      </trkpt>
      <trkpt lat="48.69337" lon="-3.83556">
        <ele>52.8</ele>
        <time>2025-06-30T10:06:54Z</time>
      </trkpt>
      <trkpt lat="48.6935" lon="-3.83558">
        <ele>53</ele>
        <time>2025-06-30T10:06:56Z</time>
      </trkpt>
      <trkpt lat="48.69363" lon="-3.83561">
        <ele>53.2</ele>
        <time>2025-06-30T10:06:58Z</time>
      </trkpt>
      <trkpt lat="48.69376" lon="-3.83563">
        <ele>53.4</ele>
        <time>2025-06-30T10:07:00Z</time>
      </trkpt>
      <trkpt lat="48.69388" lon="-3.83565">
        <ele>53.6</ele>
        <time>2025-06-30T10:07:02Z</time>
      </trkpt>
      <trkpt lat="48.69401" lon="-3.83568">
        <ele>53.6</ele>
        <time>2025-06-30T10:07:04Z</time>
      </trkpt>
      <trkpt lat="48.69414" lon="-3.8357">
        <ele>53.6</ele>
        <time>2025-06-30T10:07:06Z</time>
      </trkpt>
      <trkpt lat="48.69427" lon="-3.83572">
        <ele>53.5</ele>
        <time>2025-06-30T10:07:08Z</time>
      </trkpt>
      <trkpt lat="48.6944" lon="-3.83575">
        <ele>53.3</ele>
        <time>2025-06-30T10:07:10Z</time>
      </trkpt>
      <trkpt lat="48.69453" lon="-3.83577">
        <ele>53.1</ele>
        <time>2025-06-30T10:07:12Z</time>
      </trkpt>
      <trkpt lat="48.69467" lon="-3.83579">
        <ele>52.8</ele>
        <time>2025-06-30T10:07:14Z</time>
      </trkpt>
      <trkpt lat="48.6948" lon="-3.83582">
        <ele>52.5</ele>
        <time>2025-06-30T10:07:16Z</time>
      </trkpt>
      <trkpt lat="48.69495" lon="-3.83586">
        <ele>52.1</ele>
        <time>2025-06-30T10:07:18Z</time>
      </trkpt>
      <trkpt lat="48.6951" lon="-3.83589">
        <ele>51.7</ele>
        <time>2025-06-30T10:07:20Z</time>
      </trkpt>
      <trkpt lat="48.69525" lon="-3.83592">
        <ele>51.2</ele>
        <time>2025-06-30T10:07:22Z</time>
      </trkpt>
      <trkpt lat="48.69541" lon="-3.83596">
        <ele>50.6</ele>
        <time>2025-06-30T10:07:24Z</time>
      </trkpt>
      <trkpt lat="48.69557" lon="-3.83601">
        <ele>49.8</ele>
        <time>2025-06-30T10:07:26Z</time>
      </trkpt>
      <trkpt lat="48.69573" lon="-3.83607">
        <ele>48.9</ele>
        <time>2025-06-30T10:07:28Z</time>
      </trkpt>
      <trkpt lat="48.6959" lon="-3.83614">
        <ele>47.9</ele>
        <time>2025-06-30T10:07:30Z</time>
      </trkpt>
      <trkpt lat="48.69599" lon="-3.83619">
        <ele>47.3</ele>
        <time>2025-06-30T10:07:31Z</time>
      </trkpt>
      <trkpt lat="48.69608" lon="-3.83623">
        <ele>46.9</ele>
        <time>2025-06-30T10:07:32Z</time>
      </trkpt>
      <trkpt lat="48.69618" lon="-3.83627">
        <ele>46.4</ele>
        <time>2025-06-30T10:07:33Z</time>
      </trkpt>
      <trkpt lat="48.69627" lon="-3.83633">
        <ele>45.9</ele>
        <time>2025-06-30T10:07:34Z</time>
      </trkpt>
      <trkpt lat="48.69637" lon="-3.83638">
        <ele>45.4</ele>
        <time>2025-06-30T10:07:35Z</time>
      </trkpt>
      <trkpt lat="48.69647" lon="-3.83642">
        <ele>44.9</ele>
        <time>2025-06-30T10:07:36Z</time>
      </trkpt>
      <trkpt lat="48.69657" lon="-3.83648">
        <ele>44.5</ele>
        <time>2025-06-30T10:07:37Z</time>
      </trkpt>
      <trkpt lat="48.69667" lon="-3.83655">
        <ele>44.1</ele>
        <time>2025-06-30T10:07:38Z</time>
      </trkpt>
      <trkpt lat="48.69677" lon="-3.83661">
        <ele>43.7</ele>
        <time>2025-06-30T10:07:39Z</time>
      </trkpt>
      <trkpt lat="48.69687" lon="-3.83669">
        <ele>43.4</ele>
        <time>2025-06-30T10:07:40Z</time>
      </trkpt>
      <trkpt lat="48.69696" lon="-3.83676">
        <ele>43.2</ele>
        <time>2025-06-30T10:07:41Z</time>
      </trkpt>
      <trkpt lat="48.69706" lon="-3.83684">
        <ele>43</ele>
        <time>2025-06-30T10:07:42Z</time>
      </trkpt>
      <trkpt lat="48.69715" lon="-3.83691">
        <ele>42.9</ele>
        <time>2025-06-30T10:07:43Z</time>
      </trkpt>
      <trkpt lat="48.69724" lon="-3.83699">
        <ele>42.9</ele>
        <time>2025-06-30T10:07:44Z</time>
      </trkpt>
      <trkpt lat="48.69733" lon="-3.83706">
        <ele>42.8</ele>
        <time>2025-06-30T10:07:45Z</time>
      </trkpt>
      <trkpt lat="48.69742" lon="-3.83714">
        <ele>42.8</ele>
        <time>2025-06-30T10:07:46Z</time>
      </trkpt>
      <trkpt lat="48.69751" lon="-3.83721">
        <ele>42.7</ele>
        <time>2025-06-30T10:07:47Z</time>
      </trkpt>
      <trkpt lat="48.69759" lon="-3.83729">
        <ele>42.5</ele>
        <time>2025-06-30T10:07:48Z</time>
      </trkpt>
      <trkpt lat="48.69768" lon="-3.83736">
        <ele>42.4</ele>
        <time>2025-06-30T10:07:49Z</time>
      </trkpt>
      <trkpt lat="48.69776" lon="-3.83743">
        <ele>42.4</ele>
        <time>2025-06-30T10:07:50Z</time>
      </trkpt>
      <trkpt lat="48.69785" lon="-3.8375">
        <ele>42.4</ele>
        <time>2025-06-30T10:07:51Z</time>
      </trkpt>
      <trkpt lat="48.69793" lon="-3.83757">
        <ele>42.5</ele>
        <time>2025-06-30T10:07:52Z</time>
      </trkpt>
      <trkpt lat="48.69801" lon="-3.83764">
        <ele>42.7</ele>
        <time>2025-06-30T10:07:53Z</time>
      </trkpt>
      <trkpt lat="48.69809" lon="-3.83771">
        <ele>42.9</ele>
        <time>2025-06-30T10:07:54Z</time>
      </trkpt>
      <trkpt lat="48.69824" lon="-3.83784">
        <ele>43.6</ele>
        <time>2025-06-30T10:07:56Z</time>
      </trkpt>
      <trkpt lat="48.69838" lon="-3.83795">
        <ele>44.4</ele>
        <time>2025-06-30T10:07:58Z</time>
      </trkpt>
      <trkpt lat="48.6985" lon="-3.83805">
        <ele>45.2</ele>
        <time>2025-06-30T10:08:00Z</time>
      </trkpt>
      <trkpt lat="48.69861" lon="-3.83812">
        <ele>46.1</ele>
        <time>2025-06-30T10:08:02Z</time>
      </trkpt>
      <trkpt lat="48.69871" lon="-3.83818">
        <ele>47</ele>
        <time>2025-06-30T10:08:04Z</time>
      </trkpt>
      <trkpt lat="48.69884" lon="-3.83822">
        <ele>48.2</ele>
        <time>2025-06-30T10:08:07Z</time>
      </trkpt>
      <trkpt lat="48.69895" lon="-3.83824">
        <ele>49.1</ele>
        <time>2025-06-30T10:08:10Z</time>
      </trkpt>
      <trkpt lat="48.69907" lon="-3.83826">
        <ele>49.9</ele>
        <time>2025-06-30T10:08:13Z</time>
      </trkpt>
      <trkpt lat="48.69919" lon="-3.83827">
        <ele>50.7</ele>
        <time>2025-06-30T10:08:16Z</time>
      </trkpt>
      <trkpt lat="48.69931" lon="-3.83826">
        <ele>51.5</ele>
        <time>2025-06-30T10:08:19Z</time>
      </trkpt>
      <trkpt lat="48.69943" lon="-3.83825">
        <ele>52.2</ele>
        <time>2025-06-30T10:08:22Z</time>
      </trkpt>
      <trkpt lat="48.69954" lon="-3.83821">
        <ele>52.7</ele>
        <time>2025-06-30T10:08:25Z</time>
      </trkpt>
      <trkpt lat="48.69964" lon="-3.83817">
        <ele>53.1</ele>
        <time>2025-06-30T10:08:28Z</time>
      </trkpt>
      <trkpt lat="48.69975" lon="-3.83812">
        <ele>53.3</ele>
        <time>2025-06-30T10:08:31Z</time>
      </trkpt>
      <trkpt lat="48.69986" lon="-3.83809">
        <ele>53.3</ele>
        <time>2025-06-30T10:08:34Z</time>
      </trkpt>
      <trkpt lat="48.69998" lon="-3.83804">
        <ele>53</ele>
        <time>2025-06-30T10:08:37Z</time>
      </trkpt>
      <trkpt lat="48.70007" lon="-3.838">
        <ele>52.6</ele>
        <time>2025-06-30T10:08:39Z</time>
      </trkpt>
      <trkpt lat="48.70018" lon="-3.83797">
        <ele>51.9</ele>
        <time>2025-06-30T10:08:41Z</time>
      </trkpt>
      <trkpt lat="48.70031" lon="-3.83792">
        <ele>51.1</ele>
        <time>2025-06-30T10:08:43Z</time>
      </trkpt>
      <trkpt lat="48.70046" lon="-3.83787">
        <ele>50.2</ele>
        <time>2025-06-30T10:08:45Z</time>
      </trkpt>
      <trkpt lat="48.70062" lon="-3.83781">
        <ele>49.6</ele>
        <time>2025-06-30T10:08:47Z</time>
      </trkpt>
      <trkpt lat="48.70078" lon="-3.83774">
        <ele>48.7</ele>
        <time>2025-06-30T10:08:49Z</time>
      </trkpt>
      <trkpt lat="48.70096" lon="-3.83768">
        <ele>47.7</ele>
        <time>2025-06-30T10:08:51Z</time>
      </trkpt>
      <trkpt lat="48.70114" lon="-3.83762">
        <ele>46.9</ele>
        <time>2025-06-30T10:08:53Z</time>
      </trkpt>
      <trkpt lat="48.70131" lon="-3.83754">
        <ele>46.5</ele>
        <time>2025-06-30T10:08:55Z</time>
      </trkpt>
      <trkpt lat="48.70141" lon="-3.83751">
        <ele>46.5</ele>
        <time>2025-06-30T10:08:56Z</time>
      </trkpt>
      <trkpt lat="48.70158" lon="-3.83744">
        <ele>46.7</ele>
        <time>2025-06-30T10:08:58Z</time>
      </trkpt>
      <trkpt lat="48.70174" lon="-3.83736">
        <ele>47.2</ele>
        <time>2025-06-30T10:09:00Z</time>
      </trkpt>
      <trkpt lat="48.70189" lon="-3.83728">
        <ele>47.7</ele>
        <time>2025-06-30T10:09:02Z</time>
      </trkpt>
      <trkpt lat="48.70201" lon="-3.83721">
        <ele>48</ele>
        <time>2025-06-30T10:09:04Z</time>
      </trkpt>
      <trkpt lat="48.70212" lon="-3.83711">
        <ele>48.2</ele>
        <time>2025-06-30T10:09:06Z</time>
      </trkpt>
      <trkpt lat="48.70223" lon="-3.83701">
        <ele>48.1</ele>
        <time>2025-06-30T10:09:08Z</time>
      </trkpt>
      <trkpt lat="48.70233" lon="-3.83689">
        <ele>47.7</ele>
        <time>2025-06-30T10:09:10Z</time>
      </trkpt>
      <trkpt lat="48.70243" lon="-3.83675">
        <ele>47.2</ele>
        <time>2025-06-30T10:09:12Z</time>
      </trkpt>
      <trkpt lat="48.70252" lon="-3.83658">
        <ele>46.6</ele>
        <time>2025-06-30T10:09:14Z</time>
      </trkpt>
      <trkpt lat="48.70261" lon="-3.83637">
        <ele>45.7</ele>
        <time>2025-06-30T10:09:16Z</time>
      </trkpt>
      <trkpt lat="48.70268" lon="-3.83615">
        <ele>44.7</ele>
        <time>2025-06-30T10:09:18Z</time>
      </trkpt>
      <trkpt lat="48.70273" lon="-3.8359">
        <ele>43.6</ele>
        <time>2025-06-30T10:09:20Z</time>
      </trkpt>
      <trkpt lat="48.70278" lon="-3.83564">
        <ele>42.3</ele>
        <time>2025-06-30T10:09:22Z</time>
      </trkpt>
      <trkpt lat="48.70281" lon="-3.83551">
        <ele>41.7</ele>
        <time>2025-06-30T10:09:23Z</time>
      </trkpt>
      <trkpt lat="48.70283" lon="-3.83537">
        <ele>41</ele>
        <time>2025-06-30T10:09:24Z</time>
      </trkpt>
      <trkpt lat="48.70286" lon="-3.83523">
        <ele>40.4</ele>
        <time>2025-06-30T10:09:25Z</time>
      </trkpt>
      <trkpt lat="48.70289" lon="-3.83509">
        <ele>39.8</ele>
        <time>2025-06-30T10:09:26Z</time>
      </trkpt>
      <trkpt lat="48.70292" lon="-3.83495">
        <ele>39.2</ele>
        <time>2025-06-30T10:09:27Z</time>
      </trkpt>
      <trkpt lat="48.70294" lon="-3.8348">
        <ele>38.7</ele>
        <time>2025-06-30T10:09:28Z</time>
      </trkpt>
      <trkpt lat="48.70297" lon="-3.83465">
        <ele>38.1</ele>
        <time>2025-06-30T10:09:29Z</time>
      </trkpt>
      <trkpt lat="48.703" lon="-3.8345">
        <ele>37.6</ele>
        <time>2025-06-30T10:09:30Z</time>
      </trkpt>
      <trkpt lat="48.70303" lon="-3.83437">
        <ele>37.2</ele>
        <time>2025-06-30T10:09:31Z</time>
      </trkpt>
      <trkpt lat="48.70308" lon="-3.83413">
        <ele>36.7</ele>
        <time>2025-06-30T10:09:33Z</time>
      </trkpt>
      <trkpt lat="48.70314" lon="-3.83391">
        <ele>36.5</ele>
        <time>2025-06-30T10:09:35Z</time>
      </trkpt>
      <trkpt lat="48.70325" lon="-3.8337">
        <ele>36.3</ele>
        <time>2025-06-30T10:09:37Z</time>
      </trkpt>
      <trkpt lat="48.70333" lon="-3.83365">
        <ele>36.2</ele>
        <time>2025-06-30T10:09:38Z</time>
      </trkpt>
      <trkpt lat="48.70349" lon="-3.83355">
        <ele>36.3</ele>
        <time>2025-06-30T10:09:40Z</time>
      </trkpt>
      <trkpt lat="48.70362" lon="-3.83343">
        <ele>36.3</ele>
        <time>2025-06-30T10:09:42Z</time>
      </trkpt>
      <trkpt lat="48.70375" lon="-3.83328">
        <ele>36.1</ele>
        <time>2025-06-30T10:09:44Z</time>
      </trkpt>
      <trkpt lat="48.70388" lon="-3.83315">
        <ele>35.8</ele>
        <time>2025-06-30T10:09:46Z</time>
      </trkpt>
      <trkpt lat="48.70401" lon="-3.83301">
        <ele>35.6</ele>
        <time>2025-06-30T10:09:48Z</time>
      </trkpt>
      <trkpt lat="48.70416" lon="-3.83291">
        <ele>35.5</ele>
        <time>2025-06-30T10:09:50Z</time>
      </trkpt>
      <trkpt lat="48.70431" lon="-3.8328">
        <ele>35.4</ele>
        <time>2025-06-30T10:09:52Z</time>
      </trkpt>
      <trkpt lat="48.70446" lon="-3.83273">
        <ele>35.1</ele>
        <time>2025-06-30T10:09:54Z</time>
      </trkpt>
      <trkpt lat="48.70461" lon="-3.83265">
        <ele>34.8</ele>
        <time>2025-06-30T10:09:56Z</time>
      </trkpt>
      <trkpt lat="48.70475" lon="-3.83254">
        <ele>34.2</ele>
        <time>2025-06-30T10:09:58Z</time>
      </trkpt>
      <trkpt lat="48.7049" lon="-3.83248">
        <ele>33.3</ele>
        <time>2025-06-30T10:10:00Z</time>
      </trkpt>
      <trkpt lat="48.70506" lon="-3.8324">
        <ele>32.2</ele>
        <time>2025-06-30T10:10:02Z</time>
      </trkpt>
      <trkpt lat="48.70519" lon="-3.83235">
        <ele>31.3</ele>
        <time>2025-06-30T10:10:04Z</time>
      </trkpt>
      <trkpt lat="48.7053" lon="-3.83227">
        <ele>30.6</ele>
        <time>2025-06-30T10:10:06Z</time>
      </trkpt>
      <trkpt lat="48.70538" lon="-3.83214">
        <ele>30</ele>
        <time>2025-06-30T10:10:08Z</time>
      </trkpt>
      <trkpt lat="48.70544" lon="-3.83197">
        <ele>29.5</ele>
        <time>2025-06-30T10:10:10Z</time>
      </trkpt>
      <trkpt lat="48.70548" lon="-3.83179">
        <ele>29.2</ele>
        <time>2025-06-30T10:10:12Z</time>
      </trkpt>
      <trkpt lat="48.70551" lon="-3.83159">
        <ele>28.9</ele>
        <time>2025-06-30T10:10:14Z</time>
      </trkpt>
      <trkpt lat="48.70557" lon="-3.83139">
        <ele>28.6</ele>
        <time>2025-06-30T10:10:16Z</time>
      </trkpt>
      <trkpt lat="48.70562" lon="-3.83119">
        <ele>28.2</ele>
        <time>2025-06-30T10:10:18Z</time>
      </trkpt>
      <trkpt lat="48.70568" lon="-3.83098">
        <ele>27.7</ele>
        <time>2025-06-30T10:10:20Z</time>
      </trkpt>
      <trkpt lat="48.70572" lon="-3.83076">
        <ele>26.8</ele>
        <time>2025-06-30T10:10:22Z</time>
      </trkpt>
      <trkpt lat="48.70574" lon="-3.83052">
        <ele>25.3</ele>
        <time>2025-06-30T10:10:24Z</time>
      </trkpt>
      <trkpt lat="48.70573" lon="-3.83028">
        <ele>23.9</ele>
        <time>2025-06-30T10:10:26Z</time>
      </trkpt>
      <trkpt lat="48.70566" lon="-3.83003">
        <ele>22.9</ele>
        <time>2025-06-30T10:10:28Z</time>
      </trkpt>
      <trkpt lat="48.70561" lon="-3.82991">
        <ele>22.4</ele>
        <time>2025-06-30T10:10:29Z</time>
      </trkpt>
      <trkpt lat="48.70555" lon="-3.8298">
        <ele>21.8</ele>
        <time>2025-06-30T10:10:30Z</time>
      </trkpt>
      <trkpt lat="48.70549" lon="-3.82969">
        <ele>21.1</ele>
        <time>2025-06-30T10:10:31Z</time>
      </trkpt>
      <trkpt lat="48.70538" lon="-3.82949">
        <ele>19.9</ele>
        <time>2025-06-30T10:10:33Z</time>
      </trkpt>
      <trkpt lat="48.70524" lon="-3.82933">
        <ele>18.2</ele>
        <time>2025-06-30T10:10:35Z</time>
      </trkpt>
      <trkpt lat="48.70515" lon="-3.82926">
        <ele>17</ele>
        <time>2025-06-30T10:10:36Z</time>
      </trkpt>
      <trkpt lat="48.70505" lon="-3.82922">
        <ele>15.7</ele>
        <time>2025-06-30T10:10:37Z</time>
      </trkpt>
      <trkpt lat="48.70493" lon="-3.82919">
        <ele>14.3</ele>
        <time>2025-06-30T10:10:38Z</time>
      </trkpt>
      <trkpt lat="48.70482" lon="-3.82917">
        <ele>12.8</ele>
        <time>2025-06-30T10:10:39Z</time>
      </trkpt>
      <trkpt lat="48.7047" lon="-3.82914">
        <ele>11.5</ele>
        <time>2025-06-30T10:10:40Z</time>
      </trkpt>
      <trkpt lat="48.70458" lon="-3.8291">
        <ele>10.4</ele>
        <time>2025-06-30T10:10:41Z</time>
      </trkpt>
      <trkpt lat="48.70446" lon="-3.82903">
        <ele>9.2</ele>
        <time>2025-06-30T10:10:42Z</time>
      </trkpt>
      <trkpt lat="48.70434" lon="-3.82895">
        <ele>8.1</ele>
        <time>2025-06-30T10:10:43Z</time>
      </trkpt>
      <trkpt lat="48.70423" lon="-3.82886">
        <ele>7.2</ele>
        <time>2025-06-30T10:10:44Z</time>
      </trkpt>
      <trkpt lat="48.70412" lon="-3.82874">
        <ele>6.6</ele>
        <time>2025-06-30T10:10:45Z</time>
      </trkpt>
      <trkpt lat="48.70403" lon="-3.8286">
        <ele>6.2</ele>
        <time>2025-06-30T10:10:46Z</time>
      </trkpt>
      <trkpt lat="48.70395" lon="-3.82845">
        <ele>5.9</ele>
        <time>2025-06-30T10:10:47Z</time>
      </trkpt>
      <trkpt lat="48.70387" lon="-3.82829">
        <ele>5.7</ele>
        <time>2025-06-30T10:10:48Z</time>
      </trkpt>
      <trkpt lat="48.70381" lon="-3.82813">
        <ele>5.6</ele>
        <time>2025-06-30T10:10:49Z</time>
      </trkpt>
      <trkpt lat="48.70375" lon="-3.82796">
        <ele>5.5</ele>
        <time>2025-06-30T10:10:50Z</time>
      </trkpt>
      <trkpt lat="48.7037" lon="-3.8278">
        <ele>5.5</ele>
        <time>2025-06-30T10:10:51Z</time>
      </trkpt>
      <trkpt lat="48.70364" lon="-3.82765">
        <ele>5.4</ele>
        <time>2025-06-30T10:10:52Z</time>
      </trkpt>
      <trkpt lat="48.70359" lon="-3.8275">
        <ele>5.4</ele>
        <time>2025-06-30T10:10:53Z</time>
      </trkpt>
      <trkpt lat="48.70352" lon="-3.82737">
        <ele>5.4</ele>
        <time>2025-06-30T10:10:54Z</time>
      </trkpt>
      <trkpt lat="48.70346" lon="-3.82722">
        <ele>5.3</ele>
        <time>2025-06-30T10:10:55Z</time>
      </trkpt>
      <trkpt lat="48.70341" lon="-3.82708">
        <ele>5.3</ele>
        <time>2025-06-30T10:10:56Z</time>
      </trkpt>
      <trkpt lat="48.70336" lon="-3.82694">
        <ele>5.3</ele>
        <time>2025-06-30T10:10:57Z</time>
      </trkpt>
      <trkpt lat="48.70331" lon="-3.82679">
        <ele>5.2</ele>
        <time>2025-06-30T10:10:58Z</time>
      </trkpt>
      <trkpt lat="48.70326" lon="-3.82665">
        <ele>5.2</ele>
        <time>2025-06-30T10:10:59Z</time>
      </trkpt>
      <trkpt lat="48.7032" lon="-3.82651">
        <ele>5.1</ele>
        <time>2025-06-30T10:11:00Z</time>
      </trkpt>
      <trkpt lat="48.70315" lon="-3.82637">
        <ele>5.1</ele>
        <time>2025-06-30T10:11:01Z</time>
      </trkpt>
      <trkpt lat="48.7031" lon="-3.82622">
        <ele>5</ele>
        <time>2025-06-30T10:11:02Z</time>
      </trkpt>
      <trkpt lat="48.70305" lon="-3.82608">
        <ele>5</ele>
        <time>2025-06-30T10:11:03Z</time>
      </trkpt>
      <trkpt lat="48.70299" lon="-3.82594">
        <ele>4.9</ele>
        <time>2025-06-30T10:11:04Z</time>
      </trkpt>
      <trkpt lat="48.70294" lon="-3.8258">
        <ele>4.9</ele>
        <time>2025-06-30T10:11:05Z</time>
      </trkpt>
      <trkpt lat="48.70289" lon="-3.82566">
        <ele>4.9</ele>
        <time>2025-06-30T10:11:06Z</time>
      </trkpt>
      <trkpt lat="48.70284" lon="-3.82551">
        <ele>4.9</ele>
        <time>2025-06-30T10:11:07Z</time>
      </trkpt>
      <trkpt lat="48.70279" lon="-3.82538">
        <ele>4.9</ele>
        <time>2025-06-30T10:11:08Z</time>
      </trkpt>
      <trkpt lat="48.70274" lon="-3.82524">
        <ele>4.9</ele>
        <time>2025-06-30T10:11:09Z</time>
      </trkpt>
      <trkpt lat="48.70268" lon="-3.8251">
        <ele>4.9</ele>
        <time>2025-06-30T10:11:10Z</time>
      </trkpt>
      <trkpt lat="48.70262" lon="-3.82497">
        <ele>4.9</ele>
        <time>2025-06-30T10:11:11Z</time>
      </trkpt>
      <trkpt lat="48.70258" lon="-3.82483">
        <ele>4.9</ele>
        <time>2025-06-30T10:11:12Z</time>
      </trkpt>
      <trkpt lat="48.70252" lon="-3.82469">
        <ele>4.9</ele>
        <time>2025-06-30T10:11:13Z</time>
      </trkpt>
      <trkpt lat="48.70247" lon="-3.82455">
        <ele>4.8</ele>
        <time>2025-06-30T10:11:14Z</time>
      </trkpt>
      <trkpt lat="48.70242" lon="-3.82441">
        <ele>4.8</ele>
        <time>2025-06-30T10:11:15Z</time>
      </trkpt>
      <trkpt lat="48.70237" lon="-3.82428">
        <ele>4.8</ele>
        <time>2025-06-30T10:11:16Z</time>
      </trkpt>
      <trkpt lat="48.70232" lon="-3.82414">
        <ele>4.8</ele>
        <time>2025-06-30T10:11:17Z</time>
      </trkpt>
      <trkpt lat="48.70227" lon="-3.824">
        <ele>4.8</ele>
        <time>2025-06-30T10:11:18Z</time>
      </trkpt>
      <trkpt lat="48.70221" lon="-3.82387">
        <ele>4.8</ele>
        <time>2025-06-30T10:11:19Z</time>
      </trkpt>
      <trkpt lat="48.70217" lon="-3.82373">
        <ele>4.9</ele>
        <time>2025-06-30T10:11:20Z</time>
      </trkpt>
      <trkpt lat="48.70212" lon="-3.8236">
        <ele>5</ele>
        <time>2025-06-30T10:11:21Z</time>
      </trkpt>
      <trkpt lat="48.70207" lon="-3.82347">
        <ele>5.1</ele>
        <time>2025-06-30T10:11:22Z</time>
      </trkpt>
      <trkpt lat="48.70201" lon="-3.82334">
        <ele>5.1</ele>
        <time>2025-06-30T10:11:23Z</time>
      </trkpt>
      <trkpt lat="48.70196" lon="-3.82321">
        <ele>5</ele>
        <time>2025-06-30T10:11:24Z</time>
      </trkpt>
      <trkpt lat="48.7019" lon="-3.82308">
        <ele>5</ele>
        <time>2025-06-30T10:11:25Z</time>
      </trkpt>
      <trkpt lat="48.70183" lon="-3.82297">
        <ele>4.9</ele>
        <time>2025-06-30T10:11:26Z</time>
      </trkpt>
      <trkpt lat="48.70177" lon="-3.82285">
        <ele>4.9</ele>
        <time>2025-06-30T10:11:27Z</time>
      </trkpt>
      <trkpt lat="48.7017" lon="-3.82273">
        <ele>4.8</ele>
        <time>2025-06-30T10:11:28Z</time>
      </trkpt>
      <trkpt lat="48.70163" lon="-3.82262">
        <ele>4.8</ele>
        <time>2025-06-30T10:11:29Z</time>
      </trkpt>
      <trkpt lat="48.70155" lon="-3.82251">
        <ele>4.8</ele>
        <time>2025-06-30T10:11:30Z</time>
      </trkpt>
      <trkpt lat="48.70148" lon="-3.8224">
        <ele>4.8</ele>
        <time>2025-06-30T10:11:31Z</time>
      </trkpt>
      <trkpt lat="48.70141" lon="-3.8223">
        <ele>4.8</ele>
        <time>2025-06-30T10:11:32Z</time>
      </trkpt>
      <trkpt lat="48.70133" lon="-3.82219">
        <ele>4.7</ele>
        <time>2025-06-30T10:11:33Z</time>
      </trkpt>
      <trkpt lat="48.70126" lon="-3.82209">
        <ele>4.7</ele>
        <time>2025-06-30T10:11:34Z</time>
      </trkpt>
      <trkpt lat="48.70119" lon="-3.82198">
        <ele>4.7</ele>
        <time>2025-06-30T10:11:35Z</time>
      </trkpt>
      <trkpt lat="48.70112" lon="-3.82187">
        <ele>4.8</ele>
        <time>2025-06-30T10:11:36Z</time>
      </trkpt>
      <trkpt lat="48.70106" lon="-3.82176">
        <ele>4.7</ele>
        <time>2025-06-30T10:11:37Z</time>
      </trkpt>
      <trkpt lat="48.701" lon="-3.82164">
        <ele>4.7</ele>
        <time>2025-06-30T10:11:38Z</time>
      </trkpt>
      <trkpt lat="48.70093" lon="-3.82153">
        <ele>4.7</ele>
        <time>2025-06-30T10:11:39Z</time>
      </trkpt>
      <trkpt lat="48.70088" lon="-3.8214">
        <ele>4.7</ele>
        <time>2025-06-30T10:11:40Z</time>
      </trkpt>
      <trkpt lat="48.70083" lon="-3.82128">
        <ele>4.8</ele>
        <time>2025-06-30T10:11:41Z</time>
      </trkpt>
      <trkpt lat="48.70078" lon="-3.82115">
        <ele>4.9</ele>
        <time>2025-06-30T10:11:42Z</time>
      </trkpt>
      <trkpt lat="48.70072" lon="-3.82104">
        <ele>5</ele>
        <time>2025-06-30T10:11:43Z</time>
      </trkpt>
      <trkpt lat="48.70068" lon="-3.82091">
        <ele>5.2</ele>
        <time>2025-06-30T10:11:44Z</time>
      </trkpt>
      <trkpt lat="48.70064" lon="-3.82079">
        <ele>5.4</ele>
        <time>2025-06-30T10:11:45Z</time>
      </trkpt>
      <trkpt lat="48.70058" lon="-3.82054">
        <ele>5.9</ele>
        <time>2025-06-30T10:11:47Z</time>
      </trkpt>
      <trkpt lat="48.70055" lon="-3.82027">
        <ele>6.3</ele>
        <time>2025-06-30T10:11:49Z</time>
      </trkpt>
      <trkpt lat="48.70055" lon="-3.82001">
        <ele>6.7</ele>
        <time>2025-06-30T10:11:51Z</time>
      </trkpt>
      <trkpt lat="48.70057" lon="-3.81977">
        <ele>7.1</ele>
        <time>2025-06-30T10:11:53Z</time>
      </trkpt>
      <trkpt lat="48.70063" lon="-3.81954">
        <ele>7.1</ele>
        <time>2025-06-30T10:11:55Z</time>
      </trkpt>
      <trkpt lat="48.70071" lon="-3.81933">
        <ele>7.3</ele>
        <time>2025-06-30T10:11:57Z</time>
      </trkpt>
      <trkpt lat="48.70083" lon="-3.81916">
        <ele>7.6</ele>
        <time>2025-06-30T10:11:59Z</time>
      </trkpt>
      <trkpt lat="48.70094" lon="-3.81899">
        <ele>8</ele>
        <time>2025-06-30T10:12:01Z</time>
      </trkpt>
      <trkpt lat="48.70108" lon="-3.81888">
        <ele>8.5</ele>
        <time>2025-06-30T10:12:03Z</time>
      </trkpt>
      <trkpt lat="48.70121" lon="-3.81881">
        <ele>9.1</ele>
        <time>2025-06-30T10:12:05Z</time>
      </trkpt>
      <trkpt lat="48.70134" lon="-3.81879">
        <ele>9.8</ele>
        <time>2025-06-30T10:12:07Z</time>
      </trkpt>
      <trkpt lat="48.70146" lon="-3.81877">
        <ele>10.5</ele>
        <time>2025-06-30T10:12:09Z</time>
      </trkpt>
      <trkpt lat="48.70157" lon="-3.81879">
        <ele>11.1</ele>
        <time>2025-06-30T10:12:11Z</time>
      </trkpt>
      <trkpt lat="48.70167" lon="-3.81883">
        <ele>11.8</ele>
        <time>2025-06-30T10:12:13Z</time>
      </trkpt>
      <trkpt lat="48.70177" lon="-3.81887">
        <ele>12.4</ele>
        <time>2025-06-30T10:12:15Z</time>
      </trkpt>
      <trkpt lat="48.70186" lon="-3.81892">
        <ele>12.9</ele>
        <time>2025-06-30T10:12:17Z</time>
      </trkpt>
      <trkpt lat="48.70198" lon="-3.819">
        <ele>13.7</ele>
        <time>2025-06-30T10:12:20Z</time>
      </trkpt>
      <trkpt lat="48.7021" lon="-3.8191">
        <ele>14.5</ele>
        <time>2025-06-30T10:12:23Z</time>
      </trkpt>
      <trkpt lat="48.70221" lon="-3.81918">
        <ele>15.3</ele>
        <time>2025-06-30T10:12:26Z</time>
      </trkpt>
      <trkpt lat="48.70231" lon="-3.81928">
        <ele>16</ele>
        <time>2025-06-30T10:12:29Z</time>
      </trkpt>
      <trkpt lat="48.70242" lon="-3.81936">
        <ele>16.7</ele>
        <time>2025-06-30T10:12:32Z</time>
      </trkpt>
      <trkpt lat="48.70253" lon="-3.81944">
        <ele>17.4</ele>
        <time>2025-06-30T10:12:35Z</time>
      </trkpt>
      <trkpt lat="48.70264" lon="-3.81953">
        <ele>18</ele>
        <time>2025-06-30T10:12:38Z</time>
      </trkpt>
      <trkpt lat="48.70275" lon="-3.81962">
        <ele>18.7</ele>
        <time>2025-06-30T10:12:41Z</time>
      </trkpt>
      <trkpt lat="48.70286" lon="-3.8197">
        <ele>19.2</ele>
        <time>2025-06-30T10:12:44Z</time>
      </trkpt>
      <trkpt lat="48.70297" lon="-3.81976">
        <ele>19.8</ele>
        <time>2025-06-30T10:12:47Z</time>
      </trkpt>
      <trkpt lat="48.70309" lon="-3.8198">
        <ele>20.3</ele>
        <time>2025-06-30T10:12:50Z</time>
      </trkpt>
      <trkpt lat="48.70321" lon="-3.8198">
        <ele>20.8</ele>
        <time>2025-06-30T10:12:53Z</time>
      </trkpt>
      <trkpt lat="48.70332" lon="-3.81973">
        <ele>21.3</ele>
        <time>2025-06-30T10:12:56Z</time>
      </trkpt>
      <trkpt lat="48.70341" lon="-3.81962">
        <ele>21.6</ele>
        <time>2025-06-30T10:12:59Z</time>
      </trkpt>
      <trkpt lat="48.70353" lon="-3.81961">
        <ele>21.6</ele>
        <time>2025-06-30T10:13:02Z</time>
      </trkpt>
      <trkpt lat="48.70363" lon="-3.81965">
        <ele>21.6</ele>
        <time>2025-06-30T10:13:04Z</time>
      </trkpt>
      <trkpt lat="48.70373" lon="-3.81969">
        <ele>21.4</ele>
        <time>2025-06-30T10:13:06Z</time>
      </trkpt>
      <trkpt lat="48.70385" lon="-3.81973">
        <ele>21.2</ele>
        <time>2025-06-30T10:13:08Z</time>
      </trkpt>
      <trkpt lat="48.70398" lon="-3.81976">
        <ele>20.9</ele>
        <time>2025-06-30T10:13:10Z</time>
      </trkpt>
      <trkpt lat="48.70412" lon="-3.81979">
        <ele>20.7</ele>
        <time>2025-06-30T10:13:12Z</time>
      </trkpt>
      <trkpt lat="48.70425" lon="-3.81981">
        <ele>20.6</ele>
        <time>2025-06-30T10:13:14Z</time>
      </trkpt>
      <trkpt lat="48.70439" lon="-3.81983">
        <ele>20.4</ele>
        <time>2025-06-30T10:13:16Z</time>
      </trkpt>
      <trkpt lat="48.70453" lon="-3.81984">
        <ele>20.3</ele>
        <time>2025-06-30T10:13:18Z</time>
      </trkpt>
      <trkpt lat="48.70467" lon="-3.81984">
        <ele>20.3</ele>
        <time>2025-06-30T10:13:20Z</time>
      </trkpt>
      <trkpt lat="48.70481" lon="-3.81985">
        <ele>20.2</ele>
        <time>2025-06-30T10:13:22Z</time>
      </trkpt>
      <trkpt lat="48.70495" lon="-3.81985">
        <ele>20.1</ele>
        <time>2025-06-30T10:13:24Z</time>
      </trkpt>
      <trkpt lat="48.7051" lon="-3.81986">
        <ele>20</ele>
        <time>2025-06-30T10:13:26Z</time>
      </trkpt>
      <trkpt lat="48.70524" lon="-3.81986">
        <ele>19.9</ele>
        <time>2025-06-30T10:13:28Z</time>
      </trkpt>
      <trkpt lat="48.70539" lon="-3.81988">
        <ele>19.6</ele>
        <time>2025-06-30T10:13:30Z</time>
      </trkpt>
      <trkpt lat="48.70554" lon="-3.81988">
        <ele>19.4</ele>
        <time>2025-06-30T10:13:32Z</time>
      </trkpt>
      <trkpt lat="48.7057" lon="-3.8199">
        <ele>19.1</ele>
        <time>2025-06-30T10:13:34Z</time>
      </trkpt>
      <trkpt lat="48.70586" lon="-3.81991">
        <ele>18.9</ele>
        <time>2025-06-30T10:13:36Z</time>
      </trkpt>
      <trkpt lat="48.70601" lon="-3.81991">
        <ele>18.6</ele>
        <time>2025-06-30T10:13:38Z</time>
      </trkpt>
      <trkpt lat="48.70618" lon="-3.81991">
        <ele>18.3</ele>
        <time>2025-06-30T10:13:40Z</time>
      </trkpt>
      <trkpt lat="48.70633" lon="-3.81991">
        <ele>18</ele>
        <time>2025-06-30T10:13:42Z</time>
      </trkpt>
      <trkpt lat="48.70649" lon="-3.81993">
        <ele>17.7</ele>
        <time>2025-06-30T10:13:44Z</time>
      </trkpt>
      <trkpt lat="48.70665" lon="-3.81994">
        <ele>17.4</ele>
        <time>2025-06-30T10:13:46Z</time>
      </trkpt>
      <trkpt lat="48.70681" lon="-3.81995">
        <ele>17</ele>
        <time>2025-06-30T10:13:48Z</time>
      </trkpt>
      <trkpt lat="48.70697" lon="-3.81996">
        <ele>16.5</ele>
        <time>2025-06-30T10:13:50Z</time>
      </trkpt>
      <trkpt lat="48.70715" lon="-3.81999">
        <ele>15.9</ele>
        <time>2025-06-30T10:13:52Z</time>
      </trkpt>
      <trkpt lat="48.70723" lon="-3.82001">
        <ele>15.6</ele>
        <time>2025-06-30T10:13:53Z</time>
      </trkpt>
      <trkpt lat="48.70732" lon="-3.82003">
        <ele>15.3</ele>
        <time>2025-06-30T10:13:54Z</time>
      </trkpt>
      <trkpt lat="48.70741" lon="-3.82005">
        <ele>15</ele>
        <time>2025-06-30T10:13:55Z</time>
      </trkpt>
      <trkpt lat="48.70759" lon="-3.8201">
        <ele>14.6</ele>
        <time>2025-06-30T10:13:57Z</time>
      </trkpt>
      <trkpt lat="48.70777" lon="-3.82014">
        <ele>14.2</ele>
        <time>2025-06-30T10:13:59Z</time>
      </trkpt>
      <trkpt lat="48.70794" lon="-3.82017">
        <ele>13.8</ele>
        <time>2025-06-30T10:14:01Z</time>
      </trkpt>
      <trkpt lat="48.70811" lon="-3.82019">
        <ele>13.5</ele>
        <time>2025-06-30T10:14:03Z</time>
      </trkpt>
      <trkpt lat="48.70829" lon="-3.82015">
        <ele>12.9</ele>
        <time>2025-06-30T10:14:05Z</time>
      </trkpt>
      <trkpt lat="48.70838" lon="-3.8201">
        <ele>12.5</ele>
        <time>2025-06-30T10:14:06Z</time>
      </trkpt>
      <trkpt lat="48.70846" lon="-3.82005">
        <ele>12.2</ele>
        <time>2025-06-30T10:14:07Z</time>
      </trkpt>
      <trkpt lat="48.70854" lon="-3.81999">
        <ele>11.8</ele>
        <time>2025-06-30T10:14:08Z</time>
      </trkpt>
      <trkpt lat="48.70862" lon="-3.8199">
        <ele>11.4</ele>
        <time>2025-06-30T10:14:09Z</time>
      </trkpt>
      <trkpt lat="48.70869" lon="-3.81982">
        <ele>11</ele>
        <time>2025-06-30T10:14:10Z</time>
      </trkpt>
      <trkpt lat="48.70876" lon="-3.81973">
        <ele>10.6</ele>
        <time>2025-06-30T10:14:11Z</time>
      </trkpt>
      <trkpt lat="48.70884" lon="-3.81965">
        <ele>10.2</ele>
        <time>2025-06-30T10:14:12Z</time>
      </trkpt>
      <trkpt lat="48.70891" lon="-3.81956">
        <ele>9.8</ele>
        <time>2025-06-30T10:14:13Z</time>
      </trkpt>
      <trkpt lat="48.70903" lon="-3.81944">
        <ele>9.3</ele>
        <time>2025-06-30T10:14:15Z</time>
      </trkpt>
      <trkpt lat="48.70912" lon="-3.81934">
        <ele>8.9</ele>
        <time>2025-06-30T10:14:17Z</time>
      </trkpt>
      <trkpt lat="48.70919" lon="-3.81925">
        <ele>8.5</ele>
        <time>2025-06-30T10:14:19Z</time>
      </trkpt>
      <trkpt lat="48.7093" lon="-3.81925">
        <ele>8.2</ele>
        <time>2025-06-30T10:14:24Z</time>
      </trkpt>
      <trkpt lat="48.70944" lon="-3.81906">
        <ele>7.6</ele>
        <time>2025-06-30T10:16:17Z</time>
      </trkpt>
      <trkpt lat="48.70955" lon="-3.81897">
        <ele>7.4</ele>
        <time>2025-06-30T10:16:20Z</time>
      </trkpt>
      <trkpt lat="48.70965" lon="-3.81892">
        <ele>7.3</ele>
        <time>2025-06-30T10:16:22Z</time>
      </trkpt>
      <trkpt lat="48.70975" lon="-3.81886">
        <ele>7.2</ele>
        <time>2025-06-30T10:16:24Z</time>
      </trkpt>
      <trkpt lat="48.70987" lon="-3.81882">
        <ele>7.2</ele>
        <time>2025-06-30T10:16:26Z</time>
      </trkpt>
      <trkpt lat="48.70997" lon="-3.81874">
        <ele>7.3</ele>
        <time>2025-06-30T10:16:28Z</time>
      </trkpt>
      <trkpt lat="48.71006" lon="-3.81865">
        <ele>7.4</ele>
        <time>2025-06-30T10:16:30Z</time>
      </trkpt>
      <trkpt lat="48.71013" lon="-3.8185">
        <ele>7.5</ele>
        <time>2025-06-30T10:16:32Z</time>
      </trkpt>
      <trkpt lat="48.7102" lon="-3.81836">
        <ele>7.6</ele>
        <time>2025-06-30T10:16:34Z</time>
      </trkpt>
      <trkpt lat="48.71027" lon="-3.8182">
        <ele>7.6</ele>
        <time>2025-06-30T10:16:36Z</time>
      </trkpt>
      <trkpt lat="48.71034" lon="-3.81804">
        <ele>7.5</ele>
        <time>2025-06-30T10:16:38Z</time>
      </trkpt>
      <trkpt lat="48.71042" lon="-3.81788">
        <ele>7.5</ele>
        <time>2025-06-30T10:16:40Z</time>
      </trkpt>
      <trkpt lat="48.71049" lon="-3.81771">
        <ele>7.5</ele>
        <time>2025-06-30T10:16:42Z</time>
      </trkpt>
      <trkpt lat="48.71057" lon="-3.81755">
        <ele>7.4</ele>
        <time>2025-06-30T10:16:44Z</time>
      </trkpt>
      <trkpt lat="48.71065" lon="-3.8174">
        <ele>7.3</ele>
        <time>2025-06-30T10:16:46Z</time>
      </trkpt>
      <trkpt lat="48.71074" lon="-3.81728">
        <ele>7.1</ele>
        <time>2025-06-30T10:16:48Z</time>
      </trkpt>
      <trkpt lat="48.71084" lon="-3.81717">
        <ele>7</ele>
        <time>2025-06-30T10:16:50Z</time>
      </trkpt>
      <trkpt lat="48.71095" lon="-3.81708">
        <ele>6.8</ele>
        <time>2025-06-30T10:16:52Z</time>
      </trkpt>
      <trkpt lat="48.71105" lon="-3.81701">
        <ele>6.7</ele>
        <time>2025-06-30T10:16:54Z</time>
      </trkpt>
      <trkpt lat="48.71116" lon="-3.81695">
        <ele>6.6</ele>
        <time>2025-06-30T10:16:56Z</time>
      </trkpt>
      <trkpt lat="48.71129" lon="-3.81689">
        <ele>6.5</ele>
        <time>2025-06-30T10:16:58Z</time>
      </trkpt>
      <trkpt lat="48.71141" lon="-3.81683">
        <ele>6.4</ele>
        <time>2025-06-30T10:17:00Z</time>
      </trkpt>
      <trkpt lat="48.71154" lon="-3.81677">
        <ele>6.3</ele>
        <time>2025-06-30T10:17:02Z</time>
      </trkpt>
      <trkpt lat="48.71167" lon="-3.81669">
        <ele>6.2</ele>
        <time>2025-06-30T10:17:04Z</time>
      </trkpt>
      <trkpt lat="48.71178" lon="-3.81657">
        <ele>6.2</ele>
        <time>2025-06-30T10:17:06Z</time>
      </trkpt>
      <trkpt lat="48.7119" lon="-3.81644">
        <ele>6.1</ele>
        <time>2025-06-30T10:17:08Z</time>
      </trkpt>
      <trkpt lat="48.71199" lon="-3.81627">
        <ele>6.1</ele>
        <time>2025-06-30T10:17:10Z</time>
      </trkpt>
      <trkpt lat="48.71205" lon="-3.81609">
        <ele>6.1</ele>
        <time>2025-06-30T10:17:12Z</time>
      </trkpt>
      <trkpt lat="48.71209" lon="-3.81588">
        <ele>6.1</ele>
        <time>2025-06-30T10:17:14Z</time>
      </trkpt>
      <trkpt lat="48.71212" lon="-3.81568">
        <ele>6.2</ele>
        <time>2025-06-30T10:17:16Z</time>
      </trkpt>
      <trkpt lat="48.71217" lon="-3.81549">
        <ele>6.3</ele>
        <time>2025-06-30T10:17:18Z</time>
      </trkpt>
      <trkpt lat="48.7122" lon="-3.81529">
        <ele>6.5</ele>
        <time>2025-06-30T10:17:20Z</time>
      </trkpt>
      <trkpt lat="48.71223" lon="-3.81508">
        <ele>6.6</ele>
        <time>2025-06-30T10:17:22Z</time>
      </trkpt>
      <trkpt lat="48.71226" lon="-3.81488">
        <ele>6.7</ele>
        <time>2025-06-30T10:17:24Z</time>
      </trkpt>
      <trkpt lat="48.7123" lon="-3.81467">
        <ele>6.8</ele>
        <time>2025-06-30T10:17:26Z</time>
      </trkpt>
      <trkpt lat="48.71235" lon="-3.81447">
        <ele>6.8</ele>
        <time>2025-06-30T10:17:28Z</time>
      </trkpt>
      <trkpt lat="48.7124" lon="-3.81427">
        <ele>6.8</ele>
        <time>2025-06-30T10:17:30Z</time>
      </trkpt>
      <trkpt lat="48.71244" lon="-3.81408">
        <ele>6.8</ele>
        <time>2025-06-30T10:17:32Z</time>
      </trkpt>
      <trkpt lat="48.71248" lon="-3.81388">
        <ele>6.8</ele>
        <time>2025-06-30T10:17:34Z</time>
      </trkpt>
      <trkpt lat="48.71255" lon="-3.8137">
        <ele>6.8</ele>
        <time>2025-06-30T10:17:36Z</time>
      </trkpt>
      <trkpt lat="48.71263" lon="-3.81354">
        <ele>6.8</ele>
        <time>2025-06-30T10:17:38Z</time>
      </trkpt>
      <trkpt lat="48.7127" lon="-3.8134">
        <ele>6.7</ele>
        <time>2025-06-30T10:17:40Z</time>
      </trkpt>
      <trkpt lat="48.71279" lon="-3.81328">
        <ele>6.6</ele>
        <time>2025-06-30T10:17:42Z</time>
      </trkpt>
      <trkpt lat="48.71287" lon="-3.81315">
        <ele>6.6</ele>
        <time>2025-06-30T10:17:44Z</time>
      </trkpt>
      <trkpt lat="48.71296" lon="-3.81305">
        <ele>6.6</ele>
        <time>2025-06-30T10:17:46Z</time>
      </trkpt>
      <trkpt lat="48.71302" lon="-3.8129">
        <ele>6.6</ele>
        <time>2025-06-30T10:17:48Z</time>
      </trkpt>
      <trkpt lat="48.71302" lon="-3.81273">
        <ele>6.6</ele>
        <time>2025-06-30T10:17:50Z</time>
      </trkpt>
      <trkpt lat="48.71297" lon="-3.81257">
        <ele>6.6</ele>
        <time>2025-06-30T10:17:52Z</time>
      </trkpt>
      <trkpt lat="48.71291" lon="-3.81243">
        <ele>6.6</ele>
        <time>2025-06-30T10:17:54Z</time>
      </trkpt>
      <trkpt lat="48.71286" lon="-3.81229">
        <ele>6.6</ele>
        <time>2025-06-30T10:17:56Z</time>
      </trkpt>
      <trkpt lat="48.7128" lon="-3.81213">
        <ele>6.7</ele>
        <time>2025-06-30T10:17:58Z</time>
      </trkpt>
      <trkpt lat="48.71274" lon="-3.81196">
        <ele>6.9</ele>
        <time>2025-06-30T10:18:00Z</time>
      </trkpt>
      <trkpt lat="48.71267" lon="-3.81176">
        <ele>7</ele>
        <time>2025-06-30T10:18:02Z</time>
      </trkpt>
      <trkpt lat="48.71259" lon="-3.81157">
        <ele>7</ele>
        <time>2025-06-30T10:18:04Z</time>
      </trkpt>
      <trkpt lat="48.71252" lon="-3.81136">
        <ele>7</ele>
        <time>2025-06-30T10:18:06Z</time>
      </trkpt>
      <trkpt lat="48.71246" lon="-3.81115">
        <ele>6.9</ele>
        <time>2025-06-30T10:18:08Z</time>
      </trkpt>
      <trkpt lat="48.71238" lon="-3.81094">
        <ele>6.9</ele>
        <time>2025-06-30T10:18:10Z</time>
      </trkpt>
      <trkpt lat="48.71231" lon="-3.81072">
        <ele>6.8</ele>
        <time>2025-06-30T10:18:12Z</time>
      </trkpt>
      <trkpt lat="48.71224" lon="-3.81049">
        <ele>6.8</ele>
        <time>2025-06-30T10:18:14Z</time>
      </trkpt>
      <trkpt lat="48.71217" lon="-3.81027">
        <ele>6.8</ele>
        <time>2025-06-30T10:18:16Z</time>
      </trkpt>
      <trkpt lat="48.7121" lon="-3.81005">
        <ele>6.8</ele>
        <time>2025-06-30T10:18:18Z</time>
      </trkpt>
      <trkpt lat="48.71203" lon="-3.80983">
        <ele>6.8</ele>
        <time>2025-06-30T10:18:20Z</time>
      </trkpt>
      <trkpt lat="48.71195" lon="-3.80962">
        <ele>6.9</ele>
        <time>2025-06-30T10:18:22Z</time>
      </trkpt>
      <trkpt lat="48.71188" lon="-3.80941">
        <ele>6.9</ele>
        <time>2025-06-30T10:18:24Z</time>
      </trkpt>
      <trkpt lat="48.71182" lon="-3.80918">
        <ele>6.8</ele>
        <time>2025-06-30T10:18:26Z</time>
      </trkpt>
      <trkpt lat="48.71176" lon="-3.80896">
        <ele>6.8</ele>
        <time>2025-06-30T10:18:28Z</time>
      </trkpt>
      <trkpt lat="48.71169" lon="-3.80874">
        <ele>6.9</ele>
        <time>2025-06-30T10:18:30Z</time>
      </trkpt>
      <trkpt lat="48.71164" lon="-3.80851">
        <ele>7</ele>
        <time>2025-06-30T10:18:32Z</time>
      </trkpt>
      <trkpt lat="48.71157" lon="-3.80829">
        <ele>7.1</ele>
        <time>2025-06-30T10:18:34Z</time>
      </trkpt>
      <trkpt lat="48.71152" lon="-3.80807">
        <ele>7.2</ele>
        <time>2025-06-30T10:18:36Z</time>
      </trkpt>
      <trkpt lat="48.71146" lon="-3.80784">
        <ele>7.2</ele>
        <time>2025-06-30T10:18:38Z</time>
      </trkpt>
      <trkpt lat="48.7114" lon="-3.80763">
        <ele>7.3</ele>
        <time>2025-06-30T10:18:40Z</time>
      </trkpt>
      <trkpt lat="48.71135" lon="-3.80741">
        <ele>7.3</ele>
        <time>2025-06-30T10:18:42Z</time>
      </trkpt>
      <trkpt lat="48.71131" lon="-3.80719">
        <ele>7.5</ele>
        <time>2025-06-30T10:18:44Z</time>
      </trkpt>
      <trkpt lat="48.71127" lon="-3.80698">
        <ele>7.6</ele>
        <time>2025-06-30T10:18:46Z</time>
      </trkpt>
      <trkpt lat="48.71123" lon="-3.80677">
        <ele>7.8</ele>
        <time>2025-06-30T10:18:48Z</time>
      </trkpt>
      <trkpt lat="48.7112" lon="-3.80655">
        <ele>8.1</ele>
        <time>2025-06-30T10:18:50Z</time>
      </trkpt>
      <trkpt lat="48.71116" lon="-3.80635">
        <ele>8.4</ele>
        <time>2025-06-30T10:18:52Z</time>
      </trkpt>
      <trkpt lat="48.71111" lon="-3.80616">
        <ele>8.8</ele>
        <time>2025-06-30T10:18:54Z</time>
      </trkpt>
      <trkpt lat="48.71106" lon="-3.80597">
        <ele>9.2</ele>
        <time>2025-06-30T10:18:56Z</time>
      </trkpt>
      <trkpt lat="48.71099" lon="-3.8058">
        <ele>9.3</ele>
        <time>2025-06-30T10:18:58Z</time>
      </trkpt>
      <trkpt lat="48.71092" lon="-3.80564">
        <ele>9.7</ele>
        <time>2025-06-30T10:19:00Z</time>
      </trkpt>
      <trkpt lat="48.71084" lon="-3.8055">
        <ele>10.4</ele>
        <time>2025-06-30T10:19:02Z</time>
      </trkpt>
      <trkpt lat="48.71076" lon="-3.80539">
        <ele>11.1</ele>
        <time>2025-06-30T10:19:04Z</time>
      </trkpt>
      <trkpt lat="48.71069" lon="-3.80529">
        <ele>12</ele>
        <time>2025-06-30T10:19:06Z</time>
      </trkpt>
      <trkpt lat="48.7106" lon="-3.80516">
        <ele>13.3</ele>
        <time>2025-06-30T10:19:09Z</time>
      </trkpt>
      <trkpt lat="48.71054" lon="-3.80501">
        <ele>14.6</ele>
        <time>2025-06-30T10:19:12Z</time>
      </trkpt>
      <trkpt lat="48.7105" lon="-3.80487">
        <ele>15.6</ele>
        <time>2025-06-30T10:19:15Z</time>
      </trkpt>
      <trkpt lat="48.71049" lon="-3.80474">
        <ele>16.5</ele>
        <time>2025-06-30T10:19:19Z</time>
      </trkpt>
      <trkpt lat="48.71049" lon="-3.80458">
        <ele>17.4</ele>
        <time>2025-06-30T10:19:23Z</time>
      </trkpt>
      <trkpt lat="48.71048" lon="-3.80441">
        <ele>18.5</ele>
        <time>2025-06-30T10:19:27Z</time>
      </trkpt>
      <trkpt lat="48.71051" lon="-3.80426">
        <ele>19.6</ele>
        <time>2025-06-30T10:19:31Z</time>
      </trkpt>
      <trkpt lat="48.71053" lon="-3.80409">
        <ele>20.9</ele>
        <time>2025-06-30T10:19:35Z</time>
      </trkpt>
      <trkpt lat="48.71054" lon="-3.80394">
        <ele>22.1</ele>
        <time>2025-06-30T10:19:39Z</time>
      </trkpt>
      <trkpt lat="48.71058" lon="-3.80376">
        <ele>23.4</ele>
        <time>2025-06-30T10:19:43Z</time>
      </trkpt>
      <trkpt lat="48.71061" lon="-3.8036">
        <ele>24.6</ele>
        <time>2025-06-30T10:19:47Z</time>
      </trkpt>
      <trkpt lat="48.71063" lon="-3.80344">
        <ele>25.7</ele>
        <time>2025-06-30T10:19:51Z</time>
      </trkpt>
      <trkpt lat="48.71065" lon="-3.80327">
        <ele>26.8</ele>
        <time>2025-06-30T10:19:55Z</time>
      </trkpt>
      <trkpt lat="48.71066" lon="-3.8031">
        <ele>27.9</ele>
        <time>2025-06-30T10:19:59Z</time>
      </trkpt>
      <trkpt lat="48.71067" lon="-3.80293">
        <ele>29.3</ele>
        <time>2025-06-30T10:20:03Z</time>
      </trkpt>
      <trkpt lat="48.71062" lon="-3.80279">
        <ele>30.6</ele>
        <time>2025-06-30T10:20:07Z</time>
      </trkpt>
      <trkpt lat="48.71051" lon="-3.80284">
        <ele>32.2</ele>
        <time>2025-06-30T10:20:11Z</time>
      </trkpt>
      <trkpt lat="48.71044" lon="-3.80293">
        <ele>33.3</ele>
        <time>2025-06-30T10:20:14Z</time>
      </trkpt>
      <trkpt lat="48.71034" lon="-3.80293">
        <ele>34.5</ele>
        <time>2025-06-30T10:20:17Z</time>
      </trkpt>
      <trkpt lat="48.71024" lon="-3.80294">
        <ele>35.6</ele>
        <time>2025-06-30T10:20:20Z</time>
      </trkpt>
      <trkpt lat="48.71015" lon="-3.80293">
        <ele>36.5</ele>
        <time>2025-06-30T10:20:23Z</time>
      </trkpt>
      <trkpt lat="48.71006" lon="-3.80291">
        <ele>37.3</ele>
        <time>2025-06-30T10:20:26Z</time>
      </trkpt>
      <trkpt lat="48.70997" lon="-3.80282">
        <ele>37.9</ele>
        <time>2025-06-30T10:20:29Z</time>
      </trkpt>
      <trkpt lat="48.70987" lon="-3.80274">
        <ele>38.5</ele>
        <time>2025-06-30T10:20:32Z</time>
      </trkpt>
      <trkpt lat="48.70976" lon="-3.80269">
        <ele>38.9</ele>
        <time>2025-06-30T10:20:35Z</time>
      </trkpt>
      <trkpt lat="48.70965" lon="-3.80271">
        <ele>39.4</ele>
        <time>2025-06-30T10:20:38Z</time>
      </trkpt>
      <trkpt lat="48.70954" lon="-3.80275">
        <ele>40</ele>
        <time>2025-06-30T10:20:41Z</time>
      </trkpt>
      <trkpt lat="48.70943" lon="-3.80279">
        <ele>40.8</ele>
        <time>2025-06-30T10:20:44Z</time>
      </trkpt>
      <trkpt lat="48.70933" lon="-3.80285">
        <ele>41.5</ele>
        <time>2025-06-30T10:20:47Z</time>
      </trkpt>
      <trkpt lat="48.70923" lon="-3.8029">
        <ele>42.3</ele>
        <time>2025-06-30T10:20:50Z</time>
      </trkpt>
      <trkpt lat="48.70913" lon="-3.80297">
        <ele>43</ele>
        <time>2025-06-30T10:20:53Z</time>
      </trkpt>
      <trkpt lat="48.70902" lon="-3.80302">
        <ele>43.8</ele>
        <time>2025-06-30T10:20:56Z</time>
      </trkpt>
      <trkpt lat="48.70891" lon="-3.80307">
        <ele>44.5</ele>
        <time>2025-06-30T10:20:59Z</time>
      </trkpt>
      <trkpt lat="48.7088" lon="-3.80313">
        <ele>45.2</ele>
        <time>2025-06-30T10:21:02Z</time>
      </trkpt>
      <trkpt lat="48.7087" lon="-3.80318">
        <ele>46</ele>
        <time>2025-06-30T10:21:05Z</time>
      </trkpt>
      <trkpt lat="48.70861" lon="-3.80325">
        <ele>46.9</ele>
        <time>2025-06-30T10:21:08Z</time>
      </trkpt>
      <trkpt lat="48.70851" lon="-3.80332">
        <ele>47.8</ele>
        <time>2025-06-30T10:21:11Z</time>
      </trkpt>
      <trkpt lat="48.70842" lon="-3.80341">
        <ele>49</ele>
        <time>2025-06-30T10:21:15Z</time>
      </trkpt>
      <trkpt lat="48.70833" lon="-3.80349">
        <ele>50</ele>
        <time>2025-06-30T10:21:19Z</time>
      </trkpt>
      <trkpt lat="48.70826" lon="-3.80359">
        <ele>51.3</ele>
        <time>2025-06-30T10:21:23Z</time>
      </trkpt>
      <trkpt lat="48.70816" lon="-3.80366">
        <ele>52.6</ele>
        <time>2025-06-30T10:21:27Z</time>
      </trkpt>
      <trkpt lat="48.70807" lon="-3.80373">
        <ele>53.7</ele>
        <time>2025-06-30T10:21:31Z</time>
      </trkpt>
      <trkpt lat="48.70799" lon="-3.80379">
        <ele>54.8</ele>
        <time>2025-06-30T10:21:35Z</time>
      </trkpt>
      <trkpt lat="48.7079" lon="-3.80379">
        <ele>55.8</ele>
        <time>2025-06-30T10:21:39Z</time>
      </trkpt>
      <trkpt lat="48.7078" lon="-3.8038">
        <ele>56.8</ele>
        <time>2025-06-30T10:21:43Z</time>
      </trkpt>
      <trkpt lat="48.70771" lon="-3.80376">
        <ele>57.8</ele>
        <time>2025-06-30T10:21:47Z</time>
      </trkpt>
      <trkpt lat="48.70761" lon="-3.80371">
        <ele>58.9</ele>
        <time>2025-06-30T10:21:51Z</time>
      </trkpt>
      <trkpt lat="48.70753" lon="-3.8036">
        <ele>59.8</ele>
        <time>2025-06-30T10:21:55Z</time>
      </trkpt>
      <trkpt lat="48.70744" lon="-3.80355">
        <ele>60.2</ele>
        <time>2025-06-30T10:21:58Z</time>
      </trkpt>
      <trkpt lat="48.70735" lon="-3.80353">
        <ele>60.6</ele>
        <time>2025-06-30T10:22:01Z</time>
      </trkpt>
      <trkpt lat="48.70725" lon="-3.80353">
        <ele>61.1</ele>
        <time>2025-06-30T10:22:04Z</time>
      </trkpt>
      <trkpt lat="48.70716" lon="-3.80353">
        <ele>61.6</ele>
        <time>2025-06-30T10:22:07Z</time>
      </trkpt>
      <trkpt lat="48.70706" lon="-3.80352">
        <ele>62</ele>
        <time>2025-06-30T10:22:10Z</time>
      </trkpt>
      <trkpt lat="48.70697" lon="-3.80348">
        <ele>62.2</ele>
        <time>2025-06-30T10:22:13Z</time>
      </trkpt>
      <trkpt lat="48.70688" lon="-3.80338">
        <ele>62.3</ele>
        <time>2025-06-30T10:22:16Z</time>
      </trkpt>
      <trkpt lat="48.70678" lon="-3.80324">
        <ele>62</ele>
        <time>2025-06-30T10:22:19Z</time>
      </trkpt>
      <trkpt lat="48.7067" lon="-3.80313">
        <ele>61.9</ele>
        <time>2025-06-30T10:22:21Z</time>
      </trkpt>
      <trkpt lat="48.70663" lon="-3.803">
        <ele>61.8</ele>
        <time>2025-06-30T10:22:23Z</time>
      </trkpt>
      <trkpt lat="48.70654" lon="-3.80286">
        <ele>61.8</ele>
        <time>2025-06-30T10:22:25Z</time>
      </trkpt>
      <trkpt lat="48.70646" lon="-3.80273">
        <ele>62</ele>
        <time>2025-06-30T10:22:27Z</time>
      </trkpt>
      <trkpt lat="48.70637" lon="-3.8026">
        <ele>62.2</ele>
        <time>2025-06-30T10:22:29Z</time>
      </trkpt>
      <trkpt lat="48.7063" lon="-3.80247">
        <ele>62.4</ele>
        <time>2025-06-30T10:22:31Z</time>
      </trkpt>
      <trkpt lat="48.70623" lon="-3.80235">
        <ele>62.6</ele>
        <time>2025-06-30T10:22:33Z</time>
      </trkpt>
      <trkpt lat="48.70615" lon="-3.80224">
        <ele>62.8</ele>
        <time>2025-06-30T10:22:35Z</time>
      </trkpt>
      <trkpt lat="48.70607" lon="-3.80212">
        <ele>63</ele>
        <time>2025-06-30T10:22:37Z</time>
      </trkpt>
      <trkpt lat="48.70599" lon="-3.80201">
        <ele>63.3</ele>
        <time>2025-06-30T10:22:39Z</time>
      </trkpt>
      <trkpt lat="48.70591" lon="-3.80189">
        <ele>63.5</ele>
        <time>2025-06-30T10:22:41Z</time>
      </trkpt>
      <trkpt lat="48.70582" lon="-3.80179">
        <ele>63.8</ele>
        <time>2025-06-30T10:22:43Z</time>
      </trkpt>
      <trkpt lat="48.70574" lon="-3.80168">
        <ele>64.2</ele>
        <time>2025-06-30T10:22:45Z</time>
      </trkpt>
      <trkpt lat="48.70565" lon="-3.80158">
        <ele>64.5</ele>
        <time>2025-06-30T10:22:47Z</time>
      </trkpt>
      <trkpt lat="48.70556" lon="-3.80148">
        <ele>64.8</ele>
        <time>2025-06-30T10:22:49Z</time>
      </trkpt>
      <trkpt lat="48.70547" lon="-3.80139">
        <ele>65.2</ele>
        <time>2025-06-30T10:22:51Z</time>
      </trkpt>
      <trkpt lat="48.70539" lon="-3.8013">
        <ele>65.5</ele>
        <time>2025-06-30T10:22:53Z</time>
      </trkpt>
      <trkpt lat="48.70531" lon="-3.8012">
        <ele>65.8</ele>
        <time>2025-06-30T10:22:55Z</time>
      </trkpt>
      <trkpt lat="48.70523" lon="-3.8011">
        <ele>65.8</ele>
        <time>2025-06-30T10:22:57Z</time>
      </trkpt>
      <trkpt lat="48.70515" lon="-3.80098">
        <ele>65.6</ele>
        <time>2025-06-30T10:22:59Z</time>
      </trkpt>
      <trkpt lat="48.70508" lon="-3.80084">
        <ele>65.4</ele>
        <time>2025-06-30T10:23:01Z</time>
      </trkpt>
      <trkpt lat="48.70501" lon="-3.8007">
        <ele>65.2</ele>
        <time>2025-06-30T10:23:03Z</time>
      </trkpt>
      <trkpt lat="48.70494" lon="-3.80054">
        <ele>64.9</ele>
        <time>2025-06-30T10:23:05Z</time>
      </trkpt>
      <trkpt lat="48.70486" lon="-3.80037">
        <ele>64.7</ele>
        <time>2025-06-30T10:23:07Z</time>
      </trkpt>
      <trkpt lat="48.70478" lon="-3.8002">
        <ele>64.5</ele>
        <time>2025-06-30T10:23:09Z</time>
      </trkpt>
      <trkpt lat="48.7047" lon="-3.80002">
        <ele>64.3</ele>
        <time>2025-06-30T10:23:11Z</time>
      </trkpt>
      <trkpt lat="48.70461" lon="-3.79984">
        <ele>64.3</ele>
        <time>2025-06-30T10:23:13Z</time>
      </trkpt>
      <trkpt lat="48.70452" lon="-3.79967">
        <ele>64.5</ele>
        <time>2025-06-30T10:23:15Z</time>
      </trkpt>
      <trkpt lat="48.70439" lon="-3.79957">
        <ele>64.7</ele>
        <time>2025-06-30T10:23:17Z</time>
      </trkpt>
      <trkpt lat="48.70424" lon="-3.79964">
        <ele>65</ele>
        <time>2025-06-30T10:23:19Z</time>
      </trkpt>
      <trkpt lat="48.70412" lon="-3.79977">
        <ele>65.4</ele>
        <time>2025-06-30T10:23:21Z</time>
      </trkpt>
      <trkpt lat="48.704" lon="-3.7999">
        <ele>65.7</ele>
        <time>2025-06-30T10:23:23Z</time>
      </trkpt>
      <trkpt lat="48.70389" lon="-3.80003">
        <ele>66</ele>
        <time>2025-06-30T10:23:25Z</time>
      </trkpt>
      <trkpt lat="48.70377" lon="-3.80016">
        <ele>66.4</ele>
        <time>2025-06-30T10:23:27Z</time>
      </trkpt>
      <trkpt lat="48.70365" lon="-3.80029">
        <ele>66.7</ele>
        <time>2025-06-30T10:23:29Z</time>
      </trkpt>
      <trkpt lat="48.70354" lon="-3.80041">
        <ele>67</ele>
        <time>2025-06-30T10:23:31Z</time>
      </trkpt>
      <trkpt lat="48.70343" lon="-3.80051">
        <ele>67.1</ele>
        <time>2025-06-30T10:23:33Z</time>
      </trkpt>
      <trkpt lat="48.70331" lon="-3.80051">
        <ele>67</ele>
        <time>2025-06-30T10:23:35Z</time>
      </trkpt>
      <trkpt lat="48.70319" lon="-3.80044">
        <ele>66.6</ele>
        <time>2025-06-30T10:23:37Z</time>
      </trkpt>
      <trkpt lat="48.70306" lon="-3.80037">
        <ele>66.2</ele>
        <time>2025-06-30T10:23:39Z</time>
      </trkpt>
      <trkpt lat="48.7029" lon="-3.8004">
        <ele>65.6</ele>
        <time>2025-06-30T10:23:41Z</time>
      </trkpt>
      <trkpt lat="48.70274" lon="-3.80047">
        <ele>65</ele>
        <time>2025-06-30T10:23:43Z</time>
      </trkpt>
      <trkpt lat="48.7026" lon="-3.80061">
        <ele>64.5</ele>
        <time>2025-06-30T10:23:45Z</time>
      </trkpt>
      <trkpt lat="48.70246" lon="-3.80077">
        <ele>64.2</ele>
        <time>2025-06-30T10:23:47Z</time>
      </trkpt>
      <trkpt lat="48.70232" lon="-3.80092">
        <ele>64</ele>
        <time>2025-06-30T10:23:49Z</time>
      </trkpt>
      <trkpt lat="48.70217" lon="-3.80106">
        <ele>64</ele>
        <time>2025-06-30T10:23:51Z</time>
      </trkpt>
      <trkpt lat="48.70201" lon="-3.80117">
        <ele>64.2</ele>
        <time>2025-06-30T10:23:53Z</time>
      </trkpt>
      <trkpt lat="48.70185" lon="-3.80128">
        <ele>64.7</ele>
        <time>2025-06-30T10:23:55Z</time>
      </trkpt>
      <trkpt lat="48.70171" lon="-3.80138">
        <ele>65.4</ele>
        <time>2025-06-30T10:23:57Z</time>
      </trkpt>
      <trkpt lat="48.70159" lon="-3.80149">
        <ele>66.2</ele>
        <time>2025-06-30T10:23:59Z</time>
      </trkpt>
      <trkpt lat="48.70147" lon="-3.80159">
        <ele>67</ele>
        <time>2025-06-30T10:24:01Z</time>
      </trkpt>
      <trkpt lat="48.70135" lon="-3.80167">
        <ele>67.8</ele>
        <time>2025-06-30T10:24:03Z</time>
      </trkpt>
      <trkpt lat="48.70126" lon="-3.80175">
        <ele>68.6</ele>
        <time>2025-06-30T10:24:05Z</time>
      </trkpt>
      <trkpt lat="48.70115" lon="-3.80168">
        <ele>69.5</ele>
        <time>2025-06-30T10:24:08Z</time>
      </trkpt>
      <trkpt lat="48.70107" lon="-3.80156">
        <ele>70</ele>
        <time>2025-06-30T10:24:11Z</time>
      </trkpt>
      <trkpt lat="48.70101" lon="-3.80139">
        <ele>70.7</ele>
        <time>2025-06-30T10:24:14Z</time>
      </trkpt>
      <trkpt lat="48.70094" lon="-3.80122">
        <ele>71.5</ele>
        <time>2025-06-30T10:24:17Z</time>
      </trkpt>
      <trkpt lat="48.70088" lon="-3.80107">
        <ele>72.3</ele>
        <time>2025-06-30T10:24:20Z</time>
      </trkpt>
      <trkpt lat="48.70082" lon="-3.80093">
        <ele>73</ele>
        <time>2025-06-30T10:24:23Z</time>
      </trkpt>
      <trkpt lat="48.70075" lon="-3.80079">
        <ele>73.9</ele>
        <time>2025-06-30T10:24:26Z</time>
      </trkpt>
      <trkpt lat="48.70067" lon="-3.80066">
        <ele>74.9</ele>
        <time>2025-06-30T10:24:29Z</time>
      </trkpt>
      <trkpt lat="48.70059" lon="-3.80054">
        <ele>75.9</ele>
        <time>2025-06-30T10:24:32Z</time>
      </trkpt>
      <trkpt lat="48.7005" lon="-3.80044">
        <ele>76.9</ele>
        <time>2025-06-30T10:24:35Z</time>
      </trkpt>
      <trkpt lat="48.70041" lon="-3.80034">
        <ele>77.9</ele>
        <time>2025-06-30T10:24:38Z</time>
      </trkpt>
      <trkpt lat="48.70032" lon="-3.80027">
        <ele>79</ele>
        <time>2025-06-30T10:24:41Z</time>
      </trkpt>
      <trkpt lat="48.70022" lon="-3.80019">
        <ele>79.9</ele>
        <time>2025-06-30T10:24:44Z</time>
      </trkpt>
      <trkpt lat="48.70014" lon="-3.80012">
        <ele>80.7</ele>
        <time>2025-06-30T10:24:47Z</time>
      </trkpt>
      <trkpt lat="48.70005" lon="-3.80006">
        <ele>81.5</ele>
        <time>2025-06-30T10:24:50Z</time>
      </trkpt>
      <trkpt lat="48.69996" lon="-3.8">
        <ele>82.3</ele>
        <time>2025-06-30T10:24:53Z</time>
      </trkpt>
      <trkpt lat="48.69987" lon="-3.79994">
        <ele>83</ele>
        <time>2025-06-30T10:24:56Z</time>
      </trkpt>
      <trkpt lat="48.69978" lon="-3.79988">
        <ele>83.7</ele>
        <time>2025-06-30T10:24:59Z</time>
      </trkpt>
      <trkpt lat="48.69969" lon="-3.79983">
        <ele>84.3</ele>
        <time>2025-06-30T10:25:02Z</time>
      </trkpt>
      <trkpt lat="48.6996" lon="-3.79978">
        <ele>84.8</ele>
        <time>2025-06-30T10:25:05Z</time>
      </trkpt>
      <trkpt lat="48.6995" lon="-3.79973">
        <ele>85.3</ele>
        <time>2025-06-30T10:25:08Z</time>
      </trkpt>
      <trkpt lat="48.6994" lon="-3.79968">
        <ele>85.6</ele>
        <time>2025-06-30T10:25:11Z</time>
      </trkpt>
      <trkpt lat="48.6993" lon="-3.79962">
        <ele>85.9</ele>
        <time>2025-06-30T10:25:14Z</time>
      </trkpt>
      <trkpt lat="48.69918" lon="-3.79955">
        <ele>86</ele>
        <time>2025-06-30T10:25:17Z</time>
      </trkpt>
      <trkpt lat="48.6991" lon="-3.7995">
        <ele>86</ele>
        <time>2025-06-30T10:25:19Z</time>
      </trkpt>
      <trkpt lat="48.69902" lon="-3.79942">
        <ele>86</ele>
        <time>2025-06-30T10:25:21Z</time>
      </trkpt>
      <trkpt lat="48.69894" lon="-3.79935">
        <ele>86</ele>
        <time>2025-06-30T10:25:23Z</time>
      </trkpt>
      <trkpt lat="48.69887" lon="-3.79926">
        <ele>86</ele>
        <time>2025-06-30T10:25:25Z</time>
      </trkpt>
      <trkpt lat="48.6988" lon="-3.79915">
        <ele>86</ele>
        <time>2025-06-30T10:25:27Z</time>
      </trkpt>
      <trkpt lat="48.69874" lon="-3.79903">
        <ele>86</ele>
        <time>2025-06-30T10:25:29Z</time>
      </trkpt>
      <trkpt lat="48.69868" lon="-3.79891">
        <ele>86.1</ele>
        <time>2025-06-30T10:25:31Z</time>
      </trkpt>
      <trkpt lat="48.69863" lon="-3.79879">
        <ele>86.2</ele>
        <time>2025-06-30T10:25:33Z</time>
      </trkpt>
      <trkpt lat="48.69858" lon="-3.79865">
        <ele>86.3</ele>
        <time>2025-06-30T10:25:35Z</time>
      </trkpt>
      <trkpt lat="48.69853" lon="-3.79851">
        <ele>86.5</ele>
        <time>2025-06-30T10:25:37Z</time>
      </trkpt>
      <trkpt lat="48.69849" lon="-3.79837">
        <ele>86.7</ele>
        <time>2025-06-30T10:25:39Z</time>
      </trkpt>
      <trkpt lat="48.69845" lon="-3.79822">
        <ele>86.9</ele>
        <time>2025-06-30T10:25:41Z</time>
      </trkpt>
      <trkpt lat="48.69841" lon="-3.79808">
        <ele>87</ele>
        <time>2025-06-30T10:25:43Z</time>
      </trkpt>
      <trkpt lat="48.69837" lon="-3.79794">
        <ele>87.1</ele>
        <time>2025-06-30T10:25:45Z</time>
      </trkpt>
      <trkpt lat="48.69833" lon="-3.79779">
        <ele>87.2</ele>
        <time>2025-06-30T10:25:47Z</time>
      </trkpt>
      <trkpt lat="48.6983" lon="-3.79764">
        <ele>87.2</ele>
        <time>2025-06-30T10:25:49Z</time>
      </trkpt>
      <trkpt lat="48.69826" lon="-3.79749">
        <ele>87.1</ele>
        <time>2025-06-30T10:25:51Z</time>
      </trkpt>
      <trkpt lat="48.69823" lon="-3.79732">
        <ele>87.1</ele>
        <time>2025-06-30T10:25:53Z</time>
      </trkpt>
      <trkpt lat="48.6982" lon="-3.79715">
        <ele>87</ele>
        <time>2025-06-30T10:25:55Z</time>
      </trkpt>
      <trkpt lat="48.69815" lon="-3.79696">
        <ele>86.8</ele>
        <time>2025-06-30T10:25:57Z</time>
      </trkpt>
      <trkpt lat="48.69811" lon="-3.79677">
        <ele>86.6</ele>
        <time>2025-06-30T10:25:59Z</time>
      </trkpt>
      <trkpt lat="48.69807" lon="-3.79658">
        <ele>86.4</ele>
        <time>2025-06-30T10:26:01Z</time>
      </trkpt>
      <trkpt lat="48.69802" lon="-3.79639">
        <ele>86.3</ele>
        <time>2025-06-30T10:26:03Z</time>
      </trkpt>
      <trkpt lat="48.69796" lon="-3.79621">
        <ele>86.1</ele>
        <time>2025-06-30T10:26:05Z</time>
      </trkpt>
      <trkpt lat="48.69789" lon="-3.79605">
        <ele>86</ele>
        <time>2025-06-30T10:26:07Z</time>
      </trkpt>
      <trkpt lat="48.69783" lon="-3.79587">
        <ele>85.9</ele>
        <time>2025-06-30T10:26:09Z</time>
      </trkpt>
      <trkpt lat="48.69775" lon="-3.7957">
        <ele>85.7</ele>
        <time>2025-06-30T10:26:11Z</time>
      </trkpt>
      <trkpt lat="48.69767" lon="-3.79552">
        <ele>85.4</ele>
        <time>2025-06-30T10:26:13Z</time>
      </trkpt>
      <trkpt lat="48.69757" lon="-3.79535">
        <ele>85</ele>
        <time>2025-06-30T10:26:15Z</time>
      </trkpt>
      <trkpt lat="48.69749" lon="-3.79517">
        <ele>84.5</ele>
        <time>2025-06-30T10:26:17Z</time>
      </trkpt>
      <trkpt lat="48.6974" lon="-3.79498">
        <ele>83.9</ele>
        <time>2025-06-30T10:26:19Z</time>
      </trkpt>
      <trkpt lat="48.69731" lon="-3.79477">
        <ele>83.3</ele>
        <time>2025-06-30T10:26:21Z</time>
      </trkpt>
      <trkpt lat="48.69721" lon="-3.79457">
        <ele>82.7</ele>
        <time>2025-06-30T10:26:23Z</time>
      </trkpt>
      <trkpt lat="48.6971" lon="-3.79436">
        <ele>82</ele>
        <time>2025-06-30T10:26:25Z</time>
      </trkpt>
      <trkpt lat="48.697" lon="-3.79414">
        <ele>81.5</ele>
        <time>2025-06-30T10:26:27Z</time>
      </trkpt>
      <trkpt lat="48.69691" lon="-3.79391">
        <ele>81</ele>
        <time>2025-06-30T10:26:29Z</time>
      </trkpt>
      <trkpt lat="48.69685" lon="-3.79368">
        <ele>80.7</ele>
        <time>2025-06-30T10:26:31Z</time>
      </trkpt>
      <trkpt lat="48.6968" lon="-3.79348">
        <ele>80.6</ele>
        <time>2025-06-30T10:26:33Z</time>
      </trkpt>
      <trkpt lat="48.69677" lon="-3.79334">
        <ele>80.6</ele>
        <time>2025-06-30T10:26:35Z</time>
      </trkpt>
      <trkpt lat="48.69669" lon="-3.79328">
        <ele>80.7</ele>
        <time>2025-06-30T10:26:37Z</time>
      </trkpt>
      <trkpt lat="48.69659" lon="-3.79327">
        <ele>80.9</ele>
        <time>2025-06-30T10:26:39Z</time>
      </trkpt>
      <trkpt lat="48.69647" lon="-3.79332">
        <ele>81.1</ele>
        <time>2025-06-30T10:26:42Z</time>
      </trkpt>
      <trkpt lat="48.69637" lon="-3.79331">
        <ele>81.3</ele>
        <time>2025-06-30T10:26:45Z</time>
      </trkpt>
      <trkpt lat="48.69626" lon="-3.79326">
        <ele>81.4</ele>
        <time>2025-06-30T10:26:50Z</time>
      </trkpt>
      <trkpt lat="48.69615" lon="-3.79326">
        <ele>81.3</ele>
        <time>2025-06-30T10:26:54Z</time>
      </trkpt>
      <trkpt lat="48.6961" lon="-3.79311">
        <ele>81.1</ele>
        <time>2025-06-30T10:27:00Z</time>
      </trkpt>
      <trkpt lat="48.69609" lon="-3.79297">
        <ele>80.8</ele>
        <time>2025-06-30T10:27:03Z</time>
      </trkpt>
      <trkpt lat="48.69609" lon="-3.79281">
        <ele>80.4</ele>
        <time>2025-06-30T10:27:07Z</time>
      </trkpt>
      <trkpt lat="48.69605" lon="-3.79265">
        <ele>80.1</ele>
        <time>2025-06-30T10:27:11Z</time>
      </trkpt>
      <trkpt lat="48.69602" lon="-3.79251">
        <ele>80.1</ele>
        <time>2025-06-30T10:27:15Z</time>
      </trkpt>
      <trkpt lat="48.69592" lon="-3.79254">
        <ele>80.2</ele>
        <time>2025-06-30T10:27:18Z</time>
      </trkpt>
      <trkpt lat="48.69581" lon="-3.79258">
        <ele>80.4</ele>
        <time>2025-06-30T10:27:22Z</time>
      </trkpt>
      <trkpt lat="48.69574" lon="-3.79244">
        <ele>80</ele>
        <time>2025-06-30T10:27:26Z</time>
      </trkpt>
      <trkpt lat="48.69572" lon="-3.7923">
        <ele>79.9</ele>
        <time>2025-06-30T10:27:29Z</time>
      </trkpt>
      <trkpt lat="48.69569" lon="-3.79216">
        <ele>79.9</ele>
        <time>2025-06-30T10:27:34Z</time>
      </trkpt>
      <trkpt lat="48.69561" lon="-3.79208">
        <ele>79.8</ele>
        <time>2025-06-30T10:27:48Z</time>
      </trkpt>
      <trkpt lat="48.69563" lon="-3.79227">
        <ele>79.8</ele>
        <time>2025-06-30T10:29:15Z</time>
      </trkpt>
      <trkpt lat="48.69565" lon="-3.79241">
        <ele>79.7</ele>
        <time>2025-06-30T10:29:20Z</time>
      </trkpt>
      <trkpt lat="48.69568" lon="-3.79255">
        <ele>79.6</ele>
        <time>2025-06-30T10:29:25Z</time>
      </trkpt>
      <trkpt lat="48.69573" lon="-3.79238">
        <ele>79.5</ele>
        <time>2025-06-30T10:29:32Z</time>
      </trkpt>
      <trkpt lat="48.69571" lon="-3.79222">
        <ele>79.4</ele>
        <time>2025-06-30T10:29:35Z</time>
      </trkpt>
      <trkpt lat="48.69566" lon="-3.79206">
        <ele>78.9</ele>
        <time>2025-06-30T10:29:38Z</time>
      </trkpt>
      <trkpt lat="48.69561" lon="-3.7919">
        <ele>78.4</ele>
        <time>2025-06-30T10:29:42Z</time>
      </trkpt>
      <trkpt lat="48.69558" lon="-3.79176">
        <ele>77.8</ele>
        <time>2025-06-30T10:29:47Z</time>
      </trkpt>
      <trkpt lat="48.69558" lon="-3.7916">
        <ele>77.1</ele>
        <time>2025-06-30T10:29:52Z</time>
      </trkpt>
      <trkpt lat="48.69555" lon="-3.79143">
        <ele>76.1</ele>
        <time>2025-06-30T10:29:56Z</time>
      </trkpt>
      <trkpt lat="48.69554" lon="-3.79129">
        <ele>75.4</ele>
        <time>2025-06-30T10:29:59Z</time>
      </trkpt>
      <trkpt lat="48.69553" lon="-3.79112">
        <ele>74.6</ele>
        <time>2025-06-30T10:30:02Z</time>
      </trkpt>
      <trkpt lat="48.69551" lon="-3.79091">
        <ele>73.7</ele>
        <time>2025-06-30T10:30:05Z</time>
      </trkpt>
      <trkpt lat="48.6955" lon="-3.79075">
        <ele>73</ele>
        <time>2025-06-30T10:30:08Z</time>
      </trkpt>
      <trkpt lat="48.6955" lon="-3.79061">
        <ele>72.3</ele>
        <time>2025-06-30T10:30:12Z</time>
      </trkpt>
      <trkpt lat="48.69542" lon="-3.79047">
        <ele>71.7</ele>
        <time>2025-06-30T10:30:16Z</time>
      </trkpt>
      <trkpt lat="48.69538" lon="-3.79035">
        <ele>71.2</ele>
        <time>2025-06-30T10:30:19Z</time>
      </trkpt>
      <trkpt lat="48.69531" lon="-3.79024">
        <ele>70.8</ele>
        <time>2025-06-30T10:30:22Z</time>
      </trkpt>
      <trkpt lat="48.69524" lon="-3.79012">
        <ele>70.3</ele>
        <time>2025-06-30T10:30:25Z</time>
      </trkpt>
      <trkpt lat="48.69515" lon="-3.78999">
        <ele>69.9</ele>
        <time>2025-06-30T10:30:28Z</time>
      </trkpt>
      <trkpt lat="48.69506" lon="-3.78985">
        <ele>69.6</ele>
        <time>2025-06-30T10:30:31Z</time>
      </trkpt>
      <trkpt lat="48.69499" lon="-3.78973">
        <ele>69.3</ele>
        <time>2025-06-30T10:30:34Z</time>
      </trkpt>
      <trkpt lat="48.69491" lon="-3.78965">
        <ele>69.2</ele>
        <time>2025-06-30T10:30:37Z</time>
      </trkpt>
      <trkpt lat="48.69483" lon="-3.78952">
        <ele>69</ele>
        <time>2025-06-30T10:30:41Z</time>
      </trkpt>
      <trkpt lat="48.69475" lon="-3.78942">
        <ele>68.9</ele>
        <time>2025-06-30T10:30:44Z</time>
      </trkpt>
      <trkpt lat="48.69467" lon="-3.78932">
        <ele>68.8</ele>
        <time>2025-06-30T10:30:47Z</time>
      </trkpt>
      <trkpt lat="48.6946" lon="-3.78921">
        <ele>68.8</ele>
        <time>2025-06-30T10:30:50Z</time>
      </trkpt>
      <trkpt lat="48.69453" lon="-3.78908">
        <ele>68.7</ele>
        <time>2025-06-30T10:30:53Z</time>
      </trkpt>
      <trkpt lat="48.69444" lon="-3.78893">
        <ele>68.7</ele>
        <time>2025-06-30T10:30:56Z</time>
      </trkpt>
      <trkpt lat="48.69437" lon="-3.7888">
        <ele>68.7</ele>
        <time>2025-06-30T10:30:58Z</time>
      </trkpt>
      <trkpt lat="48.69431" lon="-3.78865">
        <ele>68.8</ele>
        <time>2025-06-30T10:31:00Z</time>
      </trkpt>
      <trkpt lat="48.69425" lon="-3.7885">
        <ele>68.8</ele>
        <time>2025-06-30T10:31:02Z</time>
      </trkpt>
      <trkpt lat="48.6942" lon="-3.78834">
        <ele>68.8</ele>
        <time>2025-06-30T10:31:04Z</time>
      </trkpt>
      <trkpt lat="48.69414" lon="-3.78818">
        <ele>68.9</ele>
        <time>2025-06-30T10:31:06Z</time>
      </trkpt>
      <trkpt lat="48.69409" lon="-3.78804">
        <ele>68.9</ele>
        <time>2025-06-30T10:31:08Z</time>
      </trkpt>
      <trkpt lat="48.69415" lon="-3.78791">
        <ele>69</ele>
        <time>2025-06-30T10:31:11Z</time>
      </trkpt>
      <trkpt lat="48.69425" lon="-3.7879">
        <ele>68.9</ele>
        <time>2025-06-30T10:31:14Z</time>
      </trkpt>
      <trkpt lat="48.69429" lon="-3.78803">
        <ele>68.9</ele>
        <time>2025-06-30T10:31:21Z</time>
      </trkpt>
      <trkpt lat="48.69417" lon="-3.788">
        <ele>68.9</ele>
        <time>2025-06-30T10:53:38Z</time>
      </trkpt>
      <trkpt lat="48.69415" lon="-3.78814">
        <ele>68.9</ele>
        <time>2025-06-30T10:53:42Z</time>
      </trkpt>
      <trkpt lat="48.6942" lon="-3.78827">
        <ele>68.8</ele>
        <time>2025-06-30T10:53:46Z</time>
      </trkpt>
      <trkpt lat="48.69425" lon="-3.78841">
        <ele>68.8</ele>
        <time>2025-06-30T10:53:50Z</time>
      </trkpt>
      <trkpt lat="48.69431" lon="-3.78855">
        <ele>68.8</ele>
        <time>2025-06-30T10:53:53Z</time>
      </trkpt>
      <trkpt lat="48.69437" lon="-3.78871">
        <ele>68.7</ele>
        <time>2025-06-30T10:53:56Z</time>
      </trkpt>
      <trkpt lat="48.69443" lon="-3.78883">
        <ele>68.7</ele>
        <time>2025-06-30T10:53:58Z</time>
      </trkpt>
      <trkpt lat="48.69449" lon="-3.78894">
        <ele>68.7</ele>
        <time>2025-06-30T10:54:00Z</time>
      </trkpt>
      <trkpt lat="48.69455" lon="-3.78904">
        <ele>68.7</ele>
        <time>2025-06-30T10:54:02Z</time>
      </trkpt>
      <trkpt lat="48.69462" lon="-3.78914">
        <ele>68.8</ele>
        <time>2025-06-30T10:54:04Z</time>
      </trkpt>
      <trkpt lat="48.69468" lon="-3.78924">
        <ele>68.8</ele>
        <time>2025-06-30T10:54:06Z</time>
      </trkpt>
      <trkpt lat="48.69475" lon="-3.78934">
        <ele>68.8</ele>
        <time>2025-06-30T10:54:08Z</time>
      </trkpt>
      <trkpt lat="48.69482" lon="-3.78944">
        <ele>68.9</ele>
        <time>2025-06-30T10:54:10Z</time>
      </trkpt>
      <trkpt lat="48.69488" lon="-3.78954">
        <ele>69</ele>
        <time>2025-06-30T10:54:12Z</time>
      </trkpt>
      <trkpt lat="48.69496" lon="-3.78965">
        <ele>69.2</ele>
        <time>2025-06-30T10:54:14Z</time>
      </trkpt>
      <trkpt lat="48.69503" lon="-3.78977">
        <ele>69.4</ele>
        <time>2025-06-30T10:54:16Z</time>
      </trkpt>
      <trkpt lat="48.6951" lon="-3.78987">
        <ele>69.7</ele>
        <time>2025-06-30T10:54:18Z</time>
      </trkpt>
      <trkpt lat="48.69517" lon="-3.78997">
        <ele>69.9</ele>
        <time>2025-06-30T10:54:20Z</time>
      </trkpt>
      <trkpt lat="48.69524" lon="-3.79007">
        <ele>70.2</ele>
        <time>2025-06-30T10:54:22Z</time>
      </trkpt>
      <trkpt lat="48.69532" lon="-3.79022">
        <ele>70.8</ele>
        <time>2025-06-30T10:54:25Z</time>
      </trkpt>
      <trkpt lat="48.69541" lon="-3.79034">
        <ele>71.3</ele>
        <time>2025-06-30T10:54:28Z</time>
      </trkpt>
      <trkpt lat="48.69548" lon="-3.79048">
        <ele>71.9</ele>
        <time>2025-06-30T10:54:31Z</time>
      </trkpt>
      <trkpt lat="48.69557" lon="-3.7906">
        <ele>72.4</ele>
        <time>2025-06-30T10:54:34Z</time>
      </trkpt>
      <trkpt lat="48.69568" lon="-3.7907">
        <ele>72.7</ele>
        <time>2025-06-30T10:54:37Z</time>
      </trkpt>
      <trkpt lat="48.69576" lon="-3.79083">
        <ele>73.1</ele>
        <time>2025-06-30T10:54:40Z</time>
      </trkpt>
      <trkpt lat="48.69585" lon="-3.79098">
        <ele>73.5</ele>
        <time>2025-06-30T10:54:43Z</time>
      </trkpt>
      <trkpt lat="48.69592" lon="-3.79108">
        <ele>73.8</ele>
        <time>2025-06-30T10:54:45Z</time>
      </trkpt>
      <trkpt lat="48.69599" lon="-3.79125">
        <ele>74.6</ele>
        <time>2025-06-30T10:54:48Z</time>
      </trkpt>
      <trkpt lat="48.69603" lon="-3.79138">
        <ele>75.2</ele>
        <time>2025-06-30T10:54:50Z</time>
      </trkpt>
      <trkpt lat="48.69607" lon="-3.79151">
        <ele>75.9</ele>
        <time>2025-06-30T10:54:52Z</time>
      </trkpt>
      <trkpt lat="48.69617" lon="-3.79163">
        <ele>76.6</ele>
        <time>2025-06-30T10:54:55Z</time>
      </trkpt>
      <trkpt lat="48.69626" lon="-3.79163">
        <ele>76.6</ele>
        <time>2025-06-30T10:54:57Z</time>
      </trkpt>
      <trkpt lat="48.69636" lon="-3.79175">
        <ele>76.7</ele>
        <time>2025-06-30T10:55:00Z</time>
      </trkpt>
      <trkpt lat="48.69638" lon="-3.79189">
        <ele>77.2</ele>
        <time>2025-06-30T10:55:02Z</time>
      </trkpt>
      <trkpt lat="48.69639" lon="-3.79206">
        <ele>77.9</ele>
        <time>2025-06-30T10:55:05Z</time>
      </trkpt>
      <trkpt lat="48.6964" lon="-3.79223">
        <ele>78.5</ele>
        <time>2025-06-30T10:55:08Z</time>
      </trkpt>
      <trkpt lat="48.69634" lon="-3.79236">
        <ele>79.1</ele>
        <time>2025-06-30T10:55:11Z</time>
      </trkpt>
      <trkpt lat="48.69625" lon="-3.79244">
        <ele>79.4</ele>
        <time>2025-06-30T10:55:14Z</time>
      </trkpt>
      <trkpt lat="48.69614" lon="-3.79249">
        <ele>79.7</ele>
        <time>2025-06-30T10:55:17Z</time>
      </trkpt>
      <trkpt lat="48.69603" lon="-3.79253">
        <ele>80.1</ele>
        <time>2025-06-30T10:55:20Z</time>
      </trkpt>
      <trkpt lat="48.69593" lon="-3.79258">
        <ele>80.2</ele>
        <time>2025-06-30T10:55:23Z</time>
      </trkpt>
      <trkpt lat="48.69583" lon="-3.79263">
        <ele>80.4</ele>
        <time>2025-06-30T10:55:26Z</time>
      </trkpt>
      <trkpt lat="48.69576" lon="-3.79274">
        <ele>80.4</ele>
        <time>2025-06-30T10:55:29Z</time>
      </trkpt>
      <trkpt lat="48.69566" lon="-3.79278">
        <ele>80.5</ele>
        <time>2025-06-30T10:55:34Z</time>
      </trkpt>
      <trkpt lat="48.69557" lon="-3.79282">
        <ele>80.5</ele>
        <time>2025-06-30T10:55:37Z</time>
      </trkpt>
      <trkpt lat="48.69546" lon="-3.79286">
        <ele>80.5</ele>
        <time>2025-06-30T10:55:40Z</time>
      </trkpt>
      <trkpt lat="48.69536" lon="-3.79293">
        <ele>80.5</ele>
        <time>2025-06-30T10:55:43Z</time>
      </trkpt>
      <trkpt lat="48.69525" lon="-3.79296">
        <ele>80.6</ele>
        <time>2025-06-30T10:55:46Z</time>
      </trkpt>
      <trkpt lat="48.69517" lon="-3.79304">
        <ele>80.5</ele>
        <time>2025-06-30T10:55:49Z</time>
      </trkpt>
      <trkpt lat="48.69508" lon="-3.79313">
        <ele>80.4</ele>
        <time>2025-06-30T10:55:52Z</time>
      </trkpt>
      <trkpt lat="48.695" lon="-3.79325">
        <ele>80</ele>
        <time>2025-06-30T10:55:55Z</time>
      </trkpt>
      <trkpt lat="48.69488" lon="-3.79337">
        <ele>79.5</ele>
        <time>2025-06-30T10:55:58Z</time>
      </trkpt>
      <trkpt lat="48.6948" lon="-3.79347">
        <ele>79.1</ele>
        <time>2025-06-30T10:56:00Z</time>
      </trkpt>
      <trkpt lat="48.69468" lon="-3.79352">
        <ele>78.5</ele>
        <time>2025-06-30T10:56:02Z</time>
      </trkpt>
      <trkpt lat="48.69454" lon="-3.79356">
        <ele>77.6</ele>
        <time>2025-06-30T10:56:04Z</time>
      </trkpt>
      <trkpt lat="48.6944" lon="-3.79357">
        <ele>76.7</ele>
        <time>2025-06-30T10:56:06Z</time>
      </trkpt>
      <trkpt lat="48.69428" lon="-3.79357">
        <ele>75.9</ele>
        <time>2025-06-30T10:56:08Z</time>
      </trkpt>
      <trkpt lat="48.69418" lon="-3.79357">
        <ele>75.2</ele>
        <time>2025-06-30T10:56:10Z</time>
      </trkpt>
      <trkpt lat="48.69408" lon="-3.79354">
        <ele>74.6</ele>
        <time>2025-06-30T10:56:12Z</time>
      </trkpt>
      <trkpt lat="48.69397" lon="-3.79357">
        <ele>74.2</ele>
        <time>2025-06-30T10:56:14Z</time>
      </trkpt>
      <trkpt lat="48.69384" lon="-3.79359">
        <ele>74</ele>
        <time>2025-06-30T10:56:16Z</time>
      </trkpt>
      <trkpt lat="48.69373" lon="-3.79358">
        <ele>73.9</ele>
        <time>2025-06-30T10:56:18Z</time>
      </trkpt>
      <trkpt lat="48.69369" lon="-3.79332">
        <ele>73.8</ele>
        <time>2025-06-30T10:56:20Z</time>
      </trkpt>
      <trkpt lat="48.69372" lon="-3.79314">
        <ele>73.7</ele>
        <time>2025-06-30T10:56:22Z</time>
      </trkpt>
      <trkpt lat="48.69376" lon="-3.79295">
        <ele>73.5</ele>
        <time>2025-06-30T10:56:24Z</time>
      </trkpt>
      <trkpt lat="48.6938" lon="-3.79277">
        <ele>73.4</ele>
        <time>2025-06-30T10:56:26Z</time>
      </trkpt>
      <trkpt lat="48.69383" lon="-3.79259">
        <ele>73.4</ele>
        <time>2025-06-30T10:56:28Z</time>
      </trkpt>
      <trkpt lat="48.69386" lon="-3.79241">
        <ele>73.3</ele>
        <time>2025-06-30T10:56:30Z</time>
      </trkpt>
      <trkpt lat="48.6939" lon="-3.79228">
        <ele>73.3</ele>
        <time>2025-06-30T10:56:32Z</time>
      </trkpt>
      <trkpt lat="48.69401" lon="-3.79228">
        <ele>73.5</ele>
        <time>2025-06-30T10:56:36Z</time>
      </trkpt>
      <trkpt lat="48.69412" lon="-3.7923">
        <ele>73.9</ele>
        <time>2025-06-30T10:56:40Z</time>
      </trkpt>
      <trkpt lat="48.69423" lon="-3.79221">
        <ele>74.3</ele>
        <time>2025-06-30T10:56:43Z</time>
      </trkpt>
      <trkpt lat="48.69432" lon="-3.79217">
        <ele>74.3</ele>
        <time>2025-06-30T10:56:45Z</time>
      </trkpt>
      <trkpt lat="48.69441" lon="-3.79213">
        <ele>74.3</ele>
        <time>2025-06-30T10:56:47Z</time>
      </trkpt>
      <trkpt lat="48.6945" lon="-3.79208">
        <ele>74.4</ele>
        <time>2025-06-30T10:56:49Z</time>
      </trkpt>
      <trkpt lat="48.69458" lon="-3.79201">
        <ele>74.5</ele>
        <time>2025-06-30T10:56:51Z</time>
      </trkpt>
      <trkpt lat="48.6947" lon="-3.79198">
        <ele>74.8</ele>
        <time>2025-06-30T10:56:54Z</time>
      </trkpt>
      <trkpt lat="48.69481" lon="-3.79199">
        <ele>75.1</ele>
        <time>2025-06-30T10:56:57Z</time>
      </trkpt>
      <trkpt lat="48.69492" lon="-3.79206">
        <ele>76</ele>
        <time>2025-06-30T10:57:00Z</time>
      </trkpt>
      <trkpt lat="48.69504" lon="-3.79205">
        <ele>76.4</ele>
        <time>2025-06-30T10:57:03Z</time>
      </trkpt>
      <trkpt lat="48.69515" lon="-3.79197">
        <ele>76.8</ele>
        <time>2025-06-30T10:57:06Z</time>
      </trkpt>
      <trkpt lat="48.69527" lon="-3.79193">
        <ele>77.2</ele>
        <time>2025-06-30T10:57:09Z</time>
      </trkpt>
      <trkpt lat="48.69538" lon="-3.79189">
        <ele>77.6</ele>
        <time>2025-06-30T10:57:12Z</time>
      </trkpt>
      <trkpt lat="48.69548" lon="-3.79186">
        <ele>77.9</ele>
        <time>2025-06-30T10:57:15Z</time>
      </trkpt>
      <trkpt lat="48.69558" lon="-3.79184">
        <ele>78.2</ele>
        <time>2025-06-30T10:57:19Z</time>
      </trkpt>
      <trkpt lat="48.69558" lon="-3.79165">
        <ele>77.3</ele>
        <time>2025-06-30T10:57:24Z</time>
      </trkpt>
      <trkpt lat="48.69555" lon="-3.79147">
        <ele>76.3</ele>
        <time>2025-06-30T10:57:28Z</time>
      </trkpt>
      <trkpt lat="48.69554" lon="-3.79129">
        <ele>75.4</ele>
        <time>2025-06-30T10:57:31Z</time>
      </trkpt>
      <trkpt lat="48.69552" lon="-3.79112">
        <ele>74.6</ele>
        <time>2025-06-30T10:57:34Z</time>
      </trkpt>
      <trkpt lat="48.69549" lon="-3.79093">
        <ele>73.7</ele>
        <time>2025-06-30T10:57:37Z</time>
      </trkpt>
      <trkpt lat="48.69548" lon="-3.79077">
        <ele>73</ele>
        <time>2025-06-30T10:57:40Z</time>
      </trkpt>
      <trkpt lat="48.69545" lon="-3.79064">
        <ele>72.4</ele>
        <time>2025-06-30T10:57:45Z</time>
      </trkpt>
      <trkpt lat="48.69541" lon="-3.79048">
        <ele>71.7</ele>
        <time>2025-06-30T10:57:57Z</time>
      </trkpt>
      <trkpt lat="48.69532" lon="-3.79032">
        <ele>71</ele>
        <time>2025-06-30T10:58:00Z</time>
      </trkpt>
      <trkpt lat="48.69526" lon="-3.79019">
        <ele>70.5</ele>
        <time>2025-06-30T10:58:02Z</time>
      </trkpt>
      <trkpt lat="48.69518" lon="-3.79007">
        <ele>70.1</ele>
        <time>2025-06-30T10:58:04Z</time>
      </trkpt>
      <trkpt lat="48.6951" lon="-3.78994">
        <ele>69.8</ele>
        <time>2025-06-30T10:58:06Z</time>
      </trkpt>
      <trkpt lat="48.69501" lon="-3.78982">
        <ele>69.5</ele>
        <time>2025-06-30T10:58:08Z</time>
      </trkpt>
      <trkpt lat="48.69493" lon="-3.78969">
        <ele>69.2</ele>
        <time>2025-06-30T10:58:10Z</time>
      </trkpt>
      <trkpt lat="48.69483" lon="-3.78956">
        <ele>69</ele>
        <time>2025-06-30T10:58:12Z</time>
      </trkpt>
      <trkpt lat="48.69474" lon="-3.78945">
        <ele>68.9</ele>
        <time>2025-06-30T10:58:14Z</time>
      </trkpt>
      <trkpt lat="48.69465" lon="-3.78932">
        <ele>68.8</ele>
        <time>2025-06-30T10:58:16Z</time>
      </trkpt>
      <trkpt lat="48.69457" lon="-3.78919">
        <ele>68.8</ele>
        <time>2025-06-30T10:58:18Z</time>
      </trkpt>
      <trkpt lat="48.69449" lon="-3.78906">
        <ele>68.7</ele>
        <time>2025-06-30T10:58:20Z</time>
      </trkpt>
      <trkpt lat="48.69441" lon="-3.78891">
        <ele>68.7</ele>
        <time>2025-06-30T10:58:22Z</time>
      </trkpt>
      <trkpt lat="48.69434" lon="-3.78876">
        <ele>68.7</ele>
        <time>2025-06-30T10:58:24Z</time>
      </trkpt>
      <trkpt lat="48.69428" lon="-3.78861">
        <ele>68.8</ele>
        <time>2025-06-30T10:58:26Z</time>
      </trkpt>
      <trkpt lat="48.69422" lon="-3.78846">
        <ele>68.8</ele>
        <time>2025-06-30T10:58:28Z</time>
      </trkpt>
      <trkpt lat="48.69417" lon="-3.7883">
        <ele>68.9</ele>
        <time>2025-06-30T10:58:30Z</time>
      </trkpt>
      <trkpt lat="48.69412" lon="-3.78815">
        <ele>68.9</ele>
        <time>2025-06-30T10:58:32Z</time>
      </trkpt>
      <trkpt lat="48.69405" lon="-3.78803">
        <ele>69</ele>
        <time>2025-06-30T10:58:34Z</time>
      </trkpt>
      <trkpt lat="48.69413" lon="-3.78791">
        <ele>69</ele>
        <time>2025-06-30T10:58:37Z</time>
      </trkpt>
      <trkpt lat="48.69418" lon="-3.78827">
        <ele>68.9</ele>
        <time>2025-06-30T10:58:40Z</time>
      </trkpt>
      <trkpt lat="48.69423" lon="-3.78842">
        <ele>68.8</ele>
        <time>2025-06-30T10:58:42Z</time>
      </trkpt>
      <trkpt lat="48.69429" lon="-3.78854">
        <ele>68.8</ele>
        <time>2025-06-30T10:58:44Z</time>
      </trkpt>
      <trkpt lat="48.69435" lon="-3.78867">
        <ele>68.8</ele>
        <time>2025-06-30T10:58:46Z</time>
      </trkpt>
      <trkpt lat="48.6944" lon="-3.78881">
        <ele>68.7</ele>
        <time>2025-06-30T10:58:48Z</time>
      </trkpt>
      <trkpt lat="48.69448" lon="-3.78893">
        <ele>68.7</ele>
        <time>2025-06-30T10:58:50Z</time>
      </trkpt>
      <trkpt lat="48.69454" lon="-3.78906">
        <ele>68.7</ele>
        <time>2025-06-30T10:58:52Z</time>
      </trkpt>
      <trkpt lat="48.69461" lon="-3.78917">
        <ele>68.8</ele>
        <time>2025-06-30T10:58:54Z</time>
      </trkpt>
      <trkpt lat="48.69469" lon="-3.78929">
        <ele>68.8</ele>
        <time>2025-06-30T10:58:56Z</time>
      </trkpt>
      <trkpt lat="48.69478" lon="-3.78941">
        <ele>68.9</ele>
        <time>2025-06-30T10:58:58Z</time>
      </trkpt>
      <trkpt lat="48.69487" lon="-3.78952">
        <ele>69</ele>
        <time>2025-06-30T10:59:00Z</time>
      </trkpt>
      <trkpt lat="48.69495" lon="-3.78964">
        <ele>69.2</ele>
        <time>2025-06-30T10:59:02Z</time>
      </trkpt>
      <trkpt lat="48.69503" lon="-3.78977">
        <ele>69.4</ele>
        <time>2025-06-30T10:59:04Z</time>
      </trkpt>
      <trkpt lat="48.69511" lon="-3.7899">
        <ele>69.7</ele>
        <time>2025-06-30T10:59:06Z</time>
      </trkpt>
      <trkpt lat="48.69519" lon="-3.79002">
        <ele>70</ele>
        <time>2025-06-30T10:59:08Z</time>
      </trkpt>
      <trkpt lat="48.69526" lon="-3.79015">
        <ele>70.4</ele>
        <time>2025-06-30T10:59:10Z</time>
      </trkpt>
      <trkpt lat="48.69534" lon="-3.79027">
        <ele>70.9</ele>
        <time>2025-06-30T10:59:12Z</time>
      </trkpt>
      <trkpt lat="48.69541" lon="-3.79038">
        <ele>71.4</ele>
        <time>2025-06-30T10:59:14Z</time>
      </trkpt>
      <trkpt lat="48.69546" lon="-3.7905">
        <ele>71.9</ele>
        <time>2025-06-30T10:59:16Z</time>
      </trkpt>
      <trkpt lat="48.69554" lon="-3.79058">
        <ele>72.3</ele>
        <time>2025-06-30T10:59:18Z</time>
      </trkpt>
      <trkpt lat="48.69562" lon="-3.79067">
        <ele>72.6</ele>
        <time>2025-06-30T10:59:20Z</time>
      </trkpt>
      <trkpt lat="48.6957" lon="-3.79076">
        <ele>72.9</ele>
        <time>2025-06-30T10:59:22Z</time>
      </trkpt>
      <trkpt lat="48.69576" lon="-3.79086">
        <ele>73.1</ele>
        <time>2025-06-30T10:59:24Z</time>
      </trkpt>
      <trkpt lat="48.69583" lon="-3.79097">
        <ele>73.4</ele>
        <time>2025-06-30T10:59:26Z</time>
      </trkpt>
      <trkpt lat="48.69589" lon="-3.79107">
        <ele>73.7</ele>
        <time>2025-06-30T10:59:28Z</time>
      </trkpt>
      <trkpt lat="48.69594" lon="-3.79118">
        <ele>74.1</ele>
        <time>2025-06-30T10:59:30Z</time>
      </trkpt>
      <trkpt lat="48.696" lon="-3.79136">
        <ele>75</ele>
        <time>2025-06-30T10:59:33Z</time>
      </trkpt>
      <trkpt lat="48.69607" lon="-3.79153">
        <ele>76</ele>
        <time>2025-06-30T10:59:36Z</time>
      </trkpt>
      <trkpt lat="48.69617" lon="-3.79163">
        <ele>76.6</ele>
        <time>2025-06-30T10:59:39Z</time>
      </trkpt>
      <trkpt lat="48.69628" lon="-3.79167">
        <ele>76.6</ele>
        <time>2025-06-30T10:59:42Z</time>
      </trkpt>
      <trkpt lat="48.69635" lon="-3.79179">
        <ele>76.8</ele>
        <time>2025-06-30T10:59:45Z</time>
      </trkpt>
      <trkpt lat="48.69639" lon="-3.79192">
        <ele>77.3</ele>
        <time>2025-06-30T10:59:48Z</time>
      </trkpt>
      <trkpt lat="48.6964" lon="-3.79207">
        <ele>77.9</ele>
        <time>2025-06-30T10:59:53Z</time>
      </trkpt>
      <trkpt lat="48.69641" lon="-3.79222">
        <ele>78.5</ele>
        <time>2025-06-30T10:59:58Z</time>
      </trkpt>
      <trkpt lat="48.69638" lon="-3.79237">
        <ele>79</ele>
        <time>2025-06-30T11:00:04Z</time>
      </trkpt>
      <trkpt lat="48.69628" lon="-3.79242">
        <ele>79.3</ele>
        <time>2025-06-30T11:00:10Z</time>
      </trkpt>
      <trkpt lat="48.69618" lon="-3.79246">
        <ele>79.6</ele>
        <time>2025-06-30T11:00:14Z</time>
      </trkpt>
      <trkpt lat="48.69607" lon="-3.79248">
        <ele>80</ele>
        <time>2025-06-30T11:00:18Z</time>
      </trkpt>
      <trkpt lat="48.69596" lon="-3.79253">
        <ele>80.2</ele>
        <time>2025-06-30T11:00:22Z</time>
      </trkpt>
      <trkpt lat="48.69585" lon="-3.79256">
        <ele>80.4</ele>
        <time>2025-06-30T11:00:26Z</time>
      </trkpt>
      <trkpt lat="48.69577" lon="-3.79245">
        <ele>80</ele>
        <time>2025-06-30T11:00:30Z</time>
      </trkpt>
      <trkpt lat="48.69573" lon="-3.79228">
        <ele>79.6</ele>
        <time>2025-06-30T11:00:34Z</time>
      </trkpt>
      <trkpt lat="48.6957" lon="-3.79214">
        <ele>79.1</ele>
        <time>2025-06-30T11:00:37Z</time>
      </trkpt>
      <trkpt lat="48.69573" lon="-3.79198">
        <ele>78.5</ele>
        <time>2025-06-30T11:00:40Z</time>
      </trkpt>
      <trkpt lat="48.69583" lon="-3.79187">
        <ele>77.8</ele>
        <time>2025-06-30T11:00:43Z</time>
      </trkpt>
      <trkpt lat="48.69591" lon="-3.7918">
        <ele>77.4</ele>
        <time>2025-06-30T11:00:45Z</time>
      </trkpt>
      <trkpt lat="48.69599" lon="-3.79174">
        <ele>77</ele>
        <time>2025-06-30T11:00:47Z</time>
      </trkpt>
      <trkpt lat="48.69609" lon="-3.79169">
        <ele>76.6</ele>
        <time>2025-06-30T11:00:49Z</time>
      </trkpt>
      <trkpt lat="48.69619" lon="-3.79164">
        <ele>76.6</ele>
        <time>2025-06-30T11:00:51Z</time>
      </trkpt>
      <trkpt lat="48.69627" lon="-3.79168">
        <ele>76.6</ele>
        <time>2025-06-30T11:00:53Z</time>
      </trkpt>
      <trkpt lat="48.6964" lon="-3.79171">
        <ele>76.5</ele>
        <time>2025-06-30T11:00:56Z</time>
      </trkpt>
      <trkpt lat="48.6965" lon="-3.79165">
        <ele>76</ele>
        <time>2025-06-30T11:00:58Z</time>
      </trkpt>
      <trkpt lat="48.6966" lon="-3.79161">
        <ele>75.7</ele>
        <time>2025-06-30T11:01:00Z</time>
      </trkpt>
      <trkpt lat="48.69671" lon="-3.79158">
        <ele>75.4</ele>
        <time>2025-06-30T11:01:02Z</time>
      </trkpt>
      <trkpt lat="48.69681" lon="-3.79153">
        <ele>75.2</ele>
        <time>2025-06-30T11:01:04Z</time>
      </trkpt>
      <trkpt lat="48.69691" lon="-3.79148">
        <ele>74.9</ele>
        <time>2025-06-30T11:01:06Z</time>
      </trkpt>
      <trkpt lat="48.69702" lon="-3.79145">
        <ele>74.7</ele>
        <time>2025-06-30T11:01:08Z</time>
      </trkpt>
      <trkpt lat="48.69713" lon="-3.79139">
        <ele>74.4</ele>
        <time>2025-06-30T11:01:10Z</time>
      </trkpt>
      <trkpt lat="48.69724" lon="-3.79136">
        <ele>74.1</ele>
        <time>2025-06-30T11:01:12Z</time>
      </trkpt>
      <trkpt lat="48.69736" lon="-3.79132">
        <ele>73.8</ele>
        <time>2025-06-30T11:01:14Z</time>
      </trkpt>
      <trkpt lat="48.69748" lon="-3.79126">
        <ele>73.3</ele>
        <time>2025-06-30T11:01:16Z</time>
      </trkpt>
      <trkpt lat="48.69762" lon="-3.79122">
        <ele>72.7</ele>
        <time>2025-06-30T11:01:18Z</time>
      </trkpt>
      <trkpt lat="48.69775" lon="-3.79115">
        <ele>71.9</ele>
        <time>2025-06-30T11:01:20Z</time>
      </trkpt>
      <trkpt lat="48.6979" lon="-3.79105">
        <ele>71.1</ele>
        <time>2025-06-30T11:01:22Z</time>
      </trkpt>
      <trkpt lat="48.69805" lon="-3.79091">
        <ele>70.2</ele>
        <time>2025-06-30T11:01:24Z</time>
      </trkpt>
      <trkpt lat="48.69819" lon="-3.79074">
        <ele>69.3</ele>
        <time>2025-06-30T11:01:26Z</time>
      </trkpt>
      <trkpt lat="48.69825" lon="-3.79064">
        <ele>68.9</ele>
        <time>2025-06-30T11:01:27Z</time>
      </trkpt>
      <trkpt lat="48.69831" lon="-3.79054">
        <ele>68.5</ele>
        <time>2025-06-30T11:01:28Z</time>
      </trkpt>
      <trkpt lat="48.69838" lon="-3.79045">
        <ele>68.1</ele>
        <time>2025-06-30T11:01:29Z</time>
      </trkpt>
      <trkpt lat="48.69845" lon="-3.79037">
        <ele>67.7</ele>
        <time>2025-06-30T11:01:30Z</time>
      </trkpt>
      <trkpt lat="48.69852" lon="-3.79027">
        <ele>67.2</ele>
        <time>2025-06-30T11:01:31Z</time>
      </trkpt>
      <trkpt lat="48.69859" lon="-3.79017">
        <ele>66.7</ele>
        <time>2025-06-30T11:01:32Z</time>
      </trkpt>
      <trkpt lat="48.69866" lon="-3.79009">
        <ele>66.2</ele>
        <time>2025-06-30T11:01:33Z</time>
      </trkpt>
      <trkpt lat="48.69873" lon="-3.78999">
        <ele>65.6</ele>
        <time>2025-06-30T11:01:34Z</time>
      </trkpt>
      <trkpt lat="48.6988" lon="-3.7899">
        <ele>65.1</ele>
        <time>2025-06-30T11:01:35Z</time>
      </trkpt>
      <trkpt lat="48.69887" lon="-3.7898">
        <ele>64.5</ele>
        <time>2025-06-30T11:01:36Z</time>
      </trkpt>
      <trkpt lat="48.69894" lon="-3.7897">
        <ele>63.9</ele>
        <time>2025-06-30T11:01:37Z</time>
      </trkpt>
      <trkpt lat="48.69902" lon="-3.78961">
        <ele>63.4</ele>
        <time>2025-06-30T11:01:38Z</time>
      </trkpt>
      <trkpt lat="48.69911" lon="-3.78952">
        <ele>62.8</ele>
        <time>2025-06-30T11:01:39Z</time>
      </trkpt>
      <trkpt lat="48.6992" lon="-3.78944">
        <ele>62.2</ele>
        <time>2025-06-30T11:01:40Z</time>
      </trkpt>
      <trkpt lat="48.69928" lon="-3.78936">
        <ele>61.5</ele>
        <time>2025-06-30T11:01:41Z</time>
      </trkpt>
      <trkpt lat="48.69942" lon="-3.78924">
        <ele>60</ele>
        <time>2025-06-30T11:01:43Z</time>
      </trkpt>
      <trkpt lat="48.69955" lon="-3.7891">
        <ele>58.4</ele>
        <time>2025-06-30T11:01:45Z</time>
      </trkpt>
      <trkpt lat="48.69965" lon="-3.78893">
        <ele>56.5</ele>
        <time>2025-06-30T11:01:47Z</time>
      </trkpt>
      <trkpt lat="48.69969" lon="-3.78868">
        <ele>54</ele>
        <time>2025-06-30T11:01:49Z</time>
      </trkpt>
      <trkpt lat="48.69972" lon="-3.78842">
        <ele>51.3</ele>
        <time>2025-06-30T11:01:51Z</time>
      </trkpt>
      <trkpt lat="48.69973" lon="-3.78827">
        <ele>49.8</ele>
        <time>2025-06-30T11:01:52Z</time>
      </trkpt>
      <trkpt lat="48.69974" lon="-3.78813">
        <ele>48.4</ele>
        <time>2025-06-30T11:01:53Z</time>
      </trkpt>
      <trkpt lat="48.69977" lon="-3.78799">
        <ele>47.1</ele>
        <time>2025-06-30T11:01:54Z</time>
      </trkpt>
      <trkpt lat="48.69981" lon="-3.78785">
        <ele>45.8</ele>
        <time>2025-06-30T11:01:55Z</time>
      </trkpt>
      <trkpt lat="48.69985" lon="-3.78772">
        <ele>44.6</ele>
        <time>2025-06-30T11:01:56Z</time>
      </trkpt>
      <trkpt lat="48.6999" lon="-3.78758">
        <ele>43.5</ele>
        <time>2025-06-30T11:01:57Z</time>
      </trkpt>
      <trkpt lat="48.69995" lon="-3.78744">
        <ele>42.3</ele>
        <time>2025-06-30T11:01:58Z</time>
      </trkpt>
      <trkpt lat="48.70002" lon="-3.78731">
        <ele>41.2</ele>
        <time>2025-06-30T11:01:59Z</time>
      </trkpt>
      <trkpt lat="48.70008" lon="-3.78718">
        <ele>40.2</ele>
        <time>2025-06-30T11:02:00Z</time>
      </trkpt>
      <trkpt lat="48.70015" lon="-3.78705">
        <ele>39.2</ele>
        <time>2025-06-30T11:02:01Z</time>
      </trkpt>
      <trkpt lat="48.70021" lon="-3.78693">
        <ele>38.2</ele>
        <time>2025-06-30T11:02:02Z</time>
      </trkpt>
      <trkpt lat="48.70027" lon="-3.7868">
        <ele>37.2</ele>
        <time>2025-06-30T11:02:03Z</time>
      </trkpt>
      <trkpt lat="48.7003" lon="-3.78667">
        <ele>36.2</ele>
        <time>2025-06-30T11:02:04Z</time>
      </trkpt>
      <trkpt lat="48.70033" lon="-3.78653">
        <ele>35.1</ele>
        <time>2025-06-30T11:02:05Z</time>
      </trkpt>
      <trkpt lat="48.70036" lon="-3.78638">
        <ele>33.8</ele>
        <time>2025-06-30T11:02:06Z</time>
      </trkpt>
      <trkpt lat="48.70038" lon="-3.78623">
        <ele>32.4</ele>
        <time>2025-06-30T11:02:07Z</time>
      </trkpt>
      <trkpt lat="48.70041" lon="-3.78606">
        <ele>30.9</ele>
        <time>2025-06-30T11:02:08Z</time>
      </trkpt>
      <trkpt lat="48.70043" lon="-3.78589">
        <ele>29.4</ele>
        <time>2025-06-30T11:02:09Z</time>
      </trkpt>
      <trkpt lat="48.70045" lon="-3.78572">
        <ele>27.8</ele>
        <time>2025-06-30T11:02:10Z</time>
      </trkpt>
      <trkpt lat="48.70047" lon="-3.78556">
        <ele>26.4</ele>
        <time>2025-06-30T11:02:11Z</time>
      </trkpt>
      <trkpt lat="48.7005" lon="-3.7854">
        <ele>25</ele>
        <time>2025-06-30T11:02:12Z</time>
      </trkpt>
      <trkpt lat="48.70053" lon="-3.78524">
        <ele>23.7</ele>
        <time>2025-06-30T11:02:13Z</time>
      </trkpt>
      <trkpt lat="48.70056" lon="-3.78507">
        <ele>22.5</ele>
        <time>2025-06-30T11:02:14Z</time>
      </trkpt>
      <trkpt lat="48.70059" lon="-3.7849">
        <ele>21.3</ele>
        <time>2025-06-30T11:02:15Z</time>
      </trkpt>
      <trkpt lat="48.70063" lon="-3.78474">
        <ele>20.1</ele>
        <time>2025-06-30T11:02:16Z</time>
      </trkpt>
      <trkpt lat="48.70066" lon="-3.78456">
        <ele>18.9</ele>
        <time>2025-06-30T11:02:17Z</time>
      </trkpt>
      <trkpt lat="48.70069" lon="-3.78438">
        <ele>17.6</ele>
        <time>2025-06-30T11:02:18Z</time>
      </trkpt>
      <trkpt lat="48.70072" lon="-3.7842">
        <ele>16.3</ele>
        <time>2025-06-30T11:02:19Z</time>
      </trkpt>
      <trkpt lat="48.70076" lon="-3.78401">
        <ele>14.9</ele>
        <time>2025-06-30T11:02:20Z</time>
      </trkpt>
      <trkpt lat="48.70079" lon="-3.78382">
        <ele>13.5</ele>
        <time>2025-06-30T11:02:21Z</time>
      </trkpt>
      <trkpt lat="48.70082" lon="-3.78362">
        <ele>12.1</ele>
        <time>2025-06-30T11:02:22Z</time>
      </trkpt>
      <trkpt lat="48.70086" lon="-3.78342">
        <ele>10.8</ele>
        <time>2025-06-30T11:02:23Z</time>
      </trkpt>
      <trkpt lat="48.7009" lon="-3.78322">
        <ele>9.7</ele>
        <time>2025-06-30T11:02:24Z</time>
      </trkpt>
      <trkpt lat="48.70094" lon="-3.78301">
        <ele>8.7</ele>
        <time>2025-06-30T11:02:25Z</time>
      </trkpt>
      <trkpt lat="48.70098" lon="-3.78282">
        <ele>7.7</ele>
        <time>2025-06-30T11:02:26Z</time>
      </trkpt>
      <trkpt lat="48.70103" lon="-3.78261">
        <ele>7</ele>
        <time>2025-06-30T11:02:27Z</time>
      </trkpt>
      <trkpt lat="48.70107" lon="-3.7824">
        <ele>6.8</ele>
        <time>2025-06-30T11:02:28Z</time>
      </trkpt>
      <trkpt lat="48.70112" lon="-3.78218">
        <ele>6.2</ele>
        <time>2025-06-30T11:02:29Z</time>
      </trkpt>
      <trkpt lat="48.70117" lon="-3.78197">
        <ele>5.7</ele>
        <time>2025-06-30T11:02:30Z</time>
      </trkpt>
      <trkpt lat="48.70121" lon="-3.78175">
        <ele>5.3</ele>
        <time>2025-06-30T11:02:31Z</time>
      </trkpt>
      <trkpt lat="48.70126" lon="-3.78154">
        <ele>5.1</ele>
        <time>2025-06-30T11:02:32Z</time>
      </trkpt>
      <trkpt lat="48.7013" lon="-3.78134">
        <ele>4.9</ele>
        <time>2025-06-30T11:02:33Z</time>
      </trkpt>
      <trkpt lat="48.70135" lon="-3.78114">
        <ele>4.8</ele>
        <time>2025-06-30T11:02:34Z</time>
      </trkpt>
      <trkpt lat="48.70139" lon="-3.78094">
        <ele>4.8</ele>
        <time>2025-06-30T11:02:35Z</time>
      </trkpt>
      <trkpt lat="48.70143" lon="-3.78075">
        <ele>4.8</ele>
        <time>2025-06-30T11:02:36Z</time>
      </trkpt>
      <trkpt lat="48.70148" lon="-3.78056">
        <ele>4.8</ele>
        <time>2025-06-30T11:02:37Z</time>
      </trkpt>
      <trkpt lat="48.70152" lon="-3.78037">
        <ele>4.8</ele>
        <time>2025-06-30T11:02:38Z</time>
      </trkpt>
      <trkpt lat="48.70156" lon="-3.78019">
        <ele>4.8</ele>
        <time>2025-06-30T11:02:39Z</time>
      </trkpt>
      <trkpt lat="48.7016" lon="-3.78">
        <ele>4.8</ele>
        <time>2025-06-30T11:02:40Z</time>
      </trkpt>
      <trkpt lat="48.70164" lon="-3.77982">
        <ele>4.8</ele>
        <time>2025-06-30T11:02:41Z</time>
      </trkpt>
      <trkpt lat="48.70168" lon="-3.77964">
        <ele>4.8</ele>
        <time>2025-06-30T11:02:42Z</time>
      </trkpt>
      <trkpt lat="48.70172" lon="-3.77946">
        <ele>5</ele>
        <time>2025-06-30T11:02:43Z</time>
      </trkpt>
      <trkpt lat="48.70176" lon="-3.77929">
        <ele>5.2</ele>
        <time>2025-06-30T11:02:44Z</time>
      </trkpt>
      <trkpt lat="48.7018" lon="-3.77912">
        <ele>5.4</ele>
        <time>2025-06-30T11:02:45Z</time>
      </trkpt>
      <trkpt lat="48.70183" lon="-3.77896">
        <ele>5.6</ele>
        <time>2025-06-30T11:02:46Z</time>
      </trkpt>
      <trkpt lat="48.70186" lon="-3.7788">
        <ele>5.8</ele>
        <time>2025-06-30T11:02:47Z</time>
      </trkpt>
      <trkpt lat="48.7019" lon="-3.77864">
        <ele>6</ele>
        <time>2025-06-30T11:02:48Z</time>
      </trkpt>
      <trkpt lat="48.70192" lon="-3.77848">
        <ele>6.2</ele>
        <time>2025-06-30T11:02:49Z</time>
      </trkpt>
      <trkpt lat="48.70196" lon="-3.77833">
        <ele>6.4</ele>
        <time>2025-06-30T11:02:50Z</time>
      </trkpt>
      <trkpt lat="48.70198" lon="-3.77819">
        <ele>6.5</ele>
        <time>2025-06-30T11:02:51Z</time>
      </trkpt>
      <trkpt lat="48.70201" lon="-3.77805">
        <ele>6.7</ele>
        <time>2025-06-30T11:02:52Z</time>
      </trkpt>
      <trkpt lat="48.70205" lon="-3.77791">
        <ele>6.8</ele>
        <time>2025-06-30T11:02:53Z</time>
      </trkpt>
      <trkpt lat="48.70208" lon="-3.77778">
        <ele>6.9</ele>
        <time>2025-06-30T11:02:54Z</time>
      </trkpt>
      <trkpt lat="48.70212" lon="-3.77765">
        <ele>7</ele>
        <time>2025-06-30T11:02:55Z</time>
      </trkpt>
      <trkpt lat="48.70218" lon="-3.77739">
        <ele>7.3</ele>
        <time>2025-06-30T11:02:57Z</time>
      </trkpt>
      <trkpt lat="48.70223" lon="-3.77715">
        <ele>7.5</ele>
        <time>2025-06-30T11:02:59Z</time>
      </trkpt>
      <trkpt lat="48.70225" lon="-3.77691">
        <ele>7.6</ele>
        <time>2025-06-30T11:03:01Z</time>
      </trkpt>
      <trkpt lat="48.70226" lon="-3.77666">
        <ele>7.9</ele>
        <time>2025-06-30T11:03:03Z</time>
      </trkpt>
      <trkpt lat="48.70232" lon="-3.77644">
        <ele>8.1</ele>
        <time>2025-06-30T11:03:05Z</time>
      </trkpt>
      <trkpt lat="48.70246" lon="-3.77632">
        <ele>8.4</ele>
        <time>2025-06-30T11:03:07Z</time>
      </trkpt>
      <trkpt lat="48.70255" lon="-3.77616">
        <ele>8.4</ele>
        <time>2025-06-30T11:03:09Z</time>
      </trkpt>
      <trkpt lat="48.70263" lon="-3.77602">
        <ele>8.7</ele>
        <time>2025-06-30T11:03:11Z</time>
      </trkpt>
      <trkpt lat="48.70272" lon="-3.77589">
        <ele>9</ele>
        <time>2025-06-30T11:03:13Z</time>
      </trkpt>
      <trkpt lat="48.70282" lon="-3.77577">
        <ele>9.3</ele>
        <time>2025-06-30T11:03:15Z</time>
      </trkpt>
      <trkpt lat="48.70291" lon="-3.77566">
        <ele>9.6</ele>
        <time>2025-06-30T11:03:17Z</time>
      </trkpt>
      <trkpt lat="48.70301" lon="-3.77556">
        <ele>10</ele>
        <time>2025-06-30T11:03:19Z</time>
      </trkpt>
      <trkpt lat="48.7031" lon="-3.77547">
        <ele>10.5</ele>
        <time>2025-06-30T11:03:21Z</time>
      </trkpt>
      <trkpt lat="48.70319" lon="-3.77539">
        <ele>11</ele>
        <time>2025-06-30T11:03:23Z</time>
      </trkpt>
      <trkpt lat="48.70327" lon="-3.77531">
        <ele>11.6</ele>
        <time>2025-06-30T11:03:25Z</time>
      </trkpt>
      <trkpt lat="48.70338" lon="-3.7752">
        <ele>12.7</ele>
        <time>2025-06-30T11:03:28Z</time>
      </trkpt>
      <trkpt lat="48.70348" lon="-3.7751">
        <ele>13.7</ele>
        <time>2025-06-30T11:03:31Z</time>
      </trkpt>
      <trkpt lat="48.70358" lon="-3.775">
        <ele>14.6</ele>
        <time>2025-06-30T11:03:34Z</time>
      </trkpt>
      <trkpt lat="48.70367" lon="-3.77492">
        <ele>15.5</ele>
        <time>2025-06-30T11:03:37Z</time>
      </trkpt>
      <trkpt lat="48.70376" lon="-3.77483">
        <ele>16.4</ele>
        <time>2025-06-30T11:03:40Z</time>
      </trkpt>
      <trkpt lat="48.70385" lon="-3.77474">
        <ele>17.3</ele>
        <time>2025-06-30T11:03:43Z</time>
      </trkpt>
      <trkpt lat="48.70394" lon="-3.77466">
        <ele>18.2</ele>
        <time>2025-06-30T11:03:46Z</time>
      </trkpt>
      <trkpt lat="48.70402" lon="-3.77458">
        <ele>19.1</ele>
        <time>2025-06-30T11:03:49Z</time>
      </trkpt>
      <trkpt lat="48.7041" lon="-3.7745">
        <ele>20</ele>
        <time>2025-06-30T11:03:52Z</time>
      </trkpt>
      <trkpt lat="48.70419" lon="-3.77442">
        <ele>21</ele>
        <time>2025-06-30T11:03:55Z</time>
      </trkpt>
      <trkpt lat="48.70426" lon="-3.77435">
        <ele>22</ele>
        <time>2025-06-30T11:03:58Z</time>
      </trkpt>
      <trkpt lat="48.70434" lon="-3.77427">
        <ele>23.1</ele>
        <time>2025-06-30T11:04:01Z</time>
      </trkpt>
      <trkpt lat="48.70442" lon="-3.77419">
        <ele>24.2</ele>
        <time>2025-06-30T11:04:04Z</time>
      </trkpt>
      <trkpt lat="48.70452" lon="-3.77409">
        <ele>25.6</ele>
        <time>2025-06-30T11:04:08Z</time>
      </trkpt>
      <trkpt lat="48.70461" lon="-3.77399">
        <ele>26.9</ele>
        <time>2025-06-30T11:04:12Z</time>
      </trkpt>
      <trkpt lat="48.70471" lon="-3.7739">
        <ele>28.3</ele>
        <time>2025-06-30T11:04:16Z</time>
      </trkpt>
      <trkpt lat="48.7048" lon="-3.77379">
        <ele>29.6</ele>
        <time>2025-06-30T11:04:20Z</time>
      </trkpt>
      <trkpt lat="48.70488" lon="-3.77369">
        <ele>30.8</ele>
        <time>2025-06-30T11:04:24Z</time>
      </trkpt>
      <trkpt lat="48.70496" lon="-3.77358">
        <ele>32</ele>
        <time>2025-06-30T11:04:28Z</time>
      </trkpt>
      <trkpt lat="48.70503" lon="-3.77347">
        <ele>33.1</ele>
        <time>2025-06-30T11:04:32Z</time>
      </trkpt>
      <trkpt lat="48.7051" lon="-3.77334">
        <ele>34.1</ele>
        <time>2025-06-30T11:04:36Z</time>
      </trkpt>
      <trkpt lat="48.70515" lon="-3.7732">
        <ele>35.1</ele>
        <time>2025-06-30T11:04:40Z</time>
      </trkpt>
      <trkpt lat="48.70521" lon="-3.77306">
        <ele>36</ele>
        <time>2025-06-30T11:04:44Z</time>
      </trkpt>
      <trkpt lat="48.70526" lon="-3.77292">
        <ele>36.8</ele>
        <time>2025-06-30T11:04:48Z</time>
      </trkpt>
      <trkpt lat="48.70532" lon="-3.77278">
        <ele>37.7</ele>
        <time>2025-06-30T11:04:52Z</time>
      </trkpt>
      <trkpt lat="48.70538" lon="-3.77263">
        <ele>38.4</ele>
        <time>2025-06-30T11:04:56Z</time>
      </trkpt>
      <trkpt lat="48.70543" lon="-3.77247">
        <ele>39</ele>
        <time>2025-06-30T11:05:00Z</time>
      </trkpt>
      <trkpt lat="48.70548" lon="-3.77232">
        <ele>39.5</ele>
        <time>2025-06-30T11:05:04Z</time>
      </trkpt>
      <trkpt lat="48.70553" lon="-3.7722">
        <ele>40</ele>
        <time>2025-06-30T11:05:07Z</time>
      </trkpt>
      <trkpt lat="48.70558" lon="-3.77204">
        <ele>40.5</ele>
        <time>2025-06-30T11:05:11Z</time>
      </trkpt>
      <trkpt lat="48.70562" lon="-3.77191">
        <ele>40.9</ele>
        <time>2025-06-30T11:05:14Z</time>
      </trkpt>
      <trkpt lat="48.70566" lon="-3.77178">
        <ele>41.3</ele>
        <time>2025-06-30T11:05:17Z</time>
      </trkpt>
      <trkpt lat="48.70571" lon="-3.77166">
        <ele>41.7</ele>
        <time>2025-06-30T11:05:20Z</time>
      </trkpt>
      <trkpt lat="48.70575" lon="-3.77153">
        <ele>42.1</ele>
        <time>2025-06-30T11:05:23Z</time>
      </trkpt>
      <trkpt lat="48.70579" lon="-3.77141">
        <ele>42.4</ele>
        <time>2025-06-30T11:05:26Z</time>
      </trkpt>
      <trkpt lat="48.70584" lon="-3.77128">
        <ele>42.8</ele>
        <time>2025-06-30T11:05:29Z</time>
      </trkpt>
      <trkpt lat="48.70589" lon="-3.77115">
        <ele>43.2</ele>
        <time>2025-06-30T11:05:32Z</time>
      </trkpt>
      <trkpt lat="48.70593" lon="-3.77102">
        <ele>43.6</ele>
        <time>2025-06-30T11:05:35Z</time>
      </trkpt>
      <trkpt lat="48.70598" lon="-3.77087">
        <ele>44.1</ele>
        <time>2025-06-30T11:05:38Z</time>
      </trkpt>
      <trkpt lat="48.70603" lon="-3.77072">
        <ele>44.5</ele>
        <time>2025-06-30T11:05:41Z</time>
      </trkpt>
      <trkpt lat="48.70607" lon="-3.77059">
        <ele>44.9</ele>
        <time>2025-06-30T11:05:44Z</time>
      </trkpt>
      <trkpt lat="48.70612" lon="-3.77043">
        <ele>45.3</ele>
        <time>2025-06-30T11:05:47Z</time>
      </trkpt>
      <trkpt lat="48.70617" lon="-3.77029">
        <ele>45.6</ele>
        <time>2025-06-30T11:05:50Z</time>
      </trkpt>
      <trkpt lat="48.70626" lon="-3.77008">
        <ele>45.7</ele>
        <time>2025-06-30T11:05:53Z</time>
      </trkpt>
      <trkpt lat="48.7063" lon="-3.76993">
        <ele>45.6</ele>
        <time>2025-06-30T11:05:55Z</time>
      </trkpt>
      <trkpt lat="48.70635" lon="-3.76978">
        <ele>45.4</ele>
        <time>2025-06-30T11:05:57Z</time>
      </trkpt>
      <trkpt lat="48.70641" lon="-3.76962">
        <ele>45.2</ele>
        <time>2025-06-30T11:05:59Z</time>
      </trkpt>
      <trkpt lat="48.70647" lon="-3.76945">
        <ele>44.9</ele>
        <time>2025-06-30T11:06:01Z</time>
      </trkpt>
      <trkpt lat="48.70653" lon="-3.76929">
        <ele>44.4</ele>
        <time>2025-06-30T11:06:03Z</time>
      </trkpt>
      <trkpt lat="48.70659" lon="-3.7691">
        <ele>43.8</ele>
        <time>2025-06-30T11:06:05Z</time>
      </trkpt>
      <trkpt lat="48.70664" lon="-3.76889">
        <ele>43</ele>
        <time>2025-06-30T11:06:07Z</time>
      </trkpt>
      <trkpt lat="48.70668" lon="-3.76866">
        <ele>41.9</ele>
        <time>2025-06-30T11:06:09Z</time>
      </trkpt>
      <trkpt lat="48.7067" lon="-3.76841">
        <ele>40.8</ele>
        <time>2025-06-30T11:06:11Z</time>
      </trkpt>
      <trkpt lat="48.70669" lon="-3.76814">
        <ele>39.7</ele>
        <time>2025-06-30T11:06:13Z</time>
      </trkpt>
      <trkpt lat="48.70667" lon="-3.768">
        <ele>39.2</ele>
        <time>2025-06-30T11:06:14Z</time>
      </trkpt>
      <trkpt lat="48.70665" lon="-3.76786">
        <ele>38.7</ele>
        <time>2025-06-30T11:06:15Z</time>
      </trkpt>
      <trkpt lat="48.70663" lon="-3.76772">
        <ele>38.4</ele>
        <time>2025-06-30T11:06:16Z</time>
      </trkpt>
      <trkpt lat="48.70662" lon="-3.76757">
        <ele>38.1</ele>
        <time>2025-06-30T11:06:17Z</time>
      </trkpt>
      <trkpt lat="48.70661" lon="-3.76743">
        <ele>37.8</ele>
        <time>2025-06-30T11:06:18Z</time>
      </trkpt>
      <trkpt lat="48.70661" lon="-3.76728">
        <ele>37.6</ele>
        <time>2025-06-30T11:06:19Z</time>
      </trkpt>
      <trkpt lat="48.70662" lon="-3.76713">
        <ele>37.5</ele>
        <time>2025-06-30T11:06:20Z</time>
      </trkpt>
      <trkpt lat="48.70665" lon="-3.76699">
        <ele>37.5</ele>
        <time>2025-06-30T11:06:21Z</time>
      </trkpt>
      <trkpt lat="48.70668" lon="-3.76685">
        <ele>37.5</ele>
        <time>2025-06-30T11:06:22Z</time>
      </trkpt>
      <trkpt lat="48.70673" lon="-3.76672">
        <ele>37.7</ele>
        <time>2025-06-30T11:06:23Z</time>
      </trkpt>
      <trkpt lat="48.70678" lon="-3.7666">
        <ele>38</ele>
        <time>2025-06-30T11:06:24Z</time>
      </trkpt>
      <trkpt lat="48.70689" lon="-3.7664">
        <ele>38.8</ele>
        <time>2025-06-30T11:06:26Z</time>
      </trkpt>
      <trkpt lat="48.70702" lon="-3.76625">
        <ele>40</ele>
        <time>2025-06-30T11:06:28Z</time>
      </trkpt>
      <trkpt lat="48.70714" lon="-3.76614">
        <ele>41.3</ele>
        <time>2025-06-30T11:06:30Z</time>
      </trkpt>
      <trkpt lat="48.70726" lon="-3.76605">
        <ele>42.7</ele>
        <time>2025-06-30T11:06:32Z</time>
      </trkpt>
      <trkpt lat="48.70737" lon="-3.76596">
        <ele>44</ele>
        <time>2025-06-30T11:06:34Z</time>
      </trkpt>
      <trkpt lat="48.70746" lon="-3.76588">
        <ele>45.2</ele>
        <time>2025-06-30T11:06:36Z</time>
      </trkpt>
      <trkpt lat="48.70755" lon="-3.76582">
        <ele>46.5</ele>
        <time>2025-06-30T11:06:39Z</time>
      </trkpt>
      <trkpt lat="48.70764" lon="-3.76572">
        <ele>47.8</ele>
        <time>2025-06-30T11:06:42Z</time>
      </trkpt>
      <trkpt lat="48.70772" lon="-3.76563">
        <ele>49</ele>
        <time>2025-06-30T11:06:45Z</time>
      </trkpt>
      <trkpt lat="48.70779" lon="-3.76552">
        <ele>50.2</ele>
        <time>2025-06-30T11:06:48Z</time>
      </trkpt>
      <trkpt lat="48.70784" lon="-3.7654">
        <ele>51.4</ele>
        <time>2025-06-30T11:06:51Z</time>
      </trkpt>
      <trkpt lat="48.7079" lon="-3.76523">
        <ele>52.8</ele>
        <time>2025-06-30T11:06:55Z</time>
      </trkpt>
      <trkpt lat="48.70794" lon="-3.76508">
        <ele>54.2</ele>
        <time>2025-06-30T11:06:59Z</time>
      </trkpt>
      <trkpt lat="48.70796" lon="-3.76491">
        <ele>55.5</ele>
        <time>2025-06-30T11:07:03Z</time>
      </trkpt>
      <trkpt lat="48.70797" lon="-3.76474">
        <ele>56.8</ele>
        <time>2025-06-30T11:07:07Z</time>
      </trkpt>
      <trkpt lat="48.70797" lon="-3.76457">
        <ele>58</ele>
        <time>2025-06-30T11:07:11Z</time>
      </trkpt>
      <trkpt lat="48.70795" lon="-3.7644">
        <ele>59.2</ele>
        <time>2025-06-30T11:07:15Z</time>
      </trkpt>
      <trkpt lat="48.70794" lon="-3.76422">
        <ele>60.4</ele>
        <time>2025-06-30T11:07:19Z</time>
      </trkpt>
      <trkpt lat="48.70792" lon="-3.76406">
        <ele>61.5</ele>
        <time>2025-06-30T11:07:23Z</time>
      </trkpt>
      <trkpt lat="48.70791" lon="-3.7639">
        <ele>62.5</ele>
        <time>2025-06-30T11:07:27Z</time>
      </trkpt>
      <trkpt lat="48.70789" lon="-3.76373">
        <ele>63.6</ele>
        <time>2025-06-30T11:07:31Z</time>
      </trkpt>
      <trkpt lat="48.70787" lon="-3.76356">
        <ele>64.4</ele>
        <time>2025-06-30T11:07:35Z</time>
      </trkpt>
      <trkpt lat="48.70785" lon="-3.76343">
        <ele>64.9</ele>
        <time>2025-06-30T11:07:38Z</time>
      </trkpt>
      <trkpt lat="48.70783" lon="-3.76329">
        <ele>65.3</ele>
        <time>2025-06-30T11:07:41Z</time>
      </trkpt>
      <trkpt lat="48.7078" lon="-3.76314">
        <ele>65.7</ele>
        <time>2025-06-30T11:07:44Z</time>
      </trkpt>
      <trkpt lat="48.70777" lon="-3.76299">
        <ele>66.1</ele>
        <time>2025-06-30T11:07:47Z</time>
      </trkpt>
      <trkpt lat="48.70773" lon="-3.76283">
        <ele>66.5</ele>
        <time>2025-06-30T11:07:50Z</time>
      </trkpt>
      <trkpt lat="48.70768" lon="-3.76267">
        <ele>66.9</ele>
        <time>2025-06-30T11:07:53Z</time>
      </trkpt>
      <trkpt lat="48.70763" lon="-3.76251">
        <ele>67.2</ele>
        <time>2025-06-30T11:07:56Z</time>
      </trkpt>
      <trkpt lat="48.70757" lon="-3.76235">
        <ele>67.6</ele>
        <time>2025-06-30T11:07:59Z</time>
      </trkpt>
      <trkpt lat="48.70748" lon="-3.76221">
        <ele>67.9</ele>
        <time>2025-06-30T11:08:02Z</time>
      </trkpt>
      <trkpt lat="48.70739" lon="-3.76209">
        <ele>68.2</ele>
        <time>2025-06-30T11:08:05Z</time>
      </trkpt>
      <trkpt lat="48.70729" lon="-3.76198">
        <ele>68.5</ele>
        <time>2025-06-30T11:08:08Z</time>
      </trkpt>
      <trkpt lat="48.70719" lon="-3.76187">
        <ele>68.5</ele>
        <time>2025-06-30T11:08:11Z</time>
      </trkpt>
      <trkpt lat="48.70707" lon="-3.76177">
        <ele>68.4</ele>
        <time>2025-06-30T11:08:14Z</time>
      </trkpt>
      <trkpt lat="48.70699" lon="-3.7617">
        <ele>68.3</ele>
        <time>2025-06-30T11:08:16Z</time>
      </trkpt>
      <trkpt lat="48.70689" lon="-3.76162">
        <ele>68</ele>
        <time>2025-06-30T11:08:18Z</time>
      </trkpt>
      <trkpt lat="48.70679" lon="-3.76154">
        <ele>67.7</ele>
        <time>2025-06-30T11:08:20Z</time>
      </trkpt>
      <trkpt lat="48.70668" lon="-3.76147">
        <ele>67.1</ele>
        <time>2025-06-30T11:08:22Z</time>
      </trkpt>
      <trkpt lat="48.70656" lon="-3.76134">
        <ele>66.5</ele>
        <time>2025-06-30T11:08:24Z</time>
      </trkpt>
      <trkpt lat="48.70645" lon="-3.76121">
        <ele>65.8</ele>
        <time>2025-06-30T11:08:26Z</time>
      </trkpt>
      <trkpt lat="48.70632" lon="-3.76107">
        <ele>65</ele>
        <time>2025-06-30T11:08:28Z</time>
      </trkpt>
      <trkpt lat="48.70622" lon="-3.76087">
        <ele>63.8</ele>
        <time>2025-06-30T11:08:30Z</time>
      </trkpt>
      <trkpt lat="48.70616" lon="-3.76061">
        <ele>62.3</ele>
        <time>2025-06-30T11:08:32Z</time>
      </trkpt>
      <trkpt lat="48.70615" lon="-3.76046">
        <ele>61.5</ele>
        <time>2025-06-30T11:08:33Z</time>
      </trkpt>
      <trkpt lat="48.70616" lon="-3.76029">
        <ele>60.9</ele>
        <time>2025-06-30T11:08:34Z</time>
      </trkpt>
      <trkpt lat="48.70617" lon="-3.76012">
        <ele>60.4</ele>
        <time>2025-06-30T11:08:35Z</time>
      </trkpt>
      <trkpt lat="48.70621" lon="-3.75995">
        <ele>60.2</ele>
        <time>2025-06-30T11:08:36Z</time>
      </trkpt>
      <trkpt lat="48.70626" lon="-3.75981">
        <ele>60.2</ele>
        <time>2025-06-30T11:08:37Z</time>
      </trkpt>
      <trkpt lat="48.70632" lon="-3.75967">
        <ele>60.2</ele>
        <time>2025-06-30T11:08:38Z</time>
      </trkpt>
      <trkpt lat="48.7064" lon="-3.75956">
        <ele>60.3</ele>
        <time>2025-06-30T11:08:39Z</time>
      </trkpt>
      <trkpt lat="48.70648" lon="-3.75947">
        <ele>60.4</ele>
        <time>2025-06-30T11:08:40Z</time>
      </trkpt>
      <trkpt lat="48.70658" lon="-3.75941">
        <ele>60.5</ele>
        <time>2025-06-30T11:08:41Z</time>
      </trkpt>
      <trkpt lat="48.70667" lon="-3.75937">
        <ele>60.6</ele>
        <time>2025-06-30T11:08:42Z</time>
      </trkpt>
      <trkpt lat="48.70676" lon="-3.75933">
        <ele>60.6</ele>
        <time>2025-06-30T11:08:43Z</time>
      </trkpt>
      <trkpt lat="48.70685" lon="-3.75929">
        <ele>60.7</ele>
        <time>2025-06-30T11:08:44Z</time>
      </trkpt>
      <trkpt lat="48.70695" lon="-3.75925">
        <ele>60.7</ele>
        <time>2025-06-30T11:08:45Z</time>
      </trkpt>
      <trkpt lat="48.70704" lon="-3.7592">
        <ele>60.9</ele>
        <time>2025-06-30T11:08:46Z</time>
      </trkpt>
      <trkpt lat="48.70713" lon="-3.75917">
        <ele>61.1</ele>
        <time>2025-06-30T11:08:47Z</time>
      </trkpt>
      <trkpt lat="48.70721" lon="-3.75912">
        <ele>61.3</ele>
        <time>2025-06-30T11:08:48Z</time>
      </trkpt>
      <trkpt lat="48.7073" lon="-3.75908">
        <ele>61.5</ele>
        <time>2025-06-30T11:08:49Z</time>
      </trkpt>
      <trkpt lat="48.70745" lon="-3.75897">
        <ele>61.7</ele>
        <time>2025-06-30T11:08:51Z</time>
      </trkpt>
      <trkpt lat="48.70759" lon="-3.75884">
        <ele>61.6</ele>
        <time>2025-06-30T11:08:53Z</time>
      </trkpt>
      <trkpt lat="48.70771" lon="-3.75867">
        <ele>61.1</ele>
        <time>2025-06-30T11:08:55Z</time>
      </trkpt>
      <trkpt lat="48.70782" lon="-3.75848">
        <ele>60.3</ele>
        <time>2025-06-30T11:08:57Z</time>
      </trkpt>
      <trkpt lat="48.70792" lon="-3.75827">
        <ele>59.1</ele>
        <time>2025-06-30T11:08:59Z</time>
      </trkpt>
      <trkpt lat="48.70796" lon="-3.75816">
        <ele>58.4</ele>
        <time>2025-06-30T11:09:00Z</time>
      </trkpt>
      <trkpt lat="48.70801" lon="-3.75803">
        <ele>57.5</ele>
        <time>2025-06-30T11:09:01Z</time>
      </trkpt>
      <trkpt lat="48.70805" lon="-3.75789">
        <ele>56.6</ele>
        <time>2025-06-30T11:09:02Z</time>
      </trkpt>
      <trkpt lat="48.70808" lon="-3.75775">
        <ele>55.6</ele>
        <time>2025-06-30T11:09:03Z</time>
      </trkpt>
      <trkpt lat="48.7081" lon="-3.7576">
        <ele>54.4</ele>
        <time>2025-06-30T11:09:04Z</time>
      </trkpt>
      <trkpt lat="48.70812" lon="-3.75743">
        <ele>53.2</ele>
        <time>2025-06-30T11:09:05Z</time>
      </trkpt>
      <trkpt lat="48.70812" lon="-3.75725">
        <ele>52.1</ele>
        <time>2025-06-30T11:09:06Z</time>
      </trkpt>
      <trkpt lat="48.70812" lon="-3.75706">
        <ele>51.2</ele>
        <time>2025-06-30T11:09:07Z</time>
      </trkpt>
      <trkpt lat="48.70811" lon="-3.75687">
        <ele>50.7</ele>
        <time>2025-06-30T11:09:08Z</time>
      </trkpt>
      <trkpt lat="48.70809" lon="-3.75668">
        <ele>50.5</ele>
        <time>2025-06-30T11:09:09Z</time>
      </trkpt>
      <trkpt lat="48.70807" lon="-3.75649">
        <ele>50.6</ele>
        <time>2025-06-30T11:09:10Z</time>
      </trkpt>
      <trkpt lat="48.70805" lon="-3.75631">
        <ele>51</ele>
        <time>2025-06-30T11:09:11Z</time>
      </trkpt>
      <trkpt lat="48.70803" lon="-3.75614">
        <ele>51.5</ele>
        <time>2025-06-30T11:09:12Z</time>
      </trkpt>
      <trkpt lat="48.70801" lon="-3.75597">
        <ele>52.2</ele>
        <time>2025-06-30T11:09:13Z</time>
      </trkpt>
      <trkpt lat="48.70799" lon="-3.75581">
        <ele>53</ele>
        <time>2025-06-30T11:09:14Z</time>
      </trkpt>
      <trkpt lat="48.70797" lon="-3.75567">
        <ele>53.8</ele>
        <time>2025-06-30T11:09:15Z</time>
      </trkpt>
      <trkpt lat="48.70796" lon="-3.75552">
        <ele>54.6</ele>
        <time>2025-06-30T11:09:16Z</time>
      </trkpt>
      <trkpt lat="48.70794" lon="-3.75527">
        <ele>55.8</ele>
        <time>2025-06-30T11:09:18Z</time>
      </trkpt>
      <trkpt lat="48.70791" lon="-3.75504">
        <ele>56.9</ele>
        <time>2025-06-30T11:09:20Z</time>
      </trkpt>
      <trkpt lat="48.70789" lon="-3.75484">
        <ele>57.7</ele>
        <time>2025-06-30T11:09:22Z</time>
      </trkpt>
      <trkpt lat="48.70787" lon="-3.75466">
        <ele>58.3</ele>
        <time>2025-06-30T11:09:24Z</time>
      </trkpt>
      <trkpt lat="48.70785" lon="-3.75447">
        <ele>58.7</ele>
        <time>2025-06-30T11:09:26Z</time>
      </trkpt>
      <trkpt lat="48.70783" lon="-3.75429">
        <ele>58.8</ele>
        <time>2025-06-30T11:09:28Z</time>
      </trkpt>
      <trkpt lat="48.70782" lon="-3.75411">
        <ele>58.8</ele>
        <time>2025-06-30T11:09:30Z</time>
      </trkpt>
      <trkpt lat="48.70779" lon="-3.75393">
        <ele>58.6</ele>
        <time>2025-06-30T11:09:32Z</time>
      </trkpt>
      <trkpt lat="48.70777" lon="-3.75374">
        <ele>58.3</ele>
        <time>2025-06-30T11:09:34Z</time>
      </trkpt>
      <trkpt lat="48.70774" lon="-3.75354">
        <ele>58</ele>
        <time>2025-06-30T11:09:36Z</time>
      </trkpt>
      <trkpt lat="48.70769" lon="-3.75333">
        <ele>57.6</ele>
        <time>2025-06-30T11:09:38Z</time>
      </trkpt>
      <trkpt lat="48.70763" lon="-3.75313">
        <ele>57.1</ele>
        <time>2025-06-30T11:09:40Z</time>
      </trkpt>
      <trkpt lat="48.70755" lon="-3.75294">
        <ele>56.5</ele>
        <time>2025-06-30T11:09:42Z</time>
      </trkpt>
      <trkpt lat="48.70744" lon="-3.75275">
        <ele>55.9</ele>
        <time>2025-06-30T11:09:44Z</time>
      </trkpt>
      <trkpt lat="48.70732" lon="-3.75258">
        <ele>55.6</ele>
        <time>2025-06-30T11:09:46Z</time>
      </trkpt>
      <trkpt lat="48.70718" lon="-3.75243">
        <ele>55.5</ele>
        <time>2025-06-30T11:09:48Z</time>
      </trkpt>
      <trkpt lat="48.70704" lon="-3.75231">
        <ele>55.5</ele>
        <time>2025-06-30T11:09:50Z</time>
      </trkpt>
      <trkpt lat="48.70691" lon="-3.75219">
        <ele>55.6</ele>
        <time>2025-06-30T11:09:52Z</time>
      </trkpt>
      <trkpt lat="48.70678" lon="-3.75207">
        <ele>55.7</ele>
        <time>2025-06-30T11:09:54Z</time>
      </trkpt>
      <trkpt lat="48.70665" lon="-3.75196">
        <ele>55.7</ele>
        <time>2025-06-30T11:09:56Z</time>
      </trkpt>
      <trkpt lat="48.70653" lon="-3.75183">
        <ele>55.6</ele>
        <time>2025-06-30T11:09:58Z</time>
      </trkpt>
      <trkpt lat="48.70643" lon="-3.75166">
        <ele>55.2</ele>
        <time>2025-06-30T11:10:00Z</time>
      </trkpt>
      <trkpt lat="48.70633" lon="-3.75148">
        <ele>54.8</ele>
        <time>2025-06-30T11:10:02Z</time>
      </trkpt>
      <trkpt lat="48.70625" lon="-3.75125">
        <ele>54.8</ele>
        <time>2025-06-30T11:10:04Z</time>
      </trkpt>
      <trkpt lat="48.70615" lon="-3.75112">
        <ele>55.5</ele>
        <time>2025-06-30T11:10:06Z</time>
      </trkpt>
      <trkpt lat="48.70602" lon="-3.75117">
        <ele>56.1</ele>
        <time>2025-06-30T11:10:08Z</time>
      </trkpt>
      <trkpt lat="48.70592" lon="-3.75126">
        <ele>57.2</ele>
        <time>2025-06-30T11:10:10Z</time>
      </trkpt>
      <trkpt lat="48.70583" lon="-3.75135">
        <ele>58.3</ele>
        <time>2025-06-30T11:10:12Z</time>
      </trkpt>
      <trkpt lat="48.70575" lon="-3.75142">
        <ele>59.4</ele>
        <time>2025-06-30T11:10:14Z</time>
      </trkpt>
      <trkpt lat="48.70565" lon="-3.75151">
        <ele>61</ele>
        <time>2025-06-30T11:10:17Z</time>
      </trkpt>
      <trkpt lat="48.70554" lon="-3.75156">
        <ele>62.5</ele>
        <time>2025-06-30T11:10:20Z</time>
      </trkpt>
      <trkpt lat="48.70545" lon="-3.75156">
        <ele>63.8</ele>
        <time>2025-06-30T11:10:25Z</time>
      </trkpt>
      <trkpt lat="48.70536" lon="-3.7515">
        <ele>65.1</ele>
        <time>2025-06-30T11:10:29Z</time>
      </trkpt>
      <trkpt lat="48.70526" lon="-3.75145">
        <ele>66.5</ele>
        <time>2025-06-30T11:10:33Z</time>
      </trkpt>
      <trkpt lat="48.70517" lon="-3.75136">
        <ele>67.8</ele>
        <time>2025-06-30T11:10:37Z</time>
      </trkpt>
      <trkpt lat="48.70509" lon="-3.75126">
        <ele>69.1</ele>
        <time>2025-06-30T11:10:41Z</time>
      </trkpt>
      <trkpt lat="48.70499" lon="-3.75118">
        <ele>70.4</ele>
        <time>2025-06-30T11:10:45Z</time>
      </trkpt>
      <trkpt lat="48.70489" lon="-3.75113">
        <ele>71.7</ele>
        <time>2025-06-30T11:10:49Z</time>
      </trkpt>
      <trkpt lat="48.70479" lon="-3.7511">
        <ele>73</ele>
        <time>2025-06-30T11:10:53Z</time>
      </trkpt>
      <trkpt lat="48.70469" lon="-3.75109">
        <ele>74.1</ele>
        <time>2025-06-30T11:10:57Z</time>
      </trkpt>
      <trkpt lat="48.7046" lon="-3.75106">
        <ele>75.2</ele>
        <time>2025-06-30T11:11:01Z</time>
      </trkpt>
      <trkpt lat="48.7045" lon="-3.75103">
        <ele>76.3</ele>
        <time>2025-06-30T11:11:05Z</time>
      </trkpt>
      <trkpt lat="48.7044" lon="-3.751">
        <ele>77.4</ele>
        <time>2025-06-30T11:11:09Z</time>
      </trkpt>
      <trkpt lat="48.70429" lon="-3.75099">
        <ele>78.5</ele>
        <time>2025-06-30T11:11:14Z</time>
      </trkpt>
      <trkpt lat="48.70419" lon="-3.75094">
        <ele>79.5</ele>
        <time>2025-06-30T11:11:18Z</time>
      </trkpt>
      <trkpt lat="48.70412" lon="-3.7508">
        <ele>80.2</ele>
        <time>2025-06-30T11:11:22Z</time>
      </trkpt>
      <trkpt lat="48.70407" lon="-3.75064">
        <ele>80.9</ele>
        <time>2025-06-30T11:11:26Z</time>
      </trkpt>
      <trkpt lat="48.70404" lon="-3.75051">
        <ele>81.5</ele>
        <time>2025-06-30T11:11:29Z</time>
      </trkpt>
      <trkpt lat="48.70401" lon="-3.75038">
        <ele>82</ele>
        <time>2025-06-30T11:11:32Z</time>
      </trkpt>
      <trkpt lat="48.70398" lon="-3.75024">
        <ele>82.6</ele>
        <time>2025-06-30T11:11:35Z</time>
      </trkpt>
      <trkpt lat="48.70394" lon="-3.75011">
        <ele>83</ele>
        <time>2025-06-30T11:11:38Z</time>
      </trkpt>
      <trkpt lat="48.70391" lon="-3.74997">
        <ele>83.3</ele>
        <time>2025-06-30T11:11:41Z</time>
      </trkpt>
      <trkpt lat="48.70387" lon="-3.74981">
        <ele>83.5</ele>
        <time>2025-06-30T11:11:44Z</time>
      </trkpt>
      <trkpt lat="48.70382" lon="-3.74964">
        <ele>83.6</ele>
        <time>2025-06-30T11:11:47Z</time>
      </trkpt>
      <trkpt lat="48.70377" lon="-3.74946">
        <ele>83.7</ele>
        <time>2025-06-30T11:11:50Z</time>
      </trkpt>
      <trkpt lat="48.70373" lon="-3.74927">
        <ele>83.7</ele>
        <time>2025-06-30T11:11:53Z</time>
      </trkpt>
      <trkpt lat="48.70369" lon="-3.74914">
        <ele>83.7</ele>
        <time>2025-06-30T11:11:55Z</time>
      </trkpt>
      <trkpt lat="48.70366" lon="-3.749">
        <ele>83.6</ele>
        <time>2025-06-30T11:11:57Z</time>
      </trkpt>
      <trkpt lat="48.70363" lon="-3.74885">
        <ele>83.5</ele>
        <time>2025-06-30T11:11:59Z</time>
      </trkpt>
      <trkpt lat="48.7036" lon="-3.7487">
        <ele>83.5</ele>
        <time>2025-06-30T11:12:01Z</time>
      </trkpt>
      <trkpt lat="48.70357" lon="-3.74854">
        <ele>83.7</ele>
        <time>2025-06-30T11:12:03Z</time>
      </trkpt>
      <trkpt lat="48.70354" lon="-3.74838">
        <ele>83.9</ele>
        <time>2025-06-30T11:12:05Z</time>
      </trkpt>
      <trkpt lat="48.70351" lon="-3.74824">
        <ele>84.2</ele>
        <time>2025-06-30T11:12:07Z</time>
      </trkpt>
      <trkpt lat="48.70349" lon="-3.74805">
        <ele>84.4</ele>
        <time>2025-06-30T11:12:10Z</time>
      </trkpt>
      <trkpt lat="48.70347" lon="-3.74789">
        <ele>84.5</ele>
        <time>2025-06-30T11:12:13Z</time>
      </trkpt>
      <trkpt lat="48.70345" lon="-3.74772">
        <ele>84.4</ele>
        <time>2025-06-30T11:12:16Z</time>
      </trkpt>
      <trkpt lat="48.70344" lon="-3.74752">
        <ele>84.2</ele>
        <time>2025-06-30T11:12:19Z</time>
      </trkpt>
      <trkpt lat="48.70345" lon="-3.74732">
        <ele>84.1</ele>
        <time>2025-06-30T11:12:22Z</time>
      </trkpt>
      <trkpt lat="48.70345" lon="-3.74714">
        <ele>84.1</ele>
        <time>2025-06-30T11:12:25Z</time>
      </trkpt>
      <trkpt lat="48.70345" lon="-3.74697">
        <ele>84.2</ele>
        <time>2025-06-30T11:12:28Z</time>
      </trkpt>
      <trkpt lat="48.70347" lon="-3.74683">
        <ele>84.2</ele>
        <time>2025-06-30T11:12:31Z</time>
      </trkpt>
      <trkpt lat="48.70352" lon="-3.74663">
        <ele>84</ele>
        <time>2025-06-30T11:12:34Z</time>
      </trkpt>
      <trkpt lat="48.70356" lon="-3.74648">
        <ele>83.8</ele>
        <time>2025-06-30T11:12:36Z</time>
      </trkpt>
      <trkpt lat="48.70359" lon="-3.74631">
        <ele>83.6</ele>
        <time>2025-06-30T11:12:38Z</time>
      </trkpt>
      <trkpt lat="48.70361" lon="-3.74615">
        <ele>83.3</ele>
        <time>2025-06-30T11:12:40Z</time>
      </trkpt>
      <trkpt lat="48.70365" lon="-3.74592">
        <ele>82.9</ele>
        <time>2025-06-30T11:12:43Z</time>
      </trkpt>
      <trkpt lat="48.70356" lon="-3.74572">
        <ele>82.6</ele>
        <time>2025-06-30T11:12:45Z</time>
      </trkpt>
      <trkpt lat="48.70349" lon="-3.74563">
        <ele>82.6</ele>
        <time>2025-06-30T11:12:46Z</time>
      </trkpt>
      <trkpt lat="48.70342" lon="-3.74552">
        <ele>82.6</ele>
        <time>2025-06-30T11:12:47Z</time>
      </trkpt>
      <trkpt lat="48.70329" lon="-3.74535">
        <ele>82.6</ele>
        <time>2025-06-30T11:12:49Z</time>
      </trkpt>
      <trkpt lat="48.70323" lon="-3.74516">
        <ele>82.6</ele>
        <time>2025-06-30T11:12:51Z</time>
      </trkpt>
      <trkpt lat="48.70323" lon="-3.74495">
        <ele>82.7</ele>
        <time>2025-06-30T11:12:53Z</time>
      </trkpt>
      <trkpt lat="48.70325" lon="-3.74474">
        <ele>82.7</ele>
        <time>2025-06-30T11:12:55Z</time>
      </trkpt>
      <trkpt lat="48.70327" lon="-3.74453">
        <ele>82.8</ele>
        <time>2025-06-30T11:12:57Z</time>
      </trkpt>
      <trkpt lat="48.70328" lon="-3.74431">
        <ele>82.8</ele>
        <time>2025-06-30T11:12:59Z</time>
      </trkpt>
      <trkpt lat="48.70331" lon="-3.7441">
        <ele>82.6</ele>
        <time>2025-06-30T11:13:01Z</time>
      </trkpt>
      <trkpt lat="48.70333" lon="-3.74388">
        <ele>82.4</ele>
        <time>2025-06-30T11:13:03Z</time>
      </trkpt>
      <trkpt lat="48.70335" lon="-3.74366">
        <ele>82</ele>
        <time>2025-06-30T11:13:05Z</time>
      </trkpt>
      <trkpt lat="48.70338" lon="-3.74343">
        <ele>81.5</ele>
        <time>2025-06-30T11:13:07Z</time>
      </trkpt>
      <trkpt lat="48.70342" lon="-3.74319">
        <ele>80.8</ele>
        <time>2025-06-30T11:13:09Z</time>
      </trkpt>
      <trkpt lat="48.70347" lon="-3.74293">
        <ele>79.7</ele>
        <time>2025-06-30T11:13:11Z</time>
      </trkpt>
      <trkpt lat="48.70349" lon="-3.74279">
        <ele>79.2</ele>
        <time>2025-06-30T11:13:12Z</time>
      </trkpt>
      <trkpt lat="48.70351" lon="-3.74264">
        <ele>78.5</ele>
        <time>2025-06-30T11:13:13Z</time>
      </trkpt>
      <trkpt lat="48.70353" lon="-3.7425">
        <ele>77.9</ele>
        <time>2025-06-30T11:13:14Z</time>
      </trkpt>
      <trkpt lat="48.70356" lon="-3.74234">
        <ele>77.2</ele>
        <time>2025-06-30T11:13:15Z</time>
      </trkpt>
      <trkpt lat="48.70358" lon="-3.74218">
        <ele>76.7</ele>
        <time>2025-06-30T11:13:16Z</time>
      </trkpt>
      <trkpt lat="48.7036" lon="-3.74202">
        <ele>76.4</ele>
        <time>2025-06-30T11:13:17Z</time>
      </trkpt>
      <trkpt lat="48.70362" lon="-3.74185">
        <ele>76.2</ele>
        <time>2025-06-30T11:13:18Z</time>
      </trkpt>
      <trkpt lat="48.70364" lon="-3.74168">
        <ele>76</ele>
        <time>2025-06-30T11:13:19Z</time>
      </trkpt>
      <trkpt lat="48.70366" lon="-3.74152">
        <ele>76</ele>
        <time>2025-06-30T11:13:20Z</time>
      </trkpt>
      <trkpt lat="48.70368" lon="-3.74135">
        <ele>76.1</ele>
        <time>2025-06-30T11:13:21Z</time>
      </trkpt>
      <trkpt lat="48.70369" lon="-3.74119">
        <ele>76.4</ele>
        <time>2025-06-30T11:13:22Z</time>
      </trkpt>
      <trkpt lat="48.7037" lon="-3.74104">
        <ele>76.8</ele>
        <time>2025-06-30T11:13:23Z</time>
      </trkpt>
      <trkpt lat="48.70372" lon="-3.74089">
        <ele>77.2</ele>
        <time>2025-06-30T11:13:24Z</time>
      </trkpt>
      <trkpt lat="48.70374" lon="-3.74075">
        <ele>77.6</ele>
        <time>2025-06-30T11:13:25Z</time>
      </trkpt>
      <trkpt lat="48.70375" lon="-3.74062">
        <ele>78</ele>
        <time>2025-06-30T11:13:26Z</time>
      </trkpt>
      <trkpt lat="48.70377" lon="-3.74036">
        <ele>78.8</ele>
        <time>2025-06-30T11:13:28Z</time>
      </trkpt>
      <trkpt lat="48.70368" lon="-3.74014">
        <ele>79.4</ele>
        <time>2025-06-30T11:13:30Z</time>
      </trkpt>
      <trkpt lat="48.70353" lon="-3.74004">
        <ele>79.8</ele>
        <time>2025-06-30T11:13:32Z</time>
      </trkpt>
      <trkpt lat="48.70339" lon="-3.74001">
        <ele>80.2</ele>
        <time>2025-06-30T11:13:34Z</time>
      </trkpt>
      <trkpt lat="48.70324" lon="-3.74">
        <ele>80.6</ele>
        <time>2025-06-30T11:13:36Z</time>
      </trkpt>
      <trkpt lat="48.70309" lon="-3.74">
        <ele>80.9</ele>
        <time>2025-06-30T11:13:38Z</time>
      </trkpt>
      <trkpt lat="48.70294" lon="-3.74001">
        <ele>81.1</ele>
        <time>2025-06-30T11:13:40Z</time>
      </trkpt>
      <trkpt lat="48.70279" lon="-3.74005">
        <ele>81.4</ele>
        <time>2025-06-30T11:13:42Z</time>
      </trkpt>
      <trkpt lat="48.70265" lon="-3.74009">
        <ele>81.7</ele>
        <time>2025-06-30T11:13:44Z</time>
      </trkpt>
      <trkpt lat="48.70251" lon="-3.74013">
        <ele>81.9</ele>
        <time>2025-06-30T11:13:46Z</time>
      </trkpt>
      <trkpt lat="48.70236" lon="-3.74016">
        <ele>82.3</ele>
        <time>2025-06-30T11:13:48Z</time>
      </trkpt>
      <trkpt lat="48.70222" lon="-3.74016">
        <ele>82.6</ele>
        <time>2025-06-30T11:13:50Z</time>
      </trkpt>
      <trkpt lat="48.70208" lon="-3.74014">
        <ele>82.9</ele>
        <time>2025-06-30T11:13:52Z</time>
      </trkpt>
      <trkpt lat="48.70194" lon="-3.74012">
        <ele>83.2</ele>
        <time>2025-06-30T11:13:54Z</time>
      </trkpt>
      <trkpt lat="48.7018" lon="-3.7401">
        <ele>83.5</ele>
        <time>2025-06-30T11:13:56Z</time>
      </trkpt>
      <trkpt lat="48.70166" lon="-3.74008">
        <ele>83.7</ele>
        <time>2025-06-30T11:13:58Z</time>
      </trkpt>
      <trkpt lat="48.70153" lon="-3.74004">
        <ele>83.8</ele>
        <time>2025-06-30T11:14:00Z</time>
      </trkpt>
      <trkpt lat="48.70139" lon="-3.74003">
        <ele>83.9</ele>
        <time>2025-06-30T11:14:02Z</time>
      </trkpt>
      <trkpt lat="48.70125" lon="-3.74004">
        <ele>84</ele>
        <time>2025-06-30T11:14:04Z</time>
      </trkpt>
      <trkpt lat="48.70112" lon="-3.74001">
        <ele>84</ele>
        <time>2025-06-30T11:14:06Z</time>
      </trkpt>
      <trkpt lat="48.70098" lon="-3.73998">
        <ele>84</ele>
        <time>2025-06-30T11:14:08Z</time>
      </trkpt>
      <trkpt lat="48.70085" lon="-3.73994">
        <ele>83.9</ele>
        <time>2025-06-30T11:14:10Z</time>
      </trkpt>
      <trkpt lat="48.70073" lon="-3.73983">
        <ele>83.9</ele>
        <time>2025-06-30T11:14:12Z</time>
      </trkpt>
      <trkpt lat="48.70064" lon="-3.73966">
        <ele>83.8</ele>
        <time>2025-06-30T11:14:14Z</time>
      </trkpt>
      <trkpt lat="48.70059" lon="-3.73946">
        <ele>83.6</ele>
        <time>2025-06-30T11:14:16Z</time>
      </trkpt>
      <trkpt lat="48.70059" lon="-3.73924">
        <ele>83.6</ele>
        <time>2025-06-30T11:14:18Z</time>
      </trkpt>
      <trkpt lat="48.70058" lon="-3.73902">
        <ele>83.4</ele>
        <time>2025-06-30T11:14:20Z</time>
      </trkpt>
      <trkpt lat="48.70056" lon="-3.7388">
        <ele>83.1</ele>
        <time>2025-06-30T11:14:22Z</time>
      </trkpt>
      <trkpt lat="48.70054" lon="-3.73857">
        <ele>82.8</ele>
        <time>2025-06-30T11:14:24Z</time>
      </trkpt>
      <trkpt lat="48.70051" lon="-3.73834">
        <ele>82.6</ele>
        <time>2025-06-30T11:14:26Z</time>
      </trkpt>
      <trkpt lat="48.7005" lon="-3.7381">
        <ele>82.4</ele>
        <time>2025-06-30T11:14:28Z</time>
      </trkpt>
      <trkpt lat="48.70048" lon="-3.73786">
        <ele>82.4</ele>
        <time>2025-06-30T11:14:30Z</time>
      </trkpt>
      <trkpt lat="48.70049" lon="-3.73763">
        <ele>82.6</ele>
        <time>2025-06-30T11:14:32Z</time>
      </trkpt>
      <trkpt lat="48.70052" lon="-3.7374">
        <ele>82.8</ele>
        <time>2025-06-30T11:14:34Z</time>
      </trkpt>
      <trkpt lat="48.70055" lon="-3.73718">
        <ele>83.1</ele>
        <time>2025-06-30T11:14:36Z</time>
      </trkpt>
      <trkpt lat="48.7006" lon="-3.73697">
        <ele>83.4</ele>
        <time>2025-06-30T11:14:38Z</time>
      </trkpt>
      <trkpt lat="48.70065" lon="-3.73677">
        <ele>83.6</ele>
        <time>2025-06-30T11:14:40Z</time>
      </trkpt>
      <trkpt lat="48.70071" lon="-3.73657">
        <ele>83.8</ele>
        <time>2025-06-30T11:14:42Z</time>
      </trkpt>
      <trkpt lat="48.70077" lon="-3.73637">
        <ele>84</ele>
        <time>2025-06-30T11:14:44Z</time>
      </trkpt>
      <trkpt lat="48.70083" lon="-3.73618">
        <ele>84.2</ele>
        <time>2025-06-30T11:14:46Z</time>
      </trkpt>
      <trkpt lat="48.70087" lon="-3.73599">
        <ele>84.5</ele>
        <time>2025-06-30T11:14:48Z</time>
      </trkpt>
      <trkpt lat="48.70091" lon="-3.73579">
        <ele>84.7</ele>
        <time>2025-06-30T11:14:50Z</time>
      </trkpt>
      <trkpt lat="48.70092" lon="-3.7356">
        <ele>84.8</ele>
        <time>2025-06-30T11:14:52Z</time>
      </trkpt>
      <trkpt lat="48.7009" lon="-3.73542">
        <ele>84.9</ele>
        <time>2025-06-30T11:14:54Z</time>
      </trkpt>
      <trkpt lat="48.70089" lon="-3.73524">
        <ele>84.9</ele>
        <time>2025-06-30T11:14:56Z</time>
      </trkpt>
      <trkpt lat="48.7009" lon="-3.73505">
        <ele>84.9</ele>
        <time>2025-06-30T11:14:58Z</time>
      </trkpt>
      <trkpt lat="48.70092" lon="-3.73485">
        <ele>84.9</ele>
        <time>2025-06-30T11:15:00Z</time>
      </trkpt>
      <trkpt lat="48.70092" lon="-3.73464">
        <ele>84.8</ele>
        <time>2025-06-30T11:15:02Z</time>
      </trkpt>
      <trkpt lat="48.70091" lon="-3.73442">
        <ele>84.8</ele>
        <time>2025-06-30T11:15:04Z</time>
      </trkpt>
      <trkpt lat="48.7009" lon="-3.73421">
        <ele>84.8</ele>
        <time>2025-06-30T11:15:06Z</time>
      </trkpt>
      <trkpt lat="48.70089" lon="-3.734">
        <ele>84.7</ele>
        <time>2025-06-30T11:15:08Z</time>
      </trkpt>
      <trkpt lat="48.70088" lon="-3.73378">
        <ele>84.7</ele>
        <time>2025-06-30T11:15:10Z</time>
      </trkpt>
      <trkpt lat="48.70087" lon="-3.73357">
        <ele>84.7</ele>
        <time>2025-06-30T11:15:12Z</time>
      </trkpt>
      <trkpt lat="48.70082" lon="-3.73337">
        <ele>84.7</ele>
        <time>2025-06-30T11:15:14Z</time>
      </trkpt>
      <trkpt lat="48.70073" lon="-3.73319">
        <ele>84.7</ele>
        <time>2025-06-30T11:15:16Z</time>
      </trkpt>
      <trkpt lat="48.70062" lon="-3.73308">
        <ele>84.7</ele>
        <time>2025-06-30T11:15:18Z</time>
      </trkpt>
      <trkpt lat="48.70046" lon="-3.73305">
        <ele>84.8</ele>
        <time>2025-06-30T11:15:20Z</time>
      </trkpt>
      <trkpt lat="48.70034" lon="-3.73295">
        <ele>84.8</ele>
        <time>2025-06-30T11:15:22Z</time>
      </trkpt>
      <trkpt lat="48.70028" lon="-3.73274">
        <ele>84.8</ele>
        <time>2025-06-30T11:15:24Z</time>
      </trkpt>
      <trkpt lat="48.70025" lon="-3.73254">
        <ele>84.7</ele>
        <time>2025-06-30T11:15:26Z</time>
      </trkpt>
      <trkpt lat="48.70025" lon="-3.73232">
        <ele>84.7</ele>
        <time>2025-06-30T11:15:28Z</time>
      </trkpt>
      <trkpt lat="48.70021" lon="-3.73211">
        <ele>84.7</ele>
        <time>2025-06-30T11:15:30Z</time>
      </trkpt>
      <trkpt lat="48.7002" lon="-3.7319">
        <ele>84.6</ele>
        <time>2025-06-30T11:15:32Z</time>
      </trkpt>
      <trkpt lat="48.70019" lon="-3.73168">
        <ele>84.6</ele>
        <time>2025-06-30T11:15:34Z</time>
      </trkpt>
      <trkpt lat="48.70018" lon="-3.73147">
        <ele>84.7</ele>
        <time>2025-06-30T11:15:36Z</time>
      </trkpt>
      <trkpt lat="48.70016" lon="-3.73125">
        <ele>84.6</ele>
        <time>2025-06-30T11:15:38Z</time>
      </trkpt>
      <trkpt lat="48.70015" lon="-3.73104">
        <ele>84.6</ele>
        <time>2025-06-30T11:15:40Z</time>
      </trkpt>
      <trkpt lat="48.70013" lon="-3.73083">
        <ele>84.5</ele>
        <time>2025-06-30T11:15:42Z</time>
      </trkpt>
      <trkpt lat="48.70013" lon="-3.73061">
        <ele>84.3</ele>
        <time>2025-06-30T11:15:44Z</time>
      </trkpt>
      <trkpt lat="48.70016" lon="-3.73038">
        <ele>84.1</ele>
        <time>2025-06-30T11:15:46Z</time>
      </trkpt>
      <trkpt lat="48.70022" lon="-3.73018">
        <ele>83.9</ele>
        <time>2025-06-30T11:15:48Z</time>
      </trkpt>
      <trkpt lat="48.70031" lon="-3.72999">
        <ele>83.9</ele>
        <time>2025-06-30T11:15:50Z</time>
      </trkpt>
      <trkpt lat="48.70039" lon="-3.72981">
        <ele>83.8</ele>
        <time>2025-06-30T11:15:52Z</time>
      </trkpt>
      <trkpt lat="48.70045" lon="-3.7296">
        <ele>83.8</ele>
        <time>2025-06-30T11:15:54Z</time>
      </trkpt>
      <trkpt lat="48.7005" lon="-3.72938">
        <ele>83.7</ele>
        <time>2025-06-30T11:15:56Z</time>
      </trkpt>
      <trkpt lat="48.70053" lon="-3.72916">
        <ele>83.6</ele>
        <time>2025-06-30T11:15:58Z</time>
      </trkpt>
      <trkpt lat="48.7005" lon="-3.72893">
        <ele>83.5</ele>
        <time>2025-06-30T11:16:00Z</time>
      </trkpt>
      <trkpt lat="48.70043" lon="-3.72872">
        <ele>83.4</ele>
        <time>2025-06-30T11:16:02Z</time>
      </trkpt>
      <trkpt lat="48.70034" lon="-3.72854">
        <ele>83.2</ele>
        <time>2025-06-30T11:16:04Z</time>
      </trkpt>
      <trkpt lat="48.70025" lon="-3.72836">
        <ele>83</ele>
        <time>2025-06-30T11:16:06Z</time>
      </trkpt>
      <trkpt lat="48.70015" lon="-3.72817">
        <ele>82.7</ele>
        <time>2025-06-30T11:16:08Z</time>
      </trkpt>
      <trkpt lat="48.70006" lon="-3.72796">
        <ele>82.3</ele>
        <time>2025-06-30T11:16:10Z</time>
      </trkpt>
      <trkpt lat="48.69996" lon="-3.72776">
        <ele>81.6</ele>
        <time>2025-06-30T11:16:12Z</time>
      </trkpt>
      <trkpt lat="48.69987" lon="-3.72754">
        <ele>80.6</ele>
        <time>2025-06-30T11:16:14Z</time>
      </trkpt>
      <trkpt lat="48.69976" lon="-3.72731">
        <ele>78.9</ele>
        <time>2025-06-30T11:16:16Z</time>
      </trkpt>
      <trkpt lat="48.6997" lon="-3.7272">
        <ele>78</ele>
        <time>2025-06-30T11:16:17Z</time>
      </trkpt>
      <trkpt lat="48.69963" lon="-3.72709">
        <ele>77</ele>
        <time>2025-06-30T11:16:18Z</time>
      </trkpt>
      <trkpt lat="48.69957" lon="-3.72698">
        <ele>76</ele>
        <time>2025-06-30T11:16:19Z</time>
      </trkpt>
      <trkpt lat="48.6995" lon="-3.72688">
        <ele>75</ele>
        <time>2025-06-30T11:16:20Z</time>
      </trkpt>
      <trkpt lat="48.69942" lon="-3.72678">
        <ele>74</ele>
        <time>2025-06-30T11:16:21Z</time>
      </trkpt>
      <trkpt lat="48.69933" lon="-3.7267">
        <ele>72.9</ele>
        <time>2025-06-30T11:16:22Z</time>
      </trkpt>
      <trkpt lat="48.69925" lon="-3.72662">
        <ele>72</ele>
        <time>2025-06-30T11:16:23Z</time>
      </trkpt>
      <trkpt lat="48.69911" lon="-3.72649">
        <ele>70.6</ele>
        <time>2025-06-30T11:16:25Z</time>
      </trkpt>
      <trkpt lat="48.699" lon="-3.72639">
        <ele>69.4</ele>
        <time>2025-06-30T11:16:27Z</time>
      </trkpt>
      <trkpt lat="48.69889" lon="-3.7263">
        <ele>68.5</ele>
        <time>2025-06-30T11:16:29Z</time>
      </trkpt>
      <trkpt lat="48.69878" lon="-3.72621">
        <ele>67.5</ele>
        <time>2025-06-30T11:16:31Z</time>
      </trkpt>
      <trkpt lat="48.69869" lon="-3.72613">
        <ele>66.9</ele>
        <time>2025-06-30T11:16:33Z</time>
      </trkpt>
      <trkpt lat="48.69856" lon="-3.72611">
        <ele>66.3</ele>
        <time>2025-06-30T11:16:36Z</time>
      </trkpt>
      <trkpt lat="48.69847" lon="-3.72605">
        <ele>66</ele>
        <time>2025-06-30T11:16:38Z</time>
      </trkpt>
      <trkpt lat="48.69837" lon="-3.72601">
        <ele>65.7</ele>
        <time>2025-06-30T11:16:40Z</time>
      </trkpt>
      <trkpt lat="48.69826" lon="-3.72598">
        <ele>65.5</ele>
        <time>2025-06-30T11:16:42Z</time>
      </trkpt>
      <trkpt lat="48.69813" lon="-3.72594">
        <ele>65.5</ele>
        <time>2025-06-30T11:16:44Z</time>
      </trkpt>
      <trkpt lat="48.698" lon="-3.72589">
        <ele>65.7</ele>
        <time>2025-06-30T11:16:46Z</time>
      </trkpt>
      <trkpt lat="48.69784" lon="-3.72583">
        <ele>66.1</ele>
        <time>2025-06-30T11:16:48Z</time>
      </trkpt>
      <trkpt lat="48.69768" lon="-3.72575">
        <ele>66.7</ele>
        <time>2025-06-30T11:16:50Z</time>
      </trkpt>
      <trkpt lat="48.69754" lon="-3.72565">
        <ele>67.5</ele>
        <time>2025-06-30T11:16:52Z</time>
      </trkpt>
      <trkpt lat="48.69741" lon="-3.72551">
        <ele>68.5</ele>
        <time>2025-06-30T11:16:54Z</time>
      </trkpt>
      <trkpt lat="48.69731" lon="-3.72537">
        <ele>69.5</ele>
        <time>2025-06-30T11:16:56Z</time>
      </trkpt>
      <trkpt lat="48.69721" lon="-3.72524">
        <ele>70.4</ele>
        <time>2025-06-30T11:16:58Z</time>
      </trkpt>
      <trkpt lat="48.69713" lon="-3.72512">
        <ele>71.2</ele>
        <time>2025-06-30T11:17:00Z</time>
      </trkpt>
      <trkpt lat="48.69704" lon="-3.72501">
        <ele>72</ele>
        <time>2025-06-30T11:17:02Z</time>
      </trkpt>
      <trkpt lat="48.69696" lon="-3.7249">
        <ele>72.7</ele>
        <time>2025-06-30T11:17:04Z</time>
      </trkpt>
      <trkpt lat="48.69688" lon="-3.72481">
        <ele>73.3</ele>
        <time>2025-06-30T11:17:06Z</time>
      </trkpt>
      <trkpt lat="48.6968" lon="-3.72472">
        <ele>73.8</ele>
        <time>2025-06-30T11:17:08Z</time>
      </trkpt>
      <trkpt lat="48.69671" lon="-3.72465">
        <ele>74.4</ele>
        <time>2025-06-30T11:17:10Z</time>
      </trkpt>
      <trkpt lat="48.69662" lon="-3.72457">
        <ele>75</ele>
        <time>2025-06-30T11:17:12Z</time>
      </trkpt>
      <trkpt lat="48.69653" lon="-3.72451">
        <ele>75.5</ele>
        <time>2025-06-30T11:17:14Z</time>
      </trkpt>
      <trkpt lat="48.69645" lon="-3.72445">
        <ele>76</ele>
        <time>2025-06-30T11:17:16Z</time>
      </trkpt>
      <trkpt lat="48.69636" lon="-3.7244">
        <ele>76.1</ele>
        <time>2025-06-30T11:17:18Z</time>
      </trkpt>
      <trkpt lat="48.69627" lon="-3.72435">
        <ele>76.6</ele>
        <time>2025-06-30T11:17:20Z</time>
      </trkpt>
      <trkpt lat="48.69619" lon="-3.7243">
        <ele>77.2</ele>
        <time>2025-06-30T11:17:22Z</time>
      </trkpt>
      <trkpt lat="48.6961" lon="-3.72426">
        <ele>77.7</ele>
        <time>2025-06-30T11:17:24Z</time>
      </trkpt>
      <trkpt lat="48.69601" lon="-3.72423">
        <ele>78.2</ele>
        <time>2025-06-30T11:17:26Z</time>
      </trkpt>
      <trkpt lat="48.69592" lon="-3.72419">
        <ele>78.6</ele>
        <time>2025-06-30T11:17:28Z</time>
      </trkpt>
      <trkpt lat="48.69583" lon="-3.72414">
        <ele>79.1</ele>
        <time>2025-06-30T11:17:30Z</time>
      </trkpt>
      <trkpt lat="48.69574" lon="-3.72411">
        <ele>79.5</ele>
        <time>2025-06-30T11:17:32Z</time>
      </trkpt>
      <trkpt lat="48.69565" lon="-3.72407">
        <ele>80</ele>
        <time>2025-06-30T11:17:34Z</time>
      </trkpt>
      <trkpt lat="48.69557" lon="-3.72403">
        <ele>80.5</ele>
        <time>2025-06-30T11:17:36Z</time>
      </trkpt>
      <trkpt lat="48.69544" lon="-3.72397">
        <ele>81.2</ele>
        <time>2025-06-30T11:17:39Z</time>
      </trkpt>
      <trkpt lat="48.69535" lon="-3.72393">
        <ele>81.7</ele>
        <time>2025-06-30T11:17:41Z</time>
      </trkpt>
      <trkpt lat="48.69526" lon="-3.7239">
        <ele>82.2</ele>
        <time>2025-06-30T11:17:43Z</time>
      </trkpt>
      <trkpt lat="48.69517" lon="-3.72386">
        <ele>82.6</ele>
        <time>2025-06-30T11:17:45Z</time>
      </trkpt>
      <trkpt lat="48.69508" lon="-3.72381">
        <ele>83</ele>
        <time>2025-06-30T11:17:47Z</time>
      </trkpt>
      <trkpt lat="48.69499" lon="-3.72377">
        <ele>83.4</ele>
        <time>2025-06-30T11:17:49Z</time>
      </trkpt>
      <trkpt lat="48.6949" lon="-3.72373">
        <ele>83.8</ele>
        <time>2025-06-30T11:17:51Z</time>
      </trkpt>
      <trkpt lat="48.69481" lon="-3.72369">
        <ele>84.1</ele>
        <time>2025-06-30T11:17:53Z</time>
      </trkpt>
      <trkpt lat="48.69472" lon="-3.72365">
        <ele>84.4</ele>
        <time>2025-06-30T11:17:55Z</time>
      </trkpt>
      <trkpt lat="48.69463" lon="-3.7236">
        <ele>84.7</ele>
        <time>2025-06-30T11:17:57Z</time>
      </trkpt>
      <trkpt lat="48.69454" lon="-3.72356">
        <ele>85</ele>
        <time>2025-06-30T11:17:59Z</time>
      </trkpt>
      <trkpt lat="48.69444" lon="-3.72352">
        <ele>85.3</ele>
        <time>2025-06-30T11:18:01Z</time>
      </trkpt>
      <trkpt lat="48.69435" lon="-3.72348">
        <ele>85.6</ele>
        <time>2025-06-30T11:18:03Z</time>
      </trkpt>
      <trkpt lat="48.69425" lon="-3.72344">
        <ele>85.8</ele>
        <time>2025-06-30T11:18:05Z</time>
      </trkpt>
      <trkpt lat="48.69416" lon="-3.7234">
        <ele>86.1</ele>
        <time>2025-06-30T11:18:07Z</time>
      </trkpt>
      <trkpt lat="48.69406" lon="-3.72335">
        <ele>86.3</ele>
        <time>2025-06-30T11:18:09Z</time>
      </trkpt>
      <trkpt lat="48.69397" lon="-3.7233">
        <ele>86.5</ele>
        <time>2025-06-30T11:18:11Z</time>
      </trkpt>
      <trkpt lat="48.69388" lon="-3.72326">
        <ele>86.8</ele>
        <time>2025-06-30T11:18:13Z</time>
      </trkpt>
      <trkpt lat="48.69378" lon="-3.72321">
        <ele>87</ele>
        <time>2025-06-30T11:18:15Z</time>
      </trkpt>
      <trkpt lat="48.69369" lon="-3.72316">
        <ele>87.2</ele>
        <time>2025-06-30T11:18:17Z</time>
      </trkpt>
      <trkpt lat="48.69359" lon="-3.72311">
        <ele>87.4</ele>
        <time>2025-06-30T11:18:19Z</time>
      </trkpt>
      <trkpt lat="48.6935" lon="-3.72305">
        <ele>87.6</ele>
        <time>2025-06-30T11:18:21Z</time>
      </trkpt>
      <trkpt lat="48.6934" lon="-3.72299">
        <ele>87.8</ele>
        <time>2025-06-30T11:18:23Z</time>
      </trkpt>
      <trkpt lat="48.69331" lon="-3.72294">
        <ele>88.1</ele>
        <time>2025-06-30T11:18:25Z</time>
      </trkpt>
      <trkpt lat="48.69322" lon="-3.72288">
        <ele>88.3</ele>
        <time>2025-06-30T11:18:27Z</time>
      </trkpt>
      <trkpt lat="48.69313" lon="-3.72282">
        <ele>88.5</ele>
        <time>2025-06-30T11:18:29Z</time>
      </trkpt>
      <trkpt lat="48.69304" lon="-3.72276">
        <ele>88.8</ele>
        <time>2025-06-30T11:18:31Z</time>
      </trkpt>
      <trkpt lat="48.69294" lon="-3.72271">
        <ele>89.1</ele>
        <time>2025-06-30T11:18:33Z</time>
      </trkpt>
      <trkpt lat="48.69275" lon="-3.72257">
        <ele>89.6</ele>
        <time>2025-06-30T11:18:37Z</time>
      </trkpt>
      <trkpt lat="48.69266" lon="-3.72251">
        <ele>89.8</ele>
        <time>2025-06-30T11:18:39Z</time>
      </trkpt>
      <trkpt lat="48.69257" lon="-3.72245">
        <ele>90</ele>
        <time>2025-06-30T11:18:41Z</time>
      </trkpt>
      <trkpt lat="48.69248" lon="-3.72238">
        <ele>90.3</ele>
        <time>2025-06-30T11:18:43Z</time>
      </trkpt>
      <trkpt lat="48.69239" lon="-3.72232">
        <ele>90.5</ele>
        <time>2025-06-30T11:18:45Z</time>
      </trkpt>
      <trkpt lat="48.69229" lon="-3.72224">
        <ele>90.7</ele>
        <time>2025-06-30T11:18:47Z</time>
      </trkpt>
      <trkpt lat="48.6922" lon="-3.72218">
        <ele>91</ele>
        <time>2025-06-30T11:18:49Z</time>
      </trkpt>
      <trkpt lat="48.69211" lon="-3.7221">
        <ele>91.3</ele>
        <time>2025-06-30T11:18:51Z</time>
      </trkpt>
      <trkpt lat="48.69202" lon="-3.72202">
        <ele>91.6</ele>
        <time>2025-06-30T11:18:53Z</time>
      </trkpt>
      <trkpt lat="48.69193" lon="-3.72195">
        <ele>91.8</ele>
        <time>2025-06-30T11:18:55Z</time>
      </trkpt>
      <trkpt lat="48.69183" lon="-3.72187">
        <ele>92</ele>
        <time>2025-06-30T11:18:57Z</time>
      </trkpt>
      <trkpt lat="48.69174" lon="-3.7218">
        <ele>92.2</ele>
        <time>2025-06-30T11:18:59Z</time>
      </trkpt>
      <trkpt lat="48.69165" lon="-3.72172">
        <ele>92.3</ele>
        <time>2025-06-30T11:19:01Z</time>
      </trkpt>
      <trkpt lat="48.69156" lon="-3.72163">
        <ele>92.4</ele>
        <time>2025-06-30T11:19:03Z</time>
      </trkpt>
      <trkpt lat="48.69146" lon="-3.72154">
        <ele>92.6</ele>
        <time>2025-06-30T11:19:05Z</time>
      </trkpt>
      <trkpt lat="48.69137" lon="-3.72146">
        <ele>92.7</ele>
        <time>2025-06-30T11:19:07Z</time>
      </trkpt>
      <trkpt lat="48.69126" lon="-3.72139">
        <ele>92.8</ele>
        <time>2025-06-30T11:19:09Z</time>
      </trkpt>
      <trkpt lat="48.69115" lon="-3.72132">
        <ele>92.9</ele>
        <time>2025-06-30T11:19:11Z</time>
      </trkpt>
      <trkpt lat="48.69105" lon="-3.72123">
        <ele>93</ele>
        <time>2025-06-30T11:19:13Z</time>
      </trkpt>
      <trkpt lat="48.69094" lon="-3.72115">
        <ele>93.1</ele>
        <time>2025-06-30T11:19:15Z</time>
      </trkpt>
      <trkpt lat="48.69083" lon="-3.72109">
        <ele>93.3</ele>
        <time>2025-06-30T11:19:17Z</time>
      </trkpt>
      <trkpt lat="48.69072" lon="-3.72101">
        <ele>93.4</ele>
        <time>2025-06-30T11:19:19Z</time>
      </trkpt>
      <trkpt lat="48.69061" lon="-3.72093">
        <ele>93.6</ele>
        <time>2025-06-30T11:19:21Z</time>
      </trkpt>
      <trkpt lat="48.6905" lon="-3.72087">
        <ele>93.7</ele>
        <time>2025-06-30T11:19:23Z</time>
      </trkpt>
      <trkpt lat="48.69039" lon="-3.72079">
        <ele>93.9</ele>
        <time>2025-06-30T11:19:25Z</time>
      </trkpt>
      <trkpt lat="48.69028" lon="-3.72073">
        <ele>94.1</ele>
        <time>2025-06-30T11:19:27Z</time>
      </trkpt>
      <trkpt lat="48.69016" lon="-3.72066">
        <ele>94.3</ele>
        <time>2025-06-30T11:19:29Z</time>
      </trkpt>
      <trkpt lat="48.69005" lon="-3.7206">
        <ele>94.5</ele>
        <time>2025-06-30T11:19:31Z</time>
      </trkpt>
      <trkpt lat="48.68993" lon="-3.72054">
        <ele>94.7</ele>
        <time>2025-06-30T11:19:33Z</time>
      </trkpt>
      <trkpt lat="48.68982" lon="-3.72048">
        <ele>94.9</ele>
        <time>2025-06-30T11:19:35Z</time>
      </trkpt>
      <trkpt lat="48.6897" lon="-3.72046">
        <ele>95</ele>
        <time>2025-06-30T11:19:37Z</time>
      </trkpt>
      <trkpt lat="48.68958" lon="-3.72043">
        <ele>95.2</ele>
        <time>2025-06-30T11:19:39Z</time>
      </trkpt>
      <trkpt lat="48.68946" lon="-3.7204">
        <ele>95.3</ele>
        <time>2025-06-30T11:19:41Z</time>
      </trkpt>
      <trkpt lat="48.68934" lon="-3.72036">
        <ele>95.4</ele>
        <time>2025-06-30T11:19:43Z</time>
      </trkpt>
      <trkpt lat="48.68922" lon="-3.72033">
        <ele>95.5</ele>
        <time>2025-06-30T11:19:45Z</time>
      </trkpt>
      <trkpt lat="48.6891" lon="-3.72029">
        <ele>95.6</ele>
        <time>2025-06-30T11:19:47Z</time>
      </trkpt>
      <trkpt lat="48.68897" lon="-3.72024">
        <ele>95.6</ele>
        <time>2025-06-30T11:19:49Z</time>
      </trkpt>
      <trkpt lat="48.68884" lon="-3.72019">
        <ele>95.7</ele>
        <time>2025-06-30T11:19:51Z</time>
      </trkpt>
      <trkpt lat="48.68872" lon="-3.72013">
        <ele>95.7</ele>
        <time>2025-06-30T11:19:53Z</time>
      </trkpt>
      <trkpt lat="48.6886" lon="-3.72004">
        <ele>95.8</ele>
        <time>2025-06-30T11:19:55Z</time>
      </trkpt>
      <trkpt lat="48.68848" lon="-3.71994">
        <ele>95.9</ele>
        <time>2025-06-30T11:19:57Z</time>
      </trkpt>
      <trkpt lat="48.68836" lon="-3.71984">
        <ele>96</ele>
        <time>2025-06-30T11:19:59Z</time>
      </trkpt>
      <trkpt lat="48.68825" lon="-3.71974">
        <ele>96.1</ele>
        <time>2025-06-30T11:20:01Z</time>
      </trkpt>
      <trkpt lat="48.68814" lon="-3.71962">
        <ele>96.2</ele>
        <time>2025-06-30T11:20:03Z</time>
      </trkpt>
      <trkpt lat="48.68803" lon="-3.71951">
        <ele>96.3</ele>
        <time>2025-06-30T11:20:05Z</time>
      </trkpt>
      <trkpt lat="48.68792" lon="-3.7194">
        <ele>96.4</ele>
        <time>2025-06-30T11:20:07Z</time>
      </trkpt>
      <trkpt lat="48.6878" lon="-3.71931">
        <ele>96.5</ele>
        <time>2025-06-30T11:20:09Z</time>
      </trkpt>
      <trkpt lat="48.68767" lon="-3.71923">
        <ele>96.5</ele>
        <time>2025-06-30T11:20:11Z</time>
      </trkpt>
      <trkpt lat="48.68754" lon="-3.71917">
        <ele>96.6</ele>
        <time>2025-06-30T11:20:13Z</time>
      </trkpt>
      <trkpt lat="48.6874" lon="-3.71912">
        <ele>96.7</ele>
        <time>2025-06-30T11:20:15Z</time>
      </trkpt>
      <trkpt lat="48.68727" lon="-3.71908">
        <ele>96.8</ele>
        <time>2025-06-30T11:20:17Z</time>
      </trkpt>
      <trkpt lat="48.68713" lon="-3.71904">
        <ele>96.9</ele>
        <time>2025-06-30T11:20:19Z</time>
      </trkpt>
      <trkpt lat="48.687" lon="-3.71899">
        <ele>97</ele>
        <time>2025-06-30T11:20:21Z</time>
      </trkpt>
      <trkpt lat="48.68686" lon="-3.71895">
        <ele>97.1</ele>
        <time>2025-06-30T11:20:23Z</time>
      </trkpt>
      <trkpt lat="48.68672" lon="-3.71892">
        <ele>97.3</ele>
        <time>2025-06-30T11:20:25Z</time>
      </trkpt>
      <trkpt lat="48.68659" lon="-3.71886">
        <ele>97.4</ele>
        <time>2025-06-30T11:20:27Z</time>
      </trkpt>
      <trkpt lat="48.68646" lon="-3.71877">
        <ele>97.5</ele>
        <time>2025-06-30T11:20:29Z</time>
      </trkpt>
      <trkpt lat="48.68633" lon="-3.71868">
        <ele>97.6</ele>
        <time>2025-06-30T11:20:31Z</time>
      </trkpt>
      <trkpt lat="48.68621" lon="-3.71855">
        <ele>97.7</ele>
        <time>2025-06-30T11:20:33Z</time>
      </trkpt>
      <trkpt lat="48.68609" lon="-3.71842">
        <ele>97.9</ele>
        <time>2025-06-30T11:20:35Z</time>
      </trkpt>
      <trkpt lat="48.68599" lon="-3.71829">
        <ele>98</ele>
        <time>2025-06-30T11:20:37Z</time>
      </trkpt>
      <trkpt lat="48.68589" lon="-3.71814">
        <ele>98.2</ele>
        <time>2025-06-30T11:20:39Z</time>
      </trkpt>
      <trkpt lat="48.68578" lon="-3.71799">
        <ele>98.3</ele>
        <time>2025-06-30T11:20:41Z</time>
      </trkpt>
      <trkpt lat="48.68568" lon="-3.71784">
        <ele>98.5</ele>
        <time>2025-06-30T11:20:43Z</time>
      </trkpt>
      <trkpt lat="48.68557" lon="-3.71771">
        <ele>98.6</ele>
        <time>2025-06-30T11:20:45Z</time>
      </trkpt>
      <trkpt lat="48.68546" lon="-3.71756">
        <ele>98.8</ele>
        <time>2025-06-30T11:20:47Z</time>
      </trkpt>
      <trkpt lat="48.68536" lon="-3.71741">
        <ele>98.9</ele>
        <time>2025-06-30T11:20:49Z</time>
      </trkpt>
      <trkpt lat="48.68525" lon="-3.71726">
        <ele>99</ele>
        <time>2025-06-30T11:20:51Z</time>
      </trkpt>
      <trkpt lat="48.68515" lon="-3.71711">
        <ele>99.1</ele>
        <time>2025-06-30T11:20:53Z</time>
      </trkpt>
      <trkpt lat="48.68505" lon="-3.71696">
        <ele>99.3</ele>
        <time>2025-06-30T11:20:55Z</time>
      </trkpt>
      <trkpt lat="48.68494" lon="-3.71682">
        <ele>99.4</ele>
        <time>2025-06-30T11:20:57Z</time>
      </trkpt>
      <trkpt lat="48.68484" lon="-3.71668">
        <ele>99.6</ele>
        <time>2025-06-30T11:20:59Z</time>
      </trkpt>
      <trkpt lat="48.68473" lon="-3.71653">
        <ele>99.6</ele>
        <time>2025-06-30T11:21:01Z</time>
      </trkpt>
      <trkpt lat="48.68462" lon="-3.71639">
        <ele>99.7</ele>
        <time>2025-06-30T11:21:03Z</time>
      </trkpt>
      <trkpt lat="48.68449" lon="-3.71627">
        <ele>99.7</ele>
        <time>2025-06-30T11:21:05Z</time>
      </trkpt>
      <trkpt lat="48.68437" lon="-3.71615">
        <ele>99.7</ele>
        <time>2025-06-30T11:21:07Z</time>
      </trkpt>
      <trkpt lat="48.68425" lon="-3.71603">
        <ele>99.7</ele>
        <time>2025-06-30T11:21:09Z</time>
      </trkpt>
      <trkpt lat="48.68412" lon="-3.71592">
        <ele>99.5</ele>
        <time>2025-06-30T11:21:11Z</time>
      </trkpt>
      <trkpt lat="48.684" lon="-3.71581">
        <ele>99.5</ele>
        <time>2025-06-30T11:21:13Z</time>
      </trkpt>
      <trkpt lat="48.68387" lon="-3.71572">
        <ele>99.4</ele>
        <time>2025-06-30T11:21:15Z</time>
      </trkpt>
      <trkpt lat="48.68375" lon="-3.7156">
        <ele>99.3</ele>
        <time>2025-06-30T11:21:17Z</time>
      </trkpt>
      <trkpt lat="48.68361" lon="-3.7155">
        <ele>99.1</ele>
        <time>2025-06-30T11:21:19Z</time>
      </trkpt>
      <trkpt lat="48.68348" lon="-3.7154">
        <ele>98.9</ele>
        <time>2025-06-30T11:21:21Z</time>
      </trkpt>
      <trkpt lat="48.68335" lon="-3.71529">
        <ele>98.7</ele>
        <time>2025-06-30T11:21:23Z</time>
      </trkpt>
      <trkpt lat="48.68323" lon="-3.71515">
        <ele>98.5</ele>
        <time>2025-06-30T11:21:25Z</time>
      </trkpt>
      <trkpt lat="48.68311" lon="-3.715">
        <ele>98.2</ele>
        <time>2025-06-30T11:21:27Z</time>
      </trkpt>
      <trkpt lat="48.68299" lon="-3.71483">
        <ele>97.8</ele>
        <time>2025-06-30T11:21:29Z</time>
      </trkpt>
      <trkpt lat="48.68287" lon="-3.71465">
        <ele>97.3</ele>
        <time>2025-06-30T11:21:31Z</time>
      </trkpt>
      <trkpt lat="48.68276" lon="-3.71447">
        <ele>96.8</ele>
        <time>2025-06-30T11:21:33Z</time>
      </trkpt>
      <trkpt lat="48.68265" lon="-3.71428">
        <ele>96.3</ele>
        <time>2025-06-30T11:21:35Z</time>
      </trkpt>
      <trkpt lat="48.68254" lon="-3.71408">
        <ele>95.7</ele>
        <time>2025-06-30T11:21:37Z</time>
      </trkpt>
      <trkpt lat="48.68242" lon="-3.71389">
        <ele>94.9</ele>
        <time>2025-06-30T11:21:39Z</time>
      </trkpt>
      <trkpt lat="48.68236" lon="-3.71378">
        <ele>94.5</ele>
        <time>2025-06-30T11:21:40Z</time>
      </trkpt>
      <trkpt lat="48.68229" lon="-3.71368">
        <ele>94</ele>
        <time>2025-06-30T11:21:41Z</time>
      </trkpt>
      <trkpt lat="48.68223" lon="-3.71358">
        <ele>93.5</ele>
        <time>2025-06-30T11:21:42Z</time>
      </trkpt>
      <trkpt lat="48.68217" lon="-3.71347">
        <ele>93</ele>
        <time>2025-06-30T11:21:43Z</time>
      </trkpt>
      <trkpt lat="48.6821" lon="-3.71335">
        <ele>92.4</ele>
        <time>2025-06-30T11:21:44Z</time>
      </trkpt>
      <trkpt lat="48.68204" lon="-3.71325">
        <ele>91.9</ele>
        <time>2025-06-30T11:21:45Z</time>
      </trkpt>
      <trkpt lat="48.68197" lon="-3.71314">
        <ele>91.4</ele>
        <time>2025-06-30T11:21:46Z</time>
      </trkpt>
      <trkpt lat="48.6819" lon="-3.71303">
        <ele>90.9</ele>
        <time>2025-06-30T11:21:47Z</time>
      </trkpt>
      <trkpt lat="48.68183" lon="-3.71292">
        <ele>90.5</ele>
        <time>2025-06-30T11:21:48Z</time>
      </trkpt>
      <trkpt lat="48.68177" lon="-3.7128">
        <ele>90.1</ele>
        <time>2025-06-30T11:21:49Z</time>
      </trkpt>
      <trkpt lat="48.68171" lon="-3.71268">
        <ele>89.7</ele>
        <time>2025-06-30T11:21:50Z</time>
      </trkpt>
      <trkpt lat="48.68165" lon="-3.71256">
        <ele>89.4</ele>
        <time>2025-06-30T11:21:51Z</time>
      </trkpt>
      <trkpt lat="48.6816" lon="-3.71243">
        <ele>89.1</ele>
        <time>2025-06-30T11:21:52Z</time>
      </trkpt>
      <trkpt lat="48.68156" lon="-3.71229">
        <ele>88.9</ele>
        <time>2025-06-30T11:21:53Z</time>
      </trkpt>
      <trkpt lat="48.68153" lon="-3.71215">
        <ele>88.7</ele>
        <time>2025-06-30T11:21:54Z</time>
      </trkpt>
      <trkpt lat="48.68149" lon="-3.71202">
        <ele>88.5</ele>
        <time>2025-06-30T11:21:55Z</time>
      </trkpt>
      <trkpt lat="48.68144" lon="-3.71189">
        <ele>88.3</ele>
        <time>2025-06-30T11:21:56Z</time>
      </trkpt>
      <trkpt lat="48.68139" lon="-3.71176">
        <ele>88.2</ele>
        <time>2025-06-30T11:21:57Z</time>
      </trkpt>
      <trkpt lat="48.68134" lon="-3.71164">
        <ele>88.1</ele>
        <time>2025-06-30T11:21:58Z</time>
      </trkpt>
      <trkpt lat="48.68128" lon="-3.71152">
        <ele>88.1</ele>
        <time>2025-06-30T11:21:59Z</time>
      </trkpt>
      <trkpt lat="48.68122" lon="-3.71142">
        <ele>88</ele>
        <time>2025-06-30T11:22:00Z</time>
      </trkpt>
      <trkpt lat="48.68114" lon="-3.71134">
        <ele>87.9</ele>
        <time>2025-06-30T11:22:01Z</time>
      </trkpt>
      <trkpt lat="48.68106" lon="-3.71126">
        <ele>87.7</ele>
        <time>2025-06-30T11:22:02Z</time>
      </trkpt>
      <trkpt lat="48.68098" lon="-3.7112">
        <ele>87.6</ele>
        <time>2025-06-30T11:22:03Z</time>
      </trkpt>
      <trkpt lat="48.6809" lon="-3.71114">
        <ele>87.6</ele>
        <time>2025-06-30T11:22:04Z</time>
      </trkpt>
      <trkpt lat="48.68081" lon="-3.71109">
        <ele>87.5</ele>
        <time>2025-06-30T11:22:05Z</time>
      </trkpt>
      <trkpt lat="48.68073" lon="-3.71102">
        <ele>87.3</ele>
        <time>2025-06-30T11:22:06Z</time>
      </trkpt>
      <trkpt lat="48.68065" lon="-3.71095">
        <ele>87.2</ele>
        <time>2025-06-30T11:22:07Z</time>
      </trkpt>
      <trkpt lat="48.68057" lon="-3.71089">
        <ele>87.1</ele>
        <time>2025-06-30T11:22:08Z</time>
      </trkpt>
      <trkpt lat="48.68042" lon="-3.71074">
        <ele>86.9</ele>
        <time>2025-06-30T11:22:10Z</time>
      </trkpt>
      <trkpt lat="48.68027" lon="-3.71057">
        <ele>86.5</ele>
        <time>2025-06-30T11:22:12Z</time>
      </trkpt>
      <trkpt lat="48.6802" lon="-3.71048">
        <ele>86.3</ele>
        <time>2025-06-30T11:22:13Z</time>
      </trkpt>
      <trkpt lat="48.68014" lon="-3.71038">
        <ele>86.1</ele>
        <time>2025-06-30T11:22:14Z</time>
      </trkpt>
      <trkpt lat="48.68008" lon="-3.71028">
        <ele>85.9</ele>
        <time>2025-06-30T11:22:15Z</time>
      </trkpt>
      <trkpt lat="48.68002" lon="-3.71017">
        <ele>85.7</ele>
        <time>2025-06-30T11:22:16Z</time>
      </trkpt>
      <trkpt lat="48.67995" lon="-3.71007">
        <ele>85.5</ele>
        <time>2025-06-30T11:22:17Z</time>
      </trkpt>
      <trkpt lat="48.67988" lon="-3.70985">
        <ele>85.3</ele>
        <time>2025-06-30T11:22:19Z</time>
      </trkpt>
      <trkpt lat="48.6799" lon="-3.70963">
        <ele>84.8</ele>
        <time>2025-06-30T11:22:21Z</time>
      </trkpt>
      <trkpt lat="48.68001" lon="-3.70944">
        <ele>84.4</ele>
        <time>2025-06-30T11:22:23Z</time>
      </trkpt>
      <trkpt lat="48.6801" lon="-3.70924">
        <ele>83.9</ele>
        <time>2025-06-30T11:22:25Z</time>
      </trkpt>
      <trkpt lat="48.68019" lon="-3.70904">
        <ele>83.5</ele>
        <time>2025-06-30T11:22:27Z</time>
      </trkpt>
      <trkpt lat="48.68027" lon="-3.70881">
        <ele>83</ele>
        <time>2025-06-30T11:22:29Z</time>
      </trkpt>
      <trkpt lat="48.68036" lon="-3.7086">
        <ele>82.6</ele>
        <time>2025-06-30T11:22:31Z</time>
      </trkpt>
      <trkpt lat="48.68043" lon="-3.70838">
        <ele>82.1</ele>
        <time>2025-06-30T11:22:33Z</time>
      </trkpt>
      <trkpt lat="48.68047" lon="-3.70813">
        <ele>81.4</ele>
        <time>2025-06-30T11:22:35Z</time>
      </trkpt>
      <trkpt lat="48.6805" lon="-3.70787">
        <ele>80.6</ele>
        <time>2025-06-30T11:22:37Z</time>
      </trkpt>
      <trkpt lat="48.68051" lon="-3.70773">
        <ele>80.2</ele>
        <time>2025-06-30T11:22:38Z</time>
      </trkpt>
      <trkpt lat="48.68051" lon="-3.70759">
        <ele>79.7</ele>
        <time>2025-06-30T11:22:39Z</time>
      </trkpt>
      <trkpt lat="48.68051" lon="-3.70745">
        <ele>79.2</ele>
        <time>2025-06-30T11:22:40Z</time>
      </trkpt>
      <trkpt lat="48.68051" lon="-3.7073">
        <ele>78.8</ele>
        <time>2025-06-30T11:22:41Z</time>
      </trkpt>
      <trkpt lat="48.68051" lon="-3.70715">
        <ele>78.3</ele>
        <time>2025-06-30T11:22:42Z</time>
      </trkpt>
      <trkpt lat="48.68052" lon="-3.707">
        <ele>77.9</ele>
        <time>2025-06-30T11:22:43Z</time>
      </trkpt>
      <trkpt lat="48.68054" lon="-3.70685">
        <ele>77.6</ele>
        <time>2025-06-30T11:22:44Z</time>
      </trkpt>
      <trkpt lat="48.68056" lon="-3.70671">
        <ele>77.2</ele>
        <time>2025-06-30T11:22:45Z</time>
      </trkpt>
      <trkpt lat="48.68059" lon="-3.70657">
        <ele>76.9</ele>
        <time>2025-06-30T11:22:46Z</time>
      </trkpt>
      <trkpt lat="48.68064" lon="-3.70644">
        <ele>76.6</ele>
        <time>2025-06-30T11:22:47Z</time>
      </trkpt>
      <trkpt lat="48.68069" lon="-3.70632">
        <ele>76.3</ele>
        <time>2025-06-30T11:22:48Z</time>
      </trkpt>
      <trkpt lat="48.68075" lon="-3.7062">
        <ele>76</ele>
        <time>2025-06-30T11:22:49Z</time>
      </trkpt>
      <trkpt lat="48.68081" lon="-3.7061">
        <ele>75.7</ele>
        <time>2025-06-30T11:22:50Z</time>
      </trkpt>
      <trkpt lat="48.68089" lon="-3.70601">
        <ele>75.3</ele>
        <time>2025-06-30T11:22:51Z</time>
      </trkpt>
      <trkpt lat="48.68096" lon="-3.70593">
        <ele>74.9</ele>
        <time>2025-06-30T11:22:52Z</time>
      </trkpt>
      <trkpt lat="48.68104" lon="-3.70585">
        <ele>74.5</ele>
        <time>2025-06-30T11:22:53Z</time>
      </trkpt>
      <trkpt lat="48.68112" lon="-3.70577">
        <ele>74.1</ele>
        <time>2025-06-30T11:22:54Z</time>
      </trkpt>
      <trkpt lat="48.68119" lon="-3.70567">
        <ele>73.6</ele>
        <time>2025-06-30T11:22:55Z</time>
      </trkpt>
      <trkpt lat="48.68127" lon="-3.70557">
        <ele>73.2</ele>
        <time>2025-06-30T11:22:56Z</time>
      </trkpt>
      <trkpt lat="48.68134" lon="-3.70547">
        <ele>72.8</ele>
        <time>2025-06-30T11:22:57Z</time>
      </trkpt>
      <trkpt lat="48.68141" lon="-3.70536">
        <ele>72.4</ele>
        <time>2025-06-30T11:22:58Z</time>
      </trkpt>
      <trkpt lat="48.68148" lon="-3.70523">
        <ele>72</ele>
        <time>2025-06-30T11:22:59Z</time>
      </trkpt>
      <trkpt lat="48.68154" lon="-3.70511">
        <ele>71.6</ele>
        <time>2025-06-30T11:23:00Z</time>
      </trkpt>
      <trkpt lat="48.68159" lon="-3.70496">
        <ele>71.2</ele>
        <time>2025-06-30T11:23:01Z</time>
      </trkpt>
      <trkpt lat="48.68165" lon="-3.70483">
        <ele>70.8</ele>
        <time>2025-06-30T11:23:02Z</time>
      </trkpt>
      <trkpt lat="48.68171" lon="-3.70469">
        <ele>70.3</ele>
        <time>2025-06-30T11:23:03Z</time>
      </trkpt>
      <trkpt lat="48.68176" lon="-3.70454">
        <ele>69.9</ele>
        <time>2025-06-30T11:23:04Z</time>
      </trkpt>
      <trkpt lat="48.68181" lon="-3.7044">
        <ele>69.5</ele>
        <time>2025-06-30T11:23:05Z</time>
      </trkpt>
      <trkpt lat="48.68187" lon="-3.70426">
        <ele>69.2</ele>
        <time>2025-06-30T11:23:06Z</time>
      </trkpt>
      <trkpt lat="48.68194" lon="-3.70413">
        <ele>68.8</ele>
        <time>2025-06-30T11:23:07Z</time>
      </trkpt>
      <trkpt lat="48.68202" lon="-3.70402">
        <ele>68.4</ele>
        <time>2025-06-30T11:23:08Z</time>
      </trkpt>
      <trkpt lat="48.68211" lon="-3.70393">
        <ele>68</ele>
        <time>2025-06-30T11:23:09Z</time>
      </trkpt>
      <trkpt lat="48.6822" lon="-3.70383">
        <ele>67.5</ele>
        <time>2025-06-30T11:23:10Z</time>
      </trkpt>
      <trkpt lat="48.68229" lon="-3.70375">
        <ele>67</ele>
        <time>2025-06-30T11:23:11Z</time>
      </trkpt>
      <trkpt lat="48.68238" lon="-3.70367">
        <ele>66.4</ele>
        <time>2025-06-30T11:23:12Z</time>
      </trkpt>
      <trkpt lat="48.68247" lon="-3.70357">
        <ele>65.7</ele>
        <time>2025-06-30T11:23:13Z</time>
      </trkpt>
      <trkpt lat="48.68256" lon="-3.70347">
        <ele>65.1</ele>
        <time>2025-06-30T11:23:14Z</time>
      </trkpt>
      <trkpt lat="48.68266" lon="-3.70337">
        <ele>64.5</ele>
        <time>2025-06-30T11:23:15Z</time>
      </trkpt>
      <trkpt lat="48.68275" lon="-3.70326">
        <ele>63.9</ele>
        <time>2025-06-30T11:23:16Z</time>
      </trkpt>
      <trkpt lat="48.68284" lon="-3.70316">
        <ele>63.3</ele>
        <time>2025-06-30T11:23:17Z</time>
      </trkpt>
      <trkpt lat="48.68294" lon="-3.70305">
        <ele>62.8</ele>
        <time>2025-06-30T11:23:18Z</time>
      </trkpt>
      <trkpt lat="48.68303" lon="-3.70295">
        <ele>62.3</ele>
        <time>2025-06-30T11:23:19Z</time>
      </trkpt>
      <trkpt lat="48.68312" lon="-3.70285">
        <ele>61.9</ele>
        <time>2025-06-30T11:23:20Z</time>
      </trkpt>
      <trkpt lat="48.68322" lon="-3.70275">
        <ele>61.6</ele>
        <time>2025-06-30T11:23:21Z</time>
      </trkpt>
      <trkpt lat="48.68332" lon="-3.70266">
        <ele>61.3</ele>
        <time>2025-06-30T11:23:22Z</time>
      </trkpt>
      <trkpt lat="48.68342" lon="-3.70259">
        <ele>61</ele>
        <time>2025-06-30T11:23:23Z</time>
      </trkpt>
      <trkpt lat="48.68353" lon="-3.70255">
        <ele>60.5</ele>
        <time>2025-06-30T11:23:24Z</time>
      </trkpt>
      <trkpt lat="48.68364" lon="-3.70252">
        <ele>60.1</ele>
        <time>2025-06-30T11:23:25Z</time>
      </trkpt>
      <trkpt lat="48.68375" lon="-3.70251">
        <ele>59.7</ele>
        <time>2025-06-30T11:23:26Z</time>
      </trkpt>
      <trkpt lat="48.68387" lon="-3.70249">
        <ele>59.3</ele>
        <time>2025-06-30T11:23:27Z</time>
      </trkpt>
      <trkpt lat="48.68398" lon="-3.70246">
        <ele>58.9</ele>
        <time>2025-06-30T11:23:28Z</time>
      </trkpt>
      <trkpt lat="48.68409" lon="-3.70244">
        <ele>58.4</ele>
        <time>2025-06-30T11:23:29Z</time>
      </trkpt>
      <trkpt lat="48.6842" lon="-3.70242">
        <ele>58</ele>
        <time>2025-06-30T11:23:30Z</time>
      </trkpt>
      <trkpt lat="48.68431" lon="-3.70239">
        <ele>57.7</ele>
        <time>2025-06-30T11:23:31Z</time>
      </trkpt>
      <trkpt lat="48.68443" lon="-3.70235">
        <ele>57.2</ele>
        <time>2025-06-30T11:23:32Z</time>
      </trkpt>
      <trkpt lat="48.68454" lon="-3.70232">
        <ele>56.9</ele>
        <time>2025-06-30T11:23:33Z</time>
      </trkpt>
      <trkpt lat="48.68464" lon="-3.7023">
        <ele>56.5</ele>
        <time>2025-06-30T11:23:34Z</time>
      </trkpt>
      <trkpt lat="48.68475" lon="-3.70227">
        <ele>56.1</ele>
        <time>2025-06-30T11:23:35Z</time>
      </trkpt>
      <trkpt lat="48.68484" lon="-3.70203">
        <ele>55.3</ele>
        <time>2025-06-30T11:23:36Z</time>
      </trkpt>
      <trkpt lat="48.68504" lon="-3.70155">
        <ele>53.5</ele>
        <time>2025-06-30T11:23:38Z</time>
      </trkpt>
      <trkpt lat="48.68517" lon="-3.70151">
        <ele>52.9</ele>
        <time>2025-06-30T11:23:39Z</time>
      </trkpt>
      <trkpt lat="48.68516" lon="-3.70172">
        <ele>52.2</ele>
        <time>2025-06-30T11:23:41Z</time>
      </trkpt>
      <trkpt lat="48.68528" lon="-3.70163">
        <ele>51.6</ele>
        <time>2025-06-30T11:23:43Z</time>
      </trkpt>
      <trkpt lat="48.68538" lon="-3.70155">
        <ele>51.1</ele>
        <time>2025-06-30T11:23:44Z</time>
      </trkpt>
      <trkpt lat="48.68562" lon="-3.70137">
        <ele>50.1</ele>
        <time>2025-06-30T11:23:46Z</time>
      </trkpt>
      <trkpt lat="48.68573" lon="-3.70132">
        <ele>49.8</ele>
        <time>2025-06-30T11:23:47Z</time>
      </trkpt>
      <trkpt lat="48.68583" lon="-3.70128">
        <ele>49.4</ele>
        <time>2025-06-30T11:23:48Z</time>
      </trkpt>
      <trkpt lat="48.68596" lon="-3.70122">
        <ele>48.8</ele>
        <time>2025-06-30T11:23:49Z</time>
      </trkpt>
      <trkpt lat="48.68608" lon="-3.70119">
        <ele>48.2</ele>
        <time>2025-06-30T11:23:50Z</time>
      </trkpt>
      <trkpt lat="48.68622" lon="-3.70119">
        <ele>47.5</ele>
        <time>2025-06-30T11:23:51Z</time>
      </trkpt>
      <trkpt lat="48.6864" lon="-3.70113">
        <ele>46.6</ele>
        <time>2025-06-30T11:23:52Z</time>
      </trkpt>
      <trkpt lat="48.68661" lon="-3.70119">
        <ele>45.6</ele>
        <time>2025-06-30T11:23:53Z</time>
      </trkpt>
      <trkpt lat="48.68678" lon="-3.70117">
        <ele>44.9</ele>
        <time>2025-06-30T11:23:54Z</time>
      </trkpt>
      <trkpt lat="48.68693" lon="-3.7011">
        <ele>44.3</ele>
        <time>2025-06-30T11:23:55Z</time>
      </trkpt>
      <trkpt lat="48.68707" lon="-3.70105">
        <ele>43.6</ele>
        <time>2025-06-30T11:23:56Z</time>
      </trkpt>
      <trkpt lat="48.6872" lon="-3.701">
        <ele>42.8</ele>
        <time>2025-06-30T11:23:57Z</time>
      </trkpt>
      <trkpt lat="48.68734" lon="-3.70094">
        <ele>41.9</ele>
        <time>2025-06-30T11:23:58Z</time>
      </trkpt>
      <trkpt lat="48.68747" lon="-3.70087">
        <ele>40.8</ele>
        <time>2025-06-30T11:23:59Z</time>
      </trkpt>
      <trkpt lat="48.6876" lon="-3.70081">
        <ele>39.6</ele>
        <time>2025-06-30T11:24:00Z</time>
      </trkpt>
      <trkpt lat="48.68772" lon="-3.70074">
        <ele>38.5</ele>
        <time>2025-06-30T11:24:01Z</time>
      </trkpt>
      <trkpt lat="48.68784" lon="-3.70068">
        <ele>37.3</ele>
        <time>2025-06-30T11:24:02Z</time>
      </trkpt>
      <trkpt lat="48.68795" lon="-3.70062">
        <ele>36.3</ele>
        <time>2025-06-30T11:24:03Z</time>
      </trkpt>
      <trkpt lat="48.68804" lon="-3.70053">
        <ele>35.4</ele>
        <time>2025-06-30T11:24:04Z</time>
      </trkpt>
      <trkpt lat="48.68814" lon="-3.70049">
        <ele>34.4</ele>
        <time>2025-06-30T11:24:05Z</time>
      </trkpt>
      <trkpt lat="48.68823" lon="-3.70044">
        <ele>33.5</ele>
        <time>2025-06-30T11:24:06Z</time>
      </trkpt>
      <trkpt lat="48.68833" lon="-3.70039">
        <ele>32.5</ele>
        <time>2025-06-30T11:24:07Z</time>
      </trkpt>
      <trkpt lat="48.68843" lon="-3.70035">
        <ele>31.5</ele>
        <time>2025-06-30T11:24:08Z</time>
      </trkpt>
      <trkpt lat="48.68852" lon="-3.70032">
        <ele>30.6</ele>
        <time>2025-06-30T11:24:09Z</time>
      </trkpt>
      <trkpt lat="48.68861" lon="-3.7003">
        <ele>29.7</ele>
        <time>2025-06-30T11:24:10Z</time>
      </trkpt>
      <trkpt lat="48.6887" lon="-3.70029">
        <ele>28.7</ele>
        <time>2025-06-30T11:24:11Z</time>
      </trkpt>
      <trkpt lat="48.68887" lon="-3.70027">
        <ele>27.1</ele>
        <time>2025-06-30T11:24:13Z</time>
      </trkpt>
      <trkpt lat="48.68902" lon="-3.70019">
        <ele>25.6</ele>
        <time>2025-06-30T11:24:15Z</time>
      </trkpt>
      <trkpt lat="48.68907" lon="-3.69991">
        <ele>26.4</ele>
        <time>2025-06-30T11:24:17Z</time>
      </trkpt>
      <trkpt lat="48.68909" lon="-3.69967">
        <ele>27.2</ele>
        <time>2025-06-30T11:24:19Z</time>
      </trkpt>
      <trkpt lat="48.68912" lon="-3.69945">
        <ele>27.9</ele>
        <time>2025-06-30T11:24:21Z</time>
      </trkpt>
      <trkpt lat="48.68917" lon="-3.69923">
        <ele>28.7</ele>
        <time>2025-06-30T11:24:23Z</time>
      </trkpt>
      <trkpt lat="48.6892" lon="-3.699">
        <ele>29.5</ele>
        <time>2025-06-30T11:24:25Z</time>
      </trkpt>
      <trkpt lat="48.68924" lon="-3.69878">
        <ele>30.3</ele>
        <time>2025-06-30T11:24:27Z</time>
      </trkpt>
      <trkpt lat="48.68929" lon="-3.69857">
        <ele>31</ele>
        <time>2025-06-30T11:24:29Z</time>
      </trkpt>
      <trkpt lat="48.68932" lon="-3.69835">
        <ele>31.6</ele>
        <time>2025-06-30T11:24:31Z</time>
      </trkpt>
      <trkpt lat="48.68936" lon="-3.69814">
        <ele>32</ele>
        <time>2025-06-30T11:24:33Z</time>
      </trkpt>
      <trkpt lat="48.68943" lon="-3.69794">
        <ele>32.4</ele>
        <time>2025-06-30T11:24:35Z</time>
      </trkpt>
      <trkpt lat="48.6895" lon="-3.69775">
        <ele>32.7</ele>
        <time>2025-06-30T11:24:37Z</time>
      </trkpt>
      <trkpt lat="48.68957" lon="-3.69756">
        <ele>33.1</ele>
        <time>2025-06-30T11:24:39Z</time>
      </trkpt>
      <trkpt lat="48.68965" lon="-3.69738">
        <ele>33.3</ele>
        <time>2025-06-30T11:24:41Z</time>
      </trkpt>
      <trkpt lat="48.68973" lon="-3.6972">
        <ele>33.5</ele>
        <time>2025-06-30T11:24:43Z</time>
      </trkpt>
      <trkpt lat="48.68979" lon="-3.69701">
        <ele>33.7</ele>
        <time>2025-06-30T11:24:45Z</time>
      </trkpt>
      <trkpt lat="48.68986" lon="-3.69684">
        <ele>33.9</ele>
        <time>2025-06-30T11:24:47Z</time>
      </trkpt>
      <trkpt lat="48.68994" lon="-3.69668">
        <ele>34.2</ele>
        <time>2025-06-30T11:24:49Z</time>
      </trkpt>
      <trkpt lat="48.69001" lon="-3.69651">
        <ele>34.4</ele>
        <time>2025-06-30T11:24:51Z</time>
      </trkpt>
      <trkpt lat="48.69008" lon="-3.69633">
        <ele>34.6</ele>
        <time>2025-06-30T11:24:53Z</time>
      </trkpt>
      <trkpt lat="48.69015" lon="-3.69616">
        <ele>34.9</ele>
        <time>2025-06-30T11:24:55Z</time>
      </trkpt>
      <trkpt lat="48.69022" lon="-3.69599">
        <ele>35.1</ele>
        <time>2025-06-30T11:24:57Z</time>
      </trkpt>
      <trkpt lat="48.69028" lon="-3.69581">
        <ele>35.2</ele>
        <time>2025-06-30T11:24:59Z</time>
      </trkpt>
      <trkpt lat="48.69032" lon="-3.69562">
        <ele>35.3</ele>
        <time>2025-06-30T11:25:01Z</time>
      </trkpt>
      <trkpt lat="48.69036" lon="-3.69543">
        <ele>35.4</ele>
        <time>2025-06-30T11:25:03Z</time>
      </trkpt>
      <trkpt lat="48.69037" lon="-3.69523">
        <ele>35.5</ele>
        <time>2025-06-30T11:25:05Z</time>
      </trkpt>
      <trkpt lat="48.69035" lon="-3.69504">
        <ele>35.6</ele>
        <time>2025-06-30T11:25:07Z</time>
      </trkpt>
      <trkpt lat="48.69032" lon="-3.69485">
        <ele>35.7</ele>
        <time>2025-06-30T11:25:09Z</time>
      </trkpt>
      <trkpt lat="48.69029" lon="-3.69467">
        <ele>35.8</ele>
        <time>2025-06-30T11:25:11Z</time>
      </trkpt>
      <trkpt lat="48.69025" lon="-3.69448">
        <ele>35.9</ele>
        <time>2025-06-30T11:25:13Z</time>
      </trkpt>
      <trkpt lat="48.6902" lon="-3.6943">
        <ele>36</ele>
        <time>2025-06-30T11:25:15Z</time>
      </trkpt>
      <trkpt lat="48.69015" lon="-3.69413">
        <ele>36.4</ele>
        <time>2025-06-30T11:25:17Z</time>
      </trkpt>
      <trkpt lat="48.6901" lon="-3.69396">
        <ele>36.7</ele>
        <time>2025-06-30T11:25:19Z</time>
      </trkpt>
      <trkpt lat="48.69004" lon="-3.6938">
        <ele>37.1</ele>
        <time>2025-06-30T11:25:21Z</time>
      </trkpt>
      <trkpt lat="48.69" lon="-3.69363">
        <ele>37.5</ele>
        <time>2025-06-30T11:25:23Z</time>
      </trkpt>
      <trkpt lat="48.68996" lon="-3.69347">
        <ele>37.9</ele>
        <time>2025-06-30T11:25:25Z</time>
      </trkpt>
      <trkpt lat="48.68995" lon="-3.6933">
        <ele>38.3</ele>
        <time>2025-06-30T11:25:27Z</time>
      </trkpt>
      <trkpt lat="48.68996" lon="-3.69314">
        <ele>38.7</ele>
        <time>2025-06-30T11:25:29Z</time>
      </trkpt>
      <trkpt lat="48.68998" lon="-3.69298">
        <ele>39</ele>
        <time>2025-06-30T11:25:31Z</time>
      </trkpt>
      <trkpt lat="48.69002" lon="-3.69283">
        <ele>39.3</ele>
        <time>2025-06-30T11:25:33Z</time>
      </trkpt>
      <trkpt lat="48.69005" lon="-3.69268">
        <ele>39.6</ele>
        <time>2025-06-30T11:25:35Z</time>
      </trkpt>
      <trkpt lat="48.69009" lon="-3.69252">
        <ele>39.9</ele>
        <time>2025-06-30T11:25:37Z</time>
      </trkpt>
      <trkpt lat="48.69013" lon="-3.69237">
        <ele>40.2</ele>
        <time>2025-06-30T11:25:39Z</time>
      </trkpt>
      <trkpt lat="48.69017" lon="-3.69221">
        <ele>40.5</ele>
        <time>2025-06-30T11:25:41Z</time>
      </trkpt>
      <trkpt lat="48.69021" lon="-3.69205">
        <ele>40.7</ele>
        <time>2025-06-30T11:25:43Z</time>
      </trkpt>
      <trkpt lat="48.69026" lon="-3.6919">
        <ele>40.9</ele>
        <time>2025-06-30T11:25:45Z</time>
      </trkpt>
      <trkpt lat="48.6903" lon="-3.69174">
        <ele>41.2</ele>
        <time>2025-06-30T11:25:47Z</time>
      </trkpt>
      <trkpt lat="48.69035" lon="-3.69158">
        <ele>41.4</ele>
        <time>2025-06-30T11:25:49Z</time>
      </trkpt>
      <trkpt lat="48.69039" lon="-3.69143">
        <ele>41.6</ele>
        <time>2025-06-30T11:25:51Z</time>
      </trkpt>
      <trkpt lat="48.69044" lon="-3.69127">
        <ele>41.7</ele>
        <time>2025-06-30T11:25:53Z</time>
      </trkpt>
      <trkpt lat="48.69048" lon="-3.69111">
        <ele>41.9</ele>
        <time>2025-06-30T11:25:55Z</time>
      </trkpt>
      <trkpt lat="48.69053" lon="-3.69096">
        <ele>42.2</ele>
        <time>2025-06-30T11:25:57Z</time>
      </trkpt>
      <trkpt lat="48.69057" lon="-3.69081">
        <ele>42.4</ele>
        <time>2025-06-30T11:25:59Z</time>
      </trkpt>
      <trkpt lat="48.69062" lon="-3.69065">
        <ele>42.7</ele>
        <time>2025-06-30T11:26:01Z</time>
      </trkpt>
      <trkpt lat="48.69066" lon="-3.6905">
        <ele>43</ele>
        <time>2025-06-30T11:26:03Z</time>
      </trkpt>
      <trkpt lat="48.69071" lon="-3.69035">
        <ele>43.2</ele>
        <time>2025-06-30T11:26:05Z</time>
      </trkpt>
      <trkpt lat="48.69076" lon="-3.69019">
        <ele>43.5</ele>
        <time>2025-06-30T11:26:07Z</time>
      </trkpt>
      <trkpt lat="48.69081" lon="-3.69004">
        <ele>43.7</ele>
        <time>2025-06-30T11:26:09Z</time>
      </trkpt>
      <trkpt lat="48.69085" lon="-3.68988">
        <ele>43.9</ele>
        <time>2025-06-30T11:26:11Z</time>
      </trkpt>
      <trkpt lat="48.6909" lon="-3.68972">
        <ele>44.1</ele>
        <time>2025-06-30T11:26:13Z</time>
      </trkpt>
      <trkpt lat="48.69094" lon="-3.68955">
        <ele>44.2</ele>
        <time>2025-06-30T11:26:15Z</time>
      </trkpt>
      <trkpt lat="48.69096" lon="-3.68937">
        <ele>44.4</ele>
        <time>2025-06-30T11:26:17Z</time>
      </trkpt>
      <trkpt lat="48.69094" lon="-3.6892">
        <ele>44.6</ele>
        <time>2025-06-30T11:26:19Z</time>
      </trkpt>
      <trkpt lat="48.69091" lon="-3.68903">
        <ele>44.8</ele>
        <time>2025-06-30T11:26:21Z</time>
      </trkpt>
      <trkpt lat="48.69086" lon="-3.68887">
        <ele>44.9</ele>
        <time>2025-06-30T11:26:23Z</time>
      </trkpt>
      <trkpt lat="48.69081" lon="-3.68871">
        <ele>45</ele>
        <time>2025-06-30T11:26:25Z</time>
      </trkpt>
      <trkpt lat="48.69073" lon="-3.68858">
        <ele>45</ele>
        <time>2025-06-30T11:26:27Z</time>
      </trkpt>
      <trkpt lat="48.69063" lon="-3.68847">
        <ele>45.1</ele>
        <time>2025-06-30T11:26:29Z</time>
      </trkpt>
      <trkpt lat="48.69051" lon="-3.68841">
        <ele>45.3</ele>
        <time>2025-06-30T11:26:31Z</time>
      </trkpt>
      <trkpt lat="48.69039" lon="-3.68839">
        <ele>45.6</ele>
        <time>2025-06-30T11:26:33Z</time>
      </trkpt>
      <trkpt lat="48.69027" lon="-3.6884">
        <ele>46</ele>
        <time>2025-06-30T11:26:35Z</time>
      </trkpt>
      <trkpt lat="48.69015" lon="-3.6884">
        <ele>46.4</ele>
        <time>2025-06-30T11:26:37Z</time>
      </trkpt>
      <trkpt lat="48.69005" lon="-3.68839">
        <ele>46.9</ele>
        <time>2025-06-30T11:26:39Z</time>
      </trkpt>
      <trkpt lat="48.68994" lon="-3.68836">
        <ele>47.4</ele>
        <time>2025-06-30T11:26:41Z</time>
      </trkpt>
      <trkpt lat="48.68984" lon="-3.68831">
        <ele>47.9</ele>
        <time>2025-06-30T11:26:43Z</time>
      </trkpt>
      <trkpt lat="48.68976" lon="-3.68823">
        <ele>48.4</ele>
        <time>2025-06-30T11:26:45Z</time>
      </trkpt>
      <trkpt lat="48.68968" lon="-3.68813">
        <ele>48.9</ele>
        <time>2025-06-30T11:26:47Z</time>
      </trkpt>
      <trkpt lat="48.68961" lon="-3.68803">
        <ele>49.3</ele>
        <time>2025-06-30T11:26:49Z</time>
      </trkpt>
      <trkpt lat="48.68956" lon="-3.68791">
        <ele>49.7</ele>
        <time>2025-06-30T11:26:51Z</time>
      </trkpt>
      <trkpt lat="48.6895" lon="-3.68778">
        <ele>50.1</ele>
        <time>2025-06-30T11:26:53Z</time>
      </trkpt>
      <trkpt lat="48.68946" lon="-3.68765">
        <ele>50.4</ele>
        <time>2025-06-30T11:26:55Z</time>
      </trkpt>
      <trkpt lat="48.68942" lon="-3.68752">
        <ele>50.6</ele>
        <time>2025-06-30T11:26:57Z</time>
      </trkpt>
      <trkpt lat="48.68938" lon="-3.68739">
        <ele>50.7</ele>
        <time>2025-06-30T11:26:59Z</time>
      </trkpt>
      <trkpt lat="48.68934" lon="-3.68726">
        <ele>50.7</ele>
        <time>2025-06-30T11:27:01Z</time>
      </trkpt>
      <trkpt lat="48.68928" lon="-3.68708">
        <ele>50.5</ele>
        <time>2025-06-30T11:27:04Z</time>
      </trkpt>
      <trkpt lat="48.68924" lon="-3.68696">
        <ele>50.1</ele>
        <time>2025-06-30T11:27:06Z</time>
      </trkpt>
      <trkpt lat="48.68917" lon="-3.68686">
        <ele>49.6</ele>
        <time>2025-06-30T11:27:08Z</time>
      </trkpt>
      <trkpt lat="48.68908" lon="-3.68677">
        <ele>49</ele>
        <time>2025-06-30T11:27:10Z</time>
      </trkpt>
      <trkpt lat="48.68897" lon="-3.68671">
        <ele>48.2</ele>
        <time>2025-06-30T11:27:12Z</time>
      </trkpt>
      <trkpt lat="48.68883" lon="-3.6867">
        <ele>47.3</ele>
        <time>2025-06-30T11:27:14Z</time>
      </trkpt>
      <trkpt lat="48.68868" lon="-3.68672">
        <ele>46.3</ele>
        <time>2025-06-30T11:27:16Z</time>
      </trkpt>
      <trkpt lat="48.68852" lon="-3.68673">
        <ele>45.3</ele>
        <time>2025-06-30T11:27:18Z</time>
      </trkpt>
      <trkpt lat="48.68835" lon="-3.68673">
        <ele>44.4</ele>
        <time>2025-06-30T11:27:20Z</time>
      </trkpt>
      <trkpt lat="48.68818" lon="-3.68674">
        <ele>43.4</ele>
        <time>2025-06-30T11:27:22Z</time>
      </trkpt>
      <trkpt lat="48.688" lon="-3.68673">
        <ele>42.4</ele>
        <time>2025-06-30T11:27:24Z</time>
      </trkpt>
      <trkpt lat="48.68791" lon="-3.68672">
        <ele>41.8</ele>
        <time>2025-06-30T11:27:25Z</time>
      </trkpt>
      <trkpt lat="48.68782" lon="-3.6867">
        <ele>41.1</ele>
        <time>2025-06-30T11:27:26Z</time>
      </trkpt>
      <trkpt lat="48.68773" lon="-3.68667">
        <ele>40.4</ele>
        <time>2025-06-30T11:27:27Z</time>
      </trkpt>
      <trkpt lat="48.68763" lon="-3.68662">
        <ele>39.7</ele>
        <time>2025-06-30T11:27:28Z</time>
      </trkpt>
      <trkpt lat="48.68755" lon="-3.68654">
        <ele>39</ele>
        <time>2025-06-30T11:27:29Z</time>
      </trkpt>
      <trkpt lat="48.68747" lon="-3.68643">
        <ele>38.2</ele>
        <time>2025-06-30T11:27:30Z</time>
      </trkpt>
      <trkpt lat="48.68741" lon="-3.6863">
        <ele>37.4</ele>
        <time>2025-06-30T11:27:31Z</time>
      </trkpt>
      <trkpt lat="48.68736" lon="-3.68614">
        <ele>36.6</ele>
        <time>2025-06-30T11:27:32Z</time>
      </trkpt>
      <trkpt lat="48.68733" lon="-3.68598">
        <ele>35.9</ele>
        <time>2025-06-30T11:27:33Z</time>
      </trkpt>
      <trkpt lat="48.68731" lon="-3.68581">
        <ele>35.3</ele>
        <time>2025-06-30T11:27:34Z</time>
      </trkpt>
      <trkpt lat="48.68729" lon="-3.68564">
        <ele>34.7</ele>
        <time>2025-06-30T11:27:35Z</time>
      </trkpt>
      <trkpt lat="48.68727" lon="-3.68547">
        <ele>34.1</ele>
        <time>2025-06-30T11:27:36Z</time>
      </trkpt>
      <trkpt lat="48.68725" lon="-3.6853">
        <ele>33.5</ele>
        <time>2025-06-30T11:27:37Z</time>
      </trkpt>
      <trkpt lat="48.68724" lon="-3.68513">
        <ele>32.8</ele>
        <time>2025-06-30T11:27:38Z</time>
      </trkpt>
      <trkpt lat="48.68722" lon="-3.68495">
        <ele>32.2</ele>
        <time>2025-06-30T11:27:39Z</time>
      </trkpt>
      <trkpt lat="48.6872" lon="-3.68477">
        <ele>31.5</ele>
        <time>2025-06-30T11:27:40Z</time>
      </trkpt>
      <trkpt lat="48.68718" lon="-3.68459">
        <ele>30.9</ele>
        <time>2025-06-30T11:27:41Z</time>
      </trkpt>
      <trkpt lat="48.68716" lon="-3.68441">
        <ele>30.2</ele>
        <time>2025-06-30T11:27:42Z</time>
      </trkpt>
      <trkpt lat="48.68712" lon="-3.68423">
        <ele>29.6</ele>
        <time>2025-06-30T11:27:43Z</time>
      </trkpt>
      <trkpt lat="48.6871" lon="-3.68405">
        <ele>28.9</ele>
        <time>2025-06-30T11:27:44Z</time>
      </trkpt>
      <trkpt lat="48.68709" lon="-3.68386">
        <ele>28.2</ele>
        <time>2025-06-30T11:27:45Z</time>
      </trkpt>
      <trkpt lat="48.68707" lon="-3.68367">
        <ele>27.4</ele>
        <time>2025-06-30T11:27:46Z</time>
      </trkpt>
      <trkpt lat="48.68704" lon="-3.68349">
        <ele>26.8</ele>
        <time>2025-06-30T11:27:47Z</time>
      </trkpt>
      <trkpt lat="48.68701" lon="-3.6833">
        <ele>26.2</ele>
        <time>2025-06-30T11:27:48Z</time>
      </trkpt>
      <trkpt lat="48.68698" lon="-3.68312">
        <ele>25.7</ele>
        <time>2025-06-30T11:27:49Z</time>
      </trkpt>
      <trkpt lat="48.68695" lon="-3.68293">
        <ele>25.4</ele>
        <time>2025-06-30T11:27:50Z</time>
      </trkpt>
      <trkpt lat="48.68692" lon="-3.68276">
        <ele>25</ele>
        <time>2025-06-30T11:27:51Z</time>
      </trkpt>
      <trkpt lat="48.68688" lon="-3.6826">
        <ele>24.7</ele>
        <time>2025-06-30T11:27:52Z</time>
      </trkpt>
      <trkpt lat="48.68684" lon="-3.68243">
        <ele>24.4</ele>
        <time>2025-06-30T11:27:53Z</time>
      </trkpt>
      <trkpt lat="48.6868" lon="-3.68228">
        <ele>24.1</ele>
        <time>2025-06-30T11:27:54Z</time>
      </trkpt>
      <trkpt lat="48.68675" lon="-3.68213">
        <ele>23.8</ele>
        <time>2025-06-30T11:27:55Z</time>
      </trkpt>
      <trkpt lat="48.6867" lon="-3.68199">
        <ele>23.5</ele>
        <time>2025-06-30T11:27:56Z</time>
      </trkpt>
      <trkpt lat="48.68664" lon="-3.68184">
        <ele>23.2</ele>
        <time>2025-06-30T11:27:57Z</time>
      </trkpt>
      <trkpt lat="48.68659" lon="-3.6817">
        <ele>22.9</ele>
        <time>2025-06-30T11:27:58Z</time>
      </trkpt>
      <trkpt lat="48.68654" lon="-3.68156">
        <ele>22.6</ele>
        <time>2025-06-30T11:27:59Z</time>
      </trkpt>
      <trkpt lat="48.68649" lon="-3.68142">
        <ele>22.4</ele>
        <time>2025-06-30T11:28:00Z</time>
      </trkpt>
      <trkpt lat="48.68645" lon="-3.68127">
        <ele>22.1</ele>
        <time>2025-06-30T11:28:01Z</time>
      </trkpt>
      <trkpt lat="48.68641" lon="-3.68112">
        <ele>21.9</ele>
        <time>2025-06-30T11:28:02Z</time>
      </trkpt>
      <trkpt lat="48.68639" lon="-3.68098">
        <ele>21.6</ele>
        <time>2025-06-30T11:28:03Z</time>
      </trkpt>
      <trkpt lat="48.68636" lon="-3.68082">
        <ele>21.3</ele>
        <time>2025-06-30T11:28:04Z</time>
      </trkpt>
      <trkpt lat="48.68634" lon="-3.68067">
        <ele>20.9</ele>
        <time>2025-06-30T11:28:05Z</time>
      </trkpt>
      <trkpt lat="48.68633" lon="-3.68051">
        <ele>20.5</ele>
        <time>2025-06-30T11:28:06Z</time>
      </trkpt>
      <trkpt lat="48.68633" lon="-3.68035">
        <ele>20</ele>
        <time>2025-06-30T11:28:07Z</time>
      </trkpt>
      <trkpt lat="48.68634" lon="-3.68019">
        <ele>19.6</ele>
        <time>2025-06-30T11:28:08Z</time>
      </trkpt>
      <trkpt lat="48.68634" lon="-3.68002">
        <ele>19.1</ele>
        <time>2025-06-30T11:28:09Z</time>
      </trkpt>
      <trkpt lat="48.68634" lon="-3.67986">
        <ele>18.6</ele>
        <time>2025-06-30T11:28:10Z</time>
      </trkpt>
      <trkpt lat="48.68635" lon="-3.67968">
        <ele>17.8</ele>
        <time>2025-06-30T11:28:11Z</time>
      </trkpt>
      <trkpt lat="48.68635" lon="-3.67951">
        <ele>17.1</ele>
        <time>2025-06-30T11:28:12Z</time>
      </trkpt>
      <trkpt lat="48.68633" lon="-3.67934">
        <ele>16.3</ele>
        <time>2025-06-30T11:28:13Z</time>
      </trkpt>
      <trkpt lat="48.68634" lon="-3.67915">
        <ele>15.4</ele>
        <time>2025-06-30T11:28:14Z</time>
      </trkpt>
      <trkpt lat="48.68634" lon="-3.67895">
        <ele>14.5</ele>
        <time>2025-06-30T11:28:15Z</time>
      </trkpt>
      <trkpt lat="48.68631" lon="-3.67878">
        <ele>13.7</ele>
        <time>2025-06-30T11:28:16Z</time>
      </trkpt>
      <trkpt lat="48.68627" lon="-3.67861">
        <ele>12.9</ele>
        <time>2025-06-30T11:28:17Z</time>
      </trkpt>
      <trkpt lat="48.68626" lon="-3.67843">
        <ele>12.2</ele>
        <time>2025-06-30T11:28:18Z</time>
      </trkpt>
      <trkpt lat="48.68625" lon="-3.67823">
        <ele>11.5</ele>
        <time>2025-06-30T11:28:19Z</time>
      </trkpt>
      <trkpt lat="48.68623" lon="-3.67804">
        <ele>11</ele>
        <time>2025-06-30T11:28:20Z</time>
      </trkpt>
      <trkpt lat="48.68622" lon="-3.67785">
        <ele>10.6</ele>
        <time>2025-06-30T11:28:21Z</time>
      </trkpt>
      <trkpt lat="48.68619" lon="-3.67767">
        <ele>10.2</ele>
        <time>2025-06-30T11:28:22Z</time>
      </trkpt>
      <trkpt lat="48.68616" lon="-3.67753">
        <ele>10</ele>
        <time>2025-06-30T11:28:23Z</time>
      </trkpt>
      <trkpt lat="48.6861" lon="-3.67731">
        <ele>9.7</ele>
        <time>2025-06-30T11:28:25Z</time>
      </trkpt>
      <trkpt lat="48.68603" lon="-3.67713">
        <ele>9.6</ele>
        <time>2025-06-30T11:28:27Z</time>
      </trkpt>
      <trkpt lat="48.68598" lon="-3.67697">
        <ele>9.5</ele>
        <time>2025-06-30T11:28:29Z</time>
      </trkpt>
      <trkpt lat="48.68591" lon="-3.67684">
        <ele>9.5</ele>
        <time>2025-06-30T11:28:32Z</time>
      </trkpt>
      <trkpt lat="48.68598" lon="-3.67672">
        <ele>9.2</ele>
        <time>2025-06-30T11:28:35Z</time>
      </trkpt>
      <trkpt lat="48.68607" lon="-3.67662">
        <ele>8.9</ele>
        <time>2025-06-30T11:28:37Z</time>
      </trkpt>
      <trkpt lat="48.68618" lon="-3.6765">
        <ele>8.6</ele>
        <time>2025-06-30T11:28:39Z</time>
      </trkpt>
      <trkpt lat="48.6863" lon="-3.67636">
        <ele>8.3</ele>
        <time>2025-06-30T11:28:41Z</time>
      </trkpt>
      <trkpt lat="48.68642" lon="-3.67621">
        <ele>8.1</ele>
        <time>2025-06-30T11:28:43Z</time>
      </trkpt>
      <trkpt lat="48.68652" lon="-3.67602">
        <ele>8.1</ele>
        <time>2025-06-30T11:28:45Z</time>
      </trkpt>
      <trkpt lat="48.68661" lon="-3.67582">
        <ele>8.2</ele>
        <time>2025-06-30T11:28:47Z</time>
      </trkpt>
      <trkpt lat="48.68668" lon="-3.67561">
        <ele>8.2</ele>
        <time>2025-06-30T11:28:49Z</time>
      </trkpt>
      <trkpt lat="48.68674" lon="-3.67539">
        <ele>8.3</ele>
        <time>2025-06-30T11:28:51Z</time>
      </trkpt>
      <trkpt lat="48.68678" lon="-3.67517">
        <ele>8.3</ele>
        <time>2025-06-30T11:28:53Z</time>
      </trkpt>
      <trkpt lat="48.68681" lon="-3.67494">
        <ele>8.5</ele>
        <time>2025-06-30T11:28:55Z</time>
      </trkpt>
      <trkpt lat="48.68684" lon="-3.67472">
        <ele>8.7</ele>
        <time>2025-06-30T11:28:57Z</time>
      </trkpt>
      <trkpt lat="48.68685" lon="-3.6745">
        <ele>9.1</ele>
        <time>2025-06-30T11:28:59Z</time>
      </trkpt>
      <trkpt lat="48.68686" lon="-3.67429">
        <ele>9.5</ele>
        <time>2025-06-30T11:29:01Z</time>
      </trkpt>
      <trkpt lat="48.68684" lon="-3.67409">
        <ele>9.9</ele>
        <time>2025-06-30T11:29:03Z</time>
      </trkpt>
      <trkpt lat="48.68681" lon="-3.6739">
        <ele>10.5</ele>
        <time>2025-06-30T11:29:05Z</time>
      </trkpt>
      <trkpt lat="48.68677" lon="-3.67372">
        <ele>11.1</ele>
        <time>2025-06-30T11:29:07Z</time>
      </trkpt>
      <trkpt lat="48.68673" lon="-3.67354">
        <ele>11.7</ele>
        <time>2025-06-30T11:29:09Z</time>
      </trkpt>
      <trkpt lat="48.68668" lon="-3.67338">
        <ele>12.2</ele>
        <time>2025-06-30T11:29:11Z</time>
      </trkpt>
      <trkpt lat="48.68662" lon="-3.67322">
        <ele>12.8</ele>
        <time>2025-06-30T11:29:13Z</time>
      </trkpt>
      <trkpt lat="48.68656" lon="-3.67308">
        <ele>13.3</ele>
        <time>2025-06-30T11:29:15Z</time>
      </trkpt>
      <trkpt lat="48.68649" lon="-3.67294">
        <ele>13.8</ele>
        <time>2025-06-30T11:29:17Z</time>
      </trkpt>
      <trkpt lat="48.68643" lon="-3.67281">
        <ele>14.3</ele>
        <time>2025-06-30T11:29:19Z</time>
      </trkpt>
      <trkpt lat="48.68636" lon="-3.67268">
        <ele>14.8</ele>
        <time>2025-06-30T11:29:21Z</time>
      </trkpt>
      <trkpt lat="48.6863" lon="-3.67256">
        <ele>15.4</ele>
        <time>2025-06-30T11:29:23Z</time>
      </trkpt>
      <trkpt lat="48.68624" lon="-3.67243">
        <ele>16</ele>
        <time>2025-06-30T11:29:25Z</time>
      </trkpt>
      <trkpt lat="48.68618" lon="-3.67231">
        <ele>16.6</ele>
        <time>2025-06-30T11:29:27Z</time>
      </trkpt>
      <trkpt lat="48.68614" lon="-3.67218">
        <ele>17.1</ele>
        <time>2025-06-30T11:29:29Z</time>
      </trkpt>
      <trkpt lat="48.68609" lon="-3.67206">
        <ele>17.7</ele>
        <time>2025-06-30T11:29:31Z</time>
      </trkpt>
      <trkpt lat="48.68606" lon="-3.67194">
        <ele>18.3</ele>
        <time>2025-06-30T11:29:33Z</time>
      </trkpt>
      <trkpt lat="48.68602" lon="-3.67174">
        <ele>19.2</ele>
        <time>2025-06-30T11:29:36Z</time>
      </trkpt>
      <trkpt lat="48.686" lon="-3.67155">
        <ele>20</ele>
        <time>2025-06-30T11:29:39Z</time>
      </trkpt>
      <trkpt lat="48.68601" lon="-3.67135">
        <ele>20.8</ele>
        <time>2025-06-30T11:29:42Z</time>
      </trkpt>
      <trkpt lat="48.68601" lon="-3.67116">
        <ele>21.5</ele>
        <time>2025-06-30T11:29:45Z</time>
      </trkpt>
      <trkpt lat="48.68601" lon="-3.67097">
        <ele>22.2</ele>
        <time>2025-06-30T11:29:48Z</time>
      </trkpt>
      <trkpt lat="48.68604" lon="-3.6708">
        <ele>22.9</ele>
        <time>2025-06-30T11:29:51Z</time>
      </trkpt>
      <trkpt lat="48.68607" lon="-3.67062">
        <ele>23.6</ele>
        <time>2025-06-30T11:29:54Z</time>
      </trkpt>
      <trkpt lat="48.68609" lon="-3.67044">
        <ele>24.4</ele>
        <time>2025-06-30T11:29:57Z</time>
      </trkpt>
      <trkpt lat="48.68611" lon="-3.67026">
        <ele>25.2</ele>
        <time>2025-06-30T11:30:00Z</time>
      </trkpt>
      <trkpt lat="48.68612" lon="-3.6701">
        <ele>26</ele>
        <time>2025-06-30T11:30:03Z</time>
      </trkpt>
      <trkpt lat="48.68613" lon="-3.66993">
        <ele>26.7</ele>
        <time>2025-06-30T11:30:06Z</time>
      </trkpt>
      <trkpt lat="48.68614" lon="-3.66976">
        <ele>27.5</ele>
        <time>2025-06-30T11:30:09Z</time>
      </trkpt>
      <trkpt lat="48.68615" lon="-3.66959">
        <ele>28.2</ele>
        <time>2025-06-30T11:30:12Z</time>
      </trkpt>
      <trkpt lat="48.68617" lon="-3.66943">
        <ele>28.9</ele>
        <time>2025-06-30T11:30:15Z</time>
      </trkpt>
      <trkpt lat="48.68619" lon="-3.66927">
        <ele>29.7</ele>
        <time>2025-06-30T11:30:18Z</time>
      </trkpt>
      <trkpt lat="48.6862" lon="-3.66911">
        <ele>30.4</ele>
        <time>2025-06-30T11:30:21Z</time>
      </trkpt>
      <trkpt lat="48.68621" lon="-3.66895">
        <ele>31.2</ele>
        <time>2025-06-30T11:30:24Z</time>
      </trkpt>
      <trkpt lat="48.68623" lon="-3.66879">
        <ele>32</ele>
        <time>2025-06-30T11:30:27Z</time>
      </trkpt>
      <trkpt lat="48.68625" lon="-3.66864">
        <ele>32.7</ele>
        <time>2025-06-30T11:30:30Z</time>
      </trkpt>
      <trkpt lat="48.68627" lon="-3.6685">
        <ele>33.4</ele>
        <time>2025-06-30T11:30:33Z</time>
      </trkpt>
      <trkpt lat="48.6863" lon="-3.66836">
        <ele>34.2</ele>
        <time>2025-06-30T11:30:36Z</time>
      </trkpt>
      <trkpt lat="48.68634" lon="-3.66822">
        <ele>34.8</ele>
        <time>2025-06-30T11:30:39Z</time>
      </trkpt>
      <trkpt lat="48.68638" lon="-3.66809">
        <ele>35.5</ele>
        <time>2025-06-30T11:30:42Z</time>
      </trkpt>
      <trkpt lat="48.68643" lon="-3.66796">
        <ele>36.2</ele>
        <time>2025-06-30T11:30:45Z</time>
      </trkpt>
      <trkpt lat="48.6865" lon="-3.66784">
        <ele>36.8</ele>
        <time>2025-06-30T11:30:48Z</time>
      </trkpt>
      <trkpt lat="48.68656" lon="-3.66772">
        <ele>37.5</ele>
        <time>2025-06-30T11:30:51Z</time>
      </trkpt>
      <trkpt lat="48.68664" lon="-3.66762">
        <ele>38.2</ele>
        <time>2025-06-30T11:30:54Z</time>
      </trkpt>
      <trkpt lat="48.68672" lon="-3.66752">
        <ele>38.9</ele>
        <time>2025-06-30T11:30:57Z</time>
      </trkpt>
      <trkpt lat="48.6868" lon="-3.66742">
        <ele>39.6</ele>
        <time>2025-06-30T11:31:00Z</time>
      </trkpt>
      <trkpt lat="48.68688" lon="-3.66733">
        <ele>40.3</ele>
        <time>2025-06-30T11:31:03Z</time>
      </trkpt>
      <trkpt lat="48.68696" lon="-3.66724">
        <ele>41</ele>
        <time>2025-06-30T11:31:06Z</time>
      </trkpt>
      <trkpt lat="48.68703" lon="-3.66713">
        <ele>41.6</ele>
        <time>2025-06-30T11:31:09Z</time>
      </trkpt>
      <trkpt lat="48.6871" lon="-3.66702">
        <ele>42.2</ele>
        <time>2025-06-30T11:31:12Z</time>
      </trkpt>
      <trkpt lat="48.68716" lon="-3.6669">
        <ele>42.7</ele>
        <time>2025-06-30T11:31:15Z</time>
      </trkpt>
      <trkpt lat="48.68722" lon="-3.66677">
        <ele>43.1</ele>
        <time>2025-06-30T11:31:18Z</time>
      </trkpt>
      <trkpt lat="48.68727" lon="-3.66663">
        <ele>43.4</ele>
        <time>2025-06-30T11:31:21Z</time>
      </trkpt>
      <trkpt lat="48.68732" lon="-3.66647">
        <ele>43.6</ele>
        <time>2025-06-30T11:31:24Z</time>
      </trkpt>
      <trkpt lat="48.68734" lon="-3.66628">
        <ele>43.6</ele>
        <time>2025-06-30T11:31:27Z</time>
      </trkpt>
      <trkpt lat="48.68735" lon="-3.66613">
        <ele>43.6</ele>
        <time>2025-06-30T11:31:29Z</time>
      </trkpt>
      <trkpt lat="48.68735" lon="-3.66597">
        <ele>43.6</ele>
        <time>2025-06-30T11:31:31Z</time>
      </trkpt>
      <trkpt lat="48.68736" lon="-3.66581">
        <ele>43.6</ele>
        <time>2025-06-30T11:31:33Z</time>
      </trkpt>
      <trkpt lat="48.68736" lon="-3.66564">
        <ele>43.7</ele>
        <time>2025-06-30T11:31:35Z</time>
      </trkpt>
      <trkpt lat="48.68736" lon="-3.66546">
        <ele>43.8</ele>
        <time>2025-06-30T11:31:37Z</time>
      </trkpt>
      <trkpt lat="48.68736" lon="-3.66529">
        <ele>43.9</ele>
        <time>2025-06-30T11:31:39Z</time>
      </trkpt>
      <trkpt lat="48.68736" lon="-3.66511">
        <ele>44</ele>
        <time>2025-06-30T11:31:41Z</time>
      </trkpt>
      <trkpt lat="48.68736" lon="-3.66494">
        <ele>44.1</ele>
        <time>2025-06-30T11:31:43Z</time>
      </trkpt>
      <trkpt lat="48.68735" lon="-3.66476">
        <ele>44.3</ele>
        <time>2025-06-30T11:31:45Z</time>
      </trkpt>
      <trkpt lat="48.68735" lon="-3.66458">
        <ele>44.5</ele>
        <time>2025-06-30T11:31:47Z</time>
      </trkpt>
      <trkpt lat="48.68734" lon="-3.66441">
        <ele>44.8</ele>
        <time>2025-06-30T11:31:49Z</time>
      </trkpt>
      <trkpt lat="48.68734" lon="-3.66423">
        <ele>45</ele>
        <time>2025-06-30T11:31:51Z</time>
      </trkpt>
      <trkpt lat="48.68734" lon="-3.66405">
        <ele>45.2</ele>
        <time>2025-06-30T11:31:53Z</time>
      </trkpt>
      <trkpt lat="48.68735" lon="-3.66388">
        <ele>45.5</ele>
        <time>2025-06-30T11:31:55Z</time>
      </trkpt>
      <trkpt lat="48.68735" lon="-3.66371">
        <ele>45.6</ele>
        <time>2025-06-30T11:31:57Z</time>
      </trkpt>
      <trkpt lat="48.68736" lon="-3.66353">
        <ele>45.8</ele>
        <time>2025-06-30T11:31:59Z</time>
      </trkpt>
      <trkpt lat="48.68738" lon="-3.66335">
        <ele>45.9</ele>
        <time>2025-06-30T11:32:01Z</time>
      </trkpt>
      <trkpt lat="48.6874" lon="-3.66318">
        <ele>46</ele>
        <time>2025-06-30T11:32:03Z</time>
      </trkpt>
      <trkpt lat="48.68743" lon="-3.663">
        <ele>46.1</ele>
        <time>2025-06-30T11:32:05Z</time>
      </trkpt>
      <trkpt lat="48.68747" lon="-3.66283">
        <ele>46.2</ele>
        <time>2025-06-30T11:32:07Z</time>
      </trkpt>
      <trkpt lat="48.68752" lon="-3.66265">
        <ele>46.3</ele>
        <time>2025-06-30T11:32:09Z</time>
      </trkpt>
      <trkpt lat="48.68757" lon="-3.66248">
        <ele>46.3</ele>
        <time>2025-06-30T11:32:11Z</time>
      </trkpt>
      <trkpt lat="48.68762" lon="-3.6623">
        <ele>46.4</ele>
        <time>2025-06-30T11:32:13Z</time>
      </trkpt>
      <trkpt lat="48.68766" lon="-3.66213">
        <ele>46.5</ele>
        <time>2025-06-30T11:32:15Z</time>
      </trkpt>
      <trkpt lat="48.68768" lon="-3.66194">
        <ele>46.5</ele>
        <time>2025-06-30T11:32:17Z</time>
      </trkpt>
      <trkpt lat="48.6877" lon="-3.66174">
        <ele>46.6</ele>
        <time>2025-06-30T11:32:19Z</time>
      </trkpt>
      <trkpt lat="48.68774" lon="-3.66154">
        <ele>46.7</ele>
        <time>2025-06-30T11:32:21Z</time>
      </trkpt>
      <trkpt lat="48.68777" lon="-3.66134">
        <ele>46.7</ele>
        <time>2025-06-30T11:32:23Z</time>
      </trkpt>
      <trkpt lat="48.68781" lon="-3.66114">
        <ele>46.8</ele>
        <time>2025-06-30T11:32:25Z</time>
      </trkpt>
      <trkpt lat="48.68786" lon="-3.66095">
        <ele>46.8</ele>
        <time>2025-06-30T11:32:27Z</time>
      </trkpt>
      <trkpt lat="48.68792" lon="-3.66077">
        <ele>46.8</ele>
        <time>2025-06-30T11:32:29Z</time>
      </trkpt>
      <trkpt lat="48.68798" lon="-3.66057">
        <ele>46.8</ele>
        <time>2025-06-30T11:32:31Z</time>
      </trkpt>
      <trkpt lat="48.68803" lon="-3.66037">
        <ele>46.8</ele>
        <time>2025-06-30T11:32:33Z</time>
      </trkpt>
      <trkpt lat="48.68809" lon="-3.66018">
        <ele>46.8</ele>
        <time>2025-06-30T11:32:35Z</time>
      </trkpt>
      <trkpt lat="48.68814" lon="-3.65998">
        <ele>46.7</ele>
        <time>2025-06-30T11:32:37Z</time>
      </trkpt>
      <trkpt lat="48.68818" lon="-3.65977">
        <ele>46.7</ele>
        <time>2025-06-30T11:32:39Z</time>
      </trkpt>
      <trkpt lat="48.68824" lon="-3.65957">
        <ele>46.7</ele>
        <time>2025-06-30T11:32:41Z</time>
      </trkpt>
      <trkpt lat="48.68832" lon="-3.65937">
        <ele>46.6</ele>
        <time>2025-06-30T11:32:43Z</time>
      </trkpt>
      <trkpt lat="48.68839" lon="-3.65917">
        <ele>46.6</ele>
        <time>2025-06-30T11:32:45Z</time>
      </trkpt>
      <trkpt lat="48.68848" lon="-3.65899">
        <ele>46.5</ele>
        <time>2025-06-30T11:32:47Z</time>
      </trkpt>
      <trkpt lat="48.68857" lon="-3.65881">
        <ele>46.4</ele>
        <time>2025-06-30T11:32:49Z</time>
      </trkpt>
      <trkpt lat="48.68865" lon="-3.65861">
        <ele>46.3</ele>
        <time>2025-06-30T11:32:51Z</time>
      </trkpt>
      <trkpt lat="48.68872" lon="-3.65841">
        <ele>46.3</ele>
        <time>2025-06-30T11:32:53Z</time>
      </trkpt>
      <trkpt lat="48.68879" lon="-3.65821">
        <ele>46.2</ele>
        <time>2025-06-30T11:32:55Z</time>
      </trkpt>
      <trkpt lat="48.68885" lon="-3.658">
        <ele>46.2</ele>
        <time>2025-06-30T11:32:57Z</time>
      </trkpt>
      <trkpt lat="48.68891" lon="-3.65779">
        <ele>46.1</ele>
        <time>2025-06-30T11:32:59Z</time>
      </trkpt>
      <trkpt lat="48.68897" lon="-3.65759">
        <ele>46</ele>
        <time>2025-06-30T11:33:01Z</time>
      </trkpt>
      <trkpt lat="48.68904" lon="-3.6574">
        <ele>46</ele>
        <time>2025-06-30T11:33:03Z</time>
      </trkpt>
      <trkpt lat="48.68912" lon="-3.65721">
        <ele>46.1</ele>
        <time>2025-06-30T11:33:05Z</time>
      </trkpt>
      <trkpt lat="48.6892" lon="-3.65704">
        <ele>46.2</ele>
        <time>2025-06-30T11:33:07Z</time>
      </trkpt>
      <trkpt lat="48.68925" lon="-3.65685">
        <ele>46.3</ele>
        <time>2025-06-30T11:33:09Z</time>
      </trkpt>
      <trkpt lat="48.68923" lon="-3.65664">
        <ele>46.4</ele>
        <time>2025-06-30T11:33:11Z</time>
      </trkpt>
      <trkpt lat="48.68917" lon="-3.65645">
        <ele>46.5</ele>
        <time>2025-06-30T11:33:13Z</time>
      </trkpt>
      <trkpt lat="48.68911" lon="-3.65627">
        <ele>46.8</ele>
        <time>2025-06-30T11:33:15Z</time>
      </trkpt>
      <trkpt lat="48.6891" lon="-3.65609">
        <ele>47</ele>
        <time>2025-06-30T11:33:17Z</time>
      </trkpt>
      <trkpt lat="48.68907" lon="-3.65591">
        <ele>47.1</ele>
        <time>2025-06-30T11:33:19Z</time>
      </trkpt>
      <trkpt lat="48.68905" lon="-3.65571">
        <ele>47.1</ele>
        <time>2025-06-30T11:33:21Z</time>
      </trkpt>
      <trkpt lat="48.68903" lon="-3.6555">
        <ele>47</ele>
        <time>2025-06-30T11:33:23Z</time>
      </trkpt>
      <trkpt lat="48.68903" lon="-3.65529">
        <ele>46.9</ele>
        <time>2025-06-30T11:33:25Z</time>
      </trkpt>
      <trkpt lat="48.6891" lon="-3.65509">
        <ele>46.9</ele>
        <time>2025-06-30T11:33:27Z</time>
      </trkpt>
      <trkpt lat="48.68918" lon="-3.65491">
        <ele>46.9</ele>
        <time>2025-06-30T11:33:29Z</time>
      </trkpt>
      <trkpt lat="48.68926" lon="-3.65472">
        <ele>47.3</ele>
        <time>2025-06-30T11:33:31Z</time>
      </trkpt>
      <trkpt lat="48.68933" lon="-3.65457">
        <ele>47.8</ele>
        <time>2025-06-30T11:33:33Z</time>
      </trkpt>
      <trkpt lat="48.68939" lon="-3.65443">
        <ele>48.2</ele>
        <time>2025-06-30T11:33:35Z</time>
      </trkpt>
      <trkpt lat="48.68944" lon="-3.65429">
        <ele>48.5</ele>
        <time>2025-06-30T11:33:37Z</time>
      </trkpt>
      <trkpt lat="48.68949" lon="-3.65414">
        <ele>48.7</ele>
        <time>2025-06-30T11:33:39Z</time>
      </trkpt>
      <trkpt lat="48.68953" lon="-3.65399">
        <ele>48.7</ele>
        <time>2025-06-30T11:33:41Z</time>
      </trkpt>
      <trkpt lat="48.68959" lon="-3.65382">
        <ele>48.8</ele>
        <time>2025-06-30T11:33:43Z</time>
      </trkpt>
      <trkpt lat="48.68964" lon="-3.65365">
        <ele>48.8</ele>
        <time>2025-06-30T11:33:45Z</time>
      </trkpt>
      <trkpt lat="48.68968" lon="-3.65347">
        <ele>48.8</ele>
        <time>2025-06-30T11:33:47Z</time>
      </trkpt>
      <trkpt lat="48.68974" lon="-3.65331">
        <ele>48.8</ele>
        <time>2025-06-30T11:33:49Z</time>
      </trkpt>
      <trkpt lat="48.68981" lon="-3.65316">
        <ele>48.7</ele>
        <time>2025-06-30T11:33:51Z</time>
      </trkpt>
      <trkpt lat="48.68991" lon="-3.65303">
        <ele>48.3</ele>
        <time>2025-06-30T11:33:53Z</time>
      </trkpt>
      <trkpt lat="48.69001" lon="-3.65289">
        <ele>47.7</ele>
        <time>2025-06-30T11:33:55Z</time>
      </trkpt>
      <trkpt lat="48.69009" lon="-3.65276">
        <ele>47</ele>
        <time>2025-06-30T11:33:57Z</time>
      </trkpt>
      <trkpt lat="48.69019" lon="-3.65267">
        <ele>46.4</ele>
        <time>2025-06-30T11:33:59Z</time>
      </trkpt>
      <trkpt lat="48.69024" lon="-3.65251">
        <ele>45.7</ele>
        <time>2025-06-30T11:34:02Z</time>
      </trkpt>
      <trkpt lat="48.69017" lon="-3.65235">
        <ele>45.1</ele>
        <time>2025-06-30T11:34:05Z</time>
      </trkpt>
      <trkpt lat="48.69014" lon="-3.65216">
        <ele>44.2</ele>
        <time>2025-06-30T11:34:08Z</time>
      </trkpt>
      <trkpt lat="48.6901" lon="-3.65202">
        <ele>43.3</ele>
        <time>2025-06-30T11:34:10Z</time>
      </trkpt>
      <trkpt lat="48.69008" lon="-3.65187">
        <ele>42.3</ele>
        <time>2025-06-30T11:34:12Z</time>
      </trkpt>
      <trkpt lat="48.69005" lon="-3.65171">
        <ele>40.8</ele>
        <time>2025-06-30T11:34:14Z</time>
      </trkpt>
      <trkpt lat="48.69003" lon="-3.65152">
        <ele>39.1</ele>
        <time>2025-06-30T11:34:16Z</time>
      </trkpt>
      <trkpt lat="48.68999" lon="-3.65136">
        <ele>37.8</ele>
        <time>2025-06-30T11:34:18Z</time>
      </trkpt>
      <trkpt lat="48.68996" lon="-3.65119">
        <ele>36.1</ele>
        <time>2025-06-30T11:34:21Z</time>
      </trkpt>
      <trkpt lat="48.68993" lon="-3.65106">
        <ele>34.7</ele>
        <time>2025-06-30T11:34:24Z</time>
      </trkpt>
      <trkpt lat="48.68992" lon="-3.65088">
        <ele>32.7</ele>
        <time>2025-06-30T11:34:27Z</time>
      </trkpt>
      <trkpt lat="48.68989" lon="-3.65073">
        <ele>30.8</ele>
        <time>2025-06-30T11:34:30Z</time>
      </trkpt>
      <trkpt lat="48.68986" lon="-3.65058">
        <ele>28.9</ele>
        <time>2025-06-30T11:34:33Z</time>
      </trkpt>
      <trkpt lat="48.68982" lon="-3.65044">
        <ele>27.3</ele>
        <time>2025-06-30T11:34:37Z</time>
      </trkpt>
      <trkpt lat="48.68977" lon="-3.65031">
        <ele>25.6</ele>
        <time>2025-06-30T11:34:44Z</time>
      </trkpt>
      <trkpt lat="48.68971" lon="-3.6502">
        <ele>24.1</ele>
        <time>2025-06-30T11:34:49Z</time>
      </trkpt>
      <trkpt lat="48.68971" lon="-3.65004">
        <ele>23.2</ele>
        <time>2025-06-30T11:34:55Z</time>
      </trkpt>
      <trkpt lat="48.68977" lon="-3.64993">
        <ele>22.8</ele>
        <time>2025-06-30T11:34:58Z</time>
      </trkpt>
      <trkpt lat="48.68986" lon="-3.64983">
        <ele>22.4</ele>
        <time>2025-06-30T11:35:01Z</time>
      </trkpt>
      <trkpt lat="48.68994" lon="-3.6497">
        <ele>21.9</ele>
        <time>2025-06-30T11:35:04Z</time>
      </trkpt>
      <trkpt lat="48.69002" lon="-3.64961">
        <ele>21.5</ele>
        <time>2025-06-30T11:35:06Z</time>
      </trkpt>
      <trkpt lat="48.6901" lon="-3.64951">
        <ele>21</ele>
        <time>2025-06-30T11:35:08Z</time>
      </trkpt>
      <trkpt lat="48.69018" lon="-3.64939">
        <ele>20.3</ele>
        <time>2025-06-30T11:35:10Z</time>
      </trkpt>
      <trkpt lat="48.69026" lon="-3.64925">
        <ele>19.5</ele>
        <time>2025-06-30T11:35:12Z</time>
      </trkpt>
      <trkpt lat="48.69036" lon="-3.64911">
        <ele>18.6</ele>
        <time>2025-06-30T11:35:14Z</time>
      </trkpt>
      <trkpt lat="48.69047" lon="-3.64896">
        <ele>17.6</ele>
        <time>2025-06-30T11:35:16Z</time>
      </trkpt>
      <trkpt lat="48.69059" lon="-3.64882">
        <ele>16.7</ele>
        <time>2025-06-30T11:35:18Z</time>
      </trkpt>
      <trkpt lat="48.69072" lon="-3.64871">
        <ele>15.8</ele>
        <time>2025-06-30T11:35:20Z</time>
      </trkpt>
      <trkpt lat="48.69082" lon="-3.64862">
        <ele>15.2</ele>
        <time>2025-06-30T11:35:22Z</time>
      </trkpt>
      <trkpt lat="48.69093" lon="-3.64854">
        <ele>14.4</ele>
        <time>2025-06-30T11:35:24Z</time>
      </trkpt>
      <trkpt lat="48.69103" lon="-3.64847">
        <ele>13.6</ele>
        <time>2025-06-30T11:35:26Z</time>
      </trkpt>
      <trkpt lat="48.69108" lon="-3.64834">
        <ele>12.8</ele>
        <time>2025-06-30T11:35:28Z</time>
      </trkpt>
      <trkpt lat="48.69105" lon="-3.6482">
        <ele>12.1</ele>
        <time>2025-06-30T11:35:30Z</time>
      </trkpt>
      <trkpt lat="48.69102" lon="-3.64803">
        <ele>11.2</ele>
        <time>2025-06-30T11:35:32Z</time>
      </trkpt>
      <trkpt lat="48.691" lon="-3.64786">
        <ele>10.4</ele>
        <time>2025-06-30T11:35:34Z</time>
      </trkpt>
      <trkpt lat="48.69097" lon="-3.64767">
        <ele>9.5</ele>
        <time>2025-06-30T11:35:36Z</time>
      </trkpt>
      <trkpt lat="48.69096" lon="-3.64747">
        <ele>8.4</ele>
        <time>2025-06-30T11:35:39Z</time>
      </trkpt>
      <trkpt lat="48.69096" lon="-3.64733">
        <ele>7.6</ele>
        <time>2025-06-30T11:35:41Z</time>
      </trkpt>
      <trkpt lat="48.69103" lon="-3.64718">
        <ele>6.9</ele>
        <time>2025-06-30T11:35:44Z</time>
      </trkpt>
      <trkpt lat="48.6911" lon="-3.64708">
        <ele>6.7</ele>
        <time>2025-06-30T11:35:50Z</time>
      </trkpt>
      <trkpt lat="48.69118" lon="-3.64699">
        <ele>6.5</ele>
        <time>2025-06-30T11:35:54Z</time>
      </trkpt>
      <trkpt lat="48.69125" lon="-3.6469">
        <ele>6.4</ele>
        <time>2025-06-30T11:35:56Z</time>
      </trkpt>
      <trkpt lat="48.69131" lon="-3.6468">
        <ele>6.4</ele>
        <time>2025-06-30T11:35:58Z</time>
      </trkpt>
      <trkpt lat="48.69136" lon="-3.64667">
        <ele>6.5</ele>
        <time>2025-06-30T11:36:00Z</time>
      </trkpt>
      <trkpt lat="48.69143" lon="-3.64657">
        <ele>6.7</ele>
        <time>2025-06-30T11:36:02Z</time>
      </trkpt>
      <trkpt lat="48.69151" lon="-3.64647">
        <ele>7</ele>
        <time>2025-06-30T11:36:04Z</time>
      </trkpt>
      <trkpt lat="48.69159" lon="-3.64639">
        <ele>7.4</ele>
        <time>2025-06-30T11:36:06Z</time>
      </trkpt>
      <trkpt lat="48.69168" lon="-3.64633">
        <ele>7.7</ele>
        <time>2025-06-30T11:36:08Z</time>
      </trkpt>
      <trkpt lat="48.69177" lon="-3.64625">
        <ele>8</ele>
        <time>2025-06-30T11:36:10Z</time>
      </trkpt>
      <trkpt lat="48.69184" lon="-3.64613">
        <ele>8.4</ele>
        <time>2025-06-30T11:36:12Z</time>
      </trkpt>
      <trkpt lat="48.69189" lon="-3.64598">
        <ele>8.6</ele>
        <time>2025-06-30T11:36:14Z</time>
      </trkpt>
      <trkpt lat="48.69189" lon="-3.64581">
        <ele>8.9</ele>
        <time>2025-06-30T11:36:16Z</time>
      </trkpt>
      <trkpt lat="48.69192" lon="-3.64565">
        <ele>9.1</ele>
        <time>2025-06-30T11:36:18Z</time>
      </trkpt>
      <trkpt lat="48.69201" lon="-3.64556">
        <ele>9.3</ele>
        <time>2025-06-30T11:36:20Z</time>
      </trkpt>
      <trkpt lat="48.69212" lon="-3.64551">
        <ele>9.6</ele>
        <time>2025-06-30T11:36:22Z</time>
      </trkpt>
      <trkpt lat="48.69221" lon="-3.64548">
        <ele>9.9</ele>
        <time>2025-06-30T11:36:24Z</time>
      </trkpt>
      <trkpt lat="48.69232" lon="-3.64543">
        <ele>10.1</ele>
        <time>2025-06-30T11:36:27Z</time>
      </trkpt>
      <trkpt lat="48.69242" lon="-3.64555">
        <ele>10.3</ele>
        <time>2025-06-30T11:36:30Z</time>
      </trkpt>
      <trkpt lat="48.69248" lon="-3.64566">
        <ele>10.5</ele>
        <time>2025-06-30T11:36:32Z</time>
      </trkpt>
      <trkpt lat="48.69256" lon="-3.64578">
        <ele>10.6</ele>
        <time>2025-06-30T11:36:34Z</time>
      </trkpt>
      <trkpt lat="48.69263" lon="-3.6459">
        <ele>10.8</ele>
        <time>2025-06-30T11:36:36Z</time>
      </trkpt>
      <trkpt lat="48.69269" lon="-3.64601">
        <ele>10.9</ele>
        <time>2025-06-30T11:36:38Z</time>
      </trkpt>
      <trkpt lat="48.69274" lon="-3.64614">
        <ele>11.1</ele>
        <time>2025-06-30T11:36:40Z</time>
      </trkpt>
      <trkpt lat="48.69276" lon="-3.64628">
        <ele>11.2</ele>
        <time>2025-06-30T11:36:42Z</time>
      </trkpt>
      <trkpt lat="48.69279" lon="-3.64647">
        <ele>11.5</ele>
        <time>2025-06-30T11:36:45Z</time>
      </trkpt>
      <trkpt lat="48.69285" lon="-3.64657">
        <ele>11.6</ele>
        <time>2025-06-30T11:36:47Z</time>
      </trkpt>
      <trkpt lat="48.69296" lon="-3.64663">
        <ele>11.8</ele>
        <time>2025-06-30T11:36:50Z</time>
      </trkpt>
      <trkpt lat="48.69323" lon="-3.64689">
        <ele>11.7</ele>
        <time>2025-06-30T11:37:54Z</time>
      </trkpt>
      <trkpt lat="48.69331" lon="-3.64701">
        <ele>11.6</ele>
        <time>2025-06-30T11:37:57Z</time>
      </trkpt>
      <trkpt lat="48.69338" lon="-3.64716">
        <ele>11.3</ele>
        <time>2025-06-30T11:38:00Z</time>
      </trkpt>
      <trkpt lat="48.69346" lon="-3.64732">
        <ele>10.9</ele>
        <time>2025-06-30T11:38:03Z</time>
      </trkpt>
      <trkpt lat="48.6935" lon="-3.64751">
        <ele>10.9</ele>
        <time>2025-06-30T11:38:06Z</time>
      </trkpt>
      <trkpt lat="48.69352" lon="-3.64769">
        <ele>11</ele>
        <time>2025-06-30T11:38:09Z</time>
      </trkpt>
      <trkpt lat="48.6935" lon="-3.64786">
        <ele>11.1</ele>
        <time>2025-06-30T11:38:12Z</time>
      </trkpt>
      <trkpt lat="48.69349" lon="-3.64802">
        <ele>11.2</ele>
        <time>2025-06-30T11:38:15Z</time>
      </trkpt>
      <trkpt lat="48.69346" lon="-3.64818">
        <ele>11.3</ele>
        <time>2025-06-30T11:38:18Z</time>
      </trkpt>
      <trkpt lat="48.69343" lon="-3.64834">
        <ele>11.5</ele>
        <time>2025-06-30T11:38:21Z</time>
      </trkpt>
      <trkpt lat="48.69335" lon="-3.64848">
        <ele>11.6</ele>
        <time>2025-06-30T11:38:24Z</time>
      </trkpt>
      <trkpt lat="48.69324" lon="-3.64855">
        <ele>11.7</ele>
        <time>2025-06-30T11:38:27Z</time>
      </trkpt>
      <trkpt lat="48.69321" lon="-3.64868">
        <ele>11.8</ele>
        <time>2025-06-30T11:38:29Z</time>
      </trkpt>
      <trkpt lat="48.69324" lon="-3.64881">
        <ele>11.8</ele>
        <time>2025-06-30T11:38:31Z</time>
      </trkpt>
      <trkpt lat="48.69327" lon="-3.649">
        <ele>11.8</ele>
        <time>2025-06-30T11:38:34Z</time>
      </trkpt>
      <trkpt lat="48.69326" lon="-3.6492">
        <ele>11.9</ele>
        <time>2025-06-30T11:38:37Z</time>
      </trkpt>
      <trkpt lat="48.69324" lon="-3.6494">
        <ele>12.2</ele>
        <time>2025-06-30T11:38:40Z</time>
      </trkpt>
      <trkpt lat="48.69323" lon="-3.64955">
        <ele>12.6</ele>
        <time>2025-06-30T11:38:42Z</time>
      </trkpt>
      <trkpt lat="48.69318" lon="-3.64973">
        <ele>13.1</ele>
        <time>2025-06-30T11:38:45Z</time>
      </trkpt>
      <trkpt lat="48.69317" lon="-3.64991">
        <ele>13.8</ele>
        <time>2025-06-30T11:38:48Z</time>
      </trkpt>
      <trkpt lat="48.69314" lon="-3.65008">
        <ele>14.5</ele>
        <time>2025-06-30T11:38:51Z</time>
      </trkpt>
      <trkpt lat="48.69311" lon="-3.65028">
        <ele>15.4</ele>
        <time>2025-06-30T11:38:55Z</time>
      </trkpt>
      <trkpt lat="48.69309" lon="-3.65043">
        <ele>16.1</ele>
        <time>2025-06-30T11:38:57Z</time>
      </trkpt>
      <trkpt lat="48.69308" lon="-3.65063">
        <ele>17</ele>
        <time>2025-06-30T11:39:00Z</time>
      </trkpt>
      <trkpt lat="48.69309" lon="-3.65081">
        <ele>18.1</ele>
        <time>2025-06-30T11:39:03Z</time>
      </trkpt>
      <trkpt lat="48.6931" lon="-3.65097">
        <ele>19.1</ele>
        <time>2025-06-30T11:39:06Z</time>
      </trkpt>
      <trkpt lat="48.69312" lon="-3.65113">
        <ele>20</ele>
        <time>2025-06-30T11:39:09Z</time>
      </trkpt>
      <trkpt lat="48.69316" lon="-3.6513">
        <ele>20.9</ele>
        <time>2025-06-30T11:39:12Z</time>
      </trkpt>
      <trkpt lat="48.69319" lon="-3.65145">
        <ele>21.8</ele>
        <time>2025-06-30T11:39:15Z</time>
      </trkpt>
      <trkpt lat="48.69322" lon="-3.65161">
        <ele>22.7</ele>
        <time>2025-06-30T11:39:19Z</time>
      </trkpt>
      <trkpt lat="48.69325" lon="-3.6518">
        <ele>23.2</ele>
        <time>2025-06-30T11:39:23Z</time>
      </trkpt>
      <trkpt lat="48.69324" lon="-3.65197">
        <ele>23.9</ele>
        <time>2025-06-30T11:39:26Z</time>
      </trkpt>
      <trkpt lat="48.69324" lon="-3.65214">
        <ele>24.6</ele>
        <time>2025-06-30T11:39:29Z</time>
      </trkpt>
      <trkpt lat="48.69323" lon="-3.65229">
        <ele>25.3</ele>
        <time>2025-06-30T11:39:32Z</time>
      </trkpt>
      <trkpt lat="48.69321" lon="-3.65244">
        <ele>26</ele>
        <time>2025-06-30T11:39:35Z</time>
      </trkpt>
      <trkpt lat="48.69317" lon="-3.65258">
        <ele>26.6</ele>
        <time>2025-06-30T11:39:38Z</time>
      </trkpt>
      <trkpt lat="48.69313" lon="-3.65275">
        <ele>27.3</ele>
        <time>2025-06-30T11:39:41Z</time>
      </trkpt>
      <trkpt lat="48.69309" lon="-3.6529">
        <ele>27.9</ele>
        <time>2025-06-30T11:39:44Z</time>
      </trkpt>
      <trkpt lat="48.69302" lon="-3.65308">
        <ele>28.9</ele>
        <time>2025-06-30T11:39:46Z</time>
      </trkpt>
      <trkpt lat="48.69289" lon="-3.65329">
        <ele>30.3</ele>
        <time>2025-06-30T11:39:51Z</time>
      </trkpt>
      <trkpt lat="48.69284" lon="-3.65342">
        <ele>31.1</ele>
        <time>2025-06-30T11:39:54Z</time>
      </trkpt>
      <trkpt lat="48.6928" lon="-3.65356">
        <ele>31.9</ele>
        <time>2025-06-30T11:39:57Z</time>
      </trkpt>
      <trkpt lat="48.69272" lon="-3.65369">
        <ele>32.7</ele>
        <time>2025-06-30T11:40:00Z</time>
      </trkpt>
      <trkpt lat="48.69264" lon="-3.65381">
        <ele>33.4</ele>
        <time>2025-06-30T11:40:03Z</time>
      </trkpt>
      <trkpt lat="48.69258" lon="-3.65395">
        <ele>33.8</ele>
        <time>2025-06-30T11:40:07Z</time>
      </trkpt>
      <trkpt lat="48.69252" lon="-3.65406">
        <ele>34.3</ele>
        <time>2025-06-30T11:40:10Z</time>
      </trkpt>
      <trkpt lat="48.69245" lon="-3.65417">
        <ele>34.9</ele>
        <time>2025-06-30T11:40:13Z</time>
      </trkpt>
      <trkpt lat="48.69236" lon="-3.65428">
        <ele>35.7</ele>
        <time>2025-06-30T11:40:16Z</time>
      </trkpt>
      <trkpt lat="48.6923" lon="-3.6544">
        <ele>36.3</ele>
        <time>2025-06-30T11:40:19Z</time>
      </trkpt>
      <trkpt lat="48.69223" lon="-3.6545">
        <ele>36.9</ele>
        <time>2025-06-30T11:40:22Z</time>
      </trkpt>
      <trkpt lat="48.69217" lon="-3.65462">
        <ele>37.5</ele>
        <time>2025-06-30T11:40:25Z</time>
      </trkpt>
      <trkpt lat="48.69211" lon="-3.65473">
        <ele>38</ele>
        <time>2025-06-30T11:40:27Z</time>
      </trkpt>
      <trkpt lat="48.69203" lon="-3.65485">
        <ele>38.6</ele>
        <time>2025-06-30T11:40:30Z</time>
      </trkpt>
      <trkpt lat="48.69195" lon="-3.65498">
        <ele>39.3</ele>
        <time>2025-06-30T11:40:33Z</time>
      </trkpt>
      <trkpt lat="48.69185" lon="-3.65509">
        <ele>39.9</ele>
        <time>2025-06-30T11:40:34Z</time>
      </trkpt>
      <trkpt lat="48.69177" lon="-3.65523">
        <ele>40.5</ele>
        <time>2025-06-30T11:40:37Z</time>
      </trkpt>
      <trkpt lat="48.69169" lon="-3.65537">
        <ele>40.9</ele>
        <time>2025-06-30T11:40:40Z</time>
      </trkpt>
      <trkpt lat="48.6916" lon="-3.65551">
        <ele>41.2</ele>
        <time>2025-06-30T11:40:43Z</time>
      </trkpt>
      <trkpt lat="48.69151" lon="-3.65564">
        <ele>41.5</ele>
        <time>2025-06-30T11:40:46Z</time>
      </trkpt>
      <trkpt lat="48.69142" lon="-3.65579">
        <ele>41.8</ele>
        <time>2025-06-30T11:40:49Z</time>
      </trkpt>
      <trkpt lat="48.69135" lon="-3.65589">
        <ele>42.1</ele>
        <time>2025-06-30T11:40:52Z</time>
      </trkpt>
      <trkpt lat="48.69124" lon="-3.65601">
        <ele>42.5</ele>
        <time>2025-06-30T11:40:55Z</time>
      </trkpt>
      <trkpt lat="48.69113" lon="-3.6561">
        <ele>42.8</ele>
        <time>2025-06-30T11:40:58Z</time>
      </trkpt>
      <trkpt lat="48.69102" lon="-3.65618">
        <ele>43.1</ele>
        <time>2025-06-30T11:41:01Z</time>
      </trkpt>
      <trkpt lat="48.6909" lon="-3.65623">
        <ele>43.6</ele>
        <time>2025-06-30T11:41:04Z</time>
      </trkpt>
      <trkpt lat="48.69078" lon="-3.65627">
        <ele>44</ele>
        <time>2025-06-30T11:41:07Z</time>
      </trkpt>
      <trkpt lat="48.69065" lon="-3.6563">
        <ele>44.5</ele>
        <time>2025-06-30T11:41:10Z</time>
      </trkpt>
      <trkpt lat="48.69052" lon="-3.65634">
        <ele>44.9</ele>
        <time>2025-06-30T11:41:13Z</time>
      </trkpt>
      <trkpt lat="48.69039" lon="-3.65635">
        <ele>45.2</ele>
        <time>2025-06-30T11:41:16Z</time>
      </trkpt>
      <trkpt lat="48.6903" lon="-3.65639">
        <ele>45.4</ele>
        <time>2025-06-30T11:41:19Z</time>
      </trkpt>
      <trkpt lat="48.6902" lon="-3.65642">
        <ele>45.6</ele>
        <time>2025-06-30T11:41:22Z</time>
      </trkpt>
      <trkpt lat="48.69008" lon="-3.65646">
        <ele>45.8</ele>
        <time>2025-06-30T11:41:23Z</time>
      </trkpt>
      <trkpt lat="48.68999" lon="-3.6565">
        <ele>45.9</ele>
        <time>2025-06-30T11:41:25Z</time>
      </trkpt>
      <trkpt lat="48.6899" lon="-3.65653">
        <ele>46</ele>
        <time>2025-06-30T11:41:27Z</time>
      </trkpt>
      <trkpt lat="48.68981" lon="-3.65656">
        <ele>46.1</ele>
        <time>2025-06-30T11:41:29Z</time>
      </trkpt>
      <trkpt lat="48.68971" lon="-3.65658">
        <ele>46.2</ele>
        <time>2025-06-30T11:41:31Z</time>
      </trkpt>
      <trkpt lat="48.68962" lon="-3.65661">
        <ele>46.2</ele>
        <time>2025-06-30T11:41:33Z</time>
      </trkpt>
      <trkpt lat="48.68952" lon="-3.65667">
        <ele>46.3</ele>
        <time>2025-06-30T11:41:35Z</time>
      </trkpt>
      <trkpt lat="48.68944" lon="-3.65673">
        <ele>46.3</ele>
        <time>2025-06-30T11:41:37Z</time>
      </trkpt>
      <trkpt lat="48.68934" lon="-3.65688">
        <ele>46.3</ele>
        <time>2025-06-30T11:41:40Z</time>
      </trkpt>
      <trkpt lat="48.68927" lon="-3.65701">
        <ele>46.2</ele>
        <time>2025-06-30T11:41:42Z</time>
      </trkpt>
      <trkpt lat="48.68921" lon="-3.65716">
        <ele>46.1</ele>
        <time>2025-06-30T11:41:44Z</time>
      </trkpt>
      <trkpt lat="48.68912" lon="-3.65729">
        <ele>46</ele>
        <time>2025-06-30T11:41:46Z</time>
      </trkpt>
      <trkpt lat="48.68905" lon="-3.65745">
        <ele>46</ele>
        <time>2025-06-30T11:41:48Z</time>
      </trkpt>
      <trkpt lat="48.68899" lon="-3.65761">
        <ele>46</ele>
        <time>2025-06-30T11:41:50Z</time>
      </trkpt>
      <trkpt lat="48.68894" lon="-3.65778">
        <ele>46.1</ele>
        <time>2025-06-30T11:41:52Z</time>
      </trkpt>
      <trkpt lat="48.6889" lon="-3.65796">
        <ele>46.1</ele>
        <time>2025-06-30T11:41:54Z</time>
      </trkpt>
      <trkpt lat="48.68885" lon="-3.65814">
        <ele>46.2</ele>
        <time>2025-06-30T11:41:56Z</time>
      </trkpt>
      <trkpt lat="48.68879" lon="-3.65831">
        <ele>46.2</ele>
        <time>2025-06-30T11:41:58Z</time>
      </trkpt>
      <trkpt lat="48.68873" lon="-3.65849">
        <ele>46.3</ele>
        <time>2025-06-30T11:42:00Z</time>
      </trkpt>
      <trkpt lat="48.68868" lon="-3.65866">
        <ele>46.3</ele>
        <time>2025-06-30T11:42:02Z</time>
      </trkpt>
      <trkpt lat="48.68861" lon="-3.65883">
        <ele>46.4</ele>
        <time>2025-06-30T11:42:04Z</time>
      </trkpt>
      <trkpt lat="48.68853" lon="-3.65899">
        <ele>46.5</ele>
        <time>2025-06-30T11:42:06Z</time>
      </trkpt>
      <trkpt lat="48.68845" lon="-3.65914">
        <ele>46.5</ele>
        <time>2025-06-30T11:42:08Z</time>
      </trkpt>
      <trkpt lat="48.68838" lon="-3.6593">
        <ele>46.6</ele>
        <time>2025-06-30T11:42:10Z</time>
      </trkpt>
      <trkpt lat="48.68831" lon="-3.65949">
        <ele>46.6</ele>
        <time>2025-06-30T11:42:12Z</time>
      </trkpt>
      <trkpt lat="48.68825" lon="-3.65966">
        <ele>46.7</ele>
        <time>2025-06-30T11:42:14Z</time>
      </trkpt>
      <trkpt lat="48.68819" lon="-3.65983">
        <ele>46.7</ele>
        <time>2025-06-30T11:42:16Z</time>
      </trkpt>
      <trkpt lat="48.68815" lon="-3.66002">
        <ele>46.7</ele>
        <time>2025-06-30T11:42:18Z</time>
      </trkpt>
      <trkpt lat="48.68811" lon="-3.6602">
        <ele>46.8</ele>
        <time>2025-06-30T11:42:20Z</time>
      </trkpt>
      <trkpt lat="48.68806" lon="-3.66039">
        <ele>46.8</ele>
        <time>2025-06-30T11:42:22Z</time>
      </trkpt>
      <trkpt lat="48.68802" lon="-3.66057">
        <ele>46.8</ele>
        <time>2025-06-30T11:42:24Z</time>
      </trkpt>
      <trkpt lat="48.68796" lon="-3.66075">
        <ele>46.8</ele>
        <time>2025-06-30T11:42:26Z</time>
      </trkpt>
      <trkpt lat="48.68791" lon="-3.66094">
        <ele>46.8</ele>
        <time>2025-06-30T11:42:28Z</time>
      </trkpt>
      <trkpt lat="48.68787" lon="-3.66113">
        <ele>46.8</ele>
        <time>2025-06-30T11:42:30Z</time>
      </trkpt>
      <trkpt lat="48.68782" lon="-3.66133">
        <ele>46.7</ele>
        <time>2025-06-30T11:42:32Z</time>
      </trkpt>
      <trkpt lat="48.68777" lon="-3.66152">
        <ele>46.7</ele>
        <time>2025-06-30T11:42:34Z</time>
      </trkpt>
      <trkpt lat="48.68774" lon="-3.66172">
        <ele>46.6</ele>
        <time>2025-06-30T11:42:36Z</time>
      </trkpt>
      <trkpt lat="48.6877" lon="-3.66193">
        <ele>46.5</ele>
        <time>2025-06-30T11:42:38Z</time>
      </trkpt>
      <trkpt lat="48.68768" lon="-3.66214">
        <ele>46.5</ele>
        <time>2025-06-30T11:42:40Z</time>
      </trkpt>
      <trkpt lat="48.68764" lon="-3.66234">
        <ele>46.4</ele>
        <time>2025-06-30T11:42:42Z</time>
      </trkpt>
      <trkpt lat="48.68759" lon="-3.66255">
        <ele>46.3</ele>
        <time>2025-06-30T11:42:44Z</time>
      </trkpt>
      <trkpt lat="48.68753" lon="-3.66275">
        <ele>46.2</ele>
        <time>2025-06-30T11:42:46Z</time>
      </trkpt>
      <trkpt lat="48.68748" lon="-3.66296">
        <ele>46.1</ele>
        <time>2025-06-30T11:42:48Z</time>
      </trkpt>
      <trkpt lat="48.68743" lon="-3.66317">
        <ele>46</ele>
        <time>2025-06-30T11:42:50Z</time>
      </trkpt>
      <trkpt lat="48.68741" lon="-3.6634">
        <ele>45.8</ele>
        <time>2025-06-30T11:42:52Z</time>
      </trkpt>
      <trkpt lat="48.68739" lon="-3.66364">
        <ele>45.7</ele>
        <time>2025-06-30T11:42:54Z</time>
      </trkpt>
      <trkpt lat="48.68738" lon="-3.66387">
        <ele>45.5</ele>
        <time>2025-06-30T11:42:56Z</time>
      </trkpt>
      <trkpt lat="48.68739" lon="-3.66411">
        <ele>45.2</ele>
        <time>2025-06-30T11:42:58Z</time>
      </trkpt>
      <trkpt lat="48.6874" lon="-3.66435">
        <ele>44.8</ele>
        <time>2025-06-30T11:43:00Z</time>
      </trkpt>
      <trkpt lat="48.6874" lon="-3.6646">
        <ele>44.5</ele>
        <time>2025-06-30T11:43:02Z</time>
      </trkpt>
      <trkpt lat="48.6874" lon="-3.66486">
        <ele>44.2</ele>
        <time>2025-06-30T11:43:04Z</time>
      </trkpt>
      <trkpt lat="48.6874" lon="-3.66512">
        <ele>44</ele>
        <time>2025-06-30T11:43:06Z</time>
      </trkpt>
      <trkpt lat="48.6874" lon="-3.66538">
        <ele>43.8</ele>
        <time>2025-06-30T11:43:08Z</time>
      </trkpt>
      <trkpt lat="48.6874" lon="-3.66565">
        <ele>43.7</ele>
        <time>2025-06-30T11:43:10Z</time>
      </trkpt>
      <trkpt lat="48.6874" lon="-3.66591">
        <ele>43.6</ele>
        <time>2025-06-30T11:43:12Z</time>
      </trkpt>
      <trkpt lat="48.68739" lon="-3.66616">
        <ele>43.6</ele>
        <time>2025-06-30T11:43:14Z</time>
      </trkpt>
      <trkpt lat="48.68737" lon="-3.66641">
        <ele>43.6</ele>
        <time>2025-06-30T11:43:16Z</time>
      </trkpt>
      <trkpt lat="48.68732" lon="-3.66665">
        <ele>43.4</ele>
        <time>2025-06-30T11:43:18Z</time>
      </trkpt>
      <trkpt lat="48.68724" lon="-3.66687">
        <ele>42.9</ele>
        <time>2025-06-30T11:43:20Z</time>
      </trkpt>
      <trkpt lat="48.68714" lon="-3.66707">
        <ele>42.2</ele>
        <time>2025-06-30T11:43:22Z</time>
      </trkpt>
      <trkpt lat="48.68701" lon="-3.66726">
        <ele>41.1</ele>
        <time>2025-06-30T11:43:24Z</time>
      </trkpt>
      <trkpt lat="48.68693" lon="-3.66735">
        <ele>40.6</ele>
        <time>2025-06-30T11:43:25Z</time>
      </trkpt>
      <trkpt lat="48.68685" lon="-3.66744">
        <ele>39.9</ele>
        <time>2025-06-30T11:43:26Z</time>
      </trkpt>
      <trkpt lat="48.68677" lon="-3.66753">
        <ele>39.1</ele>
        <time>2025-06-30T11:43:27Z</time>
      </trkpt>
      <trkpt lat="48.68669" lon="-3.66763">
        <ele>38.4</ele>
        <time>2025-06-30T11:43:28Z</time>
      </trkpt>
      <trkpt lat="48.68661" lon="-3.66774">
        <ele>37.6</ele>
        <time>2025-06-30T11:43:29Z</time>
      </trkpt>
      <trkpt lat="48.68654" lon="-3.66787">
        <ele>36.9</ele>
        <time>2025-06-30T11:43:30Z</time>
      </trkpt>
      <trkpt lat="48.68648" lon="-3.668">
        <ele>36.2</ele>
        <time>2025-06-30T11:43:31Z</time>
      </trkpt>
      <trkpt lat="48.68642" lon="-3.66814">
        <ele>35.5</ele>
        <time>2025-06-30T11:43:32Z</time>
      </trkpt>
      <trkpt lat="48.68637" lon="-3.66829">
        <ele>34.7</ele>
        <time>2025-06-30T11:43:33Z</time>
      </trkpt>
      <trkpt lat="48.68633" lon="-3.66845">
        <ele>33.9</ele>
        <time>2025-06-30T11:43:34Z</time>
      </trkpt>
      <trkpt lat="48.6863" lon="-3.66861">
        <ele>33</ele>
        <time>2025-06-30T11:43:35Z</time>
      </trkpt>
      <trkpt lat="48.68627" lon="-3.66879">
        <ele>32.2</ele>
        <time>2025-06-30T11:43:36Z</time>
      </trkpt>
      <trkpt lat="48.68626" lon="-3.66896">
        <ele>31.3</ele>
        <time>2025-06-30T11:43:37Z</time>
      </trkpt>
      <trkpt lat="48.68624" lon="-3.66914">
        <ele>30.4</ele>
        <time>2025-06-30T11:43:38Z</time>
      </trkpt>
      <trkpt lat="48.68622" lon="-3.66931">
        <ele>29.6</ele>
        <time>2025-06-30T11:43:39Z</time>
      </trkpt>
      <trkpt lat="48.6862" lon="-3.66948">
        <ele>28.8</ele>
        <time>2025-06-30T11:43:40Z</time>
      </trkpt>
      <trkpt lat="48.68618" lon="-3.66966">
        <ele>28</ele>
        <time>2025-06-30T11:43:41Z</time>
      </trkpt>
      <trkpt lat="48.68616" lon="-3.66984">
        <ele>27.2</ele>
        <time>2025-06-30T11:43:42Z</time>
      </trkpt>
      <trkpt lat="48.68615" lon="-3.67002">
        <ele>26.4</ele>
        <time>2025-06-30T11:43:43Z</time>
      </trkpt>
      <trkpt lat="48.68614" lon="-3.6702">
        <ele>25.5</ele>
        <time>2025-06-30T11:43:44Z</time>
      </trkpt>
      <trkpt lat="48.68612" lon="-3.67039">
        <ele>24.7</ele>
        <time>2025-06-30T11:43:45Z</time>
      </trkpt>
      <trkpt lat="48.68611" lon="-3.67057">
        <ele>23.9</ele>
        <time>2025-06-30T11:43:46Z</time>
      </trkpt>
      <trkpt lat="48.68609" lon="-3.67076">
        <ele>23.1</ele>
        <time>2025-06-30T11:43:47Z</time>
      </trkpt>
      <trkpt lat="48.68607" lon="-3.67094">
        <ele>22.4</ele>
        <time>2025-06-30T11:43:48Z</time>
      </trkpt>
      <trkpt lat="48.68605" lon="-3.67112">
        <ele>21.7</ele>
        <time>2025-06-30T11:43:49Z</time>
      </trkpt>
      <trkpt lat="48.68604" lon="-3.67131">
        <ele>21</ele>
        <time>2025-06-30T11:43:50Z</time>
      </trkpt>
      <trkpt lat="48.68604" lon="-3.67149">
        <ele>20.3</ele>
        <time>2025-06-30T11:43:51Z</time>
      </trkpt>
      <trkpt lat="48.68606" lon="-3.67168">
        <ele>19.5</ele>
        <time>2025-06-30T11:43:52Z</time>
      </trkpt>
      <trkpt lat="48.68609" lon="-3.67186">
        <ele>18.7</ele>
        <time>2025-06-30T11:43:53Z</time>
      </trkpt>
      <trkpt lat="48.68613" lon="-3.67203">
        <ele>17.9</ele>
        <time>2025-06-30T11:43:54Z</time>
      </trkpt>
      <trkpt lat="48.68619" lon="-3.6722">
        <ele>17.1</ele>
        <time>2025-06-30T11:43:55Z</time>
      </trkpt>
      <trkpt lat="48.68624" lon="-3.67236">
        <ele>16.3</ele>
        <time>2025-06-30T11:43:56Z</time>
      </trkpt>
      <trkpt lat="48.68632" lon="-3.67249">
        <ele>15.6</ele>
        <time>2025-06-30T11:43:57Z</time>
      </trkpt>
      <trkpt lat="48.68639" lon="-3.67264">
        <ele>15</ele>
        <time>2025-06-30T11:43:58Z</time>
      </trkpt>
      <trkpt lat="48.68644" lon="-3.6728">
        <ele>14.4</ele>
        <time>2025-06-30T11:43:59Z</time>
      </trkpt>
      <trkpt lat="48.68652" lon="-3.67293">
        <ele>13.9</ele>
        <time>2025-06-30T11:44:00Z</time>
      </trkpt>
      <trkpt lat="48.68659" lon="-3.67308">
        <ele>13.3</ele>
        <time>2025-06-30T11:44:01Z</time>
      </trkpt>
      <trkpt lat="48.68665" lon="-3.67322">
        <ele>12.8</ele>
        <time>2025-06-30T11:44:02Z</time>
      </trkpt>
      <trkpt lat="48.68671" lon="-3.67337">
        <ele>12.3</ele>
        <time>2025-06-30T11:44:03Z</time>
      </trkpt>
      <trkpt lat="48.68676" lon="-3.67353">
        <ele>11.7</ele>
        <time>2025-06-30T11:44:04Z</time>
      </trkpt>
      <trkpt lat="48.68681" lon="-3.67368">
        <ele>11.1</ele>
        <time>2025-06-30T11:44:05Z</time>
      </trkpt>
      <trkpt lat="48.68685" lon="-3.67385">
        <ele>10.6</ele>
        <time>2025-06-30T11:44:06Z</time>
      </trkpt>
      <trkpt lat="48.68688" lon="-3.67401">
        <ele>10.1</ele>
        <time>2025-06-30T11:44:07Z</time>
      </trkpt>
      <trkpt lat="48.6869" lon="-3.67419">
        <ele>9.6</ele>
        <time>2025-06-30T11:44:08Z</time>
      </trkpt>
      <trkpt lat="48.6869" lon="-3.67437">
        <ele>9.3</ele>
        <time>2025-06-30T11:44:09Z</time>
      </trkpt>
      <trkpt lat="48.68689" lon="-3.67454">
        <ele>9</ele>
        <time>2025-06-30T11:44:10Z</time>
      </trkpt>
      <trkpt lat="48.68688" lon="-3.67472">
        <ele>8.7</ele>
        <time>2025-06-30T11:44:11Z</time>
      </trkpt>
      <trkpt lat="48.68687" lon="-3.6749">
        <ele>8.5</ele>
        <time>2025-06-30T11:44:12Z</time>
      </trkpt>
      <trkpt lat="48.68685" lon="-3.67507">
        <ele>8.4</ele>
        <time>2025-06-30T11:44:13Z</time>
      </trkpt>
      <trkpt lat="48.68683" lon="-3.67524">
        <ele>8.3</ele>
        <time>2025-06-30T11:44:14Z</time>
      </trkpt>
      <trkpt lat="48.68679" lon="-3.6754">
        <ele>8.3</ele>
        <time>2025-06-30T11:44:15Z</time>
      </trkpt>
      <trkpt lat="48.68676" lon="-3.67556">
        <ele>8.2</ele>
        <time>2025-06-30T11:44:16Z</time>
      </trkpt>
      <trkpt lat="48.68671" lon="-3.6757">
        <ele>8.2</ele>
        <time>2025-06-30T11:44:17Z</time>
      </trkpt>
      <trkpt lat="48.68666" lon="-3.67585">
        <ele>8.2</ele>
        <time>2025-06-30T11:44:18Z</time>
      </trkpt>
      <trkpt lat="48.6866" lon="-3.67599">
        <ele>8.2</ele>
        <time>2025-06-30T11:44:19Z</time>
      </trkpt>
      <trkpt lat="48.68654" lon="-3.67612">
        <ele>8.1</ele>
        <time>2025-06-30T11:44:20Z</time>
      </trkpt>
      <trkpt lat="48.68647" lon="-3.67624">
        <ele>8.1</ele>
        <time>2025-06-30T11:44:21Z</time>
      </trkpt>
      <trkpt lat="48.6864" lon="-3.67635">
        <ele>8.2</ele>
        <time>2025-06-30T11:44:22Z</time>
      </trkpt>
      <trkpt lat="48.68632" lon="-3.67644">
        <ele>8.4</ele>
        <time>2025-06-30T11:44:23Z</time>
      </trkpt>
      <trkpt lat="48.68625" lon="-3.67652">
        <ele>8.6</ele>
        <time>2025-06-30T11:44:24Z</time>
      </trkpt>
      <trkpt lat="48.68617" lon="-3.67659">
        <ele>8.8</ele>
        <time>2025-06-30T11:44:25Z</time>
      </trkpt>
      <trkpt lat="48.68602" lon="-3.67672">
        <ele>9.2</ele>
        <time>2025-06-30T11:44:27Z</time>
      </trkpt>
      <trkpt lat="48.68588" lon="-3.67684">
        <ele>10</ele>
        <time>2025-06-30T11:44:29Z</time>
      </trkpt>
      <trkpt lat="48.68575" lon="-3.67694">
        <ele>11.2</ele>
        <time>2025-06-30T11:44:31Z</time>
      </trkpt>
      <trkpt lat="48.68562" lon="-3.67705">
        <ele>12.4</ele>
        <time>2025-06-30T11:44:33Z</time>
      </trkpt>
      <trkpt lat="48.68551" lon="-3.67715">
        <ele>13.5</ele>
        <time>2025-06-30T11:44:35Z</time>
      </trkpt>
      <trkpt lat="48.68539" lon="-3.67723">
        <ele>14.5</ele>
        <time>2025-06-30T11:44:37Z</time>
      </trkpt>
      <trkpt lat="48.68529" lon="-3.67731">
        <ele>15.5</ele>
        <time>2025-06-30T11:44:39Z</time>
      </trkpt>
      <trkpt lat="48.6852" lon="-3.67739">
        <ele>16.4</ele>
        <time>2025-06-30T11:44:42Z</time>
      </trkpt>
      <trkpt lat="48.68512" lon="-3.67747">
        <ele>17.2</ele>
        <time>2025-06-30T11:44:45Z</time>
      </trkpt>
      <trkpt lat="48.68504" lon="-3.67754">
        <ele>17.9</ele>
        <time>2025-06-30T11:44:48Z</time>
      </trkpt>
      <trkpt lat="48.68496" lon="-3.6776">
        <ele>18.6</ele>
        <time>2025-06-30T11:44:51Z</time>
      </trkpt>
      <trkpt lat="48.68488" lon="-3.67767">
        <ele>19.4</ele>
        <time>2025-06-30T11:44:54Z</time>
      </trkpt>
      <trkpt lat="48.68479" lon="-3.67774">
        <ele>20.1</ele>
        <time>2025-06-30T11:44:58Z</time>
      </trkpt>
      <trkpt lat="48.6847" lon="-3.67782">
        <ele>21</ele>
        <time>2025-06-30T11:45:02Z</time>
      </trkpt>
      <trkpt lat="48.6846" lon="-3.67787">
        <ele>21.8</ele>
        <time>2025-06-30T11:45:06Z</time>
      </trkpt>
      <trkpt lat="48.68449" lon="-3.6779">
        <ele>22.7</ele>
        <time>2025-06-30T11:45:09Z</time>
      </trkpt>
      <trkpt lat="48.68438" lon="-3.67794">
        <ele>23.6</ele>
        <time>2025-06-30T11:45:13Z</time>
      </trkpt>
      <trkpt lat="48.68427" lon="-3.67798">
        <ele>24.5</ele>
        <time>2025-06-30T11:45:16Z</time>
      </trkpt>
      <trkpt lat="48.68416" lon="-3.67803">
        <ele>25.5</ele>
        <time>2025-06-30T11:45:19Z</time>
      </trkpt>
      <trkpt lat="48.68405" lon="-3.67806">
        <ele>26.4</ele>
        <time>2025-06-30T11:45:22Z</time>
      </trkpt>
      <trkpt lat="48.68396" lon="-3.67809">
        <ele>27.3</ele>
        <time>2025-06-30T11:45:25Z</time>
      </trkpt>
      <trkpt lat="48.68385" lon="-3.6781">
        <ele>28.3</ele>
        <time>2025-06-30T11:45:28Z</time>
      </trkpt>
      <trkpt lat="48.68375" lon="-3.6781">
        <ele>29.1</ele>
        <time>2025-06-30T11:45:31Z</time>
      </trkpt>
      <trkpt lat="48.68365" lon="-3.67811">
        <ele>30</ele>
        <time>2025-06-30T11:45:34Z</time>
      </trkpt>
      <trkpt lat="48.68355" lon="-3.67813">
        <ele>30.9</ele>
        <time>2025-06-30T11:45:37Z</time>
      </trkpt>
      <trkpt lat="48.68345" lon="-3.67816">
        <ele>31.8</ele>
        <time>2025-06-30T11:45:40Z</time>
      </trkpt>
      <trkpt lat="48.68333" lon="-3.67818">
        <ele>32.9</ele>
        <time>2025-06-30T11:45:44Z</time>
      </trkpt>
      <trkpt lat="48.68322" lon="-3.6782">
        <ele>33.8</ele>
        <time>2025-06-30T11:45:47Z</time>
      </trkpt>
      <trkpt lat="48.68313" lon="-3.67823">
        <ele>34.6</ele>
        <time>2025-06-30T11:45:50Z</time>
      </trkpt>
      <trkpt lat="48.68303" lon="-3.67826">
        <ele>35.5</ele>
        <time>2025-06-30T11:45:53Z</time>
      </trkpt>
      <trkpt lat="48.68294" lon="-3.67829">
        <ele>36.3</ele>
        <time>2025-06-30T11:45:56Z</time>
      </trkpt>
      <trkpt lat="48.68285" lon="-3.67836">
        <ele>37.1</ele>
        <time>2025-06-30T11:46:00Z</time>
      </trkpt>
      <trkpt lat="48.68275" lon="-3.67843">
        <ele>38</ele>
        <time>2025-06-30T11:46:05Z</time>
      </trkpt>
      <trkpt lat="48.68266" lon="-3.67849">
        <ele>38.9</ele>
        <time>2025-06-30T11:46:08Z</time>
      </trkpt>
      <trkpt lat="48.68256" lon="-3.67854">
        <ele>39.6</ele>
        <time>2025-06-30T11:46:11Z</time>
      </trkpt>
      <trkpt lat="48.68245" lon="-3.67862">
        <ele>40.5</ele>
        <time>2025-06-30T11:46:14Z</time>
      </trkpt>
      <trkpt lat="48.68234" lon="-3.67869">
        <ele>41.2</ele>
        <time>2025-06-30T11:46:18Z</time>
      </trkpt>
      <trkpt lat="48.68225" lon="-3.67875">
        <ele>41.8</ele>
        <time>2025-06-30T11:46:21Z</time>
      </trkpt>
      <trkpt lat="48.68216" lon="-3.67882">
        <ele>42.4</ele>
        <time>2025-06-30T11:46:23Z</time>
      </trkpt>
      <trkpt lat="48.68208" lon="-3.67889">
        <ele>43</ele>
        <time>2025-06-30T11:46:25Z</time>
      </trkpt>
      <trkpt lat="48.68197" lon="-3.67898">
        <ele>43.7</ele>
        <time>2025-06-30T11:46:28Z</time>
      </trkpt>
      <trkpt lat="48.68186" lon="-3.67905">
        <ele>44.4</ele>
        <time>2025-06-30T11:46:31Z</time>
      </trkpt>
      <trkpt lat="48.68177" lon="-3.67913">
        <ele>45.1</ele>
        <time>2025-06-30T11:46:34Z</time>
      </trkpt>
      <trkpt lat="48.68166" lon="-3.67921">
        <ele>45.9</ele>
        <time>2025-06-30T11:46:37Z</time>
      </trkpt>
      <trkpt lat="48.68156" lon="-3.67926">
        <ele>46.6</ele>
        <time>2025-06-30T11:46:40Z</time>
      </trkpt>
      <trkpt lat="48.68147" lon="-3.67932">
        <ele>47.4</ele>
        <time>2025-06-30T11:46:43Z</time>
      </trkpt>
      <trkpt lat="48.68137" lon="-3.6794">
        <ele>48.1</ele>
        <time>2025-06-30T11:46:46Z</time>
      </trkpt>
      <trkpt lat="48.68126" lon="-3.67947">
        <ele>49</ele>
        <time>2025-06-30T11:46:49Z</time>
      </trkpt>
      <trkpt lat="48.68117" lon="-3.67954">
        <ele>49.7</ele>
        <time>2025-06-30T11:46:52Z</time>
      </trkpt>
      <trkpt lat="48.68108" lon="-3.67959">
        <ele>50.5</ele>
        <time>2025-06-30T11:46:55Z</time>
      </trkpt>
      <trkpt lat="48.68097" lon="-3.67966">
        <ele>51.3</ele>
        <time>2025-06-30T11:46:59Z</time>
      </trkpt>
      <trkpt lat="48.68087" lon="-3.67972">
        <ele>52.1</ele>
        <time>2025-06-30T11:47:02Z</time>
      </trkpt>
      <trkpt lat="48.68076" lon="-3.67977">
        <ele>53</ele>
        <time>2025-06-30T11:47:06Z</time>
      </trkpt>
      <trkpt lat="48.68067" lon="-3.67982">
        <ele>53.7</ele>
        <time>2025-06-30T11:47:09Z</time>
      </trkpt>
      <trkpt lat="48.68057" lon="-3.67987">
        <ele>54.5</ele>
        <time>2025-06-30T11:47:12Z</time>
      </trkpt>
      <trkpt lat="48.68047" lon="-3.67991">
        <ele>55.2</ele>
        <time>2025-06-30T11:47:15Z</time>
      </trkpt>
      <trkpt lat="48.68038" lon="-3.67995">
        <ele>55.9</ele>
        <time>2025-06-30T11:47:18Z</time>
      </trkpt>
      <trkpt lat="48.68028" lon="-3.67999">
        <ele>56.6</ele>
        <time>2025-06-30T11:47:21Z</time>
      </trkpt>
      <trkpt lat="48.68019" lon="-3.68004">
        <ele>57.3</ele>
        <time>2025-06-30T11:47:24Z</time>
      </trkpt>
      <trkpt lat="48.68009" lon="-3.68009">
        <ele>58.1</ele>
        <time>2025-06-30T11:47:27Z</time>
      </trkpt>
      <trkpt lat="48.67999" lon="-3.68014">
        <ele>58.8</ele>
        <time>2025-06-30T11:47:30Z</time>
      </trkpt>
      <trkpt lat="48.6799" lon="-3.6802">
        <ele>59.5</ele>
        <time>2025-06-30T11:47:33Z</time>
      </trkpt>
      <trkpt lat="48.67981" lon="-3.68027">
        <ele>60.2</ele>
        <time>2025-06-30T11:47:36Z</time>
      </trkpt>
      <trkpt lat="48.67973" lon="-3.68035">
        <ele>60.9</ele>
        <time>2025-06-30T11:47:39Z</time>
      </trkpt>
      <trkpt lat="48.67966" lon="-3.68045">
        <ele>61.5</ele>
        <time>2025-06-30T11:47:42Z</time>
      </trkpt>
      <trkpt lat="48.67958" lon="-3.68056">
        <ele>62</ele>
        <time>2025-06-30T11:47:45Z</time>
      </trkpt>
      <trkpt lat="48.67951" lon="-3.68067">
        <ele>62.5</ele>
        <time>2025-06-30T11:47:48Z</time>
      </trkpt>
      <trkpt lat="48.67945" lon="-3.68078">
        <ele>62.9</ele>
        <time>2025-06-30T11:47:51Z</time>
      </trkpt>
      <trkpt lat="48.67938" lon="-3.68089">
        <ele>63.2</ele>
        <time>2025-06-30T11:47:54Z</time>
      </trkpt>
      <trkpt lat="48.67932" lon="-3.68101">
        <ele>63.3</ele>
        <time>2025-06-30T11:47:57Z</time>
      </trkpt>
      <trkpt lat="48.67925" lon="-3.68113">
        <ele>63.3</ele>
        <time>2025-06-30T11:48:00Z</time>
      </trkpt>
      <trkpt lat="48.67919" lon="-3.68126">
        <ele>63</ele>
        <time>2025-06-30T11:48:03Z</time>
      </trkpt>
      <trkpt lat="48.67913" lon="-3.68142">
        <ele>62.6</ele>
        <time>2025-06-30T11:48:06Z</time>
      </trkpt>
      <trkpt lat="48.67909" lon="-3.68154">
        <ele>62.2</ele>
        <time>2025-06-30T11:48:08Z</time>
      </trkpt>
      <trkpt lat="48.67905" lon="-3.68169">
        <ele>61.7</ele>
        <time>2025-06-30T11:48:10Z</time>
      </trkpt>
      <trkpt lat="48.67901" lon="-3.68187">
        <ele>61</ele>
        <time>2025-06-30T11:48:12Z</time>
      </trkpt>
      <trkpt lat="48.67897" lon="-3.68207">
        <ele>60.2</ele>
        <time>2025-06-30T11:48:14Z</time>
      </trkpt>
      <trkpt lat="48.67892" lon="-3.68229">
        <ele>59.4</ele>
        <time>2025-06-30T11:48:16Z</time>
      </trkpt>
      <trkpt lat="48.67887" lon="-3.68252">
        <ele>58.7</ele>
        <time>2025-06-30T11:48:18Z</time>
      </trkpt>
      <trkpt lat="48.67882" lon="-3.68277">
        <ele>58.1</ele>
        <time>2025-06-30T11:48:20Z</time>
      </trkpt>
      <trkpt lat="48.67877" lon="-3.68302">
        <ele>57.7</ele>
        <time>2025-06-30T11:48:22Z</time>
      </trkpt>
      <trkpt lat="48.6787" lon="-3.68328">
        <ele>57.6</ele>
        <time>2025-06-30T11:48:24Z</time>
      </trkpt>
      <trkpt lat="48.67864" lon="-3.68352">
        <ele>57.5</ele>
        <time>2025-06-30T11:48:26Z</time>
      </trkpt>
      <trkpt lat="48.67855" lon="-3.68376">
        <ele>57.6</ele>
        <time>2025-06-30T11:48:28Z</time>
      </trkpt>
      <trkpt lat="48.67846" lon="-3.68399">
        <ele>57.8</ele>
        <time>2025-06-30T11:48:30Z</time>
      </trkpt>
      <trkpt lat="48.67836" lon="-3.6842">
        <ele>58</ele>
        <time>2025-06-30T11:48:32Z</time>
      </trkpt>
      <trkpt lat="48.67823" lon="-3.6844">
        <ele>58.4</ele>
        <time>2025-06-30T11:48:34Z</time>
      </trkpt>
      <trkpt lat="48.6781" lon="-3.68458">
        <ele>58.7</ele>
        <time>2025-06-30T11:48:36Z</time>
      </trkpt>
      <trkpt lat="48.67797" lon="-3.68473">
        <ele>59.1</ele>
        <time>2025-06-30T11:48:38Z</time>
      </trkpt>
      <trkpt lat="48.67783" lon="-3.68488">
        <ele>59.5</ele>
        <time>2025-06-30T11:48:40Z</time>
      </trkpt>
      <trkpt lat="48.67768" lon="-3.68502">
        <ele>59.7</ele>
        <time>2025-06-30T11:48:42Z</time>
      </trkpt>
      <trkpt lat="48.67754" lon="-3.68516">
        <ele>59.8</ele>
        <time>2025-06-30T11:48:44Z</time>
      </trkpt>
      <trkpt lat="48.67739" lon="-3.68529">
        <ele>59.8</ele>
        <time>2025-06-30T11:48:46Z</time>
      </trkpt>
      <trkpt lat="48.67724" lon="-3.68541">
        <ele>59.9</ele>
        <time>2025-06-30T11:48:48Z</time>
      </trkpt>
      <trkpt lat="48.67709" lon="-3.68554">
        <ele>59.8</ele>
        <time>2025-06-30T11:48:50Z</time>
      </trkpt>
      <trkpt lat="48.67694" lon="-3.68566">
        <ele>59.8</ele>
        <time>2025-06-30T11:48:52Z</time>
      </trkpt>
      <trkpt lat="48.67678" lon="-3.68578">
        <ele>59.7</ele>
        <time>2025-06-30T11:48:54Z</time>
      </trkpt>
      <trkpt lat="48.67662" lon="-3.6859">
        <ele>59.6</ele>
        <time>2025-06-30T11:48:56Z</time>
      </trkpt>
      <trkpt lat="48.67654" lon="-3.68597">
        <ele>59.6</ele>
        <time>2025-06-30T11:48:57Z</time>
      </trkpt>
      <trkpt lat="48.67637" lon="-3.68609">
        <ele>59.6</ele>
        <time>2025-06-30T11:48:59Z</time>
      </trkpt>
      <trkpt lat="48.6763" lon="-3.68616">
        <ele>59.6</ele>
        <time>2025-06-30T11:49:00Z</time>
      </trkpt>
      <trkpt lat="48.67622" lon="-3.68623">
        <ele>59.6</ele>
        <time>2025-06-30T11:49:01Z</time>
      </trkpt>
      <trkpt lat="48.67614" lon="-3.6863">
        <ele>59.6</ele>
        <time>2025-06-30T11:49:02Z</time>
      </trkpt>
      <trkpt lat="48.67607" lon="-3.68639">
        <ele>59.5</ele>
        <time>2025-06-30T11:49:03Z</time>
      </trkpt>
      <trkpt lat="48.676" lon="-3.68648">
        <ele>59.5</ele>
        <time>2025-06-30T11:49:04Z</time>
      </trkpt>
      <trkpt lat="48.67594" lon="-3.68658">
        <ele>59.4</ele>
        <time>2025-06-30T11:49:05Z</time>
      </trkpt>
      <trkpt lat="48.6758" lon="-3.68676">
        <ele>59.4</ele>
        <time>2025-06-30T11:49:07Z</time>
      </trkpt>
      <trkpt lat="48.67567" lon="-3.68694">
        <ele>59.4</ele>
        <time>2025-06-30T11:49:09Z</time>
      </trkpt>
      <trkpt lat="48.67555" lon="-3.68713">
        <ele>59.5</ele>
        <time>2025-06-30T11:49:11Z</time>
      </trkpt>
      <trkpt lat="48.67542" lon="-3.6873">
        <ele>59.7</ele>
        <time>2025-06-30T11:49:13Z</time>
      </trkpt>
      <trkpt lat="48.6753" lon="-3.68747">
        <ele>59.9</ele>
        <time>2025-06-30T11:49:15Z</time>
      </trkpt>
      <trkpt lat="48.67518" lon="-3.68764">
        <ele>60.1</ele>
        <time>2025-06-30T11:49:17Z</time>
      </trkpt>
      <trkpt lat="48.67506" lon="-3.6878">
        <ele>60.3</ele>
        <time>2025-06-30T11:49:19Z</time>
      </trkpt>
      <trkpt lat="48.67494" lon="-3.68798">
        <ele>60.6</ele>
        <time>2025-06-30T11:49:21Z</time>
      </trkpt>
      <trkpt lat="48.67482" lon="-3.68814">
        <ele>61</ele>
        <time>2025-06-30T11:49:23Z</time>
      </trkpt>
      <trkpt lat="48.67471" lon="-3.6883">
        <ele>61.4</ele>
        <time>2025-06-30T11:49:25Z</time>
      </trkpt>
      <trkpt lat="48.6746" lon="-3.68846">
        <ele>61.9</ele>
        <time>2025-06-30T11:49:27Z</time>
      </trkpt>
      <trkpt lat="48.67449" lon="-3.68861">
        <ele>62.3</ele>
        <time>2025-06-30T11:49:29Z</time>
      </trkpt>
      <trkpt lat="48.67439" lon="-3.68876">
        <ele>62.7</ele>
        <time>2025-06-30T11:49:31Z</time>
      </trkpt>
      <trkpt lat="48.6743" lon="-3.6889">
        <ele>63.2</ele>
        <time>2025-06-30T11:49:33Z</time>
      </trkpt>
      <trkpt lat="48.6742" lon="-3.68903">
        <ele>63.6</ele>
        <time>2025-06-30T11:49:35Z</time>
      </trkpt>
      <trkpt lat="48.67411" lon="-3.68916">
        <ele>64.1</ele>
        <time>2025-06-30T11:49:37Z</time>
      </trkpt>
      <trkpt lat="48.67402" lon="-3.68928">
        <ele>64.7</ele>
        <time>2025-06-30T11:49:39Z</time>
      </trkpt>
      <trkpt lat="48.67393" lon="-3.68941">
        <ele>65.1</ele>
        <time>2025-06-30T11:49:41Z</time>
      </trkpt>
      <trkpt lat="48.67384" lon="-3.68953">
        <ele>65.6</ele>
        <time>2025-06-30T11:49:43Z</time>
      </trkpt>
      <trkpt lat="48.67375" lon="-3.68965">
        <ele>66</ele>
        <time>2025-06-30T11:49:45Z</time>
      </trkpt>
      <trkpt lat="48.67366" lon="-3.68978">
        <ele>66.4</ele>
        <time>2025-06-30T11:49:47Z</time>
      </trkpt>
      <trkpt lat="48.67357" lon="-3.6899">
        <ele>66.8</ele>
        <time>2025-06-30T11:49:49Z</time>
      </trkpt>
      <trkpt lat="48.67348" lon="-3.69001">
        <ele>67.2</ele>
        <time>2025-06-30T11:49:51Z</time>
      </trkpt>
      <trkpt lat="48.67339" lon="-3.69013">
        <ele>67.6</ele>
        <time>2025-06-30T11:49:53Z</time>
      </trkpt>
      <trkpt lat="48.67331" lon="-3.69025">
        <ele>67.9</ele>
        <time>2025-06-30T11:49:55Z</time>
      </trkpt>
      <trkpt lat="48.67323" lon="-3.69036">
        <ele>68.3</ele>
        <time>2025-06-30T11:49:57Z</time>
      </trkpt>
      <trkpt lat="48.67314" lon="-3.69047">
        <ele>68.6</ele>
        <time>2025-06-30T11:49:59Z</time>
      </trkpt>
      <trkpt lat="48.67306" lon="-3.69058">
        <ele>68.9</ele>
        <time>2025-06-30T11:50:01Z</time>
      </trkpt>
      <trkpt lat="48.67298" lon="-3.69069">
        <ele>69.1</ele>
        <time>2025-06-30T11:50:03Z</time>
      </trkpt>
      <trkpt lat="48.67289" lon="-3.69081">
        <ele>69.3</ele>
        <time>2025-06-30T11:50:05Z</time>
      </trkpt>
      <trkpt lat="48.67281" lon="-3.69092">
        <ele>69.5</ele>
        <time>2025-06-30T11:50:07Z</time>
      </trkpt>
      <trkpt lat="48.67273" lon="-3.69103">
        <ele>69.7</ele>
        <time>2025-06-30T11:50:09Z</time>
      </trkpt>
      <trkpt lat="48.67265" lon="-3.69114">
        <ele>70</ele>
        <time>2025-06-30T11:50:11Z</time>
      </trkpt>
      <trkpt lat="48.67257" lon="-3.69126">
        <ele>70.2</ele>
        <time>2025-06-30T11:50:13Z</time>
      </trkpt>
      <trkpt lat="48.67249" lon="-3.69139">
        <ele>70.4</ele>
        <time>2025-06-30T11:50:15Z</time>
      </trkpt>
      <trkpt lat="48.67242" lon="-3.69152">
        <ele>70.6</ele>
        <time>2025-06-30T11:50:17Z</time>
      </trkpt>
      <trkpt lat="48.67235" lon="-3.69165">
        <ele>70.8</ele>
        <time>2025-06-30T11:50:19Z</time>
      </trkpt>
      <trkpt lat="48.67228" lon="-3.69178">
        <ele>71</ele>
        <time>2025-06-30T11:50:21Z</time>
      </trkpt>
      <trkpt lat="48.67222" lon="-3.69192">
        <ele>71.1</ele>
        <time>2025-06-30T11:50:23Z</time>
      </trkpt>
      <trkpt lat="48.67215" lon="-3.69207">
        <ele>71.3</ele>
        <time>2025-06-30T11:50:25Z</time>
      </trkpt>
      <trkpt lat="48.67209" lon="-3.69221">
        <ele>71.5</ele>
        <time>2025-06-30T11:50:27Z</time>
      </trkpt>
      <trkpt lat="48.67203" lon="-3.69235">
        <ele>71.6</ele>
        <time>2025-06-30T11:50:29Z</time>
      </trkpt>
      <trkpt lat="48.67198" lon="-3.69249">
        <ele>71.8</ele>
        <time>2025-06-30T11:50:31Z</time>
      </trkpt>
      <trkpt lat="48.67193" lon="-3.69264">
        <ele>72.1</ele>
        <time>2025-06-30T11:50:33Z</time>
      </trkpt>
      <trkpt lat="48.67188" lon="-3.69279">
        <ele>72.2</ele>
        <time>2025-06-30T11:50:35Z</time>
      </trkpt>
      <trkpt lat="48.67183" lon="-3.69293">
        <ele>72.4</ele>
        <time>2025-06-30T11:50:37Z</time>
      </trkpt>
      <trkpt lat="48.67178" lon="-3.69308">
        <ele>72.6</ele>
        <time>2025-06-30T11:50:39Z</time>
      </trkpt>
      <trkpt lat="48.67174" lon="-3.69323">
        <ele>72.8</ele>
        <time>2025-06-30T11:50:41Z</time>
      </trkpt>
      <trkpt lat="48.6717" lon="-3.69338">
        <ele>73.1</ele>
        <time>2025-06-30T11:50:43Z</time>
      </trkpt>
      <trkpt lat="48.67165" lon="-3.69353">
        <ele>73.3</ele>
        <time>2025-06-30T11:50:45Z</time>
      </trkpt>
      <trkpt lat="48.6716" lon="-3.69368">
        <ele>73.5</ele>
        <time>2025-06-30T11:50:47Z</time>
      </trkpt>
      <trkpt lat="48.67156" lon="-3.69383">
        <ele>73.7</ele>
        <time>2025-06-30T11:50:49Z</time>
      </trkpt>
      <trkpt lat="48.67151" lon="-3.69398">
        <ele>73.9</ele>
        <time>2025-06-30T11:50:51Z</time>
      </trkpt>
      <trkpt lat="48.67145" lon="-3.69413">
        <ele>74</ele>
        <time>2025-06-30T11:50:53Z</time>
      </trkpt>
      <trkpt lat="48.67141" lon="-3.69428">
        <ele>74.2</ele>
        <time>2025-06-30T11:50:55Z</time>
      </trkpt>
      <trkpt lat="48.67136" lon="-3.69443">
        <ele>74.3</ele>
        <time>2025-06-30T11:50:57Z</time>
      </trkpt>
      <trkpt lat="48.67131" lon="-3.69459">
        <ele>74.5</ele>
        <time>2025-06-30T11:50:59Z</time>
      </trkpt>
      <trkpt lat="48.67126" lon="-3.69474">
        <ele>74.7</ele>
        <time>2025-06-30T11:51:01Z</time>
      </trkpt>
      <trkpt lat="48.67122" lon="-3.69489">
        <ele>74.8</ele>
        <time>2025-06-30T11:51:03Z</time>
      </trkpt>
      <trkpt lat="48.67117" lon="-3.69505">
        <ele>75</ele>
        <time>2025-06-30T11:51:05Z</time>
      </trkpt>
      <trkpt lat="48.67113" lon="-3.6952">
        <ele>75.2</ele>
        <time>2025-06-30T11:51:07Z</time>
      </trkpt>
      <trkpt lat="48.67108" lon="-3.69535">
        <ele>75.2</ele>
        <time>2025-06-30T11:51:09Z</time>
      </trkpt>
      <trkpt lat="48.67103" lon="-3.6955">
        <ele>75.3</ele>
        <time>2025-06-30T11:51:11Z</time>
      </trkpt>
      <trkpt lat="48.67098" lon="-3.69565">
        <ele>75.5</ele>
        <time>2025-06-30T11:51:13Z</time>
      </trkpt>
      <trkpt lat="48.67093" lon="-3.6958">
        <ele>75.6</ele>
        <time>2025-06-30T11:51:15Z</time>
      </trkpt>
      <trkpt lat="48.67088" lon="-3.69595">
        <ele>75.7</ele>
        <time>2025-06-30T11:51:17Z</time>
      </trkpt>
      <trkpt lat="48.67083" lon="-3.69611">
        <ele>75.8</ele>
        <time>2025-06-30T11:51:19Z</time>
      </trkpt>
      <trkpt lat="48.67079" lon="-3.69627">
        <ele>75.9</ele>
        <time>2025-06-30T11:51:21Z</time>
      </trkpt>
      <trkpt lat="48.67075" lon="-3.69643">
        <ele>76.1</ele>
        <time>2025-06-30T11:51:23Z</time>
      </trkpt>
      <trkpt lat="48.67071" lon="-3.69659">
        <ele>76.2</ele>
        <time>2025-06-30T11:51:25Z</time>
      </trkpt>
      <trkpt lat="48.67067" lon="-3.69675">
        <ele>76.3</ele>
        <time>2025-06-30T11:51:27Z</time>
      </trkpt>
      <trkpt lat="48.67064" lon="-3.69691">
        <ele>76.4</ele>
        <time>2025-06-30T11:51:29Z</time>
      </trkpt>
      <trkpt lat="48.67061" lon="-3.69708">
        <ele>76.5</ele>
        <time>2025-06-30T11:51:31Z</time>
      </trkpt>
      <trkpt lat="48.67059" lon="-3.69725">
        <ele>76.6</ele>
        <time>2025-06-30T11:51:33Z</time>
      </trkpt>
      <trkpt lat="48.67055" lon="-3.69742">
        <ele>76.7</ele>
        <time>2025-06-30T11:51:35Z</time>
      </trkpt>
      <trkpt lat="48.67052" lon="-3.6976">
        <ele>76.8</ele>
        <time>2025-06-30T11:51:37Z</time>
      </trkpt>
      <trkpt lat="48.67048" lon="-3.69777">
        <ele>76.9</ele>
        <time>2025-06-30T11:51:39Z</time>
      </trkpt>
      <trkpt lat="48.67045" lon="-3.69794">
        <ele>77</ele>
        <time>2025-06-30T11:51:41Z</time>
      </trkpt>
      <trkpt lat="48.67041" lon="-3.69812">
        <ele>77.1</ele>
        <time>2025-06-30T11:51:43Z</time>
      </trkpt>
      <trkpt lat="48.67038" lon="-3.69829">
        <ele>77.3</ele>
        <time>2025-06-30T11:51:45Z</time>
      </trkpt>
      <trkpt lat="48.67035" lon="-3.69847">
        <ele>77.4</ele>
        <time>2025-06-30T11:51:47Z</time>
      </trkpt>
      <trkpt lat="48.67032" lon="-3.69865">
        <ele>77.6</ele>
        <time>2025-06-30T11:51:49Z</time>
      </trkpt>
      <trkpt lat="48.67028" lon="-3.69883">
        <ele>77.7</ele>
        <time>2025-06-30T11:51:51Z</time>
      </trkpt>
      <trkpt lat="48.67025" lon="-3.69901">
        <ele>77.9</ele>
        <time>2025-06-30T11:51:53Z</time>
      </trkpt>
      <trkpt lat="48.67022" lon="-3.6992">
        <ele>78</ele>
        <time>2025-06-30T11:51:55Z</time>
      </trkpt>
      <trkpt lat="48.67017" lon="-3.69937">
        <ele>78.2</ele>
        <time>2025-06-30T11:51:57Z</time>
      </trkpt>
      <trkpt lat="48.67015" lon="-3.69956">
        <ele>78.4</ele>
        <time>2025-06-30T11:51:59Z</time>
      </trkpt>
      <trkpt lat="48.67011" lon="-3.69974">
        <ele>78.5</ele>
        <time>2025-06-30T11:52:01Z</time>
      </trkpt>
      <trkpt lat="48.67008" lon="-3.69992">
        <ele>78.6</ele>
        <time>2025-06-30T11:52:03Z</time>
      </trkpt>
      <trkpt lat="48.67005" lon="-3.70011">
        <ele>78.7</ele>
        <time>2025-06-30T11:52:05Z</time>
      </trkpt>
      <trkpt lat="48.67" lon="-3.70029">
        <ele>78.8</ele>
        <time>2025-06-30T11:52:07Z</time>
      </trkpt>
      <trkpt lat="48.66996" lon="-3.70047">
        <ele>78.9</ele>
        <time>2025-06-30T11:52:09Z</time>
      </trkpt>
      <trkpt lat="48.66992" lon="-3.70066">
        <ele>79</ele>
        <time>2025-06-30T11:52:11Z</time>
      </trkpt>
      <trkpt lat="48.6699" lon="-3.70084">
        <ele>79.1</ele>
        <time>2025-06-30T11:52:13Z</time>
      </trkpt>
      <trkpt lat="48.66986" lon="-3.70102">
        <ele>79.1</ele>
        <time>2025-06-30T11:52:15Z</time>
      </trkpt>
      <trkpt lat="48.66983" lon="-3.70121">
        <ele>79.2</ele>
        <time>2025-06-30T11:52:17Z</time>
      </trkpt>
      <trkpt lat="48.66979" lon="-3.70139">
        <ele>79.2</ele>
        <time>2025-06-30T11:52:19Z</time>
      </trkpt>
      <trkpt lat="48.66976" lon="-3.70157">
        <ele>79.3</ele>
        <time>2025-06-30T11:52:21Z</time>
      </trkpt>
      <trkpt lat="48.66972" lon="-3.70176">
        <ele>79.3</ele>
        <time>2025-06-30T11:52:23Z</time>
      </trkpt>
      <trkpt lat="48.66969" lon="-3.70194">
        <ele>79.4</ele>
        <time>2025-06-30T11:52:25Z</time>
      </trkpt>
      <trkpt lat="48.66964" lon="-3.70213">
        <ele>79.4</ele>
        <time>2025-06-30T11:52:27Z</time>
      </trkpt>
      <trkpt lat="48.6696" lon="-3.70231">
        <ele>79.5</ele>
        <time>2025-06-30T11:52:29Z</time>
      </trkpt>
      <trkpt lat="48.66957" lon="-3.7025">
        <ele>79.6</ele>
        <time>2025-06-30T11:52:31Z</time>
      </trkpt>
      <trkpt lat="48.66953" lon="-3.70269">
        <ele>79.6</ele>
        <time>2025-06-30T11:52:33Z</time>
      </trkpt>
      <trkpt lat="48.66948" lon="-3.70287">
        <ele>79.7</ele>
        <time>2025-06-30T11:52:35Z</time>
      </trkpt>
      <trkpt lat="48.66945" lon="-3.70306">
        <ele>79.8</ele>
        <time>2025-06-30T11:52:37Z</time>
      </trkpt>
      <trkpt lat="48.66941" lon="-3.70324">
        <ele>80</ele>
        <time>2025-06-30T11:52:39Z</time>
      </trkpt>
      <trkpt lat="48.66936" lon="-3.70342">
        <ele>80.1</ele>
        <time>2025-06-30T11:52:41Z</time>
      </trkpt>
      <trkpt lat="48.66932" lon="-3.70359">
        <ele>80.4</ele>
        <time>2025-06-30T11:52:43Z</time>
      </trkpt>
      <trkpt lat="48.66928" lon="-3.70376">
        <ele>80.6</ele>
        <time>2025-06-30T11:52:45Z</time>
      </trkpt>
      <trkpt lat="48.66925" lon="-3.70393">
        <ele>80.8</ele>
        <time>2025-06-30T11:52:47Z</time>
      </trkpt>
      <trkpt lat="48.66921" lon="-3.70409">
        <ele>81</ele>
        <time>2025-06-30T11:52:49Z</time>
      </trkpt>
      <trkpt lat="48.66918" lon="-3.70425">
        <ele>81.1</ele>
        <time>2025-06-30T11:52:51Z</time>
      </trkpt>
      <trkpt lat="48.66916" lon="-3.70442">
        <ele>81.2</ele>
        <time>2025-06-30T11:52:53Z</time>
      </trkpt>
      <trkpt lat="48.66914" lon="-3.70458">
        <ele>81.4</ele>
        <time>2025-06-30T11:52:55Z</time>
      </trkpt>
      <trkpt lat="48.66911" lon="-3.70475">
        <ele>81.5</ele>
        <time>2025-06-30T11:52:57Z</time>
      </trkpt>
      <trkpt lat="48.66908" lon="-3.70491">
        <ele>81.6</ele>
        <time>2025-06-30T11:52:59Z</time>
      </trkpt>
      <trkpt lat="48.66903" lon="-3.70506">
        <ele>81.7</ele>
        <time>2025-06-30T11:53:01Z</time>
      </trkpt>
      <trkpt lat="48.66899" lon="-3.70521">
        <ele>81.8</ele>
        <time>2025-06-30T11:53:03Z</time>
      </trkpt>
      <trkpt lat="48.66894" lon="-3.70536">
        <ele>81.8</ele>
        <time>2025-06-30T11:53:05Z</time>
      </trkpt>
      <trkpt lat="48.66888" lon="-3.7055">
        <ele>81.9</ele>
        <time>2025-06-30T11:53:07Z</time>
      </trkpt>
      <trkpt lat="48.66882" lon="-3.70564">
        <ele>81.9</ele>
        <time>2025-06-30T11:53:09Z</time>
      </trkpt>
      <trkpt lat="48.66876" lon="-3.70577">
        <ele>82</ele>
        <time>2025-06-30T11:53:11Z</time>
      </trkpt>
      <trkpt lat="48.6687" lon="-3.70588">
        <ele>82</ele>
        <time>2025-06-30T11:53:13Z</time>
      </trkpt>
      <trkpt lat="48.66865" lon="-3.70599">
        <ele>82.1</ele>
        <time>2025-06-30T11:53:15Z</time>
      </trkpt>
      <trkpt lat="48.66857" lon="-3.70609">
        <ele>82.1</ele>
        <time>2025-06-30T11:53:17Z</time>
      </trkpt>
      <trkpt lat="48.6685" lon="-3.7062">
        <ele>82.2</ele>
        <time>2025-06-30T11:53:19Z</time>
      </trkpt>
      <trkpt lat="48.66843" lon="-3.70632">
        <ele>82.3</ele>
        <time>2025-06-30T11:53:21Z</time>
      </trkpt>
      <trkpt lat="48.66834" lon="-3.70641">
        <ele>82.4</ele>
        <time>2025-06-30T11:53:23Z</time>
      </trkpt>
      <trkpt lat="48.66827" lon="-3.70652">
        <ele>82.5</ele>
        <time>2025-06-30T11:53:25Z</time>
      </trkpt>
      <trkpt lat="48.66819" lon="-3.70661">
        <ele>82.7</ele>
        <time>2025-06-30T11:53:27Z</time>
      </trkpt>
      <trkpt lat="48.66812" lon="-3.7067">
        <ele>82.8</ele>
        <time>2025-06-30T11:53:29Z</time>
      </trkpt>
      <trkpt lat="48.66802" lon="-3.70684">
        <ele>83</ele>
        <time>2025-06-30T11:53:32Z</time>
      </trkpt>
      <trkpt lat="48.66794" lon="-3.70699">
        <ele>83.2</ele>
        <time>2025-06-30T11:53:35Z</time>
      </trkpt>
      <trkpt lat="48.66787" lon="-3.70715">
        <ele>83.5</ele>
        <time>2025-06-30T11:53:38Z</time>
      </trkpt>
      <trkpt lat="48.66783" lon="-3.70727">
        <ele>83.7</ele>
        <time>2025-06-30T11:53:40Z</time>
      </trkpt>
      <trkpt lat="48.66776" lon="-3.70744">
        <ele>84</ele>
        <time>2025-06-30T11:53:43Z</time>
      </trkpt>
      <trkpt lat="48.66771" lon="-3.70763">
        <ele>84.4</ele>
        <time>2025-06-30T11:53:46Z</time>
      </trkpt>
      <trkpt lat="48.66765" lon="-3.70779">
        <ele>84.8</ele>
        <time>2025-06-30T11:53:49Z</time>
      </trkpt>
      <trkpt lat="48.66759" lon="-3.70788">
        <ele>84.9</ele>
        <time>2025-06-30T11:53:53Z</time>
      </trkpt>
      <trkpt lat="48.66765" lon="-3.70773">
        <ele>84.8</ele>
        <time>2025-06-30T11:53:57Z</time>
      </trkpt>
      <trkpt lat="48.66772" lon="-3.70783">
        <ele>85.4</ele>
        <time>2025-06-30T11:54:04Z</time>
      </trkpt>
      <trkpt lat="48.66779" lon="-3.70795">
        <ele>86.1</ele>
        <time>2025-06-30T11:54:08Z</time>
      </trkpt>
      <trkpt lat="48.66787" lon="-3.70806">
        <ele>85.5</ele>
        <time>2025-06-30T11:54:12Z</time>
      </trkpt>
      <trkpt lat="48.66798" lon="-3.70815">
        <ele>84.8</ele>
        <time>2025-06-30T11:54:15Z</time>
      </trkpt>
      <trkpt lat="48.66807" lon="-3.7082">
        <ele>84.2</ele>
        <time>2025-06-30T11:54:17Z</time>
      </trkpt>
      <trkpt lat="48.66813" lon="-3.7083">
        <ele>83.7</ele>
        <time>2025-06-30T11:54:19Z</time>
      </trkpt>
      <trkpt lat="48.66818" lon="-3.70844">
        <ele>83.2</ele>
        <time>2025-06-30T11:54:22Z</time>
      </trkpt>
      <trkpt lat="48.66827" lon="-3.70846">
        <ele>82.7</ele>
        <time>2025-06-30T11:54:24Z</time>
      </trkpt>
      <trkpt lat="48.66837" lon="-3.70847">
        <ele>82.3</ele>
        <time>2025-06-30T11:54:26Z</time>
      </trkpt>
      <trkpt lat="48.66848" lon="-3.70849">
        <ele>81.9</ele>
        <time>2025-06-30T11:54:28Z</time>
      </trkpt>
      <trkpt lat="48.6686" lon="-3.70849">
        <ele>81.5</ele>
        <time>2025-06-30T11:54:30Z</time>
      </trkpt>
      <trkpt lat="48.66872" lon="-3.7085">
        <ele>81.1</ele>
        <time>2025-06-30T11:54:32Z</time>
      </trkpt>
      <trkpt lat="48.66885" lon="-3.70848">
        <ele>80.7</ele>
        <time>2025-06-30T11:54:34Z</time>
      </trkpt>
      <trkpt lat="48.66899" lon="-3.70847">
        <ele>80.4</ele>
        <time>2025-06-30T11:54:36Z</time>
      </trkpt>
      <trkpt lat="48.66912" lon="-3.70848">
        <ele>80.1</ele>
        <time>2025-06-30T11:54:38Z</time>
      </trkpt>
      <trkpt lat="48.66926" lon="-3.70849">
        <ele>79.9</ele>
        <time>2025-06-30T11:54:40Z</time>
      </trkpt>
      <trkpt lat="48.66939" lon="-3.70848">
        <ele>79.8</ele>
        <time>2025-06-30T11:54:42Z</time>
      </trkpt>
      <trkpt lat="48.66954" lon="-3.70849">
        <ele>79.6</ele>
        <time>2025-06-30T11:54:44Z</time>
      </trkpt>
      <trkpt lat="48.66966" lon="-3.7085">
        <ele>79.5</ele>
        <time>2025-06-30T11:54:46Z</time>
      </trkpt>
      <trkpt lat="48.66978" lon="-3.7085">
        <ele>79.3</ele>
        <time>2025-06-30T11:54:48Z</time>
      </trkpt>
      <trkpt lat="48.6699" lon="-3.70851">
        <ele>79.1</ele>
        <time>2025-06-30T11:54:50Z</time>
      </trkpt>
      <trkpt lat="48.67003" lon="-3.70851">
        <ele>78.8</ele>
        <time>2025-06-30T11:54:52Z</time>
      </trkpt>
      <trkpt lat="48.67016" lon="-3.70853">
        <ele>78.4</ele>
        <time>2025-06-30T11:54:54Z</time>
      </trkpt>
      <trkpt lat="48.67029" lon="-3.70854">
        <ele>77.8</ele>
        <time>2025-06-30T11:54:56Z</time>
      </trkpt>
      <trkpt lat="48.67043" lon="-3.70856">
        <ele>77.2</ele>
        <time>2025-06-30T11:54:58Z</time>
      </trkpt>
      <trkpt lat="48.67057" lon="-3.70858">
        <ele>76.5</ele>
        <time>2025-06-30T11:55:00Z</time>
      </trkpt>
      <trkpt lat="48.67072" lon="-3.70862">
        <ele>75.7</ele>
        <time>2025-06-30T11:55:02Z</time>
      </trkpt>
      <trkpt lat="48.67088" lon="-3.70865">
        <ele>74.8</ele>
        <time>2025-06-30T11:55:04Z</time>
      </trkpt>
      <trkpt lat="48.67104" lon="-3.7087">
        <ele>73.9</ele>
        <time>2025-06-30T11:55:06Z</time>
      </trkpt>
      <trkpt lat="48.67121" lon="-3.70871">
        <ele>72.8</ele>
        <time>2025-06-30T11:55:08Z</time>
      </trkpt>
      <trkpt lat="48.67131" lon="-3.70872">
        <ele>72.2</ele>
        <time>2025-06-30T11:55:09Z</time>
      </trkpt>
      <trkpt lat="48.67141" lon="-3.70872">
        <ele>71.7</ele>
        <time>2025-06-30T11:55:10Z</time>
      </trkpt>
      <trkpt lat="48.6715" lon="-3.70872">
        <ele>71.3</ele>
        <time>2025-06-30T11:55:11Z</time>
      </trkpt>
      <trkpt lat="48.6716" lon="-3.70873">
        <ele>71.1</ele>
        <time>2025-06-30T11:55:12Z</time>
      </trkpt>
      <trkpt lat="48.6717" lon="-3.70871">
        <ele>71</ele>
        <time>2025-06-30T11:55:13Z</time>
      </trkpt>
      <trkpt lat="48.6718" lon="-3.70869">
        <ele>71.1</ele>
        <time>2025-06-30T11:55:14Z</time>
      </trkpt>
      <trkpt lat="48.67189" lon="-3.70866">
        <ele>71.3</ele>
        <time>2025-06-30T11:55:15Z</time>
      </trkpt>
      <trkpt lat="48.67198" lon="-3.70864">
        <ele>71.6</ele>
        <time>2025-06-30T11:55:16Z</time>
      </trkpt>
      <trkpt lat="48.67213" lon="-3.70861">
        <ele>72.6</ele>
        <time>2025-06-30T11:55:18Z</time>
      </trkpt>
      <trkpt lat="48.67228" lon="-3.70857">
        <ele>73.7</ele>
        <time>2025-06-30T11:55:20Z</time>
      </trkpt>
      <trkpt lat="48.67241" lon="-3.70855">
        <ele>74.6</ele>
        <time>2025-06-30T11:55:22Z</time>
      </trkpt>
      <trkpt lat="48.67252" lon="-3.70852">
        <ele>75.4</ele>
        <time>2025-06-30T11:55:24Z</time>
      </trkpt>
      <trkpt lat="48.67263" lon="-3.7085">
        <ele>76.1</ele>
        <time>2025-06-30T11:55:26Z</time>
      </trkpt>
      <trkpt lat="48.67273" lon="-3.70847">
        <ele>76.8</ele>
        <time>2025-06-30T11:55:28Z</time>
      </trkpt>
      <trkpt lat="48.67283" lon="-3.70845">
        <ele>77.4</ele>
        <time>2025-06-30T11:55:30Z</time>
      </trkpt>
      <trkpt lat="48.67294" lon="-3.70843">
        <ele>78.1</ele>
        <time>2025-06-30T11:55:32Z</time>
      </trkpt>
      <trkpt lat="48.67304" lon="-3.7084">
        <ele>78.7</ele>
        <time>2025-06-30T11:55:34Z</time>
      </trkpt>
      <trkpt lat="48.67315" lon="-3.70838">
        <ele>79.4</ele>
        <time>2025-06-30T11:55:36Z</time>
      </trkpt>
      <trkpt lat="48.67325" lon="-3.70835">
        <ele>80</ele>
        <time>2025-06-30T11:55:38Z</time>
      </trkpt>
      <trkpt lat="48.67335" lon="-3.70832">
        <ele>80.7</ele>
        <time>2025-06-30T11:55:40Z</time>
      </trkpt>
      <trkpt lat="48.67344" lon="-3.7083">
        <ele>81.3</ele>
        <time>2025-06-30T11:55:42Z</time>
      </trkpt>
      <trkpt lat="48.67353" lon="-3.70829">
        <ele>81.8</ele>
        <time>2025-06-30T11:55:44Z</time>
      </trkpt>
      <trkpt lat="48.67366" lon="-3.70826">
        <ele>82.6</ele>
        <time>2025-06-30T11:55:47Z</time>
      </trkpt>
      <trkpt lat="48.67379" lon="-3.70823">
        <ele>83.3</ele>
        <time>2025-06-30T11:55:50Z</time>
      </trkpt>
      <trkpt lat="48.67388" lon="-3.70821">
        <ele>83.8</ele>
        <time>2025-06-30T11:55:52Z</time>
      </trkpt>
      <trkpt lat="48.674" lon="-3.70819">
        <ele>84.4</ele>
        <time>2025-06-30T11:55:55Z</time>
      </trkpt>
      <trkpt lat="48.67412" lon="-3.70817">
        <ele>84.9</ele>
        <time>2025-06-30T11:55:58Z</time>
      </trkpt>
      <trkpt lat="48.67425" lon="-3.70816">
        <ele>85.3</ele>
        <time>2025-06-30T11:56:01Z</time>
      </trkpt>
      <trkpt lat="48.67437" lon="-3.70814">
        <ele>85.7</ele>
        <time>2025-06-30T11:56:04Z</time>
      </trkpt>
      <trkpt lat="48.6745" lon="-3.70812">
        <ele>86.1</ele>
        <time>2025-06-30T11:56:07Z</time>
      </trkpt>
      <trkpt lat="48.67462" lon="-3.70811">
        <ele>86.4</ele>
        <time>2025-06-30T11:56:10Z</time>
      </trkpt>
      <trkpt lat="48.67475" lon="-3.7081">
        <ele>86.6</ele>
        <time>2025-06-30T11:56:13Z</time>
      </trkpt>
      <trkpt lat="48.67488" lon="-3.70809">
        <ele>86.7</ele>
        <time>2025-06-30T11:56:16Z</time>
      </trkpt>
      <trkpt lat="48.67501" lon="-3.70809">
        <ele>86.8</ele>
        <time>2025-06-30T11:56:19Z</time>
      </trkpt>
      <trkpt lat="48.6751" lon="-3.7081">
        <ele>86.8</ele>
        <time>2025-06-30T11:56:21Z</time>
      </trkpt>
      <trkpt lat="48.67519" lon="-3.70809">
        <ele>86.8</ele>
        <time>2025-06-30T11:56:23Z</time>
      </trkpt>
      <trkpt lat="48.67528" lon="-3.70809">
        <ele>86.8</ele>
        <time>2025-06-30T11:56:25Z</time>
      </trkpt>
      <trkpt lat="48.67537" lon="-3.70809">
        <ele>86.8</ele>
        <time>2025-06-30T11:56:27Z</time>
      </trkpt>
      <trkpt lat="48.67547" lon="-3.70809">
        <ele>86.8</ele>
        <time>2025-06-30T11:56:29Z</time>
      </trkpt>
      <trkpt lat="48.67557" lon="-3.7081">
        <ele>86.8</ele>
        <time>2025-06-30T11:56:31Z</time>
      </trkpt>
      <trkpt lat="48.67567" lon="-3.70812">
        <ele>86.8</ele>
        <time>2025-06-30T11:56:33Z</time>
      </trkpt>
      <trkpt lat="48.67577" lon="-3.70813">
        <ele>86.8</ele>
        <time>2025-06-30T11:56:35Z</time>
      </trkpt>
      <trkpt lat="48.67587" lon="-3.70815">
        <ele>86.8</ele>
        <time>2025-06-30T11:56:37Z</time>
      </trkpt>
      <trkpt lat="48.67597" lon="-3.70817">
        <ele>86.9</ele>
        <time>2025-06-30T11:56:39Z</time>
      </trkpt>
      <trkpt lat="48.67608" lon="-3.70818">
        <ele>86.9</ele>
        <time>2025-06-30T11:56:41Z</time>
      </trkpt>
      <trkpt lat="48.67618" lon="-3.70819">
        <ele>86.9</ele>
        <time>2025-06-30T11:56:43Z</time>
      </trkpt>
      <trkpt lat="48.67628" lon="-3.7082">
        <ele>86.9</ele>
        <time>2025-06-30T11:56:45Z</time>
      </trkpt>
      <trkpt lat="48.67638" lon="-3.7082">
        <ele>87</ele>
        <time>2025-06-30T11:56:47Z</time>
      </trkpt>
      <trkpt lat="48.67649" lon="-3.70821">
        <ele>87</ele>
        <time>2025-06-30T11:56:49Z</time>
      </trkpt>
      <trkpt lat="48.67659" lon="-3.70823">
        <ele>87.1</ele>
        <time>2025-06-30T11:56:51Z</time>
      </trkpt>
      <trkpt lat="48.6767" lon="-3.70825">
        <ele>87.1</ele>
        <time>2025-06-30T11:56:53Z</time>
      </trkpt>
      <trkpt lat="48.6768" lon="-3.70826">
        <ele>87.1</ele>
        <time>2025-06-30T11:56:55Z</time>
      </trkpt>
      <trkpt lat="48.67692" lon="-3.70827">
        <ele>87.1</ele>
        <time>2025-06-30T11:56:57Z</time>
      </trkpt>
      <trkpt lat="48.67703" lon="-3.70827">
        <ele>87</ele>
        <time>2025-06-30T11:56:59Z</time>
      </trkpt>
      <trkpt lat="48.67715" lon="-3.70829">
        <ele>87</ele>
        <time>2025-06-30T11:57:01Z</time>
      </trkpt>
      <trkpt lat="48.67725" lon="-3.70828">
        <ele>87</ele>
        <time>2025-06-30T11:57:03Z</time>
      </trkpt>
      <trkpt lat="48.67737" lon="-3.70832">
        <ele>87</ele>
        <time>2025-06-30T11:57:05Z</time>
      </trkpt>
      <trkpt lat="48.67748" lon="-3.70831">
        <ele>87</ele>
        <time>2025-06-30T11:57:07Z</time>
      </trkpt>
      <trkpt lat="48.6776" lon="-3.70833">
        <ele>87</ele>
        <time>2025-06-30T11:57:09Z</time>
      </trkpt>
      <trkpt lat="48.67771" lon="-3.70835">
        <ele>86.9</ele>
        <time>2025-06-30T11:57:11Z</time>
      </trkpt>
      <trkpt lat="48.67783" lon="-3.70835">
        <ele>86.7</ele>
        <time>2025-06-30T11:57:13Z</time>
      </trkpt>
      <trkpt lat="48.67795" lon="-3.70838">
        <ele>86.5</ele>
        <time>2025-06-30T11:57:15Z</time>
      </trkpt>
      <trkpt lat="48.67807" lon="-3.70838">
        <ele>86.3</ele>
        <time>2025-06-30T11:57:17Z</time>
      </trkpt>
      <trkpt lat="48.67819" lon="-3.70839">
        <ele>86.1</ele>
        <time>2025-06-30T11:57:19Z</time>
      </trkpt>
      <trkpt lat="48.67832" lon="-3.70842">
        <ele>85.9</ele>
        <time>2025-06-30T11:57:21Z</time>
      </trkpt>
      <trkpt lat="48.67845" lon="-3.70847">
        <ele>85.7</ele>
        <time>2025-06-30T11:57:23Z</time>
      </trkpt>
      <trkpt lat="48.67858" lon="-3.70852">
        <ele>85.5</ele>
        <time>2025-06-30T11:57:25Z</time>
      </trkpt>
      <trkpt lat="48.67871" lon="-3.70859">
        <ele>85.4</ele>
        <time>2025-06-30T11:57:27Z</time>
      </trkpt>
      <trkpt lat="48.67884" lon="-3.70866">
        <ele>85.2</ele>
        <time>2025-06-30T11:57:29Z</time>
      </trkpt>
      <trkpt lat="48.67897" lon="-3.70874">
        <ele>85.1</ele>
        <time>2025-06-30T11:57:31Z</time>
      </trkpt>
      <trkpt lat="48.6791" lon="-3.70883">
        <ele>84.9</ele>
        <time>2025-06-30T11:57:33Z</time>
      </trkpt>
      <trkpt lat="48.67921" lon="-3.70897">
        <ele>84.8</ele>
        <time>2025-06-30T11:57:35Z</time>
      </trkpt>
      <trkpt lat="48.67932" lon="-3.70908">
        <ele>84.9</ele>
        <time>2025-06-30T11:57:37Z</time>
      </trkpt>
      <trkpt lat="48.67942" lon="-3.70923">
        <ele>84.9</ele>
        <time>2025-06-30T11:57:39Z</time>
      </trkpt>
      <trkpt lat="48.67952" lon="-3.70937">
        <ele>84.9</ele>
        <time>2025-06-30T11:57:41Z</time>
      </trkpt>
      <trkpt lat="48.67963" lon="-3.70952">
        <ele>85</ele>
        <time>2025-06-30T11:57:43Z</time>
      </trkpt>
      <trkpt lat="48.67974" lon="-3.70969">
        <ele>85.1</ele>
        <time>2025-06-30T11:57:45Z</time>
      </trkpt>
      <trkpt lat="48.67983" lon="-3.70984">
        <ele>85.3</ele>
        <time>2025-06-30T11:57:47Z</time>
      </trkpt>
      <trkpt lat="48.67993" lon="-3.71">
        <ele>85.4</ele>
        <time>2025-06-30T11:57:49Z</time>
      </trkpt>
      <trkpt lat="48.68001" lon="-3.71015">
        <ele>85.6</ele>
        <time>2025-06-30T11:57:51Z</time>
      </trkpt>
      <trkpt lat="48.68012" lon="-3.71028">
        <ele>86</ele>
        <time>2025-06-30T11:57:53Z</time>
      </trkpt>
      <trkpt lat="48.68021" lon="-3.71042">
        <ele>86.3</ele>
        <time>2025-06-30T11:57:55Z</time>
      </trkpt>
      <trkpt lat="48.6803" lon="-3.71054">
        <ele>86.6</ele>
        <time>2025-06-30T11:57:57Z</time>
      </trkpt>
      <trkpt lat="48.68042" lon="-3.71066">
        <ele>86.8</ele>
        <time>2025-06-30T11:57:59Z</time>
      </trkpt>
      <trkpt lat="48.68054" lon="-3.71076">
        <ele>87</ele>
        <time>2025-06-30T11:58:01Z</time>
      </trkpt>
      <trkpt lat="48.68064" lon="-3.71086">
        <ele>87.2</ele>
        <time>2025-06-30T11:58:03Z</time>
      </trkpt>
      <trkpt lat="48.68076" lon="-3.71096">
        <ele>87.4</ele>
        <time>2025-06-30T11:58:05Z</time>
      </trkpt>
      <trkpt lat="48.68088" lon="-3.71107">
        <ele>87.5</ele>
        <time>2025-06-30T11:58:07Z</time>
      </trkpt>
      <trkpt lat="48.681" lon="-3.71117">
        <ele>87.7</ele>
        <time>2025-06-30T11:58:09Z</time>
      </trkpt>
      <trkpt lat="48.6811" lon="-3.71126">
        <ele>87.8</ele>
        <time>2025-06-30T11:58:11Z</time>
      </trkpt>
      <trkpt lat="48.68121" lon="-3.71137">
        <ele>88</ele>
        <time>2025-06-30T11:58:13Z</time>
      </trkpt>
      <trkpt lat="48.6813" lon="-3.71149">
        <ele>88</ele>
        <time>2025-06-30T11:58:15Z</time>
      </trkpt>
      <trkpt lat="48.68137" lon="-3.71162">
        <ele>88.1</ele>
        <time>2025-06-30T11:58:17Z</time>
      </trkpt>
      <trkpt lat="48.68143" lon="-3.71178">
        <ele>88.3</ele>
        <time>2025-06-30T11:58:19Z</time>
      </trkpt>
      <trkpt lat="48.68147" lon="-3.71194">
        <ele>88.4</ele>
        <time>2025-06-30T11:58:21Z</time>
      </trkpt>
      <trkpt lat="48.68153" lon="-3.71209">
        <ele>88.6</ele>
        <time>2025-06-30T11:58:23Z</time>
      </trkpt>
      <trkpt lat="48.68158" lon="-3.71225">
        <ele>88.8</ele>
        <time>2025-06-30T11:58:25Z</time>
      </trkpt>
      <trkpt lat="48.68163" lon="-3.7124">
        <ele>89.1</ele>
        <time>2025-06-30T11:58:27Z</time>
      </trkpt>
      <trkpt lat="48.68169" lon="-3.71255">
        <ele>89.5</ele>
        <time>2025-06-30T11:58:29Z</time>
      </trkpt>
      <trkpt lat="48.68175" lon="-3.71268">
        <ele>89.9</ele>
        <time>2025-06-30T11:58:31Z</time>
      </trkpt>
      <trkpt lat="48.68181" lon="-3.71281">
        <ele>90.3</ele>
        <time>2025-06-30T11:58:33Z</time>
      </trkpt>
      <trkpt lat="48.68188" lon="-3.71292">
        <ele>90.7</ele>
        <time>2025-06-30T11:58:35Z</time>
      </trkpt>
      <trkpt lat="48.68195" lon="-3.71302">
        <ele>91.1</ele>
        <time>2025-06-30T11:58:38Z</time>
      </trkpt>
      <trkpt lat="48.68206" lon="-3.71318">
        <ele>91.8</ele>
        <time>2025-06-30T11:58:41Z</time>
      </trkpt>
      <trkpt lat="48.68216" lon="-3.71334">
        <ele>92.6</ele>
        <time>2025-06-30T11:58:44Z</time>
      </trkpt>
      <trkpt lat="48.68223" lon="-3.71347">
        <ele>93.2</ele>
        <time>2025-06-30T11:58:47Z</time>
      </trkpt>
      <trkpt lat="48.68231" lon="-3.7136">
        <ele>93.9</ele>
        <time>2025-06-30T11:58:50Z</time>
      </trkpt>
      <trkpt lat="48.68239" lon="-3.71374">
        <ele>94.5</ele>
        <time>2025-06-30T11:58:53Z</time>
      </trkpt>
      <trkpt lat="48.68248" lon="-3.71388">
        <ele>95.1</ele>
        <time>2025-06-30T11:58:56Z</time>
      </trkpt>
      <trkpt lat="48.68256" lon="-3.71402">
        <ele>95.6</ele>
        <time>2025-06-30T11:58:59Z</time>
      </trkpt>
      <trkpt lat="48.68264" lon="-3.71416">
        <ele>96.1</ele>
        <time>2025-06-30T11:59:02Z</time>
      </trkpt>
      <trkpt lat="48.68272" lon="-3.71431">
        <ele>96.5</ele>
        <time>2025-06-30T11:59:05Z</time>
      </trkpt>
      <trkpt lat="48.6828" lon="-3.71445">
        <ele>96.8</ele>
        <time>2025-06-30T11:59:08Z</time>
      </trkpt>
      <trkpt lat="48.68289" lon="-3.71459">
        <ele>97.2</ele>
        <time>2025-06-30T11:59:11Z</time>
      </trkpt>
      <trkpt lat="48.68297" lon="-3.71472">
        <ele>97.6</ele>
        <time>2025-06-30T11:59:14Z</time>
      </trkpt>
      <trkpt lat="48.68307" lon="-3.71485">
        <ele>98</ele>
        <time>2025-06-30T11:59:17Z</time>
      </trkpt>
      <trkpt lat="48.68316" lon="-3.71498">
        <ele>98.3</ele>
        <time>2025-06-30T11:59:20Z</time>
      </trkpt>
      <trkpt lat="48.68325" lon="-3.7151">
        <ele>98.5</ele>
        <time>2025-06-30T11:59:23Z</time>
      </trkpt>
      <trkpt lat="48.68336" lon="-3.71521">
        <ele>98.7</ele>
        <time>2025-06-30T11:59:26Z</time>
      </trkpt>
      <trkpt lat="48.68348" lon="-3.7153">
        <ele>98.9</ele>
        <time>2025-06-30T11:59:29Z</time>
      </trkpt>
      <trkpt lat="48.68359" lon="-3.71541">
        <ele>99</ele>
        <time>2025-06-30T11:59:32Z</time>
      </trkpt>
      <trkpt lat="48.6837" lon="-3.7155">
        <ele>99.2</ele>
        <time>2025-06-30T11:59:35Z</time>
      </trkpt>
      <trkpt lat="48.68381" lon="-3.7156">
        <ele>99.3</ele>
        <time>2025-06-30T11:59:38Z</time>
      </trkpt>
      <trkpt lat="48.68393" lon="-3.71569">
        <ele>99.4</ele>
        <time>2025-06-30T11:59:41Z</time>
      </trkpt>
      <trkpt lat="48.68401" lon="-3.71576">
        <ele>99.5</ele>
        <time>2025-06-30T11:59:43Z</time>
      </trkpt>
      <trkpt lat="48.68409" lon="-3.71583">
        <ele>99.5</ele>
        <time>2025-06-30T11:59:45Z</time>
      </trkpt>
      <trkpt lat="48.68417" lon="-3.7159">
        <ele>99.6</ele>
        <time>2025-06-30T11:59:47Z</time>
      </trkpt>
      <trkpt lat="48.68426" lon="-3.71597">
        <ele>99.7</ele>
        <time>2025-06-30T11:59:49Z</time>
      </trkpt>
      <trkpt lat="48.68434" lon="-3.71604">
        <ele>99.7</ele>
        <time>2025-06-30T11:59:51Z</time>
      </trkpt>
      <trkpt lat="48.68442" lon="-3.71612">
        <ele>99.7</ele>
        <time>2025-06-30T11:59:53Z</time>
      </trkpt>
      <trkpt lat="48.68451" lon="-3.71621">
        <ele>99.7</ele>
        <time>2025-06-30T11:59:55Z</time>
      </trkpt>
      <trkpt lat="48.68459" lon="-3.71629">
        <ele>99.7</ele>
        <time>2025-06-30T11:59:57Z</time>
      </trkpt>
      <trkpt lat="48.68471" lon="-3.71643">
        <ele>99.6</ele>
        <time>2025-06-30T12:00:00Z</time>
      </trkpt>
      <trkpt lat="48.68477" lon="-3.71652">
        <ele>99.6</ele>
        <time>2025-06-30T12:00:02Z</time>
      </trkpt>
      <trkpt lat="48.68485" lon="-3.71662">
        <ele>99.6</ele>
        <time>2025-06-30T12:00:04Z</time>
      </trkpt>
      <trkpt lat="48.68493" lon="-3.71673">
        <ele>99.5</ele>
        <time>2025-06-30T12:00:06Z</time>
      </trkpt>
      <trkpt lat="48.685" lon="-3.7168">
        <ele>99.4</ele>
        <time>2025-06-30T12:00:08Z</time>
      </trkpt>
      <trkpt lat="48.68509" lon="-3.71695">
        <ele>99.2</ele>
        <time>2025-06-30T12:00:10Z</time>
      </trkpt>
      <trkpt lat="48.68518" lon="-3.71707">
        <ele>99.1</ele>
        <time>2025-06-30T12:00:12Z</time>
      </trkpt>
      <trkpt lat="48.68526" lon="-3.7172">
        <ele>99</ele>
        <time>2025-06-30T12:00:14Z</time>
      </trkpt>
      <trkpt lat="48.68535" lon="-3.71732">
        <ele>98.9</ele>
        <time>2025-06-30T12:00:16Z</time>
      </trkpt>
      <trkpt lat="48.68544" lon="-3.71745">
        <ele>98.8</ele>
        <time>2025-06-30T12:00:18Z</time>
      </trkpt>
      <trkpt lat="48.68554" lon="-3.71758">
        <ele>98.7</ele>
        <time>2025-06-30T12:00:20Z</time>
      </trkpt>
      <trkpt lat="48.68563" lon="-3.71771">
        <ele>98.6</ele>
        <time>2025-06-30T12:00:22Z</time>
      </trkpt>
      <trkpt lat="48.68573" lon="-3.71785">
        <ele>98.4</ele>
        <time>2025-06-30T12:00:24Z</time>
      </trkpt>
      <trkpt lat="48.68583" lon="-3.71799">
        <ele>98.3</ele>
        <time>2025-06-30T12:00:26Z</time>
      </trkpt>
      <trkpt lat="48.68593" lon="-3.71813">
        <ele>98.2</ele>
        <time>2025-06-30T12:00:28Z</time>
      </trkpt>
      <trkpt lat="48.68603" lon="-3.71827">
        <ele>98</ele>
        <time>2025-06-30T12:00:30Z</time>
      </trkpt>
      <trkpt lat="48.68614" lon="-3.71841">
        <ele>97.8</ele>
        <time>2025-06-30T12:00:32Z</time>
      </trkpt>
      <trkpt lat="48.68625" lon="-3.71854">
        <ele>97.7</ele>
        <time>2025-06-30T12:00:34Z</time>
      </trkpt>
      <trkpt lat="48.68637" lon="-3.71865">
        <ele>97.6</ele>
        <time>2025-06-30T12:00:36Z</time>
      </trkpt>
      <trkpt lat="48.6865" lon="-3.71877">
        <ele>97.4</ele>
        <time>2025-06-30T12:00:38Z</time>
      </trkpt>
      <trkpt lat="48.68664" lon="-3.71881">
        <ele>97.3</ele>
        <time>2025-06-30T12:00:40Z</time>
      </trkpt>
      <trkpt lat="48.68677" lon="-3.71886">
        <ele>97.2</ele>
        <time>2025-06-30T12:00:42Z</time>
      </trkpt>
      <trkpt lat="48.68691" lon="-3.71891">
        <ele>97.1</ele>
        <time>2025-06-30T12:00:44Z</time>
      </trkpt>
      <trkpt lat="48.68705" lon="-3.71894">
        <ele>96.9</ele>
        <time>2025-06-30T12:00:46Z</time>
      </trkpt>
      <trkpt lat="48.68719" lon="-3.719">
        <ele>96.8</ele>
        <time>2025-06-30T12:00:48Z</time>
      </trkpt>
      <trkpt lat="48.68733" lon="-3.71904">
        <ele>96.8</ele>
        <time>2025-06-30T12:00:50Z</time>
      </trkpt>
      <trkpt lat="48.68747" lon="-3.71908">
        <ele>96.7</ele>
        <time>2025-06-30T12:00:52Z</time>
      </trkpt>
      <trkpt lat="48.68761" lon="-3.71914">
        <ele>96.6</ele>
        <time>2025-06-30T12:00:54Z</time>
      </trkpt>
      <trkpt lat="48.68775" lon="-3.71921">
        <ele>96.5</ele>
        <time>2025-06-30T12:00:56Z</time>
      </trkpt>
      <trkpt lat="48.68789" lon="-3.71932">
        <ele>96.4</ele>
        <time>2025-06-30T12:00:58Z</time>
      </trkpt>
      <trkpt lat="48.68802" lon="-3.71944">
        <ele>96.3</ele>
        <time>2025-06-30T12:01:00Z</time>
      </trkpt>
      <trkpt lat="48.68815" lon="-3.71957">
        <ele>96.2</ele>
        <time>2025-06-30T12:01:02Z</time>
      </trkpt>
      <trkpt lat="48.68828" lon="-3.7197">
        <ele>96.1</ele>
        <time>2025-06-30T12:01:04Z</time>
      </trkpt>
      <trkpt lat="48.68841" lon="-3.71983">
        <ele>96</ele>
        <time>2025-06-30T12:01:06Z</time>
      </trkpt>
      <trkpt lat="48.68856" lon="-3.71995">
        <ele>95.9</ele>
        <time>2025-06-30T12:01:08Z</time>
      </trkpt>
      <trkpt lat="48.6887" lon="-3.72005">
        <ele>95.7</ele>
        <time>2025-06-30T12:01:10Z</time>
      </trkpt>
      <trkpt lat="48.68884" lon="-3.72012">
        <ele>95.7</ele>
        <time>2025-06-30T12:01:12Z</time>
      </trkpt>
      <trkpt lat="48.68898" lon="-3.72019">
        <ele>95.6</ele>
        <time>2025-06-30T12:01:14Z</time>
      </trkpt>
      <trkpt lat="48.68912" lon="-3.72023">
        <ele>95.6</ele>
        <time>2025-06-30T12:01:16Z</time>
      </trkpt>
      <trkpt lat="48.68926" lon="-3.72028">
        <ele>95.5</ele>
        <time>2025-06-30T12:01:18Z</time>
      </trkpt>
      <trkpt lat="48.6894" lon="-3.72031">
        <ele>95.4</ele>
        <time>2025-06-30T12:01:20Z</time>
      </trkpt>
      <trkpt lat="48.68955" lon="-3.72035">
        <ele>95.2</ele>
        <time>2025-06-30T12:01:22Z</time>
      </trkpt>
      <trkpt lat="48.68969" lon="-3.72039">
        <ele>95.1</ele>
        <time>2025-06-30T12:01:24Z</time>
      </trkpt>
      <trkpt lat="48.68983" lon="-3.72043">
        <ele>94.8</ele>
        <time>2025-06-30T12:01:26Z</time>
      </trkpt>
      <trkpt lat="48.68998" lon="-3.72048">
        <ele>94.6</ele>
        <time>2025-06-30T12:01:28Z</time>
      </trkpt>
      <trkpt lat="48.69012" lon="-3.72056">
        <ele>94.4</ele>
        <time>2025-06-30T12:01:30Z</time>
      </trkpt>
      <trkpt lat="48.69026" lon="-3.72064">
        <ele>94.1</ele>
        <time>2025-06-30T12:01:32Z</time>
      </trkpt>
      <trkpt lat="48.6904" lon="-3.72072">
        <ele>93.9</ele>
        <time>2025-06-30T12:01:34Z</time>
      </trkpt>
      <trkpt lat="48.69054" lon="-3.72082">
        <ele>93.7</ele>
        <time>2025-06-30T12:01:36Z</time>
      </trkpt>
      <trkpt lat="48.69068" lon="-3.72092">
        <ele>93.5</ele>
        <time>2025-06-30T12:01:38Z</time>
      </trkpt>
      <trkpt lat="48.69083" lon="-3.72102">
        <ele>93.3</ele>
        <time>2025-06-30T12:01:40Z</time>
      </trkpt>
      <trkpt lat="48.69097" lon="-3.72111">
        <ele>93.1</ele>
        <time>2025-06-30T12:01:42Z</time>
      </trkpt>
      <trkpt lat="48.69111" lon="-3.72123">
        <ele>93</ele>
        <time>2025-06-30T12:01:44Z</time>
      </trkpt>
      <trkpt lat="48.69125" lon="-3.72134">
        <ele>92.8</ele>
        <time>2025-06-30T12:01:46Z</time>
      </trkpt>
      <trkpt lat="48.69139" lon="-3.72145">
        <ele>92.7</ele>
        <time>2025-06-30T12:01:48Z</time>
      </trkpt>
      <trkpt lat="48.69153" lon="-3.72157">
        <ele>92.5</ele>
        <time>2025-06-30T12:01:50Z</time>
      </trkpt>
      <trkpt lat="48.69167" lon="-3.72168">
        <ele>92.3</ele>
        <time>2025-06-30T12:01:52Z</time>
      </trkpt>
      <trkpt lat="48.69181" lon="-3.7218">
        <ele>92.1</ele>
        <time>2025-06-30T12:01:54Z</time>
      </trkpt>
      <trkpt lat="48.69195" lon="-3.72191">
        <ele>91.8</ele>
        <time>2025-06-30T12:01:56Z</time>
      </trkpt>
      <trkpt lat="48.6921" lon="-3.72203">
        <ele>91.4</ele>
        <time>2025-06-30T12:01:58Z</time>
      </trkpt>
      <trkpt lat="48.69224" lon="-3.72215">
        <ele>90.9</ele>
        <time>2025-06-30T12:02:00Z</time>
      </trkpt>
      <trkpt lat="48.6924" lon="-3.72226">
        <ele>90.5</ele>
        <time>2025-06-30T12:02:02Z</time>
      </trkpt>
      <trkpt lat="48.69255" lon="-3.72237">
        <ele>90.1</ele>
        <time>2025-06-30T12:02:04Z</time>
      </trkpt>
      <trkpt lat="48.69271" lon="-3.72249">
        <ele>89.7</ele>
        <time>2025-06-30T12:02:06Z</time>
      </trkpt>
      <trkpt lat="48.69288" lon="-3.72259">
        <ele>89.3</ele>
        <time>2025-06-30T12:02:08Z</time>
      </trkpt>
      <trkpt lat="48.69296" lon="-3.72265">
        <ele>89.1</ele>
        <time>2025-06-30T12:02:09Z</time>
      </trkpt>
      <trkpt lat="48.69304" lon="-3.72271">
        <ele>88.8</ele>
        <time>2025-06-30T12:02:10Z</time>
      </trkpt>
      <trkpt lat="48.69313" lon="-3.72276">
        <ele>88.6</ele>
        <time>2025-06-30T12:02:11Z</time>
      </trkpt>
      <trkpt lat="48.69321" lon="-3.72282">
        <ele>88.4</ele>
        <time>2025-06-30T12:02:12Z</time>
      </trkpt>
      <trkpt lat="48.6933" lon="-3.72287">
        <ele>88.1</ele>
        <time>2025-06-30T12:02:13Z</time>
      </trkpt>
      <trkpt lat="48.69339" lon="-3.72292">
        <ele>87.9</ele>
        <time>2025-06-30T12:02:14Z</time>
      </trkpt>
      <trkpt lat="48.69348" lon="-3.72297">
        <ele>87.7</ele>
        <time>2025-06-30T12:02:15Z</time>
      </trkpt>
      <trkpt lat="48.69356" lon="-3.72302">
        <ele>87.5</ele>
        <time>2025-06-30T12:02:16Z</time>
      </trkpt>
      <trkpt lat="48.69365" lon="-3.72308">
        <ele>87.3</ele>
        <time>2025-06-30T12:02:17Z</time>
      </trkpt>
      <trkpt lat="48.69374" lon="-3.72313">
        <ele>87.1</ele>
        <time>2025-06-30T12:02:18Z</time>
      </trkpt>
      <trkpt lat="48.69382" lon="-3.72317">
        <ele>86.9</ele>
        <time>2025-06-30T12:02:19Z</time>
      </trkpt>
      <trkpt lat="48.69391" lon="-3.72321">
        <ele>86.7</ele>
        <time>2025-06-30T12:02:20Z</time>
      </trkpt>
      <trkpt lat="48.69401" lon="-3.72324">
        <ele>86.5</ele>
        <time>2025-06-30T12:02:21Z</time>
      </trkpt>
      <trkpt lat="48.69409" lon="-3.72329">
        <ele>86.3</ele>
        <time>2025-06-30T12:02:22Z</time>
      </trkpt>
      <trkpt lat="48.69418" lon="-3.72333">
        <ele>86</ele>
        <time>2025-06-30T12:02:23Z</time>
      </trkpt>
      <trkpt lat="48.69427" lon="-3.72338">
        <ele>85.8</ele>
        <time>2025-06-30T12:02:24Z</time>
      </trkpt>
      <trkpt lat="48.69436" lon="-3.72342">
        <ele>85.5</ele>
        <time>2025-06-30T12:02:25Z</time>
      </trkpt>
      <trkpt lat="48.69445" lon="-3.72346">
        <ele>85.3</ele>
        <time>2025-06-30T12:02:26Z</time>
      </trkpt>
      <trkpt lat="48.69454" lon="-3.7235">
        <ele>85</ele>
        <time>2025-06-30T12:02:27Z</time>
      </trkpt>
      <trkpt lat="48.69463" lon="-3.72354">
        <ele>84.8</ele>
        <time>2025-06-30T12:02:28Z</time>
      </trkpt>
      <trkpt lat="48.69472" lon="-3.72358">
        <ele>84.5</ele>
        <time>2025-06-30T12:02:29Z</time>
      </trkpt>
      <trkpt lat="48.69489" lon="-3.72366">
        <ele>83.8</ele>
        <time>2025-06-30T12:02:31Z</time>
      </trkpt>
      <trkpt lat="48.69498" lon="-3.72372">
        <ele>83.5</ele>
        <time>2025-06-30T12:02:32Z</time>
      </trkpt>
      <trkpt lat="48.69507" lon="-3.72376">
        <ele>83.1</ele>
        <time>2025-06-30T12:02:33Z</time>
      </trkpt>
      <trkpt lat="48.69516" lon="-3.7238">
        <ele>82.7</ele>
        <time>2025-06-30T12:02:34Z</time>
      </trkpt>
      <trkpt lat="48.69526" lon="-3.72384">
        <ele>82.2</ele>
        <time>2025-06-30T12:02:35Z</time>
      </trkpt>
      <trkpt lat="48.69535" lon="-3.72388">
        <ele>81.7</ele>
        <time>2025-06-30T12:02:36Z</time>
      </trkpt>
      <trkpt lat="48.69544" lon="-3.72392">
        <ele>81.2</ele>
        <time>2025-06-30T12:02:37Z</time>
      </trkpt>
      <trkpt lat="48.69554" lon="-3.72396">
        <ele>80.7</ele>
        <time>2025-06-30T12:02:38Z</time>
      </trkpt>
      <trkpt lat="48.69563" lon="-3.72402">
        <ele>80.2</ele>
        <time>2025-06-30T12:02:39Z</time>
      </trkpt>
      <trkpt lat="48.69573" lon="-3.72406">
        <ele>79.7</ele>
        <time>2025-06-30T12:02:40Z</time>
      </trkpt>
      <trkpt lat="48.69582" lon="-3.7241">
        <ele>79.2</ele>
        <time>2025-06-30T12:02:41Z</time>
      </trkpt>
      <trkpt lat="48.69592" lon="-3.72413">
        <ele>78.7</ele>
        <time>2025-06-30T12:02:42Z</time>
      </trkpt>
      <trkpt lat="48.69602" lon="-3.72418">
        <ele>78.2</ele>
        <time>2025-06-30T12:02:43Z</time>
      </trkpt>
      <trkpt lat="48.69612" lon="-3.72422">
        <ele>77.6</ele>
        <time>2025-06-30T12:02:44Z</time>
      </trkpt>
      <trkpt lat="48.69621" lon="-3.72427">
        <ele>77</ele>
        <time>2025-06-30T12:02:45Z</time>
      </trkpt>
      <trkpt lat="48.69631" lon="-3.72432">
        <ele>76.5</ele>
        <time>2025-06-30T12:02:46Z</time>
      </trkpt>
      <trkpt lat="48.69641" lon="-3.72437">
        <ele>76</ele>
        <time>2025-06-30T12:02:47Z</time>
      </trkpt>
      <trkpt lat="48.69651" lon="-3.72443">
        <ele>75.7</ele>
        <time>2025-06-30T12:02:48Z</time>
      </trkpt>
      <trkpt lat="48.69661" lon="-3.7245">
        <ele>75.1</ele>
        <time>2025-06-30T12:02:49Z</time>
      </trkpt>
      <trkpt lat="48.6967" lon="-3.72457">
        <ele>74.5</ele>
        <time>2025-06-30T12:02:50Z</time>
      </trkpt>
      <trkpt lat="48.69679" lon="-3.72466">
        <ele>73.9</ele>
        <time>2025-06-30T12:02:51Z</time>
      </trkpt>
      <trkpt lat="48.69688" lon="-3.72475">
        <ele>73.3</ele>
        <time>2025-06-30T12:02:52Z</time>
      </trkpt>
      <trkpt lat="48.69697" lon="-3.72485">
        <ele>72.6</ele>
        <time>2025-06-30T12:02:53Z</time>
      </trkpt>
      <trkpt lat="48.69706" lon="-3.72496">
        <ele>71.9</ele>
        <time>2025-06-30T12:02:54Z</time>
      </trkpt>
      <trkpt lat="48.69714" lon="-3.72507">
        <ele>71.2</ele>
        <time>2025-06-30T12:02:55Z</time>
      </trkpt>
      <trkpt lat="48.69722" lon="-3.72519">
        <ele>70.4</ele>
        <time>2025-06-30T12:02:56Z</time>
      </trkpt>
      <trkpt lat="48.69731" lon="-3.7253">
        <ele>69.6</ele>
        <time>2025-06-30T12:02:57Z</time>
      </trkpt>
      <trkpt lat="48.69739" lon="-3.72542">
        <ele>68.8</ele>
        <time>2025-06-30T12:02:58Z</time>
      </trkpt>
      <trkpt lat="48.69748" lon="-3.72553">
        <ele>68</ele>
        <time>2025-06-30T12:02:59Z</time>
      </trkpt>
      <trkpt lat="48.69758" lon="-3.72562">
        <ele>67.3</ele>
        <time>2025-06-30T12:03:00Z</time>
      </trkpt>
      <trkpt lat="48.69769" lon="-3.7257">
        <ele>66.7</ele>
        <time>2025-06-30T12:03:01Z</time>
      </trkpt>
      <trkpt lat="48.6978" lon="-3.72576">
        <ele>66.3</ele>
        <time>2025-06-30T12:03:02Z</time>
      </trkpt>
      <trkpt lat="48.69791" lon="-3.72581">
        <ele>65.9</ele>
        <time>2025-06-30T12:03:03Z</time>
      </trkpt>
      <trkpt lat="48.69802" lon="-3.72584">
        <ele>65.7</ele>
        <time>2025-06-30T12:03:04Z</time>
      </trkpt>
      <trkpt lat="48.69812" lon="-3.72587">
        <ele>65.5</ele>
        <time>2025-06-30T12:03:05Z</time>
      </trkpt>
      <trkpt lat="48.69822" lon="-3.72591">
        <ele>65.5</ele>
        <time>2025-06-30T12:03:06Z</time>
      </trkpt>
      <trkpt lat="48.69832" lon="-3.72595">
        <ele>65.6</ele>
        <time>2025-06-30T12:03:07Z</time>
      </trkpt>
      <trkpt lat="48.69842" lon="-3.726">
        <ele>65.8</ele>
        <time>2025-06-30T12:03:08Z</time>
      </trkpt>
      <trkpt lat="48.69851" lon="-3.72604">
        <ele>66.1</ele>
        <time>2025-06-30T12:03:09Z</time>
      </trkpt>
      <trkpt lat="48.6986" lon="-3.72607">
        <ele>66.5</ele>
        <time>2025-06-30T12:03:10Z</time>
      </trkpt>
      <trkpt lat="48.69869" lon="-3.72611">
        <ele>66.9</ele>
        <time>2025-06-30T12:03:11Z</time>
      </trkpt>
      <trkpt lat="48.69885" lon="-3.72623">
        <ele>68</ele>
        <time>2025-06-30T12:03:13Z</time>
      </trkpt>
      <trkpt lat="48.69898" lon="-3.72633">
        <ele>69.1</ele>
        <time>2025-06-30T12:03:15Z</time>
      </trkpt>
      <trkpt lat="48.6991" lon="-3.72645">
        <ele>70.3</ele>
        <time>2025-06-30T12:03:17Z</time>
      </trkpt>
      <trkpt lat="48.69922" lon="-3.72655">
        <ele>71.4</ele>
        <time>2025-06-30T12:03:19Z</time>
      </trkpt>
      <trkpt lat="48.69933" lon="-3.72664">
        <ele>72.6</ele>
        <time>2025-06-30T12:03:21Z</time>
      </trkpt>
      <trkpt lat="48.69942" lon="-3.72675">
        <ele>73.8</ele>
        <time>2025-06-30T12:03:23Z</time>
      </trkpt>
      <trkpt lat="48.69952" lon="-3.72684">
        <ele>74.9</ele>
        <time>2025-06-30T12:03:25Z</time>
      </trkpt>
      <trkpt lat="48.69959" lon="-3.72694">
        <ele>75.9</ele>
        <time>2025-06-30T12:03:27Z</time>
      </trkpt>
      <trkpt lat="48.69965" lon="-3.72706">
        <ele>76.9</ele>
        <time>2025-06-30T12:03:29Z</time>
      </trkpt>
      <trkpt lat="48.69972" lon="-3.72718">
        <ele>78</ele>
        <time>2025-06-30T12:03:32Z</time>
      </trkpt>
      <trkpt lat="48.69979" lon="-3.72728">
        <ele>78.9</ele>
        <time>2025-06-30T12:03:35Z</time>
      </trkpt>
      <trkpt lat="48.69986" lon="-3.72743">
        <ele>80.1</ele>
        <time>2025-06-30T12:03:39Z</time>
      </trkpt>
      <trkpt lat="48.69992" lon="-3.72755">
        <ele>80.8</ele>
        <time>2025-06-30T12:03:42Z</time>
      </trkpt>
      <trkpt lat="48.69998" lon="-3.72769">
        <ele>81.5</ele>
        <time>2025-06-30T12:03:46Z</time>
      </trkpt>
      <trkpt lat="48.70003" lon="-3.7278">
        <ele>81.9</ele>
        <time>2025-06-30T12:03:48Z</time>
      </trkpt>
      <trkpt lat="48.70009" lon="-3.72797">
        <ele>82.3</ele>
        <time>2025-06-30T12:03:52Z</time>
      </trkpt>
      <trkpt lat="48.70016" lon="-3.72814">
        <ele>82.7</ele>
        <time>2025-06-30T12:03:54Z</time>
      </trkpt>
      <trkpt lat="48.70025" lon="-3.72828">
        <ele>82.9</ele>
        <time>2025-06-30T12:03:57Z</time>
      </trkpt>
      <trkpt lat="48.70031" lon="-3.72844">
        <ele>83.1</ele>
        <time>2025-06-30T12:04:00Z</time>
      </trkpt>
      <trkpt lat="48.70039" lon="-3.7286">
        <ele>83.2</ele>
        <time>2025-06-30T12:04:03Z</time>
      </trkpt>
      <trkpt lat="48.70044" lon="-3.72872">
        <ele>83.3</ele>
        <time>2025-06-30T12:04:05Z</time>
      </trkpt>
      <trkpt lat="48.70049" lon="-3.72883">
        <ele>83.4</ele>
        <time>2025-06-30T12:04:07Z</time>
      </trkpt>
      <trkpt lat="48.70052" lon="-3.72897">
        <ele>83.5</ele>
        <time>2025-06-30T12:04:09Z</time>
      </trkpt>
      <trkpt lat="48.70053" lon="-3.72911">
        <ele>83.6</ele>
        <time>2025-06-30T12:04:11Z</time>
      </trkpt>
      <trkpt lat="48.70056" lon="-3.72925">
        <ele>83.6</ele>
        <time>2025-06-30T12:04:13Z</time>
      </trkpt>
      <trkpt lat="48.70054" lon="-3.7294">
        <ele>83.7</ele>
        <time>2025-06-30T12:04:15Z</time>
      </trkpt>
      <trkpt lat="48.70049" lon="-3.72953">
        <ele>83.7</ele>
        <time>2025-06-30T12:04:17Z</time>
      </trkpt>
      <trkpt lat="48.70045" lon="-3.72968">
        <ele>83.8</ele>
        <time>2025-06-30T12:04:19Z</time>
      </trkpt>
      <trkpt lat="48.7004" lon="-3.72982">
        <ele>83.8</ele>
        <time>2025-06-30T12:04:21Z</time>
      </trkpt>
      <trkpt lat="48.70035" lon="-3.72996">
        <ele>83.9</ele>
        <time>2025-06-30T12:04:23Z</time>
      </trkpt>
      <trkpt lat="48.70029" lon="-3.73009">
        <ele>83.9</ele>
        <time>2025-06-30T12:04:25Z</time>
      </trkpt>
      <trkpt lat="48.70023" lon="-3.73023">
        <ele>83.9</ele>
        <time>2025-06-30T12:04:27Z</time>
      </trkpt>
      <trkpt lat="48.70019" lon="-3.73038">
        <ele>84.1</ele>
        <time>2025-06-30T12:04:29Z</time>
      </trkpt>
      <trkpt lat="48.70017" lon="-3.73055">
        <ele>84.2</ele>
        <time>2025-06-30T12:04:31Z</time>
      </trkpt>
      <trkpt lat="48.70017" lon="-3.73072">
        <ele>84.4</ele>
        <time>2025-06-30T12:04:33Z</time>
      </trkpt>
      <trkpt lat="48.70017" lon="-3.73088">
        <ele>84.5</ele>
        <time>2025-06-30T12:04:35Z</time>
      </trkpt>
      <trkpt lat="48.70018" lon="-3.73105">
        <ele>84.6</ele>
        <time>2025-06-30T12:04:37Z</time>
      </trkpt>
      <trkpt lat="48.70019" lon="-3.73122">
        <ele>84.6</ele>
        <time>2025-06-30T12:04:39Z</time>
      </trkpt>
      <trkpt lat="48.7002" lon="-3.73139">
        <ele>84.7</ele>
        <time>2025-06-30T12:04:41Z</time>
      </trkpt>
      <trkpt lat="48.70021" lon="-3.73158">
        <ele>84.7</ele>
        <time>2025-06-30T12:04:43Z</time>
      </trkpt>
      <trkpt lat="48.70022" lon="-3.73176">
        <ele>84.6</ele>
        <time>2025-06-30T12:04:45Z</time>
      </trkpt>
      <trkpt lat="48.70023" lon="-3.73195">
        <ele>84.6</ele>
        <time>2025-06-30T12:04:47Z</time>
      </trkpt>
      <trkpt lat="48.70025" lon="-3.73214">
        <ele>84.7</ele>
        <time>2025-06-30T12:04:49Z</time>
      </trkpt>
      <trkpt lat="48.70026" lon="-3.73233">
        <ele>84.7</ele>
        <time>2025-06-30T12:04:51Z</time>
      </trkpt>
      <trkpt lat="48.70027" lon="-3.73253">
        <ele>84.7</ele>
        <time>2025-06-30T12:04:53Z</time>
      </trkpt>
      <trkpt lat="48.7003" lon="-3.73272">
        <ele>84.8</ele>
        <time>2025-06-30T12:04:55Z</time>
      </trkpt>
      <trkpt lat="48.70034" lon="-3.7329">
        <ele>84.8</ele>
        <time>2025-06-30T12:04:57Z</time>
      </trkpt>
      <trkpt lat="48.70044" lon="-3.73302">
        <ele>84.8</ele>
        <time>2025-06-30T12:04:59Z</time>
      </trkpt>
      <trkpt lat="48.70056" lon="-3.73309">
        <ele>84.7</ele>
        <time>2025-06-30T12:05:01Z</time>
      </trkpt>
      <trkpt lat="48.70068" lon="-3.73313">
        <ele>84.7</ele>
        <time>2025-06-30T12:05:03Z</time>
      </trkpt>
      <trkpt lat="48.7008" lon="-3.73323">
        <ele>84.7</ele>
        <time>2025-06-30T12:05:05Z</time>
      </trkpt>
      <trkpt lat="48.70085" lon="-3.73342">
        <ele>84.7</ele>
        <time>2025-06-30T12:05:07Z</time>
      </trkpt>
      <trkpt lat="48.70089" lon="-3.7336">
        <ele>84.7</ele>
        <time>2025-06-30T12:05:09Z</time>
      </trkpt>
      <trkpt lat="48.7009" lon="-3.7338">
        <ele>84.7</ele>
        <time>2025-06-30T12:05:11Z</time>
      </trkpt>
      <trkpt lat="48.70091" lon="-3.73401">
        <ele>84.7</ele>
        <time>2025-06-30T12:05:13Z</time>
      </trkpt>
      <trkpt lat="48.70092" lon="-3.73421">
        <ele>84.8</ele>
        <time>2025-06-30T12:05:15Z</time>
      </trkpt>
      <trkpt lat="48.70093" lon="-3.73442">
        <ele>84.8</ele>
        <time>2025-06-30T12:05:17Z</time>
      </trkpt>
      <trkpt lat="48.70094" lon="-3.73463">
        <ele>84.8</ele>
        <time>2025-06-30T12:05:19Z</time>
      </trkpt>
      <trkpt lat="48.70093" lon="-3.73484">
        <ele>84.9</ele>
        <time>2025-06-30T12:05:21Z</time>
      </trkpt>
      <trkpt lat="48.70092" lon="-3.73505">
        <ele>84.9</ele>
        <time>2025-06-30T12:05:23Z</time>
      </trkpt>
      <trkpt lat="48.70091" lon="-3.73525">
        <ele>84.9</ele>
        <time>2025-06-30T12:05:25Z</time>
      </trkpt>
      <trkpt lat="48.70093" lon="-3.73545">
        <ele>84.9</ele>
        <time>2025-06-30T12:05:27Z</time>
      </trkpt>
      <trkpt lat="48.70094" lon="-3.73565">
        <ele>84.8</ele>
        <time>2025-06-30T12:05:29Z</time>
      </trkpt>
      <trkpt lat="48.70092" lon="-3.73586">
        <ele>84.6</ele>
        <time>2025-06-30T12:05:31Z</time>
      </trkpt>
      <trkpt lat="48.70089" lon="-3.73607">
        <ele>84.4</ele>
        <time>2025-06-30T12:05:33Z</time>
      </trkpt>
      <trkpt lat="48.70083" lon="-3.73627">
        <ele>84.1</ele>
        <time>2025-06-30T12:05:35Z</time>
      </trkpt>
      <trkpt lat="48.70077" lon="-3.73648">
        <ele>83.9</ele>
        <time>2025-06-30T12:05:37Z</time>
      </trkpt>
      <trkpt lat="48.70069" lon="-3.73669">
        <ele>83.7</ele>
        <time>2025-06-30T12:05:39Z</time>
      </trkpt>
      <trkpt lat="48.70062" lon="-3.73692">
        <ele>83.4</ele>
        <time>2025-06-30T12:05:41Z</time>
      </trkpt>
      <trkpt lat="48.70058" lon="-3.73716">
        <ele>83.1</ele>
        <time>2025-06-30T12:05:43Z</time>
      </trkpt>
      <trkpt lat="48.70054" lon="-3.73741">
        <ele>82.8</ele>
        <time>2025-06-30T12:05:45Z</time>
      </trkpt>
      <trkpt lat="48.70051" lon="-3.73768">
        <ele>82.5</ele>
        <time>2025-06-30T12:05:47Z</time>
      </trkpt>
      <trkpt lat="48.70051" lon="-3.73794">
        <ele>82.4</ele>
        <time>2025-06-30T12:05:49Z</time>
      </trkpt>
      <trkpt lat="48.70053" lon="-3.7382">
        <ele>82.5</ele>
        <time>2025-06-30T12:05:51Z</time>
      </trkpt>
      <trkpt lat="48.70055" lon="-3.73844">
        <ele>82.7</ele>
        <time>2025-06-30T12:05:53Z</time>
      </trkpt>
      <trkpt lat="48.70057" lon="-3.73869">
        <ele>83</ele>
        <time>2025-06-30T12:05:55Z</time>
      </trkpt>
      <trkpt lat="48.70058" lon="-3.73892">
        <ele>83.2</ele>
        <time>2025-06-30T12:05:57Z</time>
      </trkpt>
      <trkpt lat="48.7006" lon="-3.73915">
        <ele>83.5</ele>
        <time>2025-06-30T12:05:59Z</time>
      </trkpt>
      <trkpt lat="48.70061" lon="-3.73938">
        <ele>83.6</ele>
        <time>2025-06-30T12:06:01Z</time>
      </trkpt>
      <trkpt lat="48.70065" lon="-3.73959">
        <ele>83.7</ele>
        <time>2025-06-30T12:06:03Z</time>
      </trkpt>
      <trkpt lat="48.70072" lon="-3.73977">
        <ele>83.8</ele>
        <time>2025-06-30T12:06:05Z</time>
      </trkpt>
      <trkpt lat="48.70082" lon="-3.73988">
        <ele>83.9</ele>
        <time>2025-06-30T12:06:07Z</time>
      </trkpt>
      <trkpt lat="48.70095" lon="-3.73993">
        <ele>84</ele>
        <time>2025-06-30T12:06:09Z</time>
      </trkpt>
      <trkpt lat="48.70107" lon="-3.73997">
        <ele>84</ele>
        <time>2025-06-30T12:06:11Z</time>
      </trkpt>
      <trkpt lat="48.70121" lon="-3.73998">
        <ele>84</ele>
        <time>2025-06-30T12:06:13Z</time>
      </trkpt>
      <trkpt lat="48.70134" lon="-3.74001">
        <ele>83.9</ele>
        <time>2025-06-30T12:06:15Z</time>
      </trkpt>
      <trkpt lat="48.70147" lon="-3.74001">
        <ele>83.9</ele>
        <time>2025-06-30T12:06:17Z</time>
      </trkpt>
      <trkpt lat="48.70161" lon="-3.74001">
        <ele>83.8</ele>
        <time>2025-06-30T12:06:19Z</time>
      </trkpt>
      <trkpt lat="48.70174" lon="-3.74003">
        <ele>83.6</ele>
        <time>2025-06-30T12:06:21Z</time>
      </trkpt>
      <trkpt lat="48.70188" lon="-3.74006">
        <ele>83.4</ele>
        <time>2025-06-30T12:06:23Z</time>
      </trkpt>
      <trkpt lat="48.70202" lon="-3.74008">
        <ele>83.1</ele>
        <time>2025-06-30T12:06:25Z</time>
      </trkpt>
      <trkpt lat="48.70216" lon="-3.74011">
        <ele>82.7</ele>
        <time>2025-06-30T12:06:27Z</time>
      </trkpt>
      <trkpt lat="48.7023" lon="-3.74012">
        <ele>82.4</ele>
        <time>2025-06-30T12:06:29Z</time>
      </trkpt>
      <trkpt lat="48.70245" lon="-3.7401">
        <ele>82.1</ele>
        <time>2025-06-30T12:06:31Z</time>
      </trkpt>
      <trkpt lat="48.70259" lon="-3.74007">
        <ele>81.8</ele>
        <time>2025-06-30T12:06:33Z</time>
      </trkpt>
      <trkpt lat="48.70274" lon="-3.74004">
        <ele>81.5</ele>
        <time>2025-06-30T12:06:35Z</time>
      </trkpt>
      <trkpt lat="48.7029" lon="-3.73999">
        <ele>81.2</ele>
        <time>2025-06-30T12:06:37Z</time>
      </trkpt>
      <trkpt lat="48.70305" lon="-3.73998">
        <ele>81</ele>
        <time>2025-06-30T12:06:39Z</time>
      </trkpt>
      <trkpt lat="48.70321" lon="-3.73998">
        <ele>80.6</ele>
        <time>2025-06-30T12:06:41Z</time>
      </trkpt>
      <trkpt lat="48.70336" lon="-3.73999">
        <ele>80.3</ele>
        <time>2025-06-30T12:06:43Z</time>
      </trkpt>
      <trkpt lat="48.70352" lon="-3.74001">
        <ele>79.9</ele>
        <time>2025-06-30T12:06:45Z</time>
      </trkpt>
      <trkpt lat="48.70367" lon="-3.7401">
        <ele>79.5</ele>
        <time>2025-06-30T12:06:47Z</time>
      </trkpt>
      <trkpt lat="48.70377" lon="-3.74028">
        <ele>79</ele>
        <time>2025-06-30T12:06:49Z</time>
      </trkpt>
      <trkpt lat="48.70379" lon="-3.74055">
        <ele>78.2</ele>
        <time>2025-06-30T12:06:51Z</time>
      </trkpt>
      <trkpt lat="48.70377" lon="-3.74069">
        <ele>77.8</ele>
        <time>2025-06-30T12:06:52Z</time>
      </trkpt>
      <trkpt lat="48.70374" lon="-3.74094">
        <ele>77</ele>
        <time>2025-06-30T12:06:54Z</time>
      </trkpt>
      <trkpt lat="48.70372" lon="-3.74108">
        <ele>76.7</ele>
        <time>2025-06-30T12:06:55Z</time>
      </trkpt>
      <trkpt lat="48.70371" lon="-3.74123">
        <ele>76.4</ele>
        <time>2025-06-30T12:06:56Z</time>
      </trkpt>
      <trkpt lat="48.70369" lon="-3.74137">
        <ele>76.1</ele>
        <time>2025-06-30T12:06:57Z</time>
      </trkpt>
      <trkpt lat="48.70367" lon="-3.74152">
        <ele>76</ele>
        <time>2025-06-30T12:06:58Z</time>
      </trkpt>
      <trkpt lat="48.70365" lon="-3.74166">
        <ele>76</ele>
        <time>2025-06-30T12:06:59Z</time>
      </trkpt>
      <trkpt lat="48.70364" lon="-3.74181">
        <ele>76.2</ele>
        <time>2025-06-30T12:07:00Z</time>
      </trkpt>
      <trkpt lat="48.70362" lon="-3.74195">
        <ele>76.3</ele>
        <time>2025-06-30T12:07:01Z</time>
      </trkpt>
      <trkpt lat="48.70361" lon="-3.74209">
        <ele>76.5</ele>
        <time>2025-06-30T12:07:02Z</time>
      </trkpt>
      <trkpt lat="48.70358" lon="-3.74235">
        <ele>77.2</ele>
        <time>2025-06-30T12:07:04Z</time>
      </trkpt>
      <trkpt lat="48.70354" lon="-3.74258">
        <ele>78.2</ele>
        <time>2025-06-30T12:07:06Z</time>
      </trkpt>
      <trkpt lat="48.70351" lon="-3.74278">
        <ele>79.1</ele>
        <time>2025-06-30T12:07:08Z</time>
      </trkpt>
      <trkpt lat="48.70347" lon="-3.74296">
        <ele>79.9</ele>
        <time>2025-06-30T12:07:10Z</time>
      </trkpt>
      <trkpt lat="48.70344" lon="-3.74313">
        <ele>80.5</ele>
        <time>2025-06-30T12:07:12Z</time>
      </trkpt>
      <trkpt lat="48.70342" lon="-3.7433">
        <ele>81.1</ele>
        <time>2025-06-30T12:07:14Z</time>
      </trkpt>
      <trkpt lat="48.70339" lon="-3.74346">
        <ele>81.6</ele>
        <time>2025-06-30T12:07:16Z</time>
      </trkpt>
      <trkpt lat="48.70338" lon="-3.74362">
        <ele>82</ele>
        <time>2025-06-30T12:07:18Z</time>
      </trkpt>
      <trkpt lat="48.70336" lon="-3.74378">
        <ele>82.2</ele>
        <time>2025-06-30T12:07:20Z</time>
      </trkpt>
      <trkpt lat="48.70335" lon="-3.74394">
        <ele>82.5</ele>
        <time>2025-06-30T12:07:22Z</time>
      </trkpt>
      <trkpt lat="48.70333" lon="-3.74411">
        <ele>82.7</ele>
        <time>2025-06-30T12:07:24Z</time>
      </trkpt>
      <trkpt lat="48.70332" lon="-3.74428">
        <ele>82.8</ele>
        <time>2025-06-30T12:07:26Z</time>
      </trkpt>
      <trkpt lat="48.7033" lon="-3.74445">
        <ele>82.8</ele>
        <time>2025-06-30T12:07:28Z</time>
      </trkpt>
      <trkpt lat="48.70329" lon="-3.74463">
        <ele>82.8</ele>
        <time>2025-06-30T12:07:30Z</time>
      </trkpt>
      <trkpt lat="48.70328" lon="-3.7448">
        <ele>82.7</ele>
        <time>2025-06-30T12:07:32Z</time>
      </trkpt>
      <trkpt lat="48.70327" lon="-3.74497">
        <ele>82.7</ele>
        <time>2025-06-30T12:07:34Z</time>
      </trkpt>
      <trkpt lat="48.70327" lon="-3.74515">
        <ele>82.6</ele>
        <time>2025-06-30T12:07:36Z</time>
      </trkpt>
      <trkpt lat="48.70331" lon="-3.74531">
        <ele>82.6</ele>
        <time>2025-06-30T12:07:38Z</time>
      </trkpt>
      <trkpt lat="48.70338" lon="-3.74544">
        <ele>82.6</ele>
        <time>2025-06-30T12:07:40Z</time>
      </trkpt>
      <trkpt lat="48.70347" lon="-3.74555">
        <ele>82.6</ele>
        <time>2025-06-30T12:07:42Z</time>
      </trkpt>
      <trkpt lat="48.70354" lon="-3.74568">
        <ele>82.6</ele>
        <time>2025-06-30T12:07:44Z</time>
      </trkpt>
      <trkpt lat="48.70359" lon="-3.74584">
        <ele>82.8</ele>
        <time>2025-06-30T12:07:46Z</time>
      </trkpt>
      <trkpt lat="48.70362" lon="-3.74602">
        <ele>83.1</ele>
        <time>2025-06-30T12:07:48Z</time>
      </trkpt>
      <trkpt lat="48.70362" lon="-3.7462">
        <ele>83.4</ele>
        <time>2025-06-30T12:07:50Z</time>
      </trkpt>
      <trkpt lat="48.7036" lon="-3.74638">
        <ele>83.7</ele>
        <time>2025-06-30T12:07:52Z</time>
      </trkpt>
      <trkpt lat="48.70356" lon="-3.74654">
        <ele>83.9</ele>
        <time>2025-06-30T12:07:54Z</time>
      </trkpt>
      <trkpt lat="48.70353" lon="-3.74669">
        <ele>84.1</ele>
        <time>2025-06-30T12:07:56Z</time>
      </trkpt>
      <trkpt lat="48.70348" lon="-3.74687">
        <ele>84.2</ele>
        <time>2025-06-30T12:07:59Z</time>
      </trkpt>
      <trkpt lat="48.70348" lon="-3.74701">
        <ele>84.2</ele>
        <time>2025-06-30T12:08:01Z</time>
      </trkpt>
      <trkpt lat="48.70348" lon="-3.74716">
        <ele>84.1</ele>
        <time>2025-06-30T12:08:03Z</time>
      </trkpt>
      <trkpt lat="48.70348" lon="-3.74732">
        <ele>84.1</ele>
        <time>2025-06-30T12:08:05Z</time>
      </trkpt>
      <trkpt lat="48.70348" lon="-3.74749">
        <ele>84.2</ele>
        <time>2025-06-30T12:08:07Z</time>
      </trkpt>
      <trkpt lat="48.70349" lon="-3.74766">
        <ele>84.3</ele>
        <time>2025-06-30T12:08:09Z</time>
      </trkpt>
      <trkpt lat="48.7035" lon="-3.74782">
        <ele>84.5</ele>
        <time>2025-06-30T12:08:11Z</time>
      </trkpt>
      <trkpt lat="48.70352" lon="-3.74797">
        <ele>84.4</ele>
        <time>2025-06-30T12:08:13Z</time>
      </trkpt>
      <trkpt lat="48.70353" lon="-3.74813">
        <ele>84.3</ele>
        <time>2025-06-30T12:08:15Z</time>
      </trkpt>
      <trkpt lat="48.70355" lon="-3.7483">
        <ele>84</ele>
        <time>2025-06-30T12:08:17Z</time>
      </trkpt>
      <trkpt lat="48.70359" lon="-3.74849">
        <ele>83.7</ele>
        <time>2025-06-30T12:08:19Z</time>
      </trkpt>
      <trkpt lat="48.70362" lon="-3.7487">
        <ele>83.5</ele>
        <time>2025-06-30T12:08:21Z</time>
      </trkpt>
      <trkpt lat="48.70367" lon="-3.7489">
        <ele>83.5</ele>
        <time>2025-06-30T12:08:23Z</time>
      </trkpt>
      <trkpt lat="48.70372" lon="-3.74909">
        <ele>83.6</ele>
        <time>2025-06-30T12:08:25Z</time>
      </trkpt>
      <trkpt lat="48.70376" lon="-3.74928">
        <ele>83.7</ele>
        <time>2025-06-30T12:08:27Z</time>
      </trkpt>
      <trkpt lat="48.70381" lon="-3.74946">
        <ele>83.7</ele>
        <time>2025-06-30T12:08:29Z</time>
      </trkpt>
      <trkpt lat="48.70385" lon="-3.74964">
        <ele>83.6</ele>
        <time>2025-06-30T12:08:31Z</time>
      </trkpt>
      <trkpt lat="48.70391" lon="-3.74982">
        <ele>83.5</ele>
        <time>2025-06-30T12:08:33Z</time>
      </trkpt>
      <trkpt lat="48.70395" lon="-3.74999">
        <ele>83.2</ele>
        <time>2025-06-30T12:08:35Z</time>
      </trkpt>
      <trkpt lat="48.70399" lon="-3.75017">
        <ele>82.7</ele>
        <time>2025-06-30T12:08:37Z</time>
      </trkpt>
      <trkpt lat="48.70404" lon="-3.75037">
        <ele>82</ele>
        <time>2025-06-30T12:08:39Z</time>
      </trkpt>
      <trkpt lat="48.70408" lon="-3.75057">
        <ele>81.1</ele>
        <time>2025-06-30T12:08:41Z</time>
      </trkpt>
      <trkpt lat="48.70413" lon="-3.75076">
        <ele>80.3</ele>
        <time>2025-06-30T12:08:43Z</time>
      </trkpt>
      <trkpt lat="48.70423" lon="-3.7509">
        <ele>79</ele>
        <time>2025-06-30T12:08:45Z</time>
      </trkpt>
      <trkpt lat="48.70437" lon="-3.75097">
        <ele>77.6</ele>
        <time>2025-06-30T12:08:47Z</time>
      </trkpt>
      <trkpt lat="48.70454" lon="-3.75099">
        <ele>75.9</ele>
        <time>2025-06-30T12:08:49Z</time>
      </trkpt>
      <trkpt lat="48.70472" lon="-3.75102">
        <ele>73.9</ele>
        <time>2025-06-30T12:08:51Z</time>
      </trkpt>
      <trkpt lat="48.70489" lon="-3.75107">
        <ele>71.8</ele>
        <time>2025-06-30T12:08:53Z</time>
      </trkpt>
      <trkpt lat="48.70503" lon="-3.75116">
        <ele>69.9</ele>
        <time>2025-06-30T12:08:55Z</time>
      </trkpt>
      <trkpt lat="48.70514" lon="-3.75127">
        <ele>68.3</ele>
        <time>2025-06-30T12:08:57Z</time>
      </trkpt>
      <trkpt lat="48.70524" lon="-3.75141">
        <ele>66.7</ele>
        <time>2025-06-30T12:08:59Z</time>
      </trkpt>
      <trkpt lat="48.70536" lon="-3.75151">
        <ele>64.9</ele>
        <time>2025-06-30T12:09:01Z</time>
      </trkpt>
      <trkpt lat="48.7055" lon="-3.75154">
        <ele>63</ele>
        <time>2025-06-30T12:09:03Z</time>
      </trkpt>
      <trkpt lat="48.70564" lon="-3.75148">
        <ele>61</ele>
        <time>2025-06-30T12:09:05Z</time>
      </trkpt>
      <trkpt lat="48.70575" lon="-3.75138">
        <ele>59.3</ele>
        <time>2025-06-30T12:09:07Z</time>
      </trkpt>
      <trkpt lat="48.70587" lon="-3.75128">
        <ele>57.7</ele>
        <time>2025-06-30T12:09:09Z</time>
      </trkpt>
      <trkpt lat="48.70596" lon="-3.75116">
        <ele>56.6</ele>
        <time>2025-06-30T12:09:11Z</time>
      </trkpt>
      <trkpt lat="48.70606" lon="-3.75108">
        <ele>55.8</ele>
        <time>2025-06-30T12:09:13Z</time>
      </trkpt>
      <trkpt lat="48.70617" lon="-3.75103">
        <ele>55.3</ele>
        <time>2025-06-30T12:09:16Z</time>
      </trkpt>
      <trkpt lat="48.70625" lon="-3.75114">
        <ele>54.9</ele>
        <time>2025-06-30T12:09:17Z</time>
      </trkpt>
      <trkpt lat="48.7063" lon="-3.75129">
        <ele>54.7</ele>
        <time>2025-06-30T12:09:19Z</time>
      </trkpt>
      <trkpt lat="48.70636" lon="-3.75145">
        <ele>54.8</ele>
        <time>2025-06-30T12:09:21Z</time>
      </trkpt>
      <trkpt lat="48.70642" lon="-3.75159">
        <ele>55.1</ele>
        <time>2025-06-30T12:09:23Z</time>
      </trkpt>
      <trkpt lat="48.7065" lon="-3.75172">
        <ele>55.4</ele>
        <time>2025-06-30T12:09:25Z</time>
      </trkpt>
      <trkpt lat="48.70658" lon="-3.75182">
        <ele>55.6</ele>
        <time>2025-06-30T12:09:27Z</time>
      </trkpt>
      <trkpt lat="48.70668" lon="-3.75194">
        <ele>55.7</ele>
        <time>2025-06-30T12:09:29Z</time>
      </trkpt>
      <trkpt lat="48.70678" lon="-3.75209">
        <ele>55.7</ele>
        <time>2025-06-30T12:09:31Z</time>
      </trkpt>
      <trkpt lat="48.70689" lon="-3.75204">
        <ele>55.7</ele>
        <time>2025-06-30T12:09:34Z</time>
      </trkpt>
      <trkpt lat="48.707" lon="-3.75221">
        <ele>55.6</ele>
        <time>2025-06-30T12:09:37Z</time>
      </trkpt>
      <trkpt lat="48.70709" lon="-3.75231">
        <ele>55.5</ele>
        <time>2025-06-30T12:09:38Z</time>
      </trkpt>
      <trkpt lat="48.70728" lon="-3.7525">
        <ele>55.5</ele>
        <time>2025-06-30T12:09:40Z</time>
      </trkpt>
      <trkpt lat="48.7074" lon="-3.75264">
        <ele>55.7</ele>
        <time>2025-06-30T12:09:42Z</time>
      </trkpt>
      <trkpt lat="48.70751" lon="-3.75276">
        <ele>56.1</ele>
        <time>2025-06-30T12:09:44Z</time>
      </trkpt>
      <trkpt lat="48.70759" lon="-3.75291">
        <ele>56.5</ele>
        <time>2025-06-30T12:09:46Z</time>
      </trkpt>
      <trkpt lat="48.70766" lon="-3.75312">
        <ele>57.1</ele>
        <time>2025-06-30T12:09:48Z</time>
      </trkpt>
      <trkpt lat="48.70771" lon="-3.75328">
        <ele>57.5</ele>
        <time>2025-06-30T12:09:50Z</time>
      </trkpt>
      <trkpt lat="48.70776" lon="-3.75345">
        <ele>57.9</ele>
        <time>2025-06-30T12:09:52Z</time>
      </trkpt>
      <trkpt lat="48.7078" lon="-3.75363">
        <ele>58.2</ele>
        <time>2025-06-30T12:09:54Z</time>
      </trkpt>
      <trkpt lat="48.70783" lon="-3.7538">
        <ele>58.4</ele>
        <time>2025-06-30T12:09:56Z</time>
      </trkpt>
      <trkpt lat="48.70784" lon="-3.754">
        <ele>58.7</ele>
        <time>2025-06-30T12:09:58Z</time>
      </trkpt>
      <trkpt lat="48.70786" lon="-3.75417">
        <ele>58.8</ele>
        <time>2025-06-30T12:10:00Z</time>
      </trkpt>
      <trkpt lat="48.70788" lon="-3.75436">
        <ele>58.8</ele>
        <time>2025-06-30T12:10:02Z</time>
      </trkpt>
      <trkpt lat="48.7079" lon="-3.75455">
        <ele>58.6</ele>
        <time>2025-06-30T12:10:04Z</time>
      </trkpt>
      <trkpt lat="48.70793" lon="-3.75475">
        <ele>58</ele>
        <time>2025-06-30T12:10:06Z</time>
      </trkpt>
      <trkpt lat="48.70794" lon="-3.75497">
        <ele>57.2</ele>
        <time>2025-06-30T12:10:08Z</time>
      </trkpt>
      <trkpt lat="48.70797" lon="-3.75521">
        <ele>56.2</ele>
        <time>2025-06-30T12:10:10Z</time>
      </trkpt>
      <trkpt lat="48.708" lon="-3.75547">
        <ele>54.9</ele>
        <time>2025-06-30T12:10:12Z</time>
      </trkpt>
      <trkpt lat="48.70801" lon="-3.75562">
        <ele>54.1</ele>
        <time>2025-06-30T12:10:13Z</time>
      </trkpt>
      <trkpt lat="48.70803" lon="-3.75576">
        <ele>53.3</ele>
        <time>2025-06-30T12:10:14Z</time>
      </trkpt>
      <trkpt lat="48.70804" lon="-3.75593">
        <ele>52.4</ele>
        <time>2025-06-30T12:10:15Z</time>
      </trkpt>
      <trkpt lat="48.70806" lon="-3.7561">
        <ele>51.7</ele>
        <time>2025-06-30T12:10:16Z</time>
      </trkpt>
      <trkpt lat="48.70807" lon="-3.75627">
        <ele>51.1</ele>
        <time>2025-06-30T12:10:17Z</time>
      </trkpt>
      <trkpt lat="48.70809" lon="-3.75645">
        <ele>50.7</ele>
        <time>2025-06-30T12:10:18Z</time>
      </trkpt>
      <trkpt lat="48.70811" lon="-3.75662">
        <ele>50.5</ele>
        <time>2025-06-30T12:10:19Z</time>
      </trkpt>
      <trkpt lat="48.70813" lon="-3.75678">
        <ele>50.5</ele>
        <time>2025-06-30T12:10:20Z</time>
      </trkpt>
      <trkpt lat="48.70814" lon="-3.75695">
        <ele>50.8</ele>
        <time>2025-06-30T12:10:21Z</time>
      </trkpt>
      <trkpt lat="48.70815" lon="-3.75711">
        <ele>51.3</ele>
        <time>2025-06-30T12:10:22Z</time>
      </trkpt>
      <trkpt lat="48.70816" lon="-3.75727">
        <ele>52.1</ele>
        <time>2025-06-30T12:10:23Z</time>
      </trkpt>
      <trkpt lat="48.70816" lon="-3.75741">
        <ele>52.9</ele>
        <time>2025-06-30T12:10:24Z</time>
      </trkpt>
      <trkpt lat="48.70813" lon="-3.75766">
        <ele>54.7</ele>
        <time>2025-06-30T12:10:26Z</time>
      </trkpt>
      <trkpt lat="48.70809" lon="-3.75786">
        <ele>56.1</ele>
        <time>2025-06-30T12:10:28Z</time>
      </trkpt>
      <trkpt lat="48.70805" lon="-3.75802">
        <ele>57.3</ele>
        <time>2025-06-30T12:10:30Z</time>
      </trkpt>
      <trkpt lat="48.70801" lon="-3.75815">
        <ele>58.1</ele>
        <time>2025-06-30T12:10:32Z</time>
      </trkpt>
      <trkpt lat="48.70795" lon="-3.75832">
        <ele>59.2</ele>
        <time>2025-06-30T12:10:35Z</time>
      </trkpt>
      <trkpt lat="48.70788" lon="-3.75846">
        <ele>60</ele>
        <time>2025-06-30T12:10:38Z</time>
      </trkpt>
      <trkpt lat="48.70781" lon="-3.7586">
        <ele>60.7</ele>
        <time>2025-06-30T12:10:41Z</time>
      </trkpt>
      <trkpt lat="48.70772" lon="-3.75872">
        <ele>61.2</ele>
        <time>2025-06-30T12:10:44Z</time>
      </trkpt>
      <trkpt lat="48.70759" lon="-3.75891">
        <ele>61.7</ele>
        <time>2025-06-30T12:10:48Z</time>
      </trkpt>
      <trkpt lat="48.7075" lon="-3.75902">
        <ele>61.7</ele>
        <time>2025-06-30T12:10:51Z</time>
      </trkpt>
      <trkpt lat="48.7074" lon="-3.75909">
        <ele>61.6</ele>
        <time>2025-06-30T12:10:54Z</time>
      </trkpt>
      <trkpt lat="48.70728" lon="-3.75914">
        <ele>61.4</ele>
        <time>2025-06-30T12:10:57Z</time>
      </trkpt>
      <trkpt lat="48.70719" lon="-3.75919">
        <ele>61.2</ele>
        <time>2025-06-30T12:10:59Z</time>
      </trkpt>
      <trkpt lat="48.7071" lon="-3.75922">
        <ele>61</ele>
        <time>2025-06-30T12:11:01Z</time>
      </trkpt>
      <trkpt lat="48.70701" lon="-3.75927">
        <ele>60.8</ele>
        <time>2025-06-30T12:11:03Z</time>
      </trkpt>
      <trkpt lat="48.70691" lon="-3.7593">
        <ele>60.7</ele>
        <time>2025-06-30T12:11:05Z</time>
      </trkpt>
      <trkpt lat="48.70682" lon="-3.75934">
        <ele>60.7</ele>
        <time>2025-06-30T12:11:07Z</time>
      </trkpt>
      <trkpt lat="48.70675" lon="-3.75944">
        <ele>60.6</ele>
        <time>2025-06-30T12:11:09Z</time>
      </trkpt>
      <trkpt lat="48.70664" lon="-3.75948">
        <ele>60.6</ele>
        <time>2025-06-30T12:11:11Z</time>
      </trkpt>
      <trkpt lat="48.70653" lon="-3.75951">
        <ele>60.4</ele>
        <time>2025-06-30T12:11:13Z</time>
      </trkpt>
      <trkpt lat="48.70643" lon="-3.75957">
        <ele>60.3</ele>
        <time>2025-06-30T12:11:15Z</time>
      </trkpt>
      <trkpt lat="48.70635" lon="-3.75968">
        <ele>60.2</ele>
        <time>2025-06-30T12:11:17Z</time>
      </trkpt>
      <trkpt lat="48.70628" lon="-3.75984">
        <ele>60.2</ele>
        <time>2025-06-30T12:11:19Z</time>
      </trkpt>
      <trkpt lat="48.70621" lon="-3.76002">
        <ele>60.3</ele>
        <time>2025-06-30T12:11:21Z</time>
      </trkpt>
      <trkpt lat="48.70618" lon="-3.76021">
        <ele>60.6</ele>
        <time>2025-06-30T12:11:23Z</time>
      </trkpt>
      <trkpt lat="48.70617" lon="-3.7604">
        <ele>61.3</ele>
        <time>2025-06-30T12:11:25Z</time>
      </trkpt>
      <trkpt lat="48.70618" lon="-3.76056">
        <ele>62</ele>
        <time>2025-06-30T12:11:27Z</time>
      </trkpt>
      <trkpt lat="48.70622" lon="-3.76073">
        <ele>63</ele>
        <time>2025-06-30T12:11:30Z</time>
      </trkpt>
      <trkpt lat="48.70629" lon="-3.76091">
        <ele>64.1</ele>
        <time>2025-06-30T12:11:34Z</time>
      </trkpt>
      <trkpt lat="48.70635" lon="-3.76101">
        <ele>64.7</ele>
        <time>2025-06-30T12:11:37Z</time>
      </trkpt>
      <trkpt lat="48.70642" lon="-3.76113">
        <ele>65.3</ele>
        <time>2025-06-30T12:11:39Z</time>
      </trkpt>
      <trkpt lat="48.70652" lon="-3.76123">
        <ele>66</ele>
        <time>2025-06-30T12:11:41Z</time>
      </trkpt>
      <trkpt lat="48.7066" lon="-3.7613">
        <ele>66.4</ele>
        <time>2025-06-30T12:11:44Z</time>
      </trkpt>
      <trkpt lat="48.70671" lon="-3.76141">
        <ele>67</ele>
        <time>2025-06-30T12:11:46Z</time>
      </trkpt>
      <trkpt lat="48.70683" lon="-3.76151">
        <ele>67.6</ele>
        <time>2025-06-30T12:11:49Z</time>
      </trkpt>
      <trkpt lat="48.70694" lon="-3.76158">
        <ele>68</ele>
        <time>2025-06-30T12:11:52Z</time>
      </trkpt>
      <trkpt lat="48.70705" lon="-3.76169">
        <ele>68.3</ele>
        <time>2025-06-30T12:11:55Z</time>
      </trkpt>
      <trkpt lat="48.70716" lon="-3.76177">
        <ele>68.5</ele>
        <time>2025-06-30T12:11:58Z</time>
      </trkpt>
      <trkpt lat="48.70726" lon="-3.76184">
        <ele>68.5</ele>
        <time>2025-06-30T12:12:01Z</time>
      </trkpt>
      <trkpt lat="48.70735" lon="-3.76195">
        <ele>68.5</ele>
        <time>2025-06-30T12:12:04Z</time>
      </trkpt>
      <trkpt lat="48.70745" lon="-3.76208">
        <ele>68.2</ele>
        <time>2025-06-30T12:12:07Z</time>
      </trkpt>
      <trkpt lat="48.70753" lon="-3.76219">
        <ele>67.9</ele>
        <time>2025-06-30T12:12:09Z</time>
      </trkpt>
      <trkpt lat="48.7076" lon="-3.76231">
        <ele>67.6</ele>
        <time>2025-06-30T12:12:11Z</time>
      </trkpt>
      <trkpt lat="48.70767" lon="-3.76244">
        <ele>67.3</ele>
        <time>2025-06-30T12:12:13Z</time>
      </trkpt>
      <trkpt lat="48.70772" lon="-3.76261">
        <ele>67</ele>
        <time>2025-06-30T12:12:15Z</time>
      </trkpt>
      <trkpt lat="48.70777" lon="-3.76277">
        <ele>66.6</ele>
        <time>2025-06-30T12:12:17Z</time>
      </trkpt>
      <trkpt lat="48.7078" lon="-3.76295">
        <ele>66.2</ele>
        <time>2025-06-30T12:12:19Z</time>
      </trkpt>
      <trkpt lat="48.70784" lon="-3.76313">
        <ele>65.7</ele>
        <time>2025-06-30T12:12:21Z</time>
      </trkpt>
      <trkpt lat="48.70788" lon="-3.76331">
        <ele>65.2</ele>
        <time>2025-06-30T12:12:23Z</time>
      </trkpt>
      <trkpt lat="48.7079" lon="-3.76352">
        <ele>64.6</ele>
        <time>2025-06-30T12:12:25Z</time>
      </trkpt>
      <trkpt lat="48.70793" lon="-3.76375">
        <ele>63.5</ele>
        <time>2025-06-30T12:12:27Z</time>
      </trkpt>
      <trkpt lat="48.70796" lon="-3.764">
        <ele>61.9</ele>
        <time>2025-06-30T12:12:29Z</time>
      </trkpt>
      <trkpt lat="48.70797" lon="-3.76414">
        <ele>61</ele>
        <time>2025-06-30T12:12:30Z</time>
      </trkpt>
      <trkpt lat="48.70799" lon="-3.76428">
        <ele>60</ele>
        <time>2025-06-30T12:12:31Z</time>
      </trkpt>
      <trkpt lat="48.708" lon="-3.76442">
        <ele>59.1</ele>
        <time>2025-06-30T12:12:32Z</time>
      </trkpt>
      <trkpt lat="48.70801" lon="-3.76456">
        <ele>58.1</ele>
        <time>2025-06-30T12:12:33Z</time>
      </trkpt>
      <trkpt lat="48.70801" lon="-3.7647">
        <ele>57.1</ele>
        <time>2025-06-30T12:12:34Z</time>
      </trkpt>
      <trkpt lat="48.70801" lon="-3.76485">
        <ele>56.1</ele>
        <time>2025-06-30T12:12:35Z</time>
      </trkpt>
      <trkpt lat="48.708" lon="-3.76499">
        <ele>54.9</ele>
        <time>2025-06-30T12:12:36Z</time>
      </trkpt>
      <trkpt lat="48.70797" lon="-3.76514">
        <ele>53.8</ele>
        <time>2025-06-30T12:12:37Z</time>
      </trkpt>
      <trkpt lat="48.70793" lon="-3.76528">
        <ele>52.7</ele>
        <time>2025-06-30T12:12:38Z</time>
      </trkpt>
      <trkpt lat="48.70788" lon="-3.76541">
        <ele>51.4</ele>
        <time>2025-06-30T12:12:39Z</time>
      </trkpt>
      <trkpt lat="48.70781" lon="-3.76553">
        <ele>50.2</ele>
        <time>2025-06-30T12:12:40Z</time>
      </trkpt>
      <trkpt lat="48.70775" lon="-3.76566">
        <ele>48.9</ele>
        <time>2025-06-30T12:12:41Z</time>
      </trkpt>
      <trkpt lat="48.70765" lon="-3.76577">
        <ele>47.5</ele>
        <time>2025-06-30T12:12:42Z</time>
      </trkpt>
      <trkpt lat="48.70755" lon="-3.76587">
        <ele>46.1</ele>
        <time>2025-06-30T12:12:43Z</time>
      </trkpt>
      <trkpt lat="48.70743" lon="-3.76594">
        <ele>44.6</ele>
        <time>2025-06-30T12:12:44Z</time>
      </trkpt>
      <trkpt lat="48.70732" lon="-3.76603">
        <ele>43.1</ele>
        <time>2025-06-30T12:12:45Z</time>
      </trkpt>
      <trkpt lat="48.7072" lon="-3.76611">
        <ele>41.8</ele>
        <time>2025-06-30T12:12:46Z</time>
      </trkpt>
      <trkpt lat="48.7071" lon="-3.76619">
        <ele>40.7</ele>
        <time>2025-06-30T12:12:47Z</time>
      </trkpt>
      <trkpt lat="48.70699" lon="-3.76629">
        <ele>39.7</ele>
        <time>2025-06-30T12:12:48Z</time>
      </trkpt>
      <trkpt lat="48.7069" lon="-3.76641">
        <ele>38.8</ele>
        <time>2025-06-30T12:12:49Z</time>
      </trkpt>
      <trkpt lat="48.70681" lon="-3.76655">
        <ele>38.1</ele>
        <time>2025-06-30T12:12:50Z</time>
      </trkpt>
      <trkpt lat="48.70674" lon="-3.7667">
        <ele>37.7</ele>
        <time>2025-06-30T12:12:51Z</time>
      </trkpt>
      <trkpt lat="48.70669" lon="-3.76687">
        <ele>37.5</ele>
        <time>2025-06-30T12:12:52Z</time>
      </trkpt>
      <trkpt lat="48.70664" lon="-3.76703">
        <ele>37.5</ele>
        <time>2025-06-30T12:12:53Z</time>
      </trkpt>
      <trkpt lat="48.70662" lon="-3.76721">
        <ele>37.6</ele>
        <time>2025-06-30T12:12:54Z</time>
      </trkpt>
      <trkpt lat="48.70662" lon="-3.76739">
        <ele>37.8</ele>
        <time>2025-06-30T12:12:55Z</time>
      </trkpt>
      <trkpt lat="48.70663" lon="-3.76757">
        <ele>38</ele>
        <time>2025-06-30T12:12:56Z</time>
      </trkpt>
      <trkpt lat="48.70665" lon="-3.76774">
        <ele>38.4</ele>
        <time>2025-06-30T12:12:57Z</time>
      </trkpt>
      <trkpt lat="48.70669" lon="-3.7679">
        <ele>38.8</ele>
        <time>2025-06-30T12:12:58Z</time>
      </trkpt>
      <trkpt lat="48.70671" lon="-3.76806">
        <ele>39.4</ele>
        <time>2025-06-30T12:12:59Z</time>
      </trkpt>
      <trkpt lat="48.70673" lon="-3.76822">
        <ele>40</ele>
        <time>2025-06-30T12:13:00Z</time>
      </trkpt>
      <trkpt lat="48.70674" lon="-3.76838">
        <ele>40.7</ele>
        <time>2025-06-30T12:13:01Z</time>
      </trkpt>
      <trkpt lat="48.70672" lon="-3.76853">
        <ele>41.4</ele>
        <time>2025-06-30T12:13:02Z</time>
      </trkpt>
      <trkpt lat="48.70671" lon="-3.76868">
        <ele>42</ele>
        <time>2025-06-30T12:13:03Z</time>
      </trkpt>
      <trkpt lat="48.70669" lon="-3.76882">
        <ele>42.6</ele>
        <time>2025-06-30T12:13:04Z</time>
      </trkpt>
      <trkpt lat="48.70666" lon="-3.76895">
        <ele>43.2</ele>
        <time>2025-06-30T12:13:05Z</time>
      </trkpt>
      <trkpt lat="48.70659" lon="-3.7692">
        <ele>44.1</ele>
        <time>2025-06-30T12:13:07Z</time>
      </trkpt>
      <trkpt lat="48.70651" lon="-3.76942">
        <ele>44.8</ele>
        <time>2025-06-30T12:13:09Z</time>
      </trkpt>
      <trkpt lat="48.70644" lon="-3.76964">
        <ele>45.2</ele>
        <time>2025-06-30T12:13:11Z</time>
      </trkpt>
      <trkpt lat="48.70638" lon="-3.76984">
        <ele>45.5</ele>
        <time>2025-06-30T12:13:13Z</time>
      </trkpt>
      <trkpt lat="48.7063" lon="-3.77003">
        <ele>45.7</ele>
        <time>2025-06-30T12:13:15Z</time>
      </trkpt>
      <trkpt lat="48.70624" lon="-3.77021">
        <ele>45.7</ele>
        <time>2025-06-30T12:13:17Z</time>
      </trkpt>
      <trkpt lat="48.70617" lon="-3.77039">
        <ele>45.4</ele>
        <time>2025-06-30T12:13:19Z</time>
      </trkpt>
      <trkpt lat="48.70612" lon="-3.77059">
        <ele>45</ele>
        <time>2025-06-30T12:13:21Z</time>
      </trkpt>
      <trkpt lat="48.70606" lon="-3.7708">
        <ele>44.4</ele>
        <time>2025-06-30T12:13:23Z</time>
      </trkpt>
      <trkpt lat="48.70598" lon="-3.771">
        <ele>43.7</ele>
        <time>2025-06-30T12:13:25Z</time>
      </trkpt>
      <trkpt lat="48.70591" lon="-3.77121">
        <ele>43.1</ele>
        <time>2025-06-30T12:13:27Z</time>
      </trkpt>
      <trkpt lat="48.70583" lon="-3.77143">
        <ele>42.4</ele>
        <time>2025-06-30T12:13:29Z</time>
      </trkpt>
      <trkpt lat="48.70576" lon="-3.77166">
        <ele>41.8</ele>
        <time>2025-06-30T12:13:31Z</time>
      </trkpt>
      <trkpt lat="48.70568" lon="-3.77188">
        <ele>41.1</ele>
        <time>2025-06-30T12:13:33Z</time>
      </trkpt>
      <trkpt lat="48.70559" lon="-3.77211">
        <ele>40.4</ele>
        <time>2025-06-30T12:13:35Z</time>
      </trkpt>
      <trkpt lat="48.70552" lon="-3.77234">
        <ele>39.5</ele>
        <time>2025-06-30T12:13:37Z</time>
      </trkpt>
      <trkpt lat="48.70543" lon="-3.77258">
        <ele>38.7</ele>
        <time>2025-06-30T12:13:39Z</time>
      </trkpt>
      <trkpt lat="48.70539" lon="-3.7727">
        <ele>38.2</ele>
        <time>2025-06-30T12:13:40Z</time>
      </trkpt>
      <trkpt lat="48.70534" lon="-3.77283">
        <ele>37.5</ele>
        <time>2025-06-30T12:13:41Z</time>
      </trkpt>
      <trkpt lat="48.7053" lon="-3.77295">
        <ele>36.8</ele>
        <time>2025-06-30T12:13:42Z</time>
      </trkpt>
      <trkpt lat="48.7052" lon="-3.77318">
        <ele>35.5</ele>
        <time>2025-06-30T12:13:44Z</time>
      </trkpt>
      <trkpt lat="48.70511" lon="-3.77341">
        <ele>33.8</ele>
        <time>2025-06-30T12:13:46Z</time>
      </trkpt>
      <trkpt lat="48.70505" lon="-3.77353">
        <ele>32.9</ele>
        <time>2025-06-30T12:13:47Z</time>
      </trkpt>
      <trkpt lat="48.70499" lon="-3.77364">
        <ele>31.8</ele>
        <time>2025-06-30T12:13:48Z</time>
      </trkpt>
      <trkpt lat="48.70491" lon="-3.77375">
        <ele>30.7</ele>
        <time>2025-06-30T12:13:49Z</time>
      </trkpt>
      <trkpt lat="48.70482" lon="-3.77385">
        <ele>29.4</ele>
        <time>2025-06-30T12:13:50Z</time>
      </trkpt>
      <trkpt lat="48.70473" lon="-3.77396">
        <ele>28.1</ele>
        <time>2025-06-30T12:13:51Z</time>
      </trkpt>
      <trkpt lat="48.70463" lon="-3.77407">
        <ele>26.6</ele>
        <time>2025-06-30T12:13:52Z</time>
      </trkpt>
      <trkpt lat="48.70452" lon="-3.77417">
        <ele>25.1</ele>
        <time>2025-06-30T12:13:53Z</time>
      </trkpt>
      <trkpt lat="48.70441" lon="-3.77428">
        <ele>23.5</ele>
        <time>2025-06-30T12:13:54Z</time>
      </trkpt>
      <trkpt lat="48.7043" lon="-3.77439">
        <ele>22</ele>
        <time>2025-06-30T12:13:55Z</time>
      </trkpt>
      <trkpt lat="48.70419" lon="-3.77451">
        <ele>20.6</ele>
        <time>2025-06-30T12:13:56Z</time>
      </trkpt>
      <trkpt lat="48.70407" lon="-3.77461">
        <ele>19.2</ele>
        <time>2025-06-30T12:13:57Z</time>
      </trkpt>
      <trkpt lat="48.70396" lon="-3.77473">
        <ele>18</ele>
        <time>2025-06-30T12:13:58Z</time>
      </trkpt>
      <trkpt lat="48.70384" lon="-3.77484">
        <ele>16.8</ele>
        <time>2025-06-30T12:13:59Z</time>
      </trkpt>
      <trkpt lat="48.70373" lon="-3.77495">
        <ele>15.7</ele>
        <time>2025-06-30T12:14:00Z</time>
      </trkpt>
      <trkpt lat="48.70361" lon="-3.77506">
        <ele>14.6</ele>
        <time>2025-06-30T12:14:01Z</time>
      </trkpt>
      <trkpt lat="48.70349" lon="-3.77517">
        <ele>13.4</ele>
        <time>2025-06-30T12:14:02Z</time>
      </trkpt>
      <trkpt lat="48.70337" lon="-3.77528">
        <ele>12.3</ele>
        <time>2025-06-30T12:14:03Z</time>
      </trkpt>
      <trkpt lat="48.70325" lon="-3.7754">
        <ele>11.2</ele>
        <time>2025-06-30T12:14:04Z</time>
      </trkpt>
      <trkpt lat="48.70313" lon="-3.77551">
        <ele>10.4</ele>
        <time>2025-06-30T12:14:05Z</time>
      </trkpt>
      <trkpt lat="48.70301" lon="-3.77563">
        <ele>9.9</ele>
        <time>2025-06-30T12:14:06Z</time>
      </trkpt>
      <trkpt lat="48.7029" lon="-3.77574">
        <ele>9.5</ele>
        <time>2025-06-30T12:14:07Z</time>
      </trkpt>
      <trkpt lat="48.7028" lon="-3.77586">
        <ele>9.2</ele>
        <time>2025-06-30T12:14:08Z</time>
      </trkpt>
      <trkpt lat="48.70271" lon="-3.77598">
        <ele>8.9</ele>
        <time>2025-06-30T12:14:09Z</time>
      </trkpt>
      <trkpt lat="48.70263" lon="-3.7761">
        <ele>8.6</ele>
        <time>2025-06-30T12:14:10Z</time>
      </trkpt>
      <trkpt lat="48.70256" lon="-3.77622">
        <ele>8.4</ele>
        <time>2025-06-30T12:14:11Z</time>
      </trkpt>
      <trkpt lat="48.7025" lon="-3.77634">
        <ele>8.4</ele>
        <time>2025-06-30T12:14:12Z</time>
      </trkpt>
      <trkpt lat="48.70245" lon="-3.77647">
        <ele>8.2</ele>
        <time>2025-06-30T12:14:13Z</time>
      </trkpt>
      <trkpt lat="48.70239" lon="-3.77658">
        <ele>8.1</ele>
        <time>2025-06-30T12:14:14Z</time>
      </trkpt>
      <trkpt lat="48.70234" lon="-3.7767">
        <ele>7.9</ele>
        <time>2025-06-30T12:14:15Z</time>
      </trkpt>
      <trkpt lat="48.7023" lon="-3.77683">
        <ele>7.8</ele>
        <time>2025-06-30T12:14:16Z</time>
      </trkpt>
      <trkpt lat="48.70227" lon="-3.77696">
        <ele>7.6</ele>
        <time>2025-06-30T12:14:17Z</time>
      </trkpt>
      <trkpt lat="48.70224" lon="-3.7771">
        <ele>7.5</ele>
        <time>2025-06-30T12:14:18Z</time>
      </trkpt>
      <trkpt lat="48.70222" lon="-3.77724">
        <ele>7.4</ele>
        <time>2025-06-30T12:14:19Z</time>
      </trkpt>
      <trkpt lat="48.70221" lon="-3.77738">
        <ele>7.3</ele>
        <time>2025-06-30T12:14:20Z</time>
      </trkpt>
      <trkpt lat="48.70218" lon="-3.77752">
        <ele>7.2</ele>
        <time>2025-06-30T12:14:21Z</time>
      </trkpt>
      <trkpt lat="48.70214" lon="-3.77765">
        <ele>7</ele>
        <time>2025-06-30T12:14:22Z</time>
      </trkpt>
      <trkpt lat="48.70211" lon="-3.77778">
        <ele>6.9</ele>
        <time>2025-06-30T12:14:23Z</time>
      </trkpt>
      <trkpt lat="48.70209" lon="-3.77791">
        <ele>6.8</ele>
        <time>2025-06-30T12:14:24Z</time>
      </trkpt>
      <trkpt lat="48.70206" lon="-3.77804">
        <ele>6.7</ele>
        <time>2025-06-30T12:14:25Z</time>
      </trkpt>
      <trkpt lat="48.70203" lon="-3.77817">
        <ele>6.6</ele>
        <time>2025-06-30T12:14:26Z</time>
      </trkpt>
      <trkpt lat="48.70201" lon="-3.7783">
        <ele>6.4</ele>
        <time>2025-06-30T12:14:27Z</time>
      </trkpt>
      <trkpt lat="48.70195" lon="-3.77856">
        <ele>6.1</ele>
        <time>2025-06-30T12:14:29Z</time>
      </trkpt>
      <trkpt lat="48.7019" lon="-3.77882">
        <ele>5.8</ele>
        <time>2025-06-30T12:14:31Z</time>
      </trkpt>
      <trkpt lat="48.70184" lon="-3.77907">
        <ele>5.4</ele>
        <time>2025-06-30T12:14:33Z</time>
      </trkpt>
      <trkpt lat="48.70179" lon="-3.77932">
        <ele>5.1</ele>
        <time>2025-06-30T12:14:35Z</time>
      </trkpt>
      <trkpt lat="48.70173" lon="-3.77957">
        <ele>4.9</ele>
        <time>2025-06-30T12:14:37Z</time>
      </trkpt>
      <trkpt lat="48.70167" lon="-3.77982">
        <ele>4.8</ele>
        <time>2025-06-30T12:14:39Z</time>
      </trkpt>
      <trkpt lat="48.70162" lon="-3.78006">
        <ele>4.8</ele>
        <time>2025-06-30T12:14:41Z</time>
      </trkpt>
      <trkpt lat="48.70157" lon="-3.7803">
        <ele>4.8</ele>
        <time>2025-06-30T12:14:43Z</time>
      </trkpt>
      <trkpt lat="48.70153" lon="-3.78053">
        <ele>4.8</ele>
        <time>2025-06-30T12:14:45Z</time>
      </trkpt>
      <trkpt lat="48.70147" lon="-3.78076">
        <ele>4.8</ele>
        <time>2025-06-30T12:14:47Z</time>
      </trkpt>
      <trkpt lat="48.70142" lon="-3.78097">
        <ele>4.8</ele>
        <time>2025-06-30T12:14:49Z</time>
      </trkpt>
      <trkpt lat="48.70137" lon="-3.78119">
        <ele>4.9</ele>
        <time>2025-06-30T12:14:51Z</time>
      </trkpt>
      <trkpt lat="48.70132" lon="-3.7814">
        <ele>5</ele>
        <time>2025-06-30T12:14:53Z</time>
      </trkpt>
      <trkpt lat="48.70128" lon="-3.78161">
        <ele>5.1</ele>
        <time>2025-06-30T12:14:55Z</time>
      </trkpt>
      <trkpt lat="48.70123" lon="-3.7818">
        <ele>5.4</ele>
        <time>2025-06-30T12:14:57Z</time>
      </trkpt>
      <trkpt lat="48.7012" lon="-3.78198">
        <ele>5.7</ele>
        <time>2025-06-30T12:14:59Z</time>
      </trkpt>
      <trkpt lat="48.70117" lon="-3.78214">
        <ele>6</ele>
        <time>2025-06-30T12:15:01Z</time>
      </trkpt>
      <trkpt lat="48.70114" lon="-3.78227">
        <ele>6.4</ele>
        <time>2025-06-30T12:15:03Z</time>
      </trkpt>
      <trkpt lat="48.70114" lon="-3.78245">
        <ele>6.9</ele>
        <time>2025-06-30T12:15:06Z</time>
      </trkpt>
      <trkpt lat="48.7012" lon="-3.7826">
        <ele>6.9</ele>
        <time>2025-06-30T12:15:10Z</time>
      </trkpt>
      <trkpt lat="48.70123" lon="-3.78275">
        <ele>6.9</ele>
        <time>2025-06-30T12:15:15Z</time>
      </trkpt>
      <trkpt lat="48.70124" lon="-3.78289">
        <ele>6.9</ele>
        <time>2025-06-30T12:15:37Z</time>
      </trkpt>
      <trkpt lat="48.70116" lon="-3.78271">
        <ele>7</ele>
        <time>2025-06-30T12:23:05Z</time>
      </trkpt>
      <trkpt lat="48.70113" lon="-3.78257">
        <ele>7</ele>
        <time>2025-06-30T12:23:08Z</time>
      </trkpt>
      <trkpt lat="48.70105" lon="-3.78266">
        <ele>7</ele>
        <time>2025-06-30T12:23:11Z</time>
      </trkpt>
      <trkpt lat="48.70103" lon="-3.7828">
        <ele>7.5</ele>
        <time>2025-06-30T12:23:14Z</time>
      </trkpt>
      <trkpt lat="48.70099" lon="-3.78293">
        <ele>8.1</ele>
        <time>2025-06-30T12:23:17Z</time>
      </trkpt>
      <trkpt lat="48.70097" lon="-3.78311">
        <ele>9</ele>
        <time>2025-06-30T12:23:21Z</time>
      </trkpt>
      <trkpt lat="48.70093" lon="-3.78327">
        <ele>9.9</ele>
        <time>2025-06-30T12:23:25Z</time>
      </trkpt>
      <trkpt lat="48.7009" lon="-3.78341">
        <ele>10.7</ele>
        <time>2025-06-30T12:23:28Z</time>
      </trkpt>
      <trkpt lat="48.70088" lon="-3.78355">
        <ele>11.6</ele>
        <time>2025-06-30T12:23:31Z</time>
      </trkpt>
      <trkpt lat="48.70085" lon="-3.78372">
        <ele>12.7</ele>
        <time>2025-06-30T12:23:35Z</time>
      </trkpt>
      <trkpt lat="48.70082" lon="-3.78389">
        <ele>13.9</ele>
        <time>2025-06-30T12:23:39Z</time>
      </trkpt>
      <trkpt lat="48.70079" lon="-3.78406">
        <ele>15.1</ele>
        <time>2025-06-30T12:23:43Z</time>
      </trkpt>
      <trkpt lat="48.70076" lon="-3.78421">
        <ele>16.2</ele>
        <time>2025-06-30T12:23:48Z</time>
      </trkpt>
      <trkpt lat="48.70074" lon="-3.78436">
        <ele>17.3</ele>
        <time>2025-06-30T12:23:52Z</time>
      </trkpt>
      <trkpt lat="48.70072" lon="-3.78451">
        <ele>18.4</ele>
        <time>2025-06-30T12:23:55Z</time>
      </trkpt>
      <trkpt lat="48.70069" lon="-3.78467">
        <ele>19.5</ele>
        <time>2025-06-30T12:23:59Z</time>
      </trkpt>
      <trkpt lat="48.70066" lon="-3.78483">
        <ele>20.6</ele>
        <time>2025-06-30T12:24:03Z</time>
      </trkpt>
      <trkpt lat="48.70063" lon="-3.78498">
        <ele>21.7</ele>
        <time>2025-06-30T12:24:07Z</time>
      </trkpt>
      <trkpt lat="48.7006" lon="-3.78513">
        <ele>22.8</ele>
        <time>2025-06-30T12:24:11Z</time>
      </trkpt>
      <trkpt lat="48.70058" lon="-3.78528">
        <ele>23.9</ele>
        <time>2025-06-30T12:24:15Z</time>
      </trkpt>
      <trkpt lat="48.70055" lon="-3.78542">
        <ele>25</ele>
        <time>2025-06-30T12:24:19Z</time>
      </trkpt>
      <trkpt lat="48.70052" lon="-3.78556">
        <ele>26.2</ele>
        <time>2025-06-30T12:24:23Z</time>
      </trkpt>
      <trkpt lat="48.70051" lon="-3.7857">
        <ele>27.4</ele>
        <time>2025-06-30T12:24:27Z</time>
      </trkpt>
      <trkpt lat="48.7005" lon="-3.78587">
        <ele>28.9</ele>
        <time>2025-06-30T12:24:32Z</time>
      </trkpt>
      <trkpt lat="48.70047" lon="-3.78601">
        <ele>30.3</ele>
        <time>2025-06-30T12:24:36Z</time>
      </trkpt>
      <trkpt lat="48.70045" lon="-3.78615">
        <ele>31.5</ele>
        <time>2025-06-30T12:24:41Z</time>
      </trkpt>
      <trkpt lat="48.70042" lon="-3.78628">
        <ele>32.7</ele>
        <time>2025-06-30T12:24:45Z</time>
      </trkpt>
      <trkpt lat="48.70039" lon="-3.78642">
        <ele>34</ele>
        <time>2025-06-30T12:24:49Z</time>
      </trkpt>
      <trkpt lat="48.70037" lon="-3.78656">
        <ele>35.2</ele>
        <time>2025-06-30T12:24:53Z</time>
      </trkpt>
      <trkpt lat="48.70034" lon="-3.7867">
        <ele>36.3</ele>
        <time>2025-06-30T12:24:57Z</time>
      </trkpt>
      <trkpt lat="48.7003" lon="-3.78683">
        <ele>37.3</ele>
        <time>2025-06-30T12:25:01Z</time>
      </trkpt>
      <trkpt lat="48.70024" lon="-3.78696">
        <ele>38.3</ele>
        <time>2025-06-30T12:25:05Z</time>
      </trkpt>
      <trkpt lat="48.70017" lon="-3.78708">
        <ele>39.2</ele>
        <time>2025-06-30T12:25:09Z</time>
      </trkpt>
      <trkpt lat="48.70012" lon="-3.7872">
        <ele>40.1</ele>
        <time>2025-06-30T12:25:13Z</time>
      </trkpt>
      <trkpt lat="48.70006" lon="-3.78732">
        <ele>41.1</ele>
        <time>2025-06-30T12:25:17Z</time>
      </trkpt>
      <trkpt lat="48.70001" lon="-3.78744">
        <ele>42</ele>
        <time>2025-06-30T12:25:22Z</time>
      </trkpt>
      <trkpt lat="48.69995" lon="-3.78758">
        <ele>43.2</ele>
        <time>2025-06-30T12:25:27Z</time>
      </trkpt>
      <trkpt lat="48.6999" lon="-3.78774">
        <ele>44.4</ele>
        <time>2025-06-30T12:25:32Z</time>
      </trkpt>
      <trkpt lat="48.69986" lon="-3.78789">
        <ele>45.8</ele>
        <time>2025-06-30T12:25:37Z</time>
      </trkpt>
      <trkpt lat="48.69981" lon="-3.78804">
        <ele>47.2</ele>
        <time>2025-06-30T12:25:42Z</time>
      </trkpt>
      <trkpt lat="48.69978" lon="-3.7882">
        <ele>48.7</ele>
        <time>2025-06-30T12:25:47Z</time>
      </trkpt>
      <trkpt lat="48.69977" lon="-3.78836">
        <ele>50.3</ele>
        <time>2025-06-30T12:25:52Z</time>
      </trkpt>
      <trkpt lat="48.69976" lon="-3.7885">
        <ele>51.7</ele>
        <time>2025-06-30T12:25:56Z</time>
      </trkpt>
      <trkpt lat="48.69974" lon="-3.78866">
        <ele>53.4</ele>
        <time>2025-06-30T12:26:01Z</time>
      </trkpt>
      <trkpt lat="48.69973" lon="-3.78882">
        <ele>54.9</ele>
        <time>2025-06-30T12:26:06Z</time>
      </trkpt>
      <trkpt lat="48.69969" lon="-3.78895">
        <ele>56.2</ele>
        <time>2025-06-30T12:26:10Z</time>
      </trkpt>
      <trkpt lat="48.69964" lon="-3.78907">
        <ele>57.4</ele>
        <time>2025-06-30T12:26:14Z</time>
      </trkpt>
      <trkpt lat="48.69957" lon="-3.78916">
        <ele>58.5</ele>
        <time>2025-06-30T12:26:18Z</time>
      </trkpt>
      <trkpt lat="48.69949" lon="-3.78925">
        <ele>59.6</ele>
        <time>2025-06-30T12:26:22Z</time>
      </trkpt>
      <trkpt lat="48.69938" lon="-3.78933">
        <ele>60.6</ele>
        <time>2025-06-30T12:26:26Z</time>
      </trkpt>
      <trkpt lat="48.69931" lon="-3.78941">
        <ele>61.4</ele>
        <time>2025-06-30T12:26:29Z</time>
      </trkpt>
      <trkpt lat="48.69922" lon="-3.78947">
        <ele>62.1</ele>
        <time>2025-06-30T12:26:32Z</time>
      </trkpt>
      <trkpt lat="48.69915" lon="-3.78956">
        <ele>62.6</ele>
        <time>2025-06-30T12:26:35Z</time>
      </trkpt>
      <trkpt lat="48.69906" lon="-3.78966">
        <ele>63.2</ele>
        <time>2025-06-30T12:26:39Z</time>
      </trkpt>
      <trkpt lat="48.69899" lon="-3.78975">
        <ele>63.8</ele>
        <time>2025-06-30T12:26:44Z</time>
      </trkpt>
      <trkpt lat="48.69905" lon="-3.7896">
        <ele>63.2</ele>
        <time>2025-06-30T12:26:53Z</time>
      </trkpt>
      <trkpt lat="48.69914" lon="-3.78957">
        <ele>62.7</ele>
        <time>2025-06-30T12:26:55Z</time>
      </trkpt>
      <trkpt lat="48.69924" lon="-3.7895">
        <ele>62.3</ele>
        <time>2025-06-30T12:26:57Z</time>
      </trkpt>
      <trkpt lat="48.69934" lon="-3.78943">
        <ele>62.7</ele>
        <time>2025-06-30T12:26:59Z</time>
      </trkpt>
      <trkpt lat="48.69946" lon="-3.78935">
        <ele>63.3</ele>
        <time>2025-06-30T12:27:02Z</time>
      </trkpt>
      <trkpt lat="48.69957" lon="-3.7893">
        <ele>63.7</ele>
        <time>2025-06-30T12:27:05Z</time>
      </trkpt>
      <trkpt lat="48.69968" lon="-3.78934">
        <ele>64.2</ele>
        <time>2025-06-30T12:27:08Z</time>
      </trkpt>
      <trkpt lat="48.69973" lon="-3.7895">
        <ele>64.9</ele>
        <time>2025-06-30T12:27:11Z</time>
      </trkpt>
      <trkpt lat="48.69978" lon="-3.78964">
        <ele>65.6</ele>
        <time>2025-06-30T12:27:14Z</time>
      </trkpt>
      <trkpt lat="48.69984" lon="-3.78977">
        <ele>66.2</ele>
        <time>2025-06-30T12:27:17Z</time>
      </trkpt>
      <trkpt lat="48.69989" lon="-3.78991">
        <ele>66.9</ele>
        <time>2025-06-30T12:27:20Z</time>
      </trkpt>
      <trkpt lat="48.69994" lon="-3.79005">
        <ele>67.5</ele>
        <time>2025-06-30T12:27:23Z</time>
      </trkpt>
      <trkpt lat="48.69998" lon="-3.79021">
        <ele>68.1</ele>
        <time>2025-06-30T12:27:26Z</time>
      </trkpt>
      <trkpt lat="48.70005" lon="-3.79038">
        <ele>68.7</ele>
        <time>2025-06-30T12:27:29Z</time>
      </trkpt>
      <trkpt lat="48.70011" lon="-3.79053">
        <ele>69.3</ele>
        <time>2025-06-30T12:27:32Z</time>
      </trkpt>
      <trkpt lat="48.70016" lon="-3.79068">
        <ele>69.9</ele>
        <time>2025-06-30T12:27:35Z</time>
      </trkpt>
      <trkpt lat="48.70023" lon="-3.79081">
        <ele>70.3</ele>
        <time>2025-06-30T12:27:38Z</time>
      </trkpt>
      <trkpt lat="48.70028" lon="-3.79095">
        <ele>70.6</ele>
        <time>2025-06-30T12:27:41Z</time>
      </trkpt>
      <trkpt lat="48.70033" lon="-3.79107">
        <ele>70.7</ele>
        <time>2025-06-30T12:27:44Z</time>
      </trkpt>
      <trkpt lat="48.70039" lon="-3.79118">
        <ele>70.7</ele>
        <time>2025-06-30T12:27:47Z</time>
      </trkpt>
      <trkpt lat="48.70045" lon="-3.79132">
        <ele>70.5</ele>
        <time>2025-06-30T12:27:50Z</time>
      </trkpt>
      <trkpt lat="48.70055" lon="-3.79143">
        <ele>70.4</ele>
        <time>2025-06-30T12:27:53Z</time>
      </trkpt>
      <trkpt lat="48.70063" lon="-3.7915">
        <ele>70.3</ele>
        <time>2025-06-30T12:27:55Z</time>
      </trkpt>
      <trkpt lat="48.70071" lon="-3.79157">
        <ele>70.3</ele>
        <time>2025-06-30T12:27:57Z</time>
      </trkpt>
      <trkpt lat="48.70079" lon="-3.79165">
        <ele>70.5</ele>
        <time>2025-06-30T12:27:59Z</time>
      </trkpt>
      <trkpt lat="48.70088" lon="-3.79171">
        <ele>70.7</ele>
        <time>2025-06-30T12:28:01Z</time>
      </trkpt>
      <trkpt lat="48.70097" lon="-3.79178">
        <ele>71</ele>
        <time>2025-06-30T12:28:03Z</time>
      </trkpt>
      <trkpt lat="48.70101" lon="-3.79191">
        <ele>71.4</ele>
        <time>2025-06-30T12:28:05Z</time>
      </trkpt>
      <trkpt lat="48.70098" lon="-3.79205">
        <ele>72</ele>
        <time>2025-06-30T12:28:07Z</time>
      </trkpt>
      <trkpt lat="48.70095" lon="-3.7922">
        <ele>72.7</ele>
        <time>2025-06-30T12:28:10Z</time>
      </trkpt>
      <trkpt lat="48.70095" lon="-3.79237">
        <ele>73.5</ele>
        <time>2025-06-30T12:28:13Z</time>
      </trkpt>
      <trkpt lat="48.70101" lon="-3.7925">
        <ele>74.2</ele>
        <time>2025-06-30T12:28:16Z</time>
      </trkpt>
      <trkpt lat="48.70107" lon="-3.79263">
        <ele>74.9</ele>
        <time>2025-06-30T12:28:19Z</time>
      </trkpt>
      <trkpt lat="48.70114" lon="-3.79275">
        <ele>75.4</ele>
        <time>2025-06-30T12:28:22Z</time>
      </trkpt>
      <trkpt lat="48.7012" lon="-3.79289">
        <ele>75.9</ele>
        <time>2025-06-30T12:28:25Z</time>
      </trkpt>
      <trkpt lat="48.70126" lon="-3.79304">
        <ele>76.3</ele>
        <time>2025-06-30T12:28:28Z</time>
      </trkpt>
      <trkpt lat="48.70132" lon="-3.79319">
        <ele>76.6</ele>
        <time>2025-06-30T12:28:31Z</time>
      </trkpt>
      <trkpt lat="48.70138" lon="-3.79334">
        <ele>77</ele>
        <time>2025-06-30T12:28:34Z</time>
      </trkpt>
      <trkpt lat="48.70143" lon="-3.79349">
        <ele>77.4</ele>
        <time>2025-06-30T12:28:37Z</time>
      </trkpt>
      <trkpt lat="48.70149" lon="-3.79363">
        <ele>77.8</ele>
        <time>2025-06-30T12:28:40Z</time>
      </trkpt>
      <trkpt lat="48.70156" lon="-3.79377">
        <ele>78.2</ele>
        <time>2025-06-30T12:28:43Z</time>
      </trkpt>
      <trkpt lat="48.70162" lon="-3.79391">
        <ele>78.7</ele>
        <time>2025-06-30T12:28:46Z</time>
      </trkpt>
      <trkpt lat="48.70166" lon="-3.79406">
        <ele>79.1</ele>
        <time>2025-06-30T12:28:49Z</time>
      </trkpt>
      <trkpt lat="48.70172" lon="-3.7942">
        <ele>79.4</ele>
        <time>2025-06-30T12:28:52Z</time>
      </trkpt>
      <trkpt lat="48.70175" lon="-3.79435">
        <ele>79.7</ele>
        <time>2025-06-30T12:28:55Z</time>
      </trkpt>
      <trkpt lat="48.70178" lon="-3.79452">
        <ele>79.9</ele>
        <time>2025-06-30T12:28:58Z</time>
      </trkpt>
      <trkpt lat="48.7018" lon="-3.79468">
        <ele>79.9</ele>
        <time>2025-06-30T12:29:01Z</time>
      </trkpt>
      <trkpt lat="48.70183" lon="-3.79483">
        <ele>79.6</ele>
        <time>2025-06-30T12:29:05Z</time>
      </trkpt>
      <trkpt lat="48.70184" lon="-3.795">
        <ele>79.1</ele>
        <time>2025-06-30T12:29:09Z</time>
      </trkpt>
      <trkpt lat="48.70183" lon="-3.79515">
        <ele>78.3</ele>
        <time>2025-06-30T12:29:11Z</time>
      </trkpt>
      <trkpt lat="48.70184" lon="-3.79532">
        <ele>77.4</ele>
        <time>2025-06-30T12:29:13Z</time>
      </trkpt>
      <trkpt lat="48.70183" lon="-3.79551">
        <ele>76.6</ele>
        <time>2025-06-30T12:29:15Z</time>
      </trkpt>
      <trkpt lat="48.70182" lon="-3.79569">
        <ele>75.9</ele>
        <time>2025-06-30T12:29:17Z</time>
      </trkpt>
      <trkpt lat="48.70183" lon="-3.79588">
        <ele>75.3</ele>
        <time>2025-06-30T12:29:19Z</time>
      </trkpt>
      <trkpt lat="48.70186" lon="-3.79606">
        <ele>74.7</ele>
        <time>2025-06-30T12:29:21Z</time>
      </trkpt>
      <trkpt lat="48.70188" lon="-3.79621">
        <ele>74.2</ele>
        <time>2025-06-30T12:29:23Z</time>
      </trkpt>
      <trkpt lat="48.7019" lon="-3.79636">
        <ele>73.9</ele>
        <time>2025-06-30T12:29:25Z</time>
      </trkpt>
      <trkpt lat="48.70193" lon="-3.79653">
        <ele>73.5</ele>
        <time>2025-06-30T12:29:27Z</time>
      </trkpt>
      <trkpt lat="48.70195" lon="-3.7967">
        <ele>73</ele>
        <time>2025-06-30T12:29:29Z</time>
      </trkpt>
      <trkpt lat="48.70198" lon="-3.79685">
        <ele>72.4</ele>
        <time>2025-06-30T12:29:33Z</time>
      </trkpt>
      <trkpt lat="48.702" lon="-3.797">
        <ele>71.8</ele>
        <time>2025-06-30T12:29:36Z</time>
      </trkpt>
      <trkpt lat="48.70204" lon="-3.79719">
        <ele>71</ele>
        <time>2025-06-30T12:29:39Z</time>
      </trkpt>
      <trkpt lat="48.70207" lon="-3.79732">
        <ele>70.5</ele>
        <time>2025-06-30T12:29:41Z</time>
      </trkpt>
      <trkpt lat="48.70211" lon="-3.7975">
        <ele>69.7</ele>
        <time>2025-06-30T12:29:44Z</time>
      </trkpt>
      <trkpt lat="48.70215" lon="-3.79763">
        <ele>69.3</ele>
        <time>2025-06-30T12:29:46Z</time>
      </trkpt>
      <trkpt lat="48.70218" lon="-3.79777">
        <ele>68.8</ele>
        <time>2025-06-30T12:29:48Z</time>
      </trkpt>
      <trkpt lat="48.70221" lon="-3.79795">
        <ele>68.3</ele>
        <time>2025-06-30T12:29:51Z</time>
      </trkpt>
      <trkpt lat="48.70223" lon="-3.79813">
        <ele>67.7</ele>
        <time>2025-06-30T12:29:54Z</time>
      </trkpt>
      <trkpt lat="48.70227" lon="-3.79832">
        <ele>67.1</ele>
        <time>2025-06-30T12:29:57Z</time>
      </trkpt>
      <trkpt lat="48.7023" lon="-3.79848">
        <ele>66.5</ele>
        <time>2025-06-30T12:30:00Z</time>
      </trkpt>
      <trkpt lat="48.70235" lon="-3.79861">
        <ele>65.9</ele>
        <time>2025-06-30T12:30:03Z</time>
      </trkpt>
      <trkpt lat="48.70241" lon="-3.79873">
        <ele>65.6</ele>
        <time>2025-06-30T12:30:07Z</time>
      </trkpt>
      <trkpt lat="48.70251" lon="-3.79874">
        <ele>65.3</ele>
        <time>2025-06-30T12:30:11Z</time>
      </trkpt>
      <trkpt lat="48.70257" lon="-3.79886">
        <ele>64.8</ele>
        <time>2025-06-30T12:30:16Z</time>
      </trkpt>
      <trkpt lat="48.70258" lon="-3.799">
        <ele>64.3</ele>
        <time>2025-06-30T12:30:20Z</time>
      </trkpt>
      <trkpt lat="48.7026" lon="-3.79915">
        <ele>63.6</ele>
        <time>2025-06-30T12:30:25Z</time>
      </trkpt>
      <trkpt lat="48.70265" lon="-3.79929">
        <ele>62.7</ele>
        <time>2025-06-30T12:30:30Z</time>
      </trkpt>
      <trkpt lat="48.7027" lon="-3.79943">
        <ele>61.8</ele>
        <time>2025-06-30T12:30:35Z</time>
      </trkpt>
      <trkpt lat="48.70275" lon="-3.79958">
        <ele>61.1</ele>
        <time>2025-06-30T12:30:39Z</time>
      </trkpt>
      <trkpt lat="48.70281" lon="-3.79971">
        <ele>61</ele>
        <time>2025-06-30T12:30:43Z</time>
      </trkpt>
      <trkpt lat="48.7029" lon="-3.79983">
        <ele>61.3</ele>
        <time>2025-06-30T12:30:48Z</time>
      </trkpt>
      <trkpt lat="48.70297" lon="-3.79995">
        <ele>61.8</ele>
        <time>2025-06-30T12:30:52Z</time>
      </trkpt>
      <trkpt lat="48.70301" lon="-3.80009">
        <ele>62.9</ele>
        <time>2025-06-30T12:30:56Z</time>
      </trkpt>
      <trkpt lat="48.70296" lon="-3.80022">
        <ele>63.8</ele>
        <time>2025-06-30T12:31:01Z</time>
      </trkpt>
      <trkpt lat="48.7029" lon="-3.80032">
        <ele>64.5</ele>
        <time>2025-06-30T12:31:05Z</time>
      </trkpt>
      <trkpt lat="48.70282" lon="-3.8004">
        <ele>65.2</ele>
        <time>2025-06-30T12:31:09Z</time>
      </trkpt>
      <trkpt lat="48.70275" lon="-3.8005">
        <ele>65</ele>
        <time>2025-06-30T12:31:12Z</time>
      </trkpt>
      <trkpt lat="48.70266" lon="-3.80058">
        <ele>64.7</ele>
        <time>2025-06-30T12:31:15Z</time>
      </trkpt>
      <trkpt lat="48.70258" lon="-3.80066">
        <ele>64.5</ele>
        <time>2025-06-30T12:31:18Z</time>
      </trkpt>
      <trkpt lat="48.70266" lon="-3.80054">
        <ele>64.7</ele>
        <time>2025-06-30T12:31:27Z</time>
      </trkpt>
      <trkpt lat="48.70276" lon="-3.80045">
        <ele>65.1</ele>
        <time>2025-06-30T12:31:30Z</time>
      </trkpt>
      <trkpt lat="48.70287" lon="-3.80037">
        <ele>65.4</ele>
        <time>2025-06-30T12:31:33Z</time>
      </trkpt>
      <trkpt lat="48.703" lon="-3.80037">
        <ele>65.9</ele>
        <time>2025-06-30T12:31:36Z</time>
      </trkpt>
      <trkpt lat="48.70312" lon="-3.80041">
        <ele>66.4</ele>
        <time>2025-06-30T12:31:39Z</time>
      </trkpt>
      <trkpt lat="48.70325" lon="-3.80045">
        <ele>66.8</ele>
        <time>2025-06-30T12:31:42Z</time>
      </trkpt>
      <trkpt lat="48.70333" lon="-3.80049">
        <ele>67</ele>
        <time>2025-06-30T12:31:44Z</time>
      </trkpt>
      <trkpt lat="48.70342" lon="-3.80048">
        <ele>67.1</ele>
        <time>2025-06-30T12:31:46Z</time>
      </trkpt>
      <trkpt lat="48.70351" lon="-3.80042">
        <ele>67</ele>
        <time>2025-06-30T12:31:48Z</time>
      </trkpt>
      <trkpt lat="48.7036" lon="-3.80034">
        <ele>66.9</ele>
        <time>2025-06-30T12:31:50Z</time>
      </trkpt>
      <trkpt lat="48.70368" lon="-3.80024">
        <ele>66.6</ele>
        <time>2025-06-30T12:31:52Z</time>
      </trkpt>
      <trkpt lat="48.70378" lon="-3.80015">
        <ele>66.4</ele>
        <time>2025-06-30T12:31:54Z</time>
      </trkpt>
      <trkpt lat="48.70387" lon="-3.80003">
        <ele>66.1</ele>
        <time>2025-06-30T12:31:56Z</time>
      </trkpt>
      <trkpt lat="48.70396" lon="-3.79992">
        <ele>65.8</ele>
        <time>2025-06-30T12:31:58Z</time>
      </trkpt>
      <trkpt lat="48.70406" lon="-3.79982">
        <ele>65.6</ele>
        <time>2025-06-30T12:32:00Z</time>
      </trkpt>
      <trkpt lat="48.70416" lon="-3.79973">
        <ele>65.3</ele>
        <time>2025-06-30T12:32:02Z</time>
      </trkpt>
      <trkpt lat="48.70425" lon="-3.79963">
        <ele>65</ele>
        <time>2025-06-30T12:32:04Z</time>
      </trkpt>
      <trkpt lat="48.70436" lon="-3.79957">
        <ele>64.8</ele>
        <time>2025-06-30T12:32:06Z</time>
      </trkpt>
      <trkpt lat="48.70448" lon="-3.79959">
        <ele>64.6</ele>
        <time>2025-06-30T12:32:08Z</time>
      </trkpt>
      <trkpt lat="48.70457" lon="-3.79972">
        <ele>64.4</ele>
        <time>2025-06-30T12:32:10Z</time>
      </trkpt>
      <trkpt lat="48.70464" lon="-3.79987">
        <ele>64.3</ele>
        <time>2025-06-30T12:32:12Z</time>
      </trkpt>
      <trkpt lat="48.70471" lon="-3.80003">
        <ele>64.3</ele>
        <time>2025-06-30T12:32:14Z</time>
      </trkpt>
      <trkpt lat="48.70478" lon="-3.80018">
        <ele>64.4</ele>
        <time>2025-06-30T12:32:16Z</time>
      </trkpt>
      <trkpt lat="48.70485" lon="-3.80034">
        <ele>64.6</ele>
        <time>2025-06-30T12:32:18Z</time>
      </trkpt>
      <trkpt lat="48.70492" lon="-3.80049">
        <ele>64.8</ele>
        <time>2025-06-30T12:32:20Z</time>
      </trkpt>
      <trkpt lat="48.705" lon="-3.80063">
        <ele>65.1</ele>
        <time>2025-06-30T12:32:22Z</time>
      </trkpt>
      <trkpt lat="48.70507" lon="-3.80078">
        <ele>65.3</ele>
        <time>2025-06-30T12:32:24Z</time>
      </trkpt>
      <trkpt lat="48.70514" lon="-3.80092">
        <ele>65.5</ele>
        <time>2025-06-30T12:32:26Z</time>
      </trkpt>
      <trkpt lat="48.70521" lon="-3.80104">
        <ele>65.7</ele>
        <time>2025-06-30T12:32:28Z</time>
      </trkpt>
      <trkpt lat="48.70529" lon="-3.80116">
        <ele>65.9</ele>
        <time>2025-06-30T12:32:30Z</time>
      </trkpt>
      <trkpt lat="48.70537" lon="-3.80125">
        <ele>65.6</ele>
        <time>2025-06-30T12:32:32Z</time>
      </trkpt>
      <trkpt lat="48.70545" lon="-3.80135">
        <ele>65.3</ele>
        <time>2025-06-30T12:32:34Z</time>
      </trkpt>
      <trkpt lat="48.70555" lon="-3.80145">
        <ele>64.9</ele>
        <time>2025-06-30T12:32:36Z</time>
      </trkpt>
      <trkpt lat="48.70566" lon="-3.80156">
        <ele>64.5</ele>
        <time>2025-06-30T12:32:38Z</time>
      </trkpt>
      <trkpt lat="48.70577" lon="-3.80168">
        <ele>64.1</ele>
        <time>2025-06-30T12:32:40Z</time>
      </trkpt>
      <trkpt lat="48.70587" lon="-3.80182">
        <ele>63.7</ele>
        <time>2025-06-30T12:32:42Z</time>
      </trkpt>
      <trkpt lat="48.70599" lon="-3.80192">
        <ele>63.3</ele>
        <time>2025-06-30T12:32:44Z</time>
      </trkpt>
      <trkpt lat="48.70608" lon="-3.80207">
        <ele>63.1</ele>
        <time>2025-06-30T12:32:46Z</time>
      </trkpt>
      <trkpt lat="48.70619" lon="-3.80222">
        <ele>62.8</ele>
        <time>2025-06-30T12:32:48Z</time>
      </trkpt>
      <trkpt lat="48.70628" lon="-3.8024">
        <ele>62.5</ele>
        <time>2025-06-30T12:32:50Z</time>
      </trkpt>
      <trkpt lat="48.70639" lon="-3.80257">
        <ele>62.2</ele>
        <time>2025-06-30T12:32:52Z</time>
      </trkpt>
      <trkpt lat="48.70651" lon="-3.80274">
        <ele>61.9</ele>
        <time>2025-06-30T12:32:54Z</time>
      </trkpt>
      <trkpt lat="48.70662" lon="-3.80294">
        <ele>61.8</ele>
        <time>2025-06-30T12:32:56Z</time>
      </trkpt>
      <trkpt lat="48.70672" lon="-3.80311">
        <ele>61.9</ele>
        <time>2025-06-30T12:32:58Z</time>
      </trkpt>
      <trkpt lat="48.70682" lon="-3.80327">
        <ele>62.1</ele>
        <time>2025-06-30T12:33:00Z</time>
      </trkpt>
      <trkpt lat="48.70691" lon="-3.8034">
        <ele>62.3</ele>
        <time>2025-06-30T12:33:02Z</time>
      </trkpt>
      <trkpt lat="48.70703" lon="-3.80347">
        <ele>62.1</ele>
        <time>2025-06-30T12:33:04Z</time>
      </trkpt>
      <trkpt lat="48.70716" lon="-3.8035">
        <ele>61.6</ele>
        <time>2025-06-30T12:33:06Z</time>
      </trkpt>
      <trkpt lat="48.70729" lon="-3.80349">
        <ele>60.9</ele>
        <time>2025-06-30T12:33:08Z</time>
      </trkpt>
      <trkpt lat="48.70744" lon="-3.80352">
        <ele>60.2</ele>
        <time>2025-06-30T12:33:10Z</time>
      </trkpt>
      <trkpt lat="48.70756" lon="-3.80362">
        <ele>59.5</ele>
        <time>2025-06-30T12:33:12Z</time>
      </trkpt>
      <trkpt lat="48.70764" lon="-3.80371">
        <ele>59</ele>
        <time>2025-06-30T12:33:14Z</time>
      </trkpt>
      <trkpt lat="48.70773" lon="-3.80378">
        <ele>58.4</ele>
        <time>2025-06-30T12:33:21Z</time>
      </trkpt>
      <trkpt lat="48.70785" lon="-3.80378">
        <ele>57.7</ele>
        <time>2025-06-30T12:33:26Z</time>
      </trkpt>
      <trkpt lat="48.70794" lon="-3.80374">
        <ele>57.1</ele>
        <time>2025-06-30T12:33:30Z</time>
      </trkpt>
      <trkpt lat="48.70784" lon="-3.8038">
        <ele>56.4</ele>
        <time>2025-06-30T12:33:38Z</time>
      </trkpt>
      <trkpt lat="48.70774" lon="-3.80379">
        <ele>57.5</ele>
        <time>2025-06-30T12:33:41Z</time>
      </trkpt>
      <trkpt lat="48.70764" lon="-3.80373">
        <ele>58.6</ele>
        <time>2025-06-30T12:33:44Z</time>
      </trkpt>
      <trkpt lat="48.70755" lon="-3.80366">
        <ele>59.4</ele>
        <time>2025-06-30T12:33:47Z</time>
      </trkpt>
      <trkpt lat="48.70747" lon="-3.80359">
        <ele>60</ele>
        <time>2025-06-30T12:33:50Z</time>
      </trkpt>
      <trkpt lat="48.70753" lon="-3.80372">
        <ele>60.8</ele>
        <time>2025-06-30T12:33:54Z</time>
      </trkpt>
      <trkpt lat="48.70759" lon="-3.80389">
        <ele>61.5</ele>
        <time>2025-06-30T12:33:58Z</time>
      </trkpt>
      <trkpt lat="48.70762" lon="-3.80405">
        <ele>62.1</ele>
        <time>2025-06-30T12:34:02Z</time>
      </trkpt>
      <trkpt lat="48.70764" lon="-3.8042">
        <ele>62.5</ele>
        <time>2025-06-30T12:34:05Z</time>
      </trkpt>
      <trkpt lat="48.70768" lon="-3.80434">
        <ele>62.8</ele>
        <time>2025-06-30T12:34:07Z</time>
      </trkpt>
      <trkpt lat="48.70774" lon="-3.80447">
        <ele>63.1</ele>
        <time>2025-06-30T12:34:10Z</time>
      </trkpt>
      <trkpt lat="48.70778" lon="-3.80461">
        <ele>63.5</ele>
        <time>2025-06-30T12:34:13Z</time>
      </trkpt>
      <trkpt lat="48.70777" lon="-3.8048">
        <ele>64.3</ele>
        <time>2025-06-30T12:34:16Z</time>
      </trkpt>
      <trkpt lat="48.70773" lon="-3.80495">
        <ele>65.1</ele>
        <time>2025-06-30T12:34:19Z</time>
      </trkpt>
      <trkpt lat="48.70767" lon="-3.80506">
        <ele>65.6</ele>
        <time>2025-06-30T12:34:22Z</time>
      </trkpt>
      <trkpt lat="48.70758" lon="-3.80516">
        <ele>66</ele>
        <time>2025-06-30T12:34:26Z</time>
      </trkpt>
      <trkpt lat="48.7075" lon="-3.80527">
        <ele>66.1</ele>
        <time>2025-06-30T12:34:30Z</time>
      </trkpt>
      <trkpt lat="48.70745" lon="-3.80539">
        <ele>66</ele>
        <time>2025-06-30T12:34:33Z</time>
      </trkpt>
      <trkpt lat="48.70741" lon="-3.80556">
        <ele>65.9</ele>
        <time>2025-06-30T12:34:36Z</time>
      </trkpt>
      <trkpt lat="48.70736" lon="-3.80576">
        <ele>65.8</ele>
        <time>2025-06-30T12:34:39Z</time>
      </trkpt>
      <trkpt lat="48.70734" lon="-3.8059">
        <ele>66</ele>
        <time>2025-06-30T12:34:41Z</time>
      </trkpt>
      <trkpt lat="48.70733" lon="-3.80607">
        <ele>66.4</ele>
        <time>2025-06-30T12:34:43Z</time>
      </trkpt>
      <trkpt lat="48.70731" lon="-3.80623">
        <ele>67.1</ele>
        <time>2025-06-30T12:34:45Z</time>
      </trkpt>
      <trkpt lat="48.70727" lon="-3.80638">
        <ele>67.9</ele>
        <time>2025-06-30T12:34:47Z</time>
      </trkpt>
      <trkpt lat="48.70722" lon="-3.80652">
        <ele>68.8</ele>
        <time>2025-06-30T12:34:49Z</time>
      </trkpt>
      <trkpt lat="48.70715" lon="-3.80662">
        <ele>69.7</ele>
        <time>2025-06-30T12:34:51Z</time>
      </trkpt>
      <trkpt lat="48.70704" lon="-3.80673">
        <ele>70.9</ele>
        <time>2025-06-30T12:34:54Z</time>
      </trkpt>
      <trkpt lat="48.70697" lon="-3.80687">
        <ele>71.8</ele>
        <time>2025-06-30T12:34:57Z</time>
      </trkpt>
      <trkpt lat="48.70688" lon="-3.80698">
        <ele>72.6</ele>
        <time>2025-06-30T12:35:00Z</time>
      </trkpt>
      <trkpt lat="48.70682" lon="-3.8071">
        <ele>73.2</ele>
        <time>2025-06-30T12:35:03Z</time>
      </trkpt>
      <trkpt lat="48.70679" lon="-3.80723">
        <ele>73.5</ele>
        <time>2025-06-30T12:35:06Z</time>
      </trkpt>
      <trkpt lat="48.70685" lon="-3.80736">
        <ele>73.2</ele>
        <time>2025-06-30T12:35:09Z</time>
      </trkpt>
      <trkpt lat="48.70693" lon="-3.8075">
        <ele>72.7</ele>
        <time>2025-06-30T12:35:12Z</time>
      </trkpt>
      <trkpt lat="48.70701" lon="-3.80757">
        <ele>72.2</ele>
        <time>2025-06-30T12:35:14Z</time>
      </trkpt>
      <trkpt lat="48.7071" lon="-3.80765">
        <ele>71.6</ele>
        <time>2025-06-30T12:35:16Z</time>
      </trkpt>
      <trkpt lat="48.70719" lon="-3.80777">
        <ele>70.9</ele>
        <time>2025-06-30T12:35:18Z</time>
      </trkpt>
      <trkpt lat="48.7073" lon="-3.80787">
        <ele>70.2</ele>
        <time>2025-06-30T12:35:20Z</time>
      </trkpt>
      <trkpt lat="48.7074" lon="-3.80801">
        <ele>69.5</ele>
        <time>2025-06-30T12:35:22Z</time>
      </trkpt>
      <trkpt lat="48.7075" lon="-3.80814">
        <ele>68.7</ele>
        <time>2025-06-30T12:35:24Z</time>
      </trkpt>
      <trkpt lat="48.7076" lon="-3.80825">
        <ele>68</ele>
        <time>2025-06-30T12:35:26Z</time>
      </trkpt>
      <trkpt lat="48.7077" lon="-3.80834">
        <ele>67.2</ele>
        <time>2025-06-30T12:35:28Z</time>
      </trkpt>
      <trkpt lat="48.70779" lon="-3.80843">
        <ele>66.2</ele>
        <time>2025-06-30T12:35:30Z</time>
      </trkpt>
      <trkpt lat="48.70789" lon="-3.80854">
        <ele>65.1</ele>
        <time>2025-06-30T12:35:32Z</time>
      </trkpt>
      <trkpt lat="48.708" lon="-3.80869">
        <ele>63.7</ele>
        <time>2025-06-30T12:35:34Z</time>
      </trkpt>
      <trkpt lat="48.70811" lon="-3.80884">
        <ele>62.3</ele>
        <time>2025-06-30T12:35:36Z</time>
      </trkpt>
      <trkpt lat="48.70822" lon="-3.809">
        <ele>61</ele>
        <time>2025-06-30T12:35:38Z</time>
      </trkpt>
      <trkpt lat="48.70832" lon="-3.80914">
        <ele>59.8</ele>
        <time>2025-06-30T12:35:40Z</time>
      </trkpt>
      <trkpt lat="48.70842" lon="-3.80928">
        <ele>58.5</ele>
        <time>2025-06-30T12:35:42Z</time>
      </trkpt>
      <trkpt lat="48.70852" lon="-3.80942">
        <ele>57</ele>
        <time>2025-06-30T12:35:44Z</time>
      </trkpt>
      <trkpt lat="48.70861" lon="-3.80957">
        <ele>55.3</ele>
        <time>2025-06-30T12:35:46Z</time>
      </trkpt>
      <trkpt lat="48.70872" lon="-3.80972">
        <ele>53.3</ele>
        <time>2025-06-30T12:35:48Z</time>
      </trkpt>
      <trkpt lat="48.70884" lon="-3.80986">
        <ele>51</ele>
        <time>2025-06-30T12:35:50Z</time>
      </trkpt>
      <trkpt lat="48.70897" lon="-3.80994">
        <ele>48.8</ele>
        <time>2025-06-30T12:35:52Z</time>
      </trkpt>
      <trkpt lat="48.70909" lon="-3.81002">
        <ele>46.7</ele>
        <time>2025-06-30T12:35:54Z</time>
      </trkpt>
      <trkpt lat="48.7092" lon="-3.81017">
        <ele>44.6</ele>
        <time>2025-06-30T12:35:56Z</time>
      </trkpt>
      <trkpt lat="48.7093" lon="-3.81033">
        <ele>42.7</ele>
        <time>2025-06-30T12:35:58Z</time>
      </trkpt>
      <trkpt lat="48.7094" lon="-3.81045">
        <ele>41.3</ele>
        <time>2025-06-30T12:36:00Z</time>
      </trkpt>
      <trkpt lat="48.70951" lon="-3.81054">
        <ele>39.7</ele>
        <time>2025-06-30T12:36:02Z</time>
      </trkpt>
      <trkpt lat="48.70961" lon="-3.81062">
        <ele>38.2</ele>
        <time>2025-06-30T12:36:04Z</time>
      </trkpt>
      <trkpt lat="48.70973" lon="-3.81067">
        <ele>36.3</ele>
        <time>2025-06-30T12:36:06Z</time>
      </trkpt>
      <trkpt lat="48.70984" lon="-3.81067">
        <ele>34.6</ele>
        <time>2025-06-30T12:36:08Z</time>
      </trkpt>
      <trkpt lat="48.70996" lon="-3.81069">
        <ele>32.6</ele>
        <time>2025-06-30T12:36:10Z</time>
      </trkpt>
      <trkpt lat="48.71006" lon="-3.81071">
        <ele>30.7</ele>
        <time>2025-06-30T12:36:12Z</time>
      </trkpt>
      <trkpt lat="48.71015" lon="-3.81077">
        <ele>28.9</ele>
        <time>2025-06-30T12:36:14Z</time>
      </trkpt>
      <trkpt lat="48.71024" lon="-3.81084">
        <ele>27.1</ele>
        <time>2025-06-30T12:36:16Z</time>
      </trkpt>
      <trkpt lat="48.71031" lon="-3.81095">
        <ele>25.4</ele>
        <time>2025-06-30T12:36:18Z</time>
      </trkpt>
      <trkpt lat="48.71039" lon="-3.81108">
        <ele>23.5</ele>
        <time>2025-06-30T12:36:20Z</time>
      </trkpt>
      <trkpt lat="48.71043" lon="-3.81124">
        <ele>21.7</ele>
        <time>2025-06-30T12:36:22Z</time>
      </trkpt>
      <trkpt lat="48.71046" lon="-3.81137">
        <ele>20.4</ele>
        <time>2025-06-30T12:36:24Z</time>
      </trkpt>
      <trkpt lat="48.71041" lon="-3.81154">
        <ele>18.7</ele>
        <time>2025-06-30T12:36:26Z</time>
      </trkpt>
      <trkpt lat="48.71041" lon="-3.81173">
        <ele>17.2</ele>
        <time>2025-06-30T12:36:29Z</time>
      </trkpt>
      <trkpt lat="48.71042" lon="-3.81188">
        <ele>16.2</ele>
        <time>2025-06-30T12:36:33Z</time>
      </trkpt>
      <trkpt lat="48.71053" lon="-3.812">
        <ele>14.9</ele>
        <time>2025-06-30T12:36:36Z</time>
      </trkpt>
      <trkpt lat="48.71063" lon="-3.81208">
        <ele>14</ele>
        <time>2025-06-30T12:36:38Z</time>
      </trkpt>
      <trkpt lat="48.71076" lon="-3.81214">
        <ele>12.9</ele>
        <time>2025-06-30T12:36:40Z</time>
      </trkpt>
      <trkpt lat="48.71091" lon="-3.8122">
        <ele>11.9</ele>
        <time>2025-06-30T12:36:42Z</time>
      </trkpt>
      <trkpt lat="48.71107" lon="-3.81224">
        <ele>10.8</ele>
        <time>2025-06-30T12:36:44Z</time>
      </trkpt>
      <trkpt lat="48.71123" lon="-3.81232">
        <ele>9.9</ele>
        <time>2025-06-30T12:36:46Z</time>
      </trkpt>
      <trkpt lat="48.71137" lon="-3.81238">
        <ele>9.3</ele>
        <time>2025-06-30T12:36:48Z</time>
      </trkpt>
      <trkpt lat="48.71148" lon="-3.81243">
        <ele>8.9</ele>
        <time>2025-06-30T12:36:50Z</time>
      </trkpt>
      <trkpt lat="48.71161" lon="-3.8125">
        <ele>8.6</ele>
        <time>2025-06-30T12:36:52Z</time>
      </trkpt>
      <trkpt lat="48.71173" lon="-3.81256">
        <ele>8.4</ele>
        <time>2025-06-30T12:36:54Z</time>
      </trkpt>
      <trkpt lat="48.71184" lon="-3.81265">
        <ele>8.2</ele>
        <time>2025-06-30T12:36:56Z</time>
      </trkpt>
      <trkpt lat="48.71195" lon="-3.81275">
        <ele>8</ele>
        <time>2025-06-30T12:36:58Z</time>
      </trkpt>
      <trkpt lat="48.71208" lon="-3.81284">
        <ele>7.7</ele>
        <time>2025-06-30T12:37:00Z</time>
      </trkpt>
      <trkpt lat="48.71219" lon="-3.81293">
        <ele>7.4</ele>
        <time>2025-06-30T12:37:02Z</time>
      </trkpt>
      <trkpt lat="48.7123" lon="-3.81307">
        <ele>7.3</ele>
        <time>2025-06-30T12:37:04Z</time>
      </trkpt>
      <trkpt lat="48.71239" lon="-3.81321">
        <ele>7.3</ele>
        <time>2025-06-30T12:37:06Z</time>
      </trkpt>
      <trkpt lat="48.71248" lon="-3.81335">
        <ele>7.3</ele>
        <time>2025-06-30T12:37:08Z</time>
      </trkpt>
      <trkpt lat="48.71254" lon="-3.81346">
        <ele>7.2</ele>
        <time>2025-06-30T12:37:10Z</time>
      </trkpt>
      <trkpt lat="48.71259" lon="-3.81361">
        <ele>6.9</ele>
        <time>2025-06-30T12:37:13Z</time>
      </trkpt>
      <trkpt lat="48.71255" lon="-3.81375">
        <ele>6.8</ele>
        <time>2025-06-30T12:37:15Z</time>
      </trkpt>
      <trkpt lat="48.7125" lon="-3.8139">
        <ele>6.8</ele>
        <time>2025-06-30T12:37:17Z</time>
      </trkpt>
      <trkpt lat="48.71246" lon="-3.81404">
        <ele>6.8</ele>
        <time>2025-06-30T12:37:19Z</time>
      </trkpt>
      <trkpt lat="48.71243" lon="-3.8142">
        <ele>6.8</ele>
        <time>2025-06-30T12:37:21Z</time>
      </trkpt>
      <trkpt lat="48.7124" lon="-3.81435">
        <ele>6.8</ele>
        <time>2025-06-30T12:37:23Z</time>
      </trkpt>
      <trkpt lat="48.71236" lon="-3.81451">
        <ele>6.8</ele>
        <time>2025-06-30T12:37:25Z</time>
      </trkpt>
      <trkpt lat="48.71233" lon="-3.81468">
        <ele>6.8</ele>
        <time>2025-06-30T12:37:27Z</time>
      </trkpt>
      <trkpt lat="48.7123" lon="-3.81485">
        <ele>6.7</ele>
        <time>2025-06-30T12:37:29Z</time>
      </trkpt>
      <trkpt lat="48.71227" lon="-3.81503">
        <ele>6.6</ele>
        <time>2025-06-30T12:37:31Z</time>
      </trkpt>
      <trkpt lat="48.71224" lon="-3.81522">
        <ele>6.5</ele>
        <time>2025-06-30T12:37:33Z</time>
      </trkpt>
      <trkpt lat="48.7122" lon="-3.81541">
        <ele>6.4</ele>
        <time>2025-06-30T12:37:35Z</time>
      </trkpt>
      <trkpt lat="48.71217" lon="-3.81561">
        <ele>6.3</ele>
        <time>2025-06-30T12:37:37Z</time>
      </trkpt>
      <trkpt lat="48.71213" lon="-3.81582">
        <ele>6.2</ele>
        <time>2025-06-30T12:37:39Z</time>
      </trkpt>
      <trkpt lat="48.71208" lon="-3.81602">
        <ele>6.1</ele>
        <time>2025-06-30T12:37:41Z</time>
      </trkpt>
      <trkpt lat="48.71202" lon="-3.81622">
        <ele>6.1</ele>
        <time>2025-06-30T12:37:43Z</time>
      </trkpt>
      <trkpt lat="48.71194" lon="-3.8164">
        <ele>6.1</ele>
        <time>2025-06-30T12:37:45Z</time>
      </trkpt>
      <trkpt lat="48.71184" lon="-3.81657">
        <ele>6.2</ele>
        <time>2025-06-30T12:37:47Z</time>
      </trkpt>
      <trkpt lat="48.71171" lon="-3.81668">
        <ele>6.2</ele>
        <time>2025-06-30T12:37:49Z</time>
      </trkpt>
      <trkpt lat="48.71158" lon="-3.81676">
        <ele>6.3</ele>
        <time>2025-06-30T12:37:51Z</time>
      </trkpt>
      <trkpt lat="48.71145" lon="-3.81684">
        <ele>6.4</ele>
        <time>2025-06-30T12:37:53Z</time>
      </trkpt>
      <trkpt lat="48.71132" lon="-3.81692">
        <ele>6.5</ele>
        <time>2025-06-30T12:37:55Z</time>
      </trkpt>
      <trkpt lat="48.71119" lon="-3.817">
        <ele>6.6</ele>
        <time>2025-06-30T12:37:57Z</time>
      </trkpt>
      <trkpt lat="48.71105" lon="-3.81706">
        <ele>6.7</ele>
        <time>2025-06-30T12:37:59Z</time>
      </trkpt>
      <trkpt lat="48.71093" lon="-3.81715">
        <ele>6.9</ele>
        <time>2025-06-30T12:38:01Z</time>
      </trkpt>
      <trkpt lat="48.71081" lon="-3.81727">
        <ele>7.1</ele>
        <time>2025-06-30T12:38:03Z</time>
      </trkpt>
      <trkpt lat="48.7107" lon="-3.8174">
        <ele>7.2</ele>
        <time>2025-06-30T12:38:05Z</time>
      </trkpt>
      <trkpt lat="48.71062" lon="-3.81756">
        <ele>7.3</ele>
        <time>2025-06-30T12:38:07Z</time>
      </trkpt>
      <trkpt lat="48.71054" lon="-3.81772">
        <ele>7.4</ele>
        <time>2025-06-30T12:38:09Z</time>
      </trkpt>
      <trkpt lat="48.71046" lon="-3.81788">
        <ele>7.5</ele>
        <time>2025-06-30T12:38:11Z</time>
      </trkpt>
      <trkpt lat="48.71038" lon="-3.81804">
        <ele>7.5</ele>
        <time>2025-06-30T12:38:13Z</time>
      </trkpt>
      <trkpt lat="48.7103" lon="-3.81821">
        <ele>7.6</ele>
        <time>2025-06-30T12:38:15Z</time>
      </trkpt>
      <trkpt lat="48.71022" lon="-3.81838">
        <ele>7.6</ele>
        <time>2025-06-30T12:38:17Z</time>
      </trkpt>
      <trkpt lat="48.71014" lon="-3.81855">
        <ele>7.5</ele>
        <time>2025-06-30T12:38:19Z</time>
      </trkpt>
      <trkpt lat="48.71006" lon="-3.81871">
        <ele>7.4</ele>
        <time>2025-06-30T12:38:21Z</time>
      </trkpt>
      <trkpt lat="48.70993" lon="-3.81881">
        <ele>7.2</ele>
        <time>2025-06-30T12:38:23Z</time>
      </trkpt>
      <trkpt lat="48.70979" lon="-3.81889">
        <ele>7.2</ele>
        <time>2025-06-30T12:38:25Z</time>
      </trkpt>
      <trkpt lat="48.70965" lon="-3.81897">
        <ele>7.3</ele>
        <time>2025-06-30T12:38:27Z</time>
      </trkpt>
      <trkpt lat="48.70951" lon="-3.81904">
        <ele>7.5</ele>
        <time>2025-06-30T12:38:29Z</time>
      </trkpt>
      <trkpt lat="48.70939" lon="-3.81913">
        <ele>7.8</ele>
        <time>2025-06-30T12:38:31Z</time>
      </trkpt>
      <trkpt lat="48.70928" lon="-3.81925">
        <ele>8.2</ele>
        <time>2025-06-30T12:38:33Z</time>
      </trkpt>
      <trkpt lat="48.70917" lon="-3.81935">
        <ele>8.7</ele>
        <time>2025-06-30T12:38:35Z</time>
      </trkpt>
      <trkpt lat="48.70906" lon="-3.81945">
        <ele>9.1</ele>
        <time>2025-06-30T12:38:37Z</time>
      </trkpt>
      <trkpt lat="48.70897" lon="-3.81957">
        <ele>9.6</ele>
        <time>2025-06-30T12:38:39Z</time>
      </trkpt>
      <trkpt lat="48.70887" lon="-3.81966">
        <ele>10.1</ele>
        <time>2025-06-30T12:38:41Z</time>
      </trkpt>
      <trkpt lat="48.70878" lon="-3.81976">
        <ele>10.5</ele>
        <time>2025-06-30T12:38:43Z</time>
      </trkpt>
      <trkpt lat="48.70869" lon="-3.81986">
        <ele>11</ele>
        <time>2025-06-30T12:38:45Z</time>
      </trkpt>
      <trkpt lat="48.7086" lon="-3.81996">
        <ele>11.5</ele>
        <time>2025-06-30T12:38:47Z</time>
      </trkpt>
      <trkpt lat="48.70851" lon="-3.82004">
        <ele>11.9</ele>
        <time>2025-06-30T12:38:49Z</time>
      </trkpt>
      <trkpt lat="48.70842" lon="-3.82012">
        <ele>12.4</ele>
        <time>2025-06-30T12:38:51Z</time>
      </trkpt>
      <trkpt lat="48.70832" lon="-3.82016">
        <ele>12.8</ele>
        <time>2025-06-30T12:38:53Z</time>
      </trkpt>
      <trkpt lat="48.70821" lon="-3.82019">
        <ele>13.2</ele>
        <time>2025-06-30T12:38:55Z</time>
      </trkpt>
      <trkpt lat="48.70811" lon="-3.82021">
        <ele>13.5</ele>
        <time>2025-06-30T12:38:57Z</time>
      </trkpt>
      <trkpt lat="48.708" lon="-3.82021">
        <ele>13.7</ele>
        <time>2025-06-30T12:38:59Z</time>
      </trkpt>
      <trkpt lat="48.70789" lon="-3.82018">
        <ele>13.9</ele>
        <time>2025-06-30T12:39:01Z</time>
      </trkpt>
      <trkpt lat="48.70778" lon="-3.82016">
        <ele>14.2</ele>
        <time>2025-06-30T12:39:03Z</time>
      </trkpt>
      <trkpt lat="48.70767" lon="-3.82013">
        <ele>14.4</ele>
        <time>2025-06-30T12:39:05Z</time>
      </trkpt>
      <trkpt lat="48.70756" lon="-3.82011">
        <ele>14.7</ele>
        <time>2025-06-30T12:39:07Z</time>
      </trkpt>
      <trkpt lat="48.70744" lon="-3.82009">
        <ele>15</ele>
        <time>2025-06-30T12:39:09Z</time>
      </trkpt>
      <trkpt lat="48.70733" lon="-3.82007">
        <ele>15.2</ele>
        <time>2025-06-30T12:39:11Z</time>
      </trkpt>
      <trkpt lat="48.70721" lon="-3.82004">
        <ele>15.6</ele>
        <time>2025-06-30T12:39:13Z</time>
      </trkpt>
      <trkpt lat="48.7071" lon="-3.82002">
        <ele>16</ele>
        <time>2025-06-30T12:39:15Z</time>
      </trkpt>
      <trkpt lat="48.70699" lon="-3.82001">
        <ele>16.4</ele>
        <time>2025-06-30T12:39:17Z</time>
      </trkpt>
      <trkpt lat="48.70688" lon="-3.82">
        <ele>16.8</ele>
        <time>2025-06-30T12:39:19Z</time>
      </trkpt>
      <trkpt lat="48.70677" lon="-3.81999">
        <ele>17.1</ele>
        <time>2025-06-30T12:39:21Z</time>
      </trkpt>
      <trkpt lat="48.70666" lon="-3.81999">
        <ele>17.3</ele>
        <time>2025-06-30T12:39:23Z</time>
      </trkpt>
      <trkpt lat="48.70654" lon="-3.81998">
        <ele>17.6</ele>
        <time>2025-06-30T12:39:25Z</time>
      </trkpt>
      <trkpt lat="48.70643" lon="-3.81998">
        <ele>17.8</ele>
        <time>2025-06-30T12:39:27Z</time>
      </trkpt>
      <trkpt lat="48.70631" lon="-3.81997">
        <ele>18.1</ele>
        <time>2025-06-30T12:39:29Z</time>
      </trkpt>
      <trkpt lat="48.70619" lon="-3.81996">
        <ele>18.3</ele>
        <time>2025-06-30T12:39:31Z</time>
      </trkpt>
      <trkpt lat="48.70608" lon="-3.81996">
        <ele>18.5</ele>
        <time>2025-06-30T12:39:33Z</time>
      </trkpt>
      <trkpt lat="48.70596" lon="-3.81995">
        <ele>18.8</ele>
        <time>2025-06-30T12:39:35Z</time>
      </trkpt>
      <trkpt lat="48.70584" lon="-3.81995">
        <ele>18.9</ele>
        <time>2025-06-30T12:39:37Z</time>
      </trkpt>
      <trkpt lat="48.70572" lon="-3.81995">
        <ele>19.1</ele>
        <time>2025-06-30T12:39:39Z</time>
      </trkpt>
      <trkpt lat="48.7056" lon="-3.81994">
        <ele>19.3</ele>
        <time>2025-06-30T12:39:41Z</time>
      </trkpt>
      <trkpt lat="48.70548" lon="-3.81994">
        <ele>19.5</ele>
        <time>2025-06-30T12:39:43Z</time>
      </trkpt>
      <trkpt lat="48.70537" lon="-3.81993">
        <ele>19.7</ele>
        <time>2025-06-30T12:39:45Z</time>
      </trkpt>
      <trkpt lat="48.70525" lon="-3.81993">
        <ele>19.9</ele>
        <time>2025-06-30T12:39:47Z</time>
      </trkpt>
      <trkpt lat="48.70513" lon="-3.81992">
        <ele>20</ele>
        <time>2025-06-30T12:39:49Z</time>
      </trkpt>
      <trkpt lat="48.70501" lon="-3.81992">
        <ele>20.1</ele>
        <time>2025-06-30T12:39:51Z</time>
      </trkpt>
      <trkpt lat="48.70489" lon="-3.81991">
        <ele>20.1</ele>
        <time>2025-06-30T12:39:53Z</time>
      </trkpt>
      <trkpt lat="48.70477" lon="-3.8199">
        <ele>20.2</ele>
        <time>2025-06-30T12:39:55Z</time>
      </trkpt>
      <trkpt lat="48.70465" lon="-3.81991">
        <ele>20.3</ele>
        <time>2025-06-30T12:39:57Z</time>
      </trkpt>
      <trkpt lat="48.70453" lon="-3.81989">
        <ele>20.3</ele>
        <time>2025-06-30T12:39:59Z</time>
      </trkpt>
      <trkpt lat="48.70441" lon="-3.81989">
        <ele>20.4</ele>
        <time>2025-06-30T12:40:01Z</time>
      </trkpt>
      <trkpt lat="48.70429" lon="-3.81987">
        <ele>20.5</ele>
        <time>2025-06-30T12:40:03Z</time>
      </trkpt>
      <trkpt lat="48.70417" lon="-3.81986">
        <ele>20.6</ele>
        <time>2025-06-30T12:40:05Z</time>
      </trkpt>
      <trkpt lat="48.70405" lon="-3.81984">
        <ele>20.8</ele>
        <time>2025-06-30T12:40:07Z</time>
      </trkpt>
      <trkpt lat="48.70393" lon="-3.81981">
        <ele>21</ele>
        <time>2025-06-30T12:40:09Z</time>
      </trkpt>
      <trkpt lat="48.70381" lon="-3.81978">
        <ele>21.2</ele>
        <time>2025-06-30T12:40:11Z</time>
      </trkpt>
      <trkpt lat="48.70369" lon="-3.81976">
        <ele>21.4</ele>
        <time>2025-06-30T12:40:13Z</time>
      </trkpt>
      <trkpt lat="48.70358" lon="-3.81975">
        <ele>21.6</ele>
        <time>2025-06-30T12:40:15Z</time>
      </trkpt>
      <trkpt lat="48.70347" lon="-3.8198">
        <ele>21.6</ele>
        <time>2025-06-30T12:40:17Z</time>
      </trkpt>
      <trkpt lat="48.70336" lon="-3.81985">
        <ele>21.6</ele>
        <time>2025-06-30T12:40:19Z</time>
      </trkpt>
      <trkpt lat="48.70325" lon="-3.81989">
        <ele>21.1</ele>
        <time>2025-06-30T12:40:21Z</time>
      </trkpt>
      <trkpt lat="48.70312" lon="-3.81989">
        <ele>20.5</ele>
        <time>2025-06-30T12:40:23Z</time>
      </trkpt>
      <trkpt lat="48.70299" lon="-3.81985">
        <ele>20</ele>
        <time>2025-06-30T12:40:25Z</time>
      </trkpt>
      <trkpt lat="48.70286" lon="-3.81977">
        <ele>19.3</ele>
        <time>2025-06-30T12:40:27Z</time>
      </trkpt>
      <trkpt lat="48.70273" lon="-3.81967">
        <ele>18.6</ele>
        <time>2025-06-30T12:40:29Z</time>
      </trkpt>
      <trkpt lat="48.70259" lon="-3.81956">
        <ele>17.8</ele>
        <time>2025-06-30T12:40:31Z</time>
      </trkpt>
      <trkpt lat="48.70244" lon="-3.81944">
        <ele>16.9</ele>
        <time>2025-06-30T12:40:33Z</time>
      </trkpt>
      <trkpt lat="48.70229" lon="-3.81931">
        <ele>15.8</ele>
        <time>2025-06-30T12:40:35Z</time>
      </trkpt>
      <trkpt lat="48.70213" lon="-3.81918">
        <ele>14.7</ele>
        <time>2025-06-30T12:40:37Z</time>
      </trkpt>
      <trkpt lat="48.70204" lon="-3.81912">
        <ele>14.2</ele>
        <time>2025-06-30T12:40:38Z</time>
      </trkpt>
      <trkpt lat="48.70196" lon="-3.81905">
        <ele>13.6</ele>
        <time>2025-06-30T12:40:39Z</time>
      </trkpt>
      <trkpt lat="48.70187" lon="-3.81898">
        <ele>13</ele>
        <time>2025-06-30T12:40:40Z</time>
      </trkpt>
      <trkpt lat="48.70177" lon="-3.81892">
        <ele>12.3</ele>
        <time>2025-06-30T12:40:41Z</time>
      </trkpt>
      <trkpt lat="48.70167" lon="-3.81888">
        <ele>11.7</ele>
        <time>2025-06-30T12:40:42Z</time>
      </trkpt>
      <trkpt lat="48.70157" lon="-3.81884">
        <ele>11.1</ele>
        <time>2025-06-30T12:40:43Z</time>
      </trkpt>
      <trkpt lat="48.70146" lon="-3.81883">
        <ele>10.4</ele>
        <time>2025-06-30T12:40:44Z</time>
      </trkpt>
      <trkpt lat="48.70135" lon="-3.81885">
        <ele>9.8</ele>
        <time>2025-06-30T12:40:45Z</time>
      </trkpt>
      <trkpt lat="48.70124" lon="-3.81888">
        <ele>9.2</ele>
        <time>2025-06-30T12:40:46Z</time>
      </trkpt>
      <trkpt lat="48.70113" lon="-3.81893">
        <ele>8.7</ele>
        <time>2025-06-30T12:40:47Z</time>
      </trkpt>
      <trkpt lat="48.70103" lon="-3.81899">
        <ele>8.2</ele>
        <time>2025-06-30T12:40:48Z</time>
      </trkpt>
      <trkpt lat="48.70093" lon="-3.81908">
        <ele>7.9</ele>
        <time>2025-06-30T12:40:49Z</time>
      </trkpt>
      <trkpt lat="48.70085" lon="-3.81918">
        <ele>7.6</ele>
        <time>2025-06-30T12:40:50Z</time>
      </trkpt>
      <trkpt lat="48.70078" lon="-3.8193">
        <ele>7.4</ele>
        <time>2025-06-30T12:40:51Z</time>
      </trkpt>
      <trkpt lat="48.70072" lon="-3.81942">
        <ele>7.3</ele>
        <time>2025-06-30T12:40:52Z</time>
      </trkpt>
      <trkpt lat="48.70068" lon="-3.81956">
        <ele>7.1</ele>
        <time>2025-06-30T12:40:53Z</time>
      </trkpt>
      <trkpt lat="48.70064" lon="-3.8197">
        <ele>7</ele>
        <time>2025-06-30T12:40:54Z</time>
      </trkpt>
      <trkpt lat="48.70061" lon="-3.81984">
        <ele>7.1</ele>
        <time>2025-06-30T12:40:55Z</time>
      </trkpt>
      <trkpt lat="48.70059" lon="-3.81999">
        <ele>6.8</ele>
        <time>2025-06-30T12:40:56Z</time>
      </trkpt>
      <trkpt lat="48.70059" lon="-3.82015">
        <ele>6.5</ele>
        <time>2025-06-30T12:40:57Z</time>
      </trkpt>
      <trkpt lat="48.70059" lon="-3.82031">
        <ele>6.3</ele>
        <time>2025-06-30T12:40:58Z</time>
      </trkpt>
      <trkpt lat="48.70061" lon="-3.82047">
        <ele>6</ele>
        <time>2025-06-30T12:40:59Z</time>
      </trkpt>
      <trkpt lat="48.70064" lon="-3.82062">
        <ele>5.7</ele>
        <time>2025-06-30T12:41:00Z</time>
      </trkpt>
      <trkpt lat="48.70068" lon="-3.82076">
        <ele>5.5</ele>
        <time>2025-06-30T12:41:01Z</time>
      </trkpt>
      <trkpt lat="48.70072" lon="-3.8209">
        <ele>5.2</ele>
        <time>2025-06-30T12:41:02Z</time>
      </trkpt>
      <trkpt lat="48.70077" lon="-3.82104">
        <ele>5</ele>
        <time>2025-06-30T12:41:03Z</time>
      </trkpt>
      <trkpt lat="48.70082" lon="-3.82118">
        <ele>4.8</ele>
        <time>2025-06-30T12:41:04Z</time>
      </trkpt>
      <trkpt lat="48.70087" lon="-3.8213">
        <ele>4.7</ele>
        <time>2025-06-30T12:41:05Z</time>
      </trkpt>
      <trkpt lat="48.70093" lon="-3.82143">
        <ele>4.7</ele>
        <time>2025-06-30T12:41:06Z</time>
      </trkpt>
      <trkpt lat="48.70098" lon="-3.82154">
        <ele>4.7</ele>
        <time>2025-06-30T12:41:07Z</time>
      </trkpt>
      <trkpt lat="48.70103" lon="-3.82165">
        <ele>4.7</ele>
        <time>2025-06-30T12:41:08Z</time>
      </trkpt>
      <trkpt lat="48.70109" lon="-3.82175">
        <ele>4.7</ele>
        <time>2025-06-30T12:41:09Z</time>
      </trkpt>
      <trkpt lat="48.70121" lon="-3.82194">
        <ele>4.7</ele>
        <time>2025-06-30T12:41:11Z</time>
      </trkpt>
      <trkpt lat="48.70128" lon="-3.82204">
        <ele>4.7</ele>
        <time>2025-06-30T12:41:12Z</time>
      </trkpt>
      <trkpt lat="48.70141" lon="-3.82222">
        <ele>4.8</ele>
        <time>2025-06-30T12:41:14Z</time>
      </trkpt>
      <trkpt lat="48.70153" lon="-3.82239">
        <ele>4.8</ele>
        <time>2025-06-30T12:41:16Z</time>
      </trkpt>
      <trkpt lat="48.70166" lon="-3.82257">
        <ele>4.8</ele>
        <time>2025-06-30T12:41:18Z</time>
      </trkpt>
      <trkpt lat="48.70178" lon="-3.82274">
        <ele>4.9</ele>
        <time>2025-06-30T12:41:20Z</time>
      </trkpt>
      <trkpt lat="48.70189" lon="-3.82293">
        <ele>5</ele>
        <time>2025-06-30T12:41:22Z</time>
      </trkpt>
      <trkpt lat="48.70198" lon="-3.82314">
        <ele>5</ele>
        <time>2025-06-30T12:41:24Z</time>
      </trkpt>
      <trkpt lat="48.70206" lon="-3.82335">
        <ele>5.1</ele>
        <time>2025-06-30T12:41:26Z</time>
      </trkpt>
      <trkpt lat="48.70214" lon="-3.82355">
        <ele>5</ele>
        <time>2025-06-30T12:41:28Z</time>
      </trkpt>
      <trkpt lat="48.70221" lon="-3.82375">
        <ele>4.9</ele>
        <time>2025-06-30T12:41:30Z</time>
      </trkpt>
      <trkpt lat="48.70228" lon="-3.82395">
        <ele>4.8</ele>
        <time>2025-06-30T12:41:32Z</time>
      </trkpt>
      <trkpt lat="48.70236" lon="-3.82415">
        <ele>4.8</ele>
        <time>2025-06-30T12:41:34Z</time>
      </trkpt>
      <trkpt lat="48.70243" lon="-3.82434">
        <ele>4.8</ele>
        <time>2025-06-30T12:41:36Z</time>
      </trkpt>
      <trkpt lat="48.70251" lon="-3.82452">
        <ele>4.8</ele>
        <time>2025-06-30T12:41:38Z</time>
      </trkpt>
      <trkpt lat="48.70258" lon="-3.82471">
        <ele>4.9</ele>
        <time>2025-06-30T12:41:40Z</time>
      </trkpt>
      <trkpt lat="48.70264" lon="-3.8249">
        <ele>4.9</ele>
        <time>2025-06-30T12:41:42Z</time>
      </trkpt>
      <trkpt lat="48.70272" lon="-3.82508">
        <ele>4.9</ele>
        <time>2025-06-30T12:41:44Z</time>
      </trkpt>
      <trkpt lat="48.70278" lon="-3.82527">
        <ele>4.9</ele>
        <time>2025-06-30T12:41:46Z</time>
      </trkpt>
      <trkpt lat="48.70285" lon="-3.82545">
        <ele>4.9</ele>
        <time>2025-06-30T12:41:48Z</time>
      </trkpt>
      <trkpt lat="48.70292" lon="-3.82564">
        <ele>4.9</ele>
        <time>2025-06-30T12:41:50Z</time>
      </trkpt>
      <trkpt lat="48.70299" lon="-3.82582">
        <ele>4.9</ele>
        <time>2025-06-30T12:41:52Z</time>
      </trkpt>
      <trkpt lat="48.70306" lon="-3.82601">
        <ele>5</ele>
        <time>2025-06-30T12:41:54Z</time>
      </trkpt>
      <trkpt lat="48.70313" lon="-3.8262">
        <ele>5</ele>
        <time>2025-06-30T12:41:56Z</time>
      </trkpt>
      <trkpt lat="48.70321" lon="-3.82638">
        <ele>5.1</ele>
        <time>2025-06-30T12:41:58Z</time>
      </trkpt>
      <trkpt lat="48.70327" lon="-3.82656">
        <ele>5.1</ele>
        <time>2025-06-30T12:42:00Z</time>
      </trkpt>
      <trkpt lat="48.70333" lon="-3.82675">
        <ele>5.2</ele>
        <time>2025-06-30T12:42:02Z</time>
      </trkpt>
      <trkpt lat="48.70341" lon="-3.82692">
        <ele>5.3</ele>
        <time>2025-06-30T12:42:04Z</time>
      </trkpt>
      <trkpt lat="48.70347" lon="-3.8271">
        <ele>5.3</ele>
        <time>2025-06-30T12:42:06Z</time>
      </trkpt>
      <trkpt lat="48.70353" lon="-3.82727">
        <ele>5.3</ele>
        <time>2025-06-30T12:42:08Z</time>
      </trkpt>
      <trkpt lat="48.7036" lon="-3.82744">
        <ele>5.4</ele>
        <time>2025-06-30T12:42:10Z</time>
      </trkpt>
      <trkpt lat="48.70367" lon="-3.82762">
        <ele>5.4</ele>
        <time>2025-06-30T12:42:12Z</time>
      </trkpt>
      <trkpt lat="48.70373" lon="-3.82779">
        <ele>5.5</ele>
        <time>2025-06-30T12:42:14Z</time>
      </trkpt>
      <trkpt lat="48.7038" lon="-3.82796">
        <ele>5.5</ele>
        <time>2025-06-30T12:42:16Z</time>
      </trkpt>
      <trkpt lat="48.70386" lon="-3.82813">
        <ele>5.6</ele>
        <time>2025-06-30T12:42:18Z</time>
      </trkpt>
      <trkpt lat="48.70393" lon="-3.82829">
        <ele>5.8</ele>
        <time>2025-06-30T12:42:20Z</time>
      </trkpt>
      <trkpt lat="48.704" lon="-3.82845">
        <ele>6</ele>
        <time>2025-06-30T12:42:22Z</time>
      </trkpt>
      <trkpt lat="48.70409" lon="-3.8286">
        <ele>6.3</ele>
        <time>2025-06-30T12:42:24Z</time>
      </trkpt>
      <trkpt lat="48.70418" lon="-3.82872">
        <ele>6.7</ele>
        <time>2025-06-30T12:42:26Z</time>
      </trkpt>
      <trkpt lat="48.70426" lon="-3.82881">
        <ele>7.3</ele>
        <time>2025-06-30T12:42:28Z</time>
      </trkpt>
      <trkpt lat="48.70435" lon="-3.82889">
        <ele>8.1</ele>
        <time>2025-06-30T12:42:30Z</time>
      </trkpt>
      <trkpt lat="48.70444" lon="-3.82895">
        <ele>8.9</ele>
        <time>2025-06-30T12:42:33Z</time>
      </trkpt>
      <trkpt lat="48.70456" lon="-3.82902">
        <ele>10.1</ele>
        <time>2025-06-30T12:42:37Z</time>
      </trkpt>
      <trkpt lat="48.70465" lon="-3.82907">
        <ele>11</ele>
        <time>2025-06-30T12:42:40Z</time>
      </trkpt>
      <trkpt lat="48.70476" lon="-3.82909">
        <ele>12.1</ele>
        <time>2025-06-30T12:42:43Z</time>
      </trkpt>
      <trkpt lat="48.70486" lon="-3.82912">
        <ele>13.3</ele>
        <time>2025-06-30T12:42:46Z</time>
      </trkpt>
      <trkpt lat="48.70497" lon="-3.82914">
        <ele>14.5</ele>
        <time>2025-06-30T12:42:49Z</time>
      </trkpt>
      <trkpt lat="48.70508" lon="-3.82917">
        <ele>15.9</ele>
        <time>2025-06-30T12:42:54Z</time>
      </trkpt>
      <trkpt lat="48.70519" lon="-3.8292">
        <ele>17.3</ele>
        <time>2025-06-30T12:42:59Z</time>
      </trkpt>
      <trkpt lat="48.70529" lon="-3.82929">
        <ele>18.6</ele>
        <time>2025-06-30T12:43:03Z</time>
      </trkpt>
      <trkpt lat="48.70536" lon="-3.82939">
        <ele>19.6</ele>
        <time>2025-06-30T12:43:06Z</time>
      </trkpt>
      <trkpt lat="48.70544" lon="-3.82951">
        <ele>20.2</ele>
        <time>2025-06-30T12:43:10Z</time>
      </trkpt>
      <trkpt lat="48.70551" lon="-3.82964">
        <ele>21</ele>
        <time>2025-06-30T12:43:13Z</time>
      </trkpt>
      <trkpt lat="48.70558" lon="-3.82978">
        <ele>21.9</ele>
        <time>2025-06-30T12:43:16Z</time>
      </trkpt>
      <trkpt lat="48.70565" lon="-3.82991">
        <ele>22.5</ele>
        <time>2025-06-30T12:43:19Z</time>
      </trkpt>
      <trkpt lat="48.7057" lon="-3.83002">
        <ele>23</ele>
        <time>2025-06-30T12:43:22Z</time>
      </trkpt>
      <trkpt lat="48.70575" lon="-3.83017">
        <ele>23.4</ele>
        <time>2025-06-30T12:43:26Z</time>
      </trkpt>
      <trkpt lat="48.70576" lon="-3.83031">
        <ele>24.2</ele>
        <time>2025-06-30T12:43:29Z</time>
      </trkpt>
      <trkpt lat="48.70577" lon="-3.83045">
        <ele>24.9</ele>
        <time>2025-06-30T12:43:32Z</time>
      </trkpt>
      <trkpt lat="48.70575" lon="-3.83062">
        <ele>25.9</ele>
        <time>2025-06-30T12:43:36Z</time>
      </trkpt>
      <trkpt lat="48.70574" lon="-3.83078">
        <ele>26.9</ele>
        <time>2025-06-30T12:43:40Z</time>
      </trkpt>
      <trkpt lat="48.70572" lon="-3.83095">
        <ele>27.5</ele>
        <time>2025-06-30T12:43:44Z</time>
      </trkpt>
      <trkpt lat="48.70569" lon="-3.83111">
        <ele>28</ele>
        <time>2025-06-30T12:43:48Z</time>
      </trkpt>
      <trkpt lat="48.70564" lon="-3.83129">
        <ele>28.4</ele>
        <time>2025-06-30T12:43:52Z</time>
      </trkpt>
      <trkpt lat="48.70561" lon="-3.83143">
        <ele>28.6</ele>
        <time>2025-06-30T12:43:55Z</time>
      </trkpt>
      <trkpt lat="48.70557" lon="-3.83158">
        <ele>28.8</ele>
        <time>2025-06-30T12:43:58Z</time>
      </trkpt>
      <trkpt lat="48.70553" lon="-3.83175">
        <ele>29.1</ele>
        <time>2025-06-30T12:44:01Z</time>
      </trkpt>
      <trkpt lat="48.70548" lon="-3.83192">
        <ele>29.4</ele>
        <time>2025-06-30T12:44:04Z</time>
      </trkpt>
      <trkpt lat="48.70543" lon="-3.83209">
        <ele>29.8</ele>
        <time>2025-06-30T12:44:07Z</time>
      </trkpt>
      <trkpt lat="48.70535" lon="-3.83224">
        <ele>30.3</ele>
        <time>2025-06-30T12:44:10Z</time>
      </trkpt>
      <trkpt lat="48.70525" lon="-3.83234">
        <ele>31</ele>
        <time>2025-06-30T12:44:13Z</time>
      </trkpt>
      <trkpt lat="48.70513" lon="-3.83241">
        <ele>31.7</ele>
        <time>2025-06-30T12:44:16Z</time>
      </trkpt>
      <trkpt lat="48.70502" lon="-3.83247">
        <ele>32.5</ele>
        <time>2025-06-30T12:44:19Z</time>
      </trkpt>
      <trkpt lat="48.7049" lon="-3.83252">
        <ele>33.3</ele>
        <time>2025-06-30T12:44:22Z</time>
      </trkpt>
      <trkpt lat="48.70479" lon="-3.83259">
        <ele>34</ele>
        <time>2025-06-30T12:44:25Z</time>
      </trkpt>
      <trkpt lat="48.70468" lon="-3.83264">
        <ele>34.7</ele>
        <time>2025-06-30T12:44:28Z</time>
      </trkpt>
      <trkpt lat="48.70456" lon="-3.83271">
        <ele>34.9</ele>
        <time>2025-06-30T12:44:31Z</time>
      </trkpt>
      <trkpt lat="48.70445" lon="-3.83278">
        <ele>35.2</ele>
        <time>2025-06-30T12:44:34Z</time>
      </trkpt>
      <trkpt lat="48.70433" lon="-3.83285">
        <ele>35.4</ele>
        <time>2025-06-30T12:44:37Z</time>
      </trkpt>
      <trkpt lat="48.70421" lon="-3.83294">
        <ele>35.5</ele>
        <time>2025-06-30T12:44:40Z</time>
      </trkpt>
      <trkpt lat="48.70413" lon="-3.83299">
        <ele>35.5</ele>
        <time>2025-06-30T12:44:42Z</time>
      </trkpt>
      <trkpt lat="48.70404" lon="-3.83306">
        <ele>35.6</ele>
        <time>2025-06-30T12:44:44Z</time>
      </trkpt>
      <trkpt lat="48.70396" lon="-3.83314">
        <ele>35.7</ele>
        <time>2025-06-30T12:44:46Z</time>
      </trkpt>
      <trkpt lat="48.70389" lon="-3.83322">
        <ele>35.8</ele>
        <time>2025-06-30T12:44:48Z</time>
      </trkpt>
      <trkpt lat="48.70381" lon="-3.8333">
        <ele>36</ele>
        <time>2025-06-30T12:44:50Z</time>
      </trkpt>
      <trkpt lat="48.70373" lon="-3.83337">
        <ele>36.1</ele>
        <time>2025-06-30T12:44:52Z</time>
      </trkpt>
      <trkpt lat="48.70362" lon="-3.83349">
        <ele>36.3</ele>
        <time>2025-06-30T12:44:55Z</time>
      </trkpt>
      <trkpt lat="48.70354" lon="-3.83356">
        <ele>36.3</ele>
        <time>2025-06-30T12:44:57Z</time>
      </trkpt>
      <trkpt lat="48.70345" lon="-3.83363">
        <ele>36.2</ele>
        <time>2025-06-30T12:44:59Z</time>
      </trkpt>
      <trkpt lat="48.70336" lon="-3.83371">
        <ele>36.2</ele>
        <time>2025-06-30T12:45:01Z</time>
      </trkpt>
      <trkpt lat="48.70327" lon="-3.83382">
        <ele>36.4</ele>
        <time>2025-06-30T12:45:03Z</time>
      </trkpt>
      <trkpt lat="48.70319" lon="-3.83395">
        <ele>36.5</ele>
        <time>2025-06-30T12:45:05Z</time>
      </trkpt>
      <trkpt lat="48.70313" lon="-3.83409">
        <ele>36.7</ele>
        <time>2025-06-30T12:45:07Z</time>
      </trkpt>
      <trkpt lat="48.7031" lon="-3.83423">
        <ele>36.8</ele>
        <time>2025-06-30T12:45:09Z</time>
      </trkpt>
      <trkpt lat="48.70306" lon="-3.83437">
        <ele>37.2</ele>
        <time>2025-06-30T12:45:11Z</time>
      </trkpt>
      <trkpt lat="48.70303" lon="-3.83451">
        <ele>37.6</ele>
        <time>2025-06-30T12:45:13Z</time>
      </trkpt>
      <trkpt lat="48.703" lon="-3.83465">
        <ele>38.1</ele>
        <time>2025-06-30T12:45:15Z</time>
      </trkpt>
      <trkpt lat="48.70298" lon="-3.8348">
        <ele>38.6</ele>
        <time>2025-06-30T12:45:17Z</time>
      </trkpt>
      <trkpt lat="48.70296" lon="-3.83494">
        <ele>39.2</ele>
        <time>2025-06-30T12:45:19Z</time>
      </trkpt>
      <trkpt lat="48.70292" lon="-3.83508">
        <ele>39.7</ele>
        <time>2025-06-30T12:45:21Z</time>
      </trkpt>
      <trkpt lat="48.7029" lon="-3.83522">
        <ele>40.3</ele>
        <time>2025-06-30T12:45:23Z</time>
      </trkpt>
      <trkpt lat="48.70288" lon="-3.83535">
        <ele>40.9</ele>
        <time>2025-06-30T12:45:25Z</time>
      </trkpt>
      <trkpt lat="48.70284" lon="-3.83554">
        <ele>41.7</ele>
        <time>2025-06-30T12:45:28Z</time>
      </trkpt>
      <trkpt lat="48.70281" lon="-3.83572">
        <ele>42.6</ele>
        <time>2025-06-30T12:45:31Z</time>
      </trkpt>
      <trkpt lat="48.70278" lon="-3.83589">
        <ele>43.4</ele>
        <time>2025-06-30T12:45:34Z</time>
      </trkpt>
      <trkpt lat="48.70274" lon="-3.83605">
        <ele>44.1</ele>
        <time>2025-06-30T12:45:37Z</time>
      </trkpt>
      <trkpt lat="48.7027" lon="-3.83621">
        <ele>44.8</ele>
        <time>2025-06-30T12:45:40Z</time>
      </trkpt>
      <trkpt lat="48.70265" lon="-3.83635">
        <ele>45.5</ele>
        <time>2025-06-30T12:45:43Z</time>
      </trkpt>
      <trkpt lat="48.7026" lon="-3.83649">
        <ele>46.1</ele>
        <time>2025-06-30T12:45:46Z</time>
      </trkpt>
      <trkpt lat="48.70245" lon="-3.83676">
        <ele>47.2</ele>
        <time>2025-06-30T12:45:52Z</time>
      </trkpt>
      <trkpt lat="48.70238" lon="-3.83688">
        <ele>47.6</ele>
        <time>2025-06-30T12:45:55Z</time>
      </trkpt>
      <trkpt lat="48.70229" lon="-3.83697">
        <ele>47.9</ele>
        <time>2025-06-30T12:45:58Z</time>
      </trkpt>
      <trkpt lat="48.7022" lon="-3.8371">
        <ele>48.1</ele>
        <time>2025-06-30T12:46:01Z</time>
      </trkpt>
      <trkpt lat="48.70211" lon="-3.83719">
        <ele>48.1</ele>
        <time>2025-06-30T12:46:04Z</time>
      </trkpt>
      <trkpt lat="48.70199" lon="-3.83729">
        <ele>47.9</ele>
        <time>2025-06-30T12:46:07Z</time>
      </trkpt>
      <trkpt lat="48.7019" lon="-3.83734">
        <ele>47.7</ele>
        <time>2025-06-30T12:46:09Z</time>
      </trkpt>
      <trkpt lat="48.70178" lon="-3.8374">
        <ele>47.3</ele>
        <time>2025-06-30T12:46:11Z</time>
      </trkpt>
      <trkpt lat="48.70165" lon="-3.83746">
        <ele>46.9</ele>
        <time>2025-06-30T12:46:13Z</time>
      </trkpt>
      <trkpt lat="48.70152" lon="-3.83752">
        <ele>46.6</ele>
        <time>2025-06-30T12:46:15Z</time>
      </trkpt>
      <trkpt lat="48.70137" lon="-3.83756">
        <ele>46.5</ele>
        <time>2025-06-30T12:46:17Z</time>
      </trkpt>
      <trkpt lat="48.70124" lon="-3.83761">
        <ele>46.7</ele>
        <time>2025-06-30T12:46:19Z</time>
      </trkpt>
      <trkpt lat="48.70111" lon="-3.83767">
        <ele>47.1</ele>
        <time>2025-06-30T12:46:21Z</time>
      </trkpt>
      <trkpt lat="48.70098" lon="-3.83772">
        <ele>47.6</ele>
        <time>2025-06-30T12:46:23Z</time>
      </trkpt>
      <trkpt lat="48.70086" lon="-3.83776">
        <ele>48.3</ele>
        <time>2025-06-30T12:46:25Z</time>
      </trkpt>
      <trkpt lat="48.70075" lon="-3.83781">
        <ele>48.9</ele>
        <time>2025-06-30T12:46:27Z</time>
      </trkpt>
      <trkpt lat="48.70065" lon="-3.83784">
        <ele>49.5</ele>
        <time>2025-06-30T12:46:29Z</time>
      </trkpt>
      <trkpt lat="48.70055" lon="-3.83788">
        <ele>49.8</ele>
        <time>2025-06-30T12:46:31Z</time>
      </trkpt>
      <trkpt lat="48.70045" lon="-3.83791">
        <ele>50.3</ele>
        <time>2025-06-30T12:46:33Z</time>
      </trkpt>
      <trkpt lat="48.70036" lon="-3.83795">
        <ele>50.8</ele>
        <time>2025-06-30T12:46:35Z</time>
      </trkpt>
      <trkpt lat="48.70025" lon="-3.83801">
        <ele>51.5</ele>
        <time>2025-06-30T12:46:38Z</time>
      </trkpt>
      <trkpt lat="48.70015" lon="-3.83804">
        <ele>52.2</ele>
        <time>2025-06-30T12:46:41Z</time>
      </trkpt>
      <trkpt lat="48.70003" lon="-3.83808">
        <ele>52.8</ele>
        <time>2025-06-30T12:46:44Z</time>
      </trkpt>
      <trkpt lat="48.69991" lon="-3.83813">
        <ele>53.2</ele>
        <time>2025-06-30T12:46:47Z</time>
      </trkpt>
      <trkpt lat="48.69978" lon="-3.83817">
        <ele>53.3</ele>
        <time>2025-06-30T12:46:50Z</time>
      </trkpt>
      <trkpt lat="48.6997" lon="-3.83822">
        <ele>53.2</ele>
        <time>2025-06-30T12:46:52Z</time>
      </trkpt>
      <trkpt lat="48.69957" lon="-3.83825">
        <ele>52.9</ele>
        <time>2025-06-30T12:46:55Z</time>
      </trkpt>
      <trkpt lat="48.69945" lon="-3.8383">
        <ele>52.3</ele>
        <time>2025-06-30T12:46:58Z</time>
      </trkpt>
      <trkpt lat="48.69933" lon="-3.83834">
        <ele>51.6</ele>
        <time>2025-06-30T12:47:01Z</time>
      </trkpt>
      <trkpt lat="48.6992" lon="-3.83834">
        <ele>50.8</ele>
        <time>2025-06-30T12:47:04Z</time>
      </trkpt>
      <trkpt lat="48.69907" lon="-3.83832">
        <ele>50</ele>
        <time>2025-06-30T12:47:07Z</time>
      </trkpt>
      <trkpt lat="48.69894" lon="-3.83831">
        <ele>49.1</ele>
        <time>2025-06-30T12:47:10Z</time>
      </trkpt>
      <trkpt lat="48.69882" lon="-3.83827">
        <ele>48.1</ele>
        <time>2025-06-30T12:47:12Z</time>
      </trkpt>
      <trkpt lat="48.69868" lon="-3.83822">
        <ele>46.9</ele>
        <time>2025-06-30T12:47:14Z</time>
      </trkpt>
      <trkpt lat="48.69854" lon="-3.83812">
        <ele>45.6</ele>
        <time>2025-06-30T12:47:16Z</time>
      </trkpt>
      <trkpt lat="48.69845" lon="-3.83806">
        <ele>44.9</ele>
        <time>2025-06-30T12:47:17Z</time>
      </trkpt>
      <trkpt lat="48.69837" lon="-3.83799">
        <ele>44.4</ele>
        <time>2025-06-30T12:47:18Z</time>
      </trkpt>
      <trkpt lat="48.69828" lon="-3.83792">
        <ele>43.9</ele>
        <time>2025-06-30T12:47:19Z</time>
      </trkpt>
      <trkpt lat="48.6982" lon="-3.83785">
        <ele>43.5</ele>
        <time>2025-06-30T12:47:20Z</time>
      </trkpt>
      <trkpt lat="48.69811" lon="-3.83777">
        <ele>43.1</ele>
        <time>2025-06-30T12:47:21Z</time>
      </trkpt>
      <trkpt lat="48.69802" lon="-3.83769">
        <ele>42.7</ele>
        <time>2025-06-30T12:47:22Z</time>
      </trkpt>
      <trkpt lat="48.69792" lon="-3.83762">
        <ele>42.6</ele>
        <time>2025-06-30T12:47:23Z</time>
      </trkpt>
      <trkpt lat="48.69783" lon="-3.83755">
        <ele>42.4</ele>
        <time>2025-06-30T12:47:24Z</time>
      </trkpt>
      <trkpt lat="48.69774" lon="-3.83746">
        <ele>42.4</ele>
        <time>2025-06-30T12:47:25Z</time>
      </trkpt>
      <trkpt lat="48.69765" lon="-3.83738">
        <ele>42.4</ele>
        <time>2025-06-30T12:47:26Z</time>
      </trkpt>
      <trkpt lat="48.69756" lon="-3.83731">
        <ele>42.5</ele>
        <time>2025-06-30T12:47:27Z</time>
      </trkpt>
      <trkpt lat="48.69748" lon="-3.83724">
        <ele>42.7</ele>
        <time>2025-06-30T12:47:28Z</time>
      </trkpt>
      <trkpt lat="48.6974" lon="-3.83716">
        <ele>42.8</ele>
        <time>2025-06-30T12:47:29Z</time>
      </trkpt>
      <trkpt lat="48.69731" lon="-3.83709">
        <ele>42.8</ele>
        <time>2025-06-30T12:47:30Z</time>
      </trkpt>
      <trkpt lat="48.69722" lon="-3.83702">
        <ele>42.9</ele>
        <time>2025-06-30T12:47:31Z</time>
      </trkpt>
      <trkpt lat="48.69714" lon="-3.83695">
        <ele>42.9</ele>
        <time>2025-06-30T12:47:32Z</time>
      </trkpt>
      <trkpt lat="48.69706" lon="-3.83687">
        <ele>43</ele>
        <time>2025-06-30T12:47:33Z</time>
      </trkpt>
      <trkpt lat="48.69698" lon="-3.8368">
        <ele>43.1</ele>
        <time>2025-06-30T12:47:34Z</time>
      </trkpt>
      <trkpt lat="48.6969" lon="-3.83674">
        <ele>43.3</ele>
        <time>2025-06-30T12:47:35Z</time>
      </trkpt>
      <trkpt lat="48.69681" lon="-3.83668">
        <ele>43.5</ele>
        <time>2025-06-30T12:47:36Z</time>
      </trkpt>
      <trkpt lat="48.69665" lon="-3.83659">
        <ele>44.1</ele>
        <time>2025-06-30T12:47:38Z</time>
      </trkpt>
      <trkpt lat="48.69649" lon="-3.83649">
        <ele>44.8</ele>
        <time>2025-06-30T12:47:40Z</time>
      </trkpt>
      <trkpt lat="48.69634" lon="-3.83639">
        <ele>45.5</ele>
        <time>2025-06-30T12:47:42Z</time>
      </trkpt>
      <trkpt lat="48.69619" lon="-3.83632">
        <ele>46.2</ele>
        <time>2025-06-30T12:47:44Z</time>
      </trkpt>
      <trkpt lat="48.69606" lon="-3.83625">
        <ele>46.9</ele>
        <time>2025-06-30T12:47:46Z</time>
      </trkpt>
      <trkpt lat="48.69593" lon="-3.83619">
        <ele>47.6</ele>
        <time>2025-06-30T12:47:48Z</time>
      </trkpt>
      <trkpt lat="48.69581" lon="-3.83616">
        <ele>48.3</ele>
        <time>2025-06-30T12:47:50Z</time>
      </trkpt>
      <trkpt lat="48.69569" lon="-3.83612">
        <ele>49</ele>
        <time>2025-06-30T12:47:52Z</time>
      </trkpt>
      <trkpt lat="48.69558" lon="-3.83607">
        <ele>49.7</ele>
        <time>2025-06-30T12:47:54Z</time>
      </trkpt>
      <trkpt lat="48.69547" lon="-3.83603">
        <ele>50.2</ele>
        <time>2025-06-30T12:47:56Z</time>
      </trkpt>
      <trkpt lat="48.69537" lon="-3.83601">
        <ele>50.7</ele>
        <time>2025-06-30T12:47:58Z</time>
      </trkpt>
      <trkpt lat="48.69527" lon="-3.83599">
        <ele>51.1</ele>
        <time>2025-06-30T12:48:00Z</time>
      </trkpt>
      <trkpt lat="48.69516" lon="-3.83596">
        <ele>51.5</ele>
        <time>2025-06-30T12:48:02Z</time>
      </trkpt>
      <trkpt lat="48.69505" lon="-3.83594">
        <ele>51.8</ele>
        <time>2025-06-30T12:48:04Z</time>
      </trkpt>
      <trkpt lat="48.69495" lon="-3.83591">
        <ele>52.1</ele>
        <time>2025-06-30T12:48:06Z</time>
      </trkpt>
      <trkpt lat="48.69484" lon="-3.83589">
        <ele>52.4</ele>
        <time>2025-06-30T12:48:08Z</time>
      </trkpt>
      <trkpt lat="48.69473" lon="-3.83587">
        <ele>52.6</ele>
        <time>2025-06-30T12:48:10Z</time>
      </trkpt>
      <trkpt lat="48.69463" lon="-3.83585">
        <ele>52.9</ele>
        <time>2025-06-30T12:48:12Z</time>
      </trkpt>
      <trkpt lat="48.69452" lon="-3.83584">
        <ele>53.1</ele>
        <time>2025-06-30T12:48:14Z</time>
      </trkpt>
      <trkpt lat="48.69441" lon="-3.83581">
        <ele>53.3</ele>
        <time>2025-06-30T12:48:16Z</time>
      </trkpt>
      <trkpt lat="48.6943" lon="-3.83579">
        <ele>53.4</ele>
        <time>2025-06-30T12:48:18Z</time>
      </trkpt>
      <trkpt lat="48.69419" lon="-3.83578">
        <ele>53.5</ele>
        <time>2025-06-30T12:48:20Z</time>
      </trkpt>
      <trkpt lat="48.69408" lon="-3.83575">
        <ele>53.6</ele>
        <time>2025-06-30T12:48:22Z</time>
      </trkpt>
      <trkpt lat="48.69396" lon="-3.83572">
        <ele>53.6</ele>
        <time>2025-06-30T12:48:24Z</time>
      </trkpt>
      <trkpt lat="48.69384" lon="-3.8357">
        <ele>53.5</ele>
        <time>2025-06-30T12:48:26Z</time>
      </trkpt>
      <trkpt lat="48.69372" lon="-3.83568">
        <ele>53.4</ele>
        <time>2025-06-30T12:48:28Z</time>
      </trkpt>
      <trkpt lat="48.69359" lon="-3.83565">
        <ele>53.2</ele>
        <time>2025-06-30T12:48:30Z</time>
      </trkpt>
      <trkpt lat="48.69346" lon="-3.83563">
        <ele>53</ele>
        <time>2025-06-30T12:48:32Z</time>
      </trkpt>
      <trkpt lat="48.69332" lon="-3.83561">
        <ele>52.7</ele>
        <time>2025-06-30T12:48:34Z</time>
      </trkpt>
      <trkpt lat="48.69318" lon="-3.83557">
        <ele>52.4</ele>
        <time>2025-06-30T12:48:36Z</time>
      </trkpt>
      <trkpt lat="48.69304" lon="-3.83554">
        <ele>52.1</ele>
        <time>2025-06-30T12:48:38Z</time>
      </trkpt>
      <trkpt lat="48.69289" lon="-3.83553">
        <ele>51.7</ele>
        <time>2025-06-30T12:48:40Z</time>
      </trkpt>
      <trkpt lat="48.69274" lon="-3.83549">
        <ele>51.3</ele>
        <time>2025-06-30T12:48:42Z</time>
      </trkpt>
      <trkpt lat="48.69259" lon="-3.83546">
        <ele>50.9</ele>
        <time>2025-06-30T12:48:44Z</time>
      </trkpt>
      <trkpt lat="48.69242" lon="-3.83543">
        <ele>50.5</ele>
        <time>2025-06-30T12:48:46Z</time>
      </trkpt>
      <trkpt lat="48.69226" lon="-3.8354">
        <ele>50.1</ele>
        <time>2025-06-30T12:48:48Z</time>
      </trkpt>
      <trkpt lat="48.6921" lon="-3.83537">
        <ele>49.6</ele>
        <time>2025-06-30T12:48:50Z</time>
      </trkpt>
      <trkpt lat="48.69194" lon="-3.83532">
        <ele>49.1</ele>
        <time>2025-06-30T12:48:52Z</time>
      </trkpt>
      <trkpt lat="48.69177" lon="-3.83529">
        <ele>48.5</ele>
        <time>2025-06-30T12:48:54Z</time>
      </trkpt>
      <trkpt lat="48.69159" lon="-3.83527">
        <ele>47.8</ele>
        <time>2025-06-30T12:48:56Z</time>
      </trkpt>
      <trkpt lat="48.6915" lon="-3.83526">
        <ele>47.4</ele>
        <time>2025-06-30T12:48:57Z</time>
      </trkpt>
      <trkpt lat="48.69141" lon="-3.83525">
        <ele>47.1</ele>
        <time>2025-06-30T12:48:58Z</time>
      </trkpt>
      <trkpt lat="48.69132" lon="-3.83522">
        <ele>46.8</ele>
        <time>2025-06-30T12:48:59Z</time>
      </trkpt>
      <trkpt lat="48.69122" lon="-3.83521">
        <ele>46.4</ele>
        <time>2025-06-30T12:49:00Z</time>
      </trkpt>
      <trkpt lat="48.69112" lon="-3.8352">
        <ele>46.1</ele>
        <time>2025-06-30T12:49:01Z</time>
      </trkpt>
      <trkpt lat="48.69102" lon="-3.8352">
        <ele>45.9</ele>
        <time>2025-06-30T12:49:02Z</time>
      </trkpt>
      <trkpt lat="48.69092" lon="-3.8352">
        <ele>45.7</ele>
        <time>2025-06-30T12:49:03Z</time>
      </trkpt>
      <trkpt lat="48.69081" lon="-3.8352">
        <ele>45.5</ele>
        <time>2025-06-30T12:49:04Z</time>
      </trkpt>
      <trkpt lat="48.69071" lon="-3.83522">
        <ele>45.4</ele>
        <time>2025-06-30T12:49:05Z</time>
      </trkpt>
      <trkpt lat="48.69061" lon="-3.83524">
        <ele>45.5</ele>
        <time>2025-06-30T12:49:06Z</time>
      </trkpt>
      <trkpt lat="48.69052" lon="-3.83526">
        <ele>45.6</ele>
        <time>2025-06-30T12:49:07Z</time>
      </trkpt>
      <trkpt lat="48.69042" lon="-3.8353">
        <ele>45.6</ele>
        <time>2025-06-30T12:49:08Z</time>
      </trkpt>
      <trkpt lat="48.69033" lon="-3.83532">
        <ele>45.8</ele>
        <time>2025-06-30T12:49:09Z</time>
      </trkpt>
      <trkpt lat="48.69023" lon="-3.83535">
        <ele>46.2</ele>
        <time>2025-06-30T12:49:10Z</time>
      </trkpt>
      <trkpt lat="48.69013" lon="-3.83538">
        <ele>46.6</ele>
        <time>2025-06-30T12:49:11Z</time>
      </trkpt>
      <trkpt lat="48.69" lon="-3.8354">
        <ele>47.1</ele>
        <time>2025-06-30T12:49:12Z</time>
      </trkpt>
      <trkpt lat="48.68989" lon="-3.83543">
        <ele>47.4</ele>
        <time>2025-06-30T12:49:13Z</time>
      </trkpt>
      <trkpt lat="48.68977" lon="-3.83554">
        <ele>47.9</ele>
        <time>2025-06-30T12:49:16Z</time>
      </trkpt>
      <trkpt lat="48.68962" lon="-3.83561">
        <ele>48.2</ele>
        <time>2025-06-30T12:49:18Z</time>
      </trkpt>
      <trkpt lat="48.68948" lon="-3.83568">
        <ele>48.4</ele>
        <time>2025-06-30T12:49:20Z</time>
      </trkpt>
      <trkpt lat="48.68934" lon="-3.83577">
        <ele>48.6</ele>
        <time>2025-06-30T12:49:22Z</time>
      </trkpt>
      <trkpt lat="48.68921" lon="-3.83587">
        <ele>48.8</ele>
        <time>2025-06-30T12:49:24Z</time>
      </trkpt>
      <trkpt lat="48.68908" lon="-3.83598">
        <ele>48.9</ele>
        <time>2025-06-30T12:49:26Z</time>
      </trkpt>
      <trkpt lat="48.68894" lon="-3.83607">
        <ele>49</ele>
        <time>2025-06-30T12:49:28Z</time>
      </trkpt>
      <trkpt lat="48.68879" lon="-3.83609">
        <ele>49.2</ele>
        <time>2025-06-30T12:49:30Z</time>
      </trkpt>
      <trkpt lat="48.68865" lon="-3.8361">
        <ele>49.4</ele>
        <time>2025-06-30T12:49:32Z</time>
      </trkpt>
      <trkpt lat="48.6885" lon="-3.8361">
        <ele>49.7</ele>
        <time>2025-06-30T12:49:34Z</time>
      </trkpt>
      <trkpt lat="48.68836" lon="-3.83608">
        <ele>50</ele>
        <time>2025-06-30T12:49:36Z</time>
      </trkpt>
      <trkpt lat="48.68821" lon="-3.83606">
        <ele>50.2</ele>
        <time>2025-06-30T12:49:38Z</time>
      </trkpt>
      <trkpt lat="48.68808" lon="-3.836">
        <ele>50.5</ele>
        <time>2025-06-30T12:49:40Z</time>
      </trkpt>
      <trkpt lat="48.68795" lon="-3.83592">
        <ele>50.9</ele>
        <time>2025-06-30T12:49:42Z</time>
      </trkpt>
      <trkpt lat="48.68783" lon="-3.8358">
        <ele>51.3</ele>
        <time>2025-06-30T12:49:44Z</time>
      </trkpt>
      <trkpt lat="48.68772" lon="-3.83571">
        <ele>51.7</ele>
        <time>2025-06-30T12:49:46Z</time>
      </trkpt>
      <trkpt lat="48.68762" lon="-3.83562">
        <ele>52.1</ele>
        <time>2025-06-30T12:49:48Z</time>
      </trkpt>
      <trkpt lat="48.68749" lon="-3.83558">
        <ele>52.5</ele>
        <time>2025-06-30T12:49:50Z</time>
      </trkpt>
      <trkpt lat="48.68738" lon="-3.83554">
        <ele>52.9</ele>
        <time>2025-06-30T12:49:52Z</time>
      </trkpt>
      <trkpt lat="48.68726" lon="-3.8355">
        <ele>53.3</ele>
        <time>2025-06-30T12:49:54Z</time>
      </trkpt>
      <trkpt lat="48.68715" lon="-3.83549">
        <ele>53.6</ele>
        <time>2025-06-30T12:49:56Z</time>
      </trkpt>
      <trkpt lat="48.68703" lon="-3.83547">
        <ele>53.8</ele>
        <time>2025-06-30T12:49:58Z</time>
      </trkpt>
      <trkpt lat="48.68692" lon="-3.8355">
        <ele>53.9</ele>
        <time>2025-06-30T12:50:00Z</time>
      </trkpt>
      <trkpt lat="48.6868" lon="-3.83552">
        <ele>53.8</ele>
        <time>2025-06-30T12:50:02Z</time>
      </trkpt>
      <trkpt lat="48.68668" lon="-3.83552">
        <ele>53.7</ele>
        <time>2025-06-30T12:50:04Z</time>
      </trkpt>
      <trkpt lat="48.68656" lon="-3.83555">
        <ele>53.5</ele>
        <time>2025-06-30T12:50:06Z</time>
      </trkpt>
      <trkpt lat="48.68642" lon="-3.83557">
        <ele>53.3</ele>
        <time>2025-06-30T12:50:08Z</time>
      </trkpt>
      <trkpt lat="48.68628" lon="-3.83562">
        <ele>53.2</ele>
        <time>2025-06-30T12:50:10Z</time>
      </trkpt>
      <trkpt lat="48.68616" lon="-3.83565">
        <ele>53.1</ele>
        <time>2025-06-30T12:50:12Z</time>
      </trkpt>
      <trkpt lat="48.68605" lon="-3.8357">
        <ele>53</ele>
        <time>2025-06-30T12:50:14Z</time>
      </trkpt>
      <trkpt lat="48.68592" lon="-3.83579">
        <ele>53</ele>
        <time>2025-06-30T12:50:16Z</time>
      </trkpt>
      <trkpt lat="48.68581" lon="-3.83579">
        <ele>53</ele>
        <time>2025-06-30T12:50:17Z</time>
      </trkpt>
      <trkpt lat="48.68568" lon="-3.83591">
        <ele>53</ele>
        <time>2025-06-30T12:50:19Z</time>
      </trkpt>
      <trkpt lat="48.68551" lon="-3.8359">
        <ele>53</ele>
        <time>2025-06-30T12:50:21Z</time>
      </trkpt>
      <trkpt lat="48.68538" lon="-3.83595">
        <ele>53</ele>
        <time>2025-06-30T12:50:23Z</time>
      </trkpt>
      <trkpt lat="48.68525" lon="-3.836">
        <ele>53.1</ele>
        <time>2025-06-30T12:50:25Z</time>
      </trkpt>
      <trkpt lat="48.68512" lon="-3.83608">
        <ele>53.1</ele>
        <time>2025-06-30T12:50:27Z</time>
      </trkpt>
      <trkpt lat="48.68501" lon="-3.83618">
        <ele>53.2</ele>
        <time>2025-06-30T12:50:29Z</time>
      </trkpt>
      <trkpt lat="48.6849" lon="-3.8363">
        <ele>53.2</ele>
        <time>2025-06-30T12:50:31Z</time>
      </trkpt>
      <trkpt lat="48.6848" lon="-3.83643">
        <ele>53.3</ele>
        <time>2025-06-30T12:50:33Z</time>
      </trkpt>
      <trkpt lat="48.68472" lon="-3.83658">
        <ele>53.3</ele>
        <time>2025-06-30T12:50:35Z</time>
      </trkpt>
      <trkpt lat="48.68465" lon="-3.83675">
        <ele>53.3</ele>
        <time>2025-06-30T12:50:37Z</time>
      </trkpt>
      <trkpt lat="48.68459" lon="-3.83692">
        <ele>53.3</ele>
        <time>2025-06-30T12:50:39Z</time>
      </trkpt>
      <trkpt lat="48.68454" lon="-3.83711">
        <ele>53.2</ele>
        <time>2025-06-30T12:50:41Z</time>
      </trkpt>
      <trkpt lat="48.68452" lon="-3.8373">
        <ele>53.1</ele>
        <time>2025-06-30T12:50:43Z</time>
      </trkpt>
      <trkpt lat="48.68449" lon="-3.8375">
        <ele>53</ele>
        <time>2025-06-30T12:50:45Z</time>
      </trkpt>
      <trkpt lat="48.68447" lon="-3.83771">
        <ele>53.1</ele>
        <time>2025-06-30T12:50:47Z</time>
      </trkpt>
      <trkpt lat="48.68445" lon="-3.83791">
        <ele>53.3</ele>
        <time>2025-06-30T12:50:49Z</time>
      </trkpt>
      <trkpt lat="48.68441" lon="-3.8381">
        <ele>53.4</ele>
        <time>2025-06-30T12:50:51Z</time>
      </trkpt>
      <trkpt lat="48.68438" lon="-3.83828">
        <ele>53.6</ele>
        <time>2025-06-30T12:50:53Z</time>
      </trkpt>
      <trkpt lat="48.68434" lon="-3.83847">
        <ele>53.9</ele>
        <time>2025-06-30T12:50:55Z</time>
      </trkpt>
      <trkpt lat="48.68432" lon="-3.83865">
        <ele>54.1</ele>
        <time>2025-06-30T12:50:57Z</time>
      </trkpt>
      <trkpt lat="48.6843" lon="-3.83884">
        <ele>54.3</ele>
        <time>2025-06-30T12:50:59Z</time>
      </trkpt>
      <trkpt lat="48.68424" lon="-3.839">
        <ele>54.6</ele>
        <time>2025-06-30T12:51:01Z</time>
      </trkpt>
      <trkpt lat="48.68418" lon="-3.83915">
        <ele>54.9</ele>
        <time>2025-06-30T12:51:03Z</time>
      </trkpt>
      <trkpt lat="48.68409" lon="-3.83928">
        <ele>55.2</ele>
        <time>2025-06-30T12:51:05Z</time>
      </trkpt>
      <trkpt lat="48.68399" lon="-3.83936">
        <ele>55.6</ele>
        <time>2025-06-30T12:51:07Z</time>
      </trkpt>
      <trkpt lat="48.68387" lon="-3.8394">
        <ele>55.8</ele>
        <time>2025-06-30T12:51:09Z</time>
      </trkpt>
      <trkpt lat="48.68375" lon="-3.83939">
        <ele>56.1</ele>
        <time>2025-06-30T12:51:11Z</time>
      </trkpt>
      <trkpt lat="48.68363" lon="-3.83937">
        <ele>56.3</ele>
        <time>2025-06-30T12:51:13Z</time>
      </trkpt>
      <trkpt lat="48.6835" lon="-3.83931">
        <ele>56.5</ele>
        <time>2025-06-30T12:51:15Z</time>
      </trkpt>
      <trkpt lat="48.68339" lon="-3.83931">
        <ele>56.7</ele>
        <time>2025-06-30T12:51:17Z</time>
      </trkpt>
      <trkpt lat="48.68326" lon="-3.83928">
        <ele>56.9</ele>
        <time>2025-06-30T12:51:19Z</time>
      </trkpt>
      <trkpt lat="48.68314" lon="-3.83925">
        <ele>57</ele>
        <time>2025-06-30T12:51:21Z</time>
      </trkpt>
      <trkpt lat="48.68301" lon="-3.83922">
        <ele>57.2</ele>
        <time>2025-06-30T12:51:23Z</time>
      </trkpt>
      <trkpt lat="48.68289" lon="-3.83919">
        <ele>57.3</ele>
        <time>2025-06-30T12:51:25Z</time>
      </trkpt>
      <trkpt lat="48.68276" lon="-3.83915">
        <ele>57.4</ele>
        <time>2025-06-30T12:51:27Z</time>
      </trkpt>
      <trkpt lat="48.68263" lon="-3.83911">
        <ele>57.4</ele>
        <time>2025-06-30T12:51:29Z</time>
      </trkpt>
      <trkpt lat="48.6825" lon="-3.83906">
        <ele>57.4</ele>
        <time>2025-06-30T12:51:31Z</time>
      </trkpt>
      <trkpt lat="48.68236" lon="-3.83901">
        <ele>57.3</ele>
        <time>2025-06-30T12:51:33Z</time>
      </trkpt>
      <trkpt lat="48.68222" lon="-3.83895">
        <ele>57.3</ele>
        <time>2025-06-30T12:51:35Z</time>
      </trkpt>
      <trkpt lat="48.68208" lon="-3.83891">
        <ele>57.3</ele>
        <time>2025-06-30T12:51:37Z</time>
      </trkpt>
      <trkpt lat="48.68195" lon="-3.83886">
        <ele>57.2</ele>
        <time>2025-06-30T12:51:39Z</time>
      </trkpt>
      <trkpt lat="48.68181" lon="-3.83881">
        <ele>57.2</ele>
        <time>2025-06-30T12:51:41Z</time>
      </trkpt>
      <trkpt lat="48.68167" lon="-3.83875">
        <ele>57</ele>
        <time>2025-06-30T12:51:43Z</time>
      </trkpt>
      <trkpt lat="48.68153" lon="-3.83869">
        <ele>56.9</ele>
        <time>2025-06-30T12:51:45Z</time>
      </trkpt>
      <trkpt lat="48.6814" lon="-3.83862">
        <ele>56.8</ele>
        <time>2025-06-30T12:51:47Z</time>
      </trkpt>
      <trkpt lat="48.68127" lon="-3.83852">
        <ele>56.6</ele>
        <time>2025-06-30T12:51:49Z</time>
      </trkpt>
      <trkpt lat="48.68117" lon="-3.83844">
        <ele>56.5</ele>
        <time>2025-06-30T12:51:51Z</time>
      </trkpt>
      <trkpt lat="48.68104" lon="-3.83843">
        <ele>56.2</ele>
        <time>2025-06-30T12:51:54Z</time>
      </trkpt>
      <trkpt lat="48.68098" lon="-3.83856">
        <ele>55.8</ele>
        <time>2025-06-30T12:51:56Z</time>
      </trkpt>
      <trkpt lat="48.68092" lon="-3.8387">
        <ele>55.4</ele>
        <time>2025-06-30T12:51:58Z</time>
      </trkpt>
      <trkpt lat="48.68083" lon="-3.83882">
        <ele>54.9</ele>
        <time>2025-06-30T12:52:00Z</time>
      </trkpt>
      <trkpt lat="48.6807" lon="-3.8389">
        <ele>54.2</ele>
        <time>2025-06-30T12:52:02Z</time>
      </trkpt>
      <trkpt lat="48.68054" lon="-3.83893">
        <ele>53.5</ele>
        <time>2025-06-30T12:52:04Z</time>
      </trkpt>
      <trkpt lat="48.68038" lon="-3.83897">
        <ele>52.7</ele>
        <time>2025-06-30T12:52:06Z</time>
      </trkpt>
      <trkpt lat="48.68021" lon="-3.83898">
        <ele>52</ele>
        <time>2025-06-30T12:52:08Z</time>
      </trkpt>
      <trkpt lat="48.68003" lon="-3.83902">
        <ele>51.2</ele>
        <time>2025-06-30T12:52:10Z</time>
      </trkpt>
      <trkpt lat="48.67994" lon="-3.83904">
        <ele>50.9</ele>
        <time>2025-06-30T12:52:11Z</time>
      </trkpt>
      <trkpt lat="48.67985" lon="-3.83905">
        <ele>50.5</ele>
        <time>2025-06-30T12:52:12Z</time>
      </trkpt>
      <trkpt lat="48.67976" lon="-3.83906">
        <ele>50.1</ele>
        <time>2025-06-30T12:52:13Z</time>
      </trkpt>
      <trkpt lat="48.67966" lon="-3.83906">
        <ele>49.8</ele>
        <time>2025-06-30T12:52:14Z</time>
      </trkpt>
      <trkpt lat="48.67956" lon="-3.83906">
        <ele>49.5</ele>
        <time>2025-06-30T12:52:15Z</time>
      </trkpt>
      <trkpt lat="48.67947" lon="-3.83904">
        <ele>49.1</ele>
        <time>2025-06-30T12:52:16Z</time>
      </trkpt>
      <trkpt lat="48.67937" lon="-3.83903">
        <ele>48.7</ele>
        <time>2025-06-30T12:52:17Z</time>
      </trkpt>
      <trkpt lat="48.67928" lon="-3.83903">
        <ele>48.3</ele>
        <time>2025-06-30T12:52:18Z</time>
      </trkpt>
      <trkpt lat="48.67918" lon="-3.83902">
        <ele>47.7</ele>
        <time>2025-06-30T12:52:19Z</time>
      </trkpt>
      <trkpt lat="48.67908" lon="-3.839">
        <ele>47.2</ele>
        <time>2025-06-30T12:52:20Z</time>
      </trkpt>
      <trkpt lat="48.67898" lon="-3.83897">
        <ele>46.4</ele>
        <time>2025-06-30T12:52:21Z</time>
      </trkpt>
      <trkpt lat="48.67888" lon="-3.83894">
        <ele>45.5</ele>
        <time>2025-06-30T12:52:22Z</time>
      </trkpt>
      <trkpt lat="48.67878" lon="-3.8389">
        <ele>44.3</ele>
        <time>2025-06-30T12:52:23Z</time>
      </trkpt>
      <trkpt lat="48.67867" lon="-3.83887">
        <ele>43.1</ele>
        <time>2025-06-30T12:52:24Z</time>
      </trkpt>
      <trkpt lat="48.67855" lon="-3.83884">
        <ele>41.9</ele>
        <time>2025-06-30T12:52:25Z</time>
      </trkpt>
      <trkpt lat="48.67842" lon="-3.83881">
        <ele>40.9</ele>
        <time>2025-06-30T12:52:26Z</time>
      </trkpt>
      <trkpt lat="48.6783" lon="-3.8388">
        <ele>40.2</ele>
        <time>2025-06-30T12:52:27Z</time>
      </trkpt>
      <trkpt lat="48.67817" lon="-3.83879">
        <ele>39.8</ele>
        <time>2025-06-30T12:52:28Z</time>
      </trkpt>
      <trkpt lat="48.67804" lon="-3.83882">
        <ele>39.8</ele>
        <time>2025-06-30T12:52:29Z</time>
      </trkpt>
      <trkpt lat="48.67792" lon="-3.83886">
        <ele>40.2</ele>
        <time>2025-06-30T12:52:30Z</time>
      </trkpt>
      <trkpt lat="48.6778" lon="-3.83894">
        <ele>40.8</ele>
        <time>2025-06-30T12:52:31Z</time>
      </trkpt>
      <trkpt lat="48.67772" lon="-3.83906">
        <ele>41.6</ele>
        <time>2025-06-30T12:52:32Z</time>
      </trkpt>
      <trkpt lat="48.67766" lon="-3.83919">
        <ele>42.3</ele>
        <time>2025-06-30T12:52:33Z</time>
      </trkpt>
      <trkpt lat="48.67761" lon="-3.83932">
        <ele>42.8</ele>
        <time>2025-06-30T12:52:34Z</time>
      </trkpt>
      <trkpt lat="48.67757" lon="-3.83944">
        <ele>43.2</ele>
        <time>2025-06-30T12:52:35Z</time>
      </trkpt>
      <trkpt lat="48.67754" lon="-3.83958">
        <ele>43.5</ele>
        <time>2025-06-30T12:52:36Z</time>
      </trkpt>
      <trkpt lat="48.67752" lon="-3.83971">
        <ele>43.8</ele>
        <time>2025-06-30T12:52:37Z</time>
      </trkpt>
      <trkpt lat="48.67749" lon="-3.83985">
        <ele>44.1</ele>
        <time>2025-06-30T12:52:38Z</time>
      </trkpt>
      <trkpt lat="48.67747" lon="-3.84012">
        <ele>44.6</ele>
        <time>2025-06-30T12:52:40Z</time>
      </trkpt>
      <trkpt lat="48.67745" lon="-3.84037">
        <ele>44.7</ele>
        <time>2025-06-30T12:52:42Z</time>
      </trkpt>
      <trkpt lat="48.67747" lon="-3.84063">
        <ele>44.5</ele>
        <time>2025-06-30T12:52:44Z</time>
      </trkpt>
      <trkpt lat="48.6775" lon="-3.8409">
        <ele>44.2</ele>
        <time>2025-06-30T12:52:46Z</time>
      </trkpt>
      <trkpt lat="48.67752" lon="-3.84104">
        <ele>44</ele>
        <time>2025-06-30T12:52:47Z</time>
      </trkpt>
      <trkpt lat="48.67754" lon="-3.84118">
        <ele>43.9</ele>
        <time>2025-06-30T12:52:48Z</time>
      </trkpt>
      <trkpt lat="48.67755" lon="-3.84132">
        <ele>43.9</ele>
        <time>2025-06-30T12:52:49Z</time>
      </trkpt>
      <trkpt lat="48.67753" lon="-3.8416">
        <ele>43.8</ele>
        <time>2025-06-30T12:52:51Z</time>
      </trkpt>
      <trkpt lat="48.67752" lon="-3.84174">
        <ele>43.7</ele>
        <time>2025-06-30T12:52:52Z</time>
      </trkpt>
      <trkpt lat="48.67751" lon="-3.84201">
        <ele>43.1</ele>
        <time>2025-06-30T12:52:54Z</time>
      </trkpt>
      <trkpt lat="48.6775" lon="-3.84215">
        <ele>42.8</ele>
        <time>2025-06-30T12:52:55Z</time>
      </trkpt>
      <trkpt lat="48.67749" lon="-3.84229">
        <ele>42.5</ele>
        <time>2025-06-30T12:52:56Z</time>
      </trkpt>
      <trkpt lat="48.67748" lon="-3.84256">
        <ele>41.8</ele>
        <time>2025-06-30T12:52:58Z</time>
      </trkpt>
      <trkpt lat="48.67748" lon="-3.8427">
        <ele>41.4</ele>
        <time>2025-06-30T12:52:59Z</time>
      </trkpt>
      <trkpt lat="48.67748" lon="-3.84284">
        <ele>41.2</ele>
        <time>2025-06-30T12:53:00Z</time>
      </trkpt>
      <trkpt lat="48.67748" lon="-3.84298">
        <ele>41</ele>
        <time>2025-06-30T12:53:01Z</time>
      </trkpt>
      <trkpt lat="48.67747" lon="-3.84312">
        <ele>40.8</ele>
        <time>2025-06-30T12:53:02Z</time>
      </trkpt>
      <trkpt lat="48.67747" lon="-3.84326">
        <ele>40.8</ele>
        <time>2025-06-30T12:53:03Z</time>
      </trkpt>
      <trkpt lat="48.67749" lon="-3.84352">
        <ele>40.7</ele>
        <time>2025-06-30T12:53:05Z</time>
      </trkpt>
      <trkpt lat="48.67748" lon="-3.84378">
        <ele>40.8</ele>
        <time>2025-06-30T12:53:07Z</time>
      </trkpt>
      <trkpt lat="48.6775" lon="-3.84403">
        <ele>41.1</ele>
        <time>2025-06-30T12:53:09Z</time>
      </trkpt>
      <trkpt lat="48.67747" lon="-3.84425">
        <ele>41.3</ele>
        <time>2025-06-30T12:53:11Z</time>
      </trkpt>
      <trkpt lat="48.67747" lon="-3.84441">
        <ele>41.3</ele>
        <time>2025-06-30T12:53:13Z</time>
      </trkpt>
      <trkpt lat="48.67758" lon="-3.8445">
        <ele>40.7</ele>
        <time>2025-06-30T12:53:16Z</time>
      </trkpt>
      <trkpt lat="48.67768" lon="-3.84458">
        <ele>40.1</ele>
        <time>2025-06-30T12:53:18Z</time>
      </trkpt>
      <trkpt lat="48.67779" lon="-3.84466">
        <ele>39.5</ele>
        <time>2025-06-30T12:53:20Z</time>
      </trkpt>
      <trkpt lat="48.67792" lon="-3.84472">
        <ele>38.8</ele>
        <time>2025-06-30T12:53:22Z</time>
      </trkpt>
      <trkpt lat="48.67804" lon="-3.84481">
        <ele>38</ele>
        <time>2025-06-30T12:53:24Z</time>
      </trkpt>
      <trkpt lat="48.67817" lon="-3.8449">
        <ele>37.1</ele>
        <time>2025-06-30T12:53:26Z</time>
      </trkpt>
      <trkpt lat="48.6783" lon="-3.84502">
        <ele>36.1</ele>
        <time>2025-06-30T12:53:28Z</time>
      </trkpt>
      <trkpt lat="48.6784" lon="-3.84523">
        <ele>34.7</ele>
        <time>2025-06-30T12:53:30Z</time>
      </trkpt>
      <trkpt lat="48.67845" lon="-3.84549">
        <ele>33.1</ele>
        <time>2025-06-30T12:53:32Z</time>
      </trkpt>
      <trkpt lat="48.67844" lon="-3.84563">
        <ele>32.2</ele>
        <time>2025-06-30T12:53:33Z</time>
      </trkpt>
      <trkpt lat="48.67842" lon="-3.84577">
        <ele>31.4</ele>
        <time>2025-06-30T12:53:34Z</time>
      </trkpt>
      <trkpt lat="48.67839" lon="-3.84603">
        <ele>30.1</ele>
        <time>2025-06-30T12:53:36Z</time>
      </trkpt>
      <trkpt lat="48.67837" lon="-3.84628">
        <ele>29.3</ele>
        <time>2025-06-30T12:53:38Z</time>
      </trkpt>
      <trkpt lat="48.67835" lon="-3.84647">
        <ele>28.9</ele>
        <time>2025-06-30T12:53:40Z</time>
      </trkpt>
      <trkpt lat="48.67827" lon="-3.84661">
        <ele>28.6</ele>
        <time>2025-06-30T12:53:42Z</time>
      </trkpt>
      <trkpt lat="48.67812" lon="-3.84667">
        <ele>29.2</ele>
        <time>2025-06-30T12:53:44Z</time>
      </trkpt>
      <trkpt lat="48.67799" lon="-3.84668">
        <ele>29.8</ele>
        <time>2025-06-30T12:53:46Z</time>
      </trkpt>
      <trkpt lat="48.67784" lon="-3.84669">
        <ele>30.6</ele>
        <time>2025-06-30T12:53:48Z</time>
      </trkpt>
      <trkpt lat="48.6777" lon="-3.84668">
        <ele>31.4</ele>
        <time>2025-06-30T12:53:50Z</time>
      </trkpt>
      <trkpt lat="48.67757" lon="-3.84669">
        <ele>32.2</ele>
        <time>2025-06-30T12:53:52Z</time>
      </trkpt>
      <trkpt lat="48.67743" lon="-3.84668">
        <ele>33</ele>
        <time>2025-06-30T12:53:54Z</time>
      </trkpt>
      <trkpt lat="48.67733" lon="-3.84667">
        <ele>33.4</ele>
        <time>2025-06-30T12:53:56Z</time>
      </trkpt>
      <trkpt lat="48.67719" lon="-3.84669">
        <ele>33.8</ele>
        <time>2025-06-30T12:53:58Z</time>
      </trkpt>
      <trkpt lat="48.67707" lon="-3.84668">
        <ele>33.9</ele>
        <time>2025-06-30T12:54:00Z</time>
      </trkpt>
      <trkpt lat="48.67694" lon="-3.84668">
        <ele>33.7</ele>
        <time>2025-06-30T12:54:02Z</time>
      </trkpt>
      <trkpt lat="48.67682" lon="-3.84666">
        <ele>33.2</ele>
        <time>2025-06-30T12:54:04Z</time>
      </trkpt>
      <trkpt lat="48.67668" lon="-3.84665">
        <ele>32.5</ele>
        <time>2025-06-30T12:54:06Z</time>
      </trkpt>
      <trkpt lat="48.67653" lon="-3.84663">
        <ele>31.7</ele>
        <time>2025-06-30T12:54:08Z</time>
      </trkpt>
      <trkpt lat="48.67637" lon="-3.84662">
        <ele>30.7</ele>
        <time>2025-06-30T12:54:10Z</time>
      </trkpt>
      <trkpt lat="48.6762" lon="-3.8466">
        <ele>29.7</ele>
        <time>2025-06-30T12:54:12Z</time>
      </trkpt>
      <trkpt lat="48.67602" lon="-3.84657">
        <ele>28.6</ele>
        <time>2025-06-30T12:54:14Z</time>
      </trkpt>
      <trkpt lat="48.67593" lon="-3.84656">
        <ele>28</ele>
        <time>2025-06-30T12:54:15Z</time>
      </trkpt>
      <trkpt lat="48.67583" lon="-3.84655">
        <ele>27.5</ele>
        <time>2025-06-30T12:54:16Z</time>
      </trkpt>
      <trkpt lat="48.67574" lon="-3.84654">
        <ele>26.9</ele>
        <time>2025-06-30T12:54:17Z</time>
      </trkpt>
      <trkpt lat="48.67564" lon="-3.84652">
        <ele>26.3</ele>
        <time>2025-06-30T12:54:18Z</time>
      </trkpt>
      <trkpt lat="48.67554" lon="-3.8465">
        <ele>25.8</ele>
        <time>2025-06-30T12:54:19Z</time>
      </trkpt>
      <trkpt lat="48.67543" lon="-3.84648">
        <ele>25.3</ele>
        <time>2025-06-30T12:54:20Z</time>
      </trkpt>
      <trkpt lat="48.67533" lon="-3.84646">
        <ele>24.8</ele>
        <time>2025-06-30T12:54:21Z</time>
      </trkpt>
      <trkpt lat="48.67522" lon="-3.84644">
        <ele>24.5</ele>
        <time>2025-06-30T12:54:22Z</time>
      </trkpt>
      <trkpt lat="48.67511" lon="-3.84642">
        <ele>24.1</ele>
        <time>2025-06-30T12:54:23Z</time>
      </trkpt>
      <trkpt lat="48.675" lon="-3.84639">
        <ele>23.7</ele>
        <time>2025-06-30T12:54:24Z</time>
      </trkpt>
      <trkpt lat="48.6749" lon="-3.84637">
        <ele>23.4</ele>
        <time>2025-06-30T12:54:25Z</time>
      </trkpt>
      <trkpt lat="48.67479" lon="-3.84634">
        <ele>23.1</ele>
        <time>2025-06-30T12:54:26Z</time>
      </trkpt>
      <trkpt lat="48.67468" lon="-3.8463">
        <ele>22.9</ele>
        <time>2025-06-30T12:54:27Z</time>
      </trkpt>
      <trkpt lat="48.67457" lon="-3.84626">
        <ele>22.7</ele>
        <time>2025-06-30T12:54:28Z</time>
      </trkpt>
      <trkpt lat="48.67447" lon="-3.84623">
        <ele>22.5</ele>
        <time>2025-06-30T12:54:29Z</time>
      </trkpt>
      <trkpt lat="48.67436" lon="-3.84621">
        <ele>22.4</ele>
        <time>2025-06-30T12:54:30Z</time>
      </trkpt>
      <trkpt lat="48.67425" lon="-3.84618">
        <ele>22.3</ele>
        <time>2025-06-30T12:54:31Z</time>
      </trkpt>
      <trkpt lat="48.67415" lon="-3.84615">
        <ele>22.2</ele>
        <time>2025-06-30T12:54:32Z</time>
      </trkpt>
      <trkpt lat="48.67404" lon="-3.84611">
        <ele>22</ele>
        <time>2025-06-30T12:54:33Z</time>
      </trkpt>
      <trkpt lat="48.67394" lon="-3.84608">
        <ele>21.9</ele>
        <time>2025-06-30T12:54:34Z</time>
      </trkpt>
      <trkpt lat="48.67383" lon="-3.84605">
        <ele>21.9</ele>
        <time>2025-06-30T12:54:35Z</time>
      </trkpt>
      <trkpt lat="48.67373" lon="-3.84601">
        <ele>21.9</ele>
        <time>2025-06-30T12:54:36Z</time>
      </trkpt>
      <trkpt lat="48.67363" lon="-3.84598">
        <ele>21.9</ele>
        <time>2025-06-30T12:54:37Z</time>
      </trkpt>
      <trkpt lat="48.67353" lon="-3.84595">
        <ele>21.9</ele>
        <time>2025-06-30T12:54:38Z</time>
      </trkpt>
      <trkpt lat="48.67343" lon="-3.84591">
        <ele>21.9</ele>
        <time>2025-06-30T12:54:39Z</time>
      </trkpt>
      <trkpt lat="48.67333" lon="-3.84587">
        <ele>21.8</ele>
        <time>2025-06-30T12:54:40Z</time>
      </trkpt>
      <trkpt lat="48.67323" lon="-3.84584">
        <ele>21.8</ele>
        <time>2025-06-30T12:54:41Z</time>
      </trkpt>
      <trkpt lat="48.67313" lon="-3.84581">
        <ele>21.7</ele>
        <time>2025-06-30T12:54:42Z</time>
      </trkpt>
      <trkpt lat="48.67304" lon="-3.84577">
        <ele>21.5</ele>
        <time>2025-06-30T12:54:43Z</time>
      </trkpt>
      <trkpt lat="48.67294" lon="-3.84574">
        <ele>21.3</ele>
        <time>2025-06-30T12:54:44Z</time>
      </trkpt>
      <trkpt lat="48.67284" lon="-3.84571">
        <ele>21.1</ele>
        <time>2025-06-30T12:54:45Z</time>
      </trkpt>
      <trkpt lat="48.67275" lon="-3.84567">
        <ele>20.9</ele>
        <time>2025-06-30T12:54:46Z</time>
      </trkpt>
      <trkpt lat="48.67265" lon="-3.84562">
        <ele>20.7</ele>
        <time>2025-06-30T12:54:47Z</time>
      </trkpt>
      <trkpt lat="48.67255" lon="-3.84557">
        <ele>20.4</ele>
        <time>2025-06-30T12:54:48Z</time>
      </trkpt>
      <trkpt lat="48.67245" lon="-3.84554">
        <ele>20.1</ele>
        <time>2025-06-30T12:54:49Z</time>
      </trkpt>
      <trkpt lat="48.67235" lon="-3.8455">
        <ele>19.7</ele>
        <time>2025-06-30T12:54:50Z</time>
      </trkpt>
      <trkpt lat="48.67225" lon="-3.84545">
        <ele>19.3</ele>
        <time>2025-06-30T12:54:51Z</time>
      </trkpt>
      <trkpt lat="48.67216" lon="-3.84541">
        <ele>19</ele>
        <time>2025-06-30T12:54:52Z</time>
      </trkpt>
      <trkpt lat="48.67205" lon="-3.84538">
        <ele>18.5</ele>
        <time>2025-06-30T12:54:53Z</time>
      </trkpt>
      <trkpt lat="48.67194" lon="-3.84534">
        <ele>17.9</ele>
        <time>2025-06-30T12:54:54Z</time>
      </trkpt>
      <trkpt lat="48.67185" lon="-3.84532">
        <ele>17.4</ele>
        <time>2025-06-30T12:54:55Z</time>
      </trkpt>
      <trkpt lat="48.67173" lon="-3.8453">
        <ele>16.7</ele>
        <time>2025-06-30T12:54:56Z</time>
      </trkpt>
      <trkpt lat="48.67154" lon="-3.84529">
        <ele>15.5</ele>
        <time>2025-06-30T12:54:58Z</time>
      </trkpt>
      <trkpt lat="48.67141" lon="-3.84534">
        <ele>14.7</ele>
        <time>2025-06-30T12:54:59Z</time>
      </trkpt>
      <trkpt lat="48.6713" lon="-3.84536">
        <ele>13.9</ele>
        <time>2025-06-30T12:55:00Z</time>
      </trkpt>
      <trkpt lat="48.67118" lon="-3.84541">
        <ele>13.3</ele>
        <time>2025-06-30T12:55:01Z</time>
      </trkpt>
      <trkpt lat="48.67107" lon="-3.84547">
        <ele>12.9</ele>
        <time>2025-06-30T12:55:02Z</time>
      </trkpt>
      <trkpt lat="48.67095" lon="-3.84553">
        <ele>12.7</ele>
        <time>2025-06-30T12:55:03Z</time>
      </trkpt>
      <trkpt lat="48.67084" lon="-3.8456">
        <ele>12.5</ele>
        <time>2025-06-30T12:55:04Z</time>
      </trkpt>
      <trkpt lat="48.67074" lon="-3.84568">
        <ele>12.4</ele>
        <time>2025-06-30T12:55:05Z</time>
      </trkpt>
      <trkpt lat="48.67063" lon="-3.84576">
        <ele>12.4</ele>
        <time>2025-06-30T12:55:06Z</time>
      </trkpt>
      <trkpt lat="48.67054" lon="-3.84587">
        <ele>12.5</ele>
        <time>2025-06-30T12:55:07Z</time>
      </trkpt>
      <trkpt lat="48.67046" lon="-3.84598">
        <ele>12.8</ele>
        <time>2025-06-30T12:55:08Z</time>
      </trkpt>
      <trkpt lat="48.67038" lon="-3.84609">
        <ele>13.2</ele>
        <time>2025-06-30T12:55:09Z</time>
      </trkpt>
      <trkpt lat="48.67031" lon="-3.8462">
        <ele>13.7</ele>
        <time>2025-06-30T12:55:10Z</time>
      </trkpt>
      <trkpt lat="48.67023" lon="-3.84629">
        <ele>14.3</ele>
        <time>2025-06-30T12:55:11Z</time>
      </trkpt>
      <trkpt lat="48.67016" lon="-3.84638">
        <ele>15</ele>
        <time>2025-06-30T12:55:12Z</time>
      </trkpt>
      <trkpt lat="48.67004" lon="-3.84656">
        <ele>16.4</ele>
        <time>2025-06-30T12:55:14Z</time>
      </trkpt>
      <trkpt lat="48.66991" lon="-3.84669">
        <ele>17.8</ele>
        <time>2025-06-30T12:55:16Z</time>
      </trkpt>
      <trkpt lat="48.6698" lon="-3.84681">
        <ele>19.2</ele>
        <time>2025-06-30T12:55:18Z</time>
      </trkpt>
      <trkpt lat="48.6697" lon="-3.8469">
        <ele>20.2</ele>
        <time>2025-06-30T12:55:20Z</time>
      </trkpt>
      <trkpt lat="48.66961" lon="-3.84697">
        <ele>21.1</ele>
        <time>2025-06-30T12:55:22Z</time>
      </trkpt>
      <trkpt lat="48.6695" lon="-3.84705">
        <ele>22.1</ele>
        <time>2025-06-30T12:55:25Z</time>
      </trkpt>
      <trkpt lat="48.66938" lon="-3.84711">
        <ele>22.7</ele>
        <time>2025-06-30T12:55:28Z</time>
      </trkpt>
      <trkpt lat="48.66925" lon="-3.84715">
        <ele>23.2</ele>
        <time>2025-06-30T12:55:31Z</time>
      </trkpt>
      <trkpt lat="48.66912" lon="-3.84718">
        <ele>23.4</ele>
        <time>2025-06-30T12:55:34Z</time>
      </trkpt>
      <trkpt lat="48.66903" lon="-3.84719">
        <ele>23.5</ele>
        <time>2025-06-30T12:55:36Z</time>
      </trkpt>
      <trkpt lat="48.66893" lon="-3.84717">
        <ele>23.3</ele>
        <time>2025-06-30T12:55:38Z</time>
      </trkpt>
      <trkpt lat="48.66882" lon="-3.84715">
        <ele>23</ele>
        <time>2025-06-30T12:55:40Z</time>
      </trkpt>
      <trkpt lat="48.6687" lon="-3.84712">
        <ele>22.6</ele>
        <time>2025-06-30T12:55:42Z</time>
      </trkpt>
      <trkpt lat="48.66857" lon="-3.84706">
        <ele>22</ele>
        <time>2025-06-30T12:55:44Z</time>
      </trkpt>
      <trkpt lat="48.66843" lon="-3.84699">
        <ele>21.2</ele>
        <time>2025-06-30T12:55:46Z</time>
      </trkpt>
      <trkpt lat="48.66828" lon="-3.84692">
        <ele>20.4</ele>
        <time>2025-06-30T12:55:48Z</time>
      </trkpt>
      <trkpt lat="48.66812" lon="-3.84683">
        <ele>19.6</ele>
        <time>2025-06-30T12:55:50Z</time>
      </trkpt>
      <trkpt lat="48.66804" lon="-3.84678">
        <ele>19.2</ele>
        <time>2025-06-30T12:55:51Z</time>
      </trkpt>
      <trkpt lat="48.66795" lon="-3.84673">
        <ele>18.9</ele>
        <time>2025-06-30T12:55:52Z</time>
      </trkpt>
      <trkpt lat="48.66787" lon="-3.84667">
        <ele>18.7</ele>
        <time>2025-06-30T12:55:53Z</time>
      </trkpt>
      <trkpt lat="48.66778" lon="-3.84662">
        <ele>18.7</ele>
        <time>2025-06-30T12:55:54Z</time>
      </trkpt>
      <trkpt lat="48.66769" lon="-3.84658">
        <ele>18.9</ele>
        <time>2025-06-30T12:55:55Z</time>
      </trkpt>
      <trkpt lat="48.6676" lon="-3.84653">
        <ele>19.1</ele>
        <time>2025-06-30T12:55:56Z</time>
      </trkpt>
      <trkpt lat="48.66744" lon="-3.84644">
        <ele>19.7</ele>
        <time>2025-06-30T12:55:58Z</time>
      </trkpt>
      <trkpt lat="48.66729" lon="-3.84637">
        <ele>20.4</ele>
        <time>2025-06-30T12:56:00Z</time>
      </trkpt>
      <trkpt lat="48.66715" lon="-3.84629">
        <ele>21</ele>
        <time>2025-06-30T12:56:02Z</time>
      </trkpt>
      <trkpt lat="48.66702" lon="-3.84626">
        <ele>21.6</ele>
        <time>2025-06-30T12:56:04Z</time>
      </trkpt>
      <trkpt lat="48.66689" lon="-3.84622">
        <ele>22</ele>
        <time>2025-06-30T12:56:06Z</time>
      </trkpt>
      <trkpt lat="48.66677" lon="-3.84618">
        <ele>22.2</ele>
        <time>2025-06-30T12:56:08Z</time>
      </trkpt>
      <trkpt lat="48.66666" lon="-3.84614">
        <ele>22.1</ele>
        <time>2025-06-30T12:56:10Z</time>
      </trkpt>
      <trkpt lat="48.66653" lon="-3.84614">
        <ele>21.7</ele>
        <time>2025-06-30T12:56:12Z</time>
      </trkpt>
      <trkpt lat="48.6664" lon="-3.84611">
        <ele>21.2</ele>
        <time>2025-06-30T12:56:14Z</time>
      </trkpt>
      <trkpt lat="48.66626" lon="-3.84608">
        <ele>20.5</ele>
        <time>2025-06-30T12:56:16Z</time>
      </trkpt>
      <trkpt lat="48.66611" lon="-3.84605">
        <ele>19.7</ele>
        <time>2025-06-30T12:56:18Z</time>
      </trkpt>
      <trkpt lat="48.66594" lon="-3.84603">
        <ele>18.9</ele>
        <time>2025-06-30T12:56:20Z</time>
      </trkpt>
      <trkpt lat="48.66577" lon="-3.846">
        <ele>18.1</ele>
        <time>2025-06-30T12:56:22Z</time>
      </trkpt>
      <trkpt lat="48.66568" lon="-3.84598">
        <ele>17.7</ele>
        <time>2025-06-30T12:56:23Z</time>
      </trkpt>
      <trkpt lat="48.66558" lon="-3.84596">
        <ele>17.4</ele>
        <time>2025-06-30T12:56:24Z</time>
      </trkpt>
      <trkpt lat="48.66549" lon="-3.84594">
        <ele>17</ele>
        <time>2025-06-30T12:56:25Z</time>
      </trkpt>
      <trkpt lat="48.6654" lon="-3.84593">
        <ele>16.6</ele>
        <time>2025-06-30T12:56:26Z</time>
      </trkpt>
      <trkpt lat="48.6653" lon="-3.84591">
        <ele>16.2</ele>
        <time>2025-06-30T12:56:27Z</time>
      </trkpt>
      <trkpt lat="48.6652" lon="-3.8459">
        <ele>15.9</ele>
        <time>2025-06-30T12:56:28Z</time>
      </trkpt>
      <trkpt lat="48.6651" lon="-3.84588">
        <ele>15.5</ele>
        <time>2025-06-30T12:56:29Z</time>
      </trkpt>
      <trkpt lat="48.665" lon="-3.84585">
        <ele>15.2</ele>
        <time>2025-06-30T12:56:30Z</time>
      </trkpt>
      <trkpt lat="48.66489" lon="-3.84584">
        <ele>14.8</ele>
        <time>2025-06-30T12:56:31Z</time>
      </trkpt>
      <trkpt lat="48.66479" lon="-3.84582">
        <ele>14.5</ele>
        <time>2025-06-30T12:56:32Z</time>
      </trkpt>
      <trkpt lat="48.66468" lon="-3.8458">
        <ele>14.2</ele>
        <time>2025-06-30T12:56:33Z</time>
      </trkpt>
      <trkpt lat="48.66456" lon="-3.84578">
        <ele>13.9</ele>
        <time>2025-06-30T12:56:34Z</time>
      </trkpt>
      <trkpt lat="48.66445" lon="-3.84577">
        <ele>13.6</ele>
        <time>2025-06-30T12:56:35Z</time>
      </trkpt>
      <trkpt lat="48.66434" lon="-3.84575">
        <ele>13.3</ele>
        <time>2025-06-30T12:56:36Z</time>
      </trkpt>
      <trkpt lat="48.66422" lon="-3.84573">
        <ele>13</ele>
        <time>2025-06-30T12:56:37Z</time>
      </trkpt>
      <trkpt lat="48.66411" lon="-3.8457">
        <ele>12.7</ele>
        <time>2025-06-30T12:56:38Z</time>
      </trkpt>
      <trkpt lat="48.66399" lon="-3.84568">
        <ele>12.4</ele>
        <time>2025-06-30T12:56:39Z</time>
      </trkpt>
      <trkpt lat="48.66388" lon="-3.84566">
        <ele>12.1</ele>
        <time>2025-06-30T12:56:40Z</time>
      </trkpt>
      <trkpt lat="48.66376" lon="-3.84564">
        <ele>11.8</ele>
        <time>2025-06-30T12:56:41Z</time>
      </trkpt>
      <trkpt lat="48.66365" lon="-3.84562">
        <ele>11.5</ele>
        <time>2025-06-30T12:56:42Z</time>
      </trkpt>
      <trkpt lat="48.66353" lon="-3.8456">
        <ele>11.2</ele>
        <time>2025-06-30T12:56:43Z</time>
      </trkpt>
      <trkpt lat="48.66342" lon="-3.84558">
        <ele>11</ele>
        <time>2025-06-30T12:56:44Z</time>
      </trkpt>
      <trkpt lat="48.6633" lon="-3.84556">
        <ele>10.7</ele>
        <time>2025-06-30T12:56:45Z</time>
      </trkpt>
      <trkpt lat="48.66319" lon="-3.84554">
        <ele>10.3</ele>
        <time>2025-06-30T12:56:46Z</time>
      </trkpt>
      <trkpt lat="48.66307" lon="-3.84552">
        <ele>10</ele>
        <time>2025-06-30T12:56:47Z</time>
      </trkpt>
      <trkpt lat="48.66295" lon="-3.8455">
        <ele>9.7</ele>
        <time>2025-06-30T12:56:48Z</time>
      </trkpt>
      <trkpt lat="48.66284" lon="-3.84547">
        <ele>9.4</ele>
        <time>2025-06-30T12:56:49Z</time>
      </trkpt>
      <trkpt lat="48.66272" lon="-3.84545">
        <ele>9.1</ele>
        <time>2025-06-30T12:56:50Z</time>
      </trkpt>
      <trkpt lat="48.66261" lon="-3.84543">
        <ele>8.8</ele>
        <time>2025-06-30T12:56:51Z</time>
      </trkpt>
      <trkpt lat="48.66249" lon="-3.84541">
        <ele>8.4</ele>
        <time>2025-06-30T12:56:52Z</time>
      </trkpt>
      <trkpt lat="48.66237" lon="-3.84539">
        <ele>8.1</ele>
        <time>2025-06-30T12:56:53Z</time>
      </trkpt>
      <trkpt lat="48.66225" lon="-3.84537">
        <ele>7.8</ele>
        <time>2025-06-30T12:56:54Z</time>
      </trkpt>
      <trkpt lat="48.66214" lon="-3.84534">
        <ele>7.6</ele>
        <time>2025-06-30T12:56:55Z</time>
      </trkpt>
      <trkpt lat="48.66202" lon="-3.84531">
        <ele>7.4</ele>
        <time>2025-06-30T12:56:56Z</time>
      </trkpt>
      <trkpt lat="48.66191" lon="-3.8453">
        <ele>7.1</ele>
        <time>2025-06-30T12:56:57Z</time>
      </trkpt>
      <trkpt lat="48.66179" lon="-3.84529">
        <ele>6.9</ele>
        <time>2025-06-30T12:56:58Z</time>
      </trkpt>
      <trkpt lat="48.66167" lon="-3.84528">
        <ele>6.8</ele>
        <time>2025-06-30T12:56:59Z</time>
      </trkpt>
      <trkpt lat="48.66156" lon="-3.84528">
        <ele>6.7</ele>
        <time>2025-06-30T12:57:00Z</time>
      </trkpt>
      <trkpt lat="48.66144" lon="-3.84527">
        <ele>6.6</ele>
        <time>2025-06-30T12:57:01Z</time>
      </trkpt>
      <trkpt lat="48.66133" lon="-3.84526">
        <ele>6.6</ele>
        <time>2025-06-30T12:57:02Z</time>
      </trkpt>
      <trkpt lat="48.66122" lon="-3.84526">
        <ele>6.6</ele>
        <time>2025-06-30T12:57:03Z</time>
      </trkpt>
      <trkpt lat="48.66111" lon="-3.84528">
        <ele>6.5</ele>
        <time>2025-06-30T12:57:04Z</time>
      </trkpt>
      <trkpt lat="48.66101" lon="-3.84531">
        <ele>6.4</ele>
        <time>2025-06-30T12:57:05Z</time>
      </trkpt>
      <trkpt lat="48.6609" lon="-3.84535">
        <ele>6.3</ele>
        <time>2025-06-30T12:57:06Z</time>
      </trkpt>
      <trkpt lat="48.6608" lon="-3.84539">
        <ele>6.3</ele>
        <time>2025-06-30T12:57:07Z</time>
      </trkpt>
      <trkpt lat="48.66071" lon="-3.84543">
        <ele>6.2</ele>
        <time>2025-06-30T12:57:08Z</time>
      </trkpt>
      <trkpt lat="48.66061" lon="-3.84549">
        <ele>6.2</ele>
        <time>2025-06-30T12:57:09Z</time>
      </trkpt>
      <trkpt lat="48.66052" lon="-3.84557">
        <ele>6.1</ele>
        <time>2025-06-30T12:57:10Z</time>
      </trkpt>
      <trkpt lat="48.66044" lon="-3.84566">
        <ele>6.1</ele>
        <time>2025-06-30T12:57:11Z</time>
      </trkpt>
      <trkpt lat="48.66037" lon="-3.84575">
        <ele>6.1</ele>
        <time>2025-06-30T12:57:12Z</time>
      </trkpt>
      <trkpt lat="48.6603" lon="-3.84585">
        <ele>6.1</ele>
        <time>2025-06-30T12:57:13Z</time>
      </trkpt>
      <trkpt lat="48.66023" lon="-3.84595">
        <ele>6.2</ele>
        <time>2025-06-30T12:57:14Z</time>
      </trkpt>
      <trkpt lat="48.66016" lon="-3.84606">
        <ele>6.2</ele>
        <time>2025-06-30T12:57:15Z</time>
      </trkpt>
      <trkpt lat="48.6601" lon="-3.84617">
        <ele>6.2</ele>
        <time>2025-06-30T12:57:16Z</time>
      </trkpt>
      <trkpt lat="48.66005" lon="-3.84629">
        <ele>6.2</ele>
        <time>2025-06-30T12:57:17Z</time>
      </trkpt>
      <trkpt lat="48.65996" lon="-3.84652">
        <ele>6.2</ele>
        <time>2025-06-30T12:57:19Z</time>
      </trkpt>
      <trkpt lat="48.65989" lon="-3.84676">
        <ele>6.3</ele>
        <time>2025-06-30T12:57:21Z</time>
      </trkpt>
      <trkpt lat="48.65985" lon="-3.84701">
        <ele>6.3</ele>
        <time>2025-06-30T12:57:23Z</time>
      </trkpt>
      <trkpt lat="48.65982" lon="-3.84726">
        <ele>6.2</ele>
        <time>2025-06-30T12:57:25Z</time>
      </trkpt>
      <trkpt lat="48.65981" lon="-3.8475">
        <ele>6.1</ele>
        <time>2025-06-30T12:57:27Z</time>
      </trkpt>
      <trkpt lat="48.65981" lon="-3.84774">
        <ele>6</ele>
        <time>2025-06-30T12:57:29Z</time>
      </trkpt>
      <trkpt lat="48.6598" lon="-3.84798">
        <ele>6</ele>
        <time>2025-06-30T12:57:31Z</time>
      </trkpt>
      <trkpt lat="48.6598" lon="-3.84822">
        <ele>6</ele>
        <time>2025-06-30T12:57:33Z</time>
      </trkpt>
      <trkpt lat="48.65979" lon="-3.84845">
        <ele>5.9</ele>
        <time>2025-06-30T12:57:35Z</time>
      </trkpt>
      <trkpt lat="48.65978" lon="-3.84868">
        <ele>5.9</ele>
        <time>2025-06-30T12:57:37Z</time>
      </trkpt>
      <trkpt lat="48.65977" lon="-3.84889">
        <ele>5.9</ele>
        <time>2025-06-30T12:57:39Z</time>
      </trkpt>
      <trkpt lat="48.65977" lon="-3.84911">
        <ele>5.9</ele>
        <time>2025-06-30T12:57:41Z</time>
      </trkpt>
      <trkpt lat="48.65974" lon="-3.84931">
        <ele>6</ele>
        <time>2025-06-30T12:57:43Z</time>
      </trkpt>
      <trkpt lat="48.65971" lon="-3.8495">
        <ele>6.1</ele>
        <time>2025-06-30T12:57:45Z</time>
      </trkpt>
      <trkpt lat="48.65968" lon="-3.84967">
        <ele>6.3</ele>
        <time>2025-06-30T12:57:47Z</time>
      </trkpt>
      <trkpt lat="48.65963" lon="-3.84984">
        <ele>6.6</ele>
        <time>2025-06-30T12:57:49Z</time>
      </trkpt>
      <trkpt lat="48.65958" lon="-3.84998">
        <ele>7</ele>
        <time>2025-06-30T12:57:51Z</time>
      </trkpt>
      <trkpt lat="48.65953" lon="-3.85012">
        <ele>7.3</ele>
        <time>2025-06-30T12:57:53Z</time>
      </trkpt>
      <trkpt lat="48.65947" lon="-3.85025">
        <ele>7.7</ele>
        <time>2025-06-30T12:57:55Z</time>
      </trkpt>
      <trkpt lat="48.65942" lon="-3.85038">
        <ele>8.2</ele>
        <time>2025-06-30T12:57:57Z</time>
      </trkpt>
      <trkpt lat="48.65935" lon="-3.85049">
        <ele>8.6</ele>
        <time>2025-06-30T12:57:59Z</time>
      </trkpt>
      <trkpt lat="48.65928" lon="-3.85059">
        <ele>8.9</ele>
        <time>2025-06-30T12:58:01Z</time>
      </trkpt>
      <trkpt lat="48.6592" lon="-3.85071">
        <ele>9</ele>
        <time>2025-06-30T12:58:04Z</time>
      </trkpt>
      <trkpt lat="48.65912" lon="-3.85081">
        <ele>9.5</ele>
        <time>2025-06-30T12:58:07Z</time>
      </trkpt>
      <trkpt lat="48.65904" lon="-3.8509">
        <ele>10.1</ele>
        <time>2025-06-30T12:58:10Z</time>
      </trkpt>
      <trkpt lat="48.65896" lon="-3.85098">
        <ele>10.7</ele>
        <time>2025-06-30T12:58:13Z</time>
      </trkpt>
      <trkpt lat="48.65886" lon="-3.85107">
        <ele>11.6</ele>
        <time>2025-06-30T12:58:17Z</time>
      </trkpt>
      <trkpt lat="48.65875" lon="-3.85113">
        <ele>12.5</ele>
        <time>2025-06-30T12:58:21Z</time>
      </trkpt>
      <trkpt lat="48.65865" lon="-3.8512">
        <ele>13.4</ele>
        <time>2025-06-30T12:58:25Z</time>
      </trkpt>
      <trkpt lat="48.65854" lon="-3.85124">
        <ele>14.4</ele>
        <time>2025-06-30T12:58:29Z</time>
      </trkpt>
      <trkpt lat="48.65843" lon="-3.85128">
        <ele>15.3</ele>
        <time>2025-06-30T12:58:33Z</time>
      </trkpt>
      <trkpt lat="48.65832" lon="-3.85132">
        <ele>16.3</ele>
        <time>2025-06-30T12:58:37Z</time>
      </trkpt>
      <trkpt lat="48.65821" lon="-3.85134">
        <ele>17.4</ele>
        <time>2025-06-30T12:58:41Z</time>
      </trkpt>
      <trkpt lat="48.6581" lon="-3.85135">
        <ele>18.4</ele>
        <time>2025-06-30T12:58:45Z</time>
      </trkpt>
      <trkpt lat="48.65799" lon="-3.85136">
        <ele>19.4</ele>
        <time>2025-06-30T12:58:49Z</time>
      </trkpt>
      <trkpt lat="48.65788" lon="-3.85135">
        <ele>20.3</ele>
        <time>2025-06-30T12:58:53Z</time>
      </trkpt>
      <trkpt lat="48.65777" lon="-3.85131">
        <ele>21.2</ele>
        <time>2025-06-30T12:58:57Z</time>
      </trkpt>
      <trkpt lat="48.65766" lon="-3.85127">
        <ele>22.1</ele>
        <time>2025-06-30T12:59:01Z</time>
      </trkpt>
      <trkpt lat="48.65756" lon="-3.85121">
        <ele>23</ele>
        <time>2025-06-30T12:59:05Z</time>
      </trkpt>
      <trkpt lat="48.65745" lon="-3.85114">
        <ele>23.9</ele>
        <time>2025-06-30T12:59:09Z</time>
      </trkpt>
      <trkpt lat="48.65735" lon="-3.85108">
        <ele>24.9</ele>
        <time>2025-06-30T12:59:13Z</time>
      </trkpt>
      <trkpt lat="48.65725" lon="-3.85102">
        <ele>25.9</ele>
        <time>2025-06-30T12:59:17Z</time>
      </trkpt>
      <trkpt lat="48.65715" lon="-3.85096">
        <ele>26.9</ele>
        <time>2025-06-30T12:59:21Z</time>
      </trkpt>
      <trkpt lat="48.65705" lon="-3.8509">
        <ele>28</ele>
        <time>2025-06-30T12:59:25Z</time>
      </trkpt>
      <trkpt lat="48.65696" lon="-3.85085">
        <ele>29</ele>
        <time>2025-06-30T12:59:29Z</time>
      </trkpt>
      <trkpt lat="48.65686" lon="-3.85081">
        <ele>30.1</ele>
        <time>2025-06-30T12:59:33Z</time>
      </trkpt>
      <trkpt lat="48.65677" lon="-3.85078">
        <ele>31.1</ele>
        <time>2025-06-30T12:59:37Z</time>
      </trkpt>
      <trkpt lat="48.65668" lon="-3.85075">
        <ele>32.1</ele>
        <time>2025-06-30T12:59:42Z</time>
      </trkpt>
      <trkpt lat="48.65657" lon="-3.8507">
        <ele>33.3</ele>
        <time>2025-06-30T12:59:48Z</time>
      </trkpt>
      <trkpt lat="48.65647" lon="-3.85069">
        <ele>34.3</ele>
        <time>2025-06-30T12:59:53Z</time>
      </trkpt>
      <trkpt lat="48.65637" lon="-3.85065">
        <ele>35.3</ele>
        <time>2025-06-30T12:59:58Z</time>
      </trkpt>
      <trkpt lat="48.65627" lon="-3.85061">
        <ele>36.3</ele>
        <time>2025-06-30T13:00:03Z</time>
      </trkpt>
      <trkpt lat="48.65618" lon="-3.85056">
        <ele>37.3</ele>
        <time>2025-06-30T13:00:08Z</time>
      </trkpt>
      <trkpt lat="48.65608" lon="-3.8505">
        <ele>38.3</ele>
        <time>2025-06-30T13:00:13Z</time>
      </trkpt>
      <trkpt lat="48.65599" lon="-3.85042">
        <ele>39.2</ele>
        <time>2025-06-30T13:00:18Z</time>
      </trkpt>
      <trkpt lat="48.65589" lon="-3.85033">
        <ele>40.1</ele>
        <time>2025-06-30T13:00:23Z</time>
      </trkpt>
      <trkpt lat="48.65582" lon="-3.85025">
        <ele>40.8</ele>
        <time>2025-06-30T13:00:27Z</time>
      </trkpt>
      <trkpt lat="48.65573" lon="-3.85015">
        <ele>41.6</ele>
        <time>2025-06-30T13:00:31Z</time>
      </trkpt>
      <trkpt lat="48.65566" lon="-3.85003">
        <ele>42.2</ele>
        <time>2025-06-30T13:00:34Z</time>
      </trkpt>
      <trkpt lat="48.6556" lon="-3.84992">
        <ele>42.7</ele>
        <time>2025-06-30T13:00:37Z</time>
      </trkpt>
      <trkpt lat="48.65553" lon="-3.8498">
        <ele>43.3</ele>
        <time>2025-06-30T13:00:40Z</time>
      </trkpt>
      <trkpt lat="48.65547" lon="-3.84967">
        <ele>43.8</ele>
        <time>2025-06-30T13:00:43Z</time>
      </trkpt>
      <trkpt lat="48.65542" lon="-3.84954">
        <ele>44.3</ele>
        <time>2025-06-30T13:00:46Z</time>
      </trkpt>
      <trkpt lat="48.65536" lon="-3.84942">
        <ele>44.9</ele>
        <time>2025-06-30T13:00:49Z</time>
      </trkpt>
      <trkpt lat="48.6553" lon="-3.84929">
        <ele>45.4</ele>
        <time>2025-06-30T13:00:52Z</time>
      </trkpt>
      <trkpt lat="48.65523" lon="-3.84917">
        <ele>46</ele>
        <time>2025-06-30T13:00:55Z</time>
      </trkpt>
      <trkpt lat="48.65516" lon="-3.84905">
        <ele>46.5</ele>
        <time>2025-06-30T13:00:58Z</time>
      </trkpt>
      <trkpt lat="48.65509" lon="-3.84893">
        <ele>47</ele>
        <time>2025-06-30T13:01:01Z</time>
      </trkpt>
      <trkpt lat="48.65501" lon="-3.84882">
        <ele>47.5</ele>
        <time>2025-06-30T13:01:04Z</time>
      </trkpt>
      <trkpt lat="48.65493" lon="-3.84871">
        <ele>47.9</ele>
        <time>2025-06-30T13:01:07Z</time>
      </trkpt>
      <trkpt lat="48.65484" lon="-3.84862">
        <ele>48.4</ele>
        <time>2025-06-30T13:01:10Z</time>
      </trkpt>
      <trkpt lat="48.65476" lon="-3.84853">
        <ele>48.9</ele>
        <time>2025-06-30T13:01:13Z</time>
      </trkpt>
      <trkpt lat="48.65467" lon="-3.84844">
        <ele>49.4</ele>
        <time>2025-06-30T13:01:16Z</time>
      </trkpt>
      <trkpt lat="48.65457" lon="-3.84839">
        <ele>49.8</ele>
        <time>2025-06-30T13:01:20Z</time>
      </trkpt>
      <trkpt lat="48.65449" lon="-3.84827">
        <ele>50.2</ele>
        <time>2025-06-30T13:01:24Z</time>
      </trkpt>
      <trkpt lat="48.65437" lon="-3.84817">
        <ele>50.7</ele>
        <time>2025-06-30T13:01:27Z</time>
      </trkpt>
      <trkpt lat="48.65429" lon="-3.84811">
        <ele>51</ele>
        <time>2025-06-30T13:01:29Z</time>
      </trkpt>
      <trkpt lat="48.65412" lon="-3.84798">
        <ele>51.5</ele>
        <time>2025-06-30T13:01:33Z</time>
      </trkpt>
      <trkpt lat="48.654" lon="-3.84789">
        <ele>51.8</ele>
        <time>2025-06-30T13:01:36Z</time>
      </trkpt>
      <trkpt lat="48.65388" lon="-3.84779">
        <ele>52</ele>
        <time>2025-06-30T13:01:39Z</time>
      </trkpt>
      <trkpt lat="48.65377" lon="-3.8477">
        <ele>52.4</ele>
        <time>2025-06-30T13:01:42Z</time>
      </trkpt>
      <trkpt lat="48.65365" lon="-3.8476">
        <ele>52.8</ele>
        <time>2025-06-30T13:01:45Z</time>
      </trkpt>
      <trkpt lat="48.65355" lon="-3.84749">
        <ele>53.2</ele>
        <time>2025-06-30T13:01:48Z</time>
      </trkpt>
      <trkpt lat="48.65344" lon="-3.84738">
        <ele>53.7</ele>
        <time>2025-06-30T13:01:51Z</time>
      </trkpt>
      <trkpt lat="48.65335" lon="-3.84732">
        <ele>54.1</ele>
        <time>2025-06-30T13:01:53Z</time>
      </trkpt>
      <trkpt lat="48.65323" lon="-3.84724">
        <ele>54.6</ele>
        <time>2025-06-30T13:01:56Z</time>
      </trkpt>
      <trkpt lat="48.65311" lon="-3.84708">
        <ele>55.2</ele>
        <time>2025-06-30T13:02:00Z</time>
      </trkpt>
      <trkpt lat="48.65302" lon="-3.84699">
        <ele>55.6</ele>
        <time>2025-06-30T13:02:02Z</time>
      </trkpt>
      <trkpt lat="48.65294" lon="-3.84691">
        <ele>55.9</ele>
        <time>2025-06-30T13:02:05Z</time>
      </trkpt>
      <trkpt lat="48.65283" lon="-3.84681">
        <ele>56.3</ele>
        <time>2025-06-30T13:02:07Z</time>
      </trkpt>
      <trkpt lat="48.65275" lon="-3.84674">
        <ele>56.5</ele>
        <time>2025-06-30T13:02:09Z</time>
      </trkpt>
      <trkpt lat="48.65267" lon="-3.84666">
        <ele>56.8</ele>
        <time>2025-06-30T13:02:11Z</time>
      </trkpt>
      <trkpt lat="48.65258" lon="-3.84658">
        <ele>57</ele>
        <time>2025-06-30T13:02:13Z</time>
      </trkpt>
      <trkpt lat="48.65249" lon="-3.84649">
        <ele>57.3</ele>
        <time>2025-06-30T13:02:15Z</time>
      </trkpt>
      <trkpt lat="48.6524" lon="-3.84641">
        <ele>57.5</ele>
        <time>2025-06-30T13:02:17Z</time>
      </trkpt>
      <trkpt lat="48.65231" lon="-3.84632">
        <ele>57.6</ele>
        <time>2025-06-30T13:02:19Z</time>
      </trkpt>
      <trkpt lat="48.65222" lon="-3.84623">
        <ele>57.8</ele>
        <time>2025-06-30T13:02:21Z</time>
      </trkpt>
      <trkpt lat="48.65213" lon="-3.84614">
        <ele>57.9</ele>
        <time>2025-06-30T13:02:23Z</time>
      </trkpt>
      <trkpt lat="48.65204" lon="-3.84604">
        <ele>58</ele>
        <time>2025-06-30T13:02:25Z</time>
      </trkpt>
      <trkpt lat="48.65195" lon="-3.84595">
        <ele>58.2</ele>
        <time>2025-06-30T13:02:27Z</time>
      </trkpt>
      <trkpt lat="48.65185" lon="-3.84586">
        <ele>58.3</ele>
        <time>2025-06-30T13:02:29Z</time>
      </trkpt>
      <trkpt lat="48.65176" lon="-3.84576">
        <ele>58.4</ele>
        <time>2025-06-30T13:02:31Z</time>
      </trkpt>
      <trkpt lat="48.65166" lon="-3.84567">
        <ele>58.6</ele>
        <time>2025-06-30T13:02:33Z</time>
      </trkpt>
      <trkpt lat="48.65156" lon="-3.84558">
        <ele>58.7</ele>
        <time>2025-06-30T13:02:35Z</time>
      </trkpt>
      <trkpt lat="48.65146" lon="-3.84548">
        <ele>58.8</ele>
        <time>2025-06-30T13:02:37Z</time>
      </trkpt>
      <trkpt lat="48.65136" lon="-3.84538">
        <ele>58.9</ele>
        <time>2025-06-30T13:02:39Z</time>
      </trkpt>
      <trkpt lat="48.65126" lon="-3.84529">
        <ele>59</ele>
        <time>2025-06-30T13:02:41Z</time>
      </trkpt>
      <trkpt lat="48.65116" lon="-3.84519">
        <ele>59.1</ele>
        <time>2025-06-30T13:02:43Z</time>
      </trkpt>
      <trkpt lat="48.65106" lon="-3.84509">
        <ele>59.2</ele>
        <time>2025-06-30T13:02:45Z</time>
      </trkpt>
      <trkpt lat="48.65096" lon="-3.84499">
        <ele>59.2</ele>
        <time>2025-06-30T13:02:47Z</time>
      </trkpt>
      <trkpt lat="48.65086" lon="-3.84487">
        <ele>59.3</ele>
        <time>2025-06-30T13:02:49Z</time>
      </trkpt>
      <trkpt lat="48.65076" lon="-3.84475">
        <ele>59.3</ele>
        <time>2025-06-30T13:02:51Z</time>
      </trkpt>
      <trkpt lat="48.65066" lon="-3.8446">
        <ele>59.3</ele>
        <time>2025-06-30T13:02:53Z</time>
      </trkpt>
      <trkpt lat="48.65056" lon="-3.84449">
        <ele>59.3</ele>
        <time>2025-06-30T13:02:55Z</time>
      </trkpt>
      <trkpt lat="48.65046" lon="-3.84434">
        <ele>59.4</ele>
        <time>2025-06-30T13:02:57Z</time>
      </trkpt>
      <trkpt lat="48.65037" lon="-3.8442">
        <ele>59.6</ele>
        <time>2025-06-30T13:02:59Z</time>
      </trkpt>
      <trkpt lat="48.65028" lon="-3.84405">
        <ele>59.8</ele>
        <time>2025-06-30T13:03:01Z</time>
      </trkpt>
      <trkpt lat="48.6502" lon="-3.84389">
        <ele>60</ele>
        <time>2025-06-30T13:03:03Z</time>
      </trkpt>
      <trkpt lat="48.65013" lon="-3.84373">
        <ele>60.2</ele>
        <time>2025-06-30T13:03:05Z</time>
      </trkpt>
      <trkpt lat="48.65006" lon="-3.84356">
        <ele>60.4</ele>
        <time>2025-06-30T13:03:07Z</time>
      </trkpt>
      <trkpt lat="48.65" lon="-3.8434">
        <ele>60.7</ele>
        <time>2025-06-30T13:03:09Z</time>
      </trkpt>
      <trkpt lat="48.64993" lon="-3.84323">
        <ele>61</ele>
        <time>2025-06-30T13:03:11Z</time>
      </trkpt>
      <trkpt lat="48.64987" lon="-3.84306">
        <ele>61.3</ele>
        <time>2025-06-30T13:03:13Z</time>
      </trkpt>
      <trkpt lat="48.64982" lon="-3.84289">
        <ele>61.6</ele>
        <time>2025-06-30T13:03:15Z</time>
      </trkpt>
      <trkpt lat="48.64976" lon="-3.84273">
        <ele>61.9</ele>
        <time>2025-06-30T13:03:17Z</time>
      </trkpt>
      <trkpt lat="48.6497" lon="-3.84256">
        <ele>62.1</ele>
        <time>2025-06-30T13:03:19Z</time>
      </trkpt>
      <trkpt lat="48.64964" lon="-3.8424">
        <ele>62.3</ele>
        <time>2025-06-30T13:03:21Z</time>
      </trkpt>
      <trkpt lat="48.64958" lon="-3.84224">
        <ele>62.5</ele>
        <time>2025-06-30T13:03:23Z</time>
      </trkpt>
      <trkpt lat="48.64952" lon="-3.84208">
        <ele>62.7</ele>
        <time>2025-06-30T13:03:25Z</time>
      </trkpt>
      <trkpt lat="48.64946" lon="-3.84193">
        <ele>62.9</ele>
        <time>2025-06-30T13:03:27Z</time>
      </trkpt>
      <trkpt lat="48.64939" lon="-3.84178">
        <ele>63</ele>
        <time>2025-06-30T13:03:29Z</time>
      </trkpt>
      <trkpt lat="48.64932" lon="-3.84163">
        <ele>63.1</ele>
        <time>2025-06-30T13:03:31Z</time>
      </trkpt>
      <trkpt lat="48.64925" lon="-3.84147">
        <ele>63.2</ele>
        <time>2025-06-30T13:03:33Z</time>
      </trkpt>
      <trkpt lat="48.64918" lon="-3.84132">
        <ele>63.4</ele>
        <time>2025-06-30T13:03:35Z</time>
      </trkpt>
      <trkpt lat="48.64912" lon="-3.84116">
        <ele>63.4</ele>
        <time>2025-06-30T13:03:37Z</time>
      </trkpt>
      <trkpt lat="48.64904" lon="-3.84102">
        <ele>63.5</ele>
        <time>2025-06-30T13:03:39Z</time>
      </trkpt>
      <trkpt lat="48.64896" lon="-3.84087">
        <ele>63.5</ele>
        <time>2025-06-30T13:03:41Z</time>
      </trkpt>
      <trkpt lat="48.64888" lon="-3.84071">
        <ele>63.4</ele>
        <time>2025-06-30T13:03:43Z</time>
      </trkpt>
      <trkpt lat="48.6488" lon="-3.84056">
        <ele>63.3</ele>
        <time>2025-06-30T13:03:45Z</time>
      </trkpt>
      <trkpt lat="48.64872" lon="-3.8404">
        <ele>63.2</ele>
        <time>2025-06-30T13:03:47Z</time>
      </trkpt>
      <trkpt lat="48.64863" lon="-3.84024">
        <ele>63</ele>
        <time>2025-06-30T13:03:49Z</time>
      </trkpt>
      <trkpt lat="48.64855" lon="-3.84008">
        <ele>62.8</ele>
        <time>2025-06-30T13:03:51Z</time>
      </trkpt>
      <trkpt lat="48.64847" lon="-3.83991">
        <ele>62.5</ele>
        <time>2025-06-30T13:03:53Z</time>
      </trkpt>
      <trkpt lat="48.64837" lon="-3.83975">
        <ele>62.2</ele>
        <time>2025-06-30T13:03:55Z</time>
      </trkpt>
      <trkpt lat="48.64829" lon="-3.83958">
        <ele>61.8</ele>
        <time>2025-06-30T13:03:57Z</time>
      </trkpt>
      <trkpt lat="48.64821" lon="-3.83939">
        <ele>61.4</ele>
        <time>2025-06-30T13:03:59Z</time>
      </trkpt>
      <trkpt lat="48.64813" lon="-3.83918">
        <ele>61</ele>
        <time>2025-06-30T13:04:01Z</time>
      </trkpt>
      <trkpt lat="48.64805" lon="-3.83898">
        <ele>60.8</ele>
        <time>2025-06-30T13:04:03Z</time>
      </trkpt>
      <trkpt lat="48.64798" lon="-3.83876">
        <ele>60.6</ele>
        <time>2025-06-30T13:04:05Z</time>
      </trkpt>
      <trkpt lat="48.64791" lon="-3.83855">
        <ele>60.4</ele>
        <time>2025-06-30T13:04:07Z</time>
      </trkpt>
      <trkpt lat="48.64786" lon="-3.83832">
        <ele>60.3</ele>
        <time>2025-06-30T13:04:09Z</time>
      </trkpt>
      <trkpt lat="48.64781" lon="-3.83808">
        <ele>60.4</ele>
        <time>2025-06-30T13:04:11Z</time>
      </trkpt>
      <trkpt lat="48.64776" lon="-3.83785">
        <ele>60.6</ele>
        <time>2025-06-30T13:04:13Z</time>
      </trkpt>
      <trkpt lat="48.64772" lon="-3.83762">
        <ele>60.9</ele>
        <time>2025-06-30T13:04:15Z</time>
      </trkpt>
      <trkpt lat="48.64768" lon="-3.8374">
        <ele>61.3</ele>
        <time>2025-06-30T13:04:17Z</time>
      </trkpt>
      <trkpt lat="48.64764" lon="-3.83719">
        <ele>61.7</ele>
        <time>2025-06-30T13:04:19Z</time>
      </trkpt>
      <trkpt lat="48.64761" lon="-3.83698">
        <ele>62.1</ele>
        <time>2025-06-30T13:04:21Z</time>
      </trkpt>
      <trkpt lat="48.64757" lon="-3.83678">
        <ele>62.6</ele>
        <time>2025-06-30T13:04:23Z</time>
      </trkpt>
      <trkpt lat="48.64755" lon="-3.83659">
        <ele>63.1</ele>
        <time>2025-06-30T13:04:25Z</time>
      </trkpt>
      <trkpt lat="48.64752" lon="-3.8364">
        <ele>63.6</ele>
        <time>2025-06-30T13:04:27Z</time>
      </trkpt>
      <trkpt lat="48.64749" lon="-3.83622">
        <ele>64</ele>
        <time>2025-06-30T13:04:29Z</time>
      </trkpt>
      <trkpt lat="48.64746" lon="-3.83605">
        <ele>64.3</ele>
        <time>2025-06-30T13:04:31Z</time>
      </trkpt>
      <trkpt lat="48.64743" lon="-3.83587">
        <ele>64.6</ele>
        <time>2025-06-30T13:04:33Z</time>
      </trkpt>
      <trkpt lat="48.6474" lon="-3.83569">
        <ele>64.8</ele>
        <time>2025-06-30T13:04:35Z</time>
      </trkpt>
      <trkpt lat="48.64737" lon="-3.83551">
        <ele>65</ele>
        <time>2025-06-30T13:04:37Z</time>
      </trkpt>
      <trkpt lat="48.64734" lon="-3.83532">
        <ele>65.1</ele>
        <time>2025-06-30T13:04:39Z</time>
      </trkpt>
      <trkpt lat="48.6473" lon="-3.83514">
        <ele>65.2</ele>
        <time>2025-06-30T13:04:41Z</time>
      </trkpt>
      <trkpt lat="48.64725" lon="-3.83495">
        <ele>65.3</ele>
        <time>2025-06-30T13:04:43Z</time>
      </trkpt>
      <trkpt lat="48.6472" lon="-3.83477">
        <ele>65.4</ele>
        <time>2025-06-30T13:04:45Z</time>
      </trkpt>
      <trkpt lat="48.64714" lon="-3.83459">
        <ele>65.5</ele>
        <time>2025-06-30T13:04:47Z</time>
      </trkpt>
      <trkpt lat="48.64707" lon="-3.83441">
        <ele>65.6</ele>
        <time>2025-06-30T13:04:49Z</time>
      </trkpt>
      <trkpt lat="48.647" lon="-3.83424">
        <ele>65.7</ele>
        <time>2025-06-30T13:04:51Z</time>
      </trkpt>
      <trkpt lat="48.64693" lon="-3.83408">
        <ele>65.8</ele>
        <time>2025-06-30T13:04:53Z</time>
      </trkpt>
      <trkpt lat="48.64685" lon="-3.83392">
        <ele>66</ele>
        <time>2025-06-30T13:04:55Z</time>
      </trkpt>
      <trkpt lat="48.64677" lon="-3.83376">
        <ele>66.2</ele>
        <time>2025-06-30T13:04:57Z</time>
      </trkpt>
      <trkpt lat="48.64669" lon="-3.8336">
        <ele>66.5</ele>
        <time>2025-06-30T13:04:59Z</time>
      </trkpt>
      <trkpt lat="48.64662" lon="-3.83345">
        <ele>66.9</ele>
        <time>2025-06-30T13:05:01Z</time>
      </trkpt>
      <trkpt lat="48.64655" lon="-3.83331">
        <ele>67.4</ele>
        <time>2025-06-30T13:05:03Z</time>
      </trkpt>
      <trkpt lat="48.64648" lon="-3.83318">
        <ele>67.9</ele>
        <time>2025-06-30T13:05:05Z</time>
      </trkpt>
      <trkpt lat="48.64642" lon="-3.83305">
        <ele>68.3</ele>
        <time>2025-06-30T13:05:07Z</time>
      </trkpt>
      <trkpt lat="48.64635" lon="-3.83292">
        <ele>68.7</ele>
        <time>2025-06-30T13:05:09Z</time>
      </trkpt>
      <trkpt lat="48.64629" lon="-3.8328">
        <ele>69.1</ele>
        <time>2025-06-30T13:05:11Z</time>
      </trkpt>
      <trkpt lat="48.64623" lon="-3.83268">
        <ele>69.5</ele>
        <time>2025-06-30T13:05:13Z</time>
      </trkpt>
      <trkpt lat="48.64616" lon="-3.83256">
        <ele>69.9</ele>
        <time>2025-06-30T13:05:15Z</time>
      </trkpt>
      <trkpt lat="48.6461" lon="-3.83245">
        <ele>70.3</ele>
        <time>2025-06-30T13:05:17Z</time>
      </trkpt>
      <trkpt lat="48.64602" lon="-3.83233">
        <ele>70.8</ele>
        <time>2025-06-30T13:05:19Z</time>
      </trkpt>
      <trkpt lat="48.64596" lon="-3.83221">
        <ele>71.2</ele>
        <time>2025-06-30T13:05:21Z</time>
      </trkpt>
      <trkpt lat="48.64588" lon="-3.8321">
        <ele>71.6</ele>
        <time>2025-06-30T13:05:23Z</time>
      </trkpt>
      <trkpt lat="48.64581" lon="-3.83199">
        <ele>72</ele>
        <time>2025-06-30T13:05:25Z</time>
      </trkpt>
      <trkpt lat="48.64573" lon="-3.83188">
        <ele>72.4</ele>
        <time>2025-06-30T13:05:27Z</time>
      </trkpt>
      <trkpt lat="48.64566" lon="-3.83177">
        <ele>72.8</ele>
        <time>2025-06-30T13:05:29Z</time>
      </trkpt>
      <trkpt lat="48.64559" lon="-3.83166">
        <ele>73.2</ele>
        <time>2025-06-30T13:05:31Z</time>
      </trkpt>
      <trkpt lat="48.64551" lon="-3.83155">
        <ele>73.6</ele>
        <time>2025-06-30T13:05:33Z</time>
      </trkpt>
      <trkpt lat="48.64543" lon="-3.83145">
        <ele>73.9</ele>
        <time>2025-06-30T13:05:35Z</time>
      </trkpt>
      <trkpt lat="48.64536" lon="-3.83134">
        <ele>74.2</ele>
        <time>2025-06-30T13:05:37Z</time>
      </trkpt>
      <trkpt lat="48.64528" lon="-3.83123">
        <ele>74.5</ele>
        <time>2025-06-30T13:05:39Z</time>
      </trkpt>
      <trkpt lat="48.6452" lon="-3.83113">
        <ele>74.8</ele>
        <time>2025-06-30T13:05:41Z</time>
      </trkpt>
      <trkpt lat="48.64513" lon="-3.83102">
        <ele>75</ele>
        <time>2025-06-30T13:05:43Z</time>
      </trkpt>
      <trkpt lat="48.64505" lon="-3.83092">
        <ele>75.2</ele>
        <time>2025-06-30T13:05:45Z</time>
      </trkpt>
      <trkpt lat="48.64497" lon="-3.83081">
        <ele>75.4</ele>
        <time>2025-06-30T13:05:47Z</time>
      </trkpt>
      <trkpt lat="48.6449" lon="-3.8307">
        <ele>75.6</ele>
        <time>2025-06-30T13:05:49Z</time>
      </trkpt>
      <trkpt lat="48.64482" lon="-3.83059">
        <ele>75.7</ele>
        <time>2025-06-30T13:05:51Z</time>
      </trkpt>
      <trkpt lat="48.64474" lon="-3.83048">
        <ele>75.9</ele>
        <time>2025-06-30T13:05:53Z</time>
      </trkpt>
      <trkpt lat="48.64466" lon="-3.83038">
        <ele>76</ele>
        <time>2025-06-30T13:05:55Z</time>
      </trkpt>
      <trkpt lat="48.64458" lon="-3.83027">
        <ele>76.1</ele>
        <time>2025-06-30T13:05:57Z</time>
      </trkpt>
      <trkpt lat="48.6445" lon="-3.83016">
        <ele>76.2</ele>
        <time>2025-06-30T13:05:59Z</time>
      </trkpt>
      <trkpt lat="48.64442" lon="-3.83004">
        <ele>76.3</ele>
        <time>2025-06-30T13:06:01Z</time>
      </trkpt>
      <trkpt lat="48.64434" lon="-3.82993">
        <ele>76.4</ele>
        <time>2025-06-30T13:06:03Z</time>
      </trkpt>
      <trkpt lat="48.64426" lon="-3.82982">
        <ele>76.5</ele>
        <time>2025-06-30T13:06:05Z</time>
      </trkpt>
      <trkpt lat="48.64419" lon="-3.8297">
        <ele>76.6</ele>
        <time>2025-06-30T13:06:07Z</time>
      </trkpt>
      <trkpt lat="48.6441" lon="-3.82959">
        <ele>76.7</ele>
        <time>2025-06-30T13:06:09Z</time>
      </trkpt>
      <trkpt lat="48.64403" lon="-3.82947">
        <ele>76.8</ele>
        <time>2025-06-30T13:06:11Z</time>
      </trkpt>
      <trkpt lat="48.64395" lon="-3.82936">
        <ele>76.9</ele>
        <time>2025-06-30T13:06:13Z</time>
      </trkpt>
      <trkpt lat="48.64387" lon="-3.82924">
        <ele>77.1</ele>
        <time>2025-06-30T13:06:15Z</time>
      </trkpt>
      <trkpt lat="48.64379" lon="-3.82911">
        <ele>77.2</ele>
        <time>2025-06-30T13:06:17Z</time>
      </trkpt>
      <trkpt lat="48.64371" lon="-3.829">
        <ele>77.4</ele>
        <time>2025-06-30T13:06:19Z</time>
      </trkpt>
      <trkpt lat="48.64364" lon="-3.82888">
        <ele>77.5</ele>
        <time>2025-06-30T13:06:21Z</time>
      </trkpt>
      <trkpt lat="48.64356" lon="-3.82877">
        <ele>77.7</ele>
        <time>2025-06-30T13:06:23Z</time>
      </trkpt>
      <trkpt lat="48.64348" lon="-3.82864">
        <ele>77.9</ele>
        <time>2025-06-30T13:06:25Z</time>
      </trkpt>
      <trkpt lat="48.64341" lon="-3.82851">
        <ele>78.1</ele>
        <time>2025-06-30T13:06:27Z</time>
      </trkpt>
      <trkpt lat="48.64334" lon="-3.82838">
        <ele>78.3</ele>
        <time>2025-06-30T13:06:29Z</time>
      </trkpt>
      <trkpt lat="48.64327" lon="-3.82825">
        <ele>78.5</ele>
        <time>2025-06-30T13:06:31Z</time>
      </trkpt>
      <trkpt lat="48.6432" lon="-3.82812">
        <ele>78.7</ele>
        <time>2025-06-30T13:06:33Z</time>
      </trkpt>
      <trkpt lat="48.64313" lon="-3.82799">
        <ele>78.9</ele>
        <time>2025-06-30T13:06:35Z</time>
      </trkpt>
      <trkpt lat="48.64307" lon="-3.82786">
        <ele>79</ele>
        <time>2025-06-30T13:06:37Z</time>
      </trkpt>
      <trkpt lat="48.643" lon="-3.82772">
        <ele>79.2</ele>
        <time>2025-06-30T13:06:39Z</time>
      </trkpt>
      <trkpt lat="48.64293" lon="-3.82758">
        <ele>79.3</ele>
        <time>2025-06-30T13:06:41Z</time>
      </trkpt>
      <trkpt lat="48.64285" lon="-3.82743">
        <ele>79.5</ele>
        <time>2025-06-30T13:06:43Z</time>
      </trkpt>
      <trkpt lat="48.64278" lon="-3.82729">
        <ele>79.7</ele>
        <time>2025-06-30T13:06:45Z</time>
      </trkpt>
      <trkpt lat="48.64271" lon="-3.82714">
        <ele>79.9</ele>
        <time>2025-06-30T13:06:47Z</time>
      </trkpt>
      <trkpt lat="48.64261" lon="-3.827">
        <ele>80.2</ele>
        <time>2025-06-30T13:06:49Z</time>
      </trkpt>
      <trkpt lat="48.64256" lon="-3.82684">
        <ele>80.4</ele>
        <time>2025-06-30T13:06:51Z</time>
      </trkpt>
      <trkpt lat="48.64248" lon="-3.8267">
        <ele>80.7</ele>
        <time>2025-06-30T13:06:53Z</time>
      </trkpt>
      <trkpt lat="48.64241" lon="-3.82654">
        <ele>80.9</ele>
        <time>2025-06-30T13:06:55Z</time>
      </trkpt>
      <trkpt lat="48.64236" lon="-3.8264">
        <ele>81.1</ele>
        <time>2025-06-30T13:06:57Z</time>
      </trkpt>
      <trkpt lat="48.64228" lon="-3.82626">
        <ele>81.3</ele>
        <time>2025-06-30T13:06:59Z</time>
      </trkpt>
      <trkpt lat="48.64219" lon="-3.82613">
        <ele>81.5</ele>
        <time>2025-06-30T13:07:01Z</time>
      </trkpt>
      <trkpt lat="48.6421" lon="-3.82603">
        <ele>81.5</ele>
        <time>2025-06-30T13:07:03Z</time>
      </trkpt>
      <trkpt lat="48.64204" lon="-3.82588">
        <ele>81.7</ele>
        <time>2025-06-30T13:07:05Z</time>
      </trkpt>
      <trkpt lat="48.64198" lon="-3.82572">
        <ele>81.8</ele>
        <time>2025-06-30T13:07:07Z</time>
      </trkpt>
      <trkpt lat="48.6419" lon="-3.82558">
        <ele>81.9</ele>
        <time>2025-06-30T13:07:09Z</time>
      </trkpt>
      <trkpt lat="48.64183" lon="-3.82544">
        <ele>82</ele>
        <time>2025-06-30T13:07:11Z</time>
      </trkpt>
      <trkpt lat="48.64177" lon="-3.8253">
        <ele>82.1</ele>
        <time>2025-06-30T13:07:13Z</time>
      </trkpt>
      <trkpt lat="48.6417" lon="-3.82515">
        <ele>82.3</ele>
        <time>2025-06-30T13:07:15Z</time>
      </trkpt>
      <trkpt lat="48.64162" lon="-3.82501">
        <ele>82.5</ele>
        <time>2025-06-30T13:07:17Z</time>
      </trkpt>
      <trkpt lat="48.64154" lon="-3.8249">
        <ele>82.7</ele>
        <time>2025-06-30T13:07:19Z</time>
      </trkpt>
      <trkpt lat="48.64149" lon="-3.82478">
        <ele>82.9</ele>
        <time>2025-06-30T13:07:21Z</time>
      </trkpt>
      <trkpt lat="48.64141" lon="-3.82463">
        <ele>83.1</ele>
        <time>2025-06-30T13:07:24Z</time>
      </trkpt>
      <trkpt lat="48.64134" lon="-3.82442">
        <ele>83.5</ele>
        <time>2025-06-30T13:07:26Z</time>
      </trkpt>
      <trkpt lat="48.64131" lon="-3.82421">
        <ele>83.9</ele>
        <time>2025-06-30T13:07:27Z</time>
      </trkpt>
      <trkpt lat="48.64123" lon="-3.82409">
        <ele>84.2</ele>
        <time>2025-06-30T13:07:29Z</time>
      </trkpt>
      <trkpt lat="48.64114" lon="-3.82396">
        <ele>84.6</ele>
        <time>2025-06-30T13:07:31Z</time>
      </trkpt>
      <trkpt lat="48.64107" lon="-3.82384">
        <ele>84.9</ele>
        <time>2025-06-30T13:07:33Z</time>
      </trkpt>
      <trkpt lat="48.641" lon="-3.82372">
        <ele>85.4</ele>
        <time>2025-06-30T13:07:35Z</time>
      </trkpt>
      <trkpt lat="48.64092" lon="-3.8236">
        <ele>85.8</ele>
        <time>2025-06-30T13:07:37Z</time>
      </trkpt>
      <trkpt lat="48.64084" lon="-3.82351">
        <ele>86.3</ele>
        <time>2025-06-30T13:07:39Z</time>
      </trkpt>
      <trkpt lat="48.64074" lon="-3.82338">
        <ele>86.9</ele>
        <time>2025-06-30T13:07:42Z</time>
      </trkpt>
      <trkpt lat="48.64067" lon="-3.82323">
        <ele>87.6</ele>
        <time>2025-06-30T13:07:45Z</time>
      </trkpt>
      <trkpt lat="48.64057" lon="-3.82311">
        <ele>88</ele>
        <time>2025-06-30T13:07:48Z</time>
      </trkpt>
      <trkpt lat="48.64047" lon="-3.82299">
        <ele>88.5</ele>
        <time>2025-06-30T13:07:51Z</time>
      </trkpt>
      <trkpt lat="48.64037" lon="-3.82287">
        <ele>89</ele>
        <time>2025-06-30T13:07:54Z</time>
      </trkpt>
      <trkpt lat="48.64027" lon="-3.82274">
        <ele>89.5</ele>
        <time>2025-06-30T13:07:57Z</time>
      </trkpt>
      <trkpt lat="48.64016" lon="-3.82263">
        <ele>89.9</ele>
        <time>2025-06-30T13:08:00Z</time>
      </trkpt>
      <trkpt lat="48.64005" lon="-3.8225">
        <ele>90.2</ele>
        <time>2025-06-30T13:08:03Z</time>
      </trkpt>
      <trkpt lat="48.63995" lon="-3.82238">
        <ele>90.4</ele>
        <time>2025-06-30T13:08:06Z</time>
      </trkpt>
      <trkpt lat="48.63985" lon="-3.82226">
        <ele>90.6</ele>
        <time>2025-06-30T13:08:09Z</time>
      </trkpt>
      <trkpt lat="48.63975" lon="-3.82214">
        <ele>90.7</ele>
        <time>2025-06-30T13:08:12Z</time>
      </trkpt>
      <trkpt lat="48.63966" lon="-3.82203">
        <ele>90.8</ele>
        <time>2025-06-30T13:08:15Z</time>
      </trkpt>
      <trkpt lat="48.63957" lon="-3.82192">
        <ele>90.8</ele>
        <time>2025-06-30T13:08:18Z</time>
      </trkpt>
      <trkpt lat="48.6395" lon="-3.8218">
        <ele>90.8</ele>
        <time>2025-06-30T13:08:21Z</time>
      </trkpt>
      <trkpt lat="48.63941" lon="-3.82173">
        <ele>90.7</ele>
        <time>2025-06-30T13:08:24Z</time>
      </trkpt>
      <trkpt lat="48.63932" lon="-3.82164">
        <ele>90.5</ele>
        <time>2025-06-30T13:08:27Z</time>
      </trkpt>
      <trkpt lat="48.63925" lon="-3.8215">
        <ele>90.7</ele>
        <time>2025-06-30T13:08:30Z</time>
      </trkpt>
      <trkpt lat="48.63929" lon="-3.82136">
        <ele>91.3</ele>
        <time>2025-06-30T13:08:33Z</time>
      </trkpt>
      <trkpt lat="48.63921" lon="-3.82127">
        <ele>91.4</ele>
        <time>2025-06-30T13:08:39Z</time>
      </trkpt>
      <trkpt lat="48.63915" lon="-3.82114">
        <ele>90.7</ele>
        <time>2025-06-30T13:08:43Z</time>
      </trkpt>
      <trkpt lat="48.63911" lon="-3.82102">
        <ele>90.7</ele>
        <time>2025-06-30T13:08:47Z</time>
      </trkpt>
      <trkpt lat="48.63909" lon="-3.82085">
        <ele>91.1</ele>
        <time>2025-06-30T13:08:51Z</time>
      </trkpt>
      <trkpt lat="48.63916" lon="-3.82071">
        <ele>91.4</ele>
        <time>2025-06-30T13:08:56Z</time>
      </trkpt>
      <trkpt lat="48.63925" lon="-3.82069">
        <ele>91.5</ele>
        <time>2025-06-30T13:08:59Z</time>
      </trkpt>
      <trkpt lat="48.63934" lon="-3.82067">
        <ele>91.5</ele>
        <time>2025-06-30T13:09:04Z</time>
      </trkpt>
      <trkpt lat="48.63943" lon="-3.8206">
        <ele>91.6</ele>
        <time>2025-06-30T13:09:12Z</time>
      </trkpt>
      <trkpt lat="48.63943" lon="-3.82073">
        <ele>91.6</ele>
        <time>2025-06-30T13:09:21Z</time>
      </trkpt>
      <trkpt lat="48.63941" lon="-3.8209">
        <ele>91.6</ele>
        <time>2025-06-30T13:14:46Z</time>
      </trkpt>
      <trkpt lat="48.63939" lon="-3.82106">
        <ele>91.7</ele>
        <time>2025-06-30T13:14:52Z</time>
      </trkpt>
      <trkpt lat="48.63936" lon="-3.82119">
        <ele>91.7</ele>
        <time>2025-06-30T13:14:56Z</time>
      </trkpt>
      <trkpt lat="48.63931" lon="-3.82131">
        <ele>91.5</ele>
        <time>2025-06-30T13:15:00Z</time>
      </trkpt>
      <trkpt lat="48.63929" lon="-3.82145">
        <ele>91</ele>
        <time>2025-06-30T13:15:05Z</time>
      </trkpt>
      <trkpt lat="48.63921" lon="-3.82154">
        <ele>90.2</ele>
        <time>2025-06-30T13:15:13Z</time>
      </trkpt>
      <trkpt lat="48.63911" lon="-3.82153">
        <ele>89.9</ele>
        <time>2025-06-30T13:15:16Z</time>
      </trkpt>
      <trkpt lat="48.63898" lon="-3.82154">
        <ele>89.3</ele>
        <time>2025-06-30T13:15:19Z</time>
      </trkpt>
      <trkpt lat="48.63888" lon="-3.82156">
        <ele>88.8</ele>
        <time>2025-06-30T13:15:21Z</time>
      </trkpt>
      <trkpt lat="48.63877" lon="-3.82157">
        <ele>88.2</ele>
        <time>2025-06-30T13:15:23Z</time>
      </trkpt>
      <trkpt lat="48.63865" lon="-3.8216">
        <ele>87.6</ele>
        <time>2025-06-30T13:15:25Z</time>
      </trkpt>
      <trkpt lat="48.63853" lon="-3.8216">
        <ele>87.1</ele>
        <time>2025-06-30T13:15:27Z</time>
      </trkpt>
      <trkpt lat="48.63843" lon="-3.82162">
        <ele>86.7</ele>
        <time>2025-06-30T13:15:29Z</time>
      </trkpt>
      <trkpt lat="48.63832" lon="-3.82171">
        <ele>86.3</ele>
        <time>2025-06-30T13:15:31Z</time>
      </trkpt>
      <trkpt lat="48.6382" lon="-3.82175">
        <ele>86</ele>
        <time>2025-06-30T13:15:33Z</time>
      </trkpt>
      <trkpt lat="48.63809" lon="-3.82173">
        <ele>85.6</ele>
        <time>2025-06-30T13:15:35Z</time>
      </trkpt>
      <trkpt lat="48.63799" lon="-3.82171">
        <ele>85</ele>
        <time>2025-06-30T13:15:37Z</time>
      </trkpt>
      <trkpt lat="48.63789" lon="-3.82173">
        <ele>84.4</ele>
        <time>2025-06-30T13:15:42Z</time>
      </trkpt>
      <trkpt lat="48.63781" lon="-3.82182">
        <ele>83.9</ele>
        <time>2025-06-30T13:15:48Z</time>
      </trkpt>
      <trkpt lat="48.63772" lon="-3.82181">
        <ele>83.4</ele>
        <time>2025-06-30T13:15:51Z</time>
      </trkpt>
      <trkpt lat="48.63761" lon="-3.82178">
        <ele>82.8</ele>
        <time>2025-06-30T13:16:22Z</time>
      </trkpt>
      <trkpt lat="48.6375" lon="-3.82178">
        <ele>82.2</ele>
        <time>2025-06-30T13:16:25Z</time>
      </trkpt>
      <trkpt lat="48.63736" lon="-3.82181">
        <ele>81.4</ele>
        <time>2025-06-30T13:16:28Z</time>
      </trkpt>
      <trkpt lat="48.63725" lon="-3.82181">
        <ele>80.7</ele>
        <time>2025-06-30T13:16:30Z</time>
      </trkpt>
      <trkpt lat="48.63713" lon="-3.82184">
        <ele>79.9</ele>
        <time>2025-06-30T13:16:32Z</time>
      </trkpt>
      <trkpt lat="48.63699" lon="-3.82185">
        <ele>78.9</ele>
        <time>2025-06-30T13:16:34Z</time>
      </trkpt>
      <trkpt lat="48.63684" lon="-3.82188">
        <ele>78</ele>
        <time>2025-06-30T13:16:36Z</time>
      </trkpt>
      <trkpt lat="48.63669" lon="-3.82191">
        <ele>77</ele>
        <time>2025-06-30T13:16:38Z</time>
      </trkpt>
      <trkpt lat="48.63654" lon="-3.82195">
        <ele>76</ele>
        <time>2025-06-30T13:16:40Z</time>
      </trkpt>
      <trkpt lat="48.63639" lon="-3.82199">
        <ele>74.9</ele>
        <time>2025-06-30T13:16:42Z</time>
      </trkpt>
      <trkpt lat="48.63621" lon="-3.82204">
        <ele>73.6</ele>
        <time>2025-06-30T13:16:44Z</time>
      </trkpt>
      <trkpt lat="48.63612" lon="-3.82206">
        <ele>72.9</ele>
        <time>2025-06-30T13:16:45Z</time>
      </trkpt>
      <trkpt lat="48.63603" lon="-3.82209">
        <ele>72.2</ele>
        <time>2025-06-30T13:16:46Z</time>
      </trkpt>
      <trkpt lat="48.63593" lon="-3.82211">
        <ele>71.4</ele>
        <time>2025-06-30T13:16:47Z</time>
      </trkpt>
      <trkpt lat="48.63583" lon="-3.82215">
        <ele>70.6</ele>
        <time>2025-06-30T13:16:48Z</time>
      </trkpt>
      <trkpt lat="48.63573" lon="-3.82218">
        <ele>69.8</ele>
        <time>2025-06-30T13:16:49Z</time>
      </trkpt>
      <trkpt lat="48.63562" lon="-3.82221">
        <ele>68.9</ele>
        <time>2025-06-30T13:16:50Z</time>
      </trkpt>
      <trkpt lat="48.63551" lon="-3.82225">
        <ele>68</ele>
        <time>2025-06-30T13:16:51Z</time>
      </trkpt>
      <trkpt lat="48.6354" lon="-3.82228">
        <ele>67.1</ele>
        <time>2025-06-30T13:16:52Z</time>
      </trkpt>
      <trkpt lat="48.63528" lon="-3.82231">
        <ele>66.2</ele>
        <time>2025-06-30T13:16:53Z</time>
      </trkpt>
      <trkpt lat="48.63516" lon="-3.82235">
        <ele>65.2</ele>
        <time>2025-06-30T13:16:54Z</time>
      </trkpt>
      <trkpt lat="48.63504" lon="-3.82238">
        <ele>64.3</ele>
        <time>2025-06-30T13:16:55Z</time>
      </trkpt>
      <trkpt lat="48.63492" lon="-3.82242">
        <ele>63.4</ele>
        <time>2025-06-30T13:16:56Z</time>
      </trkpt>
      <trkpt lat="48.63479" lon="-3.82245">
        <ele>62.4</ele>
        <time>2025-06-30T13:16:57Z</time>
      </trkpt>
      <trkpt lat="48.63466" lon="-3.82249">
        <ele>61.7</ele>
        <time>2025-06-30T13:16:58Z</time>
      </trkpt>
      <trkpt lat="48.63454" lon="-3.82253">
        <ele>61.3</ele>
        <time>2025-06-30T13:16:59Z</time>
      </trkpt>
      <trkpt lat="48.63441" lon="-3.82257">
        <ele>60.8</ele>
        <time>2025-06-30T13:17:00Z</time>
      </trkpt>
      <trkpt lat="48.63428" lon="-3.82261">
        <ele>60.2</ele>
        <time>2025-06-30T13:17:01Z</time>
      </trkpt>
      <trkpt lat="48.63415" lon="-3.82265">
        <ele>59.6</ele>
        <time>2025-06-30T13:17:02Z</time>
      </trkpt>
      <trkpt lat="48.63402" lon="-3.8227">
        <ele>59.1</ele>
        <time>2025-06-30T13:17:03Z</time>
      </trkpt>
      <trkpt lat="48.63389" lon="-3.82275">
        <ele>58.7</ele>
        <time>2025-06-30T13:17:04Z</time>
      </trkpt>
      <trkpt lat="48.63377" lon="-3.82281">
        <ele>58.4</ele>
        <time>2025-06-30T13:17:05Z</time>
      </trkpt>
      <trkpt lat="48.63364" lon="-3.82288">
        <ele>58</ele>
        <time>2025-06-30T13:17:06Z</time>
      </trkpt>
      <trkpt lat="48.63352" lon="-3.82295">
        <ele>57.7</ele>
        <time>2025-06-30T13:17:07Z</time>
      </trkpt>
      <trkpt lat="48.63341" lon="-3.82303">
        <ele>57.4</ele>
        <time>2025-06-30T13:17:08Z</time>
      </trkpt>
      <trkpt lat="48.6333" lon="-3.82312">
        <ele>57.1</ele>
        <time>2025-06-30T13:17:09Z</time>
      </trkpt>
      <trkpt lat="48.63319" lon="-3.82322">
        <ele>56.8</ele>
        <time>2025-06-30T13:17:10Z</time>
      </trkpt>
      <trkpt lat="48.63309" lon="-3.82333">
        <ele>56.4</ele>
        <time>2025-06-30T13:17:11Z</time>
      </trkpt>
      <trkpt lat="48.63301" lon="-3.82346">
        <ele>56</ele>
        <time>2025-06-30T13:17:12Z</time>
      </trkpt>
      <trkpt lat="48.63293" lon="-3.8236">
        <ele>55.5</ele>
        <time>2025-06-30T13:17:13Z</time>
      </trkpt>
      <trkpt lat="48.63286" lon="-3.82374">
        <ele>55.1</ele>
        <time>2025-06-30T13:17:14Z</time>
      </trkpt>
      <trkpt lat="48.63279" lon="-3.82389">
        <ele>54.8</ele>
        <time>2025-06-30T13:17:15Z</time>
      </trkpt>
      <trkpt lat="48.63274" lon="-3.82405">
        <ele>54.4</ele>
        <time>2025-06-30T13:17:16Z</time>
      </trkpt>
      <trkpt lat="48.6327" lon="-3.82421">
        <ele>54</ele>
        <time>2025-06-30T13:17:17Z</time>
      </trkpt>
      <trkpt lat="48.63266" lon="-3.82437">
        <ele>53.6</ele>
        <time>2025-06-30T13:17:18Z</time>
      </trkpt>
      <trkpt lat="48.63262" lon="-3.82452">
        <ele>53.3</ele>
        <time>2025-06-30T13:17:19Z</time>
      </trkpt>
      <trkpt lat="48.63259" lon="-3.82468">
        <ele>52.8</ele>
        <time>2025-06-30T13:17:20Z</time>
      </trkpt>
      <trkpt lat="48.63256" lon="-3.82484">
        <ele>52.4</ele>
        <time>2025-06-30T13:17:21Z</time>
      </trkpt>
      <trkpt lat="48.63253" lon="-3.825">
        <ele>52</ele>
        <time>2025-06-30T13:17:22Z</time>
      </trkpt>
      <trkpt lat="48.6325" lon="-3.82516">
        <ele>51.6</ele>
        <time>2025-06-30T13:17:23Z</time>
      </trkpt>
      <trkpt lat="48.63245" lon="-3.8253">
        <ele>51.1</ele>
        <time>2025-06-30T13:17:24Z</time>
      </trkpt>
      <trkpt lat="48.63241" lon="-3.82545">
        <ele>50.6</ele>
        <time>2025-06-30T13:17:25Z</time>
      </trkpt>
      <trkpt lat="48.63235" lon="-3.82559">
        <ele>50.1</ele>
        <time>2025-06-30T13:17:26Z</time>
      </trkpt>
      <trkpt lat="48.63228" lon="-3.82572">
        <ele>49.5</ele>
        <time>2025-06-30T13:17:27Z</time>
      </trkpt>
      <trkpt lat="48.63221" lon="-3.82584">
        <ele>49</ele>
        <time>2025-06-30T13:17:28Z</time>
      </trkpt>
      <trkpt lat="48.63214" lon="-3.82594">
        <ele>48.4</ele>
        <time>2025-06-30T13:17:29Z</time>
      </trkpt>
      <trkpt lat="48.63204" lon="-3.82602">
        <ele>48</ele>
        <time>2025-06-30T13:17:30Z</time>
      </trkpt>
      <trkpt lat="48.63194" lon="-3.82607">
        <ele>47.6</ele>
        <time>2025-06-30T13:17:31Z</time>
      </trkpt>
      <trkpt lat="48.63184" lon="-3.82611">
        <ele>47.2</ele>
        <time>2025-06-30T13:17:32Z</time>
      </trkpt>
      <trkpt lat="48.63172" lon="-3.82613">
        <ele>46.9</ele>
        <time>2025-06-30T13:17:33Z</time>
      </trkpt>
      <trkpt lat="48.63162" lon="-3.82615">
        <ele>46.6</ele>
        <time>2025-06-30T13:17:34Z</time>
      </trkpt>
      <trkpt lat="48.63151" lon="-3.82616">
        <ele>46.5</ele>
        <time>2025-06-30T13:17:35Z</time>
      </trkpt>
      <trkpt lat="48.63139" lon="-3.82615">
        <ele>46.4</ele>
        <time>2025-06-30T13:17:36Z</time>
      </trkpt>
      <trkpt lat="48.63128" lon="-3.82615">
        <ele>46.4</ele>
        <time>2025-06-30T13:17:37Z</time>
      </trkpt>
      <trkpt lat="48.63118" lon="-3.82615">
        <ele>46.5</ele>
        <time>2025-06-30T13:17:38Z</time>
      </trkpt>
      <trkpt lat="48.63107" lon="-3.82618">
        <ele>46.5</ele>
        <time>2025-06-30T13:17:39Z</time>
      </trkpt>
      <trkpt lat="48.63097" lon="-3.82621">
        <ele>46.4</ele>
        <time>2025-06-30T13:17:40Z</time>
      </trkpt>
      <trkpt lat="48.63087" lon="-3.82627">
        <ele>46.3</ele>
        <time>2025-06-30T13:17:41Z</time>
      </trkpt>
      <trkpt lat="48.63078" lon="-3.82635">
        <ele>46.1</ele>
        <time>2025-06-30T13:17:42Z</time>
      </trkpt>
      <trkpt lat="48.63069" lon="-3.82643">
        <ele>45.8</ele>
        <time>2025-06-30T13:17:43Z</time>
      </trkpt>
      <trkpt lat="48.63061" lon="-3.82653">
        <ele>45.5</ele>
        <time>2025-06-30T13:17:44Z</time>
      </trkpt>
      <trkpt lat="48.63053" lon="-3.82662">
        <ele>45.2</ele>
        <time>2025-06-30T13:17:45Z</time>
      </trkpt>
      <trkpt lat="48.63045" lon="-3.82673">
        <ele>45</ele>
        <time>2025-06-30T13:17:46Z</time>
      </trkpt>
      <trkpt lat="48.63037" lon="-3.82683">
        <ele>44.7</ele>
        <time>2025-06-30T13:17:47Z</time>
      </trkpt>
      <trkpt lat="48.63029" lon="-3.82693">
        <ele>44.4</ele>
        <time>2025-06-30T13:17:48Z</time>
      </trkpt>
      <trkpt lat="48.63022" lon="-3.82704">
        <ele>44</ele>
        <time>2025-06-30T13:17:49Z</time>
      </trkpt>
      <trkpt lat="48.63014" lon="-3.82714">
        <ele>43.7</ele>
        <time>2025-06-30T13:17:50Z</time>
      </trkpt>
      <trkpt lat="48.63006" lon="-3.82724">
        <ele>43.3</ele>
        <time>2025-06-30T13:17:51Z</time>
      </trkpt>
      <trkpt lat="48.62998" lon="-3.82734">
        <ele>43</ele>
        <time>2025-06-30T13:17:52Z</time>
      </trkpt>
      <trkpt lat="48.62991" lon="-3.82743">
        <ele>42.6</ele>
        <time>2025-06-30T13:17:53Z</time>
      </trkpt>
      <trkpt lat="48.62984" lon="-3.82754">
        <ele>42.3</ele>
        <time>2025-06-30T13:17:54Z</time>
      </trkpt>
      <trkpt lat="48.62977" lon="-3.82765">
        <ele>41.9</ele>
        <time>2025-06-30T13:17:55Z</time>
      </trkpt>
      <trkpt lat="48.6297" lon="-3.82777">
        <ele>41.5</ele>
        <time>2025-06-30T13:17:56Z</time>
      </trkpt>
      <trkpt lat="48.62965" lon="-3.82791">
        <ele>41.1</ele>
        <time>2025-06-30T13:17:57Z</time>
      </trkpt>
      <trkpt lat="48.62961" lon="-3.82806">
        <ele>40.7</ele>
        <time>2025-06-30T13:17:58Z</time>
      </trkpt>
      <trkpt lat="48.62957" lon="-3.82821">
        <ele>40.3</ele>
        <time>2025-06-30T13:17:59Z</time>
      </trkpt>
      <trkpt lat="48.62955" lon="-3.82836">
        <ele>40</ele>
        <time>2025-06-30T13:18:00Z</time>
      </trkpt>
      <trkpt lat="48.62955" lon="-3.82852">
        <ele>39.7</ele>
        <time>2025-06-30T13:18:01Z</time>
      </trkpt>
      <trkpt lat="48.62955" lon="-3.82868">
        <ele>39.4</ele>
        <time>2025-06-30T13:18:02Z</time>
      </trkpt>
      <trkpt lat="48.62956" lon="-3.82883">
        <ele>39.1</ele>
        <time>2025-06-30T13:18:03Z</time>
      </trkpt>
      <trkpt lat="48.62958" lon="-3.82899">
        <ele>38.8</ele>
        <time>2025-06-30T13:18:04Z</time>
      </trkpt>
      <trkpt lat="48.62959" lon="-3.82914">
        <ele>38.4</ele>
        <time>2025-06-30T13:18:05Z</time>
      </trkpt>
      <trkpt lat="48.62962" lon="-3.82929">
        <ele>38.1</ele>
        <time>2025-06-30T13:18:06Z</time>
      </trkpt>
      <trkpt lat="48.62965" lon="-3.82944">
        <ele>37.8</ele>
        <time>2025-06-30T13:18:07Z</time>
      </trkpt>
      <trkpt lat="48.62967" lon="-3.8296">
        <ele>37.4</ele>
        <time>2025-06-30T13:18:08Z</time>
      </trkpt>
      <trkpt lat="48.62969" lon="-3.82975">
        <ele>37.1</ele>
        <time>2025-06-30T13:18:09Z</time>
      </trkpt>
      <trkpt lat="48.62972" lon="-3.82989">
        <ele>36.7</ele>
        <time>2025-06-30T13:18:10Z</time>
      </trkpt>
      <trkpt lat="48.62974" lon="-3.83004">
        <ele>36.4</ele>
        <time>2025-06-30T13:18:11Z</time>
      </trkpt>
      <trkpt lat="48.62976" lon="-3.8302">
        <ele>36.1</ele>
        <time>2025-06-30T13:18:12Z</time>
      </trkpt>
      <trkpt lat="48.62979" lon="-3.83035">
        <ele>35.8</ele>
        <time>2025-06-30T13:18:13Z</time>
      </trkpt>
      <trkpt lat="48.62982" lon="-3.8305">
        <ele>35.5</ele>
        <time>2025-06-30T13:18:14Z</time>
      </trkpt>
      <trkpt lat="48.62986" lon="-3.83065">
        <ele>35.2</ele>
        <time>2025-06-30T13:18:15Z</time>
      </trkpt>
      <trkpt lat="48.62989" lon="-3.8308">
        <ele>34.9</ele>
        <time>2025-06-30T13:18:16Z</time>
      </trkpt>
      <trkpt lat="48.62993" lon="-3.83095">
        <ele>34.6</ele>
        <time>2025-06-30T13:18:17Z</time>
      </trkpt>
      <trkpt lat="48.62998" lon="-3.83109">
        <ele>34.3</ele>
        <time>2025-06-30T13:18:18Z</time>
      </trkpt>
      <trkpt lat="48.63002" lon="-3.83123">
        <ele>33.8</ele>
        <time>2025-06-30T13:18:19Z</time>
      </trkpt>
      <trkpt lat="48.63006" lon="-3.83137">
        <ele>33.4</ele>
        <time>2025-06-30T13:18:20Z</time>
      </trkpt>
      <trkpt lat="48.6301" lon="-3.83151">
        <ele>33</ele>
        <time>2025-06-30T13:18:21Z</time>
      </trkpt>
      <trkpt lat="48.63014" lon="-3.83165">
        <ele>32.6</ele>
        <time>2025-06-30T13:18:22Z</time>
      </trkpt>
      <trkpt lat="48.63019" lon="-3.83179">
        <ele>32.1</ele>
        <time>2025-06-30T13:18:23Z</time>
      </trkpt>
      <trkpt lat="48.63022" lon="-3.83194">
        <ele>31.8</ele>
        <time>2025-06-30T13:18:24Z</time>
      </trkpt>
      <trkpt lat="48.63025" lon="-3.83208">
        <ele>31.5</ele>
        <time>2025-06-30T13:18:25Z</time>
      </trkpt>
      <trkpt lat="48.63029" lon="-3.83223">
        <ele>31.2</ele>
        <time>2025-06-30T13:18:26Z</time>
      </trkpt>
      <trkpt lat="48.63032" lon="-3.83238">
        <ele>30.9</ele>
        <time>2025-06-30T13:18:27Z</time>
      </trkpt>
      <trkpt lat="48.63035" lon="-3.83252">
        <ele>30.7</ele>
        <time>2025-06-30T13:18:28Z</time>
      </trkpt>
      <trkpt lat="48.63038" lon="-3.83267">
        <ele>30.4</ele>
        <time>2025-06-30T13:18:29Z</time>
      </trkpt>
      <trkpt lat="48.63039" lon="-3.83282">
        <ele>30.1</ele>
        <time>2025-06-30T13:18:30Z</time>
      </trkpt>
      <trkpt lat="48.63041" lon="-3.83298">
        <ele>29.8</ele>
        <time>2025-06-30T13:18:31Z</time>
      </trkpt>
      <trkpt lat="48.63041" lon="-3.83313">
        <ele>29.4</ele>
        <time>2025-06-30T13:18:32Z</time>
      </trkpt>
      <trkpt lat="48.63042" lon="-3.83329">
        <ele>29</ele>
        <time>2025-06-30T13:18:33Z</time>
      </trkpt>
      <trkpt lat="48.63041" lon="-3.83344">
        <ele>28.6</ele>
        <time>2025-06-30T13:18:34Z</time>
      </trkpt>
      <trkpt lat="48.6304" lon="-3.8336">
        <ele>28.2</ele>
        <time>2025-06-30T13:18:35Z</time>
      </trkpt>
      <trkpt lat="48.63039" lon="-3.83377">
        <ele>27.8</ele>
        <time>2025-06-30T13:18:36Z</time>
      </trkpt>
      <trkpt lat="48.63037" lon="-3.83392">
        <ele>27.4</ele>
        <time>2025-06-30T13:18:37Z</time>
      </trkpt>
      <trkpt lat="48.63035" lon="-3.83409">
        <ele>27</ele>
        <time>2025-06-30T13:18:38Z</time>
      </trkpt>
      <trkpt lat="48.63033" lon="-3.83425">
        <ele>26.6</ele>
        <time>2025-06-30T13:18:39Z</time>
      </trkpt>
      <trkpt lat="48.63031" lon="-3.83442">
        <ele>26.2</ele>
        <time>2025-06-30T13:18:40Z</time>
      </trkpt>
      <trkpt lat="48.63029" lon="-3.83458">
        <ele>25.6</ele>
        <time>2025-06-30T13:18:41Z</time>
      </trkpt>
      <trkpt lat="48.63026" lon="-3.83475">
        <ele>25.1</ele>
        <time>2025-06-30T13:18:42Z</time>
      </trkpt>
      <trkpt lat="48.63024" lon="-3.83491">
        <ele>24.6</ele>
        <time>2025-06-30T13:18:43Z</time>
      </trkpt>
      <trkpt lat="48.63021" lon="-3.83509">
        <ele>24</ele>
        <time>2025-06-30T13:18:44Z</time>
      </trkpt>
      <trkpt lat="48.63019" lon="-3.83526">
        <ele>23.5</ele>
        <time>2025-06-30T13:18:45Z</time>
      </trkpt>
      <trkpt lat="48.63017" lon="-3.83544">
        <ele>23</ele>
        <time>2025-06-30T13:18:46Z</time>
      </trkpt>
      <trkpt lat="48.63015" lon="-3.83561">
        <ele>22.4</ele>
        <time>2025-06-30T13:18:47Z</time>
      </trkpt>
      <trkpt lat="48.63012" lon="-3.83579">
        <ele>21.9</ele>
        <time>2025-06-30T13:18:48Z</time>
      </trkpt>
      <trkpt lat="48.63011" lon="-3.83597">
        <ele>21.4</ele>
        <time>2025-06-30T13:18:49Z</time>
      </trkpt>
      <trkpt lat="48.63011" lon="-3.83615">
        <ele>20.9</ele>
        <time>2025-06-30T13:18:50Z</time>
      </trkpt>
      <trkpt lat="48.6301" lon="-3.83633">
        <ele>20.4</ele>
        <time>2025-06-30T13:18:51Z</time>
      </trkpt>
      <trkpt lat="48.63009" lon="-3.83651">
        <ele>19.9</ele>
        <time>2025-06-30T13:18:52Z</time>
      </trkpt>
      <trkpt lat="48.63009" lon="-3.83669">
        <ele>19.4</ele>
        <time>2025-06-30T13:18:53Z</time>
      </trkpt>
      <trkpt lat="48.63008" lon="-3.83687">
        <ele>19</ele>
        <time>2025-06-30T13:18:54Z</time>
      </trkpt>
      <trkpt lat="48.63006" lon="-3.83705">
        <ele>18.5</ele>
        <time>2025-06-30T13:18:55Z</time>
      </trkpt>
      <trkpt lat="48.63006" lon="-3.83723">
        <ele>18.1</ele>
        <time>2025-06-30T13:18:56Z</time>
      </trkpt>
      <trkpt lat="48.63005" lon="-3.83741">
        <ele>17.7</ele>
        <time>2025-06-30T13:18:57Z</time>
      </trkpt>
      <trkpt lat="48.63004" lon="-3.83759">
        <ele>17.3</ele>
        <time>2025-06-30T13:18:58Z</time>
      </trkpt>
      <trkpt lat="48.63004" lon="-3.83777">
        <ele>16.9</ele>
        <time>2025-06-30T13:18:59Z</time>
      </trkpt>
      <trkpt lat="48.63003" lon="-3.83795">
        <ele>16.6</ele>
        <time>2025-06-30T13:19:00Z</time>
      </trkpt>
      <trkpt lat="48.63002" lon="-3.83813">
        <ele>16.2</ele>
        <time>2025-06-30T13:19:01Z</time>
      </trkpt>
      <trkpt lat="48.63001" lon="-3.83831">
        <ele>15.8</ele>
        <time>2025-06-30T13:19:02Z</time>
      </trkpt>
      <trkpt lat="48.63001" lon="-3.83849">
        <ele>15.3</ele>
        <time>2025-06-30T13:19:03Z</time>
      </trkpt>
      <trkpt lat="48.62998" lon="-3.83867">
        <ele>14.9</ele>
        <time>2025-06-30T13:19:04Z</time>
      </trkpt>
      <trkpt lat="48.62996" lon="-3.83884">
        <ele>14.5</ele>
        <time>2025-06-30T13:19:05Z</time>
      </trkpt>
      <trkpt lat="48.62993" lon="-3.83901">
        <ele>14</ele>
        <time>2025-06-30T13:19:06Z</time>
      </trkpt>
      <trkpt lat="48.62989" lon="-3.83918">
        <ele>13.6</ele>
        <time>2025-06-30T13:19:07Z</time>
      </trkpt>
      <trkpt lat="48.62985" lon="-3.83934">
        <ele>13.2</ele>
        <time>2025-06-30T13:19:08Z</time>
      </trkpt>
      <trkpt lat="48.62982" lon="-3.83951">
        <ele>12.8</ele>
        <time>2025-06-30T13:19:09Z</time>
      </trkpt>
      <trkpt lat="48.62978" lon="-3.83966">
        <ele>12.5</ele>
        <time>2025-06-30T13:19:10Z</time>
      </trkpt>
      <trkpt lat="48.62973" lon="-3.83983">
        <ele>12.1</ele>
        <time>2025-06-30T13:19:11Z</time>
      </trkpt>
      <trkpt lat="48.62969" lon="-3.83999">
        <ele>11.6</ele>
        <time>2025-06-30T13:19:12Z</time>
      </trkpt>
      <trkpt lat="48.62965" lon="-3.84016">
        <ele>11.2</ele>
        <time>2025-06-30T13:19:13Z</time>
      </trkpt>
      <trkpt lat="48.62961" lon="-3.84032">
        <ele>10.8</ele>
        <time>2025-06-30T13:19:14Z</time>
      </trkpt>
      <trkpt lat="48.62957" lon="-3.84048">
        <ele>10.4</ele>
        <time>2025-06-30T13:19:15Z</time>
      </trkpt>
      <trkpt lat="48.62953" lon="-3.84064">
        <ele>10.1</ele>
        <time>2025-06-30T13:19:16Z</time>
      </trkpt>
      <trkpt lat="48.62948" lon="-3.8408">
        <ele>9.8</ele>
        <time>2025-06-30T13:19:17Z</time>
      </trkpt>
      <trkpt lat="48.62944" lon="-3.84095">
        <ele>9.5</ele>
        <time>2025-06-30T13:19:18Z</time>
      </trkpt>
      <trkpt lat="48.6294" lon="-3.84111">
        <ele>9.3</ele>
        <time>2025-06-30T13:19:19Z</time>
      </trkpt>
      <trkpt lat="48.62936" lon="-3.84128">
        <ele>9.1</ele>
        <time>2025-06-30T13:19:20Z</time>
      </trkpt>
      <trkpt lat="48.62931" lon="-3.84143">
        <ele>8.8</ele>
        <time>2025-06-30T13:19:21Z</time>
      </trkpt>
      <trkpt lat="48.62927" lon="-3.84159">
        <ele>8.7</ele>
        <time>2025-06-30T13:19:22Z</time>
      </trkpt>
      <trkpt lat="48.62923" lon="-3.84175">
        <ele>8.6</ele>
        <time>2025-06-30T13:19:23Z</time>
      </trkpt>
      <trkpt lat="48.62918" lon="-3.8419">
        <ele>8.5</ele>
        <time>2025-06-30T13:19:24Z</time>
      </trkpt>
      <trkpt lat="48.62914" lon="-3.84205">
        <ele>8.5</ele>
        <time>2025-06-30T13:19:25Z</time>
      </trkpt>
      <trkpt lat="48.62909" lon="-3.84219">
        <ele>8.6</ele>
        <time>2025-06-30T13:19:26Z</time>
      </trkpt>
      <trkpt lat="48.62904" lon="-3.84232">
        <ele>8.6</ele>
        <time>2025-06-30T13:19:27Z</time>
      </trkpt>
      <trkpt lat="48.62898" lon="-3.84244">
        <ele>8.7</ele>
        <time>2025-06-30T13:19:28Z</time>
      </trkpt>
      <trkpt lat="48.62892" lon="-3.84256">
        <ele>8.8</ele>
        <time>2025-06-30T13:19:29Z</time>
      </trkpt>
      <trkpt lat="48.62886" lon="-3.84267">
        <ele>8.9</ele>
        <time>2025-06-30T13:19:30Z</time>
      </trkpt>
      <trkpt lat="48.6288" lon="-3.84278">
        <ele>8.9</ele>
        <time>2025-06-30T13:19:31Z</time>
      </trkpt>
      <trkpt lat="48.62874" lon="-3.84288">
        <ele>8.9</ele>
        <time>2025-06-30T13:19:32Z</time>
      </trkpt>
      <trkpt lat="48.62868" lon="-3.84299">
        <ele>8.9</ele>
        <time>2025-06-30T13:19:33Z</time>
      </trkpt>
      <trkpt lat="48.62856" lon="-3.84319">
        <ele>8.9</ele>
        <time>2025-06-30T13:19:35Z</time>
      </trkpt>
      <trkpt lat="48.62845" lon="-3.84338">
        <ele>9</ele>
        <time>2025-06-30T13:19:37Z</time>
      </trkpt>
      <trkpt lat="48.62833" lon="-3.84357">
        <ele>9</ele>
        <time>2025-06-30T13:19:39Z</time>
      </trkpt>
      <trkpt lat="48.62822" lon="-3.84376">
        <ele>9.1</ele>
        <time>2025-06-30T13:19:41Z</time>
      </trkpt>
      <trkpt lat="48.62812" lon="-3.84393">
        <ele>9.2</ele>
        <time>2025-06-30T13:19:43Z</time>
      </trkpt>
      <trkpt lat="48.62802" lon="-3.84411">
        <ele>9.2</ele>
        <time>2025-06-30T13:19:45Z</time>
      </trkpt>
      <trkpt lat="48.62793" lon="-3.84428">
        <ele>9.1</ele>
        <time>2025-06-30T13:19:47Z</time>
      </trkpt>
      <trkpt lat="48.62783" lon="-3.84445">
        <ele>8.9</ele>
        <time>2025-06-30T13:19:49Z</time>
      </trkpt>
      <trkpt lat="48.62773" lon="-3.84462">
        <ele>8.7</ele>
        <time>2025-06-30T13:19:51Z</time>
      </trkpt>
      <trkpt lat="48.62763" lon="-3.84479">
        <ele>8.5</ele>
        <time>2025-06-30T13:19:53Z</time>
      </trkpt>
      <trkpt lat="48.62753" lon="-3.84496">
        <ele>8.3</ele>
        <time>2025-06-30T13:19:55Z</time>
      </trkpt>
      <trkpt lat="48.62744" lon="-3.84514">
        <ele>8.2</ele>
        <time>2025-06-30T13:19:57Z</time>
      </trkpt>
      <trkpt lat="48.62735" lon="-3.8453">
        <ele>8.1</ele>
        <time>2025-06-30T13:19:59Z</time>
      </trkpt>
      <trkpt lat="48.62725" lon="-3.84547">
        <ele>7.9</ele>
        <time>2025-06-30T13:20:01Z</time>
      </trkpt>
      <trkpt lat="48.62715" lon="-3.84563">
        <ele>7.5</ele>
        <time>2025-06-30T13:20:03Z</time>
      </trkpt>
      <trkpt lat="48.62706" lon="-3.8458">
        <ele>7.2</ele>
        <time>2025-06-30T13:20:05Z</time>
      </trkpt>
      <trkpt lat="48.62696" lon="-3.84597">
        <ele>6.9</ele>
        <time>2025-06-30T13:20:07Z</time>
      </trkpt>
      <trkpt lat="48.62686" lon="-3.84614">
        <ele>6.6</ele>
        <time>2025-06-30T13:20:09Z</time>
      </trkpt>
      <trkpt lat="48.62675" lon="-3.8463">
        <ele>6.3</ele>
        <time>2025-06-30T13:20:11Z</time>
      </trkpt>
      <trkpt lat="48.62664" lon="-3.84646">
        <ele>6.1</ele>
        <time>2025-06-30T13:20:13Z</time>
      </trkpt>
      <trkpt lat="48.62652" lon="-3.8466">
        <ele>6.1</ele>
        <time>2025-06-30T13:20:15Z</time>
      </trkpt>
      <trkpt lat="48.6264" lon="-3.84675">
        <ele>6.1</ele>
        <time>2025-06-30T13:20:17Z</time>
      </trkpt>
      <trkpt lat="48.62629" lon="-3.84689">
        <ele>6.1</ele>
        <time>2025-06-30T13:20:19Z</time>
      </trkpt>
      <trkpt lat="48.62618" lon="-3.84703">
        <ele>6.1</ele>
        <time>2025-06-30T13:20:21Z</time>
      </trkpt>
      <trkpt lat="48.62606" lon="-3.84717">
        <ele>6.2</ele>
        <time>2025-06-30T13:20:23Z</time>
      </trkpt>
      <trkpt lat="48.62596" lon="-3.84732">
        <ele>6.2</ele>
        <time>2025-06-30T13:20:25Z</time>
      </trkpt>
      <trkpt lat="48.62586" lon="-3.84748">
        <ele>6.2</ele>
        <time>2025-06-30T13:20:27Z</time>
      </trkpt>
      <trkpt lat="48.62576" lon="-3.84764">
        <ele>6.3</ele>
        <time>2025-06-30T13:20:29Z</time>
      </trkpt>
      <trkpt lat="48.62566" lon="-3.84781">
        <ele>6.4</ele>
        <time>2025-06-30T13:20:31Z</time>
      </trkpt>
      <trkpt lat="48.62556" lon="-3.84797">
        <ele>6.5</ele>
        <time>2025-06-30T13:20:33Z</time>
      </trkpt>
      <trkpt lat="48.62546" lon="-3.84813">
        <ele>6.5</ele>
        <time>2025-06-30T13:20:35Z</time>
      </trkpt>
      <trkpt lat="48.62536" lon="-3.84829">
        <ele>6.6</ele>
        <time>2025-06-30T13:20:37Z</time>
      </trkpt>
      <trkpt lat="48.62525" lon="-3.84845">
        <ele>6.6</ele>
        <time>2025-06-30T13:20:39Z</time>
      </trkpt>
      <trkpt lat="48.62514" lon="-3.8486">
        <ele>6.7</ele>
        <time>2025-06-30T13:20:41Z</time>
      </trkpt>
      <trkpt lat="48.62504" lon="-3.84875">
        <ele>6.8</ele>
        <time>2025-06-30T13:20:43Z</time>
      </trkpt>
      <trkpt lat="48.62493" lon="-3.84889">
        <ele>7</ele>
        <time>2025-06-30T13:20:45Z</time>
      </trkpt>
      <trkpt lat="48.62481" lon="-3.84903">
        <ele>7.2</ele>
        <time>2025-06-30T13:20:47Z</time>
      </trkpt>
      <trkpt lat="48.62471" lon="-3.84918">
        <ele>7.3</ele>
        <time>2025-06-30T13:20:49Z</time>
      </trkpt>
      <trkpt lat="48.6246" lon="-3.84932">
        <ele>7.4</ele>
        <time>2025-06-30T13:20:51Z</time>
      </trkpt>
      <trkpt lat="48.62449" lon="-3.84947">
        <ele>7.4</ele>
        <time>2025-06-30T13:20:53Z</time>
      </trkpt>
      <trkpt lat="48.62439" lon="-3.84962">
        <ele>7.4</ele>
        <time>2025-06-30T13:20:55Z</time>
      </trkpt>
      <trkpt lat="48.62428" lon="-3.84977">
        <ele>7.4</ele>
        <time>2025-06-30T13:20:57Z</time>
      </trkpt>
      <trkpt lat="48.62417" lon="-3.84994">
        <ele>7.4</ele>
        <time>2025-06-30T13:20:59Z</time>
      </trkpt>
      <trkpt lat="48.62407" lon="-3.85011">
        <ele>7.4</ele>
        <time>2025-06-30T13:21:01Z</time>
      </trkpt>
      <trkpt lat="48.62397" lon="-3.85028">
        <ele>7.4</ele>
        <time>2025-06-30T13:21:03Z</time>
      </trkpt>
      <trkpt lat="48.62386" lon="-3.85043">
        <ele>7.3</ele>
        <time>2025-06-30T13:21:05Z</time>
      </trkpt>
      <trkpt lat="48.62375" lon="-3.85059">
        <ele>7.3</ele>
        <time>2025-06-30T13:21:07Z</time>
      </trkpt>
      <trkpt lat="48.62362" lon="-3.85073">
        <ele>7.2</ele>
        <time>2025-06-30T13:21:09Z</time>
      </trkpt>
      <trkpt lat="48.6235" lon="-3.85088">
        <ele>7.1</ele>
        <time>2025-06-30T13:21:11Z</time>
      </trkpt>
      <trkpt lat="48.62337" lon="-3.85101">
        <ele>7</ele>
        <time>2025-06-30T13:21:13Z</time>
      </trkpt>
      <trkpt lat="48.62323" lon="-3.85114">
        <ele>6.8</ele>
        <time>2025-06-30T13:21:15Z</time>
      </trkpt>
      <trkpt lat="48.62308" lon="-3.85126">
        <ele>6.7</ele>
        <time>2025-06-30T13:21:17Z</time>
      </trkpt>
      <trkpt lat="48.62293" lon="-3.85136">
        <ele>6.5</ele>
        <time>2025-06-30T13:21:19Z</time>
      </trkpt>
      <trkpt lat="48.62277" lon="-3.85147">
        <ele>6.3</ele>
        <time>2025-06-30T13:21:21Z</time>
      </trkpt>
      <trkpt lat="48.6226" lon="-3.85156">
        <ele>6.2</ele>
        <time>2025-06-30T13:21:23Z</time>
      </trkpt>
      <trkpt lat="48.62252" lon="-3.85159">
        <ele>6.1</ele>
        <time>2025-06-30T13:21:24Z</time>
      </trkpt>
      <trkpt lat="48.62234" lon="-3.85166">
        <ele>6.1</ele>
        <time>2025-06-30T13:21:26Z</time>
      </trkpt>
      <trkpt lat="48.62217" lon="-3.85171">
        <ele>6.2</ele>
        <time>2025-06-30T13:21:28Z</time>
      </trkpt>
      <trkpt lat="48.622" lon="-3.85174">
        <ele>6.2</ele>
        <time>2025-06-30T13:21:30Z</time>
      </trkpt>
      <trkpt lat="48.62182" lon="-3.85177">
        <ele>6.3</ele>
        <time>2025-06-30T13:21:32Z</time>
      </trkpt>
      <trkpt lat="48.62165" lon="-3.85179">
        <ele>6.3</ele>
        <time>2025-06-30T13:21:34Z</time>
      </trkpt>
      <trkpt lat="48.62148" lon="-3.85182">
        <ele>6.4</ele>
        <time>2025-06-30T13:21:36Z</time>
      </trkpt>
      <trkpt lat="48.62132" lon="-3.85184">
        <ele>6.5</ele>
        <time>2025-06-30T13:21:38Z</time>
      </trkpt>
      <trkpt lat="48.62116" lon="-3.8519">
        <ele>6.5</ele>
        <time>2025-06-30T13:21:40Z</time>
      </trkpt>
      <trkpt lat="48.621" lon="-3.85197">
        <ele>6.6</ele>
        <time>2025-06-30T13:21:42Z</time>
      </trkpt>
      <trkpt lat="48.62085" lon="-3.85207">
        <ele>6.5</ele>
        <time>2025-06-30T13:21:44Z</time>
      </trkpt>
      <trkpt lat="48.62072" lon="-3.85222">
        <ele>6.4</ele>
        <time>2025-06-30T13:21:46Z</time>
      </trkpt>
      <trkpt lat="48.6206" lon="-3.8524">
        <ele>6.3</ele>
        <time>2025-06-30T13:21:48Z</time>
      </trkpt>
      <trkpt lat="48.62051" lon="-3.8526">
        <ele>6.2</ele>
        <time>2025-06-30T13:21:50Z</time>
      </trkpt>
      <trkpt lat="48.62043" lon="-3.85282">
        <ele>6.1</ele>
        <time>2025-06-30T13:21:52Z</time>
      </trkpt>
      <trkpt lat="48.62035" lon="-3.85304">
        <ele>6.2</ele>
        <time>2025-06-30T13:21:54Z</time>
      </trkpt>
      <trkpt lat="48.62028" lon="-3.85325">
        <ele>6.3</ele>
        <time>2025-06-30T13:21:56Z</time>
      </trkpt>
      <trkpt lat="48.6202" lon="-3.85346">
        <ele>6.4</ele>
        <time>2025-06-30T13:21:58Z</time>
      </trkpt>
      <trkpt lat="48.62011" lon="-3.85365">
        <ele>6.5</ele>
        <time>2025-06-30T13:22:00Z</time>
      </trkpt>
      <trkpt lat="48.62" lon="-3.85382">
        <ele>6.5</ele>
        <time>2025-06-30T13:22:02Z</time>
      </trkpt>
      <trkpt lat="48.61988" lon="-3.85397">
        <ele>6.5</ele>
        <time>2025-06-30T13:22:04Z</time>
      </trkpt>
      <trkpt lat="48.61974" lon="-3.8541">
        <ele>6.3</ele>
        <time>2025-06-30T13:22:06Z</time>
      </trkpt>
      <trkpt lat="48.61959" lon="-3.85423">
        <ele>6.1</ele>
        <time>2025-06-30T13:22:08Z</time>
      </trkpt>
      <trkpt lat="48.61944" lon="-3.85435">
        <ele>6.1</ele>
        <time>2025-06-30T13:22:10Z</time>
      </trkpt>
      <trkpt lat="48.61928" lon="-3.85446">
        <ele>6.2</ele>
        <time>2025-06-30T13:22:12Z</time>
      </trkpt>
      <trkpt lat="48.61913" lon="-3.85458">
        <ele>6.2</ele>
        <time>2025-06-30T13:22:14Z</time>
      </trkpt>
      <trkpt lat="48.61897" lon="-3.85467">
        <ele>6.2</ele>
        <time>2025-06-30T13:22:16Z</time>
      </trkpt>
      <trkpt lat="48.61881" lon="-3.85475">
        <ele>6.2</ele>
        <time>2025-06-30T13:22:18Z</time>
      </trkpt>
      <trkpt lat="48.61865" lon="-3.85484">
        <ele>6.1</ele>
        <time>2025-06-30T13:22:20Z</time>
      </trkpt>
      <trkpt lat="48.61849" lon="-3.85492">
        <ele>6.2</ele>
        <time>2025-06-30T13:22:22Z</time>
      </trkpt>
      <trkpt lat="48.61833" lon="-3.85498">
        <ele>6.3</ele>
        <time>2025-06-30T13:22:24Z</time>
      </trkpt>
      <trkpt lat="48.61817" lon="-3.85503">
        <ele>6.4</ele>
        <time>2025-06-30T13:22:26Z</time>
      </trkpt>
      <trkpt lat="48.61801" lon="-3.85506">
        <ele>6.6</ele>
        <time>2025-06-30T13:22:28Z</time>
      </trkpt>
      <trkpt lat="48.61785" lon="-3.85509">
        <ele>6.8</ele>
        <time>2025-06-30T13:22:30Z</time>
      </trkpt>
      <trkpt lat="48.6177" lon="-3.85514">
        <ele>6.9</ele>
        <time>2025-06-30T13:22:32Z</time>
      </trkpt>
      <trkpt lat="48.61754" lon="-3.85521">
        <ele>7</ele>
        <time>2025-06-30T13:22:34Z</time>
      </trkpt>
      <trkpt lat="48.6174" lon="-3.85532">
        <ele>7.1</ele>
        <time>2025-06-30T13:22:36Z</time>
      </trkpt>
      <trkpt lat="48.61727" lon="-3.85544">
        <ele>7.2</ele>
        <time>2025-06-30T13:22:38Z</time>
      </trkpt>
      <trkpt lat="48.61715" lon="-3.85559">
        <ele>7.3</ele>
        <time>2025-06-30T13:22:40Z</time>
      </trkpt>
      <trkpt lat="48.61703" lon="-3.85576">
        <ele>7.3</ele>
        <time>2025-06-30T13:22:42Z</time>
      </trkpt>
      <trkpt lat="48.61693" lon="-3.85594">
        <ele>7.4</ele>
        <time>2025-06-30T13:22:44Z</time>
      </trkpt>
      <trkpt lat="48.61683" lon="-3.85612">
        <ele>7.5</ele>
        <time>2025-06-30T13:22:46Z</time>
      </trkpt>
      <trkpt lat="48.61673" lon="-3.85631">
        <ele>7.7</ele>
        <time>2025-06-30T13:22:48Z</time>
      </trkpt>
      <trkpt lat="48.61663" lon="-3.85649">
        <ele>7.9</ele>
        <time>2025-06-30T13:22:50Z</time>
      </trkpt>
      <trkpt lat="48.61652" lon="-3.85666">
        <ele>8.1</ele>
        <time>2025-06-30T13:22:52Z</time>
      </trkpt>
      <trkpt lat="48.6164" lon="-3.85683">
        <ele>8.3</ele>
        <time>2025-06-30T13:22:54Z</time>
      </trkpt>
      <trkpt lat="48.61628" lon="-3.85699">
        <ele>8.5</ele>
        <time>2025-06-30T13:22:56Z</time>
      </trkpt>
      <trkpt lat="48.61616" lon="-3.85714">
        <ele>8.5</ele>
        <time>2025-06-30T13:22:58Z</time>
      </trkpt>
      <trkpt lat="48.61603" lon="-3.85729">
        <ele>8.5</ele>
        <time>2025-06-30T13:23:00Z</time>
      </trkpt>
      <trkpt lat="48.6159" lon="-3.85745">
        <ele>8.6</ele>
        <time>2025-06-30T13:23:02Z</time>
      </trkpt>
      <trkpt lat="48.61577" lon="-3.85761">
        <ele>8.7</ele>
        <time>2025-06-30T13:23:04Z</time>
      </trkpt>
      <trkpt lat="48.61565" lon="-3.85777">
        <ele>8.8</ele>
        <time>2025-06-30T13:23:06Z</time>
      </trkpt>
      <trkpt lat="48.61552" lon="-3.85793">
        <ele>8.9</ele>
        <time>2025-06-30T13:23:08Z</time>
      </trkpt>
      <trkpt lat="48.6154" lon="-3.85809">
        <ele>9</ele>
        <time>2025-06-30T13:23:10Z</time>
      </trkpt>
      <trkpt lat="48.61527" lon="-3.85824">
        <ele>9.1</ele>
        <time>2025-06-30T13:23:12Z</time>
      </trkpt>
      <trkpt lat="48.61514" lon="-3.85839">
        <ele>9.1</ele>
        <time>2025-06-30T13:23:14Z</time>
      </trkpt>
      <trkpt lat="48.615" lon="-3.85853">
        <ele>9</ele>
        <time>2025-06-30T13:23:16Z</time>
      </trkpt>
      <trkpt lat="48.61485" lon="-3.85865">
        <ele>8.9</ele>
        <time>2025-06-30T13:23:18Z</time>
      </trkpt>
      <trkpt lat="48.61471" lon="-3.85877">
        <ele>8.8</ele>
        <time>2025-06-30T13:23:20Z</time>
      </trkpt>
      <trkpt lat="48.61454" lon="-3.85886">
        <ele>8.7</ele>
        <time>2025-06-30T13:23:22Z</time>
      </trkpt>
      <trkpt lat="48.61437" lon="-3.85894">
        <ele>8.5</ele>
        <time>2025-06-30T13:23:24Z</time>
      </trkpt>
      <trkpt lat="48.61421" lon="-3.85901">
        <ele>8.3</ele>
        <time>2025-06-30T13:23:26Z</time>
      </trkpt>
      <trkpt lat="48.61412" lon="-3.85904">
        <ele>8.2</ele>
        <time>2025-06-30T13:23:27Z</time>
      </trkpt>
      <trkpt lat="48.61402" lon="-3.85907">
        <ele>8</ele>
        <time>2025-06-30T13:23:28Z</time>
      </trkpt>
      <trkpt lat="48.61393" lon="-3.85909">
        <ele>8</ele>
        <time>2025-06-30T13:23:29Z</time>
      </trkpt>
      <trkpt lat="48.61384" lon="-3.85912">
        <ele>7.9</ele>
        <time>2025-06-30T13:23:30Z</time>
      </trkpt>
      <trkpt lat="48.61374" lon="-3.85913">
        <ele>7.8</ele>
        <time>2025-06-30T13:23:31Z</time>
      </trkpt>
      <trkpt lat="48.61365" lon="-3.85914">
        <ele>7.7</ele>
        <time>2025-06-30T13:23:32Z</time>
      </trkpt>
      <trkpt lat="48.61356" lon="-3.85914">
        <ele>7.6</ele>
        <time>2025-06-30T13:23:33Z</time>
      </trkpt>
      <trkpt lat="48.61346" lon="-3.85913">
        <ele>7.4</ele>
        <time>2025-06-30T13:23:34Z</time>
      </trkpt>
      <trkpt lat="48.61337" lon="-3.85913">
        <ele>7.3</ele>
        <time>2025-06-30T13:23:35Z</time>
      </trkpt>
      <trkpt lat="48.61328" lon="-3.8591">
        <ele>7.3</ele>
        <time>2025-06-30T13:23:36Z</time>
      </trkpt>
      <trkpt lat="48.61318" lon="-3.85909">
        <ele>7.3</ele>
        <time>2025-06-30T13:23:37Z</time>
      </trkpt>
      <trkpt lat="48.61309" lon="-3.85909">
        <ele>7.3</ele>
        <time>2025-06-30T13:23:38Z</time>
      </trkpt>
      <trkpt lat="48.613" lon="-3.85908">
        <ele>7.3</ele>
        <time>2025-06-30T13:23:39Z</time>
      </trkpt>
      <trkpt lat="48.61291" lon="-3.85906">
        <ele>7.3</ele>
        <time>2025-06-30T13:23:40Z</time>
      </trkpt>
      <trkpt lat="48.61282" lon="-3.85903">
        <ele>7.2</ele>
        <time>2025-06-30T13:23:41Z</time>
      </trkpt>
      <trkpt lat="48.61273" lon="-3.85901">
        <ele>7.2</ele>
        <time>2025-06-30T13:23:42Z</time>
      </trkpt>
      <trkpt lat="48.61264" lon="-3.85899">
        <ele>7.1</ele>
        <time>2025-06-30T13:23:43Z</time>
      </trkpt>
      <trkpt lat="48.61255" lon="-3.85896">
        <ele>7.1</ele>
        <time>2025-06-30T13:23:44Z</time>
      </trkpt>
      <trkpt lat="48.61246" lon="-3.85893">
        <ele>7.2</ele>
        <time>2025-06-30T13:23:45Z</time>
      </trkpt>
      <trkpt lat="48.61237" lon="-3.8589">
        <ele>7.2</ele>
        <time>2025-06-30T13:23:46Z</time>
      </trkpt>
      <trkpt lat="48.61219" lon="-3.85884">
        <ele>7.3</ele>
        <time>2025-06-30T13:23:48Z</time>
      </trkpt>
      <trkpt lat="48.61203" lon="-3.85875">
        <ele>7.4</ele>
        <time>2025-06-30T13:23:50Z</time>
      </trkpt>
      <trkpt lat="48.61194" lon="-3.8587">
        <ele>7.4</ele>
        <time>2025-06-30T13:23:51Z</time>
      </trkpt>
      <trkpt lat="48.61177" lon="-3.85861">
        <ele>7.4</ele>
        <time>2025-06-30T13:23:53Z</time>
      </trkpt>
      <trkpt lat="48.61162" lon="-3.85849">
        <ele>7.6</ele>
        <time>2025-06-30T13:23:55Z</time>
      </trkpt>
      <trkpt lat="48.61146" lon="-3.85837">
        <ele>7.7</ele>
        <time>2025-06-30T13:23:57Z</time>
      </trkpt>
      <trkpt lat="48.61131" lon="-3.85825">
        <ele>7.9</ele>
        <time>2025-06-30T13:23:59Z</time>
      </trkpt>
      <trkpt lat="48.61115" lon="-3.85814">
        <ele>8.1</ele>
        <time>2025-06-30T13:24:01Z</time>
      </trkpt>
      <trkpt lat="48.611" lon="-3.85803">
        <ele>8.4</ele>
        <time>2025-06-30T13:24:03Z</time>
      </trkpt>
      <trkpt lat="48.61085" lon="-3.85793">
        <ele>8.6</ele>
        <time>2025-06-30T13:24:05Z</time>
      </trkpt>
      <trkpt lat="48.61071" lon="-3.85781">
        <ele>8.6</ele>
        <time>2025-06-30T13:24:07Z</time>
      </trkpt>
      <trkpt lat="48.61057" lon="-3.85767">
        <ele>8.5</ele>
        <time>2025-06-30T13:24:09Z</time>
      </trkpt>
      <trkpt lat="48.61044" lon="-3.8575">
        <ele>8.4</ele>
        <time>2025-06-30T13:24:11Z</time>
      </trkpt>
      <trkpt lat="48.61031" lon="-3.85733">
        <ele>8.3</ele>
        <time>2025-06-30T13:24:13Z</time>
      </trkpt>
      <trkpt lat="48.61019" lon="-3.85713">
        <ele>8.3</ele>
        <time>2025-06-30T13:24:15Z</time>
      </trkpt>
      <trkpt lat="48.61007" lon="-3.85693">
        <ele>8.4</ele>
        <time>2025-06-30T13:24:17Z</time>
      </trkpt>
      <trkpt lat="48.60995" lon="-3.85673">
        <ele>8.4</ele>
        <time>2025-06-30T13:24:19Z</time>
      </trkpt>
      <trkpt lat="48.60984" lon="-3.85652">
        <ele>8.3</ele>
        <time>2025-06-30T13:24:21Z</time>
      </trkpt>
      <trkpt lat="48.60979" lon="-3.8564">
        <ele>8.3</ele>
        <time>2025-06-30T13:24:22Z</time>
      </trkpt>
      <trkpt lat="48.60974" lon="-3.85629">
        <ele>8.3</ele>
        <time>2025-06-30T13:24:23Z</time>
      </trkpt>
      <trkpt lat="48.60969" lon="-3.85617">
        <ele>8.2</ele>
        <time>2025-06-30T13:24:24Z</time>
      </trkpt>
      <trkpt lat="48.60964" lon="-3.85605">
        <ele>8.1</ele>
        <time>2025-06-30T13:24:25Z</time>
      </trkpt>
      <trkpt lat="48.6096" lon="-3.85592">
        <ele>7.9</ele>
        <time>2025-06-30T13:24:26Z</time>
      </trkpt>
      <trkpt lat="48.60955" lon="-3.85579">
        <ele>7.7</ele>
        <time>2025-06-30T13:24:27Z</time>
      </trkpt>
      <trkpt lat="48.6095" lon="-3.85567">
        <ele>7.5</ele>
        <time>2025-06-30T13:24:28Z</time>
      </trkpt>
      <trkpt lat="48.60944" lon="-3.85554">
        <ele>7.5</ele>
        <time>2025-06-30T13:24:29Z</time>
      </trkpt>
      <trkpt lat="48.60939" lon="-3.85541">
        <ele>7.5</ele>
        <time>2025-06-30T13:24:30Z</time>
      </trkpt>
      <trkpt lat="48.60934" lon="-3.85528">
        <ele>7.5</ele>
        <time>2025-06-30T13:24:31Z</time>
      </trkpt>
      <trkpt lat="48.60929" lon="-3.85516">
        <ele>7.5</ele>
        <time>2025-06-30T13:24:32Z</time>
      </trkpt>
      <trkpt lat="48.60923" lon="-3.85504">
        <ele>7.5</ele>
        <time>2025-06-30T13:24:33Z</time>
      </trkpt>
      <trkpt lat="48.60917" lon="-3.85493">
        <ele>7.5</ele>
        <time>2025-06-30T13:24:34Z</time>
      </trkpt>
      <trkpt lat="48.60911" lon="-3.85482">
        <ele>7.4</ele>
        <time>2025-06-30T13:24:35Z</time>
      </trkpt>
      <trkpt lat="48.60905" lon="-3.85471">
        <ele>7.3</ele>
        <time>2025-06-30T13:24:36Z</time>
      </trkpt>
      <trkpt lat="48.60898" lon="-3.85461">
        <ele>7.3</ele>
        <time>2025-06-30T13:24:37Z</time>
      </trkpt>
      <trkpt lat="48.60892" lon="-3.8545">
        <ele>7.1</ele>
        <time>2025-06-30T13:24:38Z</time>
      </trkpt>
      <trkpt lat="48.60885" lon="-3.8544">
        <ele>7</ele>
        <time>2025-06-30T13:24:39Z</time>
      </trkpt>
      <trkpt lat="48.60878" lon="-3.85429">
        <ele>6.9</ele>
        <time>2025-06-30T13:24:40Z</time>
      </trkpt>
      <trkpt lat="48.60872" lon="-3.85419">
        <ele>6.8</ele>
        <time>2025-06-30T13:24:41Z</time>
      </trkpt>
      <trkpt lat="48.60865" lon="-3.85409">
        <ele>6.7</ele>
        <time>2025-06-30T13:24:42Z</time>
      </trkpt>
      <trkpt lat="48.60858" lon="-3.85398">
        <ele>6.6</ele>
        <time>2025-06-30T13:24:43Z</time>
      </trkpt>
      <trkpt lat="48.60852" lon="-3.85387">
        <ele>6.6</ele>
        <time>2025-06-30T13:24:44Z</time>
      </trkpt>
      <trkpt lat="48.60845" lon="-3.85377">
        <ele>6.5</ele>
        <time>2025-06-30T13:24:45Z</time>
      </trkpt>
      <trkpt lat="48.60838" lon="-3.85367">
        <ele>6.5</ele>
        <time>2025-06-30T13:24:46Z</time>
      </trkpt>
      <trkpt lat="48.60832" lon="-3.85357">
        <ele>6.4</ele>
        <time>2025-06-30T13:24:47Z</time>
      </trkpt>
      <trkpt lat="48.60825" lon="-3.85346">
        <ele>6.4</ele>
        <time>2025-06-30T13:24:48Z</time>
      </trkpt>
      <trkpt lat="48.60819" lon="-3.85336">
        <ele>6.3</ele>
        <time>2025-06-30T13:24:49Z</time>
      </trkpt>
      <trkpt lat="48.60812" lon="-3.85326">
        <ele>6.4</ele>
        <time>2025-06-30T13:24:50Z</time>
      </trkpt>
      <trkpt lat="48.60806" lon="-3.85316">
        <ele>6.4</ele>
        <time>2025-06-30T13:24:51Z</time>
      </trkpt>
      <trkpt lat="48.60799" lon="-3.85306">
        <ele>6.5</ele>
        <time>2025-06-30T13:24:52Z</time>
      </trkpt>
      <trkpt lat="48.60787" lon="-3.85287">
        <ele>6.6</ele>
        <time>2025-06-30T13:24:54Z</time>
      </trkpt>
      <trkpt lat="48.60776" lon="-3.85267">
        <ele>6.6</ele>
        <time>2025-06-30T13:24:56Z</time>
      </trkpt>
      <trkpt lat="48.60766" lon="-3.85247">
        <ele>6.6</ele>
        <time>2025-06-30T13:24:58Z</time>
      </trkpt>
      <trkpt lat="48.60755" lon="-3.85226">
        <ele>6.5</ele>
        <time>2025-06-30T13:25:00Z</time>
      </trkpt>
      <trkpt lat="48.60745" lon="-3.85205">
        <ele>6.5</ele>
        <time>2025-06-30T13:25:02Z</time>
      </trkpt>
      <trkpt lat="48.60734" lon="-3.85184">
        <ele>6.5</ele>
        <time>2025-06-30T13:25:04Z</time>
      </trkpt>
      <trkpt lat="48.60723" lon="-3.85164">
        <ele>6.7</ele>
        <time>2025-06-30T13:25:06Z</time>
      </trkpt>
      <trkpt lat="48.60712" lon="-3.85145">
        <ele>6.9</ele>
        <time>2025-06-30T13:25:08Z</time>
      </trkpt>
      <trkpt lat="48.60699" lon="-3.85129">
        <ele>7.3</ele>
        <time>2025-06-30T13:25:10Z</time>
      </trkpt>
      <trkpt lat="48.60687" lon="-3.85115">
        <ele>7.6</ele>
        <time>2025-06-30T13:25:12Z</time>
      </trkpt>
      <trkpt lat="48.60675" lon="-3.85102">
        <ele>7.9</ele>
        <time>2025-06-30T13:25:14Z</time>
      </trkpt>
      <trkpt lat="48.60663" lon="-3.85089">
        <ele>8.1</ele>
        <time>2025-06-30T13:25:16Z</time>
      </trkpt>
      <trkpt lat="48.6065" lon="-3.85079">
        <ele>8.1</ele>
        <time>2025-06-30T13:25:18Z</time>
      </trkpt>
      <trkpt lat="48.60636" lon="-3.85068">
        <ele>8.1</ele>
        <time>2025-06-30T13:25:20Z</time>
      </trkpt>
      <trkpt lat="48.60622" lon="-3.85058">
        <ele>8</ele>
        <time>2025-06-30T13:25:22Z</time>
      </trkpt>
      <trkpt lat="48.60608" lon="-3.85048">
        <ele>7.9</ele>
        <time>2025-06-30T13:25:24Z</time>
      </trkpt>
      <trkpt lat="48.60594" lon="-3.85037">
        <ele>7.8</ele>
        <time>2025-06-30T13:25:26Z</time>
      </trkpt>
      <trkpt lat="48.60579" lon="-3.85027">
        <ele>7.7</ele>
        <time>2025-06-30T13:25:28Z</time>
      </trkpt>
      <trkpt lat="48.60565" lon="-3.85017">
        <ele>7.7</ele>
        <time>2025-06-30T13:25:30Z</time>
      </trkpt>
      <trkpt lat="48.60551" lon="-3.85007">
        <ele>7.8</ele>
        <time>2025-06-30T13:25:32Z</time>
      </trkpt>
      <trkpt lat="48.60536" lon="-3.84997">
        <ele>7.8</ele>
        <time>2025-06-30T13:25:34Z</time>
      </trkpt>
      <trkpt lat="48.60521" lon="-3.84987">
        <ele>7.7</ele>
        <time>2025-06-30T13:25:36Z</time>
      </trkpt>
      <trkpt lat="48.60507" lon="-3.84976">
        <ele>7.5</ele>
        <time>2025-06-30T13:25:38Z</time>
      </trkpt>
      <trkpt lat="48.60492" lon="-3.84966">
        <ele>7.3</ele>
        <time>2025-06-30T13:25:40Z</time>
      </trkpt>
      <trkpt lat="48.60477" lon="-3.84955">
        <ele>7.1</ele>
        <time>2025-06-30T13:25:42Z</time>
      </trkpt>
      <trkpt lat="48.60461" lon="-3.84944">
        <ele>7</ele>
        <time>2025-06-30T13:25:44Z</time>
      </trkpt>
      <trkpt lat="48.60447" lon="-3.84934">
        <ele>6.9</ele>
        <time>2025-06-30T13:25:46Z</time>
      </trkpt>
      <trkpt lat="48.60432" lon="-3.84921">
        <ele>6.7</ele>
        <time>2025-06-30T13:25:48Z</time>
      </trkpt>
      <trkpt lat="48.60418" lon="-3.84909">
        <ele>6.6</ele>
        <time>2025-06-30T13:25:50Z</time>
      </trkpt>
      <trkpt lat="48.60404" lon="-3.84896">
        <ele>6.6</ele>
        <time>2025-06-30T13:25:52Z</time>
      </trkpt>
      <trkpt lat="48.6039" lon="-3.84882">
        <ele>6.6</ele>
        <time>2025-06-30T13:25:54Z</time>
      </trkpt>
      <trkpt lat="48.60376" lon="-3.84869">
        <ele>6.6</ele>
        <time>2025-06-30T13:25:56Z</time>
      </trkpt>
      <trkpt lat="48.60362" lon="-3.84855">
        <ele>6.6</ele>
        <time>2025-06-30T13:25:58Z</time>
      </trkpt>
      <trkpt lat="48.60349" lon="-3.8484">
        <ele>6.6</ele>
        <time>2025-06-30T13:26:00Z</time>
      </trkpt>
      <trkpt lat="48.60336" lon="-3.84825">
        <ele>6.6</ele>
        <time>2025-06-30T13:26:02Z</time>
      </trkpt>
      <trkpt lat="48.60323" lon="-3.84809">
        <ele>6.7</ele>
        <time>2025-06-30T13:26:04Z</time>
      </trkpt>
      <trkpt lat="48.60311" lon="-3.84793">
        <ele>6.7</ele>
        <time>2025-06-30T13:26:06Z</time>
      </trkpt>
      <trkpt lat="48.60299" lon="-3.84776">
        <ele>6.7</ele>
        <time>2025-06-30T13:26:08Z</time>
      </trkpt>
      <trkpt lat="48.60286" lon="-3.8476">
        <ele>6.6</ele>
        <time>2025-06-30T13:26:10Z</time>
      </trkpt>
      <trkpt lat="48.60274" lon="-3.84743">
        <ele>6.5</ele>
        <time>2025-06-30T13:26:12Z</time>
      </trkpt>
      <trkpt lat="48.60261" lon="-3.84725">
        <ele>6.5</ele>
        <time>2025-06-30T13:26:14Z</time>
      </trkpt>
      <trkpt lat="48.60249" lon="-3.84708">
        <ele>6.6</ele>
        <time>2025-06-30T13:26:16Z</time>
      </trkpt>
      <trkpt lat="48.60237" lon="-3.84692">
        <ele>6.6</ele>
        <time>2025-06-30T13:26:18Z</time>
      </trkpt>
      <trkpt lat="48.60225" lon="-3.84674">
        <ele>6.6</ele>
        <time>2025-06-30T13:26:20Z</time>
      </trkpt>
      <trkpt lat="48.60214" lon="-3.84657">
        <ele>6.6</ele>
        <time>2025-06-30T13:26:22Z</time>
      </trkpt>
      <trkpt lat="48.60202" lon="-3.84639">
        <ele>6.6</ele>
        <time>2025-06-30T13:26:24Z</time>
      </trkpt>
      <trkpt lat="48.6019" lon="-3.8462">
        <ele>6.6</ele>
        <time>2025-06-30T13:26:26Z</time>
      </trkpt>
      <trkpt lat="48.60179" lon="-3.84602">
        <ele>6.7</ele>
        <time>2025-06-30T13:26:28Z</time>
      </trkpt>
      <trkpt lat="48.60169" lon="-3.84583">
        <ele>6.7</ele>
        <time>2025-06-30T13:26:30Z</time>
      </trkpt>
      <trkpt lat="48.60159" lon="-3.84563">
        <ele>6.8</ele>
        <time>2025-06-30T13:26:32Z</time>
      </trkpt>
      <trkpt lat="48.6015" lon="-3.84544">
        <ele>6.8</ele>
        <time>2025-06-30T13:26:34Z</time>
      </trkpt>
      <trkpt lat="48.60141" lon="-3.84525">
        <ele>6.8</ele>
        <time>2025-06-30T13:26:36Z</time>
      </trkpt>
      <trkpt lat="48.60133" lon="-3.84504">
        <ele>6.7</ele>
        <time>2025-06-30T13:26:38Z</time>
      </trkpt>
      <trkpt lat="48.60124" lon="-3.84483">
        <ele>6.7</ele>
        <time>2025-06-30T13:26:40Z</time>
      </trkpt>
      <trkpt lat="48.60115" lon="-3.84463">
        <ele>6.7</ele>
        <time>2025-06-30T13:26:42Z</time>
      </trkpt>
      <trkpt lat="48.60105" lon="-3.84442">
        <ele>6.7</ele>
        <time>2025-06-30T13:26:44Z</time>
      </trkpt>
      <trkpt lat="48.60093" lon="-3.84424">
        <ele>6.6</ele>
        <time>2025-06-30T13:26:46Z</time>
      </trkpt>
      <trkpt lat="48.60082" lon="-3.84405">
        <ele>6.6</ele>
        <time>2025-06-30T13:26:48Z</time>
      </trkpt>
      <trkpt lat="48.6007" lon="-3.84388">
        <ele>6.6</ele>
        <time>2025-06-30T13:26:50Z</time>
      </trkpt>
      <trkpt lat="48.60058" lon="-3.84372">
        <ele>6.5</ele>
        <time>2025-06-30T13:26:52Z</time>
      </trkpt>
      <trkpt lat="48.60045" lon="-3.84356">
        <ele>6.5</ele>
        <time>2025-06-30T13:26:54Z</time>
      </trkpt>
      <trkpt lat="48.60034" lon="-3.84339">
        <ele>6.5</ele>
        <time>2025-06-30T13:26:56Z</time>
      </trkpt>
      <trkpt lat="48.60023" lon="-3.84322">
        <ele>6.6</ele>
        <time>2025-06-30T13:26:58Z</time>
      </trkpt>
      <trkpt lat="48.60011" lon="-3.84307">
        <ele>6.7</ele>
        <time>2025-06-30T13:27:00Z</time>
      </trkpt>
      <trkpt lat="48.59999" lon="-3.84292">
        <ele>6.8</ele>
        <time>2025-06-30T13:27:02Z</time>
      </trkpt>
      <trkpt lat="48.59987" lon="-3.84276">
        <ele>6.7</ele>
        <time>2025-06-30T13:27:04Z</time>
      </trkpt>
      <trkpt lat="48.59975" lon="-3.84259">
        <ele>6.6</ele>
        <time>2025-06-30T13:27:06Z</time>
      </trkpt>
      <trkpt lat="48.59963" lon="-3.84243">
        <ele>6.6</ele>
        <time>2025-06-30T13:27:08Z</time>
      </trkpt>
      <trkpt lat="48.59951" lon="-3.84226">
        <ele>6.6</ele>
        <time>2025-06-30T13:27:10Z</time>
      </trkpt>
      <trkpt lat="48.59939" lon="-3.8421">
        <ele>6.5</ele>
        <time>2025-06-30T13:27:12Z</time>
      </trkpt>
      <trkpt lat="48.59926" lon="-3.84196">
        <ele>6.5</ele>
        <time>2025-06-30T13:27:14Z</time>
      </trkpt>
      <trkpt lat="48.59912" lon="-3.84182">
        <ele>6.5</ele>
        <time>2025-06-30T13:27:16Z</time>
      </trkpt>
      <trkpt lat="48.59898" lon="-3.8417">
        <ele>6.3</ele>
        <time>2025-06-30T13:27:18Z</time>
      </trkpt>
      <trkpt lat="48.59883" lon="-3.8416">
        <ele>6.1</ele>
        <time>2025-06-30T13:27:20Z</time>
      </trkpt>
      <trkpt lat="48.59868" lon="-3.84151">
        <ele>6.2</ele>
        <time>2025-06-30T13:27:22Z</time>
      </trkpt>
      <trkpt lat="48.59853" lon="-3.84141">
        <ele>6.2</ele>
        <time>2025-06-30T13:27:24Z</time>
      </trkpt>
      <trkpt lat="48.59838" lon="-3.84131">
        <ele>6.2</ele>
        <time>2025-06-30T13:27:26Z</time>
      </trkpt>
      <trkpt lat="48.59823" lon="-3.84122">
        <ele>6</ele>
        <time>2025-06-30T13:27:28Z</time>
      </trkpt>
      <trkpt lat="48.59809" lon="-3.84112">
        <ele>6</ele>
        <time>2025-06-30T13:27:30Z</time>
      </trkpt>
      <trkpt lat="48.59794" lon="-3.84104">
        <ele>6.1</ele>
        <time>2025-06-30T13:27:32Z</time>
      </trkpt>
      <trkpt lat="48.5978" lon="-3.84093">
        <ele>6.2</ele>
        <time>2025-06-30T13:27:34Z</time>
      </trkpt>
      <trkpt lat="48.59765" lon="-3.84084">
        <ele>6.2</ele>
        <time>2025-06-30T13:27:36Z</time>
      </trkpt>
      <trkpt lat="48.59751" lon="-3.84075">
        <ele>6.3</ele>
        <time>2025-06-30T13:27:38Z</time>
      </trkpt>
      <trkpt lat="48.59736" lon="-3.84066">
        <ele>6.3</ele>
        <time>2025-06-30T13:27:40Z</time>
      </trkpt>
      <trkpt lat="48.59722" lon="-3.84056">
        <ele>6.4</ele>
        <time>2025-06-30T13:27:42Z</time>
      </trkpt>
      <trkpt lat="48.59707" lon="-3.84047">
        <ele>6.4</ele>
        <time>2025-06-30T13:27:44Z</time>
      </trkpt>
      <trkpt lat="48.59692" lon="-3.8404">
        <ele>6.5</ele>
        <time>2025-06-30T13:27:46Z</time>
      </trkpt>
      <trkpt lat="48.59676" lon="-3.84036">
        <ele>6.5</ele>
        <time>2025-06-30T13:27:48Z</time>
      </trkpt>
      <trkpt lat="48.5966" lon="-3.84033">
        <ele>6.4</ele>
        <time>2025-06-30T13:27:50Z</time>
      </trkpt>
      <trkpt lat="48.59644" lon="-3.84032">
        <ele>6.4</ele>
        <time>2025-06-30T13:27:52Z</time>
      </trkpt>
      <trkpt lat="48.59628" lon="-3.84032">
        <ele>6.4</ele>
        <time>2025-06-30T13:27:54Z</time>
      </trkpt>
      <trkpt lat="48.59612" lon="-3.84032">
        <ele>6.4</ele>
        <time>2025-06-30T13:27:56Z</time>
      </trkpt>
      <trkpt lat="48.59596" lon="-3.84032">
        <ele>6.4</ele>
        <time>2025-06-30T13:27:58Z</time>
      </trkpt>
      <trkpt lat="48.5958" lon="-3.84032">
        <ele>6.4</ele>
        <time>2025-06-30T13:28:00Z</time>
      </trkpt>
      <trkpt lat="48.59564" lon="-3.84032">
        <ele>6.3</ele>
        <time>2025-06-30T13:28:02Z</time>
      </trkpt>
      <trkpt lat="48.59548" lon="-3.84032">
        <ele>6.3</ele>
        <time>2025-06-30T13:28:04Z</time>
      </trkpt>
      <trkpt lat="48.59531" lon="-3.84033">
        <ele>6.3</ele>
        <time>2025-06-30T13:28:06Z</time>
      </trkpt>
      <trkpt lat="48.59515" lon="-3.84033">
        <ele>6.3</ele>
        <time>2025-06-30T13:28:08Z</time>
      </trkpt>
      <trkpt lat="48.59498" lon="-3.84033">
        <ele>6.3</ele>
        <time>2025-06-30T13:28:10Z</time>
      </trkpt>
      <trkpt lat="48.59482" lon="-3.84033">
        <ele>6.4</ele>
        <time>2025-06-30T13:28:12Z</time>
      </trkpt>
      <trkpt lat="48.59466" lon="-3.84034">
        <ele>6.4</ele>
        <time>2025-06-30T13:28:14Z</time>
      </trkpt>
      <trkpt lat="48.5945" lon="-3.84033">
        <ele>6.4</ele>
        <time>2025-06-30T13:28:16Z</time>
      </trkpt>
      <trkpt lat="48.59434" lon="-3.84033">
        <ele>6.5</ele>
        <time>2025-06-30T13:28:18Z</time>
      </trkpt>
      <trkpt lat="48.59418" lon="-3.84032">
        <ele>6.5</ele>
        <time>2025-06-30T13:28:20Z</time>
      </trkpt>
      <trkpt lat="48.59401" lon="-3.84031">
        <ele>6.5</ele>
        <time>2025-06-30T13:28:22Z</time>
      </trkpt>
      <trkpt lat="48.59385" lon="-3.84029">
        <ele>6.4</ele>
        <time>2025-06-30T13:28:24Z</time>
      </trkpt>
      <trkpt lat="48.59368" lon="-3.84025">
        <ele>6.4</ele>
        <time>2025-06-30T13:28:26Z</time>
      </trkpt>
      <trkpt lat="48.59351" lon="-3.8402">
        <ele>6.4</ele>
        <time>2025-06-30T13:28:28Z</time>
      </trkpt>
      <trkpt lat="48.59335" lon="-3.84014">
        <ele>6.4</ele>
        <time>2025-06-30T13:28:30Z</time>
      </trkpt>
      <trkpt lat="48.59318" lon="-3.84004">
        <ele>6.3</ele>
        <time>2025-06-30T13:28:32Z</time>
      </trkpt>
      <trkpt lat="48.59302" lon="-3.83995">
        <ele>6.3</ele>
        <time>2025-06-30T13:28:34Z</time>
      </trkpt>
      <trkpt lat="48.59285" lon="-3.83987">
        <ele>6.3</ele>
        <time>2025-06-30T13:28:36Z</time>
      </trkpt>
      <trkpt lat="48.59269" lon="-3.83978">
        <ele>6.4</ele>
        <time>2025-06-30T13:28:38Z</time>
      </trkpt>
      <trkpt lat="48.59252" lon="-3.83969">
        <ele>6.4</ele>
        <time>2025-06-30T13:28:40Z</time>
      </trkpt>
      <trkpt lat="48.59236" lon="-3.83961">
        <ele>6.5</ele>
        <time>2025-06-30T13:28:42Z</time>
      </trkpt>
      <trkpt lat="48.59219" lon="-3.83952">
        <ele>6.5</ele>
        <time>2025-06-30T13:28:44Z</time>
      </trkpt>
      <trkpt lat="48.59204" lon="-3.83941">
        <ele>6.6</ele>
        <time>2025-06-30T13:28:46Z</time>
      </trkpt>
      <trkpt lat="48.59187" lon="-3.83932">
        <ele>6.6</ele>
        <time>2025-06-30T13:28:48Z</time>
      </trkpt>
      <trkpt lat="48.59171" lon="-3.83923">
        <ele>6.6</ele>
        <time>2025-06-30T13:28:50Z</time>
      </trkpt>
      <trkpt lat="48.59155" lon="-3.83913">
        <ele>6.6</ele>
        <time>2025-06-30T13:28:52Z</time>
      </trkpt>
      <trkpt lat="48.59138" lon="-3.83905">
        <ele>6.7</ele>
        <time>2025-06-30T13:28:54Z</time>
      </trkpt>
      <trkpt lat="48.59129" lon="-3.839">
        <ele>6.8</ele>
        <time>2025-06-30T13:28:55Z</time>
      </trkpt>
      <trkpt lat="48.5912" lon="-3.83896">
        <ele>6.8</ele>
        <time>2025-06-30T13:28:56Z</time>
      </trkpt>
      <trkpt lat="48.59103" lon="-3.83887">
        <ele>6.9</ele>
        <time>2025-06-30T13:28:58Z</time>
      </trkpt>
      <trkpt lat="48.59086" lon="-3.83879">
        <ele>7</ele>
        <time>2025-06-30T13:29:00Z</time>
      </trkpt>
      <trkpt lat="48.59077" lon="-3.83875">
        <ele>7.1</ele>
        <time>2025-06-30T13:29:01Z</time>
      </trkpt>
      <trkpt lat="48.59069" lon="-3.8387">
        <ele>7.1</ele>
        <time>2025-06-30T13:29:02Z</time>
      </trkpt>
      <trkpt lat="48.5906" lon="-3.83864">
        <ele>7.2</ele>
        <time>2025-06-30T13:29:03Z</time>
      </trkpt>
      <trkpt lat="48.59052" lon="-3.83859">
        <ele>7.2</ele>
        <time>2025-06-30T13:29:04Z</time>
      </trkpt>
      <trkpt lat="48.59043" lon="-3.83856">
        <ele>7.1</ele>
        <time>2025-06-30T13:29:05Z</time>
      </trkpt>
      <trkpt lat="48.59034" lon="-3.83851">
        <ele>7.1</ele>
        <time>2025-06-30T13:29:06Z</time>
      </trkpt>
      <trkpt lat="48.59026" lon="-3.83846">
        <ele>7.1</ele>
        <time>2025-06-30T13:29:07Z</time>
      </trkpt>
      <trkpt lat="48.59017" lon="-3.83841">
        <ele>7.1</ele>
        <time>2025-06-30T13:29:08Z</time>
      </trkpt>
      <trkpt lat="48.59009" lon="-3.83836">
        <ele>7.1</ele>
        <time>2025-06-30T13:29:09Z</time>
      </trkpt>
      <trkpt lat="48.59" lon="-3.83832">
        <ele>7.1</ele>
        <time>2025-06-30T13:29:10Z</time>
      </trkpt>
      <trkpt lat="48.58991" lon="-3.83827">
        <ele>7.1</ele>
        <time>2025-06-30T13:29:11Z</time>
      </trkpt>
      <trkpt lat="48.58982" lon="-3.83823">
        <ele>7.1</ele>
        <time>2025-06-30T13:29:12Z</time>
      </trkpt>
      <trkpt lat="48.58974" lon="-3.83818">
        <ele>7.2</ele>
        <time>2025-06-30T13:29:13Z</time>
      </trkpt>
      <trkpt lat="48.58965" lon="-3.83814">
        <ele>7.2</ele>
        <time>2025-06-30T13:29:14Z</time>
      </trkpt>
      <trkpt lat="48.58948" lon="-3.83805">
        <ele>7.2</ele>
        <time>2025-06-30T13:29:16Z</time>
      </trkpt>
      <trkpt lat="48.58932" lon="-3.83796">
        <ele>7.3</ele>
        <time>2025-06-30T13:29:18Z</time>
      </trkpt>
      <trkpt lat="48.58916" lon="-3.83787">
        <ele>7.4</ele>
        <time>2025-06-30T13:29:20Z</time>
      </trkpt>
      <trkpt lat="48.589" lon="-3.83779">
        <ele>7.5</ele>
        <time>2025-06-30T13:29:22Z</time>
      </trkpt>
      <trkpt lat="48.58884" lon="-3.8377">
        <ele>7.5</ele>
        <time>2025-06-30T13:29:24Z</time>
      </trkpt>
      <trkpt lat="48.58868" lon="-3.83762">
        <ele>7.6</ele>
        <time>2025-06-30T13:29:26Z</time>
      </trkpt>
      <trkpt lat="48.58852" lon="-3.83754">
        <ele>7.6</ele>
        <time>2025-06-30T13:29:28Z</time>
      </trkpt>
      <trkpt lat="48.58836" lon="-3.83743">
        <ele>7.7</ele>
        <time>2025-06-30T13:29:30Z</time>
      </trkpt>
      <trkpt lat="48.5882" lon="-3.83734">
        <ele>7.7</ele>
        <time>2025-06-30T13:29:32Z</time>
      </trkpt>
      <trkpt lat="48.58804" lon="-3.83725">
        <ele>7.8</ele>
        <time>2025-06-30T13:29:34Z</time>
      </trkpt>
      <trkpt lat="48.58791" lon="-3.83713">
        <ele>7.8</ele>
        <time>2025-06-30T13:29:36Z</time>
      </trkpt>
      <trkpt lat="48.58776" lon="-3.83705">
        <ele>7.7</ele>
        <time>2025-06-30T13:29:38Z</time>
      </trkpt>
      <trkpt lat="48.5876" lon="-3.83699">
        <ele>7.5</ele>
        <time>2025-06-30T13:29:40Z</time>
      </trkpt>
      <trkpt lat="48.58744" lon="-3.83693">
        <ele>7.4</ele>
        <time>2025-06-30T13:29:42Z</time>
      </trkpt>
      <trkpt lat="48.58728" lon="-3.83685">
        <ele>7.4</ele>
        <time>2025-06-30T13:29:44Z</time>
      </trkpt>
      <trkpt lat="48.58713" lon="-3.83674">
        <ele>7.3</ele>
        <time>2025-06-30T13:29:46Z</time>
      </trkpt>
      <trkpt lat="48.58697" lon="-3.83665">
        <ele>7.3</ele>
        <time>2025-06-30T13:29:48Z</time>
      </trkpt>
      <trkpt lat="48.58681" lon="-3.83654">
        <ele>7.4</ele>
        <time>2025-06-30T13:29:50Z</time>
      </trkpt>
      <trkpt lat="48.58665" lon="-3.83644">
        <ele>7.4</ele>
        <time>2025-06-30T13:29:52Z</time>
      </trkpt>
      <trkpt lat="48.58649" lon="-3.83633">
        <ele>7.4</ele>
        <time>2025-06-30T13:29:54Z</time>
      </trkpt>
      <trkpt lat="48.58633" lon="-3.83623">
        <ele>7.5</ele>
        <time>2025-06-30T13:29:56Z</time>
      </trkpt>
      <trkpt lat="48.58617" lon="-3.83611">
        <ele>7.5</ele>
        <time>2025-06-30T13:29:58Z</time>
      </trkpt>
      <trkpt lat="48.58601" lon="-3.836">
        <ele>7.5</ele>
        <time>2025-06-30T13:30:00Z</time>
      </trkpt>
      <trkpt lat="48.58593" lon="-3.83592">
        <ele>7.5</ele>
        <time>2025-06-30T13:30:01Z</time>
      </trkpt>
      <trkpt lat="48.58579" lon="-3.83576">
        <ele>7.6</ele>
        <time>2025-06-30T13:30:03Z</time>
      </trkpt>
      <trkpt lat="48.58565" lon="-3.83558">
        <ele>7.6</ele>
        <time>2025-06-30T13:30:05Z</time>
      </trkpt>
      <trkpt lat="48.58551" lon="-3.8354">
        <ele>7.6</ele>
        <time>2025-06-30T13:30:07Z</time>
      </trkpt>
      <trkpt lat="48.58538" lon="-3.83523">
        <ele>7.6</ele>
        <time>2025-06-30T13:30:09Z</time>
      </trkpt>
      <trkpt lat="48.58524" lon="-3.83506">
        <ele>7.7</ele>
        <time>2025-06-30T13:30:11Z</time>
      </trkpt>
      <trkpt lat="48.58511" lon="-3.83488">
        <ele>7.7</ele>
        <time>2025-06-30T13:30:13Z</time>
      </trkpt>
      <trkpt lat="48.58497" lon="-3.83471">
        <ele>7.8</ele>
        <time>2025-06-30T13:30:15Z</time>
      </trkpt>
      <trkpt lat="48.58484" lon="-3.83454">
        <ele>7.7</ele>
        <time>2025-06-30T13:30:17Z</time>
      </trkpt>
      <trkpt lat="48.5847" lon="-3.83436">
        <ele>7.6</ele>
        <time>2025-06-30T13:30:19Z</time>
      </trkpt>
      <trkpt lat="48.58455" lon="-3.8342">
        <ele>7.5</ele>
        <time>2025-06-30T13:30:21Z</time>
      </trkpt>
      <trkpt lat="48.58447" lon="-3.83415">
        <ele>7.4</ele>
        <time>2025-06-30T13:30:22Z</time>
      </trkpt>
      <trkpt lat="48.58431" lon="-3.83403">
        <ele>7.3</ele>
        <time>2025-06-30T13:30:24Z</time>
      </trkpt>
      <trkpt lat="48.58414" lon="-3.83395">
        <ele>7.3</ele>
        <time>2025-06-30T13:30:26Z</time>
      </trkpt>
      <trkpt lat="48.58396" lon="-3.83389">
        <ele>7.4</ele>
        <time>2025-06-30T13:30:28Z</time>
      </trkpt>
      <trkpt lat="48.58379" lon="-3.83382">
        <ele>7.4</ele>
        <time>2025-06-30T13:30:30Z</time>
      </trkpt>
      <trkpt lat="48.58371" lon="-3.83375">
        <ele>7.5</ele>
        <time>2025-06-30T13:30:31Z</time>
      </trkpt>
      <trkpt lat="48.58363" lon="-3.83368">
        <ele>7.5</ele>
        <time>2025-06-30T13:30:32Z</time>
      </trkpt>
      <trkpt lat="48.58355" lon="-3.83363">
        <ele>7.5</ele>
        <time>2025-06-30T13:30:33Z</time>
      </trkpt>
      <trkpt lat="48.58346" lon="-3.83357">
        <ele>7.5</ele>
        <time>2025-06-30T13:30:34Z</time>
      </trkpt>
      <trkpt lat="48.58338" lon="-3.8335">
        <ele>7.5</ele>
        <time>2025-06-30T13:30:35Z</time>
      </trkpt>
      <trkpt lat="48.58331" lon="-3.83343">
        <ele>7.5</ele>
        <time>2025-06-30T13:30:36Z</time>
      </trkpt>
      <trkpt lat="48.58322" lon="-3.83337">
        <ele>7.5</ele>
        <time>2025-06-30T13:30:37Z</time>
      </trkpt>
      <trkpt lat="48.58314" lon="-3.8333">
        <ele>7.5</ele>
        <time>2025-06-30T13:30:38Z</time>
      </trkpt>
      <trkpt lat="48.58306" lon="-3.83322">
        <ele>7.5</ele>
        <time>2025-06-30T13:30:39Z</time>
      </trkpt>
      <trkpt lat="48.58298" lon="-3.83315">
        <ele>7.5</ele>
        <time>2025-06-30T13:30:40Z</time>
      </trkpt>
      <trkpt lat="48.5829" lon="-3.83309">
        <ele>7.5</ele>
        <time>2025-06-30T13:30:41Z</time>
      </trkpt>
      <trkpt lat="48.58282" lon="-3.83301">
        <ele>7.6</ele>
        <time>2025-06-30T13:30:42Z</time>
      </trkpt>
      <trkpt lat="48.58274" lon="-3.83294">
        <ele>7.6</ele>
        <time>2025-06-30T13:30:43Z</time>
      </trkpt>
      <trkpt lat="48.58266" lon="-3.83287">
        <ele>7.6</ele>
        <time>2025-06-30T13:30:44Z</time>
      </trkpt>
      <trkpt lat="48.58258" lon="-3.8328">
        <ele>7.6</ele>
        <time>2025-06-30T13:30:45Z</time>
      </trkpt>
      <trkpt lat="48.5825" lon="-3.83273">
        <ele>7.6</ele>
        <time>2025-06-30T13:30:46Z</time>
      </trkpt>
      <trkpt lat="48.58241" lon="-3.83267">
        <ele>7.7</ele>
        <time>2025-06-30T13:30:47Z</time>
      </trkpt>
      <trkpt lat="48.58226" lon="-3.83254">
        <ele>7.7</ele>
        <time>2025-06-30T13:30:49Z</time>
      </trkpt>
      <trkpt lat="48.5821" lon="-3.83241">
        <ele>7.7</ele>
        <time>2025-06-30T13:30:51Z</time>
      </trkpt>
      <trkpt lat="48.58196" lon="-3.83227">
        <ele>7.7</ele>
        <time>2025-06-30T13:30:53Z</time>
      </trkpt>
      <trkpt lat="48.58184" lon="-3.83209">
        <ele>7.5</ele>
        <time>2025-06-30T13:30:55Z</time>
      </trkpt>
      <trkpt lat="48.58172" lon="-3.83198">
        <ele>7.6</ele>
        <time>2025-06-30T13:30:57Z</time>
      </trkpt>
      <trkpt lat="48.58164" lon="-3.83205">
        <ele>7.6</ele>
        <time>2025-06-30T13:30:59Z</time>
      </trkpt>
      <trkpt lat="48.58158" lon="-3.83215">
        <ele>7.6</ele>
        <time>2025-06-30T13:31:01Z</time>
      </trkpt>
      <trkpt lat="48.58156" lon="-3.8323">
        <ele>7.3</ele>
        <time>2025-06-30T13:31:03Z</time>
      </trkpt>
      <trkpt lat="48.58162" lon="-3.83244">
        <ele>7.2</ele>
        <time>2025-06-30T13:31:05Z</time>
      </trkpt>
      <trkpt lat="48.58169" lon="-3.83257">
        <ele>7.1</ele>
        <time>2025-06-30T13:31:07Z</time>
      </trkpt>
      <trkpt lat="48.58174" lon="-3.83271">
        <ele>7.1</ele>
        <time>2025-06-30T13:31:09Z</time>
      </trkpt>
      <trkpt lat="48.5818" lon="-3.83285">
        <ele>7</ele>
        <time>2025-06-30T13:31:11Z</time>
      </trkpt>
      <trkpt lat="48.58187" lon="-3.83298">
        <ele>6.9</ele>
        <time>2025-06-30T13:31:13Z</time>
      </trkpt>
      <trkpt lat="48.58196" lon="-3.83306">
        <ele>6.9</ele>
        <time>2025-06-30T13:31:15Z</time>
      </trkpt>
      <trkpt lat="48.58206" lon="-3.83313">
        <ele>6.9</ele>
        <time>2025-06-30T13:31:17Z</time>
      </trkpt>
      <trkpt lat="48.58217" lon="-3.83321">
        <ele>6.8</ele>
        <time>2025-06-30T13:31:19Z</time>
      </trkpt>
      <trkpt lat="48.58227" lon="-3.8333">
        <ele>6.8</ele>
        <time>2025-06-30T13:31:21Z</time>
      </trkpt>
      <trkpt lat="48.58237" lon="-3.83338">
        <ele>6.8</ele>
        <time>2025-06-30T13:31:23Z</time>
      </trkpt>
      <trkpt lat="48.58248" lon="-3.83347">
        <ele>6.8</ele>
        <time>2025-06-30T13:31:25Z</time>
      </trkpt>
      <trkpt lat="48.58259" lon="-3.83356">
        <ele>6.8</ele>
        <time>2025-06-30T13:31:27Z</time>
      </trkpt>
      <trkpt lat="48.58268" lon="-3.83367">
        <ele>6.8</ele>
        <time>2025-06-30T13:31:29Z</time>
      </trkpt>
      <trkpt lat="48.58278" lon="-3.83375">
        <ele>6.8</ele>
        <time>2025-06-30T13:31:31Z</time>
      </trkpt>
      <trkpt lat="48.58288" lon="-3.83383">
        <ele>6.7</ele>
        <time>2025-06-30T13:31:33Z</time>
      </trkpt>
      <trkpt lat="48.58298" lon="-3.83393">
        <ele>6.7</ele>
        <time>2025-06-30T13:31:35Z</time>
      </trkpt>
      <trkpt lat="48.58309" lon="-3.834">
        <ele>6.7</ele>
        <time>2025-06-30T13:31:37Z</time>
      </trkpt>
      <trkpt lat="48.5832" lon="-3.83409">
        <ele>6.7</ele>
        <time>2025-06-30T13:31:39Z</time>
      </trkpt>
      <trkpt lat="48.5833" lon="-3.8342">
        <ele>6.6</ele>
        <time>2025-06-30T13:31:41Z</time>
      </trkpt>
      <trkpt lat="48.58341" lon="-3.8343">
        <ele>6.6</ele>
        <time>2025-06-30T13:31:43Z</time>
      </trkpt>
      <trkpt lat="48.58352" lon="-3.83441">
        <ele>6.7</ele>
        <time>2025-06-30T13:31:45Z</time>
      </trkpt>
      <trkpt lat="48.58363" lon="-3.83451">
        <ele>6.7</ele>
        <time>2025-06-30T13:31:47Z</time>
      </trkpt>
      <trkpt lat="48.58374" lon="-3.8346">
        <ele>6.8</ele>
        <time>2025-06-30T13:31:49Z</time>
      </trkpt>
      <trkpt lat="48.58385" lon="-3.83471">
        <ele>6.8</ele>
        <time>2025-06-30T13:31:51Z</time>
      </trkpt>
      <trkpt lat="48.58397" lon="-3.83479">
        <ele>6.8</ele>
        <time>2025-06-30T13:31:53Z</time>
      </trkpt>
      <trkpt lat="48.58408" lon="-3.83489">
        <ele>7</ele>
        <time>2025-06-30T13:31:55Z</time>
      </trkpt>
      <trkpt lat="48.58419" lon="-3.83498">
        <ele>7.1</ele>
        <time>2025-06-30T13:31:57Z</time>
      </trkpt>
      <trkpt lat="48.58428" lon="-3.83512">
        <ele>7.2</ele>
        <time>2025-06-30T13:31:59Z</time>
      </trkpt>
      <trkpt lat="48.58432" lon="-3.8353">
        <ele>7.5</ele>
        <time>2025-06-30T13:32:01Z</time>
      </trkpt>
      <trkpt lat="48.58434" lon="-3.83547">
        <ele>7.7</ele>
        <time>2025-06-30T13:32:03Z</time>
      </trkpt>
      <trkpt lat="48.58435" lon="-3.83565">
        <ele>8</ele>
        <time>2025-06-30T13:32:05Z</time>
      </trkpt>
      <trkpt lat="48.58434" lon="-3.83582">
        <ele>8.1</ele>
        <time>2025-06-30T13:32:07Z</time>
      </trkpt>
      <trkpt lat="48.58434" lon="-3.83597">
        <ele>8.3</ele>
        <time>2025-06-30T13:32:09Z</time>
      </trkpt>
      <trkpt lat="48.5844" lon="-3.83612">
        <ele>8.5</ele>
        <time>2025-06-30T13:32:12Z</time>
      </trkpt>
      <trkpt lat="48.5845" lon="-3.83615">
        <ele>8.6</ele>
        <time>2025-06-30T13:32:14Z</time>
      </trkpt>
      <trkpt lat="48.58457" lon="-3.83622">
        <ele>8.7</ele>
        <time>2025-06-30T13:32:16Z</time>
      </trkpt>
      <trkpt lat="48.58466" lon="-3.8363">
        <ele>8.7</ele>
        <time>2025-06-30T13:32:18Z</time>
      </trkpt>
      <trkpt lat="48.58474" lon="-3.83634">
        <ele>8.7</ele>
        <time>2025-06-30T13:32:20Z</time>
      </trkpt>
      <trkpt lat="48.58486" lon="-3.83641">
        <ele>8.7</ele>
        <time>2025-06-30T13:32:23Z</time>
      </trkpt>
      <trkpt lat="48.58497" lon="-3.83648">
        <ele>8.6</ele>
        <time>2025-06-30T13:32:26Z</time>
      </trkpt>
      <trkpt lat="48.58507" lon="-3.83657">
        <ele>8.5</ele>
        <time>2025-06-30T13:32:29Z</time>
      </trkpt>
      <trkpt lat="48.58515" lon="-3.83666">
        <ele>8.4</ele>
        <time>2025-06-30T13:32:31Z</time>
      </trkpt>
      <trkpt lat="48.58525" lon="-3.83673">
        <ele>8.3</ele>
        <time>2025-06-30T13:32:33Z</time>
      </trkpt>
      <trkpt lat="48.58534" lon="-3.83682">
        <ele>8.2</ele>
        <time>2025-06-30T13:32:35Z</time>
      </trkpt>
      <trkpt lat="48.58545" lon="-3.8369">
        <ele>8.2</ele>
        <time>2025-06-30T13:32:37Z</time>
      </trkpt>
      <trkpt lat="48.58556" lon="-3.83699">
        <ele>8.1</ele>
        <time>2025-06-30T13:32:39Z</time>
      </trkpt>
      <trkpt lat="48.58568" lon="-3.83704">
        <ele>8.1</ele>
        <time>2025-06-30T13:32:41Z</time>
      </trkpt>
      <trkpt lat="48.58581" lon="-3.83702">
        <ele>8</ele>
        <time>2025-06-30T13:32:43Z</time>
      </trkpt>
      <trkpt lat="48.58594" lon="-3.83704">
        <ele>8</ele>
        <time>2025-06-30T13:32:45Z</time>
      </trkpt>
      <trkpt lat="48.58608" lon="-3.83708">
        <ele>8</ele>
        <time>2025-06-30T13:32:47Z</time>
      </trkpt>
      <trkpt lat="48.5862" lon="-3.83713">
        <ele>8</ele>
        <time>2025-06-30T13:32:49Z</time>
      </trkpt>
      <trkpt lat="48.58632" lon="-3.83721">
        <ele>8</ele>
        <time>2025-06-30T13:32:51Z</time>
      </trkpt>
      <trkpt lat="48.58644" lon="-3.83727">
        <ele>8</ele>
        <time>2025-06-30T13:32:53Z</time>
      </trkpt>
      <trkpt lat="48.58655" lon="-3.83735">
        <ele>8.1</ele>
        <time>2025-06-30T13:32:55Z</time>
      </trkpt>
      <trkpt lat="48.58666" lon="-3.83743">
        <ele>8.2</ele>
        <time>2025-06-30T13:32:57Z</time>
      </trkpt>
      <trkpt lat="48.58678" lon="-3.83751">
        <ele>8.3</ele>
        <time>2025-06-30T13:32:59Z</time>
      </trkpt>
      <trkpt lat="48.58689" lon="-3.83761">
        <ele>8.4</ele>
        <time>2025-06-30T13:33:01Z</time>
      </trkpt>
      <trkpt lat="48.58701" lon="-3.83769">
        <ele>8.4</ele>
        <time>2025-06-30T13:33:03Z</time>
      </trkpt>
      <trkpt lat="48.58712" lon="-3.83778">
        <ele>8.5</ele>
        <time>2025-06-30T13:33:05Z</time>
      </trkpt>
      <trkpt lat="48.58723" lon="-3.83787">
        <ele>8.6</ele>
        <time>2025-06-30T13:33:07Z</time>
      </trkpt>
      <trkpt lat="48.58734" lon="-3.83797">
        <ele>8.7</ele>
        <time>2025-06-30T13:33:09Z</time>
      </trkpt>
      <trkpt lat="48.58746" lon="-3.83805">
        <ele>8.8</ele>
        <time>2025-06-30T13:33:11Z</time>
      </trkpt>
      <trkpt lat="48.58758" lon="-3.8381">
        <ele>8.9</ele>
        <time>2025-06-30T13:33:13Z</time>
      </trkpt>
      <trkpt lat="48.5877" lon="-3.83816">
        <ele>8.9</ele>
        <time>2025-06-30T13:33:15Z</time>
      </trkpt>
      <trkpt lat="48.58782" lon="-3.83823">
        <ele>8.9</ele>
        <time>2025-06-30T13:33:17Z</time>
      </trkpt>
      <trkpt lat="48.58794" lon="-3.8383">
        <ele>9</ele>
        <time>2025-06-30T13:33:19Z</time>
      </trkpt>
      <trkpt lat="48.58807" lon="-3.83837">
        <ele>9.1</ele>
        <time>2025-06-30T13:33:21Z</time>
      </trkpt>
      <trkpt lat="48.58819" lon="-3.83844">
        <ele>9.1</ele>
        <time>2025-06-30T13:33:23Z</time>
      </trkpt>
      <trkpt lat="48.58832" lon="-3.8385">
        <ele>9.1</ele>
        <time>2025-06-30T13:33:25Z</time>
      </trkpt>
      <trkpt lat="48.58844" lon="-3.83858">
        <ele>9.2</ele>
        <time>2025-06-30T13:33:27Z</time>
      </trkpt>
      <trkpt lat="48.58857" lon="-3.83864">
        <ele>9.2</ele>
        <time>2025-06-30T13:33:29Z</time>
      </trkpt>
      <trkpt lat="48.58869" lon="-3.83872">
        <ele>9.2</ele>
        <time>2025-06-30T13:33:31Z</time>
      </trkpt>
      <trkpt lat="48.58882" lon="-3.83877">
        <ele>9.3</ele>
        <time>2025-06-30T13:33:33Z</time>
      </trkpt>
      <trkpt lat="48.58895" lon="-3.83883">
        <ele>9.3</ele>
        <time>2025-06-30T13:33:35Z</time>
      </trkpt>
      <trkpt lat="48.58907" lon="-3.83891">
        <ele>9.3</ele>
        <time>2025-06-30T13:33:37Z</time>
      </trkpt>
      <trkpt lat="48.58919" lon="-3.83898">
        <ele>9.4</ele>
        <time>2025-06-30T13:33:39Z</time>
      </trkpt>
      <trkpt lat="48.58931" lon="-3.83905">
        <ele>9.4</ele>
        <time>2025-06-30T13:33:41Z</time>
      </trkpt>
      <trkpt lat="48.58943" lon="-3.83914">
        <ele>9.4</ele>
        <time>2025-06-30T13:33:43Z</time>
      </trkpt>
      <trkpt lat="48.58955" lon="-3.83923">
        <ele>9.5</ele>
        <time>2025-06-30T13:33:45Z</time>
      </trkpt>
      <trkpt lat="48.58966" lon="-3.83931">
        <ele>9.5</ele>
        <time>2025-06-30T13:33:47Z</time>
      </trkpt>
      <trkpt lat="48.58978" lon="-3.83938">
        <ele>9.5</ele>
        <time>2025-06-30T13:33:49Z</time>
      </trkpt>
      <trkpt lat="48.5899" lon="-3.83946">
        <ele>9.5</ele>
        <time>2025-06-30T13:33:51Z</time>
      </trkpt>
      <trkpt lat="48.59001" lon="-3.83954">
        <ele>9.5</ele>
        <time>2025-06-30T13:33:53Z</time>
      </trkpt>
      <trkpt lat="48.59013" lon="-3.83963">
        <ele>9.4</ele>
        <time>2025-06-30T13:33:55Z</time>
      </trkpt>
      <trkpt lat="48.59025" lon="-3.8397">
        <ele>9.4</ele>
        <time>2025-06-30T13:33:57Z</time>
      </trkpt>
      <trkpt lat="48.59037" lon="-3.8398">
        <ele>9.3</ele>
        <time>2025-06-30T13:33:59Z</time>
      </trkpt>
      <trkpt lat="48.59049" lon="-3.83988">
        <ele>9.3</ele>
        <time>2025-06-30T13:34:01Z</time>
      </trkpt>
      <trkpt lat="48.59062" lon="-3.83996">
        <ele>9.2</ele>
        <time>2025-06-30T13:34:03Z</time>
      </trkpt>
      <trkpt lat="48.59073" lon="-3.84006">
        <ele>9.1</ele>
        <time>2025-06-30T13:34:05Z</time>
      </trkpt>
      <trkpt lat="48.59086" lon="-3.84013">
        <ele>9</ele>
        <time>2025-06-30T13:34:07Z</time>
      </trkpt>
      <trkpt lat="48.59098" lon="-3.84022">
        <ele>8.9</ele>
        <time>2025-06-30T13:34:09Z</time>
      </trkpt>
      <trkpt lat="48.5911" lon="-3.84029">
        <ele>8.9</ele>
        <time>2025-06-30T13:34:11Z</time>
      </trkpt>
      <trkpt lat="48.59122" lon="-3.84037">
        <ele>8.8</ele>
        <time>2025-06-30T13:34:13Z</time>
      </trkpt>
      <trkpt lat="48.59134" lon="-3.84046">
        <ele>8.7</ele>
        <time>2025-06-30T13:34:15Z</time>
      </trkpt>
      <trkpt lat="48.59146" lon="-3.84055">
        <ele>8.6</ele>
        <time>2025-06-30T13:34:17Z</time>
      </trkpt>
      <trkpt lat="48.59158" lon="-3.84063">
        <ele>8.5</ele>
        <time>2025-06-30T13:34:19Z</time>
      </trkpt>
      <trkpt lat="48.5917" lon="-3.84071">
        <ele>8.4</ele>
        <time>2025-06-30T13:34:21Z</time>
      </trkpt>
      <trkpt lat="48.59183" lon="-3.84079">
        <ele>8.3</ele>
        <time>2025-06-30T13:34:23Z</time>
      </trkpt>
      <trkpt lat="48.59195" lon="-3.84088">
        <ele>8.3</ele>
        <time>2025-06-30T13:34:25Z</time>
      </trkpt>
      <trkpt lat="48.59208" lon="-3.84097">
        <ele>8.2</ele>
        <time>2025-06-30T13:34:27Z</time>
      </trkpt>
      <trkpt lat="48.59221" lon="-3.84105">
        <ele>8.1</ele>
        <time>2025-06-30T13:34:29Z</time>
      </trkpt>
      <trkpt lat="48.59233" lon="-3.84116">
        <ele>7.9</ele>
        <time>2025-06-30T13:34:31Z</time>
      </trkpt>
      <trkpt lat="48.59247" lon="-3.84123">
        <ele>7.8</ele>
        <time>2025-06-30T13:34:33Z</time>
      </trkpt>
      <trkpt lat="48.59261" lon="-3.84131">
        <ele>7.7</ele>
        <time>2025-06-30T13:34:35Z</time>
      </trkpt>
      <trkpt lat="48.59275" lon="-3.84136">
        <ele>7.8</ele>
        <time>2025-06-30T13:34:37Z</time>
      </trkpt>
      <trkpt lat="48.5929" lon="-3.84138">
        <ele>7.8</ele>
        <time>2025-06-30T13:34:39Z</time>
      </trkpt>
      <trkpt lat="48.59304" lon="-3.84139">
        <ele>7.9</ele>
        <time>2025-06-30T13:34:41Z</time>
      </trkpt>
      <trkpt lat="48.59317" lon="-3.8414">
        <ele>8</ele>
        <time>2025-06-30T13:34:43Z</time>
      </trkpt>
      <trkpt lat="48.59331" lon="-3.84141">
        <ele>8.1</ele>
        <time>2025-06-30T13:34:45Z</time>
      </trkpt>
      <trkpt lat="48.59344" lon="-3.84141">
        <ele>8.2</ele>
        <time>2025-06-30T13:34:47Z</time>
      </trkpt>
      <trkpt lat="48.59358" lon="-3.84141">
        <ele>8.2</ele>
        <time>2025-06-30T13:34:49Z</time>
      </trkpt>
      <trkpt lat="48.59371" lon="-3.84142">
        <ele>8.3</ele>
        <time>2025-06-30T13:34:51Z</time>
      </trkpt>
      <trkpt lat="48.59384" lon="-3.84142">
        <ele>8.3</ele>
        <time>2025-06-30T13:34:53Z</time>
      </trkpt>
      <trkpt lat="48.59398" lon="-3.84143">
        <ele>8.3</ele>
        <time>2025-06-30T13:34:55Z</time>
      </trkpt>
      <trkpt lat="48.5941" lon="-3.84145">
        <ele>8.3</ele>
        <time>2025-06-30T13:34:57Z</time>
      </trkpt>
      <trkpt lat="48.59424" lon="-3.84145">
        <ele>8.2</ele>
        <time>2025-06-30T13:34:59Z</time>
      </trkpt>
      <trkpt lat="48.59438" lon="-3.84145">
        <ele>8.2</ele>
        <time>2025-06-30T13:35:01Z</time>
      </trkpt>
      <trkpt lat="48.59451" lon="-3.84145">
        <ele>8.1</ele>
        <time>2025-06-30T13:35:03Z</time>
      </trkpt>
      <trkpt lat="48.59466" lon="-3.84144">
        <ele>8.1</ele>
        <time>2025-06-30T13:35:05Z</time>
      </trkpt>
      <trkpt lat="48.5948" lon="-3.84145">
        <ele>8.2</ele>
        <time>2025-06-30T13:35:07Z</time>
      </trkpt>
      <trkpt lat="48.59494" lon="-3.84145">
        <ele>8.3</ele>
        <time>2025-06-30T13:35:09Z</time>
      </trkpt>
      <trkpt lat="48.59508" lon="-3.84146">
        <ele>8.2</ele>
        <time>2025-06-30T13:35:11Z</time>
      </trkpt>
      <trkpt lat="48.59522" lon="-3.84147">
        <ele>8.2</ele>
        <time>2025-06-30T13:35:13Z</time>
      </trkpt>
      <trkpt lat="48.59536" lon="-3.84148">
        <ele>8.2</ele>
        <time>2025-06-30T13:35:15Z</time>
      </trkpt>
      <trkpt lat="48.5955" lon="-3.84147">
        <ele>8.2</ele>
        <time>2025-06-30T13:35:17Z</time>
      </trkpt>
      <trkpt lat="48.59564" lon="-3.84148">
        <ele>8.1</ele>
        <time>2025-06-30T13:35:19Z</time>
      </trkpt>
      <trkpt lat="48.59578" lon="-3.84148">
        <ele>8.1</ele>
        <time>2025-06-30T13:35:21Z</time>
      </trkpt>
      <trkpt lat="48.59591" lon="-3.84147">
        <ele>8.1</ele>
        <time>2025-06-30T13:35:23Z</time>
      </trkpt>
      <trkpt lat="48.59605" lon="-3.84148">
        <ele>8.1</ele>
        <time>2025-06-30T13:35:25Z</time>
      </trkpt>
      <trkpt lat="48.59618" lon="-3.84149">
        <ele>8.1</ele>
        <time>2025-06-30T13:35:27Z</time>
      </trkpt>
      <trkpt lat="48.59632" lon="-3.84149">
        <ele>8.1</ele>
        <time>2025-06-30T13:35:29Z</time>
      </trkpt>
      <trkpt lat="48.59645" lon="-3.8415">
        <ele>8</ele>
        <time>2025-06-30T13:35:31Z</time>
      </trkpt>
      <trkpt lat="48.59658" lon="-3.84149">
        <ele>7.9</ele>
        <time>2025-06-30T13:35:33Z</time>
      </trkpt>
      <trkpt lat="48.59672" lon="-3.84149">
        <ele>7.8</ele>
        <time>2025-06-30T13:35:35Z</time>
      </trkpt>
      <trkpt lat="48.59686" lon="-3.8415">
        <ele>7.7</ele>
        <time>2025-06-30T13:35:37Z</time>
      </trkpt>
      <trkpt lat="48.59699" lon="-3.84153">
        <ele>7.6</ele>
        <time>2025-06-30T13:35:39Z</time>
      </trkpt>
      <trkpt lat="48.59712" lon="-3.8416">
        <ele>7.6</ele>
        <time>2025-06-30T13:35:41Z</time>
      </trkpt>
      <trkpt lat="48.59724" lon="-3.84168">
        <ele>7.5</ele>
        <time>2025-06-30T13:35:43Z</time>
      </trkpt>
      <trkpt lat="48.59736" lon="-3.84178">
        <ele>7.5</ele>
        <time>2025-06-30T13:35:45Z</time>
      </trkpt>
      <trkpt lat="48.59747" lon="-3.8419">
        <ele>7.4</ele>
        <time>2025-06-30T13:35:47Z</time>
      </trkpt>
      <trkpt lat="48.59758" lon="-3.84202">
        <ele>7.4</ele>
        <time>2025-06-30T13:35:49Z</time>
      </trkpt>
      <trkpt lat="48.59769" lon="-3.84214">
        <ele>7.3</ele>
        <time>2025-06-30T13:35:51Z</time>
      </trkpt>
      <trkpt lat="48.5978" lon="-3.84226">
        <ele>7.2</ele>
        <time>2025-06-30T13:35:53Z</time>
      </trkpt>
      <trkpt lat="48.59791" lon="-3.84239">
        <ele>7.1</ele>
        <time>2025-06-30T13:35:55Z</time>
      </trkpt>
      <trkpt lat="48.59801" lon="-3.84253">
        <ele>7</ele>
        <time>2025-06-30T13:35:57Z</time>
      </trkpt>
      <trkpt lat="48.59812" lon="-3.84265">
        <ele>6.9</ele>
        <time>2025-06-30T13:35:59Z</time>
      </trkpt>
      <trkpt lat="48.59823" lon="-3.84277">
        <ele>6.8</ele>
        <time>2025-06-30T13:36:01Z</time>
      </trkpt>
      <trkpt lat="48.59834" lon="-3.84289">
        <ele>6.7</ele>
        <time>2025-06-30T13:36:03Z</time>
      </trkpt>
      <trkpt lat="48.59844" lon="-3.84301">
        <ele>6.7</ele>
        <time>2025-06-30T13:36:05Z</time>
      </trkpt>
      <trkpt lat="48.59855" lon="-3.84313">
        <ele>6.6</ele>
        <time>2025-06-30T13:36:07Z</time>
      </trkpt>
      <trkpt lat="48.59866" lon="-3.84325">
        <ele>6.5</ele>
        <time>2025-06-30T13:36:09Z</time>
      </trkpt>
      <trkpt lat="48.59876" lon="-3.84337">
        <ele>6.5</ele>
        <time>2025-06-30T13:36:11Z</time>
      </trkpt>
      <trkpt lat="48.59887" lon="-3.84349">
        <ele>6.4</ele>
        <time>2025-06-30T13:36:13Z</time>
      </trkpt>
      <trkpt lat="48.59897" lon="-3.84361">
        <ele>6.4</ele>
        <time>2025-06-30T13:36:15Z</time>
      </trkpt>
      <trkpt lat="48.59908" lon="-3.84373">
        <ele>6.4</ele>
        <time>2025-06-30T13:36:17Z</time>
      </trkpt>
      <trkpt lat="48.59919" lon="-3.84385">
        <ele>6.4</ele>
        <time>2025-06-30T13:36:19Z</time>
      </trkpt>
      <trkpt lat="48.5993" lon="-3.84397">
        <ele>6.4</ele>
        <time>2025-06-30T13:36:21Z</time>
      </trkpt>
      <trkpt lat="48.5994" lon="-3.84409">
        <ele>6.4</ele>
        <time>2025-06-30T13:36:23Z</time>
      </trkpt>
      <trkpt lat="48.59951" lon="-3.84422">
        <ele>6.4</ele>
        <time>2025-06-30T13:36:25Z</time>
      </trkpt>
      <trkpt lat="48.59961" lon="-3.84434">
        <ele>6.4</ele>
        <time>2025-06-30T13:36:27Z</time>
      </trkpt>
      <trkpt lat="48.59972" lon="-3.84446">
        <ele>6.5</ele>
        <time>2025-06-30T13:36:29Z</time>
      </trkpt>
      <trkpt lat="48.59982" lon="-3.84457">
        <ele>6.5</ele>
        <time>2025-06-30T13:36:31Z</time>
      </trkpt>
      <trkpt lat="48.59993" lon="-3.84469">
        <ele>6.5</ele>
        <time>2025-06-30T13:36:33Z</time>
      </trkpt>
      <trkpt lat="48.60003" lon="-3.84481">
        <ele>6.5</ele>
        <time>2025-06-30T13:36:35Z</time>
      </trkpt>
      <trkpt lat="48.60014" lon="-3.84493">
        <ele>6.5</ele>
        <time>2025-06-30T13:36:37Z</time>
      </trkpt>
      <trkpt lat="48.60024" lon="-3.84506">
        <ele>6.6</ele>
        <time>2025-06-30T13:36:39Z</time>
      </trkpt>
      <trkpt lat="48.60034" lon="-3.84518">
        <ele>6.6</ele>
        <time>2025-06-30T13:36:41Z</time>
      </trkpt>
      <trkpt lat="48.60044" lon="-3.84532">
        <ele>6.7</ele>
        <time>2025-06-30T13:36:43Z</time>
      </trkpt>
      <trkpt lat="48.60053" lon="-3.84547">
        <ele>6.7</ele>
        <time>2025-06-30T13:36:45Z</time>
      </trkpt>
      <trkpt lat="48.60061" lon="-3.84563">
        <ele>6.8</ele>
        <time>2025-06-30T13:36:47Z</time>
      </trkpt>
      <trkpt lat="48.60069" lon="-3.84579">
        <ele>6.9</ele>
        <time>2025-06-30T13:36:49Z</time>
      </trkpt>
      <trkpt lat="48.60077" lon="-3.84596">
        <ele>7</ele>
        <time>2025-06-30T13:36:51Z</time>
      </trkpt>
      <trkpt lat="48.60084" lon="-3.84612">
        <ele>7.1</ele>
        <time>2025-06-30T13:36:53Z</time>
      </trkpt>
      <trkpt lat="48.60091" lon="-3.84629">
        <ele>7.2</ele>
        <time>2025-06-30T13:36:55Z</time>
      </trkpt>
      <trkpt lat="48.60098" lon="-3.84645">
        <ele>7.2</ele>
        <time>2025-06-30T13:36:57Z</time>
      </trkpt>
      <trkpt lat="48.60105" lon="-3.84662">
        <ele>7.3</ele>
        <time>2025-06-30T13:36:59Z</time>
      </trkpt>
      <trkpt lat="48.60111" lon="-3.84678">
        <ele>7.4</ele>
        <time>2025-06-30T13:37:01Z</time>
      </trkpt>
      <trkpt lat="48.60118" lon="-3.84694">
        <ele>7.5</ele>
        <time>2025-06-30T13:37:03Z</time>
      </trkpt>
      <trkpt lat="48.60124" lon="-3.8471">
        <ele>7.6</ele>
        <time>2025-06-30T13:37:05Z</time>
      </trkpt>
      <trkpt lat="48.6013" lon="-3.84726">
        <ele>7.6</ele>
        <time>2025-06-30T13:37:07Z</time>
      </trkpt>
      <trkpt lat="48.60135" lon="-3.84743">
        <ele>7.7</ele>
        <time>2025-06-30T13:37:09Z</time>
      </trkpt>
      <trkpt lat="48.6014" lon="-3.84759">
        <ele>7.8</ele>
        <time>2025-06-30T13:37:11Z</time>
      </trkpt>
      <trkpt lat="48.60144" lon="-3.84776">
        <ele>7.9</ele>
        <time>2025-06-30T13:37:13Z</time>
      </trkpt>
      <trkpt lat="48.60148" lon="-3.84793">
        <ele>8.1</ele>
        <time>2025-06-30T13:37:15Z</time>
      </trkpt>
      <trkpt lat="48.60152" lon="-3.84811">
        <ele>8.1</ele>
        <time>2025-06-30T13:37:17Z</time>
      </trkpt>
      <trkpt lat="48.60157" lon="-3.84828">
        <ele>8.2</ele>
        <time>2025-06-30T13:37:19Z</time>
      </trkpt>
      <trkpt lat="48.60161" lon="-3.84845">
        <ele>8.3</ele>
        <time>2025-06-30T13:37:21Z</time>
      </trkpt>
      <trkpt lat="48.60166" lon="-3.84862">
        <ele>8.3</ele>
        <time>2025-06-30T13:37:23Z</time>
      </trkpt>
      <trkpt lat="48.6017" lon="-3.84879">
        <ele>8.4</ele>
        <time>2025-06-30T13:37:25Z</time>
      </trkpt>
      <trkpt lat="48.60176" lon="-3.84896">
        <ele>8.4</ele>
        <time>2025-06-30T13:37:27Z</time>
      </trkpt>
      <trkpt lat="48.60181" lon="-3.84912">
        <ele>8.5</ele>
        <time>2025-06-30T13:37:29Z</time>
      </trkpt>
      <trkpt lat="48.60187" lon="-3.84929">
        <ele>8.6</ele>
        <time>2025-06-30T13:37:31Z</time>
      </trkpt>
      <trkpt lat="48.60194" lon="-3.84944">
        <ele>8.6</ele>
        <time>2025-06-30T13:37:33Z</time>
      </trkpt>
      <trkpt lat="48.60201" lon="-3.84959">
        <ele>8.6</ele>
        <time>2025-06-30T13:37:35Z</time>
      </trkpt>
      <trkpt lat="48.6021" lon="-3.84974">
        <ele>8.7</ele>
        <time>2025-06-30T13:37:37Z</time>
      </trkpt>
      <trkpt lat="48.60218" lon="-3.84988">
        <ele>8.8</ele>
        <time>2025-06-30T13:37:39Z</time>
      </trkpt>
      <trkpt lat="48.60228" lon="-3.85">
        <ele>8.9</ele>
        <time>2025-06-30T13:37:41Z</time>
      </trkpt>
      <trkpt lat="48.60238" lon="-3.85012">
        <ele>9</ele>
        <time>2025-06-30T13:37:43Z</time>
      </trkpt>
      <trkpt lat="48.60247" lon="-3.85023">
        <ele>9.1</ele>
        <time>2025-06-30T13:37:45Z</time>
      </trkpt>
      <trkpt lat="48.60257" lon="-3.85032">
        <ele>9.2</ele>
        <time>2025-06-30T13:37:47Z</time>
      </trkpt>
      <trkpt lat="48.60268" lon="-3.85041">
        <ele>9.3</ele>
        <time>2025-06-30T13:37:49Z</time>
      </trkpt>
      <trkpt lat="48.6028" lon="-3.85048">
        <ele>9.4</ele>
        <time>2025-06-30T13:37:51Z</time>
      </trkpt>
      <trkpt lat="48.60291" lon="-3.85054">
        <ele>9.4</ele>
        <time>2025-06-30T13:37:53Z</time>
      </trkpt>
      <trkpt lat="48.60303" lon="-3.85059">
        <ele>9.4</ele>
        <time>2025-06-30T13:37:55Z</time>
      </trkpt>
      <trkpt lat="48.60316" lon="-3.85065">
        <ele>9.3</ele>
        <time>2025-06-30T13:37:57Z</time>
      </trkpt>
      <trkpt lat="48.60328" lon="-3.8507">
        <ele>9.2</ele>
        <time>2025-06-30T13:37:59Z</time>
      </trkpt>
      <trkpt lat="48.60341" lon="-3.85077">
        <ele>9</ele>
        <time>2025-06-30T13:38:01Z</time>
      </trkpt>
      <trkpt lat="48.60354" lon="-3.85084">
        <ele>8.9</ele>
        <time>2025-06-30T13:38:03Z</time>
      </trkpt>
      <trkpt lat="48.60368" lon="-3.8509">
        <ele>8.8</ele>
        <time>2025-06-30T13:38:05Z</time>
      </trkpt>
      <trkpt lat="48.60381" lon="-3.85097">
        <ele>8.6</ele>
        <time>2025-06-30T13:38:07Z</time>
      </trkpt>
      <trkpt lat="48.60395" lon="-3.85104">
        <ele>8.6</ele>
        <time>2025-06-30T13:38:09Z</time>
      </trkpt>
      <trkpt lat="48.60408" lon="-3.85111">
        <ele>8.5</ele>
        <time>2025-06-30T13:38:11Z</time>
      </trkpt>
      <trkpt lat="48.60422" lon="-3.85117">
        <ele>8.5</ele>
        <time>2025-06-30T13:38:13Z</time>
      </trkpt>
      <trkpt lat="48.60435" lon="-3.85125">
        <ele>8.4</ele>
        <time>2025-06-30T13:38:15Z</time>
      </trkpt>
      <trkpt lat="48.60448" lon="-3.85133">
        <ele>8.3</ele>
        <time>2025-06-30T13:38:17Z</time>
      </trkpt>
      <trkpt lat="48.60461" lon="-3.85142">
        <ele>8.1</ele>
        <time>2025-06-30T13:38:19Z</time>
      </trkpt>
      <trkpt lat="48.60474" lon="-3.85152">
        <ele>8.1</ele>
        <time>2025-06-30T13:38:21Z</time>
      </trkpt>
      <trkpt lat="48.60487" lon="-3.85163">
        <ele>8</ele>
        <time>2025-06-30T13:38:23Z</time>
      </trkpt>
      <trkpt lat="48.605" lon="-3.85173">
        <ele>8</ele>
        <time>2025-06-30T13:38:25Z</time>
      </trkpt>
      <trkpt lat="48.60513" lon="-3.85184">
        <ele>7.9</ele>
        <time>2025-06-30T13:38:27Z</time>
      </trkpt>
      <trkpt lat="48.60525" lon="-3.85196">
        <ele>7.9</ele>
        <time>2025-06-30T13:38:29Z</time>
      </trkpt>
      <trkpt lat="48.60537" lon="-3.85205">
        <ele>7.9</ele>
        <time>2025-06-30T13:38:31Z</time>
      </trkpt>
      <trkpt lat="48.60549" lon="-3.85216">
        <ele>7.8</ele>
        <time>2025-06-30T13:38:33Z</time>
      </trkpt>
      <trkpt lat="48.60559" lon="-3.85229">
        <ele>7.7</ele>
        <time>2025-06-30T13:38:35Z</time>
      </trkpt>
      <trkpt lat="48.60569" lon="-3.85243">
        <ele>7.6</ele>
        <time>2025-06-30T13:38:37Z</time>
      </trkpt>
      <trkpt lat="48.60579" lon="-3.85259">
        <ele>7.5</ele>
        <time>2025-06-30T13:38:39Z</time>
      </trkpt>
      <trkpt lat="48.6059" lon="-3.85273">
        <ele>7.3</ele>
        <time>2025-06-30T13:38:41Z</time>
      </trkpt>
      <trkpt lat="48.606" lon="-3.85289">
        <ele>7.2</ele>
        <time>2025-06-30T13:38:43Z</time>
      </trkpt>
      <trkpt lat="48.6061" lon="-3.85305">
        <ele>7.1</ele>
        <time>2025-06-30T13:38:45Z</time>
      </trkpt>
      <trkpt lat="48.6062" lon="-3.85322">
        <ele>7.1</ele>
        <time>2025-06-30T13:38:47Z</time>
      </trkpt>
      <trkpt lat="48.6063" lon="-3.85338">
        <ele>7</ele>
        <time>2025-06-30T13:38:49Z</time>
      </trkpt>
      <trkpt lat="48.60639" lon="-3.85353">
        <ele>7</ele>
        <time>2025-06-30T13:38:51Z</time>
      </trkpt>
      <trkpt lat="48.60648" lon="-3.85369">
        <ele>7</ele>
        <time>2025-06-30T13:38:53Z</time>
      </trkpt>
      <trkpt lat="48.60657" lon="-3.85385">
        <ele>7</ele>
        <time>2025-06-30T13:38:55Z</time>
      </trkpt>
      <trkpt lat="48.60664" lon="-3.85402">
        <ele>6.9</ele>
        <time>2025-06-30T13:38:57Z</time>
      </trkpt>
      <trkpt lat="48.60671" lon="-3.85419">
        <ele>6.8</ele>
        <time>2025-06-30T13:38:59Z</time>
      </trkpt>
      <trkpt lat="48.60678" lon="-3.85437">
        <ele>6.7</ele>
        <time>2025-06-30T13:39:01Z</time>
      </trkpt>
      <trkpt lat="48.60684" lon="-3.85456">
        <ele>6.5</ele>
        <time>2025-06-30T13:39:03Z</time>
      </trkpt>
      <trkpt lat="48.6069" lon="-3.85476">
        <ele>6.3</ele>
        <time>2025-06-30T13:39:05Z</time>
      </trkpt>
      <trkpt lat="48.60698" lon="-3.85495">
        <ele>6.1</ele>
        <time>2025-06-30T13:39:07Z</time>
      </trkpt>
      <trkpt lat="48.60705" lon="-3.85514">
        <ele>6</ele>
        <time>2025-06-30T13:39:09Z</time>
      </trkpt>
      <trkpt lat="48.60715" lon="-3.85532">
        <ele>6</ele>
        <time>2025-06-30T13:39:11Z</time>
      </trkpt>
      <trkpt lat="48.60727" lon="-3.85547">
        <ele>6</ele>
        <time>2025-06-30T13:39:13Z</time>
      </trkpt>
      <trkpt lat="48.60739" lon="-3.8556">
        <ele>6</ele>
        <time>2025-06-30T13:39:15Z</time>
      </trkpt>
      <trkpt lat="48.60751" lon="-3.85572">
        <ele>6</ele>
        <time>2025-06-30T13:39:17Z</time>
      </trkpt>
      <trkpt lat="48.60763" lon="-3.85583">
        <ele>6</ele>
        <time>2025-06-30T13:39:19Z</time>
      </trkpt>
      <trkpt lat="48.60775" lon="-3.85595">
        <ele>6</ele>
        <time>2025-06-30T13:39:21Z</time>
      </trkpt>
      <trkpt lat="48.60787" lon="-3.85605">
        <ele>6.1</ele>
        <time>2025-06-30T13:39:23Z</time>
      </trkpt>
      <trkpt lat="48.608" lon="-3.85616">
        <ele>6.1</ele>
        <time>2025-06-30T13:39:25Z</time>
      </trkpt>
      <trkpt lat="48.6081" lon="-3.85627">
        <ele>6.2</ele>
        <time>2025-06-30T13:39:27Z</time>
      </trkpt>
      <trkpt lat="48.60821" lon="-3.85639">
        <ele>6.2</ele>
        <time>2025-06-30T13:39:29Z</time>
      </trkpt>
      <trkpt lat="48.6083" lon="-3.85653">
        <ele>6.3</ele>
        <time>2025-06-30T13:39:31Z</time>
      </trkpt>
      <trkpt lat="48.60839" lon="-3.85667">
        <ele>6.4</ele>
        <time>2025-06-30T13:39:33Z</time>
      </trkpt>
      <trkpt lat="48.60846" lon="-3.85683">
        <ele>6.4</ele>
        <time>2025-06-30T13:39:35Z</time>
      </trkpt>
      <trkpt lat="48.60852" lon="-3.85699">
        <ele>6.5</ele>
        <time>2025-06-30T13:39:37Z</time>
      </trkpt>
      <trkpt lat="48.60858" lon="-3.85715">
        <ele>6.6</ele>
        <time>2025-06-30T13:39:39Z</time>
      </trkpt>
      <trkpt lat="48.60865" lon="-3.8573">
        <ele>6.7</ele>
        <time>2025-06-30T13:39:41Z</time>
      </trkpt>
      <trkpt lat="48.60871" lon="-3.85747">
        <ele>6.7</ele>
        <time>2025-06-30T13:39:43Z</time>
      </trkpt>
      <trkpt lat="48.60877" lon="-3.85762">
        <ele>6.7</ele>
        <time>2025-06-30T13:39:45Z</time>
      </trkpt>
      <trkpt lat="48.60883" lon="-3.85778">
        <ele>6.7</ele>
        <time>2025-06-30T13:39:47Z</time>
      </trkpt>
      <trkpt lat="48.60889" lon="-3.85793">
        <ele>6.8</ele>
        <time>2025-06-30T13:39:49Z</time>
      </trkpt>
      <trkpt lat="48.60895" lon="-3.85808">
        <ele>6.9</ele>
        <time>2025-06-30T13:39:51Z</time>
      </trkpt>
      <trkpt lat="48.60901" lon="-3.85821">
        <ele>7.1</ele>
        <time>2025-06-30T13:39:53Z</time>
      </trkpt>
      <trkpt lat="48.60906" lon="-3.85836">
        <ele>7.4</ele>
        <time>2025-06-30T13:39:55Z</time>
      </trkpt>
      <trkpt lat="48.6091" lon="-3.8585">
        <ele>7.7</ele>
        <time>2025-06-30T13:39:57Z</time>
      </trkpt>
      <trkpt lat="48.60916" lon="-3.85863">
        <ele>8.1</ele>
        <time>2025-06-30T13:39:59Z</time>
      </trkpt>
      <trkpt lat="48.60921" lon="-3.85876">
        <ele>8.5</ele>
        <time>2025-06-30T13:40:01Z</time>
      </trkpt>
      <trkpt lat="48.60925" lon="-3.85888">
        <ele>9</ele>
        <time>2025-06-30T13:40:03Z</time>
      </trkpt>
      <trkpt lat="48.60931" lon="-3.85905">
        <ele>9.6</ele>
        <time>2025-06-30T13:40:06Z</time>
      </trkpt>
      <trkpt lat="48.60935" lon="-3.8592">
        <ele>10.2</ele>
        <time>2025-06-30T13:40:09Z</time>
      </trkpt>
      <trkpt lat="48.60938" lon="-3.85935">
        <ele>10.8</ele>
        <time>2025-06-30T13:40:12Z</time>
      </trkpt>
      <trkpt lat="48.60939" lon="-3.85952">
        <ele>11.4</ele>
        <time>2025-06-30T13:40:15Z</time>
      </trkpt>
      <trkpt lat="48.60938" lon="-3.85969">
        <ele>11.9</ele>
        <time>2025-06-30T13:40:18Z</time>
      </trkpt>
      <trkpt lat="48.60937" lon="-3.85987">
        <ele>12.5</ele>
        <time>2025-06-30T13:40:21Z</time>
      </trkpt>
      <trkpt lat="48.60933" lon="-3.86004">
        <ele>13.1</ele>
        <time>2025-06-30T13:40:24Z</time>
      </trkpt>
      <trkpt lat="48.6093" lon="-3.86022">
        <ele>13.7</ele>
        <time>2025-06-30T13:40:27Z</time>
      </trkpt>
      <trkpt lat="48.60924" lon="-3.86038">
        <ele>14.2</ele>
        <time>2025-06-30T13:40:30Z</time>
      </trkpt>
      <trkpt lat="48.60917" lon="-3.86054">
        <ele>14.8</ele>
        <time>2025-06-30T13:40:33Z</time>
      </trkpt>
      <trkpt lat="48.60911" lon="-3.8607">
        <ele>15.3</ele>
        <time>2025-06-30T13:40:36Z</time>
      </trkpt>
      <trkpt lat="48.60904" lon="-3.86087">
        <ele>15.8</ele>
        <time>2025-06-30T13:40:39Z</time>
      </trkpt>
      <trkpt lat="48.60898" lon="-3.86102">
        <ele>16.2</ele>
        <time>2025-06-30T13:40:42Z</time>
      </trkpt>
      <trkpt lat="48.60892" lon="-3.86119">
        <ele>16.7</ele>
        <time>2025-06-30T13:40:45Z</time>
      </trkpt>
      <trkpt lat="48.60887" lon="-3.86136">
        <ele>17.3</ele>
        <time>2025-06-30T13:40:48Z</time>
      </trkpt>
      <trkpt lat="48.60882" lon="-3.86154">
        <ele>17.9</ele>
        <time>2025-06-30T13:40:51Z</time>
      </trkpt>
      <trkpt lat="48.6088" lon="-3.86173">
        <ele>18.5</ele>
        <time>2025-06-30T13:40:54Z</time>
      </trkpt>
      <trkpt lat="48.60878" lon="-3.86191">
        <ele>19</ele>
        <time>2025-06-30T13:40:57Z</time>
      </trkpt>
      <trkpt lat="48.60878" lon="-3.86209">
        <ele>19.5</ele>
        <time>2025-06-30T13:41:00Z</time>
      </trkpt>
      <trkpt lat="48.60877" lon="-3.86226">
        <ele>20</ele>
        <time>2025-06-30T13:41:03Z</time>
      </trkpt>
      <trkpt lat="48.60877" lon="-3.86243">
        <ele>20.5</ele>
        <time>2025-06-30T13:41:06Z</time>
      </trkpt>
      <trkpt lat="48.60877" lon="-3.86261">
        <ele>21</ele>
        <time>2025-06-30T13:41:09Z</time>
      </trkpt>
      <trkpt lat="48.60878" lon="-3.86278">
        <ele>21.4</ele>
        <time>2025-06-30T13:41:12Z</time>
      </trkpt>
      <trkpt lat="48.60879" lon="-3.86295">
        <ele>21.9</ele>
        <time>2025-06-30T13:41:15Z</time>
      </trkpt>
      <trkpt lat="48.60882" lon="-3.86311">
        <ele>22.3</ele>
        <time>2025-06-30T13:41:18Z</time>
      </trkpt>
      <trkpt lat="48.60885" lon="-3.86327">
        <ele>22.7</ele>
        <time>2025-06-30T13:41:21Z</time>
      </trkpt>
      <trkpt lat="48.60888" lon="-3.86342">
        <ele>23.2</ele>
        <time>2025-06-30T13:41:24Z</time>
      </trkpt>
      <trkpt lat="48.6089" lon="-3.86355">
        <ele>23.5</ele>
        <time>2025-06-30T13:41:27Z</time>
      </trkpt>
      <trkpt lat="48.60894" lon="-3.86372">
        <ele>23.9</ele>
        <time>2025-06-30T13:41:30Z</time>
      </trkpt>
      <trkpt lat="48.60895" lon="-3.86386">
        <ele>24.3</ele>
        <time>2025-06-30T13:41:33Z</time>
      </trkpt>
      <trkpt lat="48.60899" lon="-3.86403">
        <ele>24.7</ele>
        <time>2025-06-30T13:41:36Z</time>
      </trkpt>
      <trkpt lat="48.60898" lon="-3.8642">
        <ele>25.2</ele>
        <time>2025-06-30T13:41:39Z</time>
      </trkpt>
      <trkpt lat="48.60898" lon="-3.86434">
        <ele>25.6</ele>
        <time>2025-06-30T13:41:41Z</time>
      </trkpt>
      <trkpt lat="48.60896" lon="-3.86447">
        <ele>26</ele>
        <time>2025-06-30T13:41:44Z</time>
      </trkpt>
      <trkpt lat="48.60891" lon="-3.86463">
        <ele>26.5</ele>
        <time>2025-06-30T13:41:47Z</time>
      </trkpt>
      <trkpt lat="48.60886" lon="-3.86476">
        <ele>27</ele>
        <time>2025-06-30T13:41:50Z</time>
      </trkpt>
      <trkpt lat="48.6088" lon="-3.86486">
        <ele>27.4</ele>
        <time>2025-06-30T13:41:52Z</time>
      </trkpt>
      <trkpt lat="48.60872" lon="-3.86496">
        <ele>28</ele>
        <time>2025-06-30T13:41:55Z</time>
      </trkpt>
      <trkpt lat="48.60862" lon="-3.86504">
        <ele>28.6</ele>
        <time>2025-06-30T13:41:58Z</time>
      </trkpt>
      <trkpt lat="48.60853" lon="-3.86511">
        <ele>29</ele>
        <time>2025-06-30T13:42:01Z</time>
      </trkpt>
      <trkpt lat="48.60842" lon="-3.86518">
        <ele>29.6</ele>
        <time>2025-06-30T13:42:04Z</time>
      </trkpt>
      <trkpt lat="48.60831" lon="-3.86526">
        <ele>30.1</ele>
        <time>2025-06-30T13:42:07Z</time>
      </trkpt>
      <trkpt lat="48.6082" lon="-3.86535">
        <ele>30.7</ele>
        <time>2025-06-30T13:42:10Z</time>
      </trkpt>
      <trkpt lat="48.6081" lon="-3.86545">
        <ele>31.2</ele>
        <time>2025-06-30T13:42:13Z</time>
      </trkpt>
      <trkpt lat="48.60802" lon="-3.86557">
        <ele>31.7</ele>
        <time>2025-06-30T13:42:16Z</time>
      </trkpt>
      <trkpt lat="48.60794" lon="-3.8657">
        <ele>32.3</ele>
        <time>2025-06-30T13:42:19Z</time>
      </trkpt>
      <trkpt lat="48.60786" lon="-3.86583">
        <ele>32.8</ele>
        <time>2025-06-30T13:42:22Z</time>
      </trkpt>
      <trkpt lat="48.60779" lon="-3.86596">
        <ele>33.4</ele>
        <time>2025-06-30T13:42:25Z</time>
      </trkpt>
      <trkpt lat="48.60771" lon="-3.86608">
        <ele>33.9</ele>
        <time>2025-06-30T13:42:28Z</time>
      </trkpt>
      <trkpt lat="48.60763" lon="-3.8662">
        <ele>34.5</ele>
        <time>2025-06-30T13:42:31Z</time>
      </trkpt>
      <trkpt lat="48.60756" lon="-3.8663">
        <ele>35.1</ele>
        <time>2025-06-30T13:42:34Z</time>
      </trkpt>
      <trkpt lat="48.60746" lon="-3.86637">
        <ele>35.7</ele>
        <time>2025-06-30T13:42:37Z</time>
      </trkpt>
      <trkpt lat="48.60736" lon="-3.86645">
        <ele>36.2</ele>
        <time>2025-06-30T13:42:40Z</time>
      </trkpt>
      <trkpt lat="48.60724" lon="-3.86651">
        <ele>36.8</ele>
        <time>2025-06-30T13:42:43Z</time>
      </trkpt>
      <trkpt lat="48.60713" lon="-3.86659">
        <ele>37.4</ele>
        <time>2025-06-30T13:42:46Z</time>
      </trkpt>
      <trkpt lat="48.60706" lon="-3.86668">
        <ele>37.8</ele>
        <time>2025-06-30T13:42:50Z</time>
      </trkpt>
      <trkpt lat="48.60696" lon="-3.8668">
        <ele>38.4</ele>
        <time>2025-06-30T13:42:53Z</time>
      </trkpt>
      <trkpt lat="48.60687" lon="-3.86689">
        <ele>38.9</ele>
        <time>2025-06-30T13:42:56Z</time>
      </trkpt>
      <trkpt lat="48.6068" lon="-3.86698">
        <ele>39.3</ele>
        <time>2025-06-30T13:42:58Z</time>
      </trkpt>
      <trkpt lat="48.60673" lon="-3.86709">
        <ele>39.8</ele>
        <time>2025-06-30T13:43:01Z</time>
      </trkpt>
      <trkpt lat="48.60665" lon="-3.86721">
        <ele>40.3</ele>
        <time>2025-06-30T13:43:04Z</time>
      </trkpt>
      <trkpt lat="48.60657" lon="-3.86736">
        <ele>40.9</ele>
        <time>2025-06-30T13:43:07Z</time>
      </trkpt>
      <trkpt lat="48.6065" lon="-3.86748">
        <ele>41.4</ele>
        <time>2025-06-30T13:43:10Z</time>
      </trkpt>
      <trkpt lat="48.6064" lon="-3.86762">
        <ele>41.7</ele>
        <time>2025-06-30T13:43:13Z</time>
      </trkpt>
      <trkpt lat="48.60633" lon="-3.86772">
        <ele>41.9</ele>
        <time>2025-06-30T13:43:16Z</time>
      </trkpt>
      <trkpt lat="48.60626" lon="-3.86787">
        <ele>42.5</ele>
        <time>2025-06-30T13:43:20Z</time>
      </trkpt>
      <trkpt lat="48.60617" lon="-3.86805">
        <ele>43.2</ele>
        <time>2025-06-30T13:43:23Z</time>
      </trkpt>
      <trkpt lat="48.60609" lon="-3.86821">
        <ele>43.9</ele>
        <time>2025-06-30T13:43:26Z</time>
      </trkpt>
      <trkpt lat="48.60604" lon="-3.86838">
        <ele>44.5</ele>
        <time>2025-06-30T13:43:30Z</time>
      </trkpt>
      <trkpt lat="48.60599" lon="-3.86853">
        <ele>45</ele>
        <time>2025-06-30T13:43:32Z</time>
      </trkpt>
      <trkpt lat="48.60595" lon="-3.8687">
        <ele>45.6</ele>
        <time>2025-06-30T13:43:35Z</time>
      </trkpt>
      <trkpt lat="48.60592" lon="-3.86888">
        <ele>46.2</ele>
        <time>2025-06-30T13:43:38Z</time>
      </trkpt>
      <trkpt lat="48.60589" lon="-3.86903">
        <ele>46.8</ele>
        <time>2025-06-30T13:43:41Z</time>
      </trkpt>
      <trkpt lat="48.60588" lon="-3.86917">
        <ele>47.2</ele>
        <time>2025-06-30T13:43:44Z</time>
      </trkpt>
      <trkpt lat="48.60587" lon="-3.86934">
        <ele>47.8</ele>
        <time>2025-06-30T13:43:47Z</time>
      </trkpt>
      <trkpt lat="48.60586" lon="-3.86949">
        <ele>48.3</ele>
        <time>2025-06-30T13:43:51Z</time>
      </trkpt>
      <trkpt lat="48.60585" lon="-3.86963">
        <ele>48.8</ele>
        <time>2025-06-30T13:43:53Z</time>
      </trkpt>
      <trkpt lat="48.60584" lon="-3.86978">
        <ele>49.3</ele>
        <time>2025-06-30T13:43:56Z</time>
      </trkpt>
      <trkpt lat="48.60583" lon="-3.86994">
        <ele>49.8</ele>
        <time>2025-06-30T13:43:59Z</time>
      </trkpt>
      <trkpt lat="48.60582" lon="-3.87009">
        <ele>50.3</ele>
        <time>2025-06-30T13:44:02Z</time>
      </trkpt>
      <trkpt lat="48.60581" lon="-3.87024">
        <ele>50.8</ele>
        <time>2025-06-30T13:44:05Z</time>
      </trkpt>
      <trkpt lat="48.6058" lon="-3.87039">
        <ele>51.3</ele>
        <time>2025-06-30T13:44:08Z</time>
      </trkpt>
      <trkpt lat="48.6058" lon="-3.87053">
        <ele>51.9</ele>
        <time>2025-06-30T13:44:11Z</time>
      </trkpt>
      <trkpt lat="48.60579" lon="-3.87069">
        <ele>52.4</ele>
        <time>2025-06-30T13:44:14Z</time>
      </trkpt>
      <trkpt lat="48.60579" lon="-3.87084">
        <ele>52.9</ele>
        <time>2025-06-30T13:44:17Z</time>
      </trkpt>
      <trkpt lat="48.60578" lon="-3.87099">
        <ele>53.4</ele>
        <time>2025-06-30T13:44:20Z</time>
      </trkpt>
      <trkpt lat="48.60578" lon="-3.87114">
        <ele>53.9</ele>
        <time>2025-06-30T13:44:23Z</time>
      </trkpt>
      <trkpt lat="48.60579" lon="-3.8713">
        <ele>54.3</ele>
        <time>2025-06-30T13:44:26Z</time>
      </trkpt>
      <trkpt lat="48.6058" lon="-3.87145">
        <ele>54.7</ele>
        <time>2025-06-30T13:44:29Z</time>
      </trkpt>
      <trkpt lat="48.60583" lon="-3.8716">
        <ele>55.1</ele>
        <time>2025-06-30T13:44:32Z</time>
      </trkpt>
      <trkpt lat="48.60587" lon="-3.87175">
        <ele>55.5</ele>
        <time>2025-06-30T13:44:35Z</time>
      </trkpt>
      <trkpt lat="48.60592" lon="-3.87189">
        <ele>55.9</ele>
        <time>2025-06-30T13:44:38Z</time>
      </trkpt>
      <trkpt lat="48.60598" lon="-3.87203">
        <ele>56.2</ele>
        <time>2025-06-30T13:44:41Z</time>
      </trkpt>
      <trkpt lat="48.60605" lon="-3.87215">
        <ele>56.5</ele>
        <time>2025-06-30T13:44:44Z</time>
      </trkpt>
      <trkpt lat="48.60613" lon="-3.87224">
        <ele>56.8</ele>
        <time>2025-06-30T13:44:48Z</time>
      </trkpt>
      <trkpt lat="48.60624" lon="-3.87237">
        <ele>57.2</ele>
        <time>2025-06-30T13:44:51Z</time>
      </trkpt>
      <trkpt lat="48.60634" lon="-3.87248">
        <ele>57.5</ele>
        <time>2025-06-30T13:44:54Z</time>
      </trkpt>
      <trkpt lat="48.60643" lon="-3.87258">
        <ele>57.7</ele>
        <time>2025-06-30T13:44:58Z</time>
      </trkpt>
      <trkpt lat="48.60651" lon="-3.87268">
        <ele>58</ele>
        <time>2025-06-30T13:44:59Z</time>
      </trkpt>
      <trkpt lat="48.60661" lon="-3.87278">
        <ele>58.3</ele>
        <time>2025-06-30T13:45:02Z</time>
      </trkpt>
      <trkpt lat="48.6067" lon="-3.87289">
        <ele>58.4</ele>
        <time>2025-06-30T13:45:05Z</time>
      </trkpt>
      <trkpt lat="48.60679" lon="-3.87301">
        <ele>58.6</ele>
        <time>2025-06-30T13:45:08Z</time>
      </trkpt>
      <trkpt lat="48.60688" lon="-3.87314">
        <ele>58.7</ele>
        <time>2025-06-30T13:45:11Z</time>
      </trkpt>
      <trkpt lat="48.60693" lon="-3.87331">
        <ele>58.9</ele>
        <time>2025-06-30T13:45:14Z</time>
      </trkpt>
      <trkpt lat="48.60698" lon="-3.87348">
        <ele>59.1</ele>
        <time>2025-06-30T13:45:17Z</time>
      </trkpt>
      <trkpt lat="48.607" lon="-3.87364">
        <ele>59.3</ele>
        <time>2025-06-30T13:45:20Z</time>
      </trkpt>
      <trkpt lat="48.60701" lon="-3.87394">
        <ele>59.6</ele>
        <time>2025-06-30T13:45:24Z</time>
      </trkpt>
      <trkpt lat="48.60699" lon="-3.87408">
        <ele>59.8</ele>
        <time>2025-06-30T13:45:26Z</time>
      </trkpt>
      <trkpt lat="48.60694" lon="-3.87426">
        <ele>60.3</ele>
        <time>2025-06-30T13:45:29Z</time>
      </trkpt>
      <trkpt lat="48.60689" lon="-3.87438">
        <ele>60.7</ele>
        <time>2025-06-30T13:45:31Z</time>
      </trkpt>
      <trkpt lat="48.60684" lon="-3.87449">
        <ele>61</ele>
        <time>2025-06-30T13:45:33Z</time>
      </trkpt>
      <trkpt lat="48.60678" lon="-3.8746">
        <ele>61.4</ele>
        <time>2025-06-30T13:45:35Z</time>
      </trkpt>
      <trkpt lat="48.60669" lon="-3.87474">
        <ele>62</ele>
        <time>2025-06-30T13:45:38Z</time>
      </trkpt>
      <trkpt lat="48.60663" lon="-3.87485">
        <ele>62.4</ele>
        <time>2025-06-30T13:45:40Z</time>
      </trkpt>
      <trkpt lat="48.60654" lon="-3.87499">
        <ele>62.9</ele>
        <time>2025-06-30T13:45:43Z</time>
      </trkpt>
      <trkpt lat="48.60645" lon="-3.87513">
        <ele>63.5</ele>
        <time>2025-06-30T13:45:46Z</time>
      </trkpt>
      <trkpt lat="48.60636" lon="-3.87527">
        <ele>64</ele>
        <time>2025-06-30T13:45:49Z</time>
      </trkpt>
      <trkpt lat="48.6063" lon="-3.87537">
        <ele>64.4</ele>
        <time>2025-06-30T13:45:51Z</time>
      </trkpt>
      <trkpt lat="48.60621" lon="-3.87552">
        <ele>65</ele>
        <time>2025-06-30T13:45:54Z</time>
      </trkpt>
      <trkpt lat="48.60613" lon="-3.87566">
        <ele>65.6</ele>
        <time>2025-06-30T13:45:57Z</time>
      </trkpt>
      <trkpt lat="48.60603" lon="-3.87582">
        <ele>66.2</ele>
        <time>2025-06-30T13:46:00Z</time>
      </trkpt>
      <trkpt lat="48.60595" lon="-3.87595">
        <ele>66.8</ele>
        <time>2025-06-30T13:46:03Z</time>
      </trkpt>
      <trkpt lat="48.60587" lon="-3.87607">
        <ele>67.2</ele>
        <time>2025-06-30T13:46:06Z</time>
      </trkpt>
      <trkpt lat="48.60579" lon="-3.87621">
        <ele>67.7</ele>
        <time>2025-06-30T13:46:09Z</time>
      </trkpt>
      <trkpt lat="48.60572" lon="-3.87635">
        <ele>68.2</ele>
        <time>2025-06-30T13:46:12Z</time>
      </trkpt>
      <trkpt lat="48.60563" lon="-3.87654">
        <ele>68.8</ele>
        <time>2025-06-30T13:46:15Z</time>
      </trkpt>
      <trkpt lat="48.60556" lon="-3.8767">
        <ele>69.3</ele>
        <time>2025-06-30T13:46:18Z</time>
      </trkpt>
      <trkpt lat="48.60552" lon="-3.87685">
        <ele>69.7</ele>
        <time>2025-06-30T13:46:22Z</time>
      </trkpt>
      <trkpt lat="48.60548" lon="-3.87699">
        <ele>70.2</ele>
        <time>2025-06-30T13:46:25Z</time>
      </trkpt>
      <trkpt lat="48.60541" lon="-3.87719">
        <ele>70.7</ele>
        <time>2025-06-30T13:46:27Z</time>
      </trkpt>
      <trkpt lat="48.60537" lon="-3.87735">
        <ele>71.1</ele>
        <time>2025-06-30T13:46:30Z</time>
      </trkpt>
      <trkpt lat="48.60533" lon="-3.87751">
        <ele>71.3</ele>
        <time>2025-06-30T13:46:33Z</time>
      </trkpt>
      <trkpt lat="48.60527" lon="-3.87766">
        <ele>71.4</ele>
        <time>2025-06-30T13:46:36Z</time>
      </trkpt>
      <trkpt lat="48.60523" lon="-3.87782">
        <ele>71.5</ele>
        <time>2025-06-30T13:46:39Z</time>
      </trkpt>
      <trkpt lat="48.60518" lon="-3.87797">
        <ele>71.4</ele>
        <time>2025-06-30T13:46:42Z</time>
      </trkpt>
      <trkpt lat="48.60514" lon="-3.87811">
        <ele>71.4</ele>
        <time>2025-06-30T13:46:45Z</time>
      </trkpt>
      <trkpt lat="48.6051" lon="-3.87828">
        <ele>71.2</ele>
        <time>2025-06-30T13:46:48Z</time>
      </trkpt>
      <trkpt lat="48.60506" lon="-3.87841">
        <ele>71.1</ele>
        <time>2025-06-30T13:46:50Z</time>
      </trkpt>
      <trkpt lat="48.60502" lon="-3.87856">
        <ele>71</ele>
        <time>2025-06-30T13:46:52Z</time>
      </trkpt>
      <trkpt lat="48.60498" lon="-3.8787">
        <ele>70.9</ele>
        <time>2025-06-30T13:46:54Z</time>
      </trkpt>
      <trkpt lat="48.60493" lon="-3.87885">
        <ele>70.8</ele>
        <time>2025-06-30T13:46:56Z</time>
      </trkpt>
      <trkpt lat="48.60489" lon="-3.87901">
        <ele>70.6</ele>
        <time>2025-06-30T13:46:58Z</time>
      </trkpt>
      <trkpt lat="48.60485" lon="-3.87915">
        <ele>70.5</ele>
        <time>2025-06-30T13:47:00Z</time>
      </trkpt>
      <trkpt lat="48.6048" lon="-3.87931">
        <ele>70.3</ele>
        <time>2025-06-30T13:47:02Z</time>
      </trkpt>
      <trkpt lat="48.60476" lon="-3.87946">
        <ele>70.2</ele>
        <time>2025-06-30T13:47:04Z</time>
      </trkpt>
      <trkpt lat="48.60471" lon="-3.87961">
        <ele>70.1</ele>
        <time>2025-06-30T13:47:06Z</time>
      </trkpt>
      <trkpt lat="48.60467" lon="-3.87981">
        <ele>69.9</ele>
        <time>2025-06-30T13:47:09Z</time>
      </trkpt>
      <trkpt lat="48.60462" lon="-3.87998">
        <ele>69.7</ele>
        <time>2025-06-30T13:47:11Z</time>
      </trkpt>
      <trkpt lat="48.60457" lon="-3.88013">
        <ele>69.6</ele>
        <time>2025-06-30T13:47:13Z</time>
      </trkpt>
      <trkpt lat="48.60453" lon="-3.88028">
        <ele>69.4</ele>
        <time>2025-06-30T13:47:15Z</time>
      </trkpt>
      <trkpt lat="48.60448" lon="-3.88042">
        <ele>69.3</ele>
        <time>2025-06-30T13:47:17Z</time>
      </trkpt>
      <trkpt lat="48.60444" lon="-3.88058">
        <ele>69.1</ele>
        <time>2025-06-30T13:47:19Z</time>
      </trkpt>
      <trkpt lat="48.60439" lon="-3.88073">
        <ele>69</ele>
        <time>2025-06-30T13:47:21Z</time>
      </trkpt>
      <trkpt lat="48.60436" lon="-3.88088">
        <ele>68.9</ele>
        <time>2025-06-30T13:47:23Z</time>
      </trkpt>
      <trkpt lat="48.60431" lon="-3.88103">
        <ele>68.8</ele>
        <time>2025-06-30T13:47:25Z</time>
      </trkpt>
      <trkpt lat="48.60427" lon="-3.88118">
        <ele>68.7</ele>
        <time>2025-06-30T13:47:27Z</time>
      </trkpt>
      <trkpt lat="48.60423" lon="-3.88133">
        <ele>68.6</ele>
        <time>2025-06-30T13:47:29Z</time>
      </trkpt>
      <trkpt lat="48.60419" lon="-3.88146">
        <ele>68.6</ele>
        <time>2025-06-30T13:47:31Z</time>
      </trkpt>
      <trkpt lat="48.60415" lon="-3.88161">
        <ele>68.5</ele>
        <time>2025-06-30T13:47:33Z</time>
      </trkpt>
      <trkpt lat="48.60411" lon="-3.88175">
        <ele>68.5</ele>
        <time>2025-06-30T13:47:35Z</time>
      </trkpt>
      <trkpt lat="48.60407" lon="-3.88189">
        <ele>68.4</ele>
        <time>2025-06-30T13:47:37Z</time>
      </trkpt>
      <trkpt lat="48.60403" lon="-3.88203">
        <ele>68.4</ele>
        <time>2025-06-30T13:47:39Z</time>
      </trkpt>
      <trkpt lat="48.60399" lon="-3.88216">
        <ele>68.4</ele>
        <time>2025-06-30T13:47:41Z</time>
      </trkpt>
      <trkpt lat="48.60395" lon="-3.88229">
        <ele>68.4</ele>
        <time>2025-06-30T13:47:43Z</time>
      </trkpt>
      <trkpt lat="48.60392" lon="-3.88244">
        <ele>68.4</ele>
        <time>2025-06-30T13:47:45Z</time>
      </trkpt>
      <trkpt lat="48.60387" lon="-3.88258">
        <ele>68.5</ele>
        <time>2025-06-30T13:47:47Z</time>
      </trkpt>
      <trkpt lat="48.60383" lon="-3.88273">
        <ele>68.6</ele>
        <time>2025-06-30T13:47:49Z</time>
      </trkpt>
      <trkpt lat="48.60378" lon="-3.8829">
        <ele>68.7</ele>
        <time>2025-06-30T13:47:51Z</time>
      </trkpt>
      <trkpt lat="48.60374" lon="-3.88304">
        <ele>68.8</ele>
        <time>2025-06-30T13:47:53Z</time>
      </trkpt>
      <trkpt lat="48.60369" lon="-3.88321">
        <ele>69</ele>
        <time>2025-06-30T13:47:55Z</time>
      </trkpt>
      <trkpt lat="48.60364" lon="-3.88338">
        <ele>69.1</ele>
        <time>2025-06-30T13:47:57Z</time>
      </trkpt>
      <trkpt lat="48.60359" lon="-3.88355">
        <ele>69.3</ele>
        <time>2025-06-30T13:47:59Z</time>
      </trkpt>
      <trkpt lat="48.60354" lon="-3.88372">
        <ele>69.4</ele>
        <time>2025-06-30T13:48:01Z</time>
      </trkpt>
      <trkpt lat="48.60349" lon="-3.88389">
        <ele>69.6</ele>
        <time>2025-06-30T13:48:03Z</time>
      </trkpt>
      <trkpt lat="48.60345" lon="-3.88404">
        <ele>69.8</ele>
        <time>2025-06-30T13:48:05Z</time>
      </trkpt>
      <trkpt lat="48.60343" lon="-3.88418">
        <ele>69.9</ele>
        <time>2025-06-30T13:48:07Z</time>
      </trkpt>
      <trkpt lat="48.60341" lon="-3.88436">
        <ele>70.1</ele>
        <time>2025-06-30T13:48:09Z</time>
      </trkpt>
      <trkpt lat="48.60334" lon="-3.88456">
        <ele>70.3</ele>
        <time>2025-06-30T13:48:11Z</time>
      </trkpt>
      <trkpt lat="48.60329" lon="-3.88469">
        <ele>70.5</ele>
        <time>2025-06-30T13:48:13Z</time>
      </trkpt>
      <trkpt lat="48.60322" lon="-3.88487">
        <ele>70.7</ele>
        <time>2025-06-30T13:48:15Z</time>
      </trkpt>
      <trkpt lat="48.60317" lon="-3.88502">
        <ele>70.9</ele>
        <time>2025-06-30T13:48:17Z</time>
      </trkpt>
      <trkpt lat="48.60311" lon="-3.8852">
        <ele>71.2</ele>
        <time>2025-06-30T13:48:19Z</time>
      </trkpt>
      <trkpt lat="48.60307" lon="-3.88536">
        <ele>71.4</ele>
        <time>2025-06-30T13:48:21Z</time>
      </trkpt>
      <trkpt lat="48.60302" lon="-3.88553">
        <ele>71.6</ele>
        <time>2025-06-30T13:48:23Z</time>
      </trkpt>
      <trkpt lat="48.60297" lon="-3.88568">
        <ele>71.8</ele>
        <time>2025-06-30T13:48:25Z</time>
      </trkpt>
      <trkpt lat="48.60292" lon="-3.88585">
        <ele>71.9</ele>
        <time>2025-06-30T13:48:27Z</time>
      </trkpt>
      <trkpt lat="48.60287" lon="-3.88601">
        <ele>72.1</ele>
        <time>2025-06-30T13:48:29Z</time>
      </trkpt>
      <trkpt lat="48.60283" lon="-3.88617">
        <ele>72.3</ele>
        <time>2025-06-30T13:48:31Z</time>
      </trkpt>
      <trkpt lat="48.60279" lon="-3.88634">
        <ele>72.5</ele>
        <time>2025-06-30T13:48:33Z</time>
      </trkpt>
      <trkpt lat="48.60274" lon="-3.88651">
        <ele>72.8</ele>
        <time>2025-06-30T13:48:35Z</time>
      </trkpt>
      <trkpt lat="48.60268" lon="-3.88669">
        <ele>73</ele>
        <time>2025-06-30T13:48:37Z</time>
      </trkpt>
      <trkpt lat="48.60265" lon="-3.88688">
        <ele>73.3</ele>
        <time>2025-06-30T13:48:39Z</time>
      </trkpt>
      <trkpt lat="48.6026" lon="-3.88703">
        <ele>73.5</ele>
        <time>2025-06-30T13:48:41Z</time>
      </trkpt>
      <trkpt lat="48.60255" lon="-3.88718">
        <ele>73.7</ele>
        <time>2025-06-30T13:48:43Z</time>
      </trkpt>
      <trkpt lat="48.60251" lon="-3.88734">
        <ele>74</ele>
        <time>2025-06-30T13:48:45Z</time>
      </trkpt>
      <trkpt lat="48.60247" lon="-3.8875">
        <ele>74.2</ele>
        <time>2025-06-30T13:48:47Z</time>
      </trkpt>
      <trkpt lat="48.60242" lon="-3.88766">
        <ele>74.5</ele>
        <time>2025-06-30T13:48:49Z</time>
      </trkpt>
      <trkpt lat="48.60238" lon="-3.88782">
        <ele>74.7</ele>
        <time>2025-06-30T13:48:51Z</time>
      </trkpt>
      <trkpt lat="48.60233" lon="-3.88799">
        <ele>75</ele>
        <time>2025-06-30T13:48:53Z</time>
      </trkpt>
      <trkpt lat="48.60228" lon="-3.88814">
        <ele>75.3</ele>
        <time>2025-06-30T13:48:55Z</time>
      </trkpt>
      <trkpt lat="48.60223" lon="-3.8883">
        <ele>75.8</ele>
        <time>2025-06-30T13:48:57Z</time>
      </trkpt>
      <trkpt lat="48.60218" lon="-3.88844">
        <ele>76.2</ele>
        <time>2025-06-30T13:48:59Z</time>
      </trkpt>
      <trkpt lat="48.60214" lon="-3.88859">
        <ele>76.5</ele>
        <time>2025-06-30T13:49:01Z</time>
      </trkpt>
      <trkpt lat="48.6021" lon="-3.88873">
        <ele>76.7</ele>
        <time>2025-06-30T13:49:03Z</time>
      </trkpt>
      <trkpt lat="48.60206" lon="-3.88887">
        <ele>77</ele>
        <time>2025-06-30T13:49:05Z</time>
      </trkpt>
      <trkpt lat="48.60202" lon="-3.889">
        <ele>77.4</ele>
        <time>2025-06-30T13:49:07Z</time>
      </trkpt>
      <trkpt lat="48.60198" lon="-3.88912">
        <ele>77.7</ele>
        <time>2025-06-30T13:49:09Z</time>
      </trkpt>
      <trkpt lat="48.60194" lon="-3.88925">
        <ele>78.1</ele>
        <time>2025-06-30T13:49:11Z</time>
      </trkpt>
      <trkpt lat="48.60191" lon="-3.88939">
        <ele>78.5</ele>
        <time>2025-06-30T13:49:13Z</time>
      </trkpt>
      <trkpt lat="48.60187" lon="-3.88952">
        <ele>78.9</ele>
        <time>2025-06-30T13:49:15Z</time>
      </trkpt>
      <trkpt lat="48.60184" lon="-3.88966">
        <ele>79.2</ele>
        <time>2025-06-30T13:49:17Z</time>
      </trkpt>
      <trkpt lat="48.6018" lon="-3.88978">
        <ele>79.5</ele>
        <time>2025-06-30T13:49:19Z</time>
      </trkpt>
      <trkpt lat="48.60176" lon="-3.88991">
        <ele>79.7</ele>
        <time>2025-06-30T13:49:21Z</time>
      </trkpt>
      <trkpt lat="48.60173" lon="-3.89003">
        <ele>79.8</ele>
        <time>2025-06-30T13:49:23Z</time>
      </trkpt>
      <trkpt lat="48.60169" lon="-3.89016">
        <ele>79.9</ele>
        <time>2025-06-30T13:49:25Z</time>
      </trkpt>
      <trkpt lat="48.60165" lon="-3.89029">
        <ele>80</ele>
        <time>2025-06-30T13:49:27Z</time>
      </trkpt>
      <trkpt lat="48.60162" lon="-3.89043">
        <ele>80.1</ele>
        <time>2025-06-30T13:49:29Z</time>
      </trkpt>
      <trkpt lat="48.60158" lon="-3.89057">
        <ele>80.2</ele>
        <time>2025-06-30T13:49:31Z</time>
      </trkpt>
      <trkpt lat="48.60153" lon="-3.8907">
        <ele>80.4</ele>
        <time>2025-06-30T13:49:33Z</time>
      </trkpt>
      <trkpt lat="48.6015" lon="-3.89084">
        <ele>80.5</ele>
        <time>2025-06-30T13:49:35Z</time>
      </trkpt>
      <trkpt lat="48.60147" lon="-3.89099">
        <ele>80.6</ele>
        <time>2025-06-30T13:49:37Z</time>
      </trkpt>
      <trkpt lat="48.60145" lon="-3.89114">
        <ele>80.9</ele>
        <time>2025-06-30T13:49:39Z</time>
      </trkpt>
      <trkpt lat="48.60144" lon="-3.89129">
        <ele>81.2</ele>
        <time>2025-06-30T13:49:41Z</time>
      </trkpt>
      <trkpt lat="48.60144" lon="-3.89143">
        <ele>81.3</ele>
        <time>2025-06-30T13:49:43Z</time>
      </trkpt>
      <trkpt lat="48.60144" lon="-3.89157">
        <ele>81.5</ele>
        <time>2025-06-30T13:49:45Z</time>
      </trkpt>
      <trkpt lat="48.60144" lon="-3.89171">
        <ele>81.9</ele>
        <time>2025-06-30T13:49:47Z</time>
      </trkpt>
      <trkpt lat="48.60144" lon="-3.89191">
        <ele>82.5</ele>
        <time>2025-06-30T13:49:50Z</time>
      </trkpt>
      <trkpt lat="48.60143" lon="-3.89208">
        <ele>83.1</ele>
        <time>2025-06-30T13:49:53Z</time>
      </trkpt>
      <trkpt lat="48.60144" lon="-3.89223">
        <ele>83.6</ele>
        <time>2025-06-30T13:49:57Z</time>
      </trkpt>
      <trkpt lat="48.60142" lon="-3.89238">
        <ele>84</ele>
        <time>2025-06-30T13:50:03Z</time>
      </trkpt>
      <trkpt lat="48.60139" lon="-3.89253">
        <ele>84.5</ele>
        <time>2025-06-30T13:50:07Z</time>
      </trkpt>
      <trkpt lat="48.60138" lon="-3.8927">
        <ele>85.1</ele>
        <time>2025-06-30T13:50:11Z</time>
      </trkpt>
      <trkpt lat="48.60137" lon="-3.89284">
        <ele>85.5</ele>
        <time>2025-06-30T13:50:14Z</time>
      </trkpt>
      <trkpt lat="48.60135" lon="-3.89298">
        <ele>86</ele>
        <time>2025-06-30T13:50:17Z</time>
      </trkpt>
      <trkpt lat="48.60135" lon="-3.89313">
        <ele>86.4</ele>
        <time>2025-06-30T13:50:20Z</time>
      </trkpt>
      <trkpt lat="48.60134" lon="-3.89327">
        <ele>86.9</ele>
        <time>2025-06-30T13:50:23Z</time>
      </trkpt>
      <trkpt lat="48.60133" lon="-3.89342">
        <ele>87.3</ele>
        <time>2025-06-30T13:50:26Z</time>
      </trkpt>
      <trkpt lat="48.60133" lon="-3.89357">
        <ele>87.7</ele>
        <time>2025-06-30T13:50:29Z</time>
      </trkpt>
      <trkpt lat="48.60131" lon="-3.89373">
        <ele>88</ele>
        <time>2025-06-30T13:50:32Z</time>
      </trkpt>
      <trkpt lat="48.60132" lon="-3.89388">
        <ele>88.4</ele>
        <time>2025-06-30T13:50:35Z</time>
      </trkpt>
      <trkpt lat="48.60131" lon="-3.89405">
        <ele>88.8</ele>
        <time>2025-06-30T13:50:38Z</time>
      </trkpt>
      <trkpt lat="48.60131" lon="-3.89421">
        <ele>89.1</ele>
        <time>2025-06-30T13:50:41Z</time>
      </trkpt>
      <trkpt lat="48.60132" lon="-3.89436">
        <ele>89.3</ele>
        <time>2025-06-30T13:50:44Z</time>
      </trkpt>
      <trkpt lat="48.60133" lon="-3.89453">
        <ele>89.6</ele>
        <time>2025-06-30T13:50:47Z</time>
      </trkpt>
      <trkpt lat="48.60135" lon="-3.89471">
        <ele>89.8</ele>
        <time>2025-06-30T13:50:51Z</time>
      </trkpt>
      <trkpt lat="48.60136" lon="-3.89487">
        <ele>90</ele>
        <time>2025-06-30T13:50:54Z</time>
      </trkpt>
      <trkpt lat="48.60137" lon="-3.89511">
        <ele>90.1</ele>
        <time>2025-06-30T13:50:58Z</time>
      </trkpt>
      <trkpt lat="48.60144" lon="-3.89525">
        <ele>90.3</ele>
        <time>2025-06-30T13:51:01Z</time>
      </trkpt>
      <trkpt lat="48.60151" lon="-3.8954">
        <ele>90.4</ele>
        <time>2025-06-30T13:51:04Z</time>
      </trkpt>
      <trkpt lat="48.60158" lon="-3.89555">
        <ele>90.5</ele>
        <time>2025-06-30T13:51:07Z</time>
      </trkpt>
      <trkpt lat="48.60164" lon="-3.89565">
        <ele>90.6</ele>
        <time>2025-06-30T13:51:09Z</time>
      </trkpt>
      <trkpt lat="48.60173" lon="-3.89581">
        <ele>90.7</ele>
        <time>2025-06-30T13:51:12Z</time>
      </trkpt>
      <trkpt lat="48.60181" lon="-3.89597">
        <ele>90.7</ele>
        <time>2025-06-30T13:51:15Z</time>
      </trkpt>
      <trkpt lat="48.60188" lon="-3.89611">
        <ele>90.8</ele>
        <time>2025-06-30T13:51:18Z</time>
      </trkpt>
      <trkpt lat="48.60196" lon="-3.89627">
        <ele>90.9</ele>
        <time>2025-06-30T13:51:21Z</time>
      </trkpt>
      <trkpt lat="48.60202" lon="-3.89638">
        <ele>90.9</ele>
        <time>2025-06-30T13:51:23Z</time>
      </trkpt>
      <trkpt lat="48.60208" lon="-3.89649">
        <ele>90.9</ele>
        <time>2025-06-30T13:51:25Z</time>
      </trkpt>
      <trkpt lat="48.60214" lon="-3.89661">
        <ele>90.9</ele>
        <time>2025-06-30T13:51:27Z</time>
      </trkpt>
      <trkpt lat="48.60221" lon="-3.89672">
        <ele>91</ele>
        <time>2025-06-30T13:51:29Z</time>
      </trkpt>
      <trkpt lat="48.60227" lon="-3.89685">
        <ele>91</ele>
        <time>2025-06-30T13:51:31Z</time>
      </trkpt>
      <trkpt lat="48.60233" lon="-3.89697">
        <ele>91</ele>
        <time>2025-06-30T13:51:33Z</time>
      </trkpt>
      <trkpt lat="48.60241" lon="-3.89707">
        <ele>91</ele>
        <time>2025-06-30T13:51:35Z</time>
      </trkpt>
      <trkpt lat="48.60251" lon="-3.89721">
        <ele>91.1</ele>
        <time>2025-06-30T13:51:38Z</time>
      </trkpt>
      <trkpt lat="48.6026" lon="-3.89732">
        <ele>91.1</ele>
        <time>2025-06-30T13:51:40Z</time>
      </trkpt>
      <trkpt lat="48.60267" lon="-3.89744">
        <ele>91.1</ele>
        <time>2025-06-30T13:51:42Z</time>
      </trkpt>
      <trkpt lat="48.60274" lon="-3.89757">
        <ele>91.2</ele>
        <time>2025-06-30T13:51:44Z</time>
      </trkpt>
      <trkpt lat="48.60281" lon="-3.89767">
        <ele>91.2</ele>
        <time>2025-06-30T13:51:46Z</time>
      </trkpt>
      <trkpt lat="48.60287" lon="-3.89778">
        <ele>91.2</ele>
        <time>2025-06-30T13:51:48Z</time>
      </trkpt>
      <trkpt lat="48.60294" lon="-3.8979">
        <ele>91.3</ele>
        <time>2025-06-30T13:51:50Z</time>
      </trkpt>
      <trkpt lat="48.603" lon="-3.89801">
        <ele>91.3</ele>
        <time>2025-06-30T13:51:52Z</time>
      </trkpt>
      <trkpt lat="48.60306" lon="-3.89813">
        <ele>91.3</ele>
        <time>2025-06-30T13:51:54Z</time>
      </trkpt>
      <trkpt lat="48.60312" lon="-3.89826">
        <ele>91.4</ele>
        <time>2025-06-30T13:51:56Z</time>
      </trkpt>
      <trkpt lat="48.60318" lon="-3.89839">
        <ele>91.2</ele>
        <time>2025-06-30T13:51:58Z</time>
      </trkpt>
      <trkpt lat="48.60323" lon="-3.89852">
        <ele>91.1</ele>
        <time>2025-06-30T13:52:00Z</time>
      </trkpt>
      <trkpt lat="48.60329" lon="-3.89864">
        <ele>91</ele>
        <time>2025-06-30T13:52:02Z</time>
      </trkpt>
      <trkpt lat="48.60337" lon="-3.89876">
        <ele>90.8</ele>
        <time>2025-06-30T13:52:04Z</time>
      </trkpt>
      <trkpt lat="48.60345" lon="-3.89885">
        <ele>90.7</ele>
        <time>2025-06-30T13:52:06Z</time>
      </trkpt>
      <trkpt lat="48.60355" lon="-3.89896">
        <ele>90.6</ele>
        <time>2025-06-30T13:52:09Z</time>
      </trkpt>
      <trkpt lat="48.60363" lon="-3.89904">
        <ele>90.4</ele>
        <time>2025-06-30T13:52:11Z</time>
      </trkpt>
      <trkpt lat="48.6037" lon="-3.89913">
        <ele>90.3</ele>
        <time>2025-06-30T13:52:13Z</time>
      </trkpt>
      <trkpt lat="48.60376" lon="-3.89924">
        <ele>90.1</ele>
        <time>2025-06-30T13:52:15Z</time>
      </trkpt>
      <trkpt lat="48.60382" lon="-3.89935">
        <ele>90</ele>
        <time>2025-06-30T13:52:17Z</time>
      </trkpt>
      <trkpt lat="48.60387" lon="-3.89947">
        <ele>89.7</ele>
        <time>2025-06-30T13:52:19Z</time>
      </trkpt>
      <trkpt lat="48.60394" lon="-3.89957">
        <ele>89.3</ele>
        <time>2025-06-30T13:52:21Z</time>
      </trkpt>
      <trkpt lat="48.60403" lon="-3.89964">
        <ele>88.8</ele>
        <time>2025-06-30T13:52:23Z</time>
      </trkpt>
      <trkpt lat="48.60412" lon="-3.89972">
        <ele>88.3</ele>
        <time>2025-06-30T13:52:25Z</time>
      </trkpt>
      <trkpt lat="48.60422" lon="-3.89978">
        <ele>87.9</ele>
        <time>2025-06-30T13:52:27Z</time>
      </trkpt>
      <trkpt lat="48.60432" lon="-3.89978">
        <ele>87.5</ele>
        <time>2025-06-30T13:52:29Z</time>
      </trkpt>
      <trkpt lat="48.60445" lon="-3.89979">
        <ele>86.7</ele>
        <time>2025-06-30T13:52:31Z</time>
      </trkpt>
      <trkpt lat="48.60458" lon="-3.8998">
        <ele>85.8</ele>
        <time>2025-06-30T13:52:33Z</time>
      </trkpt>
      <trkpt lat="48.60468" lon="-3.89978">
        <ele>85.3</ele>
        <time>2025-06-30T13:52:35Z</time>
      </trkpt>
      <trkpt lat="48.60477" lon="-3.89981">
        <ele>84.8</ele>
        <time>2025-06-30T13:52:37Z</time>
      </trkpt>
      <trkpt lat="48.60487" lon="-3.89987">
        <ele>84.2</ele>
        <time>2025-06-30T13:52:39Z</time>
      </trkpt>
      <trkpt lat="48.60498" lon="-3.89992">
        <ele>83.8</ele>
        <time>2025-06-30T13:52:41Z</time>
      </trkpt>
      <trkpt lat="48.60511" lon="-3.89995">
        <ele>83.1</ele>
        <time>2025-06-30T13:52:43Z</time>
      </trkpt>
      <trkpt lat="48.60524" lon="-3.89998">
        <ele>82.3</ele>
        <time>2025-06-30T13:52:45Z</time>
      </trkpt>
      <trkpt lat="48.60539" lon="-3.9">
        <ele>81.3</ele>
        <time>2025-06-30T13:52:47Z</time>
      </trkpt>
      <trkpt lat="48.60555" lon="-3.90003">
        <ele>80.2</ele>
        <time>2025-06-30T13:52:49Z</time>
      </trkpt>
      <trkpt lat="48.60573" lon="-3.90006">
        <ele>79</ele>
        <time>2025-06-30T13:52:51Z</time>
      </trkpt>
      <trkpt lat="48.60582" lon="-3.90006">
        <ele>78.3</ele>
        <time>2025-06-30T13:52:52Z</time>
      </trkpt>
      <trkpt lat="48.60591" lon="-3.90004">
        <ele>77.6</ele>
        <time>2025-06-30T13:52:53Z</time>
      </trkpt>
      <trkpt lat="48.606" lon="-3.90002">
        <ele>76.9</ele>
        <time>2025-06-30T13:52:54Z</time>
      </trkpt>
      <trkpt lat="48.6061" lon="-3.90001">
        <ele>76.2</ele>
        <time>2025-06-30T13:52:55Z</time>
      </trkpt>
      <trkpt lat="48.6062" lon="-3.89999">
        <ele>75.5</ele>
        <time>2025-06-30T13:52:56Z</time>
      </trkpt>
      <trkpt lat="48.60629" lon="-3.89998">
        <ele>74.8</ele>
        <time>2025-06-30T13:52:57Z</time>
      </trkpt>
      <trkpt lat="48.60639" lon="-3.89994">
        <ele>74</ele>
        <time>2025-06-30T13:52:58Z</time>
      </trkpt>
      <trkpt lat="48.60649" lon="-3.8999">
        <ele>73.3</ele>
        <time>2025-06-30T13:52:59Z</time>
      </trkpt>
      <trkpt lat="48.6066" lon="-3.89986">
        <ele>72.5</ele>
        <time>2025-06-30T13:53:00Z</time>
      </trkpt>
      <trkpt lat="48.6067" lon="-3.89981">
        <ele>71.7</ele>
        <time>2025-06-30T13:53:01Z</time>
      </trkpt>
      <trkpt lat="48.60681" lon="-3.89975">
        <ele>71.1</ele>
        <time>2025-06-30T13:53:02Z</time>
      </trkpt>
      <trkpt lat="48.60691" lon="-3.89969">
        <ele>70.4</ele>
        <time>2025-06-30T13:53:03Z</time>
      </trkpt>
      <trkpt lat="48.60702" lon="-3.89963">
        <ele>69.8</ele>
        <time>2025-06-30T13:53:04Z</time>
      </trkpt>
      <trkpt lat="48.60712" lon="-3.89957">
        <ele>69.3</ele>
        <time>2025-06-30T13:53:05Z</time>
      </trkpt>
      <trkpt lat="48.60722" lon="-3.8995">
        <ele>68.8</ele>
        <time>2025-06-30T13:53:06Z</time>
      </trkpt>
      <trkpt lat="48.60732" lon="-3.89942">
        <ele>68.5</ele>
        <time>2025-06-30T13:53:07Z</time>
      </trkpt>
      <trkpt lat="48.60742" lon="-3.89935">
        <ele>68.2</ele>
        <time>2025-06-30T13:53:08Z</time>
      </trkpt>
      <trkpt lat="48.60752" lon="-3.89929">
        <ele>68</ele>
        <time>2025-06-30T13:53:09Z</time>
      </trkpt>
      <trkpt lat="48.60761" lon="-3.89924">
        <ele>68</ele>
        <time>2025-06-30T13:53:10Z</time>
      </trkpt>
      <trkpt lat="48.6077" lon="-3.89918">
        <ele>68</ele>
        <time>2025-06-30T13:53:11Z</time>
      </trkpt>
      <trkpt lat="48.6078" lon="-3.89913">
        <ele>68</ele>
        <time>2025-06-30T13:53:12Z</time>
      </trkpt>
      <trkpt lat="48.60788" lon="-3.89906">
        <ele>68</ele>
        <time>2025-06-30T13:53:13Z</time>
      </trkpt>
      <trkpt lat="48.60797" lon="-3.89901">
        <ele>68.1</ele>
        <time>2025-06-30T13:53:14Z</time>
      </trkpt>
      <trkpt lat="48.60812" lon="-3.8989">
        <ele>68.3</ele>
        <time>2025-06-30T13:53:16Z</time>
      </trkpt>
      <trkpt lat="48.60826" lon="-3.89877">
        <ele>68.5</ele>
        <time>2025-06-30T13:53:18Z</time>
      </trkpt>
      <trkpt lat="48.60842" lon="-3.89871">
        <ele>68.6</ele>
        <time>2025-06-30T13:53:20Z</time>
      </trkpt>
      <trkpt lat="48.60856" lon="-3.89861">
        <ele>68.7</ele>
        <time>2025-06-30T13:53:22Z</time>
      </trkpt>
      <trkpt lat="48.6087" lon="-3.89852">
        <ele>68.8</ele>
        <time>2025-06-30T13:53:24Z</time>
      </trkpt>
      <trkpt lat="48.60884" lon="-3.89845">
        <ele>68.9</ele>
        <time>2025-06-30T13:53:26Z</time>
      </trkpt>
      <trkpt lat="48.60897" lon="-3.89835">
        <ele>69</ele>
        <time>2025-06-30T13:53:28Z</time>
      </trkpt>
      <trkpt lat="48.60911" lon="-3.89826">
        <ele>69.1</ele>
        <time>2025-06-30T13:53:30Z</time>
      </trkpt>
      <trkpt lat="48.60924" lon="-3.89818">
        <ele>69.3</ele>
        <time>2025-06-30T13:53:32Z</time>
      </trkpt>
      <trkpt lat="48.60937" lon="-3.89809">
        <ele>69.4</ele>
        <time>2025-06-30T13:53:34Z</time>
      </trkpt>
      <trkpt lat="48.6095" lon="-3.89801">
        <ele>69.5</ele>
        <time>2025-06-30T13:53:36Z</time>
      </trkpt>
      <trkpt lat="48.60962" lon="-3.89793">
        <ele>69.6</ele>
        <time>2025-06-30T13:53:38Z</time>
      </trkpt>
      <trkpt lat="48.60975" lon="-3.89785">
        <ele>69.8</ele>
        <time>2025-06-30T13:53:40Z</time>
      </trkpt>
      <trkpt lat="48.60987" lon="-3.89777">
        <ele>69.9</ele>
        <time>2025-06-30T13:53:42Z</time>
      </trkpt>
      <trkpt lat="48.60999" lon="-3.89768">
        <ele>70.1</ele>
        <time>2025-06-30T13:53:44Z</time>
      </trkpt>
      <trkpt lat="48.6101" lon="-3.89762">
        <ele>70.2</ele>
        <time>2025-06-30T13:53:46Z</time>
      </trkpt>
      <trkpt lat="48.61021" lon="-3.89753">
        <ele>70.3</ele>
        <time>2025-06-30T13:53:48Z</time>
      </trkpt>
      <trkpt lat="48.61032" lon="-3.89746">
        <ele>70.4</ele>
        <time>2025-06-30T13:53:50Z</time>
      </trkpt>
      <trkpt lat="48.61043" lon="-3.89739">
        <ele>70.5</ele>
        <time>2025-06-30T13:53:52Z</time>
      </trkpt>
      <trkpt lat="48.61053" lon="-3.89733">
        <ele>70.6</ele>
        <time>2025-06-30T13:53:54Z</time>
      </trkpt>
      <trkpt lat="48.61064" lon="-3.89726">
        <ele>70.7</ele>
        <time>2025-06-30T13:53:56Z</time>
      </trkpt>
      <trkpt lat="48.61074" lon="-3.89719">
        <ele>70.8</ele>
        <time>2025-06-30T13:53:58Z</time>
      </trkpt>
      <trkpt lat="48.61085" lon="-3.89714">
        <ele>70.9</ele>
        <time>2025-06-30T13:54:00Z</time>
      </trkpt>
      <trkpt lat="48.61095" lon="-3.89707">
        <ele>71</ele>
        <time>2025-06-30T13:54:02Z</time>
      </trkpt>
      <trkpt lat="48.61105" lon="-3.897">
        <ele>71.1</ele>
        <time>2025-06-30T13:54:04Z</time>
      </trkpt>
      <trkpt lat="48.61115" lon="-3.89693">
        <ele>71.2</ele>
        <time>2025-06-30T13:54:06Z</time>
      </trkpt>
      <trkpt lat="48.61124" lon="-3.89687">
        <ele>71.3</ele>
        <time>2025-06-30T13:54:08Z</time>
      </trkpt>
      <trkpt lat="48.61134" lon="-3.8968">
        <ele>71.4</ele>
        <time>2025-06-30T13:54:10Z</time>
      </trkpt>
      <trkpt lat="48.61144" lon="-3.89674">
        <ele>71.5</ele>
        <time>2025-06-30T13:54:12Z</time>
      </trkpt>
      <trkpt lat="48.61154" lon="-3.89668">
        <ele>71.6</ele>
        <time>2025-06-30T13:54:14Z</time>
      </trkpt>
      <trkpt lat="48.61164" lon="-3.89661">
        <ele>71.7</ele>
        <time>2025-06-30T13:54:16Z</time>
      </trkpt>
      <trkpt lat="48.61174" lon="-3.89655">
        <ele>71.8</ele>
        <time>2025-06-30T13:54:18Z</time>
      </trkpt>
      <trkpt lat="48.61184" lon="-3.89649">
        <ele>71.9</ele>
        <time>2025-06-30T13:54:20Z</time>
      </trkpt>
      <trkpt lat="48.61193" lon="-3.89642">
        <ele>71.9</ele>
        <time>2025-06-30T13:54:22Z</time>
      </trkpt>
      <trkpt lat="48.61203" lon="-3.89636">
        <ele>72</ele>
        <time>2025-06-30T13:54:24Z</time>
      </trkpt>
      <trkpt lat="48.61212" lon="-3.8963">
        <ele>72.1</ele>
        <time>2025-06-30T13:54:26Z</time>
      </trkpt>
      <trkpt lat="48.61222" lon="-3.89623">
        <ele>72.1</ele>
        <time>2025-06-30T13:54:28Z</time>
      </trkpt>
      <trkpt lat="48.61232" lon="-3.89617">
        <ele>72.2</ele>
        <time>2025-06-30T13:54:30Z</time>
      </trkpt>
      <trkpt lat="48.61241" lon="-3.8961">
        <ele>72.4</ele>
        <time>2025-06-30T13:54:32Z</time>
      </trkpt>
      <trkpt lat="48.61251" lon="-3.89604">
        <ele>72.5</ele>
        <time>2025-06-30T13:54:34Z</time>
      </trkpt>
      <trkpt lat="48.61261" lon="-3.89597">
        <ele>72.6</ele>
        <time>2025-06-30T13:54:36Z</time>
      </trkpt>
      <trkpt lat="48.61271" lon="-3.8959">
        <ele>72.7</ele>
        <time>2025-06-30T13:54:38Z</time>
      </trkpt>
      <trkpt lat="48.61281" lon="-3.89583">
        <ele>72.9</ele>
        <time>2025-06-30T13:54:40Z</time>
      </trkpt>
      <trkpt lat="48.6129" lon="-3.89576">
        <ele>73</ele>
        <time>2025-06-30T13:54:42Z</time>
      </trkpt>
      <trkpt lat="48.613" lon="-3.89569">
        <ele>73.2</ele>
        <time>2025-06-30T13:54:44Z</time>
      </trkpt>
      <trkpt lat="48.61309" lon="-3.89563">
        <ele>73.4</ele>
        <time>2025-06-30T13:54:46Z</time>
      </trkpt>
      <trkpt lat="48.61319" lon="-3.89556">
        <ele>73.5</ele>
        <time>2025-06-30T13:54:48Z</time>
      </trkpt>
      <trkpt lat="48.61328" lon="-3.89549">
        <ele>73.6</ele>
        <time>2025-06-30T13:54:50Z</time>
      </trkpt>
      <trkpt lat="48.61337" lon="-3.89543">
        <ele>73.8</ele>
        <time>2025-06-30T13:54:52Z</time>
      </trkpt>
      <trkpt lat="48.61346" lon="-3.89537">
        <ele>73.9</ele>
        <time>2025-06-30T13:54:54Z</time>
      </trkpt>
      <trkpt lat="48.61355" lon="-3.89529">
        <ele>74.1</ele>
        <time>2025-06-30T13:54:56Z</time>
      </trkpt>
      <trkpt lat="48.61364" lon="-3.89523">
        <ele>74.3</ele>
        <time>2025-06-30T13:54:58Z</time>
      </trkpt>
      <trkpt lat="48.61372" lon="-3.89516">
        <ele>74.4</ele>
        <time>2025-06-30T13:55:00Z</time>
      </trkpt>
      <trkpt lat="48.61381" lon="-3.8951">
        <ele>74.5</ele>
        <time>2025-06-30T13:55:02Z</time>
      </trkpt>
      <trkpt lat="48.61392" lon="-3.89502">
        <ele>74.7</ele>
        <time>2025-06-30T13:55:05Z</time>
      </trkpt>
      <trkpt lat="48.61403" lon="-3.89494">
        <ele>74.8</ele>
        <time>2025-06-30T13:55:08Z</time>
      </trkpt>
      <trkpt lat="48.61414" lon="-3.89485">
        <ele>75</ele>
        <time>2025-06-30T13:55:11Z</time>
      </trkpt>
      <trkpt lat="48.61427" lon="-3.89479">
        <ele>75</ele>
        <time>2025-06-30T13:55:14Z</time>
      </trkpt>
      <trkpt lat="48.6144" lon="-3.89474">
        <ele>75</ele>
        <time>2025-06-30T13:55:17Z</time>
      </trkpt>
      <trkpt lat="48.61453" lon="-3.8947">
        <ele>75</ele>
        <time>2025-06-30T13:55:20Z</time>
      </trkpt>
      <trkpt lat="48.61466" lon="-3.89472">
        <ele>75</ele>
        <time>2025-06-30T13:55:23Z</time>
      </trkpt>
      <trkpt lat="48.61473" lon="-3.89483">
        <ele>74.9</ele>
        <time>2025-06-30T13:55:25Z</time>
      </trkpt>
      <trkpt lat="48.61478" lon="-3.89496">
        <ele>74.8</ele>
        <time>2025-06-30T13:55:27Z</time>
      </trkpt>
      <trkpt lat="48.61484" lon="-3.89509">
        <ele>74.7</ele>
        <time>2025-06-30T13:55:29Z</time>
      </trkpt>
      <trkpt lat="48.61491" lon="-3.89521">
        <ele>74.6</ele>
        <time>2025-06-30T13:55:31Z</time>
      </trkpt>
      <trkpt lat="48.61497" lon="-3.89535">
        <ele>74.5</ele>
        <time>2025-06-30T13:55:33Z</time>
      </trkpt>
      <trkpt lat="48.61503" lon="-3.89549">
        <ele>74.4</ele>
        <time>2025-06-30T13:55:35Z</time>
      </trkpt>
      <trkpt lat="48.6151" lon="-3.89563">
        <ele>74.3</ele>
        <time>2025-06-30T13:55:37Z</time>
      </trkpt>
      <trkpt lat="48.61517" lon="-3.89577">
        <ele>74.2</ele>
        <time>2025-06-30T13:55:39Z</time>
      </trkpt>
      <trkpt lat="48.61524" lon="-3.89593">
        <ele>74.1</ele>
        <time>2025-06-30T13:55:41Z</time>
      </trkpt>
      <trkpt lat="48.61532" lon="-3.89608">
        <ele>73.9</ele>
        <time>2025-06-30T13:55:43Z</time>
      </trkpt>
      <trkpt lat="48.6154" lon="-3.89622">
        <ele>73.8</ele>
        <time>2025-06-30T13:55:45Z</time>
      </trkpt>
      <trkpt lat="48.61549" lon="-3.89637">
        <ele>73.7</ele>
        <time>2025-06-30T13:55:47Z</time>
      </trkpt>
      <trkpt lat="48.61558" lon="-3.89651">
        <ele>73.6</ele>
        <time>2025-06-30T13:55:49Z</time>
      </trkpt>
      <trkpt lat="48.61567" lon="-3.89664">
        <ele>73.5</ele>
        <time>2025-06-30T13:55:51Z</time>
      </trkpt>
      <trkpt lat="48.61575" lon="-3.89679">
        <ele>73.4</ele>
        <time>2025-06-30T13:55:53Z</time>
      </trkpt>
      <trkpt lat="48.61584" lon="-3.89695">
        <ele>73.2</ele>
        <time>2025-06-30T13:55:55Z</time>
      </trkpt>
      <trkpt lat="48.61592" lon="-3.8971">
        <ele>73</ele>
        <time>2025-06-30T13:55:57Z</time>
      </trkpt>
      <trkpt lat="48.616" lon="-3.89726">
        <ele>72.8</ele>
        <time>2025-06-30T13:55:59Z</time>
      </trkpt>
      <trkpt lat="48.61609" lon="-3.89742">
        <ele>72.7</ele>
        <time>2025-06-30T13:56:01Z</time>
      </trkpt>
      <trkpt lat="48.61617" lon="-3.89758">
        <ele>72.5</ele>
        <time>2025-06-30T13:56:03Z</time>
      </trkpt>
      <trkpt lat="48.61626" lon="-3.89774">
        <ele>72.5</ele>
        <time>2025-06-30T13:56:05Z</time>
      </trkpt>
      <trkpt lat="48.61636" lon="-3.89786">
        <ele>72.4</ele>
        <time>2025-06-30T13:56:07Z</time>
      </trkpt>
      <trkpt lat="48.61646" lon="-3.89796">
        <ele>72.4</ele>
        <time>2025-06-30T13:56:09Z</time>
      </trkpt>
      <trkpt lat="48.61657" lon="-3.89806">
        <ele>72.3</ele>
        <time>2025-06-30T13:56:11Z</time>
      </trkpt>
      <trkpt lat="48.61667" lon="-3.89817">
        <ele>72.2</ele>
        <time>2025-06-30T13:56:13Z</time>
      </trkpt>
      <trkpt lat="48.61677" lon="-3.89827">
        <ele>72.1</ele>
        <time>2025-06-30T13:56:15Z</time>
      </trkpt>
      <trkpt lat="48.61687" lon="-3.89838">
        <ele>72</ele>
        <time>2025-06-30T13:56:17Z</time>
      </trkpt>
      <trkpt lat="48.61697" lon="-3.89848">
        <ele>72</ele>
        <time>2025-06-30T13:56:19Z</time>
      </trkpt>
      <trkpt lat="48.61706" lon="-3.8986">
        <ele>71.9</ele>
        <time>2025-06-30T13:56:21Z</time>
      </trkpt>
      <trkpt lat="48.61714" lon="-3.89874">
        <ele>71.9</ele>
        <time>2025-06-30T13:56:23Z</time>
      </trkpt>
      <trkpt lat="48.61722" lon="-3.89888">
        <ele>71.8</ele>
        <time>2025-06-30T13:56:25Z</time>
      </trkpt>
      <trkpt lat="48.6173" lon="-3.89902">
        <ele>71.8</ele>
        <time>2025-06-30T13:56:27Z</time>
      </trkpt>
      <trkpt lat="48.61737" lon="-3.89917">
        <ele>71.8</ele>
        <time>2025-06-30T13:56:29Z</time>
      </trkpt>
      <trkpt lat="48.61745" lon="-3.8993">
        <ele>71.7</ele>
        <time>2025-06-30T13:56:31Z</time>
      </trkpt>
      <trkpt lat="48.61752" lon="-3.89944">
        <ele>71.6</ele>
        <time>2025-06-30T13:56:33Z</time>
      </trkpt>
      <trkpt lat="48.61758" lon="-3.89958">
        <ele>71.6</ele>
        <time>2025-06-30T13:56:35Z</time>
      </trkpt>
      <trkpt lat="48.61766" lon="-3.89972">
        <ele>71.5</ele>
        <time>2025-06-30T13:56:37Z</time>
      </trkpt>
      <trkpt lat="48.61773" lon="-3.89986">
        <ele>71.4</ele>
        <time>2025-06-30T13:56:39Z</time>
      </trkpt>
      <trkpt lat="48.6178" lon="-3.90001">
        <ele>71.3</ele>
        <time>2025-06-30T13:56:41Z</time>
      </trkpt>
      <trkpt lat="48.61787" lon="-3.90015">
        <ele>71.2</ele>
        <time>2025-06-30T13:56:43Z</time>
      </trkpt>
      <trkpt lat="48.61795" lon="-3.9003">
        <ele>71.1</ele>
        <time>2025-06-30T13:56:45Z</time>
      </trkpt>
      <trkpt lat="48.61802" lon="-3.90044">
        <ele>71</ele>
        <time>2025-06-30T13:56:47Z</time>
      </trkpt>
      <trkpt lat="48.61809" lon="-3.90059">
        <ele>70.9</ele>
        <time>2025-06-30T13:56:49Z</time>
      </trkpt>
      <trkpt lat="48.61818" lon="-3.90073">
        <ele>70.8</ele>
        <time>2025-06-30T13:56:51Z</time>
      </trkpt>
      <trkpt lat="48.61827" lon="-3.90086">
        <ele>70.8</ele>
        <time>2025-06-30T13:56:53Z</time>
      </trkpt>
      <trkpt lat="48.61836" lon="-3.90098">
        <ele>70.7</ele>
        <time>2025-06-30T13:56:55Z</time>
      </trkpt>
      <trkpt lat="48.61846" lon="-3.90108">
        <ele>70.7</ele>
        <time>2025-06-30T13:56:57Z</time>
      </trkpt>
      <trkpt lat="48.61857" lon="-3.90116">
        <ele>70.7</ele>
        <time>2025-06-30T13:56:59Z</time>
      </trkpt>
      <trkpt lat="48.61868" lon="-3.90123">
        <ele>70.7</ele>
        <time>2025-06-30T13:57:01Z</time>
      </trkpt>
      <trkpt lat="48.61878" lon="-3.9013">
        <ele>70.7</ele>
        <time>2025-06-30T13:57:03Z</time>
      </trkpt>
      <trkpt lat="48.61889" lon="-3.90135">
        <ele>70.8</ele>
        <time>2025-06-30T13:57:05Z</time>
      </trkpt>
      <trkpt lat="48.619" lon="-3.9014">
        <ele>70.9</ele>
        <time>2025-06-30T13:57:07Z</time>
      </trkpt>
      <trkpt lat="48.6191" lon="-3.90145">
        <ele>71.1</ele>
        <time>2025-06-30T13:57:09Z</time>
      </trkpt>
      <trkpt lat="48.6192" lon="-3.90149">
        <ele>71.2</ele>
        <time>2025-06-30T13:57:11Z</time>
      </trkpt>
      <trkpt lat="48.61929" lon="-3.90154">
        <ele>71.4</ele>
        <time>2025-06-30T13:57:13Z</time>
      </trkpt>
      <trkpt lat="48.61939" lon="-3.90159">
        <ele>71.7</ele>
        <time>2025-06-30T13:57:15Z</time>
      </trkpt>
      <trkpt lat="48.61948" lon="-3.90163">
        <ele>71.9</ele>
        <time>2025-06-30T13:57:17Z</time>
      </trkpt>
      <trkpt lat="48.61957" lon="-3.90167">
        <ele>72.2</ele>
        <time>2025-06-30T13:57:19Z</time>
      </trkpt>
      <trkpt lat="48.61965" lon="-3.90171">
        <ele>72.4</ele>
        <time>2025-06-30T13:57:21Z</time>
      </trkpt>
      <trkpt lat="48.61978" lon="-3.90179">
        <ele>72.7</ele>
        <time>2025-06-30T13:57:24Z</time>
      </trkpt>
      <trkpt lat="48.61989" lon="-3.9019">
        <ele>73</ele>
        <time>2025-06-30T13:57:27Z</time>
      </trkpt>
      <trkpt lat="48.61996" lon="-3.90199">
        <ele>73.1</ele>
        <time>2025-06-30T13:57:29Z</time>
      </trkpt>
      <trkpt lat="48.62002" lon="-3.90209">
        <ele>73.2</ele>
        <time>2025-06-30T13:57:31Z</time>
      </trkpt>
      <trkpt lat="48.62008" lon="-3.90221">
        <ele>73.3</ele>
        <time>2025-06-30T13:57:33Z</time>
      </trkpt>
      <trkpt lat="48.62013" lon="-3.90233">
        <ele>73.5</ele>
        <time>2025-06-30T13:57:35Z</time>
      </trkpt>
      <trkpt lat="48.62018" lon="-3.90246">
        <ele>73.6</ele>
        <time>2025-06-30T13:57:37Z</time>
      </trkpt>
      <trkpt lat="48.62022" lon="-3.90259">
        <ele>73.7</ele>
        <time>2025-06-30T13:57:39Z</time>
      </trkpt>
      <trkpt lat="48.62027" lon="-3.90272">
        <ele>73.9</ele>
        <time>2025-06-30T13:57:41Z</time>
      </trkpt>
      <trkpt lat="48.62031" lon="-3.90284">
        <ele>74.1</ele>
        <time>2025-06-30T13:57:43Z</time>
      </trkpt>
      <trkpt lat="48.62036" lon="-3.90297">
        <ele>74.2</ele>
        <time>2025-06-30T13:57:45Z</time>
      </trkpt>
      <trkpt lat="48.62041" lon="-3.90309">
        <ele>74.4</ele>
        <time>2025-06-30T13:57:47Z</time>
      </trkpt>
      <trkpt lat="48.62046" lon="-3.90323">
        <ele>74.6</ele>
        <time>2025-06-30T13:57:49Z</time>
      </trkpt>
      <trkpt lat="48.6205" lon="-3.90336">
        <ele>74.8</ele>
        <time>2025-06-30T13:57:51Z</time>
      </trkpt>
      <trkpt lat="48.62055" lon="-3.90349">
        <ele>75</ele>
        <time>2025-06-30T13:57:53Z</time>
      </trkpt>
      <trkpt lat="48.6206" lon="-3.90362">
        <ele>75.3</ele>
        <time>2025-06-30T13:57:55Z</time>
      </trkpt>
      <trkpt lat="48.62066" lon="-3.90374">
        <ele>75.5</ele>
        <time>2025-06-30T13:57:57Z</time>
      </trkpt>
      <trkpt lat="48.6207" lon="-3.90388">
        <ele>75.8</ele>
        <time>2025-06-30T13:57:59Z</time>
      </trkpt>
      <trkpt lat="48.62075" lon="-3.90401">
        <ele>76</ele>
        <time>2025-06-30T13:58:01Z</time>
      </trkpt>
      <trkpt lat="48.62079" lon="-3.90413">
        <ele>76.2</ele>
        <time>2025-06-30T13:58:03Z</time>
      </trkpt>
      <trkpt lat="48.62085" lon="-3.90426">
        <ele>76.4</ele>
        <time>2025-06-30T13:58:05Z</time>
      </trkpt>
      <trkpt lat="48.6209" lon="-3.90439">
        <ele>76.6</ele>
        <time>2025-06-30T13:58:07Z</time>
      </trkpt>
      <trkpt lat="48.62095" lon="-3.90451">
        <ele>76.8</ele>
        <time>2025-06-30T13:58:09Z</time>
      </trkpt>
      <trkpt lat="48.62101" lon="-3.90464">
        <ele>77</ele>
        <time>2025-06-30T13:58:11Z</time>
      </trkpt>
      <trkpt lat="48.62107" lon="-3.90476">
        <ele>77.1</ele>
        <time>2025-06-30T13:58:13Z</time>
      </trkpt>
      <trkpt lat="48.62113" lon="-3.90488">
        <ele>77.3</ele>
        <time>2025-06-30T13:58:15Z</time>
      </trkpt>
      <trkpt lat="48.62118" lon="-3.905">
        <ele>77.5</ele>
        <time>2025-06-30T13:58:17Z</time>
      </trkpt>
      <trkpt lat="48.62124" lon="-3.90513">
        <ele>77.6</ele>
        <time>2025-06-30T13:58:19Z</time>
      </trkpt>
      <trkpt lat="48.6213" lon="-3.90525">
        <ele>77.7</ele>
        <time>2025-06-30T13:58:21Z</time>
      </trkpt>
      <trkpt lat="48.62136" lon="-3.90537">
        <ele>77.8</ele>
        <time>2025-06-30T13:58:23Z</time>
      </trkpt>
      <trkpt lat="48.62142" lon="-3.90549">
        <ele>77.9</ele>
        <time>2025-06-30T13:58:25Z</time>
      </trkpt>
      <trkpt lat="48.62148" lon="-3.90561">
        <ele>78</ele>
        <time>2025-06-30T13:58:27Z</time>
      </trkpt>
      <trkpt lat="48.62154" lon="-3.90574">
        <ele>78.1</ele>
        <time>2025-06-30T13:58:29Z</time>
      </trkpt>
      <trkpt lat="48.6216" lon="-3.90587">
        <ele>78.2</ele>
        <time>2025-06-30T13:58:31Z</time>
      </trkpt>
      <trkpt lat="48.62167" lon="-3.906">
        <ele>78.4</ele>
        <time>2025-06-30T13:58:33Z</time>
      </trkpt>
      <trkpt lat="48.62173" lon="-3.90612">
        <ele>78.5</ele>
        <time>2025-06-30T13:58:35Z</time>
      </trkpt>
      <trkpt lat="48.62179" lon="-3.90625">
        <ele>78.6</ele>
        <time>2025-06-30T13:58:37Z</time>
      </trkpt>
      <trkpt lat="48.62185" lon="-3.90638">
        <ele>78.7</ele>
        <time>2025-06-30T13:58:39Z</time>
      </trkpt>
      <trkpt lat="48.62191" lon="-3.90651">
        <ele>78.7</ele>
        <time>2025-06-30T13:58:41Z</time>
      </trkpt>
      <trkpt lat="48.62198" lon="-3.90664">
        <ele>78.8</ele>
        <time>2025-06-30T13:58:43Z</time>
      </trkpt>
      <trkpt lat="48.62204" lon="-3.90678">
        <ele>78.9</ele>
        <time>2025-06-30T13:58:45Z</time>
      </trkpt>
      <trkpt lat="48.62211" lon="-3.90691">
        <ele>79</ele>
        <time>2025-06-30T13:58:47Z</time>
      </trkpt>
      <trkpt lat="48.62217" lon="-3.90705">
        <ele>79.1</ele>
        <time>2025-06-30T13:58:49Z</time>
      </trkpt>
      <trkpt lat="48.62223" lon="-3.90719">
        <ele>79.1</ele>
        <time>2025-06-30T13:58:51Z</time>
      </trkpt>
      <trkpt lat="48.62229" lon="-3.90733">
        <ele>79.2</ele>
        <time>2025-06-30T13:58:53Z</time>
      </trkpt>
      <trkpt lat="48.62235" lon="-3.90747">
        <ele>79.3</ele>
        <time>2025-06-30T13:58:55Z</time>
      </trkpt>
      <trkpt lat="48.62242" lon="-3.9076">
        <ele>79.3</ele>
        <time>2025-06-30T13:58:57Z</time>
      </trkpt>
      <trkpt lat="48.62247" lon="-3.90774">
        <ele>79.4</ele>
        <time>2025-06-30T13:58:59Z</time>
      </trkpt>
      <trkpt lat="48.62252" lon="-3.90789">
        <ele>79.4</ele>
        <time>2025-06-30T13:59:01Z</time>
      </trkpt>
      <trkpt lat="48.62255" lon="-3.90805">
        <ele>79.5</ele>
        <time>2025-06-30T13:59:03Z</time>
      </trkpt>
      <trkpt lat="48.62258" lon="-3.90822">
        <ele>79.5</ele>
        <time>2025-06-30T13:59:05Z</time>
      </trkpt>
      <trkpt lat="48.62261" lon="-3.90838">
        <ele>79.6</ele>
        <time>2025-06-30T13:59:07Z</time>
      </trkpt>
      <trkpt lat="48.62264" lon="-3.90854">
        <ele>79.7</ele>
        <time>2025-06-30T13:59:09Z</time>
      </trkpt>
      <trkpt lat="48.62266" lon="-3.9087">
        <ele>79.7</ele>
        <time>2025-06-30T13:59:11Z</time>
      </trkpt>
      <trkpt lat="48.62269" lon="-3.90886">
        <ele>79.8</ele>
        <time>2025-06-30T13:59:13Z</time>
      </trkpt>
      <trkpt lat="48.62272" lon="-3.90902">
        <ele>79.7</ele>
        <time>2025-06-30T13:59:15Z</time>
      </trkpt>
      <trkpt lat="48.62274" lon="-3.90918">
        <ele>79.7</ele>
        <time>2025-06-30T13:59:17Z</time>
      </trkpt>
      <trkpt lat="48.62276" lon="-3.90933">
        <ele>79.7</ele>
        <time>2025-06-30T13:59:19Z</time>
      </trkpt>
      <trkpt lat="48.62277" lon="-3.90948">
        <ele>79.7</ele>
        <time>2025-06-30T13:59:21Z</time>
      </trkpt>
      <trkpt lat="48.62278" lon="-3.90964">
        <ele>79.7</ele>
        <time>2025-06-30T13:59:23Z</time>
      </trkpt>
      <trkpt lat="48.62281" lon="-3.9098">
        <ele>79.6</ele>
        <time>2025-06-30T13:59:25Z</time>
      </trkpt>
      <trkpt lat="48.62283" lon="-3.90997">
        <ele>79.5</ele>
        <time>2025-06-30T13:59:27Z</time>
      </trkpt>
      <trkpt lat="48.62286" lon="-3.91015">
        <ele>79.4</ele>
        <time>2025-06-30T13:59:29Z</time>
      </trkpt>
      <trkpt lat="48.62288" lon="-3.91032">
        <ele>79.3</ele>
        <time>2025-06-30T13:59:31Z</time>
      </trkpt>
      <trkpt lat="48.6229" lon="-3.91049">
        <ele>79.2</ele>
        <time>2025-06-30T13:59:33Z</time>
      </trkpt>
      <trkpt lat="48.62293" lon="-3.91065">
        <ele>79.1</ele>
        <time>2025-06-30T13:59:35Z</time>
      </trkpt>
      <trkpt lat="48.62294" lon="-3.91081">
        <ele>79</ele>
        <time>2025-06-30T13:59:37Z</time>
      </trkpt>
      <trkpt lat="48.62296" lon="-3.91096">
        <ele>78.9</ele>
        <time>2025-06-30T13:59:39Z</time>
      </trkpt>
      <trkpt lat="48.62297" lon="-3.9111">
        <ele>78.7</ele>
        <time>2025-06-30T13:59:41Z</time>
      </trkpt>
      <trkpt lat="48.62298" lon="-3.91126">
        <ele>78.5</ele>
        <time>2025-06-30T13:59:43Z</time>
      </trkpt>
      <trkpt lat="48.62299" lon="-3.91144">
        <ele>78.3</ele>
        <time>2025-06-30T13:59:45Z</time>
      </trkpt>
      <trkpt lat="48.623" lon="-3.91162">
        <ele>78.1</ele>
        <time>2025-06-30T13:59:47Z</time>
      </trkpt>
      <trkpt lat="48.623" lon="-3.91179">
        <ele>77.8</ele>
        <time>2025-06-30T13:59:49Z</time>
      </trkpt>
      <trkpt lat="48.62302" lon="-3.91198">
        <ele>77.6</ele>
        <time>2025-06-30T13:59:51Z</time>
      </trkpt>
      <trkpt lat="48.62304" lon="-3.91217">
        <ele>77.4</ele>
        <time>2025-06-30T13:59:53Z</time>
      </trkpt>
      <trkpt lat="48.62307" lon="-3.91237">
        <ele>77.1</ele>
        <time>2025-06-30T13:59:55Z</time>
      </trkpt>
      <trkpt lat="48.6231" lon="-3.91257">
        <ele>76.9</ele>
        <time>2025-06-30T13:59:57Z</time>
      </trkpt>
      <trkpt lat="48.62313" lon="-3.91278">
        <ele>76.7</ele>
        <time>2025-06-30T13:59:59Z</time>
      </trkpt>
      <trkpt lat="48.62315" lon="-3.91297">
        <ele>76.5</ele>
        <time>2025-06-30T14:00:01Z</time>
      </trkpt>
      <trkpt lat="48.62318" lon="-3.91316">
        <ele>76.4</ele>
        <time>2025-06-30T14:00:03Z</time>
      </trkpt>
      <trkpt lat="48.62321" lon="-3.91335">
        <ele>76.4</ele>
        <time>2025-06-30T14:00:05Z</time>
      </trkpt>
      <trkpt lat="48.62325" lon="-3.91353">
        <ele>76.3</ele>
        <time>2025-06-30T14:00:07Z</time>
      </trkpt>
      <trkpt lat="48.62329" lon="-3.91373">
        <ele>76.2</ele>
        <time>2025-06-30T14:00:09Z</time>
      </trkpt>
      <trkpt lat="48.62332" lon="-3.91393">
        <ele>76.1</ele>
        <time>2025-06-30T14:00:11Z</time>
      </trkpt>
      <trkpt lat="48.62336" lon="-3.91412">
        <ele>76</ele>
        <time>2025-06-30T14:00:13Z</time>
      </trkpt>
      <trkpt lat="48.6234" lon="-3.91433">
        <ele>75.9</ele>
        <time>2025-06-30T14:00:15Z</time>
      </trkpt>
      <trkpt lat="48.62345" lon="-3.91453">
        <ele>75.9</ele>
        <time>2025-06-30T14:00:17Z</time>
      </trkpt>
      <trkpt lat="48.62349" lon="-3.91474">
        <ele>76</ele>
        <time>2025-06-30T14:00:19Z</time>
      </trkpt>
      <trkpt lat="48.62353" lon="-3.91495">
        <ele>76.1</ele>
        <time>2025-06-30T14:00:21Z</time>
      </trkpt>
      <trkpt lat="48.62356" lon="-3.91515">
        <ele>76.1</ele>
        <time>2025-06-30T14:00:23Z</time>
      </trkpt>
      <trkpt lat="48.62358" lon="-3.91536">
        <ele>76.1</ele>
        <time>2025-06-30T14:00:25Z</time>
      </trkpt>
      <trkpt lat="48.62361" lon="-3.91558">
        <ele>76.2</ele>
        <time>2025-06-30T14:00:27Z</time>
      </trkpt>
      <trkpt lat="48.62362" lon="-3.91579">
        <ele>76.2</ele>
        <time>2025-06-30T14:00:29Z</time>
      </trkpt>
      <trkpt lat="48.62364" lon="-3.916">
        <ele>76.3</ele>
        <time>2025-06-30T14:00:31Z</time>
      </trkpt>
      <trkpt lat="48.62366" lon="-3.91621">
        <ele>76.4</ele>
        <time>2025-06-30T14:00:33Z</time>
      </trkpt>
      <trkpt lat="48.62367" lon="-3.91642">
        <ele>76.6</ele>
        <time>2025-06-30T14:00:35Z</time>
      </trkpt>
      <trkpt lat="48.62369" lon="-3.91663">
        <ele>76.7</ele>
        <time>2025-06-30T14:00:37Z</time>
      </trkpt>
      <trkpt lat="48.62371" lon="-3.91683">
        <ele>76.9</ele>
        <time>2025-06-30T14:00:39Z</time>
      </trkpt>
      <trkpt lat="48.62372" lon="-3.91703">
        <ele>77</ele>
        <time>2025-06-30T14:00:41Z</time>
      </trkpt>
      <trkpt lat="48.62375" lon="-3.91724">
        <ele>77.1</ele>
        <time>2025-06-30T14:00:43Z</time>
      </trkpt>
      <trkpt lat="48.62376" lon="-3.91744">
        <ele>77.2</ele>
        <time>2025-06-30T14:00:45Z</time>
      </trkpt>
      <trkpt lat="48.62378" lon="-3.91764">
        <ele>77.3</ele>
        <time>2025-06-30T14:00:47Z</time>
      </trkpt>
      <trkpt lat="48.6238" lon="-3.91782">
        <ele>77.5</ele>
        <time>2025-06-30T14:00:49Z</time>
      </trkpt>
      <trkpt lat="48.62381" lon="-3.91798">
        <ele>77.7</ele>
        <time>2025-06-30T14:00:51Z</time>
      </trkpt>
      <trkpt lat="48.62382" lon="-3.91813">
        <ele>77.8</ele>
        <time>2025-06-30T14:00:53Z</time>
      </trkpt>
      <trkpt lat="48.62386" lon="-3.91829">
        <ele>78</ele>
        <time>2025-06-30T14:00:55Z</time>
      </trkpt>
      <trkpt lat="48.62392" lon="-3.91844">
        <ele>78.1</ele>
        <time>2025-06-30T14:00:57Z</time>
      </trkpt>
      <trkpt lat="48.62401" lon="-3.91856">
        <ele>78.2</ele>
        <time>2025-06-30T14:00:59Z</time>
      </trkpt>
      <trkpt lat="48.62413" lon="-3.91864">
        <ele>78.4</ele>
        <time>2025-06-30T14:01:01Z</time>
      </trkpt>
      <trkpt lat="48.62427" lon="-3.91866">
        <ele>78.5</ele>
        <time>2025-06-30T14:01:03Z</time>
      </trkpt>
      <trkpt lat="48.6244" lon="-3.91862">
        <ele>78.5</ele>
        <time>2025-06-30T14:01:05Z</time>
      </trkpt>
      <trkpt lat="48.62453" lon="-3.91858">
        <ele>78.6</ele>
        <time>2025-06-30T14:01:07Z</time>
      </trkpt>
      <trkpt lat="48.62466" lon="-3.91856">
        <ele>78.6</ele>
        <time>2025-06-30T14:01:09Z</time>
      </trkpt>
      <trkpt lat="48.62481" lon="-3.91855">
        <ele>78.6</ele>
        <time>2025-06-30T14:01:11Z</time>
      </trkpt>
      <trkpt lat="48.62495" lon="-3.91856">
        <ele>78.6</ele>
        <time>2025-06-30T14:01:13Z</time>
      </trkpt>
      <trkpt lat="48.6251" lon="-3.9186">
        <ele>78.7</ele>
        <time>2025-06-30T14:01:15Z</time>
      </trkpt>
      <trkpt lat="48.62523" lon="-3.91869">
        <ele>78.7</ele>
        <time>2025-06-30T14:01:17Z</time>
      </trkpt>
      <trkpt lat="48.62536" lon="-3.9188">
        <ele>78.6</ele>
        <time>2025-06-30T14:01:19Z</time>
      </trkpt>
      <trkpt lat="48.6255" lon="-3.91891">
        <ele>78.5</ele>
        <time>2025-06-30T14:01:21Z</time>
      </trkpt>
      <trkpt lat="48.62564" lon="-3.91902">
        <ele>78.4</ele>
        <time>2025-06-30T14:01:23Z</time>
      </trkpt>
      <trkpt lat="48.62579" lon="-3.91913">
        <ele>78.2</ele>
        <time>2025-06-30T14:01:25Z</time>
      </trkpt>
      <trkpt lat="48.62593" lon="-3.91926">
        <ele>78.2</ele>
        <time>2025-06-30T14:01:27Z</time>
      </trkpt>
      <trkpt lat="48.62607" lon="-3.91939">
        <ele>78.2</ele>
        <time>2025-06-30T14:01:29Z</time>
      </trkpt>
      <trkpt lat="48.62619" lon="-3.91955">
        <ele>78.2</ele>
        <time>2025-06-30T14:01:31Z</time>
      </trkpt>
      <trkpt lat="48.62631" lon="-3.91972">
        <ele>78.1</ele>
        <time>2025-06-30T14:01:33Z</time>
      </trkpt>
      <trkpt lat="48.62643" lon="-3.91989">
        <ele>78</ele>
        <time>2025-06-30T14:01:35Z</time>
      </trkpt>
      <trkpt lat="48.62654" lon="-3.92006">
        <ele>77.9</ele>
        <time>2025-06-30T14:01:37Z</time>
      </trkpt>
      <trkpt lat="48.62666" lon="-3.92022">
        <ele>77.9</ele>
        <time>2025-06-30T14:01:39Z</time>
      </trkpt>
      <trkpt lat="48.62677" lon="-3.92039">
        <ele>77.8</ele>
        <time>2025-06-30T14:01:41Z</time>
      </trkpt>
      <trkpt lat="48.62689" lon="-3.92056">
        <ele>77.7</ele>
        <time>2025-06-30T14:01:43Z</time>
      </trkpt>
      <trkpt lat="48.62701" lon="-3.92073">
        <ele>77.7</ele>
        <time>2025-06-30T14:01:45Z</time>
      </trkpt>
      <trkpt lat="48.62712" lon="-3.92089">
        <ele>77.7</ele>
        <time>2025-06-30T14:01:47Z</time>
      </trkpt>
      <trkpt lat="48.62724" lon="-3.92105">
        <ele>77.7</ele>
        <time>2025-06-30T14:01:49Z</time>
      </trkpt>
      <trkpt lat="48.62735" lon="-3.92121">
        <ele>77.8</ele>
        <time>2025-06-30T14:01:51Z</time>
      </trkpt>
      <trkpt lat="48.62745" lon="-3.92137">
        <ele>78</ele>
        <time>2025-06-30T14:01:53Z</time>
      </trkpt>
      <trkpt lat="48.62756" lon="-3.92151">
        <ele>78</ele>
        <time>2025-06-30T14:01:55Z</time>
      </trkpt>
      <trkpt lat="48.62766" lon="-3.92166">
        <ele>78.1</ele>
        <time>2025-06-30T14:01:57Z</time>
      </trkpt>
      <trkpt lat="48.62777" lon="-3.9218">
        <ele>78.1</ele>
        <time>2025-06-30T14:01:59Z</time>
      </trkpt>
      <trkpt lat="48.62787" lon="-3.92195">
        <ele>78.3</ele>
        <time>2025-06-30T14:02:01Z</time>
      </trkpt>
      <trkpt lat="48.62797" lon="-3.9221">
        <ele>78.3</ele>
        <time>2025-06-30T14:02:03Z</time>
      </trkpt>
      <trkpt lat="48.62807" lon="-3.92224">
        <ele>78.3</ele>
        <time>2025-06-30T14:02:05Z</time>
      </trkpt>
      <trkpt lat="48.62817" lon="-3.92238">
        <ele>78.3</ele>
        <time>2025-06-30T14:02:07Z</time>
      </trkpt>
      <trkpt lat="48.62826" lon="-3.92252">
        <ele>78.4</ele>
        <time>2025-06-30T14:02:09Z</time>
      </trkpt>
      <trkpt lat="48.62836" lon="-3.92265">
        <ele>78.4</ele>
        <time>2025-06-30T14:02:11Z</time>
      </trkpt>
      <trkpt lat="48.62844" lon="-3.92278">
        <ele>78.5</ele>
        <time>2025-06-30T14:02:13Z</time>
      </trkpt>
      <trkpt lat="48.62853" lon="-3.92292">
        <ele>78.4</ele>
        <time>2025-06-30T14:02:15Z</time>
      </trkpt>
      <trkpt lat="48.62862" lon="-3.92305">
        <ele>78.3</ele>
        <time>2025-06-30T14:02:17Z</time>
      </trkpt>
      <trkpt lat="48.62871" lon="-3.92319">
        <ele>78.3</ele>
        <time>2025-06-30T14:02:19Z</time>
      </trkpt>
      <trkpt lat="48.62879" lon="-3.92332">
        <ele>78.2</ele>
        <time>2025-06-30T14:02:21Z</time>
      </trkpt>
      <trkpt lat="48.62887" lon="-3.92346">
        <ele>78.1</ele>
        <time>2025-06-30T14:02:23Z</time>
      </trkpt>
      <trkpt lat="48.62895" lon="-3.9236">
        <ele>78</ele>
        <time>2025-06-30T14:02:25Z</time>
      </trkpt>
      <trkpt lat="48.62903" lon="-3.92373">
        <ele>77.9</ele>
        <time>2025-06-30T14:02:27Z</time>
      </trkpt>
      <trkpt lat="48.62911" lon="-3.92387">
        <ele>77.6</ele>
        <time>2025-06-30T14:02:29Z</time>
      </trkpt>
      <trkpt lat="48.6292" lon="-3.924">
        <ele>77.4</ele>
        <time>2025-06-30T14:02:31Z</time>
      </trkpt>
      <trkpt lat="48.62929" lon="-3.92412">
        <ele>77.2</ele>
        <time>2025-06-30T14:02:33Z</time>
      </trkpt>
      <trkpt lat="48.62939" lon="-3.92424">
        <ele>77</ele>
        <time>2025-06-30T14:02:35Z</time>
      </trkpt>
      <trkpt lat="48.6295" lon="-3.92433">
        <ele>76.9</ele>
        <time>2025-06-30T14:02:37Z</time>
      </trkpt>
      <trkpt lat="48.6296" lon="-3.92442">
        <ele>76.7</ele>
        <time>2025-06-30T14:02:39Z</time>
      </trkpt>
      <trkpt lat="48.62971" lon="-3.92449">
        <ele>76.6</ele>
        <time>2025-06-30T14:02:41Z</time>
      </trkpt>
      <trkpt lat="48.62981" lon="-3.92454">
        <ele>76.4</ele>
        <time>2025-06-30T14:02:43Z</time>
      </trkpt>
      <trkpt lat="48.62991" lon="-3.9246">
        <ele>76.3</ele>
        <time>2025-06-30T14:02:45Z</time>
      </trkpt>
      <trkpt lat="48.63001" lon="-3.92465">
        <ele>76.2</ele>
        <time>2025-06-30T14:02:47Z</time>
      </trkpt>
      <trkpt lat="48.63012" lon="-3.9247">
        <ele>76</ele>
        <time>2025-06-30T14:02:49Z</time>
      </trkpt>
      <trkpt lat="48.63023" lon="-3.92475">
        <ele>75.9</ele>
        <time>2025-06-30T14:02:51Z</time>
      </trkpt>
      <trkpt lat="48.63033" lon="-3.92481">
        <ele>75.6</ele>
        <time>2025-06-30T14:02:53Z</time>
      </trkpt>
      <trkpt lat="48.63044" lon="-3.92488">
        <ele>75.3</ele>
        <time>2025-06-30T14:02:55Z</time>
      </trkpt>
      <trkpt lat="48.63055" lon="-3.92497">
        <ele>75</ele>
        <time>2025-06-30T14:02:57Z</time>
      </trkpt>
      <trkpt lat="48.63065" lon="-3.92506">
        <ele>74.7</ele>
        <time>2025-06-30T14:02:59Z</time>
      </trkpt>
      <trkpt lat="48.63076" lon="-3.92516">
        <ele>74.3</ele>
        <time>2025-06-30T14:03:01Z</time>
      </trkpt>
      <trkpt lat="48.63085" lon="-3.92528">
        <ele>73.9</ele>
        <time>2025-06-30T14:03:03Z</time>
      </trkpt>
      <trkpt lat="48.63094" lon="-3.92541">
        <ele>73.5</ele>
        <time>2025-06-30T14:03:05Z</time>
      </trkpt>
      <trkpt lat="48.63104" lon="-3.92553">
        <ele>73.1</ele>
        <time>2025-06-30T14:03:07Z</time>
      </trkpt>
      <trkpt lat="48.63114" lon="-3.92567">
        <ele>72.7</ele>
        <time>2025-06-30T14:03:09Z</time>
      </trkpt>
      <trkpt lat="48.63124" lon="-3.9258">
        <ele>72.4</ele>
        <time>2025-06-30T14:03:11Z</time>
      </trkpt>
      <trkpt lat="48.63135" lon="-3.92592">
        <ele>72.2</ele>
        <time>2025-06-30T14:03:13Z</time>
      </trkpt>
      <trkpt lat="48.63144" lon="-3.92607">
        <ele>71.9</ele>
        <time>2025-06-30T14:03:15Z</time>
      </trkpt>
      <trkpt lat="48.63154" lon="-3.92621">
        <ele>71.7</ele>
        <time>2025-06-30T14:03:17Z</time>
      </trkpt>
      <trkpt lat="48.63162" lon="-3.92628">
        <ele>71.5</ele>
        <time>2025-06-30T14:03:19Z</time>
      </trkpt>
      <trkpt lat="48.6317" lon="-3.92637">
        <ele>71.3</ele>
        <time>2025-06-30T14:03:23Z</time>
      </trkpt>
      <trkpt lat="48.63155" lon="-3.92624">
        <ele>71</ele>
        <time>2025-06-30T14:03:30Z</time>
      </trkpt>
      <trkpt lat="48.63145" lon="-3.92614">
        <ele>71.3</ele>
        <time>2025-06-30T14:03:33Z</time>
      </trkpt>
      <trkpt lat="48.63138" lon="-3.92605">
        <ele>71.6</ele>
        <time>2025-06-30T14:03:35Z</time>
      </trkpt>
      <trkpt lat="48.63131" lon="-3.92596">
        <ele>71.9</ele>
        <time>2025-06-30T14:03:37Z</time>
      </trkpt>
      <trkpt lat="48.63123" lon="-3.92586">
        <ele>72.2</ele>
        <time>2025-06-30T14:03:39Z</time>
      </trkpt>
      <trkpt lat="48.63115" lon="-3.92576">
        <ele>72.5</ele>
        <time>2025-06-30T14:03:41Z</time>
      </trkpt>
      <trkpt lat="48.63106" lon="-3.92565">
        <ele>72.9</ele>
        <time>2025-06-30T14:03:43Z</time>
      </trkpt>
      <trkpt lat="48.63097" lon="-3.92554">
        <ele>73.3</ele>
        <time>2025-06-30T14:03:45Z</time>
      </trkpt>
      <trkpt lat="48.63088" lon="-3.92543">
        <ele>73.7</ele>
        <time>2025-06-30T14:03:47Z</time>
      </trkpt>
      <trkpt lat="48.6308" lon="-3.92532">
        <ele>74</ele>
        <time>2025-06-30T14:03:49Z</time>
      </trkpt>
      <trkpt lat="48.63071" lon="-3.92522">
        <ele>74.4</ele>
        <time>2025-06-30T14:03:51Z</time>
      </trkpt>
      <trkpt lat="48.63063" lon="-3.92511">
        <ele>74.7</ele>
        <time>2025-06-30T14:03:53Z</time>
      </trkpt>
      <trkpt lat="48.63055" lon="-3.92502">
        <ele>74.9</ele>
        <time>2025-06-30T14:03:55Z</time>
      </trkpt>
      <trkpt lat="48.63047" lon="-3.92494">
        <ele>75.2</ele>
        <time>2025-06-30T14:03:57Z</time>
      </trkpt>
      <trkpt lat="48.63035" lon="-3.92485">
        <ele>75.6</ele>
        <time>2025-06-30T14:04:00Z</time>
      </trkpt>
      <trkpt lat="48.63026" lon="-3.92477">
        <ele>75.8</ele>
        <time>2025-06-30T14:04:03Z</time>
      </trkpt>
      <trkpt lat="48.63026" lon="-3.92459">
        <ele>76</ele>
        <time>2025-06-30T14:04:06Z</time>
      </trkpt>
      <trkpt lat="48.63032" lon="-3.92443">
        <ele>76.1</ele>
        <time>2025-06-30T14:04:09Z</time>
      </trkpt>
      <trkpt lat="48.63036" lon="-3.9243">
        <ele>76.3</ele>
        <time>2025-06-30T14:04:11Z</time>
      </trkpt>
      <trkpt lat="48.63039" lon="-3.92417">
        <ele>76.4</ele>
        <time>2025-06-30T14:04:13Z</time>
      </trkpt>
      <trkpt lat="48.63042" lon="-3.92396">
        <ele>76.5</ele>
        <time>2025-06-30T14:04:16Z</time>
      </trkpt>
      <trkpt lat="48.63046" lon="-3.92382">
        <ele>76.7</ele>
        <time>2025-06-30T14:04:18Z</time>
      </trkpt>
      <trkpt lat="48.6305" lon="-3.92368">
        <ele>76.8</ele>
        <time>2025-06-30T14:04:20Z</time>
      </trkpt>
      <trkpt lat="48.63052" lon="-3.92354">
        <ele>76.9</ele>
        <time>2025-06-30T14:04:22Z</time>
      </trkpt>
      <trkpt lat="48.63055" lon="-3.92341">
        <ele>77</ele>
        <time>2025-06-30T14:04:24Z</time>
      </trkpt>
      <trkpt lat="48.63059" lon="-3.92329">
        <ele>77.2</ele>
        <time>2025-06-30T14:04:26Z</time>
      </trkpt>
      <trkpt lat="48.63061" lon="-3.92312">
        <ele>77.2</ele>
        <time>2025-06-30T14:04:29Z</time>
      </trkpt>
      <trkpt lat="48.63059" lon="-3.92296">
        <ele>77.2</ele>
        <time>2025-06-30T14:04:32Z</time>
      </trkpt>
      <trkpt lat="48.63058" lon="-3.92276">
        <ele>77.4</ele>
        <time>2025-06-30T14:04:35Z</time>
      </trkpt>
      <trkpt lat="48.63058" lon="-3.92258">
        <ele>77.5</ele>
        <time>2025-06-30T14:04:38Z</time>
      </trkpt>
      <trkpt lat="48.63061" lon="-3.92244">
        <ele>77.3</ele>
        <time>2025-06-30T14:04:41Z</time>
      </trkpt>
      <trkpt lat="48.63066" lon="-3.92228">
        <ele>77.4</ele>
        <time>2025-06-30T14:04:44Z</time>
      </trkpt>
      <trkpt lat="48.63069" lon="-3.92213">
        <ele>77.5</ele>
        <time>2025-06-30T14:04:47Z</time>
      </trkpt>
      <trkpt lat="48.63068" lon="-3.92196">
        <ele>77.5</ele>
        <time>2025-06-30T14:04:51Z</time>
      </trkpt>
      <trkpt lat="48.63071" lon="-3.92182">
        <ele>77.6</ele>
        <time>2025-06-30T14:04:55Z</time>
      </trkpt>
    </trkseg>
  </trk>
</gpx>